<?xml version="1.0" encoding="UTF-8" standalone="no" ?>
<gpx xmlns="http://www.topografix.com/GPX/1/1" xmlns:xsi="http://www.w3.org/2001/XMLSchema-instance" xsi:schemaLocation="http://www.topografix.com/GPX/1/1 http://www.topografix.com/GPX/1/1/gpx.xsd" version="1.1" creator="VisuGPX - https://www.visugpx.com">
  <metadata>
    <name>Cluny-Pouilly-sous-Charlieu</name>
    <desc><![CDATA[Chemin de Compostelle 2015 : Cluny-Pouilly-sous-Charlieu]]></desc>
  </metadata>
  <trk>
    <name><![CDATA[Cluny-Pouilly-sous-Charlieu_1]]></name>
    <trkseg>
      <trkpt lat="46.43357" lon="4.6578">
        <ele>252</ele>
        <time>2015-07-06T09:22:06Z</time>
      </trkpt>
      <trkpt lat="46.43351" lon="4.65787">
        <ele>250</ele>
        <time>2015-07-06T09:22:38Z</time>
      </trkpt>
      <trkpt lat="46.4333" lon="4.65834">
        <ele>239</ele>
        <time>2015-07-06T09:23:10Z</time>
      </trkpt>
      <trkpt lat="46.43328" lon="4.6586">
        <ele>239</ele>
        <time>2015-07-06T09:23:27Z</time>
      </trkpt>
      <trkpt lat="46.43325" lon="4.65873">
        <ele>240</ele>
        <time>2015-07-06T09:23:38Z</time>
      </trkpt>
      <trkpt lat="46.43321" lon="4.65914">
        <ele>245</ele>
        <time>2015-07-06T09:24:02Z</time>
      </trkpt>
      <trkpt lat="46.43302" lon="4.65964">
        <ele>234</ele>
        <time>2015-07-06T09:24:29Z</time>
      </trkpt>
      <trkpt lat="46.43293" lon="4.65972">
        <ele>232</ele>
        <time>2015-07-06T09:24:36Z</time>
      </trkpt>
      <trkpt lat="46.43284" lon="4.65976">
        <ele>232</ele>
        <time>2015-07-06T09:24:42Z</time>
      </trkpt>
      <trkpt lat="46.43262" lon="4.66021">
        <ele>233</ele>
        <time>2015-07-06T09:25:14Z</time>
      </trkpt>
      <trkpt lat="46.43255" lon="4.6603">
        <ele>234</ele>
        <time>2015-07-06T09:25:22Z</time>
      </trkpt>
      <trkpt lat="46.43238" lon="4.66079">
        <ele>238</ele>
        <time>2015-07-06T09:25:53Z</time>
      </trkpt>
      <trkpt lat="46.43233" lon="4.66087">
        <ele>238</ele>
        <time>2015-07-06T09:25:59Z</time>
      </trkpt>
      <trkpt lat="46.43222" lon="4.66095">
        <ele>238</ele>
        <time>2015-07-06T09:26:06Z</time>
      </trkpt>
      <trkpt lat="46.43213" lon="4.6612">
        <ele>236</ele>
        <time>2015-07-06T09:26:20Z</time>
      </trkpt>
      <trkpt lat="46.4321" lon="4.6615">
        <ele>234</ele>
        <time>2015-07-06T09:26:36Z</time>
      </trkpt>
      <trkpt lat="46.43207" lon="4.66166">
        <ele>234</ele>
        <time>2015-07-06T09:26:44Z</time>
      </trkpt>
      <trkpt lat="46.43204" lon="4.66166">
        <ele>234</ele>
        <time>2015-07-06T09:26:48Z</time>
      </trkpt>
      <trkpt lat="46.432" lon="4.66165">
        <ele>234</ele>
        <time>2015-07-06T09:26:54Z</time>
      </trkpt>
      <trkpt lat="46.43196" lon="4.6616">
        <ele>234</ele>
        <time>2015-07-06T09:26:58Z</time>
      </trkpt>
      <trkpt lat="46.43184" lon="4.66158">
        <ele>234</ele>
        <time>2015-07-06T09:27:08Z</time>
      </trkpt>
      <trkpt lat="46.43169" lon="4.66166">
        <ele>234</ele>
        <time>2015-07-06T09:27:23Z</time>
      </trkpt>
      <trkpt lat="46.4312" lon="4.66161">
        <ele>234</ele>
        <time>2015-07-06T09:27:59Z</time>
      </trkpt>
      <trkpt lat="46.43119" lon="4.66172">
        <ele>235</ele>
        <time>2015-07-06T09:28:16Z</time>
      </trkpt>
      <trkpt lat="46.43116" lon="4.66165">
        <ele>235</ele>
        <time>2015-07-06T09:28:30Z</time>
      </trkpt>
      <trkpt lat="46.43114" lon="4.66164">
        <ele>234</ele>
        <time>2015-07-06T09:28:43Z</time>
      </trkpt>
      <trkpt lat="46.4309" lon="4.66164">
        <ele>234</ele>
        <time>2015-07-06T09:29:02Z</time>
      </trkpt>
      <trkpt lat="46.43084" lon="4.6616">
        <ele>234</ele>
        <time>2015-07-06T09:29:05Z</time>
      </trkpt>
      <trkpt lat="46.43065" lon="4.66165">
        <ele>234</ele>
        <time>2015-07-06T09:29:25Z</time>
      </trkpt>
      <trkpt lat="46.43057" lon="4.66173">
        <ele>234</ele>
        <time>2015-07-06T09:29:32Z</time>
      </trkpt>
      <trkpt lat="46.43002" lon="4.66184">
        <ele>235</ele>
        <time>2015-07-06T09:30:13Z</time>
      </trkpt>
      <trkpt lat="46.43" lon="4.66191">
        <ele>235</ele>
        <time>2015-07-06T09:30:17Z</time>
      </trkpt>
      <trkpt lat="46.42996" lon="4.66193">
        <ele>235</ele>
        <time>2015-07-06T09:30:22Z</time>
      </trkpt>
      <trkpt lat="46.42991" lon="4.66193">
        <ele>235</ele>
        <time>2015-07-06T09:30:26Z</time>
      </trkpt>
      <trkpt lat="46.42986" lon="4.66192">
        <ele>236</ele>
        <time>2015-07-06T09:30:29Z</time>
      </trkpt>
      <trkpt lat="46.42964" lon="4.66192">
        <ele>239</ele>
        <time>2015-07-06T09:30:46Z</time>
      </trkpt>
      <trkpt lat="46.42959" lon="4.66193">
        <ele>239</ele>
        <time>2015-07-06T09:30:51Z</time>
      </trkpt>
      <trkpt lat="46.42956" lon="4.66189">
        <ele>237</ele>
        <time>2015-07-06T09:30:57Z</time>
      </trkpt>
      <trkpt lat="46.42935" lon="4.66186">
        <ele>237</ele>
        <time>2015-07-06T09:31:14Z</time>
      </trkpt>
      <trkpt lat="46.42925" lon="4.66189">
        <ele>237</ele>
        <time>2015-07-06T09:31:20Z</time>
      </trkpt>
      <trkpt lat="46.42915" lon="4.66188">
        <ele>236</ele>
        <time>2015-07-06T09:31:31Z</time>
      </trkpt>
      <trkpt lat="46.42907" lon="4.66185">
        <ele>236</ele>
        <time>2015-07-06T09:31:38Z</time>
      </trkpt>
      <trkpt lat="46.42897" lon="4.66183">
        <ele>234</ele>
        <time>2015-07-06T09:31:46Z</time>
      </trkpt>
      <trkpt lat="46.42849" lon="4.66183">
        <ele>236</ele>
        <time>2015-07-06T09:32:24Z</time>
      </trkpt>
      <trkpt lat="46.42845" lon="4.66178">
        <ele>237</ele>
        <time>2015-07-06T09:32:28Z</time>
      </trkpt>
      <trkpt lat="46.42842" lon="4.66173">
        <ele>237</ele>
        <time>2015-07-06T09:32:32Z</time>
      </trkpt>
      <trkpt lat="46.42837" lon="4.6617">
        <ele>238</ele>
        <time>2015-07-06T09:32:37Z</time>
      </trkpt>
      <trkpt lat="46.42831" lon="4.66172">
        <ele>239</ele>
        <time>2015-07-06T09:32:42Z</time>
      </trkpt>
      <trkpt lat="46.42826" lon="4.66173">
        <ele>238</ele>
        <time>2015-07-06T09:32:46Z</time>
      </trkpt>
      <trkpt lat="46.42816" lon="4.66172">
        <ele>238</ele>
        <time>2015-07-06T09:32:54Z</time>
      </trkpt>
      <trkpt lat="46.4281" lon="4.66169">
        <ele>238</ele>
        <time>2015-07-06T09:32:58Z</time>
      </trkpt>
      <trkpt lat="46.4281" lon="4.66161">
        <ele>238</ele>
        <time>2015-07-06T09:33:03Z</time>
      </trkpt>
      <trkpt lat="46.42806" lon="4.66142">
        <ele>237</ele>
        <time>2015-07-06T09:33:12Z</time>
      </trkpt>
      <trkpt lat="46.42801" lon="4.66137">
        <ele>237</ele>
        <time>2015-07-06T09:33:17Z</time>
      </trkpt>
      <trkpt lat="46.42799" lon="4.66132">
        <ele>238</ele>
        <time>2015-07-06T09:33:51Z</time>
      </trkpt>
      <trkpt lat="46.42797" lon="4.66133">
        <ele>238</ele>
        <time>2015-07-06T09:33:57Z</time>
      </trkpt>
      <trkpt lat="46.42799" lon="4.66128">
        <ele>238</ele>
        <time>2015-07-06T09:34:55Z</time>
      </trkpt>
      <trkpt lat="46.42797" lon="4.66124">
        <ele>239</ele>
        <time>2015-07-06T09:35:15Z</time>
      </trkpt>
      <trkpt lat="46.42799" lon="4.66133">
        <ele>239</ele>
        <time>2015-07-06T09:43:47Z</time>
      </trkpt>
      <trkpt lat="46.42792" lon="4.66142">
        <ele>239</ele>
        <time>2015-07-06T09:44:02Z</time>
      </trkpt>
      <trkpt lat="46.42786" lon="4.66142">
        <ele>241</ele>
        <time>2015-07-06T09:44:11Z</time>
      </trkpt>
      <trkpt lat="46.42785" lon="4.66135">
        <ele>245</ele>
        <time>2015-07-06T09:44:18Z</time>
      </trkpt>
      <trkpt lat="46.42786" lon="4.6612">
        <ele>246</ele>
        <time>2015-07-06T09:44:27Z</time>
      </trkpt>
      <trkpt lat="46.42783" lon="4.66097">
        <ele>244</ele>
        <time>2015-07-06T09:44:39Z</time>
      </trkpt>
      <trkpt lat="46.42781" lon="4.6609">
        <ele>244</ele>
        <time>2015-07-06T09:44:43Z</time>
      </trkpt>
      <trkpt lat="46.42774" lon="4.66079">
        <ele>241</ele>
        <time>2015-07-06T09:44:52Z</time>
      </trkpt>
      <trkpt lat="46.4277" lon="4.66077">
        <ele>240</ele>
        <time>2015-07-06T09:44:56Z</time>
      </trkpt>
      <trkpt lat="46.4275" lon="4.66076">
        <ele>244</ele>
        <time>2015-07-06T09:45:15Z</time>
      </trkpt>
      <trkpt lat="46.4274" lon="4.66075">
        <ele>244</ele>
        <time>2015-07-06T09:45:24Z</time>
      </trkpt>
      <trkpt lat="46.4273" lon="4.66069">
        <ele>245</ele>
        <time>2015-07-06T09:45:32Z</time>
      </trkpt>
      <trkpt lat="46.42721" lon="4.66064">
        <ele>244</ele>
        <time>2015-07-06T09:45:39Z</time>
      </trkpt>
      <trkpt lat="46.42709" lon="4.66062">
        <ele>245</ele>
        <time>2015-07-06T09:45:48Z</time>
      </trkpt>
      <trkpt lat="46.42686" lon="4.66047">
        <ele>245</ele>
        <time>2015-07-06T09:46:08Z</time>
      </trkpt>
      <trkpt lat="46.42682" lon="4.66047">
        <ele>245</ele>
        <time>2015-07-06T09:46:11Z</time>
      </trkpt>
      <trkpt lat="46.42676" lon="4.66045">
        <ele>245</ele>
        <time>2015-07-06T09:46:15Z</time>
      </trkpt>
      <trkpt lat="46.42672" lon="4.66041">
        <ele>245</ele>
        <time>2015-07-06T09:46:20Z</time>
      </trkpt>
      <trkpt lat="46.42666" lon="4.66043">
        <ele>245</ele>
        <time>2015-07-06T09:46:24Z</time>
      </trkpt>
      <trkpt lat="46.42662" lon="4.66046">
        <ele>246</ele>
        <time>2015-07-06T09:46:28Z</time>
      </trkpt>
      <trkpt lat="46.42649" lon="4.66047">
        <ele>247</ele>
        <time>2015-07-06T09:46:39Z</time>
      </trkpt>
      <trkpt lat="46.42647" lon="4.66044">
        <ele>247</ele>
        <time>2015-07-06T09:46:47Z</time>
      </trkpt>
      <trkpt lat="46.42648" lon="4.66038">
        <ele>247</ele>
        <time>2015-07-06T09:46:48Z</time>
      </trkpt>
      <trkpt lat="46.42639" lon="4.66036">
        <ele>247</ele>
        <time>2015-07-06T09:47:05Z</time>
      </trkpt>
      <trkpt lat="46.42633" lon="4.66033">
        <ele>247</ele>
        <time>2015-07-06T09:47:09Z</time>
      </trkpt>
      <trkpt lat="46.42622" lon="4.6603">
        <ele>250</ele>
        <time>2015-07-06T09:47:18Z</time>
      </trkpt>
      <trkpt lat="46.42617" lon="4.66028">
        <ele>250</ele>
        <time>2015-07-06T09:47:21Z</time>
      </trkpt>
      <trkpt lat="46.42602" lon="4.66026">
        <ele>249</ele>
        <time>2015-07-06T09:47:34Z</time>
      </trkpt>
      <trkpt lat="46.42597" lon="4.66024">
        <ele>249</ele>
        <time>2015-07-06T09:47:38Z</time>
      </trkpt>
      <trkpt lat="46.42594" lon="4.66019">
        <ele>249</ele>
        <time>2015-07-06T09:47:44Z</time>
      </trkpt>
      <trkpt lat="46.42579" lon="4.66005">
        <ele>249</ele>
        <time>2015-07-06T09:47:55Z</time>
      </trkpt>
      <trkpt lat="46.42574" lon="4.66007">
        <ele>249</ele>
        <time>2015-07-06T09:48:00Z</time>
      </trkpt>
      <trkpt lat="46.42569" lon="4.66006">
        <ele>250</ele>
        <time>2015-07-06T09:48:04Z</time>
      </trkpt>
      <trkpt lat="46.4256" lon="4.65995">
        <ele>250</ele>
        <time>2015-07-06T09:48:10Z</time>
      </trkpt>
      <trkpt lat="46.42555" lon="4.65995">
        <ele>250</ele>
        <time>2015-07-06T09:48:18Z</time>
      </trkpt>
      <trkpt lat="46.42541" lon="4.65986">
        <ele>250</ele>
        <time>2015-07-06T09:48:28Z</time>
      </trkpt>
      <trkpt lat="46.42515" lon="4.65982">
        <ele>251</ele>
        <time>2015-07-06T09:48:48Z</time>
      </trkpt>
      <trkpt lat="46.42476" lon="4.65965">
        <ele>252</ele>
        <time>2015-07-06T09:49:21Z</time>
      </trkpt>
      <trkpt lat="46.42471" lon="4.65962">
        <ele>252</ele>
        <time>2015-07-06T09:49:25Z</time>
      </trkpt>
      <trkpt lat="46.42464" lon="4.65952">
        <ele>252</ele>
        <time>2015-07-06T09:49:33Z</time>
      </trkpt>
      <trkpt lat="46.42458" lon="4.6595">
        <ele>252</ele>
        <time>2015-07-06T09:49:37Z</time>
      </trkpt>
      <trkpt lat="46.42417" lon="4.65939">
        <ele>252</ele>
        <time>2015-07-06T09:50:13Z</time>
      </trkpt>
      <trkpt lat="46.42393" lon="4.6594">
        <ele>252</ele>
        <time>2015-07-06T09:50:28Z</time>
      </trkpt>
      <trkpt lat="46.42389" lon="4.65937">
        <ele>252</ele>
        <time>2015-07-06T09:50:32Z</time>
      </trkpt>
      <trkpt lat="46.42386" lon="4.65932">
        <ele>251</ele>
        <time>2015-07-06T09:50:37Z</time>
      </trkpt>
      <trkpt lat="46.42347" lon="4.65908">
        <ele>252</ele>
        <time>2015-07-06T09:51:10Z</time>
      </trkpt>
      <trkpt lat="46.42342" lon="4.65906">
        <ele>252</ele>
        <time>2015-07-06T09:51:14Z</time>
      </trkpt>
      <trkpt lat="46.42316" lon="4.65892">
        <ele>253</ele>
        <time>2015-07-06T09:51:34Z</time>
      </trkpt>
      <trkpt lat="46.42306" lon="4.65889">
        <ele>252</ele>
        <time>2015-07-06T09:51:44Z</time>
      </trkpt>
      <trkpt lat="46.42286" lon="4.65868">
        <ele>252</ele>
        <time>2015-07-06T09:52:02Z</time>
      </trkpt>
      <trkpt lat="46.42272" lon="4.65857">
        <ele>253</ele>
        <time>2015-07-06T09:52:14Z</time>
      </trkpt>
      <trkpt lat="46.42251" lon="4.65833">
        <ele>254</ele>
        <time>2015-07-06T09:52:34Z</time>
      </trkpt>
      <trkpt lat="46.42247" lon="4.6583">
        <ele>253</ele>
        <time>2015-07-06T09:52:38Z</time>
      </trkpt>
      <trkpt lat="46.42237" lon="4.65815">
        <ele>254</ele>
        <time>2015-07-06T09:52:48Z</time>
      </trkpt>
      <trkpt lat="46.42232" lon="4.6581">
        <ele>254</ele>
        <time>2015-07-06T09:52:53Z</time>
      </trkpt>
      <trkpt lat="46.42205" lon="4.65761">
        <ele>251</ele>
        <time>2015-07-06T09:53:24Z</time>
      </trkpt>
      <trkpt lat="46.42203" lon="4.65754">
        <ele>251</ele>
        <time>2015-07-06T09:53:27Z</time>
      </trkpt>
      <trkpt lat="46.42178" lon="4.65707">
        <ele>253</ele>
        <time>2015-07-06T09:53:59Z</time>
      </trkpt>
      <trkpt lat="46.42173" lon="4.65695">
        <ele>252</ele>
        <time>2015-07-06T09:54:06Z</time>
      </trkpt>
      <trkpt lat="46.42166" lon="4.65685">
        <ele>251</ele>
        <time>2015-07-06T09:54:15Z</time>
      </trkpt>
      <trkpt lat="46.42151" lon="4.65654">
        <ele>253</ele>
        <time>2015-07-06T09:54:38Z</time>
      </trkpt>
      <trkpt lat="46.42104" lon="4.65591">
        <ele>256</ele>
        <time>2015-07-06T09:55:27Z</time>
      </trkpt>
      <trkpt lat="46.42083" lon="4.65517">
        <ele>257</ele>
        <time>2015-07-06T09:56:10Z</time>
      </trkpt>
      <trkpt lat="46.4208" lon="4.65502">
        <ele>259</ele>
        <time>2015-07-06T09:56:19Z</time>
      </trkpt>
      <trkpt lat="46.42084" lon="4.65462">
        <ele>256</ele>
        <time>2015-07-06T09:56:42Z</time>
      </trkpt>
      <trkpt lat="46.42085" lon="4.65425">
        <ele>258</ele>
        <time>2015-07-06T09:57:02Z</time>
      </trkpt>
      <trkpt lat="46.42103" lon="4.65302">
        <ele>260</ele>
        <time>2015-07-06T09:58:08Z</time>
      </trkpt>
      <trkpt lat="46.42108" lon="4.65289">
        <ele>260</ele>
        <time>2015-07-06T09:58:15Z</time>
      </trkpt>
      <trkpt lat="46.42111" lon="4.65283">
        <ele>260</ele>
        <time>2015-07-06T09:58:19Z</time>
      </trkpt>
      <trkpt lat="46.42137" lon="4.65206">
        <ele>258</ele>
        <time>2015-07-06T09:59:09Z</time>
      </trkpt>
      <trkpt lat="46.42141" lon="4.652">
        <ele>257</ele>
        <time>2015-07-06T09:59:13Z</time>
      </trkpt>
      <trkpt lat="46.42143" lon="4.65177">
        <ele>256</ele>
        <time>2015-07-06T09:59:25Z</time>
      </trkpt>
      <trkpt lat="46.4214" lon="4.65172">
        <ele>256</ele>
        <time>2015-07-06T09:59:30Z</time>
      </trkpt>
      <trkpt lat="46.42135" lon="4.65172">
        <ele>255</ele>
        <time>2015-07-06T09:59:34Z</time>
      </trkpt>
      <trkpt lat="46.42125" lon="4.65173">
        <ele>254</ele>
        <time>2015-07-06T09:59:42Z</time>
      </trkpt>
      <trkpt lat="46.42111" lon="4.65177">
        <ele>253</ele>
        <time>2015-07-06T09:59:54Z</time>
      </trkpt>
      <trkpt lat="46.42106" lon="4.65181">
        <ele>253</ele>
        <time>2015-07-06T09:59:58Z</time>
      </trkpt>
      <trkpt lat="46.42102" lon="4.65186">
        <ele>253</ele>
        <time>2015-07-06T10:00:04Z</time>
      </trkpt>
      <trkpt lat="46.42098" lon="4.65188">
        <ele>253</ele>
        <time>2015-07-06T10:00:08Z</time>
      </trkpt>
      <trkpt lat="46.42064" lon="4.65226">
        <ele>252</ele>
        <time>2015-07-06T10:00:42Z</time>
      </trkpt>
      <trkpt lat="46.42035" lon="4.65272">
        <ele>250</ele>
        <time>2015-07-06T10:01:17Z</time>
      </trkpt>
      <trkpt lat="46.42018" lon="4.65293">
        <ele>249</ele>
        <time>2015-07-06T10:01:34Z</time>
      </trkpt>
      <trkpt lat="46.41968" lon="4.65338">
        <ele>249</ele>
        <time>2015-07-06T10:02:18Z</time>
      </trkpt>
      <trkpt lat="46.41962" lon="4.65337">
        <ele>249</ele>
        <time>2015-07-06T10:02:22Z</time>
      </trkpt>
      <trkpt lat="46.41958" lon="4.65334">
        <ele>249</ele>
        <time>2015-07-06T10:02:27Z</time>
      </trkpt>
      <trkpt lat="46.41954" lon="4.65328">
        <ele>249</ele>
        <time>2015-07-06T10:02:31Z</time>
      </trkpt>
      <trkpt lat="46.41946" lon="4.65303">
        <ele>250</ele>
        <time>2015-07-06T10:02:48Z</time>
      </trkpt>
      <trkpt lat="46.41942" lon="4.653">
        <ele>249</ele>
        <time>2015-07-06T10:02:52Z</time>
      </trkpt>
      <trkpt lat="46.41937" lon="4.653">
        <ele>249</ele>
        <time>2015-07-06T10:02:56Z</time>
      </trkpt>
      <trkpt lat="46.41921" lon="4.65305">
        <ele>252</ele>
        <time>2015-07-06T10:03:07Z</time>
      </trkpt>
      <trkpt lat="46.41919" lon="4.65311">
        <ele>253</ele>
        <time>2015-07-06T10:03:12Z</time>
      </trkpt>
      <trkpt lat="46.41914" lon="4.65315">
        <ele>253</ele>
        <time>2015-07-06T10:03:17Z</time>
      </trkpt>
      <trkpt lat="46.41909" lon="4.65316">
        <ele>253</ele>
        <time>2015-07-06T10:03:21Z</time>
      </trkpt>
      <trkpt lat="46.41904" lon="4.65318">
        <ele>253</ele>
        <time>2015-07-06T10:03:26Z</time>
      </trkpt>
      <trkpt lat="46.41899" lon="4.65318">
        <ele>252</ele>
        <time>2015-07-06T10:03:30Z</time>
      </trkpt>
      <trkpt lat="46.41895" lon="4.65322">
        <ele>252</ele>
        <time>2015-07-06T10:03:34Z</time>
      </trkpt>
      <trkpt lat="46.41892" lon="4.65327">
        <ele>252</ele>
        <time>2015-07-06T10:03:37Z</time>
      </trkpt>
      <trkpt lat="46.41859" lon="4.65348">
        <ele>260</ele>
        <time>2015-07-06T10:04:04Z</time>
      </trkpt>
      <trkpt lat="46.4185" lon="4.6535">
        <ele>260</ele>
        <time>2015-07-06T10:04:12Z</time>
      </trkpt>
      <trkpt lat="46.41817" lon="4.65338">
        <ele>258</ele>
        <time>2015-07-06T10:04:40Z</time>
      </trkpt>
      <trkpt lat="46.41797" lon="4.65333">
        <ele>259</ele>
        <time>2015-07-06T10:04:55Z</time>
      </trkpt>
      <trkpt lat="46.41757" lon="4.65315">
        <ele>262</ele>
        <time>2015-07-06T10:05:29Z</time>
      </trkpt>
      <trkpt lat="46.41746" lon="4.65313">
        <ele>262</ele>
        <time>2015-07-06T10:05:37Z</time>
      </trkpt>
      <trkpt lat="46.41706" lon="4.65296">
        <ele>265</ele>
        <time>2015-07-06T10:06:10Z</time>
      </trkpt>
      <trkpt lat="46.4169" lon="4.65287">
        <ele>268</ele>
        <time>2015-07-06T10:06:24Z</time>
      </trkpt>
      <trkpt lat="46.41658" lon="4.65275">
        <ele>269</ele>
        <time>2015-07-06T10:06:48Z</time>
      </trkpt>
      <trkpt lat="46.41646" lon="4.65262">
        <ele>269</ele>
        <time>2015-07-06T10:07:05Z</time>
      </trkpt>
      <trkpt lat="46.41642" lon="4.65259">
        <ele>268</ele>
        <time>2015-07-06T10:07:08Z</time>
      </trkpt>
      <trkpt lat="46.41636" lon="4.65256">
        <ele>267</ele>
        <time>2015-07-06T10:07:13Z</time>
      </trkpt>
      <trkpt lat="46.41622" lon="4.65253">
        <ele>268</ele>
        <time>2015-07-06T10:07:23Z</time>
      </trkpt>
      <trkpt lat="46.41618" lon="4.6525">
        <ele>267</ele>
        <time>2015-07-06T10:07:27Z</time>
      </trkpt>
      <trkpt lat="46.41614" lon="4.65244">
        <ele>267</ele>
        <time>2015-07-06T10:07:31Z</time>
      </trkpt>
      <trkpt lat="46.4161" lon="4.65243">
        <ele>266</ele>
        <time>2015-07-06T10:07:35Z</time>
      </trkpt>
      <trkpt lat="46.41581" lon="4.65224">
        <ele>268</ele>
        <time>2015-07-06T10:08:01Z</time>
      </trkpt>
      <trkpt lat="46.41545" lon="4.65206">
        <ele>271</ele>
        <time>2015-07-06T10:08:30Z</time>
      </trkpt>
      <trkpt lat="46.41537" lon="4.65197">
        <ele>271</ele>
        <time>2015-07-06T10:08:39Z</time>
      </trkpt>
      <trkpt lat="46.41507" lon="4.65184">
        <ele>273</ele>
        <time>2015-07-06T10:09:03Z</time>
      </trkpt>
      <trkpt lat="46.41502" lon="4.65181">
        <ele>273</ele>
        <time>2015-07-06T10:09:07Z</time>
      </trkpt>
      <trkpt lat="46.41497" lon="4.6518">
        <ele>272</ele>
        <time>2015-07-06T10:09:11Z</time>
      </trkpt>
      <trkpt lat="46.41488" lon="4.65175">
        <ele>273</ele>
        <time>2015-07-06T10:09:18Z</time>
      </trkpt>
      <trkpt lat="46.41487" lon="4.65169">
        <ele>272</ele>
        <time>2015-07-06T10:09:28Z</time>
      </trkpt>
      <trkpt lat="46.41474" lon="4.65156">
        <ele>272</ele>
        <time>2015-07-06T10:13:41Z</time>
      </trkpt>
      <trkpt lat="46.4147" lon="4.6515">
        <ele>271</ele>
        <time>2015-07-06T10:13:46Z</time>
      </trkpt>
      <trkpt lat="46.41461" lon="4.65145">
        <ele>268</ele>
        <time>2015-07-06T10:13:57Z</time>
      </trkpt>
      <trkpt lat="46.41456" lon="4.65141">
        <ele>268</ele>
        <time>2015-07-06T10:14:01Z</time>
      </trkpt>
      <trkpt lat="46.41447" lon="4.65132">
        <ele>270</ele>
        <time>2015-07-06T10:14:09Z</time>
      </trkpt>
      <trkpt lat="46.4143" lon="4.65119">
        <ele>268</ele>
        <time>2015-07-06T10:14:24Z</time>
      </trkpt>
      <trkpt lat="46.41414" lon="4.65111">
        <ele>269</ele>
        <time>2015-07-06T10:14:35Z</time>
      </trkpt>
      <trkpt lat="46.41397" lon="4.65109">
        <ele>268</ele>
        <time>2015-07-06T10:14:48Z</time>
      </trkpt>
      <trkpt lat="46.41392" lon="4.65113">
        <ele>267</ele>
        <time>2015-07-06T10:14:54Z</time>
      </trkpt>
      <trkpt lat="46.41382" lon="4.65115">
        <ele>266</ele>
        <time>2015-07-06T10:15:01Z</time>
      </trkpt>
      <trkpt lat="46.41377" lon="4.65115">
        <ele>266</ele>
        <time>2015-07-06T10:15:06Z</time>
      </trkpt>
      <trkpt lat="46.41373" lon="4.65113">
        <ele>266</ele>
        <time>2015-07-06T10:15:09Z</time>
      </trkpt>
      <trkpt lat="46.41355" lon="4.65112">
        <ele>266</ele>
        <time>2015-07-06T10:15:22Z</time>
      </trkpt>
      <trkpt lat="46.41345" lon="4.65112">
        <ele>265</ele>
        <time>2015-07-06T10:15:31Z</time>
      </trkpt>
      <trkpt lat="46.41338" lon="4.65116">
        <ele>265</ele>
        <time>2015-07-06T10:15:35Z</time>
      </trkpt>
      <trkpt lat="46.41317" lon="4.65109">
        <ele>268</ele>
        <time>2015-07-06T10:15:54Z</time>
      </trkpt>
      <trkpt lat="46.41311" lon="4.6511">
        <ele>267</ele>
        <time>2015-07-06T10:15:58Z</time>
      </trkpt>
      <trkpt lat="46.41306" lon="4.65108">
        <ele>267</ele>
        <time>2015-07-06T10:16:03Z</time>
      </trkpt>
      <trkpt lat="46.41297" lon="4.65107">
        <ele>267</ele>
        <time>2015-07-06T10:16:10Z</time>
      </trkpt>
      <trkpt lat="46.41292" lon="4.65104">
        <ele>267</ele>
        <time>2015-07-06T10:16:16Z</time>
      </trkpt>
      <trkpt lat="46.41283" lon="4.65099">
        <ele>267</ele>
        <time>2015-07-06T10:16:22Z</time>
      </trkpt>
      <trkpt lat="46.41278" lon="4.65092">
        <ele>265</ele>
        <time>2015-07-06T10:16:32Z</time>
      </trkpt>
      <trkpt lat="46.41266" lon="4.65088">
        <ele>264</ele>
        <time>2015-07-06T10:16:40Z</time>
      </trkpt>
      <trkpt lat="46.41256" lon="4.65087">
        <ele>264</ele>
        <time>2015-07-06T10:16:48Z</time>
      </trkpt>
      <trkpt lat="46.41251" lon="4.65089">
        <ele>265</ele>
        <time>2015-07-06T10:16:53Z</time>
      </trkpt>
      <trkpt lat="46.41237" lon="4.65083">
        <ele>265</ele>
        <time>2015-07-06T10:17:03Z</time>
      </trkpt>
      <trkpt lat="46.41221" lon="4.65078">
        <ele>268</ele>
        <time>2015-07-06T10:17:13Z</time>
      </trkpt>
      <trkpt lat="46.41212" lon="4.65074">
        <ele>267</ele>
        <time>2015-07-06T10:17:19Z</time>
      </trkpt>
      <trkpt lat="46.41198" lon="4.65071">
        <ele>268</ele>
        <time>2015-07-06T10:17:28Z</time>
      </trkpt>
      <trkpt lat="46.41194" lon="4.65068">
        <ele>267</ele>
        <time>2015-07-06T10:17:35Z</time>
      </trkpt>
      <trkpt lat="46.41191" lon="4.65062">
        <ele>266</ele>
        <time>2015-07-06T10:17:40Z</time>
      </trkpt>
      <trkpt lat="46.41181" lon="4.65057">
        <ele>264</ele>
        <time>2015-07-06T10:17:48Z</time>
      </trkpt>
      <trkpt lat="46.4117" lon="4.65057">
        <ele>265</ele>
        <time>2015-07-06T10:17:56Z</time>
      </trkpt>
      <trkpt lat="46.41166" lon="4.65054">
        <ele>265</ele>
        <time>2015-07-06T10:18:03Z</time>
      </trkpt>
      <trkpt lat="46.41152" lon="4.65048">
        <ele>264</ele>
        <time>2015-07-06T10:18:12Z</time>
      </trkpt>
      <trkpt lat="46.41126" lon="4.65042">
        <ele>267</ele>
        <time>2015-07-06T10:18:33Z</time>
      </trkpt>
      <trkpt lat="46.41115" lon="4.65036">
        <ele>266</ele>
        <time>2015-07-06T10:18:41Z</time>
      </trkpt>
      <trkpt lat="46.41096" lon="4.6503">
        <ele>266</ele>
        <time>2015-07-06T10:18:57Z</time>
      </trkpt>
      <trkpt lat="46.41082" lon="4.65028">
        <ele>265</ele>
        <time>2015-07-06T10:19:08Z</time>
      </trkpt>
      <trkpt lat="46.41073" lon="4.65021">
        <ele>264</ele>
        <time>2015-07-06T10:19:16Z</time>
      </trkpt>
      <trkpt lat="46.41066" lon="4.65023">
        <ele>264</ele>
        <time>2015-07-06T10:19:22Z</time>
      </trkpt>
      <trkpt lat="46.41062" lon="4.65028">
        <ele>264</ele>
        <time>2015-07-06T10:19:28Z</time>
      </trkpt>
      <trkpt lat="46.41058" lon="4.65025">
        <ele>264</ele>
        <time>2015-07-06T10:19:31Z</time>
      </trkpt>
      <trkpt lat="46.41042" lon="4.6501">
        <ele>266</ele>
        <time>2015-07-06T10:19:46Z</time>
      </trkpt>
      <trkpt lat="46.41036" lon="4.65011">
        <ele>266</ele>
        <time>2015-07-06T10:19:51Z</time>
      </trkpt>
      <trkpt lat="46.4103" lon="4.65014">
        <ele>266</ele>
        <time>2015-07-06T10:19:57Z</time>
      </trkpt>
      <trkpt lat="46.41026" lon="4.65011">
        <ele>267</ele>
        <time>2015-07-06T10:19:59Z</time>
      </trkpt>
      <trkpt lat="46.41017" lon="4.65004">
        <ele>266</ele>
        <time>2015-07-06T10:20:06Z</time>
      </trkpt>
      <trkpt lat="46.41014" lon="4.64999">
        <ele>266</ele>
        <time>2015-07-06T10:20:09Z</time>
      </trkpt>
      <trkpt lat="46.4099" lon="4.64987">
        <ele>263</ele>
        <time>2015-07-06T10:20:29Z</time>
      </trkpt>
      <trkpt lat="46.40985" lon="4.64986">
        <ele>262</ele>
        <time>2015-07-06T10:20:33Z</time>
      </trkpt>
      <trkpt lat="46.40979" lon="4.64985">
        <ele>262</ele>
        <time>2015-07-06T10:20:37Z</time>
      </trkpt>
      <trkpt lat="46.40975" lon="4.6498">
        <ele>263</ele>
        <time>2015-07-06T10:20:43Z</time>
      </trkpt>
      <trkpt lat="46.40972" lon="4.64975">
        <ele>263</ele>
        <time>2015-07-06T10:20:48Z</time>
      </trkpt>
      <trkpt lat="46.40967" lon="4.64975">
        <ele>262</ele>
        <time>2015-07-06T10:20:51Z</time>
      </trkpt>
      <trkpt lat="46.4096" lon="4.64976">
        <ele>261</ele>
        <time>2015-07-06T10:20:56Z</time>
      </trkpt>
      <trkpt lat="46.40951" lon="4.64979">
        <ele>260</ele>
        <time>2015-07-06T10:21:02Z</time>
      </trkpt>
      <trkpt lat="46.40942" lon="4.6498">
        <ele>260</ele>
        <time>2015-07-06T10:21:09Z</time>
      </trkpt>
      <trkpt lat="46.40937" lon="4.64978">
        <ele>260</ele>
        <time>2015-07-06T10:21:13Z</time>
      </trkpt>
      <trkpt lat="46.40932" lon="4.6498">
        <ele>260</ele>
        <time>2015-07-06T10:21:17Z</time>
      </trkpt>
      <trkpt lat="46.40928" lon="4.64983">
        <ele>260</ele>
        <time>2015-07-06T10:21:22Z</time>
      </trkpt>
      <trkpt lat="46.40922" lon="4.64984">
        <ele>260</ele>
        <time>2015-07-06T10:21:26Z</time>
      </trkpt>
      <trkpt lat="46.40919" lon="4.64988">
        <ele>260</ele>
        <time>2015-07-06T10:21:29Z</time>
      </trkpt>
      <trkpt lat="46.40918" lon="4.64991">
        <ele>261</ele>
        <time>2015-07-06T10:21:30Z</time>
      </trkpt>
      <trkpt lat="46.40915" lon="4.64997">
        <ele>260</ele>
        <time>2015-07-06T10:21:34Z</time>
      </trkpt>
      <trkpt lat="46.40888" lon="4.65015">
        <ele>255</ele>
        <time>2015-07-06T10:21:59Z</time>
      </trkpt>
      <trkpt lat="46.40885" lon="4.6502">
        <ele>255</ele>
        <time>2015-07-06T10:22:02Z</time>
      </trkpt>
      <trkpt lat="46.40875" lon="4.65022">
        <ele>256</ele>
        <time>2015-07-06T10:22:09Z</time>
      </trkpt>
      <trkpt lat="46.40861" lon="4.6501">
        <ele>253</ele>
        <time>2015-07-06T10:22:19Z</time>
      </trkpt>
      <trkpt lat="46.40851" lon="4.64998">
        <ele>253</ele>
        <time>2015-07-06T10:22:29Z</time>
      </trkpt>
      <trkpt lat="46.40846" lon="4.65">
        <ele>253</ele>
        <time>2015-07-06T10:22:36Z</time>
      </trkpt>
      <trkpt lat="46.40841" lon="4.64997">
        <ele>253</ele>
        <time>2015-07-06T10:22:40Z</time>
      </trkpt>
      <trkpt lat="46.40834" lon="4.64987">
        <ele>253</ele>
        <time>2015-07-06T10:22:47Z</time>
      </trkpt>
      <trkpt lat="46.40829" lon="4.64984">
        <ele>253</ele>
        <time>2015-07-06T10:22:51Z</time>
      </trkpt>
      <trkpt lat="46.40824" lon="4.64976">
        <ele>254</ele>
        <time>2015-07-06T10:22:57Z</time>
      </trkpt>
      <trkpt lat="46.4082" lon="4.64974">
        <ele>254</ele>
        <time>2015-07-06T10:23:01Z</time>
      </trkpt>
      <trkpt lat="46.40817" lon="4.64968">
        <ele>254</ele>
        <time>2015-07-06T10:23:04Z</time>
      </trkpt>
      <trkpt lat="46.4079" lon="4.64944">
        <ele>256</ele>
        <time>2015-07-06T10:23:31Z</time>
      </trkpt>
      <trkpt lat="46.40784" lon="4.64937">
        <ele>256</ele>
        <time>2015-07-06T10:23:36Z</time>
      </trkpt>
      <trkpt lat="46.40782" lon="4.64939">
        <ele>257</ele>
        <time>2015-07-06T10:23:41Z</time>
      </trkpt>
      <trkpt lat="46.40775" lon="4.64938">
        <ele>257</ele>
        <time>2015-07-06T10:23:48Z</time>
      </trkpt>
      <trkpt lat="46.40762" lon="4.64939">
        <ele>257</ele>
        <time>2015-07-06T10:23:55Z</time>
      </trkpt>
      <trkpt lat="46.40758" lon="4.64935">
        <ele>256</ele>
        <time>2015-07-06T10:23:59Z</time>
      </trkpt>
      <trkpt lat="46.40753" lon="4.64934">
        <ele>256</ele>
        <time>2015-07-06T10:24:04Z</time>
      </trkpt>
      <trkpt lat="46.40744" lon="4.64927">
        <ele>256</ele>
        <time>2015-07-06T10:24:10Z</time>
      </trkpt>
      <trkpt lat="46.40734" lon="4.6492">
        <ele>256</ele>
        <time>2015-07-06T10:24:24Z</time>
      </trkpt>
      <trkpt lat="46.40725" lon="4.64909">
        <ele>256</ele>
        <time>2015-07-06T10:24:30Z</time>
      </trkpt>
      <trkpt lat="46.40722" lon="4.64909">
        <ele>256</ele>
        <time>2015-07-06T10:24:38Z</time>
      </trkpt>
      <trkpt lat="46.40715" lon="4.64898">
        <ele>256</ele>
        <time>2015-07-06T10:24:44Z</time>
      </trkpt>
      <trkpt lat="46.4071" lon="4.64894">
        <ele>256</ele>
        <time>2015-07-06T10:24:48Z</time>
      </trkpt>
      <trkpt lat="46.40706" lon="4.64886">
        <ele>256</ele>
        <time>2015-07-06T10:24:51Z</time>
      </trkpt>
      <trkpt lat="46.40701" lon="4.64882">
        <ele>255</ele>
        <time>2015-07-06T10:24:55Z</time>
      </trkpt>
      <trkpt lat="46.40686" lon="4.64847">
        <ele>255</ele>
        <time>2015-07-06T10:25:14Z</time>
      </trkpt>
      <trkpt lat="46.40645" lon="4.64822">
        <ele>255</ele>
        <time>2015-07-06T10:25:45Z</time>
      </trkpt>
      <trkpt lat="46.40638" lon="4.64821">
        <ele>255</ele>
        <time>2015-07-06T10:25:49Z</time>
      </trkpt>
      <trkpt lat="46.40635" lon="4.64814">
        <ele>255</ele>
        <time>2015-07-06T10:25:54Z</time>
      </trkpt>
      <trkpt lat="46.40629" lon="4.64807">
        <ele>254</ele>
        <time>2015-07-06T10:26:02Z</time>
      </trkpt>
      <trkpt lat="46.4063" lon="4.64799">
        <ele>255</ele>
        <time>2015-07-06T10:26:07Z</time>
      </trkpt>
      <trkpt lat="46.40612" lon="4.64788">
        <ele>256</ele>
        <time>2015-07-06T10:26:23Z</time>
      </trkpt>
      <trkpt lat="46.40609" lon="4.64778">
        <ele>255</ele>
        <time>2015-07-06T10:26:27Z</time>
      </trkpt>
      <trkpt lat="46.40605" lon="4.64774">
        <ele>255</ele>
        <time>2015-07-06T10:26:30Z</time>
      </trkpt>
      <trkpt lat="46.40595" lon="4.64772">
        <ele>255</ele>
        <time>2015-07-06T10:26:36Z</time>
      </trkpt>
      <trkpt lat="46.40589" lon="4.6477">
        <ele>255</ele>
        <time>2015-07-06T10:26:40Z</time>
      </trkpt>
      <trkpt lat="46.40572" lon="4.64756">
        <ele>255</ele>
        <time>2015-07-06T10:26:57Z</time>
      </trkpt>
      <trkpt lat="46.40562" lon="4.64751">
        <ele>255</ele>
        <time>2015-07-06T10:27:04Z</time>
      </trkpt>
      <trkpt lat="46.40557" lon="4.64752">
        <ele>255</ele>
        <time>2015-07-06T10:27:08Z</time>
      </trkpt>
      <trkpt lat="46.40538" lon="4.64738">
        <ele>255</ele>
        <time>2015-07-06T10:27:23Z</time>
      </trkpt>
      <trkpt lat="46.40532" lon="4.64739">
        <ele>255</ele>
        <time>2015-07-06T10:27:28Z</time>
      </trkpt>
      <trkpt lat="46.40522" lon="4.64733">
        <ele>256</ele>
        <time>2015-07-06T10:27:35Z</time>
      </trkpt>
      <trkpt lat="46.40517" lon="4.64729">
        <ele>256</ele>
        <time>2015-07-06T10:27:43Z</time>
      </trkpt>
      <trkpt lat="46.40501" lon="4.64725">
        <ele>256</ele>
        <time>2015-07-06T10:27:56Z</time>
      </trkpt>
      <trkpt lat="46.40496" lon="4.64724">
        <ele>256</ele>
        <time>2015-07-06T10:27:59Z</time>
      </trkpt>
      <trkpt lat="46.40492" lon="4.64727">
        <ele>256</ele>
        <time>2015-07-06T10:28:04Z</time>
      </trkpt>
      <trkpt lat="46.40482" lon="4.64724">
        <ele>256</ele>
        <time>2015-07-06T10:28:09Z</time>
      </trkpt>
      <trkpt lat="46.40461" lon="4.64706">
        <ele>254</ele>
        <time>2015-07-06T10:28:34Z</time>
      </trkpt>
      <trkpt lat="46.40456" lon="4.64703">
        <ele>254</ele>
        <time>2015-07-06T10:28:38Z</time>
      </trkpt>
      <trkpt lat="46.40449" lon="4.64696">
        <ele>256</ele>
        <time>2015-07-06T10:28:45Z</time>
      </trkpt>
      <trkpt lat="46.40434" lon="4.64695">
        <ele>256</ele>
        <time>2015-07-06T10:28:52Z</time>
      </trkpt>
      <trkpt lat="46.40429" lon="4.64694">
        <ele>256</ele>
        <time>2015-07-06T10:28:55Z</time>
      </trkpt>
      <trkpt lat="46.40425" lon="4.64698">
        <ele>255</ele>
        <time>2015-07-06T10:29:03Z</time>
      </trkpt>
      <trkpt lat="46.40404" lon="4.647">
        <ele>255</ele>
        <time>2015-07-06T10:29:16Z</time>
      </trkpt>
      <trkpt lat="46.4037" lon="4.64685">
        <ele>253</ele>
        <time>2015-07-06T10:29:50Z</time>
      </trkpt>
      <trkpt lat="46.40362" lon="4.64677">
        <ele>253</ele>
        <time>2015-07-06T10:29:58Z</time>
      </trkpt>
      <trkpt lat="46.4036" lon="4.6467">
        <ele>253</ele>
        <time>2015-07-06T10:30:02Z</time>
      </trkpt>
      <trkpt lat="46.40355" lon="4.64666">
        <ele>253</ele>
        <time>2015-07-06T10:30:10Z</time>
      </trkpt>
      <trkpt lat="46.40353" lon="4.64664">
        <ele>253</ele>
        <time>2015-07-06T10:30:16Z</time>
      </trkpt>
      <trkpt lat="46.40349" lon="4.64652">
        <ele>252</ele>
        <time>2015-07-06T10:30:30Z</time>
      </trkpt>
      <trkpt lat="46.40341" lon="4.6464">
        <ele>254</ele>
        <time>2015-07-06T10:30:48Z</time>
      </trkpt>
      <trkpt lat="46.40337" lon="4.64638">
        <ele>253</ele>
        <time>2015-07-06T10:31:04Z</time>
      </trkpt>
      <trkpt lat="46.4034" lon="4.64625">
        <ele>256</ele>
        <time>2015-07-06T10:31:17Z</time>
      </trkpt>
      <trkpt lat="46.40337" lon="4.64619">
        <ele>256</ele>
        <time>2015-07-06T10:31:23Z</time>
      </trkpt>
      <trkpt lat="46.40332" lon="4.64615">
        <ele>256</ele>
        <time>2015-07-06T10:31:27Z</time>
      </trkpt>
      <trkpt lat="46.40305" lon="4.64589">
        <ele>253</ele>
        <time>2015-07-06T10:31:52Z</time>
      </trkpt>
      <trkpt lat="46.40302" lon="4.64584">
        <ele>253</ele>
        <time>2015-07-06T10:31:55Z</time>
      </trkpt>
      <trkpt lat="46.40293" lon="4.64579">
        <ele>254</ele>
        <time>2015-07-06T10:32:05Z</time>
      </trkpt>
      <trkpt lat="46.40287" lon="4.64573">
        <ele>254</ele>
        <time>2015-07-06T10:32:11Z</time>
      </trkpt>
      <trkpt lat="46.40274" lon="4.64567">
        <ele>256</ele>
        <time>2015-07-06T10:32:23Z</time>
      </trkpt>
      <trkpt lat="46.40272" lon="4.6456">
        <ele>256</ele>
        <time>2015-07-06T10:32:27Z</time>
      </trkpt>
      <trkpt lat="46.40254" lon="4.64546">
        <ele>256</ele>
        <time>2015-07-06T10:32:44Z</time>
      </trkpt>
      <trkpt lat="46.40248" lon="4.64544">
        <ele>256</ele>
        <time>2015-07-06T10:32:49Z</time>
      </trkpt>
      <trkpt lat="46.40231" lon="4.64535">
        <ele>256</ele>
        <time>2015-07-06T10:33:05Z</time>
      </trkpt>
      <trkpt lat="46.40223" lon="4.64517">
        <ele>256</ele>
        <time>2015-07-06T10:33:20Z</time>
      </trkpt>
      <trkpt lat="46.40208" lon="4.64507">
        <ele>257</ele>
        <time>2015-07-06T10:33:34Z</time>
      </trkpt>
      <trkpt lat="46.40186" lon="4.64483">
        <ele>259</ele>
        <time>2015-07-06T10:33:53Z</time>
      </trkpt>
      <trkpt lat="46.40176" lon="4.64467">
        <ele>258</ele>
        <time>2015-07-06T10:34:04Z</time>
      </trkpt>
      <trkpt lat="46.40172" lon="4.64463">
        <ele>258</ele>
        <time>2015-07-06T10:34:08Z</time>
      </trkpt>
      <trkpt lat="46.40166" lon="4.64452">
        <ele>259</ele>
        <time>2015-07-06T10:34:16Z</time>
      </trkpt>
      <trkpt lat="46.40147" lon="4.64428">
        <ele>257</ele>
        <time>2015-07-06T10:34:37Z</time>
      </trkpt>
      <trkpt lat="46.40139" lon="4.64413">
        <ele>258</ele>
        <time>2015-07-06T10:34:43Z</time>
      </trkpt>
      <trkpt lat="46.40137" lon="4.64406">
        <ele>257</ele>
        <time>2015-07-06T10:34:47Z</time>
      </trkpt>
      <trkpt lat="46.40133" lon="4.64402">
        <ele>257</ele>
        <time>2015-07-06T10:34:52Z</time>
      </trkpt>
      <trkpt lat="46.4012" lon="4.64383">
        <ele>257</ele>
        <time>2015-07-06T10:35:06Z</time>
      </trkpt>
      <trkpt lat="46.40125" lon="4.64363">
        <ele>257</ele>
        <time>2015-07-06T10:35:12Z</time>
      </trkpt>
      <trkpt lat="46.40123" lon="4.64353">
        <ele>259</ele>
        <time>2015-07-06T10:35:17Z</time>
      </trkpt>
      <trkpt lat="46.4012" lon="4.64347">
        <ele>260</ele>
        <time>2015-07-06T10:35:21Z</time>
      </trkpt>
      <trkpt lat="46.40116" lon="4.64343">
        <ele>260</ele>
        <time>2015-07-06T10:35:25Z</time>
      </trkpt>
      <trkpt lat="46.40113" lon="4.64344">
        <ele>260</ele>
        <time>2015-07-06T10:35:36Z</time>
      </trkpt>
      <trkpt lat="46.40109" lon="4.6435">
        <ele>259</ele>
        <time>2015-07-06T10:35:45Z</time>
      </trkpt>
      <trkpt lat="46.40106" lon="4.6434">
        <ele>259</ele>
        <time>2015-07-06T10:35:53Z</time>
      </trkpt>
      <trkpt lat="46.40104" lon="4.64334">
        <ele>259</ele>
        <time>2015-07-06T10:35:55Z</time>
      </trkpt>
      <trkpt lat="46.40101" lon="4.64326">
        <ele>260</ele>
        <time>2015-07-06T10:35:58Z</time>
      </trkpt>
      <trkpt lat="46.40096" lon="4.64316">
        <ele>265</ele>
        <time>2015-07-06T10:36:11Z</time>
      </trkpt>
      <trkpt lat="46.40094" lon="4.64316">
        <ele>264</ele>
        <time>2015-07-06T10:36:27Z</time>
      </trkpt>
      <trkpt lat="46.4009" lon="4.6431">
        <ele>263</ele>
        <time>2015-07-06T10:36:31Z</time>
      </trkpt>
      <trkpt lat="46.40089" lon="4.64303">
        <ele>263</ele>
        <time>2015-07-06T10:36:34Z</time>
      </trkpt>
      <trkpt lat="46.4009" lon="4.64295">
        <ele>262</ele>
        <time>2015-07-06T10:36:37Z</time>
      </trkpt>
      <trkpt lat="46.40088" lon="4.64288">
        <ele>262</ele>
        <time>2015-07-06T10:36:41Z</time>
      </trkpt>
      <trkpt lat="46.40084" lon="4.64285">
        <ele>262</ele>
        <time>2015-07-06T10:36:45Z</time>
      </trkpt>
      <trkpt lat="46.40082" lon="4.64278">
        <ele>262</ele>
        <time>2015-07-06T10:36:50Z</time>
      </trkpt>
      <trkpt lat="46.40078" lon="4.64274">
        <ele>262</ele>
        <time>2015-07-06T10:36:54Z</time>
      </trkpt>
      <trkpt lat="46.40072" lon="4.64271">
        <ele>262</ele>
        <time>2015-07-06T10:36:58Z</time>
      </trkpt>
      <trkpt lat="46.40066" lon="4.6426">
        <ele>262</ele>
        <time>2015-07-06T10:37:06Z</time>
      </trkpt>
      <trkpt lat="46.40062" lon="4.64256">
        <ele>263</ele>
        <time>2015-07-06T10:37:10Z</time>
      </trkpt>
      <trkpt lat="46.40053" lon="4.64238">
        <ele>263</ele>
        <time>2015-07-06T10:37:23Z</time>
      </trkpt>
      <trkpt lat="46.40049" lon="4.64232">
        <ele>263</ele>
        <time>2015-07-06T10:37:28Z</time>
      </trkpt>
      <trkpt lat="46.4003" lon="4.6422">
        <ele>263</ele>
        <time>2015-07-06T10:37:44Z</time>
      </trkpt>
      <trkpt lat="46.40025" lon="4.6422">
        <ele>263</ele>
        <time>2015-07-06T10:37:47Z</time>
      </trkpt>
      <trkpt lat="46.4002" lon="4.64216">
        <ele>263</ele>
        <time>2015-07-06T10:37:52Z</time>
      </trkpt>
      <trkpt lat="46.40016" lon="4.64203">
        <ele>264</ele>
        <time>2015-07-06T10:38:00Z</time>
      </trkpt>
      <trkpt lat="46.40007" lon="4.64196">
        <ele>262</ele>
        <time>2015-07-06T10:38:09Z</time>
      </trkpt>
      <trkpt lat="46.39996" lon="4.6419">
        <ele>262</ele>
        <time>2015-07-06T10:38:18Z</time>
      </trkpt>
      <trkpt lat="46.3999" lon="4.64188">
        <ele>262</ele>
        <time>2015-07-06T10:38:23Z</time>
      </trkpt>
      <trkpt lat="46.39979" lon="4.64189">
        <ele>263</ele>
        <time>2015-07-06T10:38:30Z</time>
      </trkpt>
      <trkpt lat="46.3997" lon="4.64184">
        <ele>263</ele>
        <time>2015-07-06T10:38:36Z</time>
      </trkpt>
      <trkpt lat="46.3996" lon="4.64183">
        <ele>263</ele>
        <time>2015-07-06T10:38:44Z</time>
      </trkpt>
      <trkpt lat="46.39943" lon="4.64162">
        <ele>262</ele>
        <time>2015-07-06T10:39:03Z</time>
      </trkpt>
      <trkpt lat="46.39928" lon="4.64149">
        <ele>262</ele>
        <time>2015-07-06T10:39:16Z</time>
      </trkpt>
      <trkpt lat="46.3991" lon="4.64137">
        <ele>264</ele>
        <time>2015-07-06T10:39:27Z</time>
      </trkpt>
      <trkpt lat="46.39894" lon="4.64124">
        <ele>264</ele>
        <time>2015-07-06T10:39:36Z</time>
      </trkpt>
      <trkpt lat="46.39892" lon="4.64118">
        <ele>264</ele>
        <time>2015-07-06T10:39:42Z</time>
      </trkpt>
      <trkpt lat="46.39888" lon="4.64086">
        <ele>267</ele>
        <time>2015-07-06T10:40:02Z</time>
      </trkpt>
      <trkpt lat="46.3988" lon="4.64076">
        <ele>267</ele>
        <time>2015-07-06T10:40:10Z</time>
      </trkpt>
      <trkpt lat="46.39847" lon="4.63991">
        <ele>265</ele>
        <time>2015-07-06T10:40:58Z</time>
      </trkpt>
      <trkpt lat="46.39844" lon="4.63986">
        <ele>266</ele>
        <time>2015-07-06T10:41:04Z</time>
      </trkpt>
      <trkpt lat="46.39841" lon="4.63964">
        <ele>266</ele>
        <time>2015-07-06T10:41:19Z</time>
      </trkpt>
      <trkpt lat="46.39832" lon="4.63935">
        <ele>265</ele>
        <time>2015-07-06T10:41:36Z</time>
      </trkpt>
      <trkpt lat="46.39832" lon="4.63928">
        <ele>265</ele>
        <time>2015-07-06T10:41:41Z</time>
      </trkpt>
      <trkpt lat="46.39829" lon="4.63923">
        <ele>263</ele>
        <time>2015-07-06T10:41:46Z</time>
      </trkpt>
      <trkpt lat="46.39824" lon="4.63911">
        <ele>262</ele>
        <time>2015-07-06T10:41:54Z</time>
      </trkpt>
      <trkpt lat="46.39807" lon="4.63887">
        <ele>262</ele>
        <time>2015-07-06T10:42:13Z</time>
      </trkpt>
      <trkpt lat="46.39803" lon="4.63873">
        <ele>261</ele>
        <time>2015-07-06T10:42:20Z</time>
      </trkpt>
      <trkpt lat="46.39796" lon="4.63863">
        <ele>262</ele>
        <time>2015-07-06T10:42:26Z</time>
      </trkpt>
      <trkpt lat="46.39794" lon="4.63834">
        <ele>262</ele>
        <time>2015-07-06T10:42:44Z</time>
      </trkpt>
      <trkpt lat="46.39792" lon="4.63829">
        <ele>261</ele>
        <time>2015-07-06T10:42:48Z</time>
      </trkpt>
      <trkpt lat="46.39788" lon="4.63822">
        <ele>261</ele>
        <time>2015-07-06T10:42:52Z</time>
      </trkpt>
      <trkpt lat="46.39784" lon="4.63809">
        <ele>262</ele>
        <time>2015-07-06T10:43:06Z</time>
      </trkpt>
      <trkpt lat="46.39783" lon="4.63798">
        <ele>261</ele>
        <time>2015-07-06T10:43:18Z</time>
      </trkpt>
      <trkpt lat="46.39779" lon="4.63793">
        <ele>261</ele>
        <time>2015-07-06T10:43:22Z</time>
      </trkpt>
      <trkpt lat="46.39777" lon="4.63785">
        <ele>261</ele>
        <time>2015-07-06T10:43:27Z</time>
      </trkpt>
      <trkpt lat="46.39767" lon="4.63768">
        <ele>262</ele>
        <time>2015-07-06T10:43:39Z</time>
      </trkpt>
      <trkpt lat="46.39764" lon="4.63763">
        <ele>262</ele>
        <time>2015-07-06T10:43:42Z</time>
      </trkpt>
      <trkpt lat="46.39761" lon="4.63757">
        <ele>262</ele>
        <time>2015-07-06T10:43:45Z</time>
      </trkpt>
      <trkpt lat="46.39759" lon="4.63749">
        <ele>262</ele>
        <time>2015-07-06T10:43:50Z</time>
      </trkpt>
      <trkpt lat="46.39755" lon="4.63745">
        <ele>263</ele>
        <time>2015-07-06T10:43:53Z</time>
      </trkpt>
      <trkpt lat="46.39747" lon="4.63735">
        <ele>263</ele>
        <time>2015-07-06T10:43:59Z</time>
      </trkpt>
      <trkpt lat="46.39745" lon="4.63729">
        <ele>263</ele>
        <time>2015-07-06T10:44:03Z</time>
      </trkpt>
      <trkpt lat="46.39737" lon="4.63721">
        <ele>263</ele>
        <time>2015-07-06T10:44:10Z</time>
      </trkpt>
      <trkpt lat="46.39735" lon="4.63719">
        <ele>262</ele>
        <time>2015-07-06T10:44:11Z</time>
      </trkpt>
      <trkpt lat="46.39733" lon="4.63713">
        <ele>262</ele>
        <time>2015-07-06T10:44:13Z</time>
      </trkpt>
      <trkpt lat="46.39731" lon="4.63697">
        <ele>263</ele>
        <time>2015-07-06T10:44:23Z</time>
      </trkpt>
      <trkpt lat="46.3971" lon="4.63659">
        <ele>264</ele>
        <time>2015-07-06T10:44:53Z</time>
      </trkpt>
      <trkpt lat="46.39711" lon="4.63648">
        <ele>264</ele>
        <time>2015-07-06T10:44:56Z</time>
      </trkpt>
      <trkpt lat="46.3971" lon="4.63641">
        <ele>264</ele>
        <time>2015-07-06T10:45:01Z</time>
      </trkpt>
      <trkpt lat="46.39707" lon="4.63634">
        <ele>266</ele>
        <time>2015-07-06T10:45:05Z</time>
      </trkpt>
      <trkpt lat="46.39703" lon="4.63629">
        <ele>266</ele>
        <time>2015-07-06T10:45:10Z</time>
      </trkpt>
      <trkpt lat="46.39698" lon="4.63612">
        <ele>266</ele>
        <time>2015-07-06T10:45:18Z</time>
      </trkpt>
      <trkpt lat="46.39695" lon="4.63609">
        <ele>266</ele>
        <time>2015-07-06T10:45:20Z</time>
      </trkpt>
      <trkpt lat="46.39691" lon="4.63587">
        <ele>266</ele>
        <time>2015-07-06T10:45:38Z</time>
      </trkpt>
      <trkpt lat="46.3969" lon="4.63567">
        <ele>265</ele>
        <time>2015-07-06T10:45:48Z</time>
      </trkpt>
      <trkpt lat="46.39691" lon="4.6356">
        <ele>264</ele>
        <time>2015-07-06T10:45:52Z</time>
      </trkpt>
      <trkpt lat="46.39686" lon="4.63538">
        <ele>261</ele>
        <time>2015-07-06T10:46:04Z</time>
      </trkpt>
      <trkpt lat="46.39685" lon="4.63514">
        <ele>252</ele>
        <time>2015-07-06T10:46:22Z</time>
      </trkpt>
      <trkpt lat="46.39631" lon="4.6339">
        <ele>253</ele>
        <time>2015-07-06T10:47:41Z</time>
      </trkpt>
      <trkpt lat="46.39629" lon="4.63386">
        <ele>253</ele>
        <time>2015-07-06T10:47:43Z</time>
      </trkpt>
      <trkpt lat="46.39624" lon="4.63364">
        <ele>254</ele>
        <time>2015-07-06T10:47:57Z</time>
      </trkpt>
      <trkpt lat="46.3962" lon="4.63358">
        <ele>255</ele>
        <time>2015-07-06T10:48:02Z</time>
      </trkpt>
      <trkpt lat="46.39612" lon="4.63327">
        <ele>256</ele>
        <time>2015-07-06T10:48:21Z</time>
      </trkpt>
      <trkpt lat="46.39613" lon="4.63305">
        <ele>253</ele>
        <time>2015-07-06T10:48:36Z</time>
      </trkpt>
      <trkpt lat="46.3961" lon="4.633">
        <ele>253</ele>
        <time>2015-07-06T10:48:39Z</time>
      </trkpt>
      <trkpt lat="46.39606" lon="4.63297">
        <ele>253</ele>
        <time>2015-07-06T10:48:41Z</time>
      </trkpt>
      <trkpt lat="46.39604" lon="4.6329">
        <ele>253</ele>
        <time>2015-07-06T10:48:45Z</time>
      </trkpt>
      <trkpt lat="46.39603" lon="4.63284">
        <ele>253</ele>
        <time>2015-07-06T10:48:50Z</time>
      </trkpt>
      <trkpt lat="46.39601" lon="4.63281">
        <ele>253</ele>
        <time>2015-07-06T10:48:52Z</time>
      </trkpt>
      <trkpt lat="46.39598" lon="4.6328">
        <ele>253</ele>
        <time>2015-07-06T10:48:53Z</time>
      </trkpt>
      <trkpt lat="46.39597" lon="4.63277">
        <ele>253</ele>
        <time>2015-07-06T10:48:54Z</time>
      </trkpt>
      <trkpt lat="46.39598" lon="4.63273">
        <ele>253</ele>
        <time>2015-07-06T10:48:55Z</time>
      </trkpt>
      <trkpt lat="46.39602" lon="4.63267">
        <ele>253</ele>
        <time>2015-07-06T10:48:57Z</time>
      </trkpt>
      <trkpt lat="46.39603" lon="4.63253">
        <ele>253</ele>
        <time>2015-07-06T10:49:06Z</time>
      </trkpt>
      <trkpt lat="46.39599" lon="4.63241">
        <ele>253</ele>
        <time>2015-07-06T10:49:15Z</time>
      </trkpt>
      <trkpt lat="46.39597" lon="4.63227">
        <ele>253</ele>
        <time>2015-07-06T10:49:23Z</time>
      </trkpt>
      <trkpt lat="46.39593" lon="4.63214">
        <ele>254</ele>
        <time>2015-07-06T10:49:30Z</time>
      </trkpt>
      <trkpt lat="46.3959" lon="4.63202">
        <ele>256</ele>
        <time>2015-07-06T10:49:37Z</time>
      </trkpt>
      <trkpt lat="46.39584" lon="4.63194">
        <ele>256</ele>
        <time>2015-07-06T10:49:42Z</time>
      </trkpt>
      <trkpt lat="46.39567" lon="4.63153">
        <ele>260</ele>
        <time>2015-07-06T10:50:09Z</time>
      </trkpt>
      <trkpt lat="46.39562" lon="4.63119">
        <ele>253</ele>
        <time>2015-07-06T10:50:25Z</time>
      </trkpt>
      <trkpt lat="46.39559" lon="4.63112">
        <ele>253</ele>
        <time>2015-07-06T10:50:31Z</time>
      </trkpt>
      <trkpt lat="46.39558" lon="4.63097">
        <ele>253</ele>
        <time>2015-07-06T10:50:38Z</time>
      </trkpt>
      <trkpt lat="46.39561" lon="4.63082">
        <ele>254</ele>
        <time>2015-07-06T10:50:48Z</time>
      </trkpt>
      <trkpt lat="46.39566" lon="4.63061">
        <ele>256</ele>
        <time>2015-07-06T10:50:59Z</time>
      </trkpt>
      <trkpt lat="46.3957" lon="4.63052">
        <ele>256</ele>
        <time>2015-07-06T10:51:05Z</time>
      </trkpt>
      <trkpt lat="46.39572" lon="4.63041">
        <ele>254</ele>
        <time>2015-07-06T10:51:10Z</time>
      </trkpt>
      <trkpt lat="46.39578" lon="4.63035">
        <ele>254</ele>
        <time>2015-07-06T10:51:15Z</time>
      </trkpt>
      <trkpt lat="46.3959" lon="4.63011">
        <ele>252</ele>
        <time>2015-07-06T10:51:31Z</time>
      </trkpt>
      <trkpt lat="46.39594" lon="4.63007">
        <ele>252</ele>
        <time>2015-07-06T10:51:36Z</time>
      </trkpt>
      <trkpt lat="46.39598" lon="4.63">
        <ele>252</ele>
        <time>2015-07-06T10:51:38Z</time>
      </trkpt>
      <trkpt lat="46.3961" lon="4.62986">
        <ele>251</ele>
        <time>2015-07-06T10:51:53Z</time>
      </trkpt>
      <trkpt lat="46.39613" lon="4.6298">
        <ele>251</ele>
        <time>2015-07-06T10:51:57Z</time>
      </trkpt>
      <trkpt lat="46.39618" lon="4.62976">
        <ele>251</ele>
        <time>2015-07-06T10:52:01Z</time>
      </trkpt>
      <trkpt lat="46.39621" lon="4.62972">
        <ele>251</ele>
        <time>2015-07-06T10:52:05Z</time>
      </trkpt>
      <trkpt lat="46.39625" lon="4.62967">
        <ele>250</ele>
        <time>2015-07-06T10:52:10Z</time>
      </trkpt>
      <trkpt lat="46.39629" lon="4.62963">
        <ele>250</ele>
        <time>2015-07-06T10:52:14Z</time>
      </trkpt>
      <trkpt lat="46.39636" lon="4.62953">
        <ele>247</ele>
        <time>2015-07-06T10:52:22Z</time>
      </trkpt>
      <trkpt lat="46.39638" lon="4.62945">
        <ele>246</ele>
        <time>2015-07-06T10:52:27Z</time>
      </trkpt>
      <trkpt lat="46.39641" lon="4.62921">
        <ele>247</ele>
        <time>2015-07-06T10:52:42Z</time>
      </trkpt>
      <trkpt lat="46.39646" lon="4.62919">
        <ele>247</ele>
        <time>2015-07-06T10:52:45Z</time>
      </trkpt>
      <trkpt lat="46.3965" lon="4.62915">
        <ele>246</ele>
        <time>2015-07-06T10:52:49Z</time>
      </trkpt>
      <trkpt lat="46.39653" lon="4.62909">
        <ele>246</ele>
        <time>2015-07-06T10:52:54Z</time>
      </trkpt>
      <trkpt lat="46.39653" lon="4.62895">
        <ele>245</ele>
        <time>2015-07-06T10:53:03Z</time>
      </trkpt>
      <trkpt lat="46.39655" lon="4.62887">
        <ele>246</ele>
        <time>2015-07-06T10:53:07Z</time>
      </trkpt>
      <trkpt lat="46.39657" lon="4.62883">
        <ele>246</ele>
        <time>2015-07-06T10:53:09Z</time>
      </trkpt>
      <trkpt lat="46.39662" lon="4.62866">
        <ele>245</ele>
        <time>2015-07-06T10:53:19Z</time>
      </trkpt>
      <trkpt lat="46.39666" lon="4.6286">
        <ele>244</ele>
        <time>2015-07-06T10:53:24Z</time>
      </trkpt>
      <trkpt lat="46.39669" lon="4.62832">
        <ele>245</ele>
        <time>2015-07-06T10:53:40Z</time>
      </trkpt>
      <trkpt lat="46.39666" lon="4.62826">
        <ele>245</ele>
        <time>2015-07-06T10:53:42Z</time>
      </trkpt>
      <trkpt lat="46.39664" lon="4.62824">
        <ele>246</ele>
        <time>2015-07-06T10:53:43Z</time>
      </trkpt>
      <trkpt lat="46.39664" lon="4.62799">
        <ele>247</ele>
        <time>2015-07-06T10:53:59Z</time>
      </trkpt>
      <trkpt lat="46.39663" lon="4.62791">
        <ele>248</ele>
        <time>2015-07-06T10:54:03Z</time>
      </trkpt>
      <trkpt lat="46.39663" lon="4.62781">
        <ele>248</ele>
        <time>2015-07-06T10:54:08Z</time>
      </trkpt>
      <trkpt lat="46.39661" lon="4.62774">
        <ele>248</ele>
        <time>2015-07-06T10:54:12Z</time>
      </trkpt>
      <trkpt lat="46.39662" lon="4.62768">
        <ele>248</ele>
        <time>2015-07-06T10:54:14Z</time>
      </trkpt>
      <trkpt lat="46.3966" lon="4.62753">
        <ele>248</ele>
        <time>2015-07-06T10:54:23Z</time>
      </trkpt>
      <trkpt lat="46.39663" lon="4.62731">
        <ele>248</ele>
        <time>2015-07-06T10:54:35Z</time>
      </trkpt>
      <trkpt lat="46.3967" lon="4.62721">
        <ele>249</ele>
        <time>2015-07-06T10:54:46Z</time>
      </trkpt>
      <trkpt lat="46.39675" lon="4.62719">
        <ele>249</ele>
        <time>2015-07-06T10:54:52Z</time>
      </trkpt>
      <trkpt lat="46.39681" lon="4.62718">
        <ele>249</ele>
        <time>2015-07-06T10:54:56Z</time>
      </trkpt>
      <trkpt lat="46.39695" lon="4.62719">
        <ele>248</ele>
        <time>2015-07-06T10:55:08Z</time>
      </trkpt>
      <trkpt lat="46.39702" lon="4.62711">
        <ele>248</ele>
        <time>2015-07-06T10:55:13Z</time>
      </trkpt>
      <trkpt lat="46.39707" lon="4.6271">
        <ele>247</ele>
        <time>2015-07-06T10:55:17Z</time>
      </trkpt>
      <trkpt lat="46.39709" lon="4.62705">
        <ele>247</ele>
        <time>2015-07-06T10:55:20Z</time>
      </trkpt>
      <trkpt lat="46.39713" lon="4.627">
        <ele>246</ele>
        <time>2015-07-06T10:55:24Z</time>
      </trkpt>
      <trkpt lat="46.39717" lon="4.62696">
        <ele>246</ele>
        <time>2015-07-06T10:55:27Z</time>
      </trkpt>
      <trkpt lat="46.39722" lon="4.62694">
        <ele>246</ele>
        <time>2015-07-06T10:55:30Z</time>
      </trkpt>
      <trkpt lat="46.39727" lon="4.62695">
        <ele>246</ele>
        <time>2015-07-06T10:55:35Z</time>
      </trkpt>
      <trkpt lat="46.39731" lon="4.62693">
        <ele>246</ele>
        <time>2015-07-06T10:55:38Z</time>
      </trkpt>
      <trkpt lat="46.39735" lon="4.62688">
        <ele>247</ele>
        <time>2015-07-06T10:55:44Z</time>
      </trkpt>
      <trkpt lat="46.39743" lon="4.62692">
        <ele>249</ele>
        <time>2015-07-06T10:55:53Z</time>
      </trkpt>
      <trkpt lat="46.39744" lon="4.62685">
        <ele>250</ele>
        <time>2015-07-06T10:55:56Z</time>
      </trkpt>
      <trkpt lat="46.39742" lon="4.62668">
        <ele>252</ele>
        <time>2015-07-06T10:56:02Z</time>
      </trkpt>
      <trkpt lat="46.39728" lon="4.62649">
        <ele>256</ele>
        <time>2015-07-06T10:56:14Z</time>
      </trkpt>
      <trkpt lat="46.39722" lon="4.62638">
        <ele>256</ele>
        <time>2015-07-06T10:56:20Z</time>
      </trkpt>
      <trkpt lat="46.39717" lon="4.6262">
        <ele>256</ele>
        <time>2015-07-06T10:56:31Z</time>
      </trkpt>
      <trkpt lat="46.39696" lon="4.62592">
        <ele>255</ele>
        <time>2015-07-06T10:56:53Z</time>
      </trkpt>
      <trkpt lat="46.39684" lon="4.62563">
        <ele>255</ele>
        <time>2015-07-06T10:57:08Z</time>
      </trkpt>
      <trkpt lat="46.39678" lon="4.62536">
        <ele>255</ele>
        <time>2015-07-06T10:57:23Z</time>
      </trkpt>
      <trkpt lat="46.39675" lon="4.62528">
        <ele>255</ele>
        <time>2015-07-06T10:57:32Z</time>
      </trkpt>
      <trkpt lat="46.3966" lon="4.625">
        <ele>255</ele>
        <time>2015-07-06T10:57:51Z</time>
      </trkpt>
      <trkpt lat="46.39646" lon="4.62466">
        <ele>257</ele>
        <time>2015-07-06T10:58:11Z</time>
      </trkpt>
      <trkpt lat="46.39636" lon="4.62449">
        <ele>256</ele>
        <time>2015-07-06T10:58:23Z</time>
      </trkpt>
      <trkpt lat="46.39623" lon="4.62422">
        <ele>258</ele>
        <time>2015-07-06T10:58:41Z</time>
      </trkpt>
      <trkpt lat="46.39612" lon="4.62406">
        <ele>258</ele>
        <time>2015-07-06T10:58:51Z</time>
      </trkpt>
      <trkpt lat="46.39568" lon="4.62323">
        <ele>255</ele>
        <time>2015-07-06T10:59:53Z</time>
      </trkpt>
      <trkpt lat="46.39563" lon="4.62324">
        <ele>256</ele>
        <time>2015-07-06T11:00:50Z</time>
      </trkpt>
      <trkpt lat="46.39558" lon="4.62326">
        <ele>255</ele>
        <time>2015-07-06T11:00:54Z</time>
      </trkpt>
      <trkpt lat="46.39554" lon="4.62329">
        <ele>256</ele>
        <time>2015-07-06T11:00:58Z</time>
      </trkpt>
      <trkpt lat="46.39548" lon="4.6233">
        <ele>254</ele>
        <time>2015-07-06T11:01:03Z</time>
      </trkpt>
      <trkpt lat="46.39543" lon="4.62331">
        <ele>255</ele>
        <time>2015-07-06T11:01:08Z</time>
      </trkpt>
      <trkpt lat="46.39508" lon="4.62336">
        <ele>259</ele>
        <time>2015-07-06T11:01:37Z</time>
      </trkpt>
      <trkpt lat="46.39502" lon="4.6234">
        <ele>258</ele>
        <time>2015-07-06T11:01:40Z</time>
      </trkpt>
      <trkpt lat="46.39497" lon="4.62345">
        <ele>259</ele>
        <time>2015-07-06T11:01:43Z</time>
      </trkpt>
      <trkpt lat="46.39495" lon="4.6235">
        <ele>259</ele>
        <time>2015-07-06T11:01:45Z</time>
      </trkpt>
      <trkpt lat="46.39482" lon="4.62351">
        <ele>259</ele>
        <time>2015-07-06T11:01:59Z</time>
      </trkpt>
      <trkpt lat="46.39472" lon="4.6235">
        <ele>259</ele>
        <time>2015-07-06T11:02:09Z</time>
      </trkpt>
      <trkpt lat="46.39454" lon="4.62364">
        <ele>258</ele>
        <time>2015-07-06T11:02:24Z</time>
      </trkpt>
      <trkpt lat="46.3945" lon="4.62366">
        <ele>258</ele>
        <time>2015-07-06T11:02:30Z</time>
      </trkpt>
      <trkpt lat="46.39445" lon="4.6237">
        <ele>257</ele>
        <time>2015-07-06T11:02:34Z</time>
      </trkpt>
      <trkpt lat="46.39446" lon="4.62368">
        <ele>256</ele>
        <time>2015-07-06T11:04:22Z</time>
      </trkpt>
      <trkpt lat="46.3945" lon="4.62365">
        <ele>256</ele>
        <time>2015-07-06T11:04:28Z</time>
      </trkpt>
      <trkpt lat="46.39455" lon="4.62368">
        <ele>257</ele>
        <time>2015-07-06T11:04:31Z</time>
      </trkpt>
      <trkpt lat="46.3946" lon="4.62368">
        <ele>257</ele>
        <time>2015-07-06T11:04:37Z</time>
      </trkpt>
      <trkpt lat="46.39462" lon="4.62362">
        <ele>256</ele>
        <time>2015-07-06T11:04:40Z</time>
      </trkpt>
      <trkpt lat="46.39466" lon="4.62355">
        <ele>257</ele>
        <time>2015-07-06T11:04:43Z</time>
      </trkpt>
      <trkpt lat="46.39475" lon="4.62347">
        <ele>259</ele>
        <time>2015-07-06T11:04:52Z</time>
      </trkpt>
      <trkpt lat="46.39479" lon="4.62344">
        <ele>259</ele>
        <time>2015-07-06T11:04:56Z</time>
      </trkpt>
      <trkpt lat="46.39489" lon="4.6234">
        <ele>256</ele>
        <time>2015-07-06T11:05:06Z</time>
      </trkpt>
      <trkpt lat="46.39494" lon="4.62338">
        <ele>256</ele>
        <time>2015-07-06T11:05:11Z</time>
      </trkpt>
      <trkpt lat="46.39505" lon="4.62334">
        <ele>257</ele>
        <time>2015-07-06T11:05:22Z</time>
      </trkpt>
      <trkpt lat="46.39508" lon="4.62334">
        <ele>257</ele>
        <time>2015-07-06T11:05:34Z</time>
      </trkpt>
      <trkpt lat="46.39512" lon="4.62331">
        <ele>258</ele>
        <time>2015-07-06T11:05:39Z</time>
      </trkpt>
      <trkpt lat="46.39548" lon="4.62327">
        <ele>259</ele>
        <time>2015-07-06T11:06:11Z</time>
      </trkpt>
      <trkpt lat="46.39553" lon="4.62326">
        <ele>260</ele>
        <time>2015-07-06T11:06:15Z</time>
      </trkpt>
      <trkpt lat="46.39563" lon="4.62321">
        <ele>259</ele>
        <time>2015-07-06T11:06:24Z</time>
      </trkpt>
      <trkpt lat="46.39565" lon="4.62315">
        <ele>260</ele>
        <time>2015-07-06T11:06:28Z</time>
      </trkpt>
      <trkpt lat="46.39565" lon="4.62301">
        <ele>259</ele>
        <time>2015-07-06T11:06:36Z</time>
      </trkpt>
      <trkpt lat="46.39562" lon="4.62279">
        <ele>260</ele>
        <time>2015-07-06T11:06:50Z</time>
      </trkpt>
      <trkpt lat="46.39564" lon="4.62272">
        <ele>261</ele>
        <time>2015-07-06T11:06:55Z</time>
      </trkpt>
      <trkpt lat="46.39558" lon="4.62259">
        <ele>264</ele>
        <time>2015-07-06T11:07:03Z</time>
      </trkpt>
      <trkpt lat="46.39556" lon="4.62252">
        <ele>262</ele>
        <time>2015-07-06T11:07:06Z</time>
      </trkpt>
      <trkpt lat="46.39557" lon="4.62248">
        <ele>262</ele>
        <time>2015-07-06T11:07:07Z</time>
      </trkpt>
      <trkpt lat="46.39549" lon="4.62194">
        <ele>264</ele>
        <time>2015-07-06T11:07:39Z</time>
      </trkpt>
      <trkpt lat="46.39557" lon="4.62145">
        <ele>265</ele>
        <time>2015-07-06T11:08:07Z</time>
      </trkpt>
      <trkpt lat="46.39559" lon="4.62136">
        <ele>266</ele>
        <time>2015-07-06T11:08:13Z</time>
      </trkpt>
      <trkpt lat="46.39558" lon="4.62122">
        <ele>268</ele>
        <time>2015-07-06T11:08:20Z</time>
      </trkpt>
      <trkpt lat="46.39555" lon="4.62116">
        <ele>268</ele>
        <time>2015-07-06T11:08:24Z</time>
      </trkpt>
      <trkpt lat="46.39554" lon="4.6211">
        <ele>268</ele>
        <time>2015-07-06T11:08:32Z</time>
      </trkpt>
      <trkpt lat="46.39533" lon="4.62062">
        <ele>270</ele>
        <time>2015-07-06T11:09:04Z</time>
      </trkpt>
      <trkpt lat="46.39528" lon="4.62054">
        <ele>269</ele>
        <time>2015-07-06T11:09:09Z</time>
      </trkpt>
      <trkpt lat="46.39525" lon="4.62048">
        <ele>269</ele>
        <time>2015-07-06T11:09:16Z</time>
      </trkpt>
      <trkpt lat="46.3952" lon="4.62044">
        <ele>269</ele>
        <time>2015-07-06T11:09:21Z</time>
      </trkpt>
      <trkpt lat="46.39482" lon="4.62016">
        <ele>263</ele>
        <time>2015-07-06T11:09:52Z</time>
      </trkpt>
      <trkpt lat="46.39478" lon="4.62011">
        <ele>263</ele>
        <time>2015-07-06T11:09:56Z</time>
      </trkpt>
      <trkpt lat="46.39474" lon="4.61999">
        <ele>264</ele>
        <time>2015-07-06T11:10:05Z</time>
      </trkpt>
      <trkpt lat="46.39467" lon="4.61992">
        <ele>264</ele>
        <time>2015-07-06T11:10:12Z</time>
      </trkpt>
      <trkpt lat="46.39461" lon="4.61979">
        <ele>264</ele>
        <time>2015-07-06T11:10:20Z</time>
      </trkpt>
      <trkpt lat="46.39456" lon="4.61975">
        <ele>264</ele>
        <time>2015-07-06T11:10:25Z</time>
      </trkpt>
      <trkpt lat="46.39444" lon="4.61961">
        <ele>264</ele>
        <time>2015-07-06T11:10:37Z</time>
      </trkpt>
      <trkpt lat="46.39434" lon="4.61952">
        <ele>263</ele>
        <time>2015-07-06T11:10:45Z</time>
      </trkpt>
      <trkpt lat="46.39422" lon="4.61947">
        <ele>264</ele>
        <time>2015-07-06T11:10:55Z</time>
      </trkpt>
      <trkpt lat="46.39365" lon="4.61894">
        <ele>263</ele>
        <time>2015-07-06T11:11:48Z</time>
      </trkpt>
      <trkpt lat="46.39332" lon="4.61879">
        <ele>267</ele>
        <time>2015-07-06T11:12:15Z</time>
      </trkpt>
      <trkpt lat="46.39328" lon="4.61875">
        <ele>268</ele>
        <time>2015-07-06T11:12:22Z</time>
      </trkpt>
      <trkpt lat="46.39323" lon="4.61874">
        <ele>268</ele>
        <time>2015-07-06T11:12:27Z</time>
      </trkpt>
      <trkpt lat="46.39318" lon="4.61871">
        <ele>268</ele>
        <time>2015-07-06T11:12:32Z</time>
      </trkpt>
      <trkpt lat="46.39305" lon="4.61864">
        <ele>267</ele>
        <time>2015-07-06T11:12:44Z</time>
      </trkpt>
      <trkpt lat="46.39293" lon="4.6186">
        <ele>267</ele>
        <time>2015-07-06T11:12:50Z</time>
      </trkpt>
      <trkpt lat="46.39286" lon="4.61857">
        <ele>267</ele>
        <time>2015-07-06T11:12:58Z</time>
      </trkpt>
      <trkpt lat="46.39277" lon="4.61851">
        <ele>264</ele>
        <time>2015-07-06T11:13:05Z</time>
      </trkpt>
      <trkpt lat="46.39272" lon="4.61849">
        <ele>264</ele>
        <time>2015-07-06T11:13:09Z</time>
      </trkpt>
      <trkpt lat="46.39224" lon="4.61817">
        <ele>262</ele>
        <time>2015-07-06T11:13:52Z</time>
      </trkpt>
      <trkpt lat="46.39185" lon="4.61803">
        <ele>262</ele>
        <time>2015-07-06T11:14:25Z</time>
      </trkpt>
      <trkpt lat="46.39145" lon="4.61812">
        <ele>262</ele>
        <time>2015-07-06T11:14:58Z</time>
      </trkpt>
      <trkpt lat="46.39117" lon="4.61796">
        <ele>262</ele>
        <time>2015-07-06T11:15:22Z</time>
      </trkpt>
      <trkpt lat="46.39113" lon="4.61791">
        <ele>261</ele>
        <time>2015-07-06T11:15:26Z</time>
      </trkpt>
      <trkpt lat="46.39098" lon="4.61779">
        <ele>263</ele>
        <time>2015-07-06T11:15:43Z</time>
      </trkpt>
      <trkpt lat="46.39093" lon="4.61771">
        <ele>262</ele>
        <time>2015-07-06T11:15:48Z</time>
      </trkpt>
      <trkpt lat="46.39088" lon="4.61768">
        <ele>261</ele>
        <time>2015-07-06T11:15:53Z</time>
      </trkpt>
      <trkpt lat="46.39076" lon="4.61755">
        <ele>261</ele>
        <time>2015-07-06T11:16:06Z</time>
      </trkpt>
      <trkpt lat="46.39075" lon="4.61751">
        <ele>261</ele>
        <time>2015-07-06T11:16:12Z</time>
      </trkpt>
      <trkpt lat="46.39073" lon="4.61749">
        <ele>260</ele>
        <time>2015-07-06T11:16:18Z</time>
      </trkpt>
      <trkpt lat="46.3907" lon="4.61744">
        <ele>260</ele>
        <time>2015-07-06T11:16:21Z</time>
      </trkpt>
      <trkpt lat="46.39068" lon="4.61738">
        <ele>261</ele>
        <time>2015-07-06T11:16:26Z</time>
      </trkpt>
      <trkpt lat="46.39061" lon="4.61728">
        <ele>261</ele>
        <time>2015-07-06T11:16:33Z</time>
      </trkpt>
      <trkpt lat="46.39053" lon="4.6171">
        <ele>261</ele>
        <time>2015-07-06T11:16:46Z</time>
      </trkpt>
      <trkpt lat="46.3904" lon="4.61695">
        <ele>262</ele>
        <time>2015-07-06T11:17:00Z</time>
      </trkpt>
      <trkpt lat="46.39036" lon="4.61689">
        <ele>262</ele>
        <time>2015-07-06T11:17:04Z</time>
      </trkpt>
      <trkpt lat="46.39025" lon="4.61681">
        <ele>263</ele>
        <time>2015-07-06T11:17:13Z</time>
      </trkpt>
      <trkpt lat="46.39022" lon="4.61676">
        <ele>263</ele>
        <time>2015-07-06T11:17:18Z</time>
      </trkpt>
      <trkpt lat="46.39016" lon="4.61673">
        <ele>263</ele>
        <time>2015-07-06T11:17:24Z</time>
      </trkpt>
      <trkpt lat="46.39011" lon="4.6166">
        <ele>262</ele>
        <time>2015-07-06T11:17:32Z</time>
      </trkpt>
      <trkpt lat="46.39007" lon="4.61657">
        <ele>263</ele>
        <time>2015-07-06T11:17:37Z</time>
      </trkpt>
      <trkpt lat="46.38984" lon="4.61644">
        <ele>266</ele>
        <time>2015-07-06T11:18:00Z</time>
      </trkpt>
      <trkpt lat="46.38979" lon="4.61647">
        <ele>267</ele>
        <time>2015-07-06T11:18:07Z</time>
      </trkpt>
      <trkpt lat="46.38977" lon="4.61652">
        <ele>267</ele>
        <time>2015-07-06T11:18:10Z</time>
      </trkpt>
      <trkpt lat="46.38965" lon="4.61664">
        <ele>267</ele>
        <time>2015-07-06T11:18:22Z</time>
      </trkpt>
      <trkpt lat="46.38956" lon="4.6167">
        <ele>263</ele>
        <time>2015-07-06T11:18:32Z</time>
      </trkpt>
      <trkpt lat="46.38938" lon="4.61697">
        <ele>261</ele>
        <time>2015-07-06T11:18:53Z</time>
      </trkpt>
      <trkpt lat="46.38916" lon="4.61723">
        <ele>262</ele>
        <time>2015-07-06T11:19:17Z</time>
      </trkpt>
      <trkpt lat="46.38908" lon="4.61738">
        <ele>261</ele>
        <time>2015-07-06T11:19:28Z</time>
      </trkpt>
      <trkpt lat="46.38874" lon="4.6179">
        <ele>263</ele>
        <time>2015-07-06T11:20:04Z</time>
      </trkpt>
      <trkpt lat="46.3886" lon="4.61826">
        <ele>264</ele>
        <time>2015-07-06T11:20:29Z</time>
      </trkpt>
      <trkpt lat="46.38855" lon="4.61831">
        <ele>264</ele>
        <time>2015-07-06T11:20:35Z</time>
      </trkpt>
      <trkpt lat="46.38849" lon="4.61841">
        <ele>264</ele>
        <time>2015-07-06T11:20:41Z</time>
      </trkpt>
      <trkpt lat="46.38836" lon="4.61883">
        <ele>266</ele>
        <time>2015-07-06T11:21:10Z</time>
      </trkpt>
      <trkpt lat="46.38841" lon="4.61886">
        <ele>267</ele>
        <time>2015-07-06T11:21:20Z</time>
      </trkpt>
      <trkpt lat="46.38847" lon="4.61906">
        <ele>265</ele>
        <time>2015-07-06T11:21:51Z</time>
      </trkpt>
      <trkpt lat="46.38846" lon="4.61901">
        <ele>267</ele>
        <time>2015-07-06T11:22:53Z</time>
      </trkpt>
      <trkpt lat="46.38849" lon="4.61893">
        <ele>266</ele>
        <time>2015-07-06T11:23:03Z</time>
      </trkpt>
      <trkpt lat="46.38834" lon="4.61894">
        <ele>265</ele>
        <time>2015-07-06T11:23:16Z</time>
      </trkpt>
      <trkpt lat="46.38833" lon="4.61901">
        <ele>265</ele>
        <time>2015-07-06T11:23:23Z</time>
      </trkpt>
      <trkpt lat="46.38836" lon="4.61923">
        <ele>265</ele>
        <time>2015-07-06T11:23:35Z</time>
      </trkpt>
      <trkpt lat="46.38841" lon="4.61926">
        <ele>264</ele>
        <time>2015-07-06T11:23:40Z</time>
      </trkpt>
      <trkpt lat="46.38845" lon="4.61928">
        <ele>264</ele>
        <time>2015-07-06T11:23:46Z</time>
      </trkpt>
      <trkpt lat="46.38845" lon="4.61933">
        <ele>264</ele>
        <time>2015-07-06T11:23:54Z</time>
      </trkpt>
      <trkpt lat="46.38843" lon="4.6194">
        <ele>264</ele>
        <time>2015-07-06T11:24:00Z</time>
      </trkpt>
      <trkpt lat="46.38846" lon="4.61947">
        <ele>264</ele>
        <time>2015-07-06T11:24:04Z</time>
      </trkpt>
      <trkpt lat="46.38843" lon="4.61958">
        <ele>264</ele>
        <time>2015-07-06T11:24:11Z</time>
      </trkpt>
      <trkpt lat="46.38845" lon="4.61977">
        <ele>266</ele>
        <time>2015-07-06T11:24:25Z</time>
      </trkpt>
      <trkpt lat="46.38839" lon="4.61979">
        <ele>271</ele>
        <time>2015-07-06T11:28:03Z</time>
      </trkpt>
      <trkpt lat="46.38836" lon="4.61976">
        <ele>271</ele>
        <time>2015-07-06T11:28:18Z</time>
      </trkpt>
      <trkpt lat="46.38839" lon="4.61971">
        <ele>273</ele>
        <time>2015-07-06T11:28:39Z</time>
      </trkpt>
      <trkpt lat="46.38845" lon="4.6198">
        <ele>273</ele>
        <time>2015-07-06T11:39:11Z</time>
      </trkpt>
      <trkpt lat="46.38842" lon="4.61988">
        <ele>273</ele>
        <time>2015-07-06T11:40:42Z</time>
      </trkpt>
      <trkpt lat="46.38842" lon="4.61987">
        <ele>275</ele>
        <time>2015-07-06T11:48:09Z</time>
      </trkpt>
      <trkpt lat="46.38838" lon="4.61979">
        <ele>280</ele>
        <time>2015-07-06T12:01:42Z</time>
      </trkpt>
      <trkpt lat="46.3882" lon="4.61967">
        <ele>283</ele>
        <time>2015-07-06T12:01:59Z</time>
      </trkpt>
      <trkpt lat="46.38818" lon="4.61961">
        <ele>284</ele>
        <time>2015-07-06T12:02:03Z</time>
      </trkpt>
      <trkpt lat="46.38798" lon="4.61948">
        <ele>284</ele>
        <time>2015-07-06T12:02:17Z</time>
      </trkpt>
      <trkpt lat="46.38793" lon="4.61949">
        <ele>284</ele>
        <time>2015-07-06T12:02:21Z</time>
      </trkpt>
      <trkpt lat="46.38784" lon="4.61955">
        <ele>284</ele>
        <time>2015-07-06T12:02:31Z</time>
      </trkpt>
      <trkpt lat="46.38781" lon="4.61962">
        <ele>284</ele>
        <time>2015-07-06T12:02:34Z</time>
      </trkpt>
      <trkpt lat="46.38784" lon="4.61976">
        <ele>284</ele>
        <time>2015-07-06T12:02:40Z</time>
      </trkpt>
      <trkpt lat="46.38776" lon="4.61985">
        <ele>284</ele>
        <time>2015-07-06T12:02:48Z</time>
      </trkpt>
      <trkpt lat="46.38738" lon="4.62071">
        <ele>290</ele>
        <time>2015-07-06T12:03:52Z</time>
      </trkpt>
      <trkpt lat="46.38735" lon="4.62075">
        <ele>290</ele>
        <time>2015-07-06T12:03:54Z</time>
      </trkpt>
      <trkpt lat="46.38727" lon="4.62079">
        <ele>291</ele>
        <time>2015-07-06T12:03:58Z</time>
      </trkpt>
      <trkpt lat="46.38707" lon="4.62062">
        <ele>293</ele>
        <time>2015-07-06T12:04:18Z</time>
      </trkpt>
      <trkpt lat="46.38705" lon="4.62055">
        <ele>293</ele>
        <time>2015-07-06T12:04:22Z</time>
      </trkpt>
      <trkpt lat="46.38694" lon="4.62043">
        <ele>289</ele>
        <time>2015-07-06T12:04:39Z</time>
      </trkpt>
      <trkpt lat="46.38689" lon="4.6204">
        <ele>287</ele>
        <time>2015-07-06T12:04:44Z</time>
      </trkpt>
      <trkpt lat="46.38684" lon="4.6204">
        <ele>287</ele>
        <time>2015-07-06T12:04:48Z</time>
      </trkpt>
      <trkpt lat="46.38679" lon="4.62043">
        <ele>287</ele>
        <time>2015-07-06T12:04:54Z</time>
      </trkpt>
      <trkpt lat="46.38668" lon="4.62057">
        <ele>287</ele>
        <time>2015-07-06T12:05:08Z</time>
      </trkpt>
      <trkpt lat="46.38655" lon="4.62068">
        <ele>284</ele>
        <time>2015-07-06T12:05:22Z</time>
      </trkpt>
      <trkpt lat="46.38654" lon="4.62075">
        <ele>284</ele>
        <time>2015-07-06T12:05:25Z</time>
      </trkpt>
      <trkpt lat="46.38653" lon="4.6209">
        <ele>284</ele>
        <time>2015-07-06T12:05:34Z</time>
      </trkpt>
      <trkpt lat="46.3866" lon="4.62102">
        <ele>284</ele>
        <time>2015-07-06T12:05:42Z</time>
      </trkpt>
      <trkpt lat="46.38666" lon="4.62107">
        <ele>284</ele>
        <time>2015-07-06T12:05:51Z</time>
      </trkpt>
      <trkpt lat="46.38672" lon="4.62113">
        <ele>283</ele>
        <time>2015-07-06T12:06:00Z</time>
      </trkpt>
      <trkpt lat="46.38688" lon="4.6214">
        <ele>283</ele>
        <time>2015-07-06T12:06:19Z</time>
      </trkpt>
      <trkpt lat="46.38709" lon="4.62153">
        <ele>283</ele>
        <time>2015-07-06T12:06:39Z</time>
      </trkpt>
      <trkpt lat="46.38754" lon="4.62206">
        <ele>285</ele>
        <time>2015-07-06T12:07:24Z</time>
      </trkpt>
      <trkpt lat="46.38755" lon="4.6221">
        <ele>285</ele>
        <time>2015-07-06T12:07:26Z</time>
      </trkpt>
      <trkpt lat="46.38754" lon="4.62238">
        <ele>286</ele>
        <time>2015-07-06T12:07:38Z</time>
      </trkpt>
      <trkpt lat="46.38757" lon="4.62246">
        <ele>286</ele>
        <time>2015-07-06T12:07:41Z</time>
      </trkpt>
      <trkpt lat="46.38762" lon="4.62252">
        <ele>286</ele>
        <time>2015-07-06T12:07:46Z</time>
      </trkpt>
      <trkpt lat="46.38767" lon="4.62253">
        <ele>286</ele>
        <time>2015-07-06T12:07:50Z</time>
      </trkpt>
      <trkpt lat="46.38777" lon="4.6227">
        <ele>287</ele>
        <time>2015-07-06T12:08:01Z</time>
      </trkpt>
      <trkpt lat="46.38776" lon="4.62277">
        <ele>288</ele>
        <time>2015-07-06T12:08:07Z</time>
      </trkpt>
      <trkpt lat="46.38778" lon="4.62283">
        <ele>288</ele>
        <time>2015-07-06T12:08:12Z</time>
      </trkpt>
      <trkpt lat="46.3879" lon="4.62294">
        <ele>288</ele>
        <time>2015-07-06T12:08:21Z</time>
      </trkpt>
      <trkpt lat="46.38794" lon="4.62315">
        <ele>289</ele>
        <time>2015-07-06T12:08:33Z</time>
      </trkpt>
      <trkpt lat="46.38798" lon="4.62318">
        <ele>289</ele>
        <time>2015-07-06T12:08:37Z</time>
      </trkpt>
      <trkpt lat="46.388" lon="4.62326">
        <ele>289</ele>
        <time>2015-07-06T12:08:42Z</time>
      </trkpt>
      <trkpt lat="46.38808" lon="4.62338">
        <ele>290</ele>
        <time>2015-07-06T12:08:50Z</time>
      </trkpt>
      <trkpt lat="46.38808" lon="4.62346">
        <ele>290</ele>
        <time>2015-07-06T12:08:58Z</time>
      </trkpt>
      <trkpt lat="46.38813" lon="4.62346">
        <ele>290</ele>
        <time>2015-07-06T12:09:06Z</time>
      </trkpt>
      <trkpt lat="46.38813" lon="4.62351">
        <ele>290</ele>
        <time>2015-07-06T12:09:08Z</time>
      </trkpt>
      <trkpt lat="46.38819" lon="4.62375">
        <ele>291</ele>
        <time>2015-07-06T12:09:18Z</time>
      </trkpt>
      <trkpt lat="46.38841" lon="4.62413">
        <ele>292</ele>
        <time>2015-07-06T12:09:44Z</time>
      </trkpt>
      <trkpt lat="46.38848" lon="4.62419">
        <ele>293</ele>
        <time>2015-07-06T12:09:50Z</time>
      </trkpt>
      <trkpt lat="46.38853" lon="4.62419">
        <ele>293</ele>
        <time>2015-07-06T12:09:54Z</time>
      </trkpt>
      <trkpt lat="46.38857" lon="4.62422">
        <ele>293</ele>
        <time>2015-07-06T12:09:58Z</time>
      </trkpt>
      <trkpt lat="46.38859" lon="4.62428">
        <ele>293</ele>
        <time>2015-07-06T12:10:02Z</time>
      </trkpt>
      <trkpt lat="46.38861" lon="4.62435">
        <ele>294</ele>
        <time>2015-07-06T12:10:07Z</time>
      </trkpt>
      <trkpt lat="46.38859" lon="4.62441">
        <ele>294</ele>
        <time>2015-07-06T12:10:10Z</time>
      </trkpt>
      <trkpt lat="46.38867" lon="4.62463">
        <ele>294</ele>
        <time>2015-07-06T12:10:21Z</time>
      </trkpt>
      <trkpt lat="46.38866" lon="4.62471">
        <ele>294</ele>
        <time>2015-07-06T12:10:24Z</time>
      </trkpt>
      <trkpt lat="46.38869" lon="4.62481">
        <ele>295</ele>
        <time>2015-07-06T12:10:29Z</time>
      </trkpt>
      <trkpt lat="46.38869" lon="4.62488">
        <ele>295</ele>
        <time>2015-07-06T12:10:33Z</time>
      </trkpt>
      <trkpt lat="46.38877" lon="4.62497">
        <ele>295</ele>
        <time>2015-07-06T12:10:40Z</time>
      </trkpt>
      <trkpt lat="46.38885" lon="4.625">
        <ele>296</ele>
        <time>2015-07-06T12:10:45Z</time>
      </trkpt>
      <trkpt lat="46.38895" lon="4.62513">
        <ele>296</ele>
        <time>2015-07-06T12:10:58Z</time>
      </trkpt>
      <trkpt lat="46.38898" lon="4.62538">
        <ele>297</ele>
        <time>2015-07-06T12:11:08Z</time>
      </trkpt>
      <trkpt lat="46.3891" lon="4.62572">
        <ele>298</ele>
        <time>2015-07-06T12:11:27Z</time>
      </trkpt>
      <trkpt lat="46.38907" lon="4.62577">
        <ele>298</ele>
        <time>2015-07-06T12:11:32Z</time>
      </trkpt>
      <trkpt lat="46.38905" lon="4.62602">
        <ele>300</ele>
        <time>2015-07-06T12:11:58Z</time>
      </trkpt>
      <trkpt lat="46.38907" lon="4.62612">
        <ele>300</ele>
        <time>2015-07-06T12:12:02Z</time>
      </trkpt>
      <trkpt lat="46.38904" lon="4.62617">
        <ele>301</ele>
        <time>2015-07-06T12:12:06Z</time>
      </trkpt>
      <trkpt lat="46.38902" lon="4.6263">
        <ele>302</ele>
        <time>2015-07-06T12:12:16Z</time>
      </trkpt>
      <trkpt lat="46.38896" lon="4.62637">
        <ele>302</ele>
        <time>2015-07-06T12:12:19Z</time>
      </trkpt>
      <trkpt lat="46.38896" lon="4.62647">
        <ele>304</ele>
        <time>2015-07-06T12:12:27Z</time>
      </trkpt>
      <trkpt lat="46.38893" lon="4.62653">
        <ele>304</ele>
        <time>2015-07-06T12:12:32Z</time>
      </trkpt>
      <trkpt lat="46.3889" lon="4.62667">
        <ele>306</ele>
        <time>2015-07-06T12:12:40Z</time>
      </trkpt>
      <trkpt lat="46.38885" lon="4.6267">
        <ele>306</ele>
        <time>2015-07-06T12:12:45Z</time>
      </trkpt>
      <trkpt lat="46.38878" lon="4.62671">
        <ele>306</ele>
        <time>2015-07-06T12:12:48Z</time>
      </trkpt>
      <trkpt lat="46.38876" lon="4.62677">
        <ele>307</ele>
        <time>2015-07-06T12:12:53Z</time>
      </trkpt>
      <trkpt lat="46.38878" lon="4.62685">
        <ele>308</ele>
        <time>2015-07-06T12:12:57Z</time>
      </trkpt>
      <trkpt lat="46.38886" lon="4.62695">
        <ele>309</ele>
        <time>2015-07-06T12:13:04Z</time>
      </trkpt>
      <trkpt lat="46.3889" lon="4.62708">
        <ele>310</ele>
        <time>2015-07-06T12:13:10Z</time>
      </trkpt>
      <trkpt lat="46.38889" lon="4.62723">
        <ele>310</ele>
        <time>2015-07-06T12:13:18Z</time>
      </trkpt>
      <trkpt lat="46.38886" lon="4.6273">
        <ele>310</ele>
        <time>2015-07-06T12:13:25Z</time>
      </trkpt>
      <trkpt lat="46.38886" lon="4.62737">
        <ele>311</ele>
        <time>2015-07-06T12:13:30Z</time>
      </trkpt>
      <trkpt lat="46.38889" lon="4.62745">
        <ele>311</ele>
        <time>2015-07-06T12:13:35Z</time>
      </trkpt>
      <trkpt lat="46.38889" lon="4.62752">
        <ele>311</ele>
        <time>2015-07-06T12:13:39Z</time>
      </trkpt>
      <trkpt lat="46.38882" lon="4.6279">
        <ele>312</ele>
        <time>2015-07-06T12:14:00Z</time>
      </trkpt>
      <trkpt lat="46.38883" lon="4.62828">
        <ele>310</ele>
        <time>2015-07-06T12:14:20Z</time>
      </trkpt>
      <trkpt lat="46.38875" lon="4.62838">
        <ele>310</ele>
        <time>2015-07-06T12:14:31Z</time>
      </trkpt>
      <trkpt lat="46.38865" lon="4.62868">
        <ele>312</ele>
        <time>2015-07-06T12:14:50Z</time>
      </trkpt>
      <trkpt lat="46.38861" lon="4.62873">
        <ele>312</ele>
        <time>2015-07-06T12:14:55Z</time>
      </trkpt>
      <trkpt lat="46.38857" lon="4.62878">
        <ele>312</ele>
        <time>2015-07-06T12:14:58Z</time>
      </trkpt>
      <trkpt lat="46.38853" lon="4.62881">
        <ele>313</ele>
        <time>2015-07-06T12:15:04Z</time>
      </trkpt>
      <trkpt lat="46.38839" lon="4.62875">
        <ele>314</ele>
        <time>2015-07-06T12:15:19Z</time>
      </trkpt>
      <trkpt lat="46.38834" lon="4.62871">
        <ele>315</ele>
        <time>2015-07-06T12:15:26Z</time>
      </trkpt>
      <trkpt lat="46.38833" lon="4.62865">
        <ele>316</ele>
        <time>2015-07-06T12:15:34Z</time>
      </trkpt>
      <trkpt lat="46.38829" lon="4.62869">
        <ele>316</ele>
        <time>2015-07-06T12:15:40Z</time>
      </trkpt>
      <trkpt lat="46.38825" lon="4.62864">
        <ele>317</ele>
        <time>2015-07-06T12:15:48Z</time>
      </trkpt>
      <trkpt lat="46.38819" lon="4.62852">
        <ele>318</ele>
        <time>2015-07-06T12:15:56Z</time>
      </trkpt>
      <trkpt lat="46.38815" lon="4.62851">
        <ele>318</ele>
        <time>2015-07-06T12:15:59Z</time>
      </trkpt>
      <trkpt lat="46.38806" lon="4.62846">
        <ele>320</ele>
        <time>2015-07-06T12:16:11Z</time>
      </trkpt>
      <trkpt lat="46.38801" lon="4.62833">
        <ele>321</ele>
        <time>2015-07-06T12:16:21Z</time>
      </trkpt>
      <trkpt lat="46.38791" lon="4.62835">
        <ele>322</ele>
        <time>2015-07-06T12:16:26Z</time>
      </trkpt>
      <trkpt lat="46.38784" lon="4.62832">
        <ele>323</ele>
        <time>2015-07-06T12:16:30Z</time>
      </trkpt>
      <trkpt lat="46.38772" lon="4.62801">
        <ele>326</ele>
        <time>2015-07-06T12:16:55Z</time>
      </trkpt>
      <trkpt lat="46.38763" lon="4.62793">
        <ele>327</ele>
        <time>2015-07-06T12:17:02Z</time>
      </trkpt>
      <trkpt lat="46.38761" lon="4.6279">
        <ele>327</ele>
        <time>2015-07-06T12:17:15Z</time>
      </trkpt>
      <trkpt lat="46.3876" lon="4.62786">
        <ele>328</ele>
        <time>2015-07-06T12:17:26Z</time>
      </trkpt>
      <trkpt lat="46.38758" lon="4.62785">
        <ele>328</ele>
        <time>2015-07-06T12:17:27Z</time>
      </trkpt>
      <trkpt lat="46.38753" lon="4.62784">
        <ele>328</ele>
        <time>2015-07-06T12:17:33Z</time>
      </trkpt>
      <trkpt lat="46.38753" lon="4.62776">
        <ele>328</ele>
        <time>2015-07-06T12:17:41Z</time>
      </trkpt>
      <trkpt lat="46.3875" lon="4.62769">
        <ele>328</ele>
        <time>2015-07-06T12:17:46Z</time>
      </trkpt>
      <trkpt lat="46.3875" lon="4.62747">
        <ele>330</ele>
        <time>2015-07-06T12:18:01Z</time>
      </trkpt>
      <trkpt lat="46.38748" lon="4.62741">
        <ele>331</ele>
        <time>2015-07-06T12:18:07Z</time>
      </trkpt>
      <trkpt lat="46.38722" lon="4.62703">
        <ele>337</ele>
        <time>2015-07-06T12:18:44Z</time>
      </trkpt>
      <trkpt lat="46.38686" lon="4.62684">
        <ele>341</ele>
        <time>2015-07-06T12:19:16Z</time>
      </trkpt>
      <trkpt lat="46.38634" lon="4.62641">
        <ele>346</ele>
        <time>2015-07-06T12:20:12Z</time>
      </trkpt>
      <trkpt lat="46.38626" lon="4.6263">
        <ele>347</ele>
        <time>2015-07-06T12:20:21Z</time>
      </trkpt>
      <trkpt lat="46.38622" lon="4.62618">
        <ele>347</ele>
        <time>2015-07-06T12:20:30Z</time>
      </trkpt>
      <trkpt lat="46.38579" lon="4.62586">
        <ele>350</ele>
        <time>2015-07-06T12:21:10Z</time>
      </trkpt>
      <trkpt lat="46.38573" lon="4.62577">
        <ele>351</ele>
        <time>2015-07-06T12:21:20Z</time>
      </trkpt>
      <trkpt lat="46.38539" lon="4.62551">
        <ele>353</ele>
        <time>2015-07-06T12:21:55Z</time>
      </trkpt>
      <trkpt lat="46.38491" lon="4.62554">
        <ele>355</ele>
        <time>2015-07-06T12:22:33Z</time>
      </trkpt>
      <trkpt lat="46.38453" lon="4.62551">
        <ele>357</ele>
        <time>2015-07-06T12:23:04Z</time>
      </trkpt>
      <trkpt lat="46.3843" lon="4.62547">
        <ele>358</ele>
        <time>2015-07-06T12:23:38Z</time>
      </trkpt>
      <trkpt lat="46.38421" lon="4.62549">
        <ele>359</ele>
        <time>2015-07-06T12:23:53Z</time>
      </trkpt>
      <trkpt lat="46.38386" lon="4.62565">
        <ele>360</ele>
        <time>2015-07-06T12:24:27Z</time>
      </trkpt>
      <trkpt lat="46.38346" lon="4.62557">
        <ele>361</ele>
        <time>2015-07-06T12:24:57Z</time>
      </trkpt>
      <trkpt lat="46.38342" lon="4.62553">
        <ele>361</ele>
        <time>2015-07-06T12:25:01Z</time>
      </trkpt>
      <trkpt lat="46.38337" lon="4.62556">
        <ele>361</ele>
        <time>2015-07-06T12:25:04Z</time>
      </trkpt>
      <trkpt lat="46.38333" lon="4.6256">
        <ele>362</ele>
        <time>2015-07-06T12:25:09Z</time>
      </trkpt>
      <trkpt lat="46.38328" lon="4.62557">
        <ele>362</ele>
        <time>2015-07-06T12:25:12Z</time>
      </trkpt>
      <trkpt lat="46.38323" lon="4.6255">
        <ele>362</ele>
        <time>2015-07-06T12:25:19Z</time>
      </trkpt>
      <trkpt lat="46.38318" lon="4.62551">
        <ele>363</ele>
        <time>2015-07-06T12:25:23Z</time>
      </trkpt>
      <trkpt lat="46.38312" lon="4.62551">
        <ele>364</ele>
        <time>2015-07-06T12:25:30Z</time>
      </trkpt>
      <trkpt lat="46.38275" lon="4.62546">
        <ele>365</ele>
        <time>2015-07-06T12:26:07Z</time>
      </trkpt>
      <trkpt lat="46.38254" lon="4.62539">
        <ele>366</ele>
        <time>2015-07-06T12:26:22Z</time>
      </trkpt>
      <trkpt lat="46.38247" lon="4.6253">
        <ele>368</ele>
        <time>2015-07-06T12:26:33Z</time>
      </trkpt>
      <trkpt lat="46.38239" lon="4.62525">
        <ele>368</ele>
        <time>2015-07-06T12:26:40Z</time>
      </trkpt>
      <trkpt lat="46.38195" lon="4.62503">
        <ele>374</ele>
        <time>2015-07-06T12:27:28Z</time>
      </trkpt>
      <trkpt lat="46.38151" lon="4.62472">
        <ele>378</ele>
        <time>2015-07-06T12:28:05Z</time>
      </trkpt>
      <trkpt lat="46.38131" lon="4.62447">
        <ele>380</ele>
        <time>2015-07-06T12:28:38Z</time>
      </trkpt>
      <trkpt lat="46.38127" lon="4.62445">
        <ele>381</ele>
        <time>2015-07-06T12:28:42Z</time>
      </trkpt>
      <trkpt lat="46.38099" lon="4.6243">
        <ele>383</ele>
        <time>2015-07-06T12:29:17Z</time>
      </trkpt>
      <trkpt lat="46.38094" lon="4.62429">
        <ele>383</ele>
        <time>2015-07-06T12:29:21Z</time>
      </trkpt>
      <trkpt lat="46.38089" lon="4.62431">
        <ele>384</ele>
        <time>2015-07-06T12:29:25Z</time>
      </trkpt>
      <trkpt lat="46.38067" lon="4.62417">
        <ele>387</ele>
        <time>2015-07-06T12:29:51Z</time>
      </trkpt>
      <trkpt lat="46.38062" lon="4.62411">
        <ele>389</ele>
        <time>2015-07-06T12:30:07Z</time>
      </trkpt>
      <trkpt lat="46.38053" lon="4.62405">
        <ele>389</ele>
        <time>2015-07-06T12:30:28Z</time>
      </trkpt>
      <trkpt lat="46.38016" lon="4.62392">
        <ele>393</ele>
        <time>2015-07-06T12:30:58Z</time>
      </trkpt>
      <trkpt lat="46.38007" lon="4.62391">
        <ele>395</ele>
        <time>2015-07-06T12:31:11Z</time>
      </trkpt>
      <trkpt lat="46.37979" lon="4.62378">
        <ele>397</ele>
        <time>2015-07-06T12:31:39Z</time>
      </trkpt>
      <trkpt lat="46.37973" lon="4.62368">
        <ele>399</ele>
        <time>2015-07-06T12:31:53Z</time>
      </trkpt>
      <trkpt lat="46.37964" lon="4.62362">
        <ele>399</ele>
        <time>2015-07-06T12:32:02Z</time>
      </trkpt>
      <trkpt lat="46.37959" lon="4.62351">
        <ele>400</ele>
        <time>2015-07-06T12:32:14Z</time>
      </trkpt>
      <trkpt lat="46.3795" lon="4.62343">
        <ele>400</ele>
        <time>2015-07-06T12:32:21Z</time>
      </trkpt>
      <trkpt lat="46.37918" lon="4.6231">
        <ele>404</ele>
        <time>2015-07-06T12:32:55Z</time>
      </trkpt>
      <trkpt lat="46.37912" lon="4.623">
        <ele>405</ele>
        <time>2015-07-06T12:33:06Z</time>
      </trkpt>
      <trkpt lat="46.37911" lon="4.62293">
        <ele>406</ele>
        <time>2015-07-06T12:33:19Z</time>
      </trkpt>
      <trkpt lat="46.37915" lon="4.62251">
        <ele>407</ele>
        <time>2015-07-06T12:33:48Z</time>
      </trkpt>
      <trkpt lat="46.37934" lon="4.62215">
        <ele>407</ele>
        <time>2015-07-06T12:34:15Z</time>
      </trkpt>
      <trkpt lat="46.37938" lon="4.62211">
        <ele>407</ele>
        <time>2015-07-06T12:34:20Z</time>
      </trkpt>
      <trkpt lat="46.3794" lon="4.62203">
        <ele>407</ele>
        <time>2015-07-06T12:34:24Z</time>
      </trkpt>
      <trkpt lat="46.37941" lon="4.62188">
        <ele>407</ele>
        <time>2015-07-06T12:34:32Z</time>
      </trkpt>
      <trkpt lat="46.37939" lon="4.62182">
        <ele>407</ele>
        <time>2015-07-06T12:34:39Z</time>
      </trkpt>
      <trkpt lat="46.37944" lon="4.62169">
        <ele>407</ele>
        <time>2015-07-06T12:34:49Z</time>
      </trkpt>
      <trkpt lat="46.37942" lon="4.62157">
        <ele>407</ele>
        <time>2015-07-06T12:34:54Z</time>
      </trkpt>
      <trkpt lat="46.37945" lon="4.6215">
        <ele>407</ele>
        <time>2015-07-06T12:34:58Z</time>
      </trkpt>
      <trkpt lat="46.37945" lon="4.62144">
        <ele>407</ele>
        <time>2015-07-06T12:35:02Z</time>
      </trkpt>
      <trkpt lat="46.37934" lon="4.62112">
        <ele>407</ele>
        <time>2015-07-06T12:35:23Z</time>
      </trkpt>
      <trkpt lat="46.3791" lon="4.62084">
        <ele>407</ele>
        <time>2015-07-06T12:35:43Z</time>
      </trkpt>
      <trkpt lat="46.37888" lon="4.62023">
        <ele>408</ele>
        <time>2015-07-06T12:36:29Z</time>
      </trkpt>
      <trkpt lat="46.37887" lon="4.62008">
        <ele>408</ele>
        <time>2015-07-06T12:36:39Z</time>
      </trkpt>
      <trkpt lat="46.37877" lon="4.62001">
        <ele>409</ele>
        <time>2015-07-06T12:36:44Z</time>
      </trkpt>
      <trkpt lat="46.37827" lon="4.6193">
        <ele>415</ele>
        <time>2015-07-06T12:37:53Z</time>
      </trkpt>
      <trkpt lat="46.37776" lon="4.61806">
        <ele>424</ele>
        <time>2015-07-06T12:39:47Z</time>
      </trkpt>
      <trkpt lat="46.37761" lon="4.61755">
        <ele>428</ele>
        <time>2015-07-06T12:40:25Z</time>
      </trkpt>
      <trkpt lat="46.37747" lon="4.61719">
        <ele>432</ele>
        <time>2015-07-06T12:40:57Z</time>
      </trkpt>
      <trkpt lat="46.37721" lon="4.61677">
        <ele>433</ele>
        <time>2015-07-06T12:41:27Z</time>
      </trkpt>
      <trkpt lat="46.37684" lon="4.61633">
        <ele>436</ele>
        <time>2015-07-06T12:42:03Z</time>
      </trkpt>
      <trkpt lat="46.3764" lon="4.61611">
        <ele>436</ele>
        <time>2015-07-06T12:42:43Z</time>
      </trkpt>
      <trkpt lat="46.3763" lon="4.6161">
        <ele>437</ele>
        <time>2015-07-06T12:42:55Z</time>
      </trkpt>
      <trkpt lat="46.37601" lon="4.61616">
        <ele>439</ele>
        <time>2015-07-06T12:43:28Z</time>
      </trkpt>
      <trkpt lat="46.37554" lon="4.61606">
        <ele>440</ele>
        <time>2015-07-06T12:44:01Z</time>
      </trkpt>
      <trkpt lat="46.37521" lon="4.61606">
        <ele>441</ele>
        <time>2015-07-06T12:44:34Z</time>
      </trkpt>
      <trkpt lat="46.37512" lon="4.61605">
        <ele>442</ele>
        <time>2015-07-06T12:44:43Z</time>
      </trkpt>
      <trkpt lat="46.37503" lon="4.6161">
        <ele>442</ele>
        <time>2015-07-06T12:44:51Z</time>
      </trkpt>
      <trkpt lat="46.37494" lon="4.61608">
        <ele>442</ele>
        <time>2015-07-06T12:44:58Z</time>
      </trkpt>
      <trkpt lat="46.37485" lon="4.61603">
        <ele>442</ele>
        <time>2015-07-06T12:45:07Z</time>
      </trkpt>
      <trkpt lat="46.37476" lon="4.61606">
        <ele>442</ele>
        <time>2015-07-06T12:45:15Z</time>
      </trkpt>
      <trkpt lat="46.37422" lon="4.61592">
        <ele>442</ele>
        <time>2015-07-06T12:46:21Z</time>
      </trkpt>
      <trkpt lat="46.37382" lon="4.61586">
        <ele>443</ele>
        <time>2015-07-06T12:47:02Z</time>
      </trkpt>
      <trkpt lat="46.37345" lon="4.61576">
        <ele>443</ele>
        <time>2015-07-06T12:47:37Z</time>
      </trkpt>
      <trkpt lat="46.37298" lon="4.61574">
        <ele>443</ele>
        <time>2015-07-06T12:48:19Z</time>
      </trkpt>
      <trkpt lat="46.37259" lon="4.61561">
        <ele>444</ele>
        <time>2015-07-06T12:48:53Z</time>
      </trkpt>
      <trkpt lat="46.37224" lon="4.6154">
        <ele>446</ele>
        <time>2015-07-06T12:49:26Z</time>
      </trkpt>
      <trkpt lat="46.37186" lon="4.61537">
        <ele>450</ele>
        <time>2015-07-06T12:50:03Z</time>
      </trkpt>
      <trkpt lat="46.37176" lon="4.61533">
        <ele>451</ele>
        <time>2015-07-06T12:50:34Z</time>
      </trkpt>
      <trkpt lat="46.37179" lon="4.61533">
        <ele>451</ele>
        <time>2015-07-06T12:51:24Z</time>
      </trkpt>
      <trkpt lat="46.3718" lon="4.61539">
        <ele>451</ele>
        <time>2015-07-06T12:53:02Z</time>
      </trkpt>
      <trkpt lat="46.37178" lon="4.61541">
        <ele>469</ele>
        <time>2015-07-06T13:12:23Z</time>
      </trkpt>
      <trkpt lat="46.37173" lon="4.61546">
        <ele>472</ele>
        <time>2015-07-06T13:12:55Z</time>
      </trkpt>
      <trkpt lat="46.37176" lon="4.61543">
        <ele>473</ele>
        <time>2015-07-06T13:13:46Z</time>
      </trkpt>
      <trkpt lat="46.37176" lon="4.61539">
        <ele>473</ele>
        <time>2015-07-06T13:14:27Z</time>
      </trkpt>
      <trkpt lat="46.37182" lon="4.61545">
        <ele>474</ele>
        <time>2015-07-06T13:15:23Z</time>
      </trkpt>
      <trkpt lat="46.37182" lon="4.61537">
        <ele>473</ele>
        <time>2015-07-06T13:15:58Z</time>
      </trkpt>
      <trkpt lat="46.37179" lon="4.61539">
        <ele>473</ele>
        <time>2015-07-06T13:16:21Z</time>
      </trkpt>
      <trkpt lat="46.37176" lon="4.6154">
        <ele>472</ele>
        <time>2015-07-06T13:17:05Z</time>
      </trkpt>
      <trkpt lat="46.37164" lon="4.61535">
        <ele>471</ele>
        <time>2015-07-06T13:17:30Z</time>
      </trkpt>
      <trkpt lat="46.37161" lon="4.61531">
        <ele>471</ele>
        <time>2015-07-06T13:17:40Z</time>
      </trkpt>
      <trkpt lat="46.37141" lon="4.6152">
        <ele>468</ele>
        <time>2015-07-06T13:17:57Z</time>
      </trkpt>
      <trkpt lat="46.37138" lon="4.61513">
        <ele>468</ele>
        <time>2015-07-06T13:18:12Z</time>
      </trkpt>
      <trkpt lat="46.3713" lon="4.61507">
        <ele>468</ele>
        <time>2015-07-06T13:18:22Z</time>
      </trkpt>
      <trkpt lat="46.37112" lon="4.61502">
        <ele>468</ele>
        <time>2015-07-06T13:18:36Z</time>
      </trkpt>
      <trkpt lat="46.37096" lon="4.61487">
        <ele>468</ele>
        <time>2015-07-06T13:18:52Z</time>
      </trkpt>
      <trkpt lat="46.37078" lon="4.61453">
        <ele>468</ele>
        <time>2015-07-06T13:19:26Z</time>
      </trkpt>
      <trkpt lat="46.37055" lon="4.61427">
        <ele>469</ele>
        <time>2015-07-06T13:19:47Z</time>
      </trkpt>
      <trkpt lat="46.37045" lon="4.61428">
        <ele>468</ele>
        <time>2015-07-06T13:19:58Z</time>
      </trkpt>
      <trkpt lat="46.3701" lon="4.61406">
        <ele>465</ele>
        <time>2015-07-06T13:20:31Z</time>
      </trkpt>
      <trkpt lat="46.36999" lon="4.61398">
        <ele>464</ele>
        <time>2015-07-06T13:20:45Z</time>
      </trkpt>
      <trkpt lat="46.3697" lon="4.6136">
        <ele>463</ele>
        <time>2015-07-06T13:21:15Z</time>
      </trkpt>
      <trkpt lat="46.36958" lon="4.6134">
        <ele>463</ele>
        <time>2015-07-06T13:21:32Z</time>
      </trkpt>
      <trkpt lat="46.36939" lon="4.61328">
        <ele>461</ele>
        <time>2015-07-06T13:22:02Z</time>
      </trkpt>
      <trkpt lat="46.36911" lon="4.61292">
        <ele>457</ele>
        <time>2015-07-06T13:22:38Z</time>
      </trkpt>
      <trkpt lat="46.36892" lon="4.61259">
        <ele>454</ele>
        <time>2015-07-06T13:23:02Z</time>
      </trkpt>
      <trkpt lat="46.36862" lon="4.61228">
        <ele>455</ele>
        <time>2015-07-06T13:23:33Z</time>
      </trkpt>
      <trkpt lat="46.36842" lon="4.6118">
        <ele>456</ele>
        <time>2015-07-06T13:24:05Z</time>
      </trkpt>
      <trkpt lat="46.36741" lon="4.61031">
        <ele>462</ele>
        <time>2015-07-06T13:26:20Z</time>
      </trkpt>
      <trkpt lat="46.36734" lon="4.6103">
        <ele>463</ele>
        <time>2015-07-06T13:26:32Z</time>
      </trkpt>
      <trkpt lat="46.3672" lon="4.6101">
        <ele>463</ele>
        <time>2015-07-06T13:26:50Z</time>
      </trkpt>
      <trkpt lat="46.36718" lon="4.61004">
        <ele>463</ele>
        <time>2015-07-06T13:26:54Z</time>
      </trkpt>
      <trkpt lat="46.36717" lon="4.60997">
        <ele>464</ele>
        <time>2015-07-06T13:26:59Z</time>
      </trkpt>
      <trkpt lat="46.36706" lon="4.60984">
        <ele>464</ele>
        <time>2015-07-06T13:27:06Z</time>
      </trkpt>
      <trkpt lat="46.36703" lon="4.60981">
        <ele>465</ele>
        <time>2015-07-06T13:27:15Z</time>
      </trkpt>
      <trkpt lat="46.36698" lon="4.60979">
        <ele>463</ele>
        <time>2015-07-06T13:27:59Z</time>
      </trkpt>
      <trkpt lat="46.36695" lon="4.60976">
        <ele>463</ele>
        <time>2015-07-06T13:28:01Z</time>
      </trkpt>
      <trkpt lat="46.36684" lon="4.6097">
        <ele>463</ele>
        <time>2015-07-06T13:28:29Z</time>
      </trkpt>
      <trkpt lat="46.36677" lon="4.60961">
        <ele>464</ele>
        <time>2015-07-06T13:28:37Z</time>
      </trkpt>
      <trkpt lat="46.36672" lon="4.60962">
        <ele>465</ele>
        <time>2015-07-06T13:28:41Z</time>
      </trkpt>
      <trkpt lat="46.36669" lon="4.60953">
        <ele>466</ele>
        <time>2015-07-06T13:29:02Z</time>
      </trkpt>
      <trkpt lat="46.36634" lon="4.60926">
        <ele>472</ele>
        <time>2015-07-06T13:29:34Z</time>
      </trkpt>
      <trkpt lat="46.36633" lon="4.6092">
        <ele>472</ele>
        <time>2015-07-06T13:29:40Z</time>
      </trkpt>
      <trkpt lat="46.36629" lon="4.60914">
        <ele>473</ele>
        <time>2015-07-06T13:29:46Z</time>
      </trkpt>
      <trkpt lat="46.36618" lon="4.60911">
        <ele>475</ele>
        <time>2015-07-06T13:29:56Z</time>
      </trkpt>
      <trkpt lat="46.36616" lon="4.60906">
        <ele>476</ele>
        <time>2015-07-06T13:30:01Z</time>
      </trkpt>
      <trkpt lat="46.36612" lon="4.60903">
        <ele>477</ele>
        <time>2015-07-06T13:30:06Z</time>
      </trkpt>
      <trkpt lat="46.366" lon="4.60888">
        <ele>478</ele>
        <time>2015-07-06T13:30:18Z</time>
      </trkpt>
      <trkpt lat="46.36558" lon="4.60807">
        <ele>484</ele>
        <time>2015-07-06T13:31:14Z</time>
      </trkpt>
      <trkpt lat="46.3655" lon="4.60799">
        <ele>484</ele>
        <time>2015-07-06T13:31:20Z</time>
      </trkpt>
      <trkpt lat="46.36529" lon="4.60754">
        <ele>487</ele>
        <time>2015-07-06T13:31:52Z</time>
      </trkpt>
      <trkpt lat="46.36529" lon="4.6074">
        <ele>488</ele>
        <time>2015-07-06T13:31:59Z</time>
      </trkpt>
      <trkpt lat="46.36521" lon="4.60728">
        <ele>490</ele>
        <time>2015-07-06T13:32:10Z</time>
      </trkpt>
      <trkpt lat="46.3651" lon="4.60701">
        <ele>494</ele>
        <time>2015-07-06T13:32:41Z</time>
      </trkpt>
      <trkpt lat="46.365" lon="4.60687">
        <ele>496</ele>
        <time>2015-07-06T13:32:53Z</time>
      </trkpt>
      <trkpt lat="46.36492" lon="4.60679">
        <ele>496</ele>
        <time>2015-07-06T13:32:59Z</time>
      </trkpt>
      <trkpt lat="46.36478" lon="4.60652">
        <ele>498</ele>
        <time>2015-07-06T13:33:20Z</time>
      </trkpt>
      <trkpt lat="46.36434" lon="4.60642">
        <ele>499</ele>
        <time>2015-07-06T13:34:19Z</time>
      </trkpt>
      <trkpt lat="46.36417" lon="4.60626">
        <ele>499</ele>
        <time>2015-07-06T13:34:37Z</time>
      </trkpt>
      <trkpt lat="46.36416" lon="4.60622">
        <ele>499</ele>
        <time>2015-07-06T13:34:38Z</time>
      </trkpt>
      <trkpt lat="46.36411" lon="4.60623">
        <ele>499</ele>
        <time>2015-07-06T13:34:47Z</time>
      </trkpt>
      <trkpt lat="46.364" lon="4.60623">
        <ele>500</ele>
        <time>2015-07-06T13:34:56Z</time>
      </trkpt>
      <trkpt lat="46.36396" lon="4.6062">
        <ele>500</ele>
        <time>2015-07-06T13:34:59Z</time>
      </trkpt>
      <trkpt lat="46.36388" lon="4.60621">
        <ele>500</ele>
        <time>2015-07-06T13:35:07Z</time>
      </trkpt>
      <trkpt lat="46.36375" lon="4.60611">
        <ele>501</ele>
        <time>2015-07-06T13:35:22Z</time>
      </trkpt>
      <trkpt lat="46.36301" lon="4.60574">
        <ele>498</ele>
        <time>2015-07-06T13:36:25Z</time>
      </trkpt>
      <trkpt lat="46.36296" lon="4.60574">
        <ele>498</ele>
        <time>2015-07-06T13:36:30Z</time>
      </trkpt>
      <trkpt lat="46.36289" lon="4.6057">
        <ele>498</ele>
        <time>2015-07-06T13:36:55Z</time>
      </trkpt>
      <trkpt lat="46.36279" lon="4.60571">
        <ele>497</ele>
        <time>2015-07-06T13:37:04Z</time>
      </trkpt>
      <trkpt lat="46.36274" lon="4.6057">
        <ele>497</ele>
        <time>2015-07-06T13:37:09Z</time>
      </trkpt>
      <trkpt lat="46.36237" lon="4.60566">
        <ele>495</ele>
        <time>2015-07-06T13:37:41Z</time>
      </trkpt>
      <trkpt lat="46.36148" lon="4.60578">
        <ele>494</ele>
        <time>2015-07-06T13:38:46Z</time>
      </trkpt>
      <trkpt lat="46.36107" lon="4.60569">
        <ele>494</ele>
        <time>2015-07-06T13:39:20Z</time>
      </trkpt>
      <trkpt lat="46.36065" lon="4.60569">
        <ele>498</ele>
        <time>2015-07-06T13:39:56Z</time>
      </trkpt>
      <trkpt lat="46.36062" lon="4.60574">
        <ele>499</ele>
        <time>2015-07-06T13:40:00Z</time>
      </trkpt>
      <trkpt lat="46.36055" lon="4.60625">
        <ele>499</ele>
        <time>2015-07-06T13:40:34Z</time>
      </trkpt>
      <trkpt lat="46.36055" lon="4.60631">
        <ele>499</ele>
        <time>2015-07-06T13:40:44Z</time>
      </trkpt>
      <trkpt lat="46.36049" lon="4.60633">
        <ele>499</ele>
        <time>2015-07-06T13:41:12Z</time>
      </trkpt>
      <trkpt lat="46.36035" lon="4.60628">
        <ele>501</ele>
        <time>2015-07-06T13:41:24Z</time>
      </trkpt>
      <trkpt lat="46.36013" lon="4.6063">
        <ele>505</ele>
        <time>2015-07-06T13:42:03Z</time>
      </trkpt>
      <trkpt lat="46.35977" lon="4.60625">
        <ele>510</ele>
        <time>2015-07-06T13:42:35Z</time>
      </trkpt>
      <trkpt lat="46.35939" lon="4.60614">
        <ele>516</ele>
        <time>2015-07-06T13:43:09Z</time>
      </trkpt>
      <trkpt lat="46.35893" lon="4.60617">
        <ele>522</ele>
        <time>2015-07-06T13:43:47Z</time>
      </trkpt>
      <trkpt lat="46.35883" lon="4.6062">
        <ele>523</ele>
        <time>2015-07-06T13:43:56Z</time>
      </trkpt>
      <trkpt lat="46.35878" lon="4.60618">
        <ele>524</ele>
        <time>2015-07-06T13:44:00Z</time>
      </trkpt>
      <trkpt lat="46.35863" lon="4.60621">
        <ele>525</ele>
        <time>2015-07-06T13:44:12Z</time>
      </trkpt>
      <trkpt lat="46.35822" lon="4.60603">
        <ele>528</ele>
        <time>2015-07-06T13:44:47Z</time>
      </trkpt>
      <trkpt lat="46.35805" lon="4.60589">
        <ele>529</ele>
        <time>2015-07-06T13:45:03Z</time>
      </trkpt>
      <trkpt lat="46.35742" lon="4.60501">
        <ele>530</ele>
        <time>2015-07-06T13:46:36Z</time>
      </trkpt>
      <trkpt lat="46.35718" lon="4.60489">
        <ele>533</ele>
        <time>2015-07-06T13:47:00Z</time>
      </trkpt>
      <trkpt lat="46.35712" lon="4.60478">
        <ele>534</ele>
        <time>2015-07-06T13:47:08Z</time>
      </trkpt>
      <trkpt lat="46.3571" lon="4.60465">
        <ele>535</ele>
        <time>2015-07-06T13:47:19Z</time>
      </trkpt>
      <trkpt lat="46.35653" lon="4.60379">
        <ele>537</ele>
        <time>2015-07-06T13:48:25Z</time>
      </trkpt>
      <trkpt lat="46.35642" lon="4.60377">
        <ele>537</ele>
        <time>2015-07-06T13:48:36Z</time>
      </trkpt>
      <trkpt lat="46.35635" lon="4.60379">
        <ele>537</ele>
        <time>2015-07-06T13:48:41Z</time>
      </trkpt>
      <trkpt lat="46.35634" lon="4.60382">
        <ele>537</ele>
        <time>2015-07-06T13:48:43Z</time>
      </trkpt>
      <trkpt lat="46.35627" lon="4.6038">
        <ele>538</ele>
        <time>2015-07-06T13:48:49Z</time>
      </trkpt>
      <trkpt lat="46.3559" lon="4.60356">
        <ele>539</ele>
        <time>2015-07-06T13:49:20Z</time>
      </trkpt>
      <trkpt lat="46.35583" lon="4.60345">
        <ele>540</ele>
        <time>2015-07-06T13:49:23Z</time>
      </trkpt>
      <trkpt lat="46.35561" lon="4.60327">
        <ele>541</ele>
        <time>2015-07-06T13:49:55Z</time>
      </trkpt>
      <trkpt lat="46.35563" lon="4.60319">
        <ele>541</ele>
        <time>2015-07-06T13:50:00Z</time>
      </trkpt>
      <trkpt lat="46.35558" lon="4.60312">
        <ele>541</ele>
        <time>2015-07-06T13:50:05Z</time>
      </trkpt>
      <trkpt lat="46.3552" lon="4.60293">
        <ele>543</ele>
        <time>2015-07-06T13:50:32Z</time>
      </trkpt>
      <trkpt lat="46.35521" lon="4.60297">
        <ele>543</ele>
        <time>2015-07-06T13:50:35Z</time>
      </trkpt>
      <trkpt lat="46.35514" lon="4.60301">
        <ele>543</ele>
        <time>2015-07-06T13:50:41Z</time>
      </trkpt>
      <trkpt lat="46.35506" lon="4.60292">
        <ele>543</ele>
        <time>2015-07-06T13:50:46Z</time>
      </trkpt>
      <trkpt lat="46.355" lon="4.6029">
        <ele>544</ele>
        <time>2015-07-06T13:50:51Z</time>
      </trkpt>
      <trkpt lat="46.35493" lon="4.60293">
        <ele>545</ele>
        <time>2015-07-06T13:50:57Z</time>
      </trkpt>
      <trkpt lat="46.35487" lon="4.60292">
        <ele>545</ele>
        <time>2015-07-06T13:50:59Z</time>
      </trkpt>
      <trkpt lat="46.35462" lon="4.6028">
        <ele>548</ele>
        <time>2015-07-06T13:51:26Z</time>
      </trkpt>
      <trkpt lat="46.35457" lon="4.60282">
        <ele>548</ele>
        <time>2015-07-06T13:51:30Z</time>
      </trkpt>
      <trkpt lat="46.35415" lon="4.60279">
        <ele>552</ele>
        <time>2015-07-06T13:52:02Z</time>
      </trkpt>
      <trkpt lat="46.3541" lon="4.60278">
        <ele>552</ele>
        <time>2015-07-06T13:52:05Z</time>
      </trkpt>
      <trkpt lat="46.35405" lon="4.6028">
        <ele>553</ele>
        <time>2015-07-06T13:52:11Z</time>
      </trkpt>
      <trkpt lat="46.35371" lon="4.60279">
        <ele>556</ele>
        <time>2015-07-06T13:52:43Z</time>
      </trkpt>
      <trkpt lat="46.35367" lon="4.60282">
        <ele>556</ele>
        <time>2015-07-06T13:52:46Z</time>
      </trkpt>
      <trkpt lat="46.35362" lon="4.6028">
        <ele>556</ele>
        <time>2015-07-06T13:52:50Z</time>
      </trkpt>
      <trkpt lat="46.35357" lon="4.60283">
        <ele>557</ele>
        <time>2015-07-06T13:53:00Z</time>
      </trkpt>
      <trkpt lat="46.35354" lon="4.6029">
        <ele>557</ele>
        <time>2015-07-06T13:53:06Z</time>
      </trkpt>
      <trkpt lat="46.35353" lon="4.60283">
        <ele>557</ele>
        <time>2015-07-06T13:53:39Z</time>
      </trkpt>
      <trkpt lat="46.35351" lon="4.60279">
        <ele>559</ele>
        <time>2015-07-06T13:58:26Z</time>
      </trkpt>
      <trkpt lat="46.35349" lon="4.60272">
        <ele>559</ele>
        <time>2015-07-06T13:58:34Z</time>
      </trkpt>
      <trkpt lat="46.35346" lon="4.60265">
        <ele>561</ele>
        <time>2015-07-06T13:58:38Z</time>
      </trkpt>
      <trkpt lat="46.35327" lon="4.60252">
        <ele>560</ele>
        <time>2015-07-06T13:58:50Z</time>
      </trkpt>
      <trkpt lat="46.35323" lon="4.60247">
        <ele>560</ele>
        <time>2015-07-06T13:58:53Z</time>
      </trkpt>
      <trkpt lat="46.35318" lon="4.6024">
        <ele>560</ele>
        <time>2015-07-06T13:58:57Z</time>
      </trkpt>
      <trkpt lat="46.35281" lon="4.60201">
        <ele>552</ele>
        <time>2015-07-06T13:59:31Z</time>
      </trkpt>
      <trkpt lat="46.35278" lon="4.60195">
        <ele>553</ele>
        <time>2015-07-06T13:59:35Z</time>
      </trkpt>
      <trkpt lat="46.35266" lon="4.60181">
        <ele>555</ele>
        <time>2015-07-06T13:59:50Z</time>
      </trkpt>
      <trkpt lat="46.35263" lon="4.60175">
        <ele>554</ele>
        <time>2015-07-06T13:59:54Z</time>
      </trkpt>
      <trkpt lat="46.35261" lon="4.60168">
        <ele>554</ele>
        <time>2015-07-06T13:59:58Z</time>
      </trkpt>
      <trkpt lat="46.35253" lon="4.60159">
        <ele>554</ele>
        <time>2015-07-06T14:00:05Z</time>
      </trkpt>
      <trkpt lat="46.35244" lon="4.60152">
        <ele>554</ele>
        <time>2015-07-06T14:00:13Z</time>
      </trkpt>
      <trkpt lat="46.35239" lon="4.60149">
        <ele>553</ele>
        <time>2015-07-06T14:00:17Z</time>
      </trkpt>
      <trkpt lat="46.35234" lon="4.6015">
        <ele>555</ele>
        <time>2015-07-06T14:00:28Z</time>
      </trkpt>
      <trkpt lat="46.35228" lon="4.60152">
        <ele>554</ele>
        <time>2015-07-06T14:00:32Z</time>
      </trkpt>
      <trkpt lat="46.35223" lon="4.60156">
        <ele>555</ele>
        <time>2015-07-06T14:00:36Z</time>
      </trkpt>
      <trkpt lat="46.35214" lon="4.60161">
        <ele>560</ele>
        <time>2015-07-06T14:00:44Z</time>
      </trkpt>
      <trkpt lat="46.35198" lon="4.60164">
        <ele>556</ele>
        <time>2015-07-06T14:00:57Z</time>
      </trkpt>
      <trkpt lat="46.35194" lon="4.60167">
        <ele>557</ele>
        <time>2015-07-06T14:01:00Z</time>
      </trkpt>
      <trkpt lat="46.35188" lon="4.60169">
        <ele>558</ele>
        <time>2015-07-06T14:01:04Z</time>
      </trkpt>
      <trkpt lat="46.35184" lon="4.60164">
        <ele>558</ele>
        <time>2015-07-06T14:01:09Z</time>
      </trkpt>
      <trkpt lat="46.35179" lon="4.60166">
        <ele>558</ele>
        <time>2015-07-06T14:01:13Z</time>
      </trkpt>
      <trkpt lat="46.35177" lon="4.60169">
        <ele>559</ele>
        <time>2015-07-06T14:01:15Z</time>
      </trkpt>
      <trkpt lat="46.35168" lon="4.60173">
        <ele>559</ele>
        <time>2015-07-06T14:01:24Z</time>
      </trkpt>
      <trkpt lat="46.35163" lon="4.60174">
        <ele>559</ele>
        <time>2015-07-06T14:01:28Z</time>
      </trkpt>
      <trkpt lat="46.35147" lon="4.60175">
        <ele>559</ele>
        <time>2015-07-06T14:01:39Z</time>
      </trkpt>
      <trkpt lat="46.35141" lon="4.60171">
        <ele>558</ele>
        <time>2015-07-06T14:01:43Z</time>
      </trkpt>
      <trkpt lat="46.35132" lon="4.60166">
        <ele>560</ele>
        <time>2015-07-06T14:01:51Z</time>
      </trkpt>
      <trkpt lat="46.35125" lon="4.60169">
        <ele>565</ele>
        <time>2015-07-06T14:01:57Z</time>
      </trkpt>
      <trkpt lat="46.35112" lon="4.60155">
        <ele>564</ele>
        <time>2015-07-06T14:02:25Z</time>
      </trkpt>
      <trkpt lat="46.35107" lon="4.60152">
        <ele>564</ele>
        <time>2015-07-06T14:02:29Z</time>
      </trkpt>
      <trkpt lat="46.35063" lon="4.60139">
        <ele>571</ele>
        <time>2015-07-06T14:03:03Z</time>
      </trkpt>
      <trkpt lat="46.35059" lon="4.60135">
        <ele>571</ele>
        <time>2015-07-06T14:03:10Z</time>
      </trkpt>
      <trkpt lat="46.35056" lon="4.60127">
        <ele>572</ele>
        <time>2015-07-06T14:03:16Z</time>
      </trkpt>
      <trkpt lat="46.35014" lon="4.60104">
        <ele>584</ele>
        <time>2015-07-06T14:03:52Z</time>
      </trkpt>
      <trkpt lat="46.34998" lon="4.6009">
        <ele>581</ele>
        <time>2015-07-06T14:04:13Z</time>
      </trkpt>
      <trkpt lat="46.34995" lon="4.60084">
        <ele>580</ele>
        <time>2015-07-06T14:04:17Z</time>
      </trkpt>
      <trkpt lat="46.34987" lon="4.60073">
        <ele>581</ele>
        <time>2015-07-06T14:04:26Z</time>
      </trkpt>
      <trkpt lat="46.34979" lon="4.60067">
        <ele>581</ele>
        <time>2015-07-06T14:04:33Z</time>
      </trkpt>
      <trkpt lat="46.34968" lon="4.60062">
        <ele>580</ele>
        <time>2015-07-06T14:04:41Z</time>
      </trkpt>
      <trkpt lat="46.34964" lon="4.60057">
        <ele>580</ele>
        <time>2015-07-06T14:04:44Z</time>
      </trkpt>
      <trkpt lat="46.34926" lon="4.60025">
        <ele>588</ele>
        <time>2015-07-06T14:05:18Z</time>
      </trkpt>
      <trkpt lat="46.3492" lon="4.60023">
        <ele>588</ele>
        <time>2015-07-06T14:05:24Z</time>
      </trkpt>
      <trkpt lat="46.34915" lon="4.60018">
        <ele>588</ele>
        <time>2015-07-06T14:05:28Z</time>
      </trkpt>
      <trkpt lat="46.34911" lon="4.60012">
        <ele>587</ele>
        <time>2015-07-06T14:05:31Z</time>
      </trkpt>
      <trkpt lat="46.34904" lon="4.59999">
        <ele>586</ele>
        <time>2015-07-06T14:05:38Z</time>
      </trkpt>
      <trkpt lat="46.349" lon="4.59995">
        <ele>586</ele>
        <time>2015-07-06T14:05:42Z</time>
      </trkpt>
      <trkpt lat="46.34886" lon="4.59967">
        <ele>588</ele>
        <time>2015-07-06T14:06:03Z</time>
      </trkpt>
      <trkpt lat="46.34882" lon="4.59961">
        <ele>587</ele>
        <time>2015-07-06T14:06:08Z</time>
      </trkpt>
      <trkpt lat="46.34843" lon="4.5993">
        <ele>588</ele>
        <time>2015-07-06T14:06:44Z</time>
      </trkpt>
      <trkpt lat="46.3484" lon="4.59927">
        <ele>588</ele>
        <time>2015-07-06T14:06:46Z</time>
      </trkpt>
      <trkpt lat="46.34811" lon="4.59906">
        <ele>583</ele>
        <time>2015-07-06T14:07:10Z</time>
      </trkpt>
      <trkpt lat="46.34801" lon="4.59903">
        <ele>582</ele>
        <time>2015-07-06T14:07:19Z</time>
      </trkpt>
      <trkpt lat="46.34792" lon="4.59894">
        <ele>582</ele>
        <time>2015-07-06T14:07:27Z</time>
      </trkpt>
      <trkpt lat="46.34783" lon="4.59887">
        <ele>583</ele>
        <time>2015-07-06T14:07:36Z</time>
      </trkpt>
      <trkpt lat="46.34771" lon="4.59872">
        <ele>584</ele>
        <time>2015-07-06T14:07:53Z</time>
      </trkpt>
      <trkpt lat="46.34768" lon="4.59871">
        <ele>584</ele>
        <time>2015-07-06T14:07:57Z</time>
      </trkpt>
      <trkpt lat="46.3476" lon="4.59861">
        <ele>584</ele>
        <time>2015-07-06T14:08:07Z</time>
      </trkpt>
      <trkpt lat="46.34757" lon="4.59855">
        <ele>584</ele>
        <time>2015-07-06T14:08:11Z</time>
      </trkpt>
      <trkpt lat="46.34747" lon="4.59844">
        <ele>586</ele>
        <time>2015-07-06T14:08:19Z</time>
      </trkpt>
      <trkpt lat="46.34743" lon="4.5984">
        <ele>586</ele>
        <time>2015-07-06T14:08:24Z</time>
      </trkpt>
      <trkpt lat="46.34744" lon="4.59837">
        <ele>586</ele>
        <time>2015-07-06T14:08:39Z</time>
      </trkpt>
      <trkpt lat="46.3474" lon="4.59833">
        <ele>586</ele>
        <time>2015-07-06T14:08:44Z</time>
      </trkpt>
      <trkpt lat="46.34727" lon="4.59819">
        <ele>581</ele>
        <time>2015-07-06T14:08:56Z</time>
      </trkpt>
      <trkpt lat="46.34688" lon="4.59787">
        <ele>582</ele>
        <time>2015-07-06T14:09:29Z</time>
      </trkpt>
      <trkpt lat="46.34673" lon="4.59769">
        <ele>580</ele>
        <time>2015-07-06T14:09:51Z</time>
      </trkpt>
      <trkpt lat="46.34669" lon="4.59766">
        <ele>583</ele>
        <time>2015-07-06T14:09:59Z</time>
      </trkpt>
      <trkpt lat="46.34663" lon="4.59764">
        <ele>581</ele>
        <time>2015-07-06T14:10:10Z</time>
      </trkpt>
      <trkpt lat="46.34658" lon="4.59768">
        <ele>581</ele>
        <time>2015-07-06T14:10:14Z</time>
      </trkpt>
      <trkpt lat="46.34653" lon="4.59786">
        <ele>585</ele>
        <time>2015-07-06T14:10:30Z</time>
      </trkpt>
      <trkpt lat="46.34657" lon="4.59779">
        <ele>585</ele>
        <time>2015-07-06T14:10:35Z</time>
      </trkpt>
      <trkpt lat="46.34659" lon="4.59771">
        <ele>585</ele>
        <time>2015-07-06T14:10:39Z</time>
      </trkpt>
      <trkpt lat="46.34659" lon="4.59764">
        <ele>585</ele>
        <time>2015-07-06T14:10:43Z</time>
      </trkpt>
      <trkpt lat="46.34655" lon="4.59758">
        <ele>584</ele>
        <time>2015-07-06T14:10:47Z</time>
      </trkpt>
      <trkpt lat="46.34651" lon="4.59753">
        <ele>583</ele>
        <time>2015-07-06T14:10:51Z</time>
      </trkpt>
      <trkpt lat="46.34611" lon="4.59736">
        <ele>579</ele>
        <time>2015-07-06T14:11:21Z</time>
      </trkpt>
      <trkpt lat="46.34551" lon="4.59717">
        <ele>578</ele>
        <time>2015-07-06T14:12:12Z</time>
      </trkpt>
      <trkpt lat="46.34546" lon="4.59713">
        <ele>578</ele>
        <time>2015-07-06T14:12:17Z</time>
      </trkpt>
      <trkpt lat="46.34539" lon="4.59712">
        <ele>578</ele>
        <time>2015-07-06T14:12:21Z</time>
      </trkpt>
      <trkpt lat="46.34524" lon="4.59707">
        <ele>574</ele>
        <time>2015-07-06T14:12:36Z</time>
      </trkpt>
      <trkpt lat="46.34517" lon="4.59704">
        <ele>574</ele>
        <time>2015-07-06T14:12:40Z</time>
      </trkpt>
      <trkpt lat="46.34513" lon="4.59702">
        <ele>574</ele>
        <time>2015-07-06T14:12:44Z</time>
      </trkpt>
      <trkpt lat="46.34508" lon="4.59706">
        <ele>574</ele>
        <time>2015-07-06T14:12:49Z</time>
      </trkpt>
      <trkpt lat="46.34463" lon="4.59663">
        <ele>576</ele>
        <time>2015-07-06T14:13:27Z</time>
      </trkpt>
      <trkpt lat="46.34458" lon="4.59662">
        <ele>576</ele>
        <time>2015-07-06T14:13:33Z</time>
      </trkpt>
      <trkpt lat="46.34443" lon="4.59645">
        <ele>577</ele>
        <time>2015-07-06T14:13:45Z</time>
      </trkpt>
      <trkpt lat="46.3443" lon="4.59635">
        <ele>575</ele>
        <time>2015-07-06T14:14:01Z</time>
      </trkpt>
      <trkpt lat="46.34421" lon="4.59629">
        <ele>574</ele>
        <time>2015-07-06T14:14:06Z</time>
      </trkpt>
      <trkpt lat="46.34418" lon="4.59624">
        <ele>574</ele>
        <time>2015-07-06T14:14:13Z</time>
      </trkpt>
      <trkpt lat="46.34414" lon="4.59619">
        <ele>573</ele>
        <time>2015-07-06T14:14:19Z</time>
      </trkpt>
      <trkpt lat="46.34398" lon="4.59612">
        <ele>572</ele>
        <time>2015-07-06T14:14:28Z</time>
      </trkpt>
      <trkpt lat="46.34388" lon="4.59604">
        <ele>570</ele>
        <time>2015-07-06T14:14:36Z</time>
      </trkpt>
      <trkpt lat="46.34384" lon="4.59599">
        <ele>570</ele>
        <time>2015-07-06T14:14:39Z</time>
      </trkpt>
      <trkpt lat="46.34381" lon="4.59593">
        <ele>570</ele>
        <time>2015-07-06T14:14:48Z</time>
      </trkpt>
      <trkpt lat="46.34381" lon="4.59588">
        <ele>570</ele>
        <time>2015-07-06T14:14:50Z</time>
      </trkpt>
      <trkpt lat="46.34378" lon="4.59578">
        <ele>570</ele>
        <time>2015-07-06T14:14:54Z</time>
      </trkpt>
      <trkpt lat="46.34375" lon="4.59573">
        <ele>569</ele>
        <time>2015-07-06T14:14:59Z</time>
      </trkpt>
      <trkpt lat="46.34363" lon="4.59528">
        <ele>571</ele>
        <time>2015-07-06T14:15:22Z</time>
      </trkpt>
      <trkpt lat="46.3435" lon="4.59507">
        <ele>570</ele>
        <time>2015-07-06T14:15:40Z</time>
      </trkpt>
      <trkpt lat="46.34343" lon="4.59497">
        <ele>570</ele>
        <time>2015-07-06T14:15:48Z</time>
      </trkpt>
      <trkpt lat="46.34325" lon="4.59487">
        <ele>566</ele>
        <time>2015-07-06T14:16:07Z</time>
      </trkpt>
      <trkpt lat="46.34316" lon="4.59481">
        <ele>566</ele>
        <time>2015-07-06T14:16:18Z</time>
      </trkpt>
      <trkpt lat="46.34313" lon="4.59476">
        <ele>565</ele>
        <time>2015-07-06T14:16:25Z</time>
      </trkpt>
      <trkpt lat="46.34297" lon="4.59472">
        <ele>564</ele>
        <time>2015-07-06T14:16:37Z</time>
      </trkpt>
      <trkpt lat="46.34292" lon="4.59468">
        <ele>564</ele>
        <time>2015-07-06T14:16:42Z</time>
      </trkpt>
      <trkpt lat="46.34271" lon="4.59459">
        <ele>562</ele>
        <time>2015-07-06T14:17:00Z</time>
      </trkpt>
      <trkpt lat="46.3426" lon="4.59457">
        <ele>562</ele>
        <time>2015-07-06T14:17:06Z</time>
      </trkpt>
      <trkpt lat="46.34255" lon="4.59456">
        <ele>562</ele>
        <time>2015-07-06T14:17:10Z</time>
      </trkpt>
      <trkpt lat="46.34241" lon="4.59453">
        <ele>563</ele>
        <time>2015-07-06T14:17:22Z</time>
      </trkpt>
      <trkpt lat="46.34235" lon="4.59454">
        <ele>562</ele>
        <time>2015-07-06T14:17:27Z</time>
      </trkpt>
      <trkpt lat="46.34224" lon="4.59456">
        <ele>562</ele>
        <time>2015-07-06T14:17:37Z</time>
      </trkpt>
      <trkpt lat="46.34219" lon="4.59456">
        <ele>560</ele>
        <time>2015-07-06T14:17:41Z</time>
      </trkpt>
      <trkpt lat="46.34206" lon="4.59456">
        <ele>561</ele>
        <time>2015-07-06T14:17:50Z</time>
      </trkpt>
      <trkpt lat="46.3419" lon="4.59469">
        <ele>560</ele>
        <time>2015-07-06T14:18:05Z</time>
      </trkpt>
      <trkpt lat="46.34185" lon="4.59468">
        <ele>561</ele>
        <time>2015-07-06T14:18:08Z</time>
      </trkpt>
      <trkpt lat="46.34178" lon="4.59469">
        <ele>561</ele>
        <time>2015-07-06T14:18:14Z</time>
      </trkpt>
      <trkpt lat="46.34176" lon="4.59471">
        <ele>561</ele>
        <time>2015-07-06T14:18:16Z</time>
      </trkpt>
      <trkpt lat="46.34169" lon="4.59479">
        <ele>562</ele>
        <time>2015-07-06T14:18:26Z</time>
      </trkpt>
      <trkpt lat="46.34164" lon="4.59484">
        <ele>562</ele>
        <time>2015-07-06T14:18:30Z</time>
      </trkpt>
      <trkpt lat="46.34144" lon="4.59495">
        <ele>561</ele>
        <time>2015-07-06T14:18:48Z</time>
      </trkpt>
      <trkpt lat="46.34135" lon="4.59498">
        <ele>560</ele>
        <time>2015-07-06T14:18:56Z</time>
      </trkpt>
      <trkpt lat="46.34112" lon="4.59502">
        <ele>560</ele>
        <time>2015-07-06T14:19:16Z</time>
      </trkpt>
      <trkpt lat="46.34107" lon="4.59502">
        <ele>560</ele>
        <time>2015-07-06T14:19:20Z</time>
      </trkpt>
      <trkpt lat="46.34104" lon="4.59501">
        <ele>559</ele>
        <time>2015-07-06T14:19:32Z</time>
      </trkpt>
      <trkpt lat="46.34102" lon="4.59503">
        <ele>557</ele>
        <time>2015-07-06T14:21:38Z</time>
      </trkpt>
      <trkpt lat="46.34101" lon="4.59502">
        <ele>561</ele>
        <time>2015-07-06T14:27:41Z</time>
      </trkpt>
      <trkpt lat="46.34095" lon="4.59503">
        <ele>565</ele>
        <time>2015-07-06T14:35:40Z</time>
      </trkpt>
      <trkpt lat="46.34086" lon="4.59501">
        <ele>567</ele>
        <time>2015-07-06T14:35:51Z</time>
      </trkpt>
      <trkpt lat="46.3405" lon="4.59498">
        <ele>568</ele>
        <time>2015-07-06T14:36:38Z</time>
      </trkpt>
      <trkpt lat="46.34005" lon="4.595">
        <ele>568</ele>
        <time>2015-07-06T14:37:19Z</time>
      </trkpt>
      <trkpt lat="46.34" lon="4.59497">
        <ele>567</ele>
        <time>2015-07-06T14:37:23Z</time>
      </trkpt>
      <trkpt lat="46.3396" lon="4.59492">
        <ele>561</ele>
        <time>2015-07-06T14:37:55Z</time>
      </trkpt>
      <trkpt lat="46.33949" lon="4.59498">
        <ele>560</ele>
        <time>2015-07-06T14:38:05Z</time>
      </trkpt>
      <trkpt lat="46.33929" lon="4.59501">
        <ele>559</ele>
        <time>2015-07-06T14:38:20Z</time>
      </trkpt>
      <trkpt lat="46.33924" lon="4.59499">
        <ele>559</ele>
        <time>2015-07-06T14:38:24Z</time>
      </trkpt>
      <trkpt lat="46.3392" lon="4.59495">
        <ele>558</ele>
        <time>2015-07-06T14:38:28Z</time>
      </trkpt>
      <trkpt lat="46.33904" lon="4.59497">
        <ele>558</ele>
        <time>2015-07-06T14:38:40Z</time>
      </trkpt>
      <trkpt lat="46.33893" lon="4.59486">
        <ele>558</ele>
        <time>2015-07-06T14:38:46Z</time>
      </trkpt>
      <trkpt lat="46.33891" lon="4.59481">
        <ele>557</ele>
        <time>2015-07-06T14:38:53Z</time>
      </trkpt>
      <trkpt lat="46.33886" lon="4.59485">
        <ele>556</ele>
        <time>2015-07-06T14:38:56Z</time>
      </trkpt>
      <trkpt lat="46.33868" lon="4.59484">
        <ele>555</ele>
        <time>2015-07-06T14:39:09Z</time>
      </trkpt>
      <trkpt lat="46.33862" lon="4.59484">
        <ele>555</ele>
        <time>2015-07-06T14:39:13Z</time>
      </trkpt>
      <trkpt lat="46.33847" lon="4.5948">
        <ele>556</ele>
        <time>2015-07-06T14:39:25Z</time>
      </trkpt>
      <trkpt lat="46.33841" lon="4.59476">
        <ele>556</ele>
        <time>2015-07-06T14:39:41Z</time>
      </trkpt>
      <trkpt lat="46.3383" lon="4.59475">
        <ele>556</ele>
        <time>2015-07-06T14:40:20Z</time>
      </trkpt>
      <trkpt lat="46.33821" lon="4.59471">
        <ele>558</ele>
        <time>2015-07-06T14:40:32Z</time>
      </trkpt>
      <trkpt lat="46.33801" lon="4.59467">
        <ele>559</ele>
        <time>2015-07-06T14:40:47Z</time>
      </trkpt>
      <trkpt lat="46.33792" lon="4.59462">
        <ele>559</ele>
        <time>2015-07-06T14:41:00Z</time>
      </trkpt>
      <trkpt lat="46.33783" lon="4.59458">
        <ele>560</ele>
        <time>2015-07-06T14:41:09Z</time>
      </trkpt>
      <trkpt lat="46.33773" lon="4.59456">
        <ele>560</ele>
        <time>2015-07-06T14:41:17Z</time>
      </trkpt>
      <trkpt lat="46.33763" lon="4.59453">
        <ele>561</ele>
        <time>2015-07-06T14:41:25Z</time>
      </trkpt>
      <trkpt lat="46.33724" lon="4.59459">
        <ele>564</ele>
        <time>2015-07-06T14:41:58Z</time>
      </trkpt>
      <trkpt lat="46.33705" lon="4.59468">
        <ele>564</ele>
        <time>2015-07-06T14:42:13Z</time>
      </trkpt>
      <trkpt lat="46.33687" lon="4.59466">
        <ele>564</ele>
        <time>2015-07-06T14:42:30Z</time>
      </trkpt>
      <trkpt lat="46.33648" lon="4.59476">
        <ele>558</ele>
        <time>2015-07-06T14:43:06Z</time>
      </trkpt>
      <trkpt lat="46.3363" lon="4.59474">
        <ele>557</ele>
        <time>2015-07-06T14:43:25Z</time>
      </trkpt>
      <trkpt lat="46.3361" lon="4.59475">
        <ele>558</ele>
        <time>2015-07-06T14:43:46Z</time>
      </trkpt>
      <trkpt lat="46.33582" lon="4.59483">
        <ele>561</ele>
        <time>2015-07-06T14:44:10Z</time>
      </trkpt>
      <trkpt lat="46.33564" lon="4.59478">
        <ele>561</ele>
        <time>2015-07-06T14:44:24Z</time>
      </trkpt>
      <trkpt lat="46.33545" lon="4.59467">
        <ele>559</ele>
        <time>2015-07-06T14:44:41Z</time>
      </trkpt>
      <trkpt lat="46.33537" lon="4.5946">
        <ele>562</ele>
        <time>2015-07-06T14:44:49Z</time>
      </trkpt>
      <trkpt lat="46.33529" lon="4.59455">
        <ele>560</ele>
        <time>2015-07-06T14:44:58Z</time>
      </trkpt>
      <trkpt lat="46.33519" lon="4.59454">
        <ele>559</ele>
        <time>2015-07-06T14:45:07Z</time>
      </trkpt>
      <trkpt lat="46.33478" lon="4.59423">
        <ele>558</ele>
        <time>2015-07-06T14:45:42Z</time>
      </trkpt>
      <trkpt lat="46.33458" lon="4.59417">
        <ele>555</ele>
        <time>2015-07-06T14:46:00Z</time>
      </trkpt>
      <trkpt lat="46.33452" lon="4.59417">
        <ele>555</ele>
        <time>2015-07-06T14:46:06Z</time>
      </trkpt>
      <trkpt lat="46.33443" lon="4.59413">
        <ele>555</ele>
        <time>2015-07-06T14:46:13Z</time>
      </trkpt>
      <trkpt lat="46.33437" lon="4.59412">
        <ele>556</ele>
        <time>2015-07-06T14:46:17Z</time>
      </trkpt>
      <trkpt lat="46.33434" lon="4.59411">
        <ele>556</ele>
        <time>2015-07-06T14:46:19Z</time>
      </trkpt>
      <trkpt lat="46.33428" lon="4.59412">
        <ele>556</ele>
        <time>2015-07-06T14:46:23Z</time>
      </trkpt>
      <trkpt lat="46.33426" lon="4.59407">
        <ele>556</ele>
        <time>2015-07-06T14:46:36Z</time>
      </trkpt>
      <trkpt lat="46.33423" lon="4.59402">
        <ele>562</ele>
        <time>2015-07-06T14:47:07Z</time>
      </trkpt>
      <trkpt lat="46.33383" lon="4.5937">
        <ele>564</ele>
        <time>2015-07-06T14:47:45Z</time>
      </trkpt>
      <trkpt lat="46.33368" lon="4.5935">
        <ele>563</ele>
        <time>2015-07-06T14:48:03Z</time>
      </trkpt>
      <trkpt lat="46.33343" lon="4.59336">
        <ele>561</ele>
        <time>2015-07-06T14:48:25Z</time>
      </trkpt>
      <trkpt lat="46.33328" lon="4.59331">
        <ele>563</ele>
        <time>2015-07-06T14:48:37Z</time>
      </trkpt>
      <trkpt lat="46.33315" lon="4.59319">
        <ele>561</ele>
        <time>2015-07-06T14:48:52Z</time>
      </trkpt>
      <trkpt lat="46.33277" lon="4.5925">
        <ele>556</ele>
        <time>2015-07-06T14:49:45Z</time>
      </trkpt>
      <trkpt lat="46.33264" lon="4.5924">
        <ele>555</ele>
        <time>2015-07-06T14:50:03Z</time>
      </trkpt>
      <trkpt lat="46.33259" lon="4.59239">
        <ele>555</ele>
        <time>2015-07-06T14:50:09Z</time>
      </trkpt>
      <trkpt lat="46.33255" lon="4.59241">
        <ele>554</ele>
        <time>2015-07-06T14:50:16Z</time>
      </trkpt>
      <trkpt lat="46.3325" lon="4.59239">
        <ele>556</ele>
        <time>2015-07-06T14:50:34Z</time>
      </trkpt>
      <trkpt lat="46.3324" lon="4.59239">
        <ele>556</ele>
        <time>2015-07-06T14:50:42Z</time>
      </trkpt>
      <trkpt lat="46.33224" lon="4.5924">
        <ele>555</ele>
        <time>2015-07-06T14:50:58Z</time>
      </trkpt>
      <trkpt lat="46.33214" lon="4.59243">
        <ele>557</ele>
        <time>2015-07-06T14:51:05Z</time>
      </trkpt>
      <trkpt lat="46.33205" lon="4.59232">
        <ele>557</ele>
        <time>2015-07-06T14:51:14Z</time>
      </trkpt>
      <trkpt lat="46.3319" lon="4.59229">
        <ele>557</ele>
        <time>2015-07-06T14:51:24Z</time>
      </trkpt>
      <trkpt lat="46.33185" lon="4.59231">
        <ele>556</ele>
        <time>2015-07-06T14:51:30Z</time>
      </trkpt>
      <trkpt lat="46.3318" lon="4.59228">
        <ele>557</ele>
        <time>2015-07-06T14:51:34Z</time>
      </trkpt>
      <trkpt lat="46.33171" lon="4.59231">
        <ele>559</ele>
        <time>2015-07-06T14:51:43Z</time>
      </trkpt>
      <trkpt lat="46.33166" lon="4.5923">
        <ele>560</ele>
        <time>2015-07-06T14:51:46Z</time>
      </trkpt>
      <trkpt lat="46.33162" lon="4.59234">
        <ele>561</ele>
        <time>2015-07-06T14:51:50Z</time>
      </trkpt>
      <trkpt lat="46.33152" lon="4.5924">
        <ele>561</ele>
        <time>2015-07-06T14:51:57Z</time>
      </trkpt>
      <trkpt lat="46.33148" lon="4.5924">
        <ele>562</ele>
        <time>2015-07-06T14:52:05Z</time>
      </trkpt>
      <trkpt lat="46.33145" lon="4.59245">
        <ele>561</ele>
        <time>2015-07-06T14:52:12Z</time>
      </trkpt>
      <trkpt lat="46.33136" lon="4.59249">
        <ele>561</ele>
        <time>2015-07-06T14:52:21Z</time>
      </trkpt>
      <trkpt lat="46.33131" lon="4.59251">
        <ele>561</ele>
        <time>2015-07-06T14:52:25Z</time>
      </trkpt>
      <trkpt lat="46.33126" lon="4.59253">
        <ele>563</ele>
        <time>2015-07-06T14:52:30Z</time>
      </trkpt>
      <trkpt lat="46.33121" lon="4.59244">
        <ele>565</ele>
        <time>2015-07-06T14:52:37Z</time>
      </trkpt>
      <trkpt lat="46.33118" lon="4.59243">
        <ele>564</ele>
        <time>2015-07-06T14:52:41Z</time>
      </trkpt>
      <trkpt lat="46.33113" lon="4.59248">
        <ele>564</ele>
        <time>2015-07-06T14:52:46Z</time>
      </trkpt>
      <trkpt lat="46.33089" lon="4.59239">
        <ele>566</ele>
        <time>2015-07-06T14:53:06Z</time>
      </trkpt>
      <trkpt lat="46.33084" lon="4.59236">
        <ele>566</ele>
        <time>2015-07-06T14:53:11Z</time>
      </trkpt>
      <trkpt lat="46.3305" lon="4.5921">
        <ele>562</ele>
        <time>2015-07-06T14:53:46Z</time>
      </trkpt>
      <trkpt lat="46.33027" lon="4.592">
        <ele>559</ele>
        <time>2015-07-06T14:54:06Z</time>
      </trkpt>
      <trkpt lat="46.33006" lon="4.59198">
        <ele>560</ele>
        <time>2015-07-06T14:54:22Z</time>
      </trkpt>
      <trkpt lat="46.32991" lon="4.59202">
        <ele>559</ele>
        <time>2015-07-06T14:54:35Z</time>
      </trkpt>
      <trkpt lat="46.32977" lon="4.5921">
        <ele>559</ele>
        <time>2015-07-06T14:54:49Z</time>
      </trkpt>
      <trkpt lat="46.32972" lon="4.59211">
        <ele>559</ele>
        <time>2015-07-06T14:54:54Z</time>
      </trkpt>
      <trkpt lat="46.32967" lon="4.59214">
        <ele>559</ele>
        <time>2015-07-06T14:54:59Z</time>
      </trkpt>
      <trkpt lat="46.32952" lon="4.59214">
        <ele>562</ele>
        <time>2015-07-06T14:55:14Z</time>
      </trkpt>
      <trkpt lat="46.32934" lon="4.59205">
        <ele>562</ele>
        <time>2015-07-06T14:55:31Z</time>
      </trkpt>
      <trkpt lat="46.32903" lon="4.59182">
        <ele>558</ele>
        <time>2015-07-06T14:56:03Z</time>
      </trkpt>
      <trkpt lat="46.32897" lon="4.59174">
        <ele>559</ele>
        <time>2015-07-06T14:56:14Z</time>
      </trkpt>
      <trkpt lat="46.32896" lon="4.59168">
        <ele>559</ele>
        <time>2015-07-06T14:56:24Z</time>
      </trkpt>
      <trkpt lat="46.32886" lon="4.59149">
        <ele>557</ele>
        <time>2015-07-06T14:56:39Z</time>
      </trkpt>
      <trkpt lat="46.32881" lon="4.59147">
        <ele>557</ele>
        <time>2015-07-06T14:56:44Z</time>
      </trkpt>
      <trkpt lat="46.32861" lon="4.59148">
        <ele>557</ele>
        <time>2015-07-06T14:57:02Z</time>
      </trkpt>
      <trkpt lat="46.32857" lon="4.59147">
        <ele>557</ele>
        <time>2015-07-06T14:57:08Z</time>
      </trkpt>
      <trkpt lat="46.3282" lon="4.59139">
        <ele>554</ele>
        <time>2015-07-06T14:57:40Z</time>
      </trkpt>
      <trkpt lat="46.32805" lon="4.59143">
        <ele>553</ele>
        <time>2015-07-06T14:57:54Z</time>
      </trkpt>
      <trkpt lat="46.32792" lon="4.59145">
        <ele>554</ele>
        <time>2015-07-06T14:58:04Z</time>
      </trkpt>
      <trkpt lat="46.32781" lon="4.5915">
        <ele>553</ele>
        <time>2015-07-06T14:58:14Z</time>
      </trkpt>
      <trkpt lat="46.32776" lon="4.59148">
        <ele>553</ele>
        <time>2015-07-06T14:58:19Z</time>
      </trkpt>
      <trkpt lat="46.32759" lon="4.59153">
        <ele>551</ele>
        <time>2015-07-06T14:58:33Z</time>
      </trkpt>
      <trkpt lat="46.32724" lon="4.59169">
        <ele>555</ele>
        <time>2015-07-06T14:59:04Z</time>
      </trkpt>
      <trkpt lat="46.32665" lon="4.59184">
        <ele>554</ele>
        <time>2015-07-06T14:59:55Z</time>
      </trkpt>
      <trkpt lat="46.3263" lon="4.59186">
        <ele>550</ele>
        <time>2015-07-06T15:00:27Z</time>
      </trkpt>
      <trkpt lat="46.32597" lon="4.59181">
        <ele>548</ele>
        <time>2015-07-06T15:00:55Z</time>
      </trkpt>
      <trkpt lat="46.32545" lon="4.59159">
        <ele>555</ele>
        <time>2015-07-06T15:01:49Z</time>
      </trkpt>
      <trkpt lat="46.32519" lon="4.59158">
        <ele>548</ele>
        <time>2015-07-06T15:02:12Z</time>
      </trkpt>
      <trkpt lat="46.32514" lon="4.59161">
        <ele>548</ele>
        <time>2015-07-06T15:02:17Z</time>
      </trkpt>
      <trkpt lat="46.32512" lon="4.5916">
        <ele>551</ele>
        <time>2015-07-06T15:02:39Z</time>
      </trkpt>
      <trkpt lat="46.32501" lon="4.59164">
        <ele>552</ele>
        <time>2015-07-06T15:02:50Z</time>
      </trkpt>
      <trkpt lat="46.32496" lon="4.59163">
        <ele>552</ele>
        <time>2015-07-06T15:02:54Z</time>
      </trkpt>
      <trkpt lat="46.32491" lon="4.59167">
        <ele>552</ele>
        <time>2015-07-06T15:03:00Z</time>
      </trkpt>
      <trkpt lat="46.32472" lon="4.59162">
        <ele>547</ele>
        <time>2015-07-06T15:03:20Z</time>
      </trkpt>
      <trkpt lat="46.32469" lon="4.59166">
        <ele>551</ele>
        <time>2015-07-06T15:03:54Z</time>
      </trkpt>
      <trkpt lat="46.32459" lon="4.59169">
        <ele>552</ele>
        <time>2015-07-06T15:04:00Z</time>
      </trkpt>
      <trkpt lat="46.32454" lon="4.59169">
        <ele>551</ele>
        <time>2015-07-06T15:04:04Z</time>
      </trkpt>
      <trkpt lat="46.32406" lon="4.59153">
        <ele>537</ele>
        <time>2015-07-06T15:04:49Z</time>
      </trkpt>
      <trkpt lat="46.32397" lon="4.59158">
        <ele>538</ele>
        <time>2015-07-06T15:04:59Z</time>
      </trkpt>
      <trkpt lat="46.32374" lon="4.59179">
        <ele>538</ele>
        <time>2015-07-06T15:05:21Z</time>
      </trkpt>
      <trkpt lat="46.3237" lon="4.59181">
        <ele>538</ele>
        <time>2015-07-06T15:05:25Z</time>
      </trkpt>
      <trkpt lat="46.32355" lon="4.59186">
        <ele>538</ele>
        <time>2015-07-06T15:05:38Z</time>
      </trkpt>
      <trkpt lat="46.32346" lon="4.5919">
        <ele>536</ele>
        <time>2015-07-06T15:05:48Z</time>
      </trkpt>
      <trkpt lat="46.32345" lon="4.59194">
        <ele>535</ele>
        <time>2015-07-06T15:05:59Z</time>
      </trkpt>
      <trkpt lat="46.32337" lon="4.59204">
        <ele>535</ele>
        <time>2015-07-06T15:06:05Z</time>
      </trkpt>
      <trkpt lat="46.32331" lon="4.59215">
        <ele>536</ele>
        <time>2015-07-06T15:06:12Z</time>
      </trkpt>
      <trkpt lat="46.32319" lon="4.59258">
        <ele>543</ele>
        <time>2015-07-06T15:06:36Z</time>
      </trkpt>
      <trkpt lat="46.32311" lon="4.59266">
        <ele>543</ele>
        <time>2015-07-06T15:06:42Z</time>
      </trkpt>
      <trkpt lat="46.32296" lon="4.59289">
        <ele>544</ele>
        <time>2015-07-06T15:06:56Z</time>
      </trkpt>
      <trkpt lat="46.32279" lon="4.59303">
        <ele>543</ele>
        <time>2015-07-06T15:07:13Z</time>
      </trkpt>
      <trkpt lat="46.32242" lon="4.59314">
        <ele>532</ele>
        <time>2015-07-06T15:07:47Z</time>
      </trkpt>
      <trkpt lat="46.32237" lon="4.59314">
        <ele>531</ele>
        <time>2015-07-06T15:07:51Z</time>
      </trkpt>
      <trkpt lat="46.32227" lon="4.59316">
        <ele>532</ele>
        <time>2015-07-06T15:07:59Z</time>
      </trkpt>
      <trkpt lat="46.32216" lon="4.5932">
        <ele>537</ele>
        <time>2015-07-06T15:08:07Z</time>
      </trkpt>
      <trkpt lat="46.32194" lon="4.59324">
        <ele>535</ele>
        <time>2015-07-06T15:10:03Z</time>
      </trkpt>
      <trkpt lat="46.32189" lon="4.59325">
        <ele>534</ele>
        <time>2015-07-06T15:10:45Z</time>
      </trkpt>
      <trkpt lat="46.32183" lon="4.59325">
        <ele>534</ele>
        <time>2015-07-06T15:10:51Z</time>
      </trkpt>
      <trkpt lat="46.32147" lon="4.59362">
        <ele>532</ele>
        <time>2015-07-06T15:11:23Z</time>
      </trkpt>
      <trkpt lat="46.32133" lon="4.59391">
        <ele>531</ele>
        <time>2015-07-06T15:11:46Z</time>
      </trkpt>
      <trkpt lat="46.32126" lon="4.59419">
        <ele>530</ele>
        <time>2015-07-06T15:12:02Z</time>
      </trkpt>
      <trkpt lat="46.32123" lon="4.59426">
        <ele>530</ele>
        <time>2015-07-06T15:12:05Z</time>
      </trkpt>
      <trkpt lat="46.32121" lon="4.59432">
        <ele>529</ele>
        <time>2015-07-06T15:12:13Z</time>
      </trkpt>
      <trkpt lat="46.32117" lon="4.59452">
        <ele>529</ele>
        <time>2015-07-06T15:12:25Z</time>
      </trkpt>
      <trkpt lat="46.32098" lon="4.59487">
        <ele>524</ele>
        <time>2015-07-06T15:12:49Z</time>
      </trkpt>
      <trkpt lat="46.32064" lon="4.59617">
        <ele>513</ele>
        <time>2015-07-06T15:14:04Z</time>
      </trkpt>
      <trkpt lat="46.32061" lon="4.59636">
        <ele>512</ele>
        <time>2015-07-06T15:14:15Z</time>
      </trkpt>
      <trkpt lat="46.32051" lon="4.59655">
        <ele>511</ele>
        <time>2015-07-06T15:14:50Z</time>
      </trkpt>
      <trkpt lat="46.3205" lon="4.59662">
        <ele>510</ele>
        <time>2015-07-06T15:14:55Z</time>
      </trkpt>
      <trkpt lat="46.3205" lon="4.59711">
        <ele>504</ele>
        <time>2015-07-06T15:15:28Z</time>
      </trkpt>
      <trkpt lat="46.32044" lon="4.59767">
        <ele>496</ele>
        <time>2015-07-06T15:16:05Z</time>
      </trkpt>
      <trkpt lat="46.32024" lon="4.5983">
        <ele>489</ele>
        <time>2015-07-06T15:16:47Z</time>
      </trkpt>
      <trkpt lat="46.32011" lon="4.59841">
        <ele>487</ele>
        <time>2015-07-06T15:17:01Z</time>
      </trkpt>
      <trkpt lat="46.31984" lon="4.59877">
        <ele>483</ele>
        <time>2015-07-06T15:17:28Z</time>
      </trkpt>
      <trkpt lat="46.31978" lon="4.59887">
        <ele>482</ele>
        <time>2015-07-06T15:17:36Z</time>
      </trkpt>
      <trkpt lat="46.31971" lon="4.59896">
        <ele>483</ele>
        <time>2015-07-06T15:17:45Z</time>
      </trkpt>
      <trkpt lat="46.31968" lon="4.59901">
        <ele>483</ele>
        <time>2015-07-06T15:17:48Z</time>
      </trkpt>
      <trkpt lat="46.31951" lon="4.59954">
        <ele>487</ele>
        <time>2015-07-06T15:18:22Z</time>
      </trkpt>
      <trkpt lat="46.31939" lon="4.59979">
        <ele>487</ele>
        <time>2015-07-06T15:18:40Z</time>
      </trkpt>
      <trkpt lat="46.31919" lon="4.59987">
        <ele>487</ele>
        <time>2015-07-06T15:19:17Z</time>
      </trkpt>
      <trkpt lat="46.3189" lon="4.59991">
        <ele>487</ele>
        <time>2015-07-06T15:19:54Z</time>
      </trkpt>
      <trkpt lat="46.31887" lon="4.59993">
        <ele>487</ele>
        <time>2015-07-06T15:20:01Z</time>
      </trkpt>
      <trkpt lat="46.31878" lon="4.59997">
        <ele>488</ele>
        <time>2015-07-06T15:20:27Z</time>
      </trkpt>
      <trkpt lat="46.31858" lon="4.60002">
        <ele>486</ele>
        <time>2015-07-06T15:20:48Z</time>
      </trkpt>
      <trkpt lat="46.31852" lon="4.60005">
        <ele>486</ele>
        <time>2015-07-06T15:20:54Z</time>
      </trkpt>
      <trkpt lat="46.31841" lon="4.60008">
        <ele>485</ele>
        <time>2015-07-06T15:21:12Z</time>
      </trkpt>
      <trkpt lat="46.31836" lon="4.60008">
        <ele>484</ele>
        <time>2015-07-06T15:21:22Z</time>
      </trkpt>
      <trkpt lat="46.31806" lon="4.60031">
        <ele>478</ele>
        <time>2015-07-06T15:22:08Z</time>
      </trkpt>
      <trkpt lat="46.3179" lon="4.60047">
        <ele>478</ele>
        <time>2015-07-06T15:22:45Z</time>
      </trkpt>
      <trkpt lat="46.31776" lon="4.60073">
        <ele>476</ele>
        <time>2015-07-06T15:23:14Z</time>
      </trkpt>
      <trkpt lat="46.31775" lon="4.6008">
        <ele>476</ele>
        <time>2015-07-06T15:23:18Z</time>
      </trkpt>
      <trkpt lat="46.31778" lon="4.60085">
        <ele>475</ele>
        <time>2015-07-06T15:23:22Z</time>
      </trkpt>
      <trkpt lat="46.31782" lon="4.60087">
        <ele>474</ele>
        <time>2015-07-06T15:23:27Z</time>
      </trkpt>
      <trkpt lat="46.31786" lon="4.60093">
        <ele>474</ele>
        <time>2015-07-06T15:23:33Z</time>
      </trkpt>
      <trkpt lat="46.31806" lon="4.60113">
        <ele>470</ele>
        <time>2015-07-06T15:23:58Z</time>
      </trkpt>
      <trkpt lat="46.31805" lon="4.6012">
        <ele>469</ele>
        <time>2015-07-06T15:24:03Z</time>
      </trkpt>
      <trkpt lat="46.318" lon="4.60123">
        <ele>469</ele>
        <time>2015-07-06T15:24:09Z</time>
      </trkpt>
      <trkpt lat="46.31776" lon="4.60127">
        <ele>467</ele>
        <time>2015-07-06T15:24:29Z</time>
      </trkpt>
      <trkpt lat="46.31767" lon="4.6013">
        <ele>467</ele>
        <time>2015-07-06T15:24:37Z</time>
      </trkpt>
      <trkpt lat="46.31732" lon="4.60136">
        <ele>466</ele>
        <time>2015-07-06T15:25:07Z</time>
      </trkpt>
      <trkpt lat="46.31717" lon="4.60134">
        <ele>465</ele>
        <time>2015-07-06T15:25:20Z</time>
      </trkpt>
      <trkpt lat="46.31709" lon="4.60127">
        <ele>463</ele>
        <time>2015-07-06T15:25:29Z</time>
      </trkpt>
      <trkpt lat="46.31706" lon="4.6012">
        <ele>463</ele>
        <time>2015-07-06T15:25:33Z</time>
      </trkpt>
      <trkpt lat="46.31703" lon="4.60113">
        <ele>463</ele>
        <time>2015-07-06T15:25:37Z</time>
      </trkpt>
      <trkpt lat="46.31699" lon="4.60044">
        <ele>462</ele>
        <time>2015-07-06T15:26:15Z</time>
      </trkpt>
      <trkpt lat="46.31699" lon="4.60036">
        <ele>461</ele>
        <time>2015-07-06T15:26:20Z</time>
      </trkpt>
      <trkpt lat="46.31697" lon="4.60007">
        <ele>461</ele>
        <time>2015-07-06T15:26:36Z</time>
      </trkpt>
      <trkpt lat="46.31698" lon="4.59985">
        <ele>461</ele>
        <time>2015-07-06T15:26:48Z</time>
      </trkpt>
      <trkpt lat="46.31694" lon="4.59973">
        <ele>461</ele>
        <time>2015-07-06T15:26:56Z</time>
      </trkpt>
      <trkpt lat="46.31687" lon="4.5996">
        <ele>460</ele>
        <time>2015-07-06T15:27:04Z</time>
      </trkpt>
      <trkpt lat="46.31678" lon="4.59956">
        <ele>460</ele>
        <time>2015-07-06T15:27:12Z</time>
      </trkpt>
      <trkpt lat="46.31673" lon="4.59955">
        <ele>460</ele>
        <time>2015-07-06T15:27:17Z</time>
      </trkpt>
      <trkpt lat="46.31642" lon="4.59998">
        <ele>459</ele>
        <time>2015-07-06T15:27:57Z</time>
      </trkpt>
      <trkpt lat="46.3164" lon="4.60004">
        <ele>459</ele>
        <time>2015-07-06T15:28:01Z</time>
      </trkpt>
      <trkpt lat="46.31619" lon="4.60041">
        <ele>455</ele>
        <time>2015-07-06T15:28:29Z</time>
      </trkpt>
      <trkpt lat="46.31606" lon="4.6006">
        <ele>454</ele>
        <time>2015-07-06T15:28:48Z</time>
      </trkpt>
      <trkpt lat="46.31595" lon="4.60099">
        <ele>453</ele>
        <time>2015-07-06T15:29:12Z</time>
      </trkpt>
      <trkpt lat="46.31592" lon="4.60105">
        <ele>452</ele>
        <time>2015-07-06T15:29:17Z</time>
      </trkpt>
      <trkpt lat="46.31587" lon="4.60122">
        <ele>451</ele>
        <time>2015-07-06T15:29:26Z</time>
      </trkpt>
      <trkpt lat="46.31583" lon="4.60126">
        <ele>451</ele>
        <time>2015-07-06T15:29:29Z</time>
      </trkpt>
      <trkpt lat="46.31578" lon="4.60137">
        <ele>450</ele>
        <time>2015-07-06T15:29:37Z</time>
      </trkpt>
      <trkpt lat="46.31574" lon="4.60139">
        <ele>450</ele>
        <time>2015-07-06T15:29:40Z</time>
      </trkpt>
      <trkpt lat="46.31569" lon="4.60142">
        <ele>449</ele>
        <time>2015-07-06T15:29:43Z</time>
      </trkpt>
      <trkpt lat="46.31551" lon="4.60151">
        <ele>451</ele>
        <time>2015-07-06T15:30:00Z</time>
      </trkpt>
      <trkpt lat="46.31546" lon="4.6015">
        <ele>452</ele>
        <time>2015-07-06T15:30:05Z</time>
      </trkpt>
      <trkpt lat="46.31501" lon="4.60148">
        <ele>458</ele>
        <time>2015-07-06T15:30:42Z</time>
      </trkpt>
      <trkpt lat="46.31491" lon="4.60144">
        <ele>458</ele>
        <time>2015-07-06T15:30:50Z</time>
      </trkpt>
      <trkpt lat="46.3145" lon="4.60135">
        <ele>460</ele>
        <time>2015-07-06T15:31:24Z</time>
      </trkpt>
      <trkpt lat="46.31429" lon="4.60129">
        <ele>457</ele>
        <time>2015-07-06T15:31:41Z</time>
      </trkpt>
      <trkpt lat="46.31425" lon="4.60123">
        <ele>456</ele>
        <time>2015-07-06T15:31:47Z</time>
      </trkpt>
      <trkpt lat="46.31418" lon="4.60119">
        <ele>456</ele>
        <time>2015-07-06T15:31:51Z</time>
      </trkpt>
      <trkpt lat="46.31394" lon="4.60117">
        <ele>456</ele>
        <time>2015-07-06T15:32:14Z</time>
      </trkpt>
      <trkpt lat="46.3139" lon="4.60118">
        <ele>456</ele>
        <time>2015-07-06T15:32:20Z</time>
      </trkpt>
      <trkpt lat="46.31376" lon="4.60114">
        <ele>454</ele>
        <time>2015-07-06T15:32:31Z</time>
      </trkpt>
      <trkpt lat="46.31368" lon="4.60114">
        <ele>454</ele>
        <time>2015-07-06T15:32:35Z</time>
      </trkpt>
      <trkpt lat="46.31366" lon="4.60115">
        <ele>454</ele>
        <time>2015-07-06T15:32:39Z</time>
      </trkpt>
      <trkpt lat="46.31361" lon="4.60117">
        <ele>454</ele>
        <time>2015-07-06T15:32:45Z</time>
      </trkpt>
      <trkpt lat="46.31348" lon="4.60108">
        <ele>454</ele>
        <time>2015-07-06T15:32:56Z</time>
      </trkpt>
      <trkpt lat="46.31336" lon="4.60106">
        <ele>454</ele>
        <time>2015-07-06T15:33:05Z</time>
      </trkpt>
      <trkpt lat="46.3133" lon="4.60105">
        <ele>454</ele>
        <time>2015-07-06T15:33:09Z</time>
      </trkpt>
      <trkpt lat="46.31324" lon="4.60106">
        <ele>454</ele>
        <time>2015-07-06T15:33:15Z</time>
      </trkpt>
      <trkpt lat="46.3132" lon="4.60104">
        <ele>453</ele>
        <time>2015-07-06T15:33:19Z</time>
      </trkpt>
      <trkpt lat="46.31309" lon="4.60102">
        <ele>454</ele>
        <time>2015-07-06T15:33:27Z</time>
      </trkpt>
      <trkpt lat="46.31304" lon="4.60101">
        <ele>453</ele>
        <time>2015-07-06T15:33:30Z</time>
      </trkpt>
      <trkpt lat="46.313" lon="4.601">
        <ele>453</ele>
        <time>2015-07-06T15:33:33Z</time>
      </trkpt>
      <trkpt lat="46.31278" lon="4.60092">
        <ele>456</ele>
        <time>2015-07-06T15:33:52Z</time>
      </trkpt>
      <trkpt lat="46.31272" lon="4.60092">
        <ele>455</ele>
        <time>2015-07-06T15:33:57Z</time>
      </trkpt>
      <trkpt lat="46.31267" lon="4.6009">
        <ele>455</ele>
        <time>2015-07-06T15:34:02Z</time>
      </trkpt>
      <trkpt lat="46.31261" lon="4.6009">
        <ele>455</ele>
        <time>2015-07-06T15:34:08Z</time>
      </trkpt>
      <trkpt lat="46.31251" lon="4.60086">
        <ele>454</ele>
        <time>2015-07-06T15:34:20Z</time>
      </trkpt>
      <trkpt lat="46.31216" lon="4.60082">
        <ele>458</ele>
        <time>2015-07-06T15:34:50Z</time>
      </trkpt>
      <trkpt lat="46.31212" lon="4.60081">
        <ele>458</ele>
        <time>2015-07-06T15:34:53Z</time>
      </trkpt>
      <trkpt lat="46.31172" lon="4.60077">
        <ele>464</ele>
        <time>2015-07-06T15:35:25Z</time>
      </trkpt>
      <trkpt lat="46.31167" lon="4.60079">
        <ele>464</ele>
        <time>2015-07-06T15:35:33Z</time>
      </trkpt>
      <trkpt lat="46.31163" lon="4.60078">
        <ele>464</ele>
        <time>2015-07-06T15:35:37Z</time>
      </trkpt>
      <trkpt lat="46.31157" lon="4.60078">
        <ele>464</ele>
        <time>2015-07-06T15:35:42Z</time>
      </trkpt>
      <trkpt lat="46.31153" lon="4.60078">
        <ele>464</ele>
        <time>2015-07-06T15:35:46Z</time>
      </trkpt>
      <trkpt lat="46.31144" lon="4.60078">
        <ele>464</ele>
        <time>2015-07-06T15:35:54Z</time>
      </trkpt>
      <trkpt lat="46.31138" lon="4.60077">
        <ele>463</ele>
        <time>2015-07-06T15:35:59Z</time>
      </trkpt>
      <trkpt lat="46.31124" lon="4.60075">
        <ele>464</ele>
        <time>2015-07-06T15:36:11Z</time>
      </trkpt>
      <trkpt lat="46.31118" lon="4.60074">
        <ele>465</ele>
        <time>2015-07-06T15:36:15Z</time>
      </trkpt>
      <trkpt lat="46.31103" lon="4.60074">
        <ele>462</ele>
        <time>2015-07-06T15:36:27Z</time>
      </trkpt>
      <trkpt lat="46.31068" lon="4.60071">
        <ele>464</ele>
        <time>2015-07-06T15:36:56Z</time>
      </trkpt>
      <trkpt lat="46.31063" lon="4.60072">
        <ele>462</ele>
        <time>2015-07-06T15:37:00Z</time>
      </trkpt>
      <trkpt lat="46.31043" lon="4.60069">
        <ele>463</ele>
        <time>2015-07-06T15:37:16Z</time>
      </trkpt>
      <trkpt lat="46.31009" lon="4.60058">
        <ele>462</ele>
        <time>2015-07-06T15:38:38Z</time>
      </trkpt>
      <trkpt lat="46.30972" lon="4.60034">
        <ele>467</ele>
        <time>2015-07-06T15:39:11Z</time>
      </trkpt>
      <trkpt lat="46.30967" lon="4.60032">
        <ele>467</ele>
        <time>2015-07-06T15:39:16Z</time>
      </trkpt>
      <trkpt lat="46.30931" lon="4.60025">
        <ele>471</ele>
        <time>2015-07-06T15:39:48Z</time>
      </trkpt>
      <trkpt lat="46.30916" lon="4.60018">
        <ele>473</ele>
        <time>2015-07-06T15:40:01Z</time>
      </trkpt>
      <trkpt lat="46.30912" lon="4.60014">
        <ele>473</ele>
        <time>2015-07-06T15:40:05Z</time>
      </trkpt>
      <trkpt lat="46.3088" lon="4.59995">
        <ele>475</ele>
        <time>2015-07-06T15:40:36Z</time>
      </trkpt>
      <trkpt lat="46.30863" lon="4.59981">
        <ele>477</ele>
        <time>2015-07-06T15:40:54Z</time>
      </trkpt>
      <trkpt lat="46.30842" lon="4.59969">
        <ele>477</ele>
        <time>2015-07-06T15:41:21Z</time>
      </trkpt>
      <trkpt lat="46.30837" lon="4.5997">
        <ele>478</ele>
        <time>2015-07-06T15:41:26Z</time>
      </trkpt>
      <trkpt lat="46.30832" lon="4.59972">
        <ele>478</ele>
        <time>2015-07-06T15:41:30Z</time>
      </trkpt>
      <trkpt lat="46.3081" lon="4.59993">
        <ele>475</ele>
        <time>2015-07-06T15:41:50Z</time>
      </trkpt>
      <trkpt lat="46.30805" lon="4.5999">
        <ele>474</ele>
        <time>2015-07-06T15:41:56Z</time>
      </trkpt>
      <trkpt lat="46.30801" lon="4.59994">
        <ele>474</ele>
        <time>2015-07-06T15:42:02Z</time>
      </trkpt>
      <trkpt lat="46.30795" lon="4.60006">
        <ele>473</ele>
        <time>2015-07-06T15:42:13Z</time>
      </trkpt>
      <trkpt lat="46.30791" lon="4.60012">
        <ele>470</ele>
        <time>2015-07-06T15:42:17Z</time>
      </trkpt>
      <trkpt lat="46.30789" lon="4.60019">
        <ele>471</ele>
        <time>2015-07-06T15:42:21Z</time>
      </trkpt>
      <trkpt lat="46.30786" lon="4.60024">
        <ele>471</ele>
        <time>2015-07-06T15:42:26Z</time>
      </trkpt>
      <trkpt lat="46.30776" lon="4.60032">
        <ele>472</ele>
        <time>2015-07-06T15:43:18Z</time>
      </trkpt>
      <trkpt lat="46.30771" lon="4.60043">
        <ele>476</ele>
        <time>2015-07-06T15:43:32Z</time>
      </trkpt>
      <trkpt lat="46.30766" lon="4.60046">
        <ele>476</ele>
        <time>2015-07-06T15:43:39Z</time>
      </trkpt>
      <trkpt lat="46.30762" lon="4.60051">
        <ele>475</ele>
        <time>2015-07-06T15:43:45Z</time>
      </trkpt>
      <trkpt lat="46.3076" lon="4.60058">
        <ele>472</ele>
        <time>2015-07-06T15:43:52Z</time>
      </trkpt>
      <trkpt lat="46.30764" lon="4.60079">
        <ele>469</ele>
        <time>2015-07-06T15:44:07Z</time>
      </trkpt>
      <trkpt lat="46.30766" lon="4.60085">
        <ele>468</ele>
        <time>2015-07-06T15:44:11Z</time>
      </trkpt>
      <trkpt lat="46.30764" lon="4.60099">
        <ele>466</ele>
        <time>2015-07-06T15:44:20Z</time>
      </trkpt>
      <trkpt lat="46.30757" lon="4.60112">
        <ele>466</ele>
        <time>2015-07-06T15:44:28Z</time>
      </trkpt>
      <trkpt lat="46.30753" lon="4.60117">
        <ele>466</ele>
        <time>2015-07-06T15:44:32Z</time>
      </trkpt>
      <trkpt lat="46.3075" lon="4.60123">
        <ele>466</ele>
        <time>2015-07-06T15:44:36Z</time>
      </trkpt>
      <trkpt lat="46.30751" lon="4.6013">
        <ele>466</ele>
        <time>2015-07-06T15:44:41Z</time>
      </trkpt>
      <trkpt lat="46.30749" lon="4.60137">
        <ele>466</ele>
        <time>2015-07-06T15:44:45Z</time>
      </trkpt>
      <trkpt lat="46.3075" lon="4.60144">
        <ele>466</ele>
        <time>2015-07-06T15:44:50Z</time>
      </trkpt>
      <trkpt lat="46.30753" lon="4.60188">
        <ele>465</ele>
        <time>2015-07-06T15:45:16Z</time>
      </trkpt>
      <trkpt lat="46.30746" lon="4.60196">
        <ele>465</ele>
        <time>2015-07-06T15:45:21Z</time>
      </trkpt>
      <trkpt lat="46.30725" lon="4.60226">
        <ele>462</ele>
        <time>2015-07-06T15:45:43Z</time>
      </trkpt>
      <trkpt lat="46.3071" lon="4.60243">
        <ele>463</ele>
        <time>2015-07-06T15:46:01Z</time>
      </trkpt>
      <trkpt lat="46.30706" lon="4.60242">
        <ele>464</ele>
        <time>2015-07-06T15:46:13Z</time>
      </trkpt>
      <trkpt lat="46.30698" lon="4.60249">
        <ele>464</ele>
        <time>2015-07-06T15:46:21Z</time>
      </trkpt>
      <trkpt lat="46.30688" lon="4.60255">
        <ele>467</ele>
        <time>2015-07-06T15:46:29Z</time>
      </trkpt>
      <trkpt lat="46.30679" lon="4.60257">
        <ele>467</ele>
        <time>2015-07-06T15:46:39Z</time>
      </trkpt>
      <trkpt lat="46.3066" lon="4.60246">
        <ele>471</ele>
        <time>2015-07-06T15:47:02Z</time>
      </trkpt>
      <trkpt lat="46.30656" lon="4.60246">
        <ele>470</ele>
        <time>2015-07-06T15:47:10Z</time>
      </trkpt>
      <trkpt lat="46.30658" lon="4.6024">
        <ele>470</ele>
        <time>2015-07-06T15:47:14Z</time>
      </trkpt>
      <trkpt lat="46.30653" lon="4.60239">
        <ele>470</ele>
        <time>2015-07-06T15:47:17Z</time>
      </trkpt>
      <trkpt lat="46.30651" lon="4.6024">
        <ele>470</ele>
        <time>2015-07-06T15:47:18Z</time>
      </trkpt>
      <trkpt lat="46.30649" lon="4.60237">
        <ele>470</ele>
        <time>2015-07-06T15:47:33Z</time>
      </trkpt>
      <trkpt lat="46.30645" lon="4.60232">
        <ele>472</ele>
        <time>2015-07-06T15:47:47Z</time>
      </trkpt>
      <trkpt lat="46.30645" lon="4.60225">
        <ele>472</ele>
        <time>2015-07-06T15:47:50Z</time>
      </trkpt>
      <trkpt lat="46.30644" lon="4.60218">
        <ele>472</ele>
        <time>2015-07-06T15:47:55Z</time>
      </trkpt>
      <trkpt lat="46.30649" lon="4.60216">
        <ele>472</ele>
        <time>2015-07-06T15:47:59Z</time>
      </trkpt>
      <trkpt lat="46.30652" lon="4.60211">
        <ele>473</ele>
        <time>2015-07-06T15:48:03Z</time>
      </trkpt>
      <trkpt lat="46.30656" lon="4.60221">
        <ele>473</ele>
        <time>2015-07-06T15:48:31Z</time>
      </trkpt>
      <trkpt lat="46.30655" lon="4.60219">
        <ele>471</ele>
        <time>2015-07-06T15:49:28Z</time>
      </trkpt>
      <trkpt lat="46.30657" lon="4.60213">
        <ele>471</ele>
        <time>2015-07-06T15:49:34Z</time>
      </trkpt>
      <trkpt lat="46.3066" lon="4.60209">
        <ele>468</ele>
        <time>2015-07-06T15:50:18Z</time>
      </trkpt>
      <trkpt lat="46.30575" lon="4.60215">
        <ele>467</ele>
        <time>2015-07-07T07:24:00Z</time>
      </trkpt>
      <trkpt lat="46.30571" lon="4.60215">
        <ele>469</ele>
        <time>2015-07-07T07:24:04Z</time>
      </trkpt>
      <trkpt lat="46.30557" lon="4.60219">
        <ele>470</ele>
        <time>2015-07-07T07:24:16Z</time>
      </trkpt>
      <trkpt lat="46.30548" lon="4.60223">
        <ele>469</ele>
        <time>2015-07-07T07:24:30Z</time>
      </trkpt>
      <trkpt lat="46.30547" lon="4.6022">
        <ele>470</ele>
        <time>2015-07-07T07:24:36Z</time>
      </trkpt>
      <trkpt lat="46.30531" lon="4.60224">
        <ele>468</ele>
        <time>2015-07-07T07:24:47Z</time>
      </trkpt>
      <trkpt lat="46.30526" lon="4.60224">
        <ele>469</ele>
        <time>2015-07-07T07:24:51Z</time>
      </trkpt>
      <trkpt lat="46.30502" lon="4.60233">
        <ele>468</ele>
        <time>2015-07-07T07:25:13Z</time>
      </trkpt>
      <trkpt lat="46.30496" lon="4.60232">
        <ele>468</ele>
        <time>2015-07-07T07:25:17Z</time>
      </trkpt>
      <trkpt lat="46.30486" lon="4.60236">
        <ele>467</ele>
        <time>2015-07-07T07:25:29Z</time>
      </trkpt>
      <trkpt lat="46.30478" lon="4.60245">
        <ele>465</ele>
        <time>2015-07-07T07:25:38Z</time>
      </trkpt>
      <trkpt lat="46.30468" lon="4.60249">
        <ele>466</ele>
        <time>2015-07-07T07:25:48Z</time>
      </trkpt>
      <trkpt lat="46.30437" lon="4.60255">
        <ele>463</ele>
        <time>2015-07-07T07:26:20Z</time>
      </trkpt>
      <trkpt lat="46.30408" lon="4.60267">
        <ele>461</ele>
        <time>2015-07-07T07:26:45Z</time>
      </trkpt>
      <trkpt lat="46.30391" lon="4.60269">
        <ele>460</ele>
        <time>2015-07-07T07:26:55Z</time>
      </trkpt>
      <trkpt lat="46.30383" lon="4.60274">
        <ele>459</ele>
        <time>2015-07-07T07:27:04Z</time>
      </trkpt>
      <trkpt lat="46.30374" lon="4.60274">
        <ele>459</ele>
        <time>2015-07-07T07:27:08Z</time>
      </trkpt>
      <trkpt lat="46.30371" lon="4.60276">
        <ele>459</ele>
        <time>2015-07-07T07:27:09Z</time>
      </trkpt>
      <trkpt lat="46.30368" lon="4.60278">
        <ele>458</ele>
        <time>2015-07-07T07:27:10Z</time>
      </trkpt>
      <trkpt lat="46.30365" lon="4.60275">
        <ele>456</ele>
        <time>2015-07-07T07:27:23Z</time>
      </trkpt>
      <trkpt lat="46.30363" lon="4.60275">
        <ele>456</ele>
        <time>2015-07-07T07:27:24Z</time>
      </trkpt>
      <trkpt lat="46.3036" lon="4.60274">
        <ele>456</ele>
        <time>2015-07-07T07:27:25Z</time>
      </trkpt>
      <trkpt lat="46.30357" lon="4.60267">
        <ele>456</ele>
        <time>2015-07-07T07:27:31Z</time>
      </trkpt>
      <trkpt lat="46.30354" lon="4.60267">
        <ele>456</ele>
        <time>2015-07-07T07:27:32Z</time>
      </trkpt>
      <trkpt lat="46.30345" lon="4.60274">
        <ele>456</ele>
        <time>2015-07-07T07:27:36Z</time>
      </trkpt>
      <trkpt lat="46.3034" lon="4.60275">
        <ele>455</ele>
        <time>2015-07-07T07:27:39Z</time>
      </trkpt>
      <trkpt lat="46.30336" lon="4.60274">
        <ele>454</ele>
        <time>2015-07-07T07:27:49Z</time>
      </trkpt>
      <trkpt lat="46.30322" lon="4.60281">
        <ele>453</ele>
        <time>2015-07-07T07:27:53Z</time>
      </trkpt>
      <trkpt lat="46.30323" lon="4.60285">
        <ele>453</ele>
        <time>2015-07-07T07:28:00Z</time>
      </trkpt>
      <trkpt lat="46.30291" lon="4.60293">
        <ele>452</ele>
        <time>2015-07-07T07:28:25Z</time>
      </trkpt>
      <trkpt lat="46.30268" lon="4.60299">
        <ele>451</ele>
        <time>2015-07-07T07:28:42Z</time>
      </trkpt>
      <trkpt lat="46.30265" lon="4.60295">
        <ele>451</ele>
        <time>2015-07-07T07:28:46Z</time>
      </trkpt>
      <trkpt lat="46.30263" lon="4.60292">
        <ele>451</ele>
        <time>2015-07-07T07:28:53Z</time>
      </trkpt>
      <trkpt lat="46.3026" lon="4.60298">
        <ele>451</ele>
        <time>2015-07-07T07:29:12Z</time>
      </trkpt>
      <trkpt lat="46.30256" lon="4.60303">
        <ele>451</ele>
        <time>2015-07-07T07:29:16Z</time>
      </trkpt>
      <trkpt lat="46.30251" lon="4.60306">
        <ele>451</ele>
        <time>2015-07-07T07:29:21Z</time>
      </trkpt>
      <trkpt lat="46.30242" lon="4.60304">
        <ele>450</ele>
        <time>2015-07-07T07:29:29Z</time>
      </trkpt>
      <trkpt lat="46.30227" lon="4.60307">
        <ele>447</ele>
        <time>2015-07-07T07:29:42Z</time>
      </trkpt>
      <trkpt lat="46.30222" lon="4.60309">
        <ele>449</ele>
        <time>2015-07-07T07:29:46Z</time>
      </trkpt>
      <trkpt lat="46.30183" lon="4.60322">
        <ele>445</ele>
        <time>2015-07-07T07:30:20Z</time>
      </trkpt>
      <trkpt lat="46.30144" lon="4.60356">
        <ele>443</ele>
        <time>2015-07-07T07:30:56Z</time>
      </trkpt>
      <trkpt lat="46.30134" lon="4.60363">
        <ele>443</ele>
        <time>2015-07-07T07:31:04Z</time>
      </trkpt>
      <trkpt lat="46.3013" lon="4.60366">
        <ele>442</ele>
        <time>2015-07-07T07:31:08Z</time>
      </trkpt>
      <trkpt lat="46.30121" lon="4.60374">
        <ele>441</ele>
        <time>2015-07-07T07:31:17Z</time>
      </trkpt>
      <trkpt lat="46.30094" lon="4.60406">
        <ele>440</ele>
        <time>2015-07-07T07:31:49Z</time>
      </trkpt>
      <trkpt lat="46.30066" lon="4.6045">
        <ele>444</ele>
        <time>2015-07-07T07:32:46Z</time>
      </trkpt>
      <trkpt lat="46.30064" lon="4.60459">
        <ele>443</ele>
        <time>2015-07-07T07:32:48Z</time>
      </trkpt>
      <trkpt lat="46.30052" lon="4.60492">
        <ele>439</ele>
        <time>2015-07-07T07:33:09Z</time>
      </trkpt>
      <trkpt lat="46.30026" lon="4.60546">
        <ele>438</ele>
        <time>2015-07-07T07:33:43Z</time>
      </trkpt>
      <trkpt lat="46.29964" lon="4.60593">
        <ele>436</ele>
        <time>2015-07-07T07:34:43Z</time>
      </trkpt>
      <trkpt lat="46.29926" lon="4.60615">
        <ele>436</ele>
        <time>2015-07-07T07:35:18Z</time>
      </trkpt>
      <trkpt lat="46.29911" lon="4.60622">
        <ele>436</ele>
        <time>2015-07-07T07:35:32Z</time>
      </trkpt>
      <trkpt lat="46.29904" lon="4.60627">
        <ele>438</ele>
        <time>2015-07-07T07:35:50Z</time>
      </trkpt>
      <trkpt lat="46.29904" lon="4.60635">
        <ele>440</ele>
        <time>2015-07-07T07:38:12Z</time>
      </trkpt>
      <trkpt lat="46.29877" lon="4.60656">
        <ele>439</ele>
        <time>2015-07-07T07:42:47Z</time>
      </trkpt>
      <trkpt lat="46.29872" lon="4.60658">
        <ele>439</ele>
        <time>2015-07-07T07:42:50Z</time>
      </trkpt>
      <trkpt lat="46.29862" lon="4.60669">
        <ele>440</ele>
        <time>2015-07-07T07:42:59Z</time>
      </trkpt>
      <trkpt lat="46.29857" lon="4.60672">
        <ele>440</ele>
        <time>2015-07-07T07:43:04Z</time>
      </trkpt>
      <trkpt lat="46.29851" lon="4.60675">
        <ele>440</ele>
        <time>2015-07-07T07:43:09Z</time>
      </trkpt>
      <trkpt lat="46.2985" lon="4.60679">
        <ele>439</ele>
        <time>2015-07-07T07:43:15Z</time>
      </trkpt>
      <trkpt lat="46.29844" lon="4.60679">
        <ele>438</ele>
        <time>2015-07-07T07:43:22Z</time>
      </trkpt>
      <trkpt lat="46.29821" lon="4.60698">
        <ele>434</ele>
        <time>2015-07-07T07:43:44Z</time>
      </trkpt>
      <trkpt lat="46.29816" lon="4.60701">
        <ele>433</ele>
        <time>2015-07-07T07:43:49Z</time>
      </trkpt>
      <trkpt lat="46.29801" lon="4.60711">
        <ele>429</ele>
        <time>2015-07-07T07:44:01Z</time>
      </trkpt>
      <trkpt lat="46.29777" lon="4.60739">
        <ele>427</ele>
        <time>2015-07-07T07:44:26Z</time>
      </trkpt>
      <trkpt lat="46.29705" lon="4.60797">
        <ele>427</ele>
        <time>2015-07-07T07:45:42Z</time>
      </trkpt>
      <trkpt lat="46.29702" lon="4.60803">
        <ele>427</ele>
        <time>2015-07-07T07:45:46Z</time>
      </trkpt>
      <trkpt lat="46.29697" lon="4.60807">
        <ele>427</ele>
        <time>2015-07-07T07:45:50Z</time>
      </trkpt>
      <trkpt lat="46.29692" lon="4.6081">
        <ele>426</ele>
        <time>2015-07-07T07:45:55Z</time>
      </trkpt>
      <trkpt lat="46.29679" lon="4.60822">
        <ele>425</ele>
        <time>2015-07-07T07:46:07Z</time>
      </trkpt>
      <trkpt lat="46.29672" lon="4.60832">
        <ele>423</ele>
        <time>2015-07-07T07:46:17Z</time>
      </trkpt>
      <trkpt lat="46.29668" lon="4.60829">
        <ele>424</ele>
        <time>2015-07-07T07:46:44Z</time>
      </trkpt>
      <trkpt lat="46.29629" lon="4.6085">
        <ele>419</ele>
        <time>2015-07-07T07:47:22Z</time>
      </trkpt>
      <trkpt lat="46.29618" lon="4.60849">
        <ele>417</ele>
        <time>2015-07-07T07:47:32Z</time>
      </trkpt>
      <trkpt lat="46.29616" lon="4.60851">
        <ele>416</ele>
        <time>2015-07-07T07:47:34Z</time>
      </trkpt>
      <trkpt lat="46.29612" lon="4.60852">
        <ele>415</ele>
        <time>2015-07-07T07:47:38Z</time>
      </trkpt>
      <trkpt lat="46.29584" lon="4.60839">
        <ele>409</ele>
        <time>2015-07-07T07:48:08Z</time>
      </trkpt>
      <trkpt lat="46.29569" lon="4.60841">
        <ele>407</ele>
        <time>2015-07-07T07:48:22Z</time>
      </trkpt>
      <trkpt lat="46.29564" lon="4.6084">
        <ele>407</ele>
        <time>2015-07-07T07:48:26Z</time>
      </trkpt>
      <trkpt lat="46.29559" lon="4.6084">
        <ele>406</ele>
        <time>2015-07-07T07:48:31Z</time>
      </trkpt>
      <trkpt lat="46.29555" lon="4.60835">
        <ele>406</ele>
        <time>2015-07-07T07:48:37Z</time>
      </trkpt>
      <trkpt lat="46.29551" lon="4.60832">
        <ele>406</ele>
        <time>2015-07-07T07:48:42Z</time>
      </trkpt>
      <trkpt lat="46.29546" lon="4.60833">
        <ele>406</ele>
        <time>2015-07-07T07:48:46Z</time>
      </trkpt>
      <trkpt lat="46.29531" lon="4.6083">
        <ele>405</ele>
        <time>2015-07-07T07:49:02Z</time>
      </trkpt>
      <trkpt lat="46.29528" lon="4.60825">
        <ele>403</ele>
        <time>2015-07-07T07:49:09Z</time>
      </trkpt>
      <trkpt lat="46.29502" lon="4.60818">
        <ele>401</ele>
        <time>2015-07-07T07:49:27Z</time>
      </trkpt>
      <trkpt lat="46.29456" lon="4.60812">
        <ele>400</ele>
        <time>2015-07-07T07:50:02Z</time>
      </trkpt>
      <trkpt lat="46.29421" lon="4.60816">
        <ele>398</ele>
        <time>2015-07-07T07:50:35Z</time>
      </trkpt>
      <trkpt lat="46.29416" lon="4.60818">
        <ele>398</ele>
        <time>2015-07-07T07:50:40Z</time>
      </trkpt>
      <trkpt lat="46.29407" lon="4.60806">
        <ele>398</ele>
        <time>2015-07-07T07:51:33Z</time>
      </trkpt>
      <trkpt lat="46.29379" lon="4.60757">
        <ele>394</ele>
        <time>2015-07-07T07:52:14Z</time>
      </trkpt>
      <trkpt lat="46.29368" lon="4.60742">
        <ele>394</ele>
        <time>2015-07-07T07:52:29Z</time>
      </trkpt>
      <trkpt lat="46.29359" lon="4.60734">
        <ele>393</ele>
        <time>2015-07-07T07:52:38Z</time>
      </trkpt>
      <trkpt lat="46.29355" lon="4.6073">
        <ele>393</ele>
        <time>2015-07-07T07:52:42Z</time>
      </trkpt>
      <trkpt lat="46.29346" lon="4.60727">
        <ele>393</ele>
        <time>2015-07-07T07:53:01Z</time>
      </trkpt>
      <trkpt lat="46.29341" lon="4.6073">
        <ele>393</ele>
        <time>2015-07-07T07:53:05Z</time>
      </trkpt>
      <trkpt lat="46.29316" lon="4.60754">
        <ele>393</ele>
        <time>2015-07-07T07:53:30Z</time>
      </trkpt>
      <trkpt lat="46.29311" lon="4.60752">
        <ele>392</ele>
        <time>2015-07-07T07:53:34Z</time>
      </trkpt>
      <trkpt lat="46.29307" lon="4.60746">
        <ele>392</ele>
        <time>2015-07-07T07:53:40Z</time>
      </trkpt>
      <trkpt lat="46.29305" lon="4.60739">
        <ele>392</ele>
        <time>2015-07-07T07:53:45Z</time>
      </trkpt>
      <trkpt lat="46.29308" lon="4.60718">
        <ele>392</ele>
        <time>2015-07-07T07:54:01Z</time>
      </trkpt>
      <trkpt lat="46.29318" lon="4.60694">
        <ele>397</ele>
        <time>2015-07-07T07:54:22Z</time>
      </trkpt>
      <trkpt lat="46.29317" lon="4.6068">
        <ele>399</ele>
        <time>2015-07-07T07:54:36Z</time>
      </trkpt>
      <trkpt lat="46.29312" lon="4.6066">
        <ele>403</ele>
        <time>2015-07-07T07:54:53Z</time>
      </trkpt>
      <trkpt lat="46.29284" lon="4.60629">
        <ele>404</ele>
        <time>2015-07-07T07:55:23Z</time>
      </trkpt>
      <trkpt lat="46.2926" lon="4.60616">
        <ele>406</ele>
        <time>2015-07-07T07:55:47Z</time>
      </trkpt>
      <trkpt lat="46.2922" lon="4.60624">
        <ele>415</ele>
        <time>2015-07-07T07:56:37Z</time>
      </trkpt>
      <trkpt lat="46.29215" lon="4.60624">
        <ele>415</ele>
        <time>2015-07-07T07:56:44Z</time>
      </trkpt>
      <trkpt lat="46.29186" lon="4.60645">
        <ele>419</ele>
        <time>2015-07-07T07:57:16Z</time>
      </trkpt>
      <trkpt lat="46.29156" lon="4.6066">
        <ele>424</ele>
        <time>2015-07-07T07:57:46Z</time>
      </trkpt>
      <trkpt lat="46.29126" lon="4.60687">
        <ele>426</ele>
        <time>2015-07-07T07:58:19Z</time>
      </trkpt>
      <trkpt lat="46.29115" lon="4.60686">
        <ele>427</ele>
        <time>2015-07-07T07:58:29Z</time>
      </trkpt>
      <trkpt lat="46.29094" lon="4.60704">
        <ele>429</ele>
        <time>2015-07-07T07:58:50Z</time>
      </trkpt>
      <trkpt lat="46.29091" lon="4.60708">
        <ele>430</ele>
        <time>2015-07-07T07:58:54Z</time>
      </trkpt>
      <trkpt lat="46.29087" lon="4.6071">
        <ele>430</ele>
        <time>2015-07-07T07:58:56Z</time>
      </trkpt>
      <trkpt lat="46.29085" lon="4.60714">
        <ele>430</ele>
        <time>2015-07-07T07:58:58Z</time>
      </trkpt>
      <trkpt lat="46.29078" lon="4.60717">
        <ele>430</ele>
        <time>2015-07-07T07:59:12Z</time>
      </trkpt>
      <trkpt lat="46.29065" lon="4.60736">
        <ele>432</ele>
        <time>2015-07-07T07:59:32Z</time>
      </trkpt>
      <trkpt lat="46.29061" lon="4.60738">
        <ele>432</ele>
        <time>2015-07-07T07:59:35Z</time>
      </trkpt>
      <trkpt lat="46.2906" lon="4.60742">
        <ele>432</ele>
        <time>2015-07-07T07:59:36Z</time>
      </trkpt>
      <trkpt lat="46.29056" lon="4.60748">
        <ele>432</ele>
        <time>2015-07-07T07:59:40Z</time>
      </trkpt>
      <trkpt lat="46.29049" lon="4.60749">
        <ele>432</ele>
        <time>2015-07-07T07:59:47Z</time>
      </trkpt>
      <trkpt lat="46.29045" lon="4.60753">
        <ele>432</ele>
        <time>2015-07-07T07:59:51Z</time>
      </trkpt>
      <trkpt lat="46.2901" lon="4.60777">
        <ele>440</ele>
        <time>2015-07-07T08:00:22Z</time>
      </trkpt>
      <trkpt lat="46.29005" lon="4.60776">
        <ele>441</ele>
        <time>2015-07-07T08:00:26Z</time>
      </trkpt>
      <trkpt lat="46.28965" lon="4.60778">
        <ele>444</ele>
        <time>2015-07-07T08:00:59Z</time>
      </trkpt>
      <trkpt lat="46.2893" lon="4.60788">
        <ele>445</ele>
        <time>2015-07-07T08:01:33Z</time>
      </trkpt>
      <trkpt lat="46.28894" lon="4.60791">
        <ele>444</ele>
        <time>2015-07-07T08:02:05Z</time>
      </trkpt>
      <trkpt lat="46.28859" lon="4.60798">
        <ele>442</ele>
        <time>2015-07-07T08:02:36Z</time>
      </trkpt>
      <trkpt lat="46.28829" lon="4.60809">
        <ele>442</ele>
        <time>2015-07-07T08:03:02Z</time>
      </trkpt>
      <trkpt lat="46.28814" lon="4.60812">
        <ele>441</ele>
        <time>2015-07-07T08:03:15Z</time>
      </trkpt>
      <trkpt lat="46.28802" lon="4.60823">
        <ele>441</ele>
        <time>2015-07-07T08:03:27Z</time>
      </trkpt>
      <trkpt lat="46.28798" lon="4.60828">
        <ele>441</ele>
        <time>2015-07-07T08:03:32Z</time>
      </trkpt>
      <trkpt lat="46.28794" lon="4.60842">
        <ele>442</ele>
        <time>2015-07-07T08:03:42Z</time>
      </trkpt>
      <trkpt lat="46.28795" lon="4.60849">
        <ele>443</ele>
        <time>2015-07-07T08:03:46Z</time>
      </trkpt>
      <trkpt lat="46.2879" lon="4.60876">
        <ele>441</ele>
        <time>2015-07-07T08:04:04Z</time>
      </trkpt>
      <trkpt lat="46.28775" lon="4.60907">
        <ele>443</ele>
        <time>2015-07-07T08:04:24Z</time>
      </trkpt>
      <trkpt lat="46.28763" lon="4.60921">
        <ele>444</ele>
        <time>2015-07-07T08:04:36Z</time>
      </trkpt>
      <trkpt lat="46.28747" lon="4.60929">
        <ele>443</ele>
        <time>2015-07-07T08:04:51Z</time>
      </trkpt>
      <trkpt lat="46.28746" lon="4.60932">
        <ele>443</ele>
        <time>2015-07-07T08:05:02Z</time>
      </trkpt>
      <trkpt lat="46.28735" lon="4.60936">
        <ele>439</ele>
        <time>2015-07-07T08:05:32Z</time>
      </trkpt>
      <trkpt lat="46.28705" lon="4.60942">
        <ele>437</ele>
        <time>2015-07-07T08:05:57Z</time>
      </trkpt>
      <trkpt lat="46.287" lon="4.60945">
        <ele>438</ele>
        <time>2015-07-07T08:06:02Z</time>
      </trkpt>
      <trkpt lat="46.28695" lon="4.60945">
        <ele>438</ele>
        <time>2015-07-07T08:06:08Z</time>
      </trkpt>
      <trkpt lat="46.2869" lon="4.60946">
        <ele>438</ele>
        <time>2015-07-07T08:06:12Z</time>
      </trkpt>
      <trkpt lat="46.28686" lon="4.60948">
        <ele>438</ele>
        <time>2015-07-07T08:06:16Z</time>
      </trkpt>
      <trkpt lat="46.28665" lon="4.60953">
        <ele>437</ele>
        <time>2015-07-07T08:06:31Z</time>
      </trkpt>
      <trkpt lat="46.28655" lon="4.60958">
        <ele>437</ele>
        <time>2015-07-07T08:06:38Z</time>
      </trkpt>
      <trkpt lat="46.28647" lon="4.60964">
        <ele>437</ele>
        <time>2015-07-07T08:06:49Z</time>
      </trkpt>
      <trkpt lat="46.28639" lon="4.60959">
        <ele>436</ele>
        <time>2015-07-07T08:07:01Z</time>
      </trkpt>
      <trkpt lat="46.28628" lon="4.60962">
        <ele>437</ele>
        <time>2015-07-07T08:07:08Z</time>
      </trkpt>
      <trkpt lat="46.28609" lon="4.60971">
        <ele>439</ele>
        <time>2015-07-07T08:07:23Z</time>
      </trkpt>
      <trkpt lat="46.28599" lon="4.6097">
        <ele>439</ele>
        <time>2015-07-07T08:07:31Z</time>
      </trkpt>
      <trkpt lat="46.28589" lon="4.60968">
        <ele>440</ele>
        <time>2015-07-07T08:07:39Z</time>
      </trkpt>
      <trkpt lat="46.2858" lon="4.60971">
        <ele>440</ele>
        <time>2015-07-07T08:07:46Z</time>
      </trkpt>
      <trkpt lat="46.2857" lon="4.60975">
        <ele>441</ele>
        <time>2015-07-07T08:07:52Z</time>
      </trkpt>
      <trkpt lat="46.28564" lon="4.60979">
        <ele>442</ele>
        <time>2015-07-07T08:08:04Z</time>
      </trkpt>
      <trkpt lat="46.28562" lon="4.60977">
        <ele>443</ele>
        <time>2015-07-07T08:08:16Z</time>
      </trkpt>
      <trkpt lat="46.28557" lon="4.60977">
        <ele>442</ele>
        <time>2015-07-07T08:08:20Z</time>
      </trkpt>
      <trkpt lat="46.28547" lon="4.60981">
        <ele>442</ele>
        <time>2015-07-07T08:08:30Z</time>
      </trkpt>
      <trkpt lat="46.28542" lon="4.60981">
        <ele>444</ele>
        <time>2015-07-07T08:08:34Z</time>
      </trkpt>
      <trkpt lat="46.28518" lon="4.60984">
        <ele>447</ele>
        <time>2015-07-07T08:08:52Z</time>
      </trkpt>
      <trkpt lat="46.28514" lon="4.60986">
        <ele>448</ele>
        <time>2015-07-07T08:08:58Z</time>
      </trkpt>
      <trkpt lat="46.28493" lon="4.61004">
        <ele>447</ele>
        <time>2015-07-07T08:09:19Z</time>
      </trkpt>
      <trkpt lat="46.28477" lon="4.61034">
        <ele>447</ele>
        <time>2015-07-07T08:09:45Z</time>
      </trkpt>
      <trkpt lat="46.28476" lon="4.61041">
        <ele>445</ele>
        <time>2015-07-07T08:09:50Z</time>
      </trkpt>
      <trkpt lat="46.28475" lon="4.61056">
        <ele>447</ele>
        <time>2015-07-07T08:09:56Z</time>
      </trkpt>
      <trkpt lat="46.28489" lon="4.61104">
        <ele>444</ele>
        <time>2015-07-07T08:10:24Z</time>
      </trkpt>
      <trkpt lat="46.28492" lon="4.61111">
        <ele>444</ele>
        <time>2015-07-07T08:10:28Z</time>
      </trkpt>
      <trkpt lat="46.28495" lon="4.61116">
        <ele>443</ele>
        <time>2015-07-07T08:10:32Z</time>
      </trkpt>
      <trkpt lat="46.285" lon="4.61119">
        <ele>444</ele>
        <time>2015-07-07T08:10:38Z</time>
      </trkpt>
      <trkpt lat="46.28502" lon="4.61141">
        <ele>446</ele>
        <time>2015-07-07T08:10:50Z</time>
      </trkpt>
      <trkpt lat="46.28498" lon="4.61134">
        <ele>445</ele>
        <time>2015-07-07T08:12:33Z</time>
      </trkpt>
      <trkpt lat="46.28496" lon="4.61129">
        <ele>445</ele>
        <time>2015-07-07T08:12:38Z</time>
      </trkpt>
      <trkpt lat="46.28494" lon="4.61136">
        <ele>444</ele>
        <time>2015-07-07T08:12:45Z</time>
      </trkpt>
      <trkpt lat="46.28491" lon="4.61165">
        <ele>443</ele>
        <time>2015-07-07T08:13:02Z</time>
      </trkpt>
      <trkpt lat="46.28482" lon="4.61193">
        <ele>443</ele>
        <time>2015-07-07T08:13:17Z</time>
      </trkpt>
      <trkpt lat="46.28471" lon="4.61262">
        <ele>446</ele>
        <time>2015-07-07T08:13:59Z</time>
      </trkpt>
      <trkpt lat="46.28468" lon="4.61356">
        <ele>440</ele>
        <time>2015-07-07T08:14:55Z</time>
      </trkpt>
      <trkpt lat="46.28466" lon="4.61362">
        <ele>441</ele>
        <time>2015-07-07T08:14:59Z</time>
      </trkpt>
      <trkpt lat="46.28452" lon="4.61381">
        <ele>441</ele>
        <time>2015-07-07T08:15:15Z</time>
      </trkpt>
      <trkpt lat="46.28445" lon="4.61389">
        <ele>440</ele>
        <time>2015-07-07T08:15:23Z</time>
      </trkpt>
      <trkpt lat="46.28436" lon="4.61391">
        <ele>438</ele>
        <time>2015-07-07T08:15:31Z</time>
      </trkpt>
      <trkpt lat="46.28418" lon="4.61404">
        <ele>434</ele>
        <time>2015-07-07T08:15:51Z</time>
      </trkpt>
      <trkpt lat="46.28409" lon="4.61414">
        <ele>433</ele>
        <time>2015-07-07T08:16:01Z</time>
      </trkpt>
      <trkpt lat="46.28396" lon="4.61438">
        <ele>435</ele>
        <time>2015-07-07T08:16:15Z</time>
      </trkpt>
      <trkpt lat="46.28395" lon="4.61444">
        <ele>436</ele>
        <time>2015-07-07T08:16:20Z</time>
      </trkpt>
      <trkpt lat="46.28372" lon="4.61503">
        <ele>440</ele>
        <time>2015-07-07T08:16:55Z</time>
      </trkpt>
      <trkpt lat="46.2837" lon="4.61514">
        <ele>440</ele>
        <time>2015-07-07T08:17:03Z</time>
      </trkpt>
      <trkpt lat="46.28348" lon="4.61586">
        <ele>441</ele>
        <time>2015-07-07T08:17:47Z</time>
      </trkpt>
      <trkpt lat="46.2833" lon="4.61609">
        <ele>442</ele>
        <time>2015-07-07T08:18:06Z</time>
      </trkpt>
      <trkpt lat="46.28312" lon="4.61622">
        <ele>442</ele>
        <time>2015-07-07T08:18:24Z</time>
      </trkpt>
      <trkpt lat="46.2829" lon="4.61623">
        <ele>443</ele>
        <time>2015-07-07T08:18:42Z</time>
      </trkpt>
      <trkpt lat="46.28287" lon="4.61626">
        <ele>443</ele>
        <time>2015-07-07T08:18:51Z</time>
      </trkpt>
      <trkpt lat="46.28288" lon="4.61632">
        <ele>443</ele>
        <time>2015-07-07T08:19:05Z</time>
      </trkpt>
      <trkpt lat="46.2829" lon="4.6163">
        <ele>442</ele>
        <time>2015-07-07T08:36:15Z</time>
      </trkpt>
      <trkpt lat="46.28279" lon="4.61629">
        <ele>442</ele>
        <time>2015-07-07T08:40:21Z</time>
      </trkpt>
      <trkpt lat="46.2827" lon="4.61625">
        <ele>443</ele>
        <time>2015-07-07T08:40:34Z</time>
      </trkpt>
      <trkpt lat="46.28262" lon="4.61631">
        <ele>444</ele>
        <time>2015-07-07T08:40:42Z</time>
      </trkpt>
      <trkpt lat="46.28234" lon="4.61632">
        <ele>449</ele>
        <time>2015-07-07T08:41:14Z</time>
      </trkpt>
      <trkpt lat="46.28232" lon="4.61623">
        <ele>448</ele>
        <time>2015-07-07T08:41:36Z</time>
      </trkpt>
      <trkpt lat="46.28223" lon="4.61628">
        <ele>448</ele>
        <time>2015-07-07T08:41:43Z</time>
      </trkpt>
      <trkpt lat="46.28205" lon="4.61644">
        <ele>448</ele>
        <time>2015-07-07T08:41:57Z</time>
      </trkpt>
      <trkpt lat="46.28191" lon="4.61643">
        <ele>447</ele>
        <time>2015-07-07T08:42:05Z</time>
      </trkpt>
      <trkpt lat="46.28185" lon="4.61642">
        <ele>447</ele>
        <time>2015-07-07T08:42:09Z</time>
      </trkpt>
      <trkpt lat="46.28149" lon="4.61645">
        <ele>449</ele>
        <time>2015-07-07T08:42:38Z</time>
      </trkpt>
      <trkpt lat="46.28129" lon="4.61657">
        <ele>446</ele>
        <time>2015-07-07T08:42:59Z</time>
      </trkpt>
      <trkpt lat="46.28128" lon="4.61663">
        <ele>446</ele>
        <time>2015-07-07T08:43:05Z</time>
      </trkpt>
      <trkpt lat="46.28123" lon="4.61667">
        <ele>445</ele>
        <time>2015-07-07T08:43:09Z</time>
      </trkpt>
      <trkpt lat="46.28118" lon="4.6167">
        <ele>445</ele>
        <time>2015-07-07T08:43:13Z</time>
      </trkpt>
      <trkpt lat="46.28103" lon="4.61696">
        <ele>442</ele>
        <time>2015-07-07T08:43:42Z</time>
      </trkpt>
      <trkpt lat="46.28098" lon="4.61698">
        <ele>442</ele>
        <time>2015-07-07T08:43:46Z</time>
      </trkpt>
      <trkpt lat="46.28085" lon="4.61691">
        <ele>441</ele>
        <time>2015-07-07T08:44:06Z</time>
      </trkpt>
      <trkpt lat="46.28071" lon="4.61696">
        <ele>439</ele>
        <time>2015-07-07T08:44:29Z</time>
      </trkpt>
      <trkpt lat="46.28064" lon="4.61706">
        <ele>440</ele>
        <time>2015-07-07T08:44:42Z</time>
      </trkpt>
      <trkpt lat="46.28061" lon="4.61715">
        <ele>438</ele>
        <time>2015-07-07T08:45:01Z</time>
      </trkpt>
      <trkpt lat="46.28055" lon="4.61725">
        <ele>438</ele>
        <time>2015-07-07T08:45:09Z</time>
      </trkpt>
      <trkpt lat="46.28051" lon="4.61738">
        <ele>439</ele>
        <time>2015-07-07T08:45:18Z</time>
      </trkpt>
      <trkpt lat="46.28046" lon="4.6175">
        <ele>440</ele>
        <time>2015-07-07T08:45:27Z</time>
      </trkpt>
      <trkpt lat="46.28038" lon="4.61759">
        <ele>438</ele>
        <time>2015-07-07T08:45:36Z</time>
      </trkpt>
      <trkpt lat="46.27963" lon="4.61921">
        <ele>450</ele>
        <time>2015-07-07T08:47:23Z</time>
      </trkpt>
      <trkpt lat="46.27949" lon="4.61936">
        <ele>453</ele>
        <time>2015-07-07T08:47:40Z</time>
      </trkpt>
      <trkpt lat="46.27872" lon="4.61965">
        <ele>464</ele>
        <time>2015-07-07T08:49:10Z</time>
      </trkpt>
      <trkpt lat="46.27854" lon="4.61976">
        <ele>469</ele>
        <time>2015-07-07T08:49:24Z</time>
      </trkpt>
      <trkpt lat="46.27845" lon="4.61981">
        <ele>468</ele>
        <time>2015-07-07T08:49:31Z</time>
      </trkpt>
      <trkpt lat="46.2781" lon="4.62004">
        <ele>478</ele>
        <time>2015-07-07T08:50:14Z</time>
      </trkpt>
      <trkpt lat="46.27802" lon="4.62012">
        <ele>478</ele>
        <time>2015-07-07T08:50:20Z</time>
      </trkpt>
      <trkpt lat="46.27779" lon="4.62025">
        <ele>475</ele>
        <time>2015-07-07T08:50:46Z</time>
      </trkpt>
      <trkpt lat="46.27736" lon="4.62062">
        <ele>476</ele>
        <time>2015-07-07T08:51:21Z</time>
      </trkpt>
      <trkpt lat="46.27709" lon="4.62064">
        <ele>485</ele>
        <time>2015-07-07T08:51:56Z</time>
      </trkpt>
      <trkpt lat="46.2771" lon="4.6206">
        <ele>486</ele>
        <time>2015-07-07T08:52:09Z</time>
      </trkpt>
      <trkpt lat="46.27718" lon="4.62053">
        <ele>485</ele>
        <time>2015-07-07T08:52:20Z</time>
      </trkpt>
      <trkpt lat="46.27735" lon="4.62049">
        <ele>482</ele>
        <time>2015-07-07T08:52:43Z</time>
      </trkpt>
      <trkpt lat="46.27737" lon="4.62054">
        <ele>480</ele>
        <time>2015-07-07T08:56:58Z</time>
      </trkpt>
      <trkpt lat="46.27728" lon="4.62056">
        <ele>482</ele>
        <time>2015-07-07T08:57:33Z</time>
      </trkpt>
      <trkpt lat="46.2769" lon="4.62058">
        <ele>484</ele>
        <time>2015-07-07T08:58:09Z</time>
      </trkpt>
      <trkpt lat="46.27654" lon="4.62056">
        <ele>487</ele>
        <time>2015-07-07T08:58:50Z</time>
      </trkpt>
      <trkpt lat="46.27644" lon="4.62053">
        <ele>488</ele>
        <time>2015-07-07T08:59:35Z</time>
      </trkpt>
      <trkpt lat="46.27635" lon="4.62048">
        <ele>489</ele>
        <time>2015-07-07T08:59:43Z</time>
      </trkpt>
      <trkpt lat="46.27572" lon="4.62055">
        <ele>496</ele>
        <time>2015-07-07T09:00:51Z</time>
      </trkpt>
      <trkpt lat="46.27561" lon="4.62053">
        <ele>497</ele>
        <time>2015-07-07T09:01:01Z</time>
      </trkpt>
      <trkpt lat="46.27542" lon="4.62064">
        <ele>502</ele>
        <time>2015-07-07T09:01:31Z</time>
      </trkpt>
      <trkpt lat="46.27525" lon="4.62071">
        <ele>506</ele>
        <time>2015-07-07T09:01:46Z</time>
      </trkpt>
      <trkpt lat="46.27507" lon="4.62063">
        <ele>509</ele>
        <time>2015-07-07T09:02:03Z</time>
      </trkpt>
      <trkpt lat="46.27498" lon="4.62066">
        <ele>509</ele>
        <time>2015-07-07T09:02:11Z</time>
      </trkpt>
      <trkpt lat="46.27478" lon="4.62069">
        <ele>512</ele>
        <time>2015-07-07T09:02:33Z</time>
      </trkpt>
      <trkpt lat="46.2747" lon="4.62077">
        <ele>513</ele>
        <time>2015-07-07T09:02:39Z</time>
      </trkpt>
      <trkpt lat="46.27433" lon="4.62085">
        <ele>519</ele>
        <time>2015-07-07T09:03:21Z</time>
      </trkpt>
      <trkpt lat="46.27398" lon="4.6211">
        <ele>525</ele>
        <time>2015-07-07T09:03:56Z</time>
      </trkpt>
      <trkpt lat="46.2739" lon="4.62118">
        <ele>526</ele>
        <time>2015-07-07T09:04:03Z</time>
      </trkpt>
      <trkpt lat="46.27373" lon="4.6213">
        <ele>528</ele>
        <time>2015-07-07T09:04:17Z</time>
      </trkpt>
      <trkpt lat="46.27354" lon="4.62129">
        <ele>527</ele>
        <time>2015-07-07T09:04:31Z</time>
      </trkpt>
      <trkpt lat="46.27345" lon="4.62134">
        <ele>527</ele>
        <time>2015-07-07T09:04:38Z</time>
      </trkpt>
      <trkpt lat="46.27307" lon="4.62138">
        <ele>528</ele>
        <time>2015-07-07T09:05:04Z</time>
      </trkpt>
      <trkpt lat="46.27293" lon="4.62142">
        <ele>530</ele>
        <time>2015-07-07T09:05:27Z</time>
      </trkpt>
      <trkpt lat="46.27288" lon="4.62143">
        <ele>529</ele>
        <time>2015-07-07T09:05:59Z</time>
      </trkpt>
      <trkpt lat="46.2725" lon="4.62145">
        <ele>533</ele>
        <time>2015-07-07T09:06:30Z</time>
      </trkpt>
      <trkpt lat="46.27225" lon="4.6216">
        <ele>534</ele>
        <time>2015-07-07T09:08:04Z</time>
      </trkpt>
      <trkpt lat="46.27187" lon="4.62164">
        <ele>543</ele>
        <time>2015-07-07T09:08:38Z</time>
      </trkpt>
      <trkpt lat="46.27148" lon="4.62174">
        <ele>548</ele>
        <time>2015-07-07T09:09:15Z</time>
      </trkpt>
      <trkpt lat="46.2714" lon="4.62179">
        <ele>549</ele>
        <time>2015-07-07T09:09:22Z</time>
      </trkpt>
      <trkpt lat="46.27104" lon="4.62193">
        <ele>552</ele>
        <time>2015-07-07T09:09:49Z</time>
      </trkpt>
      <trkpt lat="46.27094" lon="4.6219">
        <ele>552</ele>
        <time>2015-07-07T09:09:57Z</time>
      </trkpt>
      <trkpt lat="46.27087" lon="4.62183">
        <ele>552</ele>
        <time>2015-07-07T09:10:06Z</time>
      </trkpt>
      <trkpt lat="46.27063" lon="4.6219">
        <ele>550</ele>
        <time>2015-07-07T09:10:37Z</time>
      </trkpt>
      <trkpt lat="46.27055" lon="4.62197">
        <ele>550</ele>
        <time>2015-07-07T09:10:43Z</time>
      </trkpt>
      <trkpt lat="46.27045" lon="4.62199">
        <ele>552</ele>
        <time>2015-07-07T09:10:50Z</time>
      </trkpt>
      <trkpt lat="46.27006" lon="4.62202">
        <ele>551</ele>
        <time>2015-07-07T09:11:20Z</time>
      </trkpt>
      <trkpt lat="46.27001" lon="4.62199">
        <ele>550</ele>
        <time>2015-07-07T09:11:36Z</time>
      </trkpt>
      <trkpt lat="46.26992" lon="4.62203">
        <ele>543</ele>
        <time>2015-07-07T09:11:45Z</time>
      </trkpt>
      <trkpt lat="46.26985" lon="4.62186">
        <ele>542</ele>
        <time>2015-07-07T09:12:31Z</time>
      </trkpt>
      <trkpt lat="46.26976" lon="4.62179">
        <ele>543</ele>
        <time>2015-07-07T09:12:38Z</time>
      </trkpt>
      <trkpt lat="46.26968" lon="4.62174">
        <ele>542</ele>
        <time>2015-07-07T09:12:52Z</time>
      </trkpt>
      <trkpt lat="46.26951" lon="4.6216">
        <ele>542</ele>
        <time>2015-07-07T09:13:10Z</time>
      </trkpt>
      <trkpt lat="46.26935" lon="4.62145">
        <ele>544</ele>
        <time>2015-07-07T09:13:27Z</time>
      </trkpt>
      <trkpt lat="46.26926" lon="4.62143">
        <ele>545</ele>
        <time>2015-07-07T09:13:36Z</time>
      </trkpt>
      <trkpt lat="46.26918" lon="4.62136">
        <ele>546</ele>
        <time>2015-07-07T09:13:44Z</time>
      </trkpt>
      <trkpt lat="46.26909" lon="4.62132">
        <ele>546</ele>
        <time>2015-07-07T09:13:53Z</time>
      </trkpt>
      <trkpt lat="46.26883" lon="4.62115">
        <ele>548</ele>
        <time>2015-07-07T09:14:22Z</time>
      </trkpt>
      <trkpt lat="46.26871" lon="4.62109">
        <ele>547</ele>
        <time>2015-07-07T09:14:44Z</time>
      </trkpt>
      <trkpt lat="46.26847" lon="4.62109">
        <ele>553</ele>
        <time>2015-07-07T09:15:31Z</time>
      </trkpt>
      <trkpt lat="46.2682" lon="4.62098">
        <ele>558</ele>
        <time>2015-07-07T09:16:09Z</time>
      </trkpt>
      <trkpt lat="46.2678" lon="4.62098">
        <ele>558</ele>
        <time>2015-07-07T09:17:01Z</time>
      </trkpt>
      <trkpt lat="46.26772" lon="4.62091">
        <ele>559</ele>
        <time>2015-07-07T09:17:13Z</time>
      </trkpt>
      <trkpt lat="46.26762" lon="4.62085">
        <ele>559</ele>
        <time>2015-07-07T09:17:22Z</time>
      </trkpt>
      <trkpt lat="46.26757" lon="4.62086">
        <ele>559</ele>
        <time>2015-07-07T09:17:27Z</time>
      </trkpt>
      <trkpt lat="46.26753" lon="4.62082">
        <ele>559</ele>
        <time>2015-07-07T09:17:31Z</time>
      </trkpt>
      <trkpt lat="46.26748" lon="4.62068">
        <ele>558</ele>
        <time>2015-07-07T09:17:40Z</time>
      </trkpt>
      <trkpt lat="46.26743" lon="4.6206">
        <ele>559</ele>
        <time>2015-07-07T09:17:52Z</time>
      </trkpt>
      <trkpt lat="46.26741" lon="4.62054">
        <ele>558</ele>
        <time>2015-07-07T09:18:03Z</time>
      </trkpt>
      <trkpt lat="46.26735" lon="4.62033">
        <ele>559</ele>
        <time>2015-07-07T09:18:16Z</time>
      </trkpt>
      <trkpt lat="46.26719" lon="4.61996">
        <ele>560</ele>
        <time>2015-07-07T09:18:42Z</time>
      </trkpt>
      <trkpt lat="46.26715" lon="4.61991">
        <ele>561</ele>
        <time>2015-07-07T09:18:48Z</time>
      </trkpt>
      <trkpt lat="46.267" lon="4.61983">
        <ele>561</ele>
        <time>2015-07-07T09:19:01Z</time>
      </trkpt>
      <trkpt lat="46.26695" lon="4.61983">
        <ele>562</ele>
        <time>2015-07-07T09:19:06Z</time>
      </trkpt>
      <trkpt lat="46.26685" lon="4.61986">
        <ele>562</ele>
        <time>2015-07-07T09:19:14Z</time>
      </trkpt>
      <trkpt lat="46.26677" lon="4.61986">
        <ele>563</ele>
        <time>2015-07-07T09:19:25Z</time>
      </trkpt>
      <trkpt lat="46.26673" lon="4.61981">
        <ele>564</ele>
        <time>2015-07-07T09:19:40Z</time>
      </trkpt>
      <trkpt lat="46.26669" lon="4.61977">
        <ele>563</ele>
        <time>2015-07-07T09:19:45Z</time>
      </trkpt>
      <trkpt lat="46.26665" lon="4.61973">
        <ele>563</ele>
        <time>2015-07-07T09:19:49Z</time>
      </trkpt>
      <trkpt lat="46.26656" lon="4.61966">
        <ele>564</ele>
        <time>2015-07-07T09:19:58Z</time>
      </trkpt>
      <trkpt lat="46.26644" lon="4.61953">
        <ele>564</ele>
        <time>2015-07-07T09:20:14Z</time>
      </trkpt>
      <trkpt lat="46.26638" lon="4.61952">
        <ele>565</ele>
        <time>2015-07-07T09:20:27Z</time>
      </trkpt>
      <trkpt lat="46.26633" lon="4.6195">
        <ele>564</ele>
        <time>2015-07-07T09:20:32Z</time>
      </trkpt>
      <trkpt lat="46.26621" lon="4.61935">
        <ele>566</ele>
        <time>2015-07-07T09:20:51Z</time>
      </trkpt>
      <trkpt lat="46.2661" lon="4.61929">
        <ele>568</ele>
        <time>2015-07-07T09:21:12Z</time>
      </trkpt>
      <trkpt lat="46.26601" lon="4.61927">
        <ele>569</ele>
        <time>2015-07-07T09:21:25Z</time>
      </trkpt>
      <trkpt lat="46.26595" lon="4.61918">
        <ele>571</ele>
        <time>2015-07-07T09:21:45Z</time>
      </trkpt>
      <trkpt lat="46.26586" lon="4.61912">
        <ele>571</ele>
        <time>2015-07-07T09:21:57Z</time>
      </trkpt>
      <trkpt lat="46.26579" lon="4.61903">
        <ele>572</ele>
        <time>2015-07-07T09:22:06Z</time>
      </trkpt>
      <trkpt lat="46.26552" lon="4.61878">
        <ele>577</ele>
        <time>2015-07-07T09:22:32Z</time>
      </trkpt>
      <trkpt lat="46.26528" lon="4.61865">
        <ele>578</ele>
        <time>2015-07-07T09:22:53Z</time>
      </trkpt>
      <trkpt lat="46.26503" lon="4.61844">
        <ele>578</ele>
        <time>2015-07-07T09:23:18Z</time>
      </trkpt>
      <trkpt lat="46.26501" lon="4.61841">
        <ele>578</ele>
        <time>2015-07-07T09:23:26Z</time>
      </trkpt>
      <trkpt lat="46.26499" lon="4.61838">
        <ele>578</ele>
        <time>2015-07-07T09:24:04Z</time>
      </trkpt>
      <trkpt lat="46.26496" lon="4.61836">
        <ele>578</ele>
        <time>2015-07-07T09:25:11Z</time>
      </trkpt>
      <trkpt lat="46.26494" lon="4.61834">
        <ele>578</ele>
        <time>2015-07-07T09:25:29Z</time>
      </trkpt>
      <trkpt lat="46.26489" lon="4.61833">
        <ele>579</ele>
        <time>2015-07-07T09:25:33Z</time>
      </trkpt>
      <trkpt lat="46.26482" lon="4.61823">
        <ele>576</ele>
        <time>2015-07-07T09:25:49Z</time>
      </trkpt>
      <trkpt lat="46.26479" lon="4.61821">
        <ele>576</ele>
        <time>2015-07-07T09:26:16Z</time>
      </trkpt>
      <trkpt lat="46.26466" lon="4.61799">
        <ele>578</ele>
        <time>2015-07-07T09:26:32Z</time>
      </trkpt>
      <trkpt lat="46.26462" lon="4.61794">
        <ele>577</ele>
        <time>2015-07-07T09:26:36Z</time>
      </trkpt>
      <trkpt lat="46.26458" lon="4.6179">
        <ele>577</ele>
        <time>2015-07-07T09:26:40Z</time>
      </trkpt>
      <trkpt lat="46.26454" lon="4.61785">
        <ele>578</ele>
        <time>2015-07-07T09:26:45Z</time>
      </trkpt>
      <trkpt lat="46.26451" lon="4.61779">
        <ele>576</ele>
        <time>2015-07-07T09:26:51Z</time>
      </trkpt>
      <trkpt lat="46.26443" lon="4.61772">
        <ele>574</ele>
        <time>2015-07-07T09:27:01Z</time>
      </trkpt>
      <trkpt lat="46.2644" lon="4.61765">
        <ele>574</ele>
        <time>2015-07-07T09:27:05Z</time>
      </trkpt>
      <trkpt lat="46.26438" lon="4.61758">
        <ele>574</ele>
        <time>2015-07-07T09:27:10Z</time>
      </trkpt>
      <trkpt lat="46.26435" lon="4.61753">
        <ele>573</ele>
        <time>2015-07-07T09:27:15Z</time>
      </trkpt>
      <trkpt lat="46.26431" lon="4.61751">
        <ele>570</ele>
        <time>2015-07-07T09:27:47Z</time>
      </trkpt>
      <trkpt lat="46.26425" lon="4.61741">
        <ele>568</ele>
        <time>2015-07-07T09:28:37Z</time>
      </trkpt>
      <trkpt lat="46.26415" lon="4.61708">
        <ele>563</ele>
        <time>2015-07-07T09:29:08Z</time>
      </trkpt>
      <trkpt lat="46.26412" lon="4.61703">
        <ele>562</ele>
        <time>2015-07-07T09:29:14Z</time>
      </trkpt>
      <trkpt lat="46.26414" lon="4.617">
        <ele>562</ele>
        <time>2015-07-07T09:29:30Z</time>
      </trkpt>
      <trkpt lat="46.26409" lon="4.61648">
        <ele>557</ele>
        <time>2015-07-07T09:30:01Z</time>
      </trkpt>
      <trkpt lat="46.26406" lon="4.61641">
        <ele>557</ele>
        <time>2015-07-07T09:30:05Z</time>
      </trkpt>
      <trkpt lat="46.26406" lon="4.61634">
        <ele>557</ele>
        <time>2015-07-07T09:30:09Z</time>
      </trkpt>
      <trkpt lat="46.26406" lon="4.61532">
        <ele>551</ele>
        <time>2015-07-07T09:31:12Z</time>
      </trkpt>
      <trkpt lat="46.26409" lon="4.61519">
        <ele>546</ele>
        <time>2015-07-07T09:31:44Z</time>
      </trkpt>
      <trkpt lat="46.26411" lon="4.61497">
        <ele>542</ele>
        <time>2015-07-07T09:31:58Z</time>
      </trkpt>
      <trkpt lat="46.26413" lon="4.6149">
        <ele>540</ele>
        <time>2015-07-07T09:32:03Z</time>
      </trkpt>
      <trkpt lat="46.26415" lon="4.61427">
        <ele>523</ele>
        <time>2015-07-07T09:32:39Z</time>
      </trkpt>
      <trkpt lat="46.26413" lon="4.6142">
        <ele>522</ele>
        <time>2015-07-07T09:32:44Z</time>
      </trkpt>
      <trkpt lat="46.26406" lon="4.61401">
        <ele>530</ele>
        <time>2015-07-07T09:32:57Z</time>
      </trkpt>
      <trkpt lat="46.26393" lon="4.61377">
        <ele>528</ele>
        <time>2015-07-07T09:33:41Z</time>
      </trkpt>
      <trkpt lat="46.26347" lon="4.61365">
        <ele>526</ele>
        <time>2015-07-07T09:34:38Z</time>
      </trkpt>
      <trkpt lat="46.26343" lon="4.61367">
        <ele>526</ele>
        <time>2015-07-07T09:34:48Z</time>
      </trkpt>
      <trkpt lat="46.26299" lon="4.61303">
        <ele>514</ele>
        <time>2015-07-07T09:38:35Z</time>
      </trkpt>
      <trkpt lat="46.26295" lon="4.613">
        <ele>514</ele>
        <time>2015-07-07T09:38:38Z</time>
      </trkpt>
      <trkpt lat="46.26284" lon="4.61284">
        <ele>514</ele>
        <time>2015-07-07T09:38:52Z</time>
      </trkpt>
      <trkpt lat="46.26272" lon="4.6127">
        <ele>514</ele>
        <time>2015-07-07T09:39:06Z</time>
      </trkpt>
      <trkpt lat="46.26259" lon="4.61248">
        <ele>513</ele>
        <time>2015-07-07T09:39:23Z</time>
      </trkpt>
      <trkpt lat="46.26231" lon="4.61216">
        <ele>516</ele>
        <time>2015-07-07T09:39:54Z</time>
      </trkpt>
      <trkpt lat="46.26217" lon="4.61207">
        <ele>516</ele>
        <time>2015-07-07T09:40:07Z</time>
      </trkpt>
      <trkpt lat="46.26187" lon="4.6118">
        <ele>515</ele>
        <time>2015-07-07T09:40:34Z</time>
      </trkpt>
      <trkpt lat="46.26183" lon="4.61158">
        <ele>515</ele>
        <time>2015-07-07T09:40:46Z</time>
      </trkpt>
      <trkpt lat="46.26181" lon="4.61152">
        <ele>514</ele>
        <time>2015-07-07T09:40:51Z</time>
      </trkpt>
      <trkpt lat="46.2618" lon="4.61148">
        <ele>514</ele>
        <time>2015-07-07T09:40:58Z</time>
      </trkpt>
      <trkpt lat="46.26179" lon="4.61144">
        <ele>515</ele>
        <time>2015-07-07T09:41:11Z</time>
      </trkpt>
      <trkpt lat="46.2618" lon="4.6113">
        <ele>522</ele>
        <time>2015-07-07T09:41:21Z</time>
      </trkpt>
      <trkpt lat="46.26189" lon="4.61112">
        <ele>516</ele>
        <time>2015-07-07T09:41:33Z</time>
      </trkpt>
      <trkpt lat="46.26223" lon="4.61079">
        <ele>513</ele>
        <time>2015-07-07T09:42:07Z</time>
      </trkpt>
      <trkpt lat="46.2626" lon="4.61032">
        <ele>518</ele>
        <time>2015-07-07T09:42:47Z</time>
      </trkpt>
      <trkpt lat="46.26296" lon="4.60969">
        <ele>517</ele>
        <time>2015-07-07T09:43:31Z</time>
      </trkpt>
      <trkpt lat="46.26306" lon="4.60945">
        <ele>517</ele>
        <time>2015-07-07T09:43:46Z</time>
      </trkpt>
      <trkpt lat="46.26309" lon="4.60939">
        <ele>517</ele>
        <time>2015-07-07T09:43:50Z</time>
      </trkpt>
      <trkpt lat="46.2631" lon="4.60936">
        <ele>517</ele>
        <time>2015-07-07T09:43:52Z</time>
      </trkpt>
      <trkpt lat="46.2631" lon="4.60926">
        <ele>515</ele>
        <time>2015-07-07T09:43:58Z</time>
      </trkpt>
      <trkpt lat="46.26307" lon="4.60925">
        <ele>513</ele>
        <time>2015-07-07T09:44:14Z</time>
      </trkpt>
      <trkpt lat="46.26306" lon="4.60908">
        <ele>511</ele>
        <time>2015-07-07T09:44:22Z</time>
      </trkpt>
      <trkpt lat="46.26304" lon="4.60902">
        <ele>509</ele>
        <time>2015-07-07T09:44:29Z</time>
      </trkpt>
      <trkpt lat="46.26295" lon="4.60895">
        <ele>506</ele>
        <time>2015-07-07T09:44:37Z</time>
      </trkpt>
      <trkpt lat="46.26263" lon="4.60886">
        <ele>501</ele>
        <time>2015-07-07T09:45:07Z</time>
      </trkpt>
      <trkpt lat="46.26256" lon="4.60882">
        <ele>499</ele>
        <time>2015-07-07T09:45:12Z</time>
      </trkpt>
      <trkpt lat="46.26252" lon="4.60883">
        <ele>498</ele>
        <time>2015-07-07T09:45:18Z</time>
      </trkpt>
      <trkpt lat="46.26247" lon="4.60887">
        <ele>497</ele>
        <time>2015-07-07T09:45:22Z</time>
      </trkpt>
      <trkpt lat="46.26239" lon="4.60886">
        <ele>496</ele>
        <time>2015-07-07T09:45:28Z</time>
      </trkpt>
      <trkpt lat="46.26235" lon="4.60884">
        <ele>496</ele>
        <time>2015-07-07T09:45:33Z</time>
      </trkpt>
      <trkpt lat="46.26222" lon="4.60884">
        <ele>494</ele>
        <time>2015-07-07T09:45:44Z</time>
      </trkpt>
      <trkpt lat="46.26219" lon="4.60889">
        <ele>493</ele>
        <time>2015-07-07T09:45:51Z</time>
      </trkpt>
      <trkpt lat="46.26209" lon="4.6089">
        <ele>492</ele>
        <time>2015-07-07T09:45:56Z</time>
      </trkpt>
      <trkpt lat="46.26199" lon="4.60887">
        <ele>491</ele>
        <time>2015-07-07T09:46:06Z</time>
      </trkpt>
      <trkpt lat="46.26195" lon="4.60882">
        <ele>491</ele>
        <time>2015-07-07T09:46:10Z</time>
      </trkpt>
      <trkpt lat="46.26189" lon="4.60884">
        <ele>491</ele>
        <time>2015-07-07T09:46:14Z</time>
      </trkpt>
      <trkpt lat="46.26184" lon="4.60882">
        <ele>490</ele>
        <time>2015-07-07T09:46:19Z</time>
      </trkpt>
      <trkpt lat="46.26168" lon="4.60887">
        <ele>487</ele>
        <time>2015-07-07T09:46:31Z</time>
      </trkpt>
      <trkpt lat="46.26151" lon="4.60883">
        <ele>487</ele>
        <time>2015-07-07T09:46:45Z</time>
      </trkpt>
      <trkpt lat="46.26149" lon="4.60882">
        <ele>486</ele>
        <time>2015-07-07T09:46:51Z</time>
      </trkpt>
      <trkpt lat="46.26146" lon="4.60877">
        <ele>503</ele>
        <time>2015-07-07T09:47:53Z</time>
      </trkpt>
      <trkpt lat="46.26135" lon="4.60873">
        <ele>505</ele>
        <time>2015-07-07T09:48:02Z</time>
      </trkpt>
      <trkpt lat="46.26117" lon="4.60865">
        <ele>504</ele>
        <time>2015-07-07T09:48:28Z</time>
      </trkpt>
      <trkpt lat="46.26094" lon="4.60852">
        <ele>493</ele>
        <time>2015-07-07T09:48:46Z</time>
      </trkpt>
      <trkpt lat="46.26092" lon="4.60846">
        <ele>492</ele>
        <time>2015-07-07T09:48:52Z</time>
      </trkpt>
      <trkpt lat="46.26089" lon="4.60833">
        <ele>492</ele>
        <time>2015-07-07T09:49:01Z</time>
      </trkpt>
      <trkpt lat="46.26086" lon="4.60805">
        <ele>492</ele>
        <time>2015-07-07T09:49:16Z</time>
      </trkpt>
      <trkpt lat="46.26086" lon="4.6079">
        <ele>493</ele>
        <time>2015-07-07T09:49:26Z</time>
      </trkpt>
      <trkpt lat="46.26072" lon="4.60754">
        <ele>492</ele>
        <time>2015-07-07T09:49:48Z</time>
      </trkpt>
      <trkpt lat="46.26071" lon="4.60728">
        <ele>492</ele>
        <time>2015-07-07T09:50:06Z</time>
      </trkpt>
      <trkpt lat="46.26082" lon="4.60703">
        <ele>493</ele>
        <time>2015-07-07T09:50:26Z</time>
      </trkpt>
      <trkpt lat="46.26097" lon="4.60685">
        <ele>493</ele>
        <time>2015-07-07T09:50:40Z</time>
      </trkpt>
      <trkpt lat="46.26112" lon="4.60649">
        <ele>496</ele>
        <time>2015-07-07T09:51:03Z</time>
      </trkpt>
      <trkpt lat="46.261" lon="4.60598">
        <ele>497</ele>
        <time>2015-07-07T09:51:39Z</time>
      </trkpt>
      <trkpt lat="46.26101" lon="4.60592">
        <ele>505</ele>
        <time>2015-07-07T09:52:14Z</time>
      </trkpt>
      <trkpt lat="46.26098" lon="4.60578">
        <ele>507</ele>
        <time>2015-07-07T09:52:24Z</time>
      </trkpt>
      <trkpt lat="46.261" lon="4.60557">
        <ele>501</ele>
        <time>2015-07-07T09:52:39Z</time>
      </trkpt>
      <trkpt lat="46.26097" lon="4.60551">
        <ele>501</ele>
        <time>2015-07-07T09:52:42Z</time>
      </trkpt>
      <trkpt lat="46.26101" lon="4.60514">
        <ele>503</ele>
        <time>2015-07-07T09:53:01Z</time>
      </trkpt>
      <trkpt lat="46.26107" lon="4.60503">
        <ele>504</ele>
        <time>2015-07-07T09:53:08Z</time>
      </trkpt>
      <trkpt lat="46.26109" lon="4.6049">
        <ele>505</ele>
        <time>2015-07-07T09:53:16Z</time>
      </trkpt>
      <trkpt lat="46.26131" lon="4.60447">
        <ele>505</ele>
        <time>2015-07-07T09:53:52Z</time>
      </trkpt>
      <trkpt lat="46.26134" lon="4.60443">
        <ele>505</ele>
        <time>2015-07-07T09:54:02Z</time>
      </trkpt>
      <trkpt lat="46.26138" lon="4.60438">
        <ele>506</ele>
        <time>2015-07-07T09:54:19Z</time>
      </trkpt>
      <trkpt lat="46.2614" lon="4.6043">
        <ele>506</ele>
        <time>2015-07-07T09:54:24Z</time>
      </trkpt>
      <trkpt lat="46.26147" lon="4.6042">
        <ele>509</ele>
        <time>2015-07-07T09:54:32Z</time>
      </trkpt>
      <trkpt lat="46.26152" lon="4.6041">
        <ele>510</ele>
        <time>2015-07-07T09:54:45Z</time>
      </trkpt>
      <trkpt lat="46.26154" lon="4.60402">
        <ele>510</ele>
        <time>2015-07-07T09:54:55Z</time>
      </trkpt>
      <trkpt lat="46.26155" lon="4.60395">
        <ele>511</ele>
        <time>2015-07-07T09:54:59Z</time>
      </trkpt>
      <trkpt lat="46.26152" lon="4.60372">
        <ele>513</ele>
        <time>2015-07-07T09:55:11Z</time>
      </trkpt>
      <trkpt lat="46.26152" lon="4.60366">
        <ele>513</ele>
        <time>2015-07-07T09:55:26Z</time>
      </trkpt>
      <trkpt lat="46.26148" lon="4.6036">
        <ele>513</ele>
        <time>2015-07-07T09:55:43Z</time>
      </trkpt>
      <trkpt lat="46.26144" lon="4.60356">
        <ele>513</ele>
        <time>2015-07-07T09:55:47Z</time>
      </trkpt>
      <trkpt lat="46.26136" lon="4.60349">
        <ele>515</ele>
        <time>2015-07-07T09:55:56Z</time>
      </trkpt>
      <trkpt lat="46.26131" lon="4.6032">
        <ele>516</ele>
        <time>2015-07-07T09:56:14Z</time>
      </trkpt>
      <trkpt lat="46.26123" lon="4.60303">
        <ele>515</ele>
        <time>2015-07-07T09:56:29Z</time>
      </trkpt>
      <trkpt lat="46.26117" lon="4.60296">
        <ele>516</ele>
        <time>2015-07-07T09:56:40Z</time>
      </trkpt>
      <trkpt lat="46.26108" lon="4.60289">
        <ele>513</ele>
        <time>2015-07-07T09:57:14Z</time>
      </trkpt>
      <trkpt lat="46.26079" lon="4.60261">
        <ele>508</ele>
        <time>2015-07-07T09:57:48Z</time>
      </trkpt>
      <trkpt lat="46.26039" lon="4.60236">
        <ele>502</ele>
        <time>2015-07-07T09:58:28Z</time>
      </trkpt>
      <trkpt lat="46.26022" lon="4.60222">
        <ele>502</ele>
        <time>2015-07-07T09:58:45Z</time>
      </trkpt>
      <trkpt lat="46.26017" lon="4.6022">
        <ele>501</ele>
        <time>2015-07-07T09:58:50Z</time>
      </trkpt>
      <trkpt lat="46.2594" lon="4.60155">
        <ele>489</ele>
        <time>2015-07-07T10:00:10Z</time>
      </trkpt>
      <trkpt lat="46.25941" lon="4.60145">
        <ele>489</ele>
        <time>2015-07-07T10:01:12Z</time>
      </trkpt>
      <trkpt lat="46.25921" lon="4.60114">
        <ele>480</ele>
        <time>2015-07-07T10:01:47Z</time>
      </trkpt>
      <trkpt lat="46.25915" lon="4.6011">
        <ele>480</ele>
        <time>2015-07-07T10:01:54Z</time>
      </trkpt>
      <trkpt lat="46.25904" lon="4.60097">
        <ele>479</ele>
        <time>2015-07-07T10:02:01Z</time>
      </trkpt>
      <trkpt lat="46.259" lon="4.60094">
        <ele>479</ele>
        <time>2015-07-07T10:02:05Z</time>
      </trkpt>
      <trkpt lat="46.25894" lon="4.6009">
        <ele>479</ele>
        <time>2015-07-07T10:02:10Z</time>
      </trkpt>
      <trkpt lat="46.25887" lon="4.60083">
        <ele>480</ele>
        <time>2015-07-07T10:02:18Z</time>
      </trkpt>
      <trkpt lat="46.25885" lon="4.60081">
        <ele>480</ele>
        <time>2015-07-07T10:02:19Z</time>
      </trkpt>
      <trkpt lat="46.2587" lon="4.60068">
        <ele>478</ele>
        <time>2015-07-07T10:02:38Z</time>
      </trkpt>
      <trkpt lat="46.2586" lon="4.60067">
        <ele>478</ele>
        <time>2015-07-07T10:02:46Z</time>
      </trkpt>
      <trkpt lat="46.25855" lon="4.60064">
        <ele>478</ele>
        <time>2015-07-07T10:02:50Z</time>
      </trkpt>
      <trkpt lat="46.2585" lon="4.60065">
        <ele>479</ele>
        <time>2015-07-07T10:02:54Z</time>
      </trkpt>
      <trkpt lat="46.25843" lon="4.60063">
        <ele>480</ele>
        <time>2015-07-07T10:03:02Z</time>
      </trkpt>
      <trkpt lat="46.2578" lon="4.60085">
        <ele>473</ele>
        <time>2015-07-07T10:03:58Z</time>
      </trkpt>
      <trkpt lat="46.25771" lon="4.60085">
        <ele>473</ele>
        <time>2015-07-07T10:04:05Z</time>
      </trkpt>
      <trkpt lat="46.25754" lon="4.60092">
        <ele>474</ele>
        <time>2015-07-07T10:04:16Z</time>
      </trkpt>
      <trkpt lat="46.25752" lon="4.60092">
        <ele>474</ele>
        <time>2015-07-07T10:04:17Z</time>
      </trkpt>
      <trkpt lat="46.25746" lon="4.60097">
        <ele>474</ele>
        <time>2015-07-07T10:04:24Z</time>
      </trkpt>
      <trkpt lat="46.25741" lon="4.60098">
        <ele>475</ele>
        <time>2015-07-07T10:04:28Z</time>
      </trkpt>
      <trkpt lat="46.25736" lon="4.60101">
        <ele>476</ele>
        <time>2015-07-07T10:04:31Z</time>
      </trkpt>
      <trkpt lat="46.25734" lon="4.601">
        <ele>476</ele>
        <time>2015-07-07T10:04:35Z</time>
      </trkpt>
      <trkpt lat="46.2573" lon="4.60096">
        <ele>476</ele>
        <time>2015-07-07T10:04:39Z</time>
      </trkpt>
      <trkpt lat="46.2572" lon="4.60104">
        <ele>478</ele>
        <time>2015-07-07T10:05:14Z</time>
      </trkpt>
      <trkpt lat="46.25696" lon="4.60112">
        <ele>474</ele>
        <time>2015-07-07T10:05:33Z</time>
      </trkpt>
      <trkpt lat="46.25686" lon="4.60119">
        <ele>474</ele>
        <time>2015-07-07T10:05:43Z</time>
      </trkpt>
      <trkpt lat="46.25681" lon="4.60119">
        <ele>474</ele>
        <time>2015-07-07T10:05:49Z</time>
      </trkpt>
      <trkpt lat="46.25677" lon="4.60114">
        <ele>475</ele>
        <time>2015-07-07T10:05:53Z</time>
      </trkpt>
      <trkpt lat="46.25638" lon="4.60065">
        <ele>475</ele>
        <time>2015-07-07T10:06:37Z</time>
      </trkpt>
      <trkpt lat="46.25633" lon="4.60064">
        <ele>476</ele>
        <time>2015-07-07T10:06:44Z</time>
      </trkpt>
      <trkpt lat="46.25628" lon="4.6006">
        <ele>477</ele>
        <time>2015-07-07T10:06:53Z</time>
      </trkpt>
      <trkpt lat="46.25624" lon="4.6006">
        <ele>478</ele>
        <time>2015-07-07T10:07:00Z</time>
      </trkpt>
      <trkpt lat="46.25618" lon="4.60063">
        <ele>478</ele>
        <time>2015-07-07T10:07:04Z</time>
      </trkpt>
      <trkpt lat="46.25613" lon="4.60075">
        <ele>478</ele>
        <time>2015-07-07T10:07:14Z</time>
      </trkpt>
      <trkpt lat="46.25608" lon="4.60077">
        <ele>478</ele>
        <time>2015-07-07T10:07:19Z</time>
      </trkpt>
      <trkpt lat="46.25603" lon="4.60085">
        <ele>478</ele>
        <time>2015-07-07T10:07:26Z</time>
      </trkpt>
      <trkpt lat="46.25592" lon="4.60091">
        <ele>479</ele>
        <time>2015-07-07T10:07:47Z</time>
      </trkpt>
      <trkpt lat="46.25591" lon="4.60096">
        <ele>479</ele>
        <time>2015-07-07T10:07:58Z</time>
      </trkpt>
      <trkpt lat="46.25592" lon="4.60102">
        <ele>478</ele>
        <time>2015-07-07T10:08:09Z</time>
      </trkpt>
      <trkpt lat="46.25582" lon="4.60094">
        <ele>481</ele>
        <time>2015-07-07T10:08:54Z</time>
      </trkpt>
      <trkpt lat="46.25572" lon="4.6007">
        <ele>484</ele>
        <time>2015-07-07T10:09:11Z</time>
      </trkpt>
      <trkpt lat="46.2557" lon="4.6005">
        <ele>490</ele>
        <time>2015-07-07T10:09:28Z</time>
      </trkpt>
      <trkpt lat="46.25576" lon="4.60008">
        <ele>489</ele>
        <time>2015-07-07T10:09:53Z</time>
      </trkpt>
      <trkpt lat="46.25584" lon="4.59983">
        <ele>490</ele>
        <time>2015-07-07T10:10:20Z</time>
      </trkpt>
      <trkpt lat="46.25587" lon="4.59956">
        <ele>488</ele>
        <time>2015-07-07T10:10:36Z</time>
      </trkpt>
      <trkpt lat="46.25598" lon="4.59922">
        <ele>491</ele>
        <time>2015-07-07T10:10:57Z</time>
      </trkpt>
      <trkpt lat="46.25606" lon="4.59909">
        <ele>490</ele>
        <time>2015-07-07T10:11:05Z</time>
      </trkpt>
      <trkpt lat="46.25612" lon="4.5991">
        <ele>487</ele>
        <time>2015-07-07T10:11:10Z</time>
      </trkpt>
      <trkpt lat="46.25618" lon="4.59907">
        <ele>486</ele>
        <time>2015-07-07T10:11:14Z</time>
      </trkpt>
      <trkpt lat="46.25638" lon="4.59885">
        <ele>486</ele>
        <time>2015-07-07T10:11:35Z</time>
      </trkpt>
      <trkpt lat="46.25644" lon="4.59871">
        <ele>485</ele>
        <time>2015-07-07T10:11:46Z</time>
      </trkpt>
      <trkpt lat="46.25645" lon="4.59862">
        <ele>485</ele>
        <time>2015-07-07T10:11:50Z</time>
      </trkpt>
      <trkpt lat="46.25645" lon="4.59856">
        <ele>485</ele>
        <time>2015-07-07T10:11:54Z</time>
      </trkpt>
      <trkpt lat="46.25653" lon="4.5981">
        <ele>482</ele>
        <time>2015-07-07T10:12:28Z</time>
      </trkpt>
      <trkpt lat="46.25652" lon="4.59766">
        <ele>482</ele>
        <time>2015-07-07T10:12:56Z</time>
      </trkpt>
      <trkpt lat="46.25648" lon="4.59753">
        <ele>481</ele>
        <time>2015-07-07T10:13:07Z</time>
      </trkpt>
      <trkpt lat="46.25645" lon="4.59748">
        <ele>480</ele>
        <time>2015-07-07T10:13:11Z</time>
      </trkpt>
      <trkpt lat="46.25641" lon="4.59743">
        <ele>480</ele>
        <time>2015-07-07T10:13:15Z</time>
      </trkpt>
      <trkpt lat="46.25638" lon="4.59737">
        <ele>480</ele>
        <time>2015-07-07T10:13:19Z</time>
      </trkpt>
      <trkpt lat="46.25631" lon="4.59706">
        <ele>478</ele>
        <time>2015-07-07T10:13:45Z</time>
      </trkpt>
      <trkpt lat="46.25635" lon="4.59692">
        <ele>478</ele>
        <time>2015-07-07T10:13:52Z</time>
      </trkpt>
      <trkpt lat="46.25633" lon="4.5969">
        <ele>477</ele>
        <time>2015-07-07T10:14:43Z</time>
      </trkpt>
      <trkpt lat="46.25631" lon="4.59692">
        <ele>486</ele>
        <time>2015-07-07T10:58:54Z</time>
      </trkpt>
      <trkpt lat="46.25625" lon="4.5969">
        <ele>487</ele>
        <time>2015-07-07T11:17:01Z</time>
      </trkpt>
      <trkpt lat="46.25628" lon="4.59702">
        <ele>487</ele>
        <time>2015-07-07T11:19:20Z</time>
      </trkpt>
      <trkpt lat="46.25618" lon="4.59704">
        <ele>487</ele>
        <time>2015-07-07T11:19:33Z</time>
      </trkpt>
      <trkpt lat="46.25626" lon="4.59713">
        <ele>491</ele>
        <time>2015-07-07T11:22:32Z</time>
      </trkpt>
      <trkpt lat="46.25631" lon="4.59702">
        <ele>491</ele>
        <time>2015-07-07T11:23:47Z</time>
      </trkpt>
      <trkpt lat="46.25633" lon="4.59691">
        <ele>491</ele>
        <time>2015-07-07T11:25:17Z</time>
      </trkpt>
      <trkpt lat="46.25629" lon="4.59685">
        <ele>490</ele>
        <time>2015-07-07T11:27:18Z</time>
      </trkpt>
      <trkpt lat="46.2562" lon="4.59684">
        <ele>490</ele>
        <time>2015-07-07T11:27:31Z</time>
      </trkpt>
      <trkpt lat="46.25616" lon="4.59708">
        <ele>485</ele>
        <time>2015-07-07T11:28:10Z</time>
      </trkpt>
      <trkpt lat="46.25607" lon="4.59706">
        <ele>486</ele>
        <time>2015-07-07T11:28:22Z</time>
      </trkpt>
      <trkpt lat="46.25585" lon="4.5969">
        <ele>490</ele>
        <time>2015-07-07T11:28:45Z</time>
      </trkpt>
      <trkpt lat="46.25576" lon="4.59686">
        <ele>490</ele>
        <time>2015-07-07T11:28:53Z</time>
      </trkpt>
      <trkpt lat="46.25571" lon="4.5968">
        <ele>490</ele>
        <time>2015-07-07T11:29:17Z</time>
      </trkpt>
      <trkpt lat="46.25569" lon="4.59675">
        <ele>487</ele>
        <time>2015-07-07T11:29:31Z</time>
      </trkpt>
      <trkpt lat="46.25565" lon="4.5968">
        <ele>486</ele>
        <time>2015-07-07T11:29:36Z</time>
      </trkpt>
      <trkpt lat="46.25559" lon="4.5968">
        <ele>485</ele>
        <time>2015-07-07T11:29:40Z</time>
      </trkpt>
      <trkpt lat="46.25555" lon="4.59678">
        <ele>485</ele>
        <time>2015-07-07T11:29:44Z</time>
      </trkpt>
      <trkpt lat="46.2555" lon="4.59673">
        <ele>488</ele>
        <time>2015-07-07T11:29:54Z</time>
      </trkpt>
      <trkpt lat="46.25546" lon="4.59677">
        <ele>489</ele>
        <time>2015-07-07T11:30:27Z</time>
      </trkpt>
      <trkpt lat="46.25543" lon="4.59673">
        <ele>486</ele>
        <time>2015-07-07T11:30:37Z</time>
      </trkpt>
      <trkpt lat="46.25527" lon="4.59673">
        <ele>483</ele>
        <time>2015-07-07T11:30:52Z</time>
      </trkpt>
      <trkpt lat="46.25519" lon="4.59671">
        <ele>484</ele>
        <time>2015-07-07T11:31:03Z</time>
      </trkpt>
      <trkpt lat="46.25523" lon="4.59669">
        <ele>481</ele>
        <time>2015-07-07T11:47:21Z</time>
      </trkpt>
      <trkpt lat="46.25525" lon="4.59669">
        <ele>479</ele>
        <time>2015-07-07T11:57:23Z</time>
      </trkpt>
      <trkpt lat="46.25517" lon="4.5967">
        <ele>479</ele>
        <time>2015-07-07T11:57:31Z</time>
      </trkpt>
      <trkpt lat="46.25522" lon="4.59666">
        <ele>480</ele>
        <time>2015-07-07T12:32:52Z</time>
      </trkpt>
      <trkpt lat="46.25532" lon="4.59669">
        <ele>480</ele>
        <time>2015-07-07T12:36:32Z</time>
      </trkpt>
      <trkpt lat="46.25541" lon="4.59663">
        <ele>478</ele>
        <time>2015-07-07T12:36:42Z</time>
      </trkpt>
      <trkpt lat="46.25541" lon="4.59656">
        <ele>478</ele>
        <time>2015-07-07T12:36:48Z</time>
      </trkpt>
      <trkpt lat="46.25539" lon="4.5965">
        <ele>478</ele>
        <time>2015-07-07T12:36:53Z</time>
      </trkpt>
      <trkpt lat="46.2553" lon="4.59643">
        <ele>474</ele>
        <time>2015-07-07T12:37:02Z</time>
      </trkpt>
      <trkpt lat="46.25526" lon="4.59643">
        <ele>471</ele>
        <time>2015-07-07T12:37:10Z</time>
      </trkpt>
      <trkpt lat="46.25522" lon="4.59646">
        <ele>469</ele>
        <time>2015-07-07T12:38:37Z</time>
      </trkpt>
      <trkpt lat="46.25515" lon="4.59635">
        <ele>469</ele>
        <time>2015-07-07T12:38:57Z</time>
      </trkpt>
      <trkpt lat="46.2551" lon="4.59631">
        <ele>468</ele>
        <time>2015-07-07T12:39:03Z</time>
      </trkpt>
      <trkpt lat="46.25506" lon="4.59628">
        <ele>468</ele>
        <time>2015-07-07T12:39:08Z</time>
      </trkpt>
      <trkpt lat="46.25502" lon="4.59625">
        <ele>468</ele>
        <time>2015-07-07T12:39:18Z</time>
      </trkpt>
      <trkpt lat="46.25497" lon="4.59619">
        <ele>470</ele>
        <time>2015-07-07T12:39:36Z</time>
      </trkpt>
      <trkpt lat="46.25415" lon="4.59585">
        <ele>462</ele>
        <time>2015-07-07T12:40:54Z</time>
      </trkpt>
      <trkpt lat="46.25375" lon="4.59559">
        <ele>462</ele>
        <time>2015-07-07T12:41:30Z</time>
      </trkpt>
      <trkpt lat="46.25371" lon="4.59553">
        <ele>461</ele>
        <time>2015-07-07T12:41:38Z</time>
      </trkpt>
      <trkpt lat="46.25359" lon="4.5954">
        <ele>461</ele>
        <time>2015-07-07T12:41:54Z</time>
      </trkpt>
      <trkpt lat="46.25325" lon="4.5951">
        <ele>459</ele>
        <time>2015-07-07T12:42:29Z</time>
      </trkpt>
      <trkpt lat="46.25287" lon="4.59496">
        <ele>457</ele>
        <time>2015-07-07T12:43:02Z</time>
      </trkpt>
      <trkpt lat="46.25272" lon="4.59502">
        <ele>457</ele>
        <time>2015-07-07T12:43:16Z</time>
      </trkpt>
      <trkpt lat="46.2521" lon="4.59566">
        <ele>453</ele>
        <time>2015-07-07T12:44:23Z</time>
      </trkpt>
      <trkpt lat="46.25205" lon="4.59567">
        <ele>454</ele>
        <time>2015-07-07T12:44:27Z</time>
      </trkpt>
      <trkpt lat="46.25196" lon="4.59561">
        <ele>453</ele>
        <time>2015-07-07T12:44:35Z</time>
      </trkpt>
      <trkpt lat="46.2519" lon="4.59549">
        <ele>453</ele>
        <time>2015-07-07T12:44:43Z</time>
      </trkpt>
      <trkpt lat="46.25177" lon="4.59503">
        <ele>452</ele>
        <time>2015-07-07T12:45:14Z</time>
      </trkpt>
      <trkpt lat="46.25161" lon="4.59474">
        <ele>451</ele>
        <time>2015-07-07T12:45:37Z</time>
      </trkpt>
      <trkpt lat="46.25133" lon="4.59462">
        <ele>452</ele>
        <time>2015-07-07T12:46:02Z</time>
      </trkpt>
      <trkpt lat="46.25105" lon="4.59465">
        <ele>454</ele>
        <time>2015-07-07T12:46:33Z</time>
      </trkpt>
      <trkpt lat="46.25073" lon="4.5948">
        <ele>456</ele>
        <time>2015-07-07T12:47:03Z</time>
      </trkpt>
      <trkpt lat="46.25068" lon="4.5948">
        <ele>456</ele>
        <time>2015-07-07T12:47:07Z</time>
      </trkpt>
      <trkpt lat="46.25058" lon="4.59486">
        <ele>456</ele>
        <time>2015-07-07T12:47:15Z</time>
      </trkpt>
      <trkpt lat="46.25039" lon="4.59487">
        <ele>454</ele>
        <time>2015-07-07T12:47:47Z</time>
      </trkpt>
      <trkpt lat="46.2503" lon="4.59491">
        <ele>454</ele>
        <time>2015-07-07T12:47:55Z</time>
      </trkpt>
      <trkpt lat="46.25002" lon="4.59486">
        <ele>455</ele>
        <time>2015-07-07T12:48:18Z</time>
      </trkpt>
      <trkpt lat="46.24966" lon="4.59487">
        <ele>453</ele>
        <time>2015-07-07T12:48:50Z</time>
      </trkpt>
      <trkpt lat="46.24951" lon="4.59494">
        <ele>453</ele>
        <time>2015-07-07T12:49:02Z</time>
      </trkpt>
      <trkpt lat="46.24946" lon="4.59495">
        <ele>453</ele>
        <time>2015-07-07T12:49:06Z</time>
      </trkpt>
      <trkpt lat="46.2493" lon="4.59491">
        <ele>453</ele>
        <time>2015-07-07T12:49:20Z</time>
      </trkpt>
      <trkpt lat="46.2489" lon="4.59447">
        <ele>449</ele>
        <time>2015-07-07T12:50:03Z</time>
      </trkpt>
      <trkpt lat="46.24862" lon="4.59385">
        <ele>444</ele>
        <time>2015-07-07T12:50:49Z</time>
      </trkpt>
      <trkpt lat="46.24857" lon="4.59364">
        <ele>443</ele>
        <time>2015-07-07T12:51:02Z</time>
      </trkpt>
      <trkpt lat="46.24861" lon="4.59329">
        <ele>440</ele>
        <time>2015-07-07T12:51:37Z</time>
      </trkpt>
      <trkpt lat="46.24866" lon="4.59312">
        <ele>438</ele>
        <time>2015-07-07T12:51:53Z</time>
      </trkpt>
      <trkpt lat="46.24894" lon="4.59245">
        <ele>432</ele>
        <time>2015-07-07T12:53:00Z</time>
      </trkpt>
      <trkpt lat="46.24897" lon="4.5924">
        <ele>433</ele>
        <time>2015-07-07T12:53:05Z</time>
      </trkpt>
      <trkpt lat="46.24898" lon="4.59232">
        <ele>433</ele>
        <time>2015-07-07T12:53:13Z</time>
      </trkpt>
      <trkpt lat="46.24913" lon="4.59188">
        <ele>432</ele>
        <time>2015-07-07T12:53:41Z</time>
      </trkpt>
      <trkpt lat="46.24914" lon="4.59102">
        <ele>430</ele>
        <time>2015-07-07T12:54:34Z</time>
      </trkpt>
      <trkpt lat="46.24917" lon="4.59082">
        <ele>428</ele>
        <time>2015-07-07T12:54:46Z</time>
      </trkpt>
      <trkpt lat="46.2495" lon="4.58952">
        <ele>426</ele>
        <time>2015-07-07T12:56:19Z</time>
      </trkpt>
      <trkpt lat="46.24954" lon="4.5894">
        <ele>426</ele>
        <time>2015-07-07T12:56:27Z</time>
      </trkpt>
      <trkpt lat="46.24971" lon="4.58908">
        <ele>422</ele>
        <time>2015-07-07T12:56:49Z</time>
      </trkpt>
      <trkpt lat="46.2497" lon="4.58887">
        <ele>424</ele>
        <time>2015-07-07T12:57:02Z</time>
      </trkpt>
      <trkpt lat="46.24968" lon="4.58874">
        <ele>425</ele>
        <time>2015-07-07T12:57:10Z</time>
      </trkpt>
      <trkpt lat="46.24966" lon="4.58867">
        <ele>425</ele>
        <time>2015-07-07T12:57:15Z</time>
      </trkpt>
      <trkpt lat="46.24962" lon="4.58862">
        <ele>425</ele>
        <time>2015-07-07T12:57:19Z</time>
      </trkpt>
      <trkpt lat="46.24958" lon="4.58858">
        <ele>424</ele>
        <time>2015-07-07T12:57:23Z</time>
      </trkpt>
      <trkpt lat="46.24953" lon="4.58838">
        <ele>424</ele>
        <time>2015-07-07T12:57:54Z</time>
      </trkpt>
      <trkpt lat="46.24923" lon="4.58817">
        <ele>430</ele>
        <time>2015-07-07T12:58:36Z</time>
      </trkpt>
      <trkpt lat="46.24902" lon="4.58791">
        <ele>433</ele>
        <time>2015-07-07T12:59:14Z</time>
      </trkpt>
      <trkpt lat="46.24887" lon="4.58777">
        <ele>434</ele>
        <time>2015-07-07T12:59:31Z</time>
      </trkpt>
      <trkpt lat="46.24877" lon="4.58769">
        <ele>437</ele>
        <time>2015-07-07T13:00:06Z</time>
      </trkpt>
      <trkpt lat="46.24865" lon="4.58747">
        <ele>436</ele>
        <time>2015-07-07T13:00:29Z</time>
      </trkpt>
      <trkpt lat="46.24861" lon="4.58741">
        <ele>436</ele>
        <time>2015-07-07T13:00:33Z</time>
      </trkpt>
      <trkpt lat="46.24845" lon="4.58725">
        <ele>438</ele>
        <time>2015-07-07T13:00:51Z</time>
      </trkpt>
      <trkpt lat="46.24837" lon="4.58716">
        <ele>438</ele>
        <time>2015-07-07T13:01:01Z</time>
      </trkpt>
      <trkpt lat="46.24834" lon="4.5871">
        <ele>436</ele>
        <time>2015-07-07T13:01:06Z</time>
      </trkpt>
      <trkpt lat="46.24803" lon="4.58686">
        <ele>433</ele>
        <time>2015-07-07T13:01:38Z</time>
      </trkpt>
      <trkpt lat="46.24791" lon="4.58673">
        <ele>433</ele>
        <time>2015-07-07T13:01:51Z</time>
      </trkpt>
      <trkpt lat="46.24788" lon="4.58668">
        <ele>433</ele>
        <time>2015-07-07T13:01:56Z</time>
      </trkpt>
      <trkpt lat="46.24783" lon="4.58664">
        <ele>433</ele>
        <time>2015-07-07T13:02:01Z</time>
      </trkpt>
      <trkpt lat="46.24757" lon="4.58637">
        <ele>429</ele>
        <time>2015-07-07T13:02:31Z</time>
      </trkpt>
      <trkpt lat="46.24724" lon="4.58613">
        <ele>428</ele>
        <time>2015-07-07T13:03:04Z</time>
      </trkpt>
      <trkpt lat="46.2472" lon="4.58609">
        <ele>428</ele>
        <time>2015-07-07T13:03:08Z</time>
      </trkpt>
      <trkpt lat="46.24706" lon="4.58598">
        <ele>427</ele>
        <time>2015-07-07T13:03:22Z</time>
      </trkpt>
      <trkpt lat="46.24678" lon="4.58566">
        <ele>420</ele>
        <time>2015-07-07T13:03:56Z</time>
      </trkpt>
      <trkpt lat="46.24646" lon="4.5854">
        <ele>417</ele>
        <time>2015-07-07T13:04:30Z</time>
      </trkpt>
      <trkpt lat="46.24622" lon="4.58536">
        <ele>415</ele>
        <time>2015-07-07T13:04:52Z</time>
      </trkpt>
      <trkpt lat="46.24556" lon="4.58542">
        <ele>416</ele>
        <time>2015-07-07T13:05:53Z</time>
      </trkpt>
      <trkpt lat="46.24552" lon="4.58544">
        <ele>415</ele>
        <time>2015-07-07T13:05:57Z</time>
      </trkpt>
      <trkpt lat="46.24547" lon="4.58543">
        <ele>415</ele>
        <time>2015-07-07T13:06:02Z</time>
      </trkpt>
      <trkpt lat="46.24464" lon="4.58573">
        <ele>418</ele>
        <time>2015-07-07T13:07:19Z</time>
      </trkpt>
      <trkpt lat="46.24425" lon="4.58573">
        <ele>418</ele>
        <time>2015-07-07T13:07:54Z</time>
      </trkpt>
      <trkpt lat="46.24415" lon="4.58572">
        <ele>419</ele>
        <time>2015-07-07T13:08:03Z</time>
      </trkpt>
      <trkpt lat="46.24366" lon="4.58575">
        <ele>421</ele>
        <time>2015-07-07T13:08:59Z</time>
      </trkpt>
      <trkpt lat="46.24361" lon="4.58575">
        <ele>422</ele>
        <time>2015-07-07T13:09:03Z</time>
      </trkpt>
      <trkpt lat="46.24355" lon="4.58576">
        <ele>422</ele>
        <time>2015-07-07T13:09:06Z</time>
      </trkpt>
      <trkpt lat="46.24328" lon="4.58574">
        <ele>420</ele>
        <time>2015-07-07T13:09:29Z</time>
      </trkpt>
      <trkpt lat="46.24323" lon="4.58573">
        <ele>420</ele>
        <time>2015-07-07T13:09:35Z</time>
      </trkpt>
      <trkpt lat="46.24318" lon="4.58572">
        <ele>420</ele>
        <time>2015-07-07T13:09:40Z</time>
      </trkpt>
      <trkpt lat="46.24289" lon="4.58571">
        <ele>421</ele>
        <time>2015-07-07T13:10:10Z</time>
      </trkpt>
      <trkpt lat="46.24252" lon="4.58579">
        <ele>422</ele>
        <time>2015-07-07T13:10:48Z</time>
      </trkpt>
      <trkpt lat="46.24195" lon="4.58568">
        <ele>427</ele>
        <time>2015-07-07T13:11:48Z</time>
      </trkpt>
      <trkpt lat="46.24158" lon="4.58571">
        <ele>426</ele>
        <time>2015-07-07T13:12:20Z</time>
      </trkpt>
      <trkpt lat="46.24125" lon="4.58586">
        <ele>425</ele>
        <time>2015-07-07T13:12:51Z</time>
      </trkpt>
      <trkpt lat="46.24068" lon="4.5863">
        <ele>426</ele>
        <time>2015-07-07T13:13:51Z</time>
      </trkpt>
      <trkpt lat="46.24034" lon="4.58641">
        <ele>429</ele>
        <time>2015-07-07T13:14:58Z</time>
      </trkpt>
      <trkpt lat="46.23981" lon="4.5867">
        <ele>428</ele>
        <time>2015-07-07T13:15:43Z</time>
      </trkpt>
      <trkpt lat="46.23913" lon="4.58745">
        <ele>430</ele>
        <time>2015-07-07T13:17:09Z</time>
      </trkpt>
      <trkpt lat="46.23906" lon="4.58754">
        <ele>429</ele>
        <time>2015-07-07T13:17:23Z</time>
      </trkpt>
      <trkpt lat="46.23901" lon="4.58758">
        <ele>429</ele>
        <time>2015-07-07T13:17:31Z</time>
      </trkpt>
      <trkpt lat="46.2389" lon="4.58772">
        <ele>430</ele>
        <time>2015-07-07T13:17:43Z</time>
      </trkpt>
      <trkpt lat="46.2379" lon="4.58874">
        <ele>429</ele>
        <time>2015-07-07T13:19:32Z</time>
      </trkpt>
      <trkpt lat="46.23757" lon="4.58899">
        <ele>430</ele>
        <time>2015-07-07T13:20:04Z</time>
      </trkpt>
      <trkpt lat="46.23748" lon="4.58904">
        <ele>430</ele>
        <time>2015-07-07T13:20:12Z</time>
      </trkpt>
      <trkpt lat="46.23739" lon="4.58907">
        <ele>429</ele>
        <time>2015-07-07T13:20:20Z</time>
      </trkpt>
      <trkpt lat="46.23711" lon="4.58925">
        <ele>428</ele>
        <time>2015-07-07T13:20:58Z</time>
      </trkpt>
      <trkpt lat="46.23707" lon="4.58928">
        <ele>427</ele>
        <time>2015-07-07T13:21:53Z</time>
      </trkpt>
      <trkpt lat="46.23702" lon="4.5893">
        <ele>428</ele>
        <time>2015-07-07T13:21:58Z</time>
      </trkpt>
      <trkpt lat="46.23692" lon="4.58931">
        <ele>428</ele>
        <time>2015-07-07T13:22:07Z</time>
      </trkpt>
      <trkpt lat="46.23679" lon="4.58923">
        <ele>428</ele>
        <time>2015-07-07T13:22:19Z</time>
      </trkpt>
      <trkpt lat="46.23623" lon="4.58869">
        <ele>430</ele>
        <time>2015-07-07T13:23:24Z</time>
      </trkpt>
      <trkpt lat="46.23618" lon="4.58866">
        <ele>431</ele>
        <time>2015-07-07T13:23:31Z</time>
      </trkpt>
      <trkpt lat="46.23609" lon="4.58869">
        <ele>432</ele>
        <time>2015-07-07T13:23:42Z</time>
      </trkpt>
      <trkpt lat="46.23446" lon="4.59038">
        <ele>439</ele>
        <time>2015-07-07T13:26:51Z</time>
      </trkpt>
      <trkpt lat="46.23441" lon="4.59034">
        <ele>439</ele>
        <time>2015-07-07T13:28:02Z</time>
      </trkpt>
      <trkpt lat="46.23438" lon="4.59038">
        <ele>440</ele>
        <time>2015-07-07T13:28:12Z</time>
      </trkpt>
      <trkpt lat="46.23438" lon="4.59045">
        <ele>440</ele>
        <time>2015-07-07T13:28:18Z</time>
      </trkpt>
      <trkpt lat="46.23422" lon="4.59062">
        <ele>439</ele>
        <time>2015-07-07T13:29:46Z</time>
      </trkpt>
      <trkpt lat="46.23414" lon="4.59068">
        <ele>439</ele>
        <time>2015-07-07T13:29:56Z</time>
      </trkpt>
      <trkpt lat="46.23405" lon="4.59078">
        <ele>439</ele>
        <time>2015-07-07T13:30:06Z</time>
      </trkpt>
      <trkpt lat="46.23355" lon="4.59126">
        <ele>442</ele>
        <time>2015-07-07T13:31:05Z</time>
      </trkpt>
      <trkpt lat="46.23323" lon="4.59149">
        <ele>443</ele>
        <time>2015-07-07T13:31:40Z</time>
      </trkpt>
      <trkpt lat="46.23247" lon="4.59221">
        <ele>446</ele>
        <time>2015-07-07T13:33:30Z</time>
      </trkpt>
      <trkpt lat="46.23232" lon="4.5923">
        <ele>444</ele>
        <time>2015-07-07T13:33:44Z</time>
      </trkpt>
      <trkpt lat="46.23115" lon="4.59341">
        <ele>450</ele>
        <time>2015-07-07T13:36:00Z</time>
      </trkpt>
      <trkpt lat="46.23106" lon="4.59348">
        <ele>450</ele>
        <time>2015-07-07T13:36:10Z</time>
      </trkpt>
      <trkpt lat="46.23107" lon="4.59354">
        <ele>451</ele>
        <time>2015-07-07T13:36:38Z</time>
      </trkpt>
      <trkpt lat="46.23104" lon="4.59373">
        <ele>450</ele>
        <time>2015-07-07T13:36:56Z</time>
      </trkpt>
      <trkpt lat="46.23104" lon="4.59381">
        <ele>450</ele>
        <time>2015-07-07T13:37:26Z</time>
      </trkpt>
      <trkpt lat="46.23106" lon="4.59388">
        <ele>450</ele>
        <time>2015-07-07T13:37:31Z</time>
      </trkpt>
      <trkpt lat="46.23115" lon="4.59404">
        <ele>445</ele>
        <time>2015-07-07T13:37:51Z</time>
      </trkpt>
      <trkpt lat="46.23118" lon="4.59411">
        <ele>445</ele>
        <time>2015-07-07T13:38:28Z</time>
      </trkpt>
      <trkpt lat="46.23115" lon="4.59418">
        <ele>445</ele>
        <time>2015-07-07T13:38:51Z</time>
      </trkpt>
      <trkpt lat="46.23112" lon="4.59424">
        <ele>445</ele>
        <time>2015-07-07T13:39:08Z</time>
      </trkpt>
      <trkpt lat="46.23105" lon="4.59426">
        <ele>446</ele>
        <time>2015-07-07T13:39:21Z</time>
      </trkpt>
      <trkpt lat="46.23109" lon="4.59423">
        <ele>446</ele>
        <time>2015-07-07T13:40:01Z</time>
      </trkpt>
      <trkpt lat="46.23113" lon="4.59404">
        <ele>446</ele>
        <time>2015-07-07T13:40:28Z</time>
      </trkpt>
      <trkpt lat="46.23121" lon="4.59403">
        <ele>447</ele>
        <time>2015-07-07T13:41:11Z</time>
      </trkpt>
      <trkpt lat="46.23128" lon="4.59404">
        <ele>446</ele>
        <time>2015-07-07T13:41:31Z</time>
      </trkpt>
      <trkpt lat="46.23131" lon="4.59411">
        <ele>445</ele>
        <time>2015-07-07T13:41:36Z</time>
      </trkpt>
      <trkpt lat="46.23129" lon="4.59419">
        <ele>445</ele>
        <time>2015-07-07T13:41:40Z</time>
      </trkpt>
      <trkpt lat="46.23132" lon="4.59424">
        <ele>444</ele>
        <time>2015-07-07T13:41:46Z</time>
      </trkpt>
      <trkpt lat="46.23131" lon="4.59428">
        <ele>444</ele>
        <time>2015-07-07T14:23:27Z</time>
      </trkpt>
      <trkpt lat="46.23127" lon="4.5943">
        <ele>444</ele>
        <time>2015-07-07T14:30:46Z</time>
      </trkpt>
      <trkpt lat="46.23125" lon="4.59424">
        <ele>446</ele>
        <time>2015-07-07T14:30:50Z</time>
      </trkpt>
      <trkpt lat="46.23123" lon="4.59417">
        <ele>447</ele>
        <time>2015-07-07T14:30:55Z</time>
      </trkpt>
      <trkpt lat="46.23124" lon="4.59409">
        <ele>447</ele>
        <time>2015-07-07T14:31:00Z</time>
      </trkpt>
      <trkpt lat="46.23124" lon="4.59403">
        <ele>446</ele>
        <time>2015-07-07T14:31:04Z</time>
      </trkpt>
      <trkpt lat="46.23119" lon="4.59398">
        <ele>446</ele>
        <time>2015-07-07T14:31:08Z</time>
      </trkpt>
      <trkpt lat="46.23114" lon="4.59395">
        <ele>446</ele>
        <time>2015-07-07T14:31:12Z</time>
      </trkpt>
      <trkpt lat="46.2311" lon="4.59392">
        <ele>447</ele>
        <time>2015-07-07T14:31:19Z</time>
      </trkpt>
      <trkpt lat="46.23109" lon="4.59389">
        <ele>447</ele>
        <time>2015-07-07T14:31:25Z</time>
      </trkpt>
      <trkpt lat="46.23106" lon="4.59385">
        <ele>448</ele>
        <time>2015-07-07T14:31:35Z</time>
      </trkpt>
      <trkpt lat="46.23103" lon="4.59387">
        <ele>448</ele>
        <time>2015-07-07T14:31:43Z</time>
      </trkpt>
      <trkpt lat="46.23098" lon="4.59384">
        <ele>448</ele>
        <time>2015-07-07T14:31:54Z</time>
      </trkpt>
      <trkpt lat="46.23093" lon="4.59374">
        <ele>449</ele>
        <time>2015-07-07T14:32:08Z</time>
      </trkpt>
      <trkpt lat="46.23097" lon="4.59369">
        <ele>449</ele>
        <time>2015-07-07T14:32:13Z</time>
      </trkpt>
      <trkpt lat="46.23103" lon="4.59357">
        <ele>449</ele>
        <time>2015-07-07T14:32:25Z</time>
      </trkpt>
      <trkpt lat="46.23107" lon="4.59353">
        <ele>450</ele>
        <time>2015-07-07T14:32:30Z</time>
      </trkpt>
      <trkpt lat="46.23103" lon="4.59349">
        <ele>449</ele>
        <time>2015-07-07T14:32:40Z</time>
      </trkpt>
      <trkpt lat="46.231" lon="4.59354">
        <ele>448</ele>
        <time>2015-07-07T14:32:48Z</time>
      </trkpt>
      <trkpt lat="46.23095" lon="4.59353">
        <ele>450</ele>
        <time>2015-07-07T14:34:00Z</time>
      </trkpt>
      <trkpt lat="46.2309" lon="4.59347">
        <ele>452</ele>
        <time>2015-07-07T14:38:43Z</time>
      </trkpt>
      <trkpt lat="46.23101" lon="4.59342">
        <ele>453</ele>
        <time>2015-07-07T14:38:48Z</time>
      </trkpt>
      <trkpt lat="46.2312" lon="4.5933">
        <ele>453</ele>
        <time>2015-07-07T14:39:03Z</time>
      </trkpt>
      <trkpt lat="46.2314" lon="4.59311">
        <ele>447</ele>
        <time>2015-07-07T14:40:44Z</time>
      </trkpt>
      <trkpt lat="46.2316" lon="4.593">
        <ele>445</ele>
        <time>2015-07-07T14:41:02Z</time>
      </trkpt>
      <trkpt lat="46.23175" lon="4.59283">
        <ele>447</ele>
        <time>2015-07-07T14:41:21Z</time>
      </trkpt>
      <trkpt lat="46.23177" lon="4.59277">
        <ele>447</ele>
        <time>2015-07-07T14:41:27Z</time>
      </trkpt>
      <trkpt lat="46.23181" lon="4.59273">
        <ele>447</ele>
        <time>2015-07-07T14:41:33Z</time>
      </trkpt>
      <trkpt lat="46.23174" lon="4.59263">
        <ele>447</ele>
        <time>2015-07-07T14:41:45Z</time>
      </trkpt>
      <trkpt lat="46.23173" lon="4.59258">
        <ele>447</ele>
        <time>2015-07-07T14:41:54Z</time>
      </trkpt>
      <trkpt lat="46.23159" lon="4.59237">
        <ele>449</ele>
        <time>2015-07-07T14:42:15Z</time>
      </trkpt>
      <trkpt lat="46.23157" lon="4.5923">
        <ele>449</ele>
        <time>2015-07-07T14:42:21Z</time>
      </trkpt>
      <trkpt lat="46.23157" lon="4.59223">
        <ele>450</ele>
        <time>2015-07-07T14:42:26Z</time>
      </trkpt>
      <trkpt lat="46.23158" lon="4.59219">
        <ele>451</ele>
        <time>2015-07-07T14:42:38Z</time>
      </trkpt>
      <trkpt lat="46.23175" lon="4.59187">
        <ele>451</ele>
        <time>2015-07-07T14:43:09Z</time>
      </trkpt>
      <trkpt lat="46.23182" lon="4.59169">
        <ele>453</ele>
        <time>2015-07-07T14:43:26Z</time>
      </trkpt>
      <trkpt lat="46.23192" lon="4.59161">
        <ele>455</ele>
        <time>2015-07-07T14:43:36Z</time>
      </trkpt>
      <trkpt lat="46.23195" lon="4.59149">
        <ele>457</ele>
        <time>2015-07-07T14:43:48Z</time>
      </trkpt>
      <trkpt lat="46.23199" lon="4.59146">
        <ele>457</ele>
        <time>2015-07-07T14:43:52Z</time>
      </trkpt>
      <trkpt lat="46.23203" lon="4.59142">
        <ele>458</ele>
        <time>2015-07-07T14:43:58Z</time>
      </trkpt>
      <trkpt lat="46.23201" lon="4.59136">
        <ele>459</ele>
        <time>2015-07-07T14:44:04Z</time>
      </trkpt>
      <trkpt lat="46.23201" lon="4.59131">
        <ele>460</ele>
        <time>2015-07-07T14:44:17Z</time>
      </trkpt>
      <trkpt lat="46.23206" lon="4.59118">
        <ele>462</ele>
        <time>2015-07-07T14:44:32Z</time>
      </trkpt>
      <trkpt lat="46.23211" lon="4.59116">
        <ele>462</ele>
        <time>2015-07-07T14:44:38Z</time>
      </trkpt>
      <trkpt lat="46.23214" lon="4.59108">
        <ele>463</ele>
        <time>2015-07-07T14:44:42Z</time>
      </trkpt>
      <trkpt lat="46.23214" lon="4.591">
        <ele>463</ele>
        <time>2015-07-07T14:44:44Z</time>
      </trkpt>
      <trkpt lat="46.23222" lon="4.59081">
        <ele>465</ele>
        <time>2015-07-07T14:45:03Z</time>
      </trkpt>
      <trkpt lat="46.23231" lon="4.59072">
        <ele>467</ele>
        <time>2015-07-07T14:45:13Z</time>
      </trkpt>
      <trkpt lat="46.23232" lon="4.59057">
        <ele>468</ele>
        <time>2015-07-07T14:45:22Z</time>
      </trkpt>
      <trkpt lat="46.23229" lon="4.59053">
        <ele>469</ele>
        <time>2015-07-07T14:45:24Z</time>
      </trkpt>
      <trkpt lat="46.23231" lon="4.59046">
        <ele>469</ele>
        <time>2015-07-07T14:45:30Z</time>
      </trkpt>
      <trkpt lat="46.23235" lon="4.59043">
        <ele>470</ele>
        <time>2015-07-07T14:45:40Z</time>
      </trkpt>
      <trkpt lat="46.23253" lon="4.58991">
        <ele>476</ele>
        <time>2015-07-07T14:46:38Z</time>
      </trkpt>
      <trkpt lat="46.23256" lon="4.58986">
        <ele>477</ele>
        <time>2015-07-07T14:46:43Z</time>
      </trkpt>
      <trkpt lat="46.23257" lon="4.58978">
        <ele>478</ele>
        <time>2015-07-07T14:46:50Z</time>
      </trkpt>
      <trkpt lat="46.23261" lon="4.58972">
        <ele>479</ele>
        <time>2015-07-07T14:46:55Z</time>
      </trkpt>
      <trkpt lat="46.23263" lon="4.58959">
        <ele>480</ele>
        <time>2015-07-07T14:47:06Z</time>
      </trkpt>
      <trkpt lat="46.23262" lon="4.58952">
        <ele>481</ele>
        <time>2015-07-07T14:47:12Z</time>
      </trkpt>
      <trkpt lat="46.23255" lon="4.58937">
        <ele>482</ele>
        <time>2015-07-07T14:47:20Z</time>
      </trkpt>
      <trkpt lat="46.23257" lon="4.58931">
        <ele>482</ele>
        <time>2015-07-07T14:47:26Z</time>
      </trkpt>
      <trkpt lat="46.23253" lon="4.58923">
        <ele>482</ele>
        <time>2015-07-07T14:47:40Z</time>
      </trkpt>
      <trkpt lat="46.23249" lon="4.58921">
        <ele>482</ele>
        <time>2015-07-07T14:47:45Z</time>
      </trkpt>
      <trkpt lat="46.23247" lon="4.58916">
        <ele>483</ele>
        <time>2015-07-07T14:47:54Z</time>
      </trkpt>
      <trkpt lat="46.23243" lon="4.58914">
        <ele>483</ele>
        <time>2015-07-07T14:48:01Z</time>
      </trkpt>
      <trkpt lat="46.23243" lon="4.58908">
        <ele>484</ele>
        <time>2015-07-07T14:48:04Z</time>
      </trkpt>
      <trkpt lat="46.23241" lon="4.58901">
        <ele>484</ele>
        <time>2015-07-07T14:48:07Z</time>
      </trkpt>
      <trkpt lat="46.23222" lon="4.58877">
        <ele>486</ele>
        <time>2015-07-07T14:48:27Z</time>
      </trkpt>
      <trkpt lat="46.23215" lon="4.58858">
        <ele>488</ele>
        <time>2015-07-07T14:48:41Z</time>
      </trkpt>
      <trkpt lat="46.23212" lon="4.58855">
        <ele>488</ele>
        <time>2015-07-07T14:48:46Z</time>
      </trkpt>
      <trkpt lat="46.23206" lon="4.58842">
        <ele>487</ele>
        <time>2015-07-07T14:48:55Z</time>
      </trkpt>
      <trkpt lat="46.23202" lon="4.58837">
        <ele>487</ele>
        <time>2015-07-07T14:48:59Z</time>
      </trkpt>
      <trkpt lat="46.23198" lon="4.58833">
        <ele>488</ele>
        <time>2015-07-07T14:49:04Z</time>
      </trkpt>
      <trkpt lat="46.23184" lon="4.58796">
        <ele>492</ele>
        <time>2015-07-07T14:50:39Z</time>
      </trkpt>
      <trkpt lat="46.23177" lon="4.5877">
        <ele>494</ele>
        <time>2015-07-07T14:50:58Z</time>
      </trkpt>
      <trkpt lat="46.23167" lon="4.587">
        <ele>498</ele>
        <time>2015-07-07T14:51:49Z</time>
      </trkpt>
      <trkpt lat="46.23166" lon="4.58694">
        <ele>499</ele>
        <time>2015-07-07T14:52:14Z</time>
      </trkpt>
      <trkpt lat="46.23161" lon="4.58682">
        <ele>499</ele>
        <time>2015-07-07T14:52:25Z</time>
      </trkpt>
      <trkpt lat="46.23155" lon="4.58657">
        <ele>502</ele>
        <time>2015-07-07T14:52:43Z</time>
      </trkpt>
      <trkpt lat="46.23139" lon="4.58609">
        <ele>512</ele>
        <time>2015-07-07T14:53:16Z</time>
      </trkpt>
      <trkpt lat="46.23131" lon="4.58569">
        <ele>518</ele>
        <time>2015-07-07T14:53:49Z</time>
      </trkpt>
      <trkpt lat="46.23122" lon="4.58543">
        <ele>520</ele>
        <time>2015-07-07T14:54:05Z</time>
      </trkpt>
      <trkpt lat="46.23122" lon="4.58536">
        <ele>520</ele>
        <time>2015-07-07T14:54:09Z</time>
      </trkpt>
      <trkpt lat="46.23117" lon="4.58524">
        <ele>520</ele>
        <time>2015-07-07T14:54:29Z</time>
      </trkpt>
      <trkpt lat="46.23113" lon="4.58496">
        <ele>515</ele>
        <time>2015-07-07T14:54:45Z</time>
      </trkpt>
      <trkpt lat="46.23114" lon="4.58482">
        <ele>515</ele>
        <time>2015-07-07T14:54:55Z</time>
      </trkpt>
      <trkpt lat="46.2312" lon="4.58469">
        <ele>515</ele>
        <time>2015-07-07T14:55:04Z</time>
      </trkpt>
      <trkpt lat="46.23129" lon="4.58434">
        <ele>517</ele>
        <time>2015-07-07T14:55:25Z</time>
      </trkpt>
      <trkpt lat="46.23154" lon="4.5841">
        <ele>521</ele>
        <time>2015-07-07T14:55:56Z</time>
      </trkpt>
      <trkpt lat="46.23167" lon="4.58402">
        <ele>522</ele>
        <time>2015-07-07T14:56:10Z</time>
      </trkpt>
      <trkpt lat="46.23172" lon="4.58389">
        <ele>524</ele>
        <time>2015-07-07T14:56:19Z</time>
      </trkpt>
      <trkpt lat="46.23181" lon="4.58372">
        <ele>525</ele>
        <time>2015-07-07T14:56:30Z</time>
      </trkpt>
      <trkpt lat="46.23186" lon="4.58359">
        <ele>525</ele>
        <time>2015-07-07T14:56:39Z</time>
      </trkpt>
      <trkpt lat="46.23185" lon="4.58352">
        <ele>526</ele>
        <time>2015-07-07T14:56:44Z</time>
      </trkpt>
      <trkpt lat="46.23188" lon="4.58345">
        <ele>526</ele>
        <time>2015-07-07T14:56:51Z</time>
      </trkpt>
      <trkpt lat="46.23187" lon="4.58338">
        <ele>527</ele>
        <time>2015-07-07T14:56:55Z</time>
      </trkpt>
      <trkpt lat="46.23185" lon="4.58331">
        <ele>527</ele>
        <time>2015-07-07T14:56:59Z</time>
      </trkpt>
      <trkpt lat="46.23185" lon="4.58323">
        <ele>528</ele>
        <time>2015-07-07T14:57:04Z</time>
      </trkpt>
      <trkpt lat="46.23186" lon="4.58316">
        <ele>528</ele>
        <time>2015-07-07T14:57:08Z</time>
      </trkpt>
      <trkpt lat="46.23183" lon="4.58286">
        <ele>529</ele>
        <time>2015-07-07T14:57:27Z</time>
      </trkpt>
      <trkpt lat="46.23177" lon="4.58274">
        <ele>529</ele>
        <time>2015-07-07T14:57:39Z</time>
      </trkpt>
      <trkpt lat="46.23173" lon="4.58272">
        <ele>530</ele>
        <time>2015-07-07T14:57:48Z</time>
      </trkpt>
      <trkpt lat="46.2317" lon="4.58266">
        <ele>530</ele>
        <time>2015-07-07T14:57:52Z</time>
      </trkpt>
      <trkpt lat="46.23169" lon="4.5826">
        <ele>531</ele>
        <time>2015-07-07T14:57:58Z</time>
      </trkpt>
      <trkpt lat="46.23166" lon="4.58254">
        <ele>531</ele>
        <time>2015-07-07T14:58:04Z</time>
      </trkpt>
      <trkpt lat="46.23165" lon="4.58246">
        <ele>532</ele>
        <time>2015-07-07T14:58:33Z</time>
      </trkpt>
      <trkpt lat="46.23146" lon="4.58237">
        <ele>533</ele>
        <time>2015-07-07T14:58:55Z</time>
      </trkpt>
      <trkpt lat="46.23135" lon="4.58226">
        <ele>535</ele>
        <time>2015-07-07T14:59:29Z</time>
      </trkpt>
      <trkpt lat="46.23106" lon="4.58192">
        <ele>536</ele>
        <time>2015-07-07T15:00:03Z</time>
      </trkpt>
      <trkpt lat="46.23098" lon="4.58184">
        <ele>537</ele>
        <time>2015-07-07T15:00:13Z</time>
      </trkpt>
      <trkpt lat="46.2309" lon="4.58174">
        <ele>537</ele>
        <time>2015-07-07T15:00:23Z</time>
      </trkpt>
      <trkpt lat="46.23084" lon="4.58164">
        <ele>538</ele>
        <time>2015-07-07T15:00:30Z</time>
      </trkpt>
      <trkpt lat="46.23079" lon="4.58152">
        <ele>539</ele>
        <time>2015-07-07T15:00:37Z</time>
      </trkpt>
      <trkpt lat="46.23078" lon="4.58139">
        <ele>539</ele>
        <time>2015-07-07T15:00:47Z</time>
      </trkpt>
      <trkpt lat="46.23088" lon="4.58119">
        <ele>539</ele>
        <time>2015-07-07T15:00:57Z</time>
      </trkpt>
      <trkpt lat="46.23094" lon="4.5811">
        <ele>540</ele>
        <time>2015-07-07T15:01:03Z</time>
      </trkpt>
      <trkpt lat="46.23107" lon="4.58105">
        <ele>541</ele>
        <time>2015-07-07T15:01:19Z</time>
      </trkpt>
      <trkpt lat="46.23107" lon="4.58106">
        <ele>540</ele>
        <time>2015-07-07T15:03:05Z</time>
      </trkpt>
      <trkpt lat="46.23114" lon="4.58115">
        <ele>540</ele>
        <time>2015-07-07T15:03:32Z</time>
      </trkpt>
      <trkpt lat="46.23123" lon="4.58115">
        <ele>539</ele>
        <time>2015-07-07T15:03:42Z</time>
      </trkpt>
      <trkpt lat="46.23132" lon="4.58117">
        <ele>539</ele>
        <time>2015-07-07T15:03:54Z</time>
      </trkpt>
      <trkpt lat="46.23161" lon="4.58118">
        <ele>536</ele>
        <time>2015-07-07T15:04:14Z</time>
      </trkpt>
      <trkpt lat="46.23177" lon="4.58103">
        <ele>535</ele>
        <time>2015-07-07T15:04:32Z</time>
      </trkpt>
      <trkpt lat="46.2318" lon="4.5809">
        <ele>534</ele>
        <time>2015-07-07T15:04:42Z</time>
      </trkpt>
      <trkpt lat="46.23178" lon="4.58077">
        <ele>533</ele>
        <time>2015-07-07T15:04:49Z</time>
      </trkpt>
      <trkpt lat="46.23178" lon="4.58063">
        <ele>534</ele>
        <time>2015-07-07T15:05:03Z</time>
      </trkpt>
      <trkpt lat="46.23185" lon="4.58056">
        <ele>537</ele>
        <time>2015-07-07T15:05:14Z</time>
      </trkpt>
      <trkpt lat="46.23222" lon="4.58035">
        <ele>540</ele>
        <time>2015-07-07T15:05:47Z</time>
      </trkpt>
      <trkpt lat="46.2323" lon="4.58038">
        <ele>534</ele>
        <time>2015-07-07T15:06:13Z</time>
      </trkpt>
      <trkpt lat="46.23229" lon="4.58059">
        <ele>529</ele>
        <time>2015-07-07T15:06:39Z</time>
      </trkpt>
      <trkpt lat="46.23239" lon="4.58073">
        <ele>530</ele>
        <time>2015-07-07T15:06:53Z</time>
      </trkpt>
      <trkpt lat="46.23245" lon="4.58076">
        <ele>530</ele>
        <time>2015-07-07T15:06:56Z</time>
      </trkpt>
      <trkpt lat="46.23257" lon="4.58088">
        <ele>529</ele>
        <time>2015-07-07T15:07:03Z</time>
      </trkpt>
      <trkpt lat="46.23256" lon="4.58091">
        <ele>528</ele>
        <time>2015-07-07T15:07:09Z</time>
      </trkpt>
      <trkpt lat="46.23252" lon="4.58087">
        <ele>528</ele>
        <time>2015-07-07T15:07:20Z</time>
      </trkpt>
      <trkpt lat="46.23248" lon="4.5808">
        <ele>528</ele>
        <time>2015-07-07T15:07:39Z</time>
      </trkpt>
      <trkpt lat="46.23229" lon="4.58085">
        <ele>529</ele>
        <time>2015-07-07T15:12:30Z</time>
      </trkpt>
      <trkpt lat="46.23292" lon="4.58093">
        <ele>530</ele>
        <time>2015-07-07T15:15:35Z</time>
      </trkpt>
      <trkpt lat="46.23302" lon="4.58001">
        <ele>528</ele>
        <time>2015-07-08T06:44:18Z</time>
      </trkpt>
      <trkpt lat="46.23297" lon="4.57998">
        <ele>528</ele>
        <time>2015-07-08T06:44:21Z</time>
      </trkpt>
      <trkpt lat="46.23296" lon="4.5799">
        <ele>529</ele>
        <time>2015-07-08T06:44:25Z</time>
      </trkpt>
      <trkpt lat="46.23297" lon="4.57983">
        <ele>532</ele>
        <time>2015-07-08T06:44:30Z</time>
      </trkpt>
      <trkpt lat="46.23299" lon="4.57976">
        <ele>534</ele>
        <time>2015-07-08T06:44:34Z</time>
      </trkpt>
      <trkpt lat="46.23303" lon="4.57971">
        <ele>534</ele>
        <time>2015-07-08T06:44:38Z</time>
      </trkpt>
      <trkpt lat="46.23335" lon="4.57911">
        <ele>533</ele>
        <time>2015-07-08T06:45:24Z</time>
      </trkpt>
      <trkpt lat="46.23335" lon="4.57904">
        <ele>533</ele>
        <time>2015-07-08T06:45:28Z</time>
      </trkpt>
      <trkpt lat="46.23333" lon="4.57897">
        <ele>533</ele>
        <time>2015-07-08T06:45:32Z</time>
      </trkpt>
      <trkpt lat="46.2332" lon="4.57888">
        <ele>535</ele>
        <time>2015-07-08T06:45:44Z</time>
      </trkpt>
      <trkpt lat="46.23315" lon="4.57888">
        <ele>535</ele>
        <time>2015-07-08T06:45:48Z</time>
      </trkpt>
      <trkpt lat="46.23309" lon="4.57898">
        <ele>535</ele>
        <time>2015-07-08T06:45:54Z</time>
      </trkpt>
      <trkpt lat="46.23306" lon="4.57901">
        <ele>535</ele>
        <time>2015-07-08T06:45:55Z</time>
      </trkpt>
      <trkpt lat="46.23303" lon="4.579">
        <ele>535</ele>
        <time>2015-07-08T06:45:57Z</time>
      </trkpt>
      <trkpt lat="46.23297" lon="4.57906">
        <ele>537</ele>
        <time>2015-07-08T06:46:05Z</time>
      </trkpt>
      <trkpt lat="46.23294" lon="4.57913">
        <ele>537</ele>
        <time>2015-07-08T06:46:11Z</time>
      </trkpt>
      <trkpt lat="46.23289" lon="4.57916">
        <ele>537</ele>
        <time>2015-07-08T06:46:17Z</time>
      </trkpt>
      <trkpt lat="46.23287" lon="4.57919">
        <ele>538</ele>
        <time>2015-07-08T06:46:24Z</time>
      </trkpt>
      <trkpt lat="46.23278" lon="4.57927">
        <ele>538</ele>
        <time>2015-07-08T06:46:36Z</time>
      </trkpt>
      <trkpt lat="46.23263" lon="4.57947">
        <ele>540</ele>
        <time>2015-07-08T06:46:56Z</time>
      </trkpt>
      <trkpt lat="46.23258" lon="4.57948">
        <ele>540</ele>
        <time>2015-07-08T06:47:02Z</time>
      </trkpt>
      <trkpt lat="46.23255" lon="4.57953">
        <ele>540</ele>
        <time>2015-07-08T06:47:09Z</time>
      </trkpt>
      <trkpt lat="46.23253" lon="4.5796">
        <ele>540</ele>
        <time>2015-07-08T06:47:14Z</time>
      </trkpt>
      <trkpt lat="46.23249" lon="4.57964">
        <ele>541</ele>
        <time>2015-07-08T06:47:18Z</time>
      </trkpt>
      <trkpt lat="46.23247" lon="4.57978">
        <ele>541</ele>
        <time>2015-07-08T06:47:30Z</time>
      </trkpt>
      <trkpt lat="46.23218" lon="4.57999">
        <ele>545</ele>
        <time>2015-07-08T06:47:58Z</time>
      </trkpt>
      <trkpt lat="46.23213" lon="4.58002">
        <ele>545</ele>
        <time>2015-07-08T06:48:03Z</time>
      </trkpt>
      <trkpt lat="46.23192" lon="4.58016">
        <ele>552</ele>
        <time>2015-07-08T06:48:31Z</time>
      </trkpt>
      <trkpt lat="46.2318" lon="4.58011">
        <ele>553</ele>
        <time>2015-07-08T06:48:38Z</time>
      </trkpt>
      <trkpt lat="46.2318" lon="4.58003">
        <ele>553</ele>
        <time>2015-07-08T06:48:50Z</time>
      </trkpt>
      <trkpt lat="46.23243" lon="4.57919">
        <ele>559</ele>
        <time>2015-07-08T06:50:07Z</time>
      </trkpt>
      <trkpt lat="46.23261" lon="4.57885">
        <ele>559</ele>
        <time>2015-07-08T06:50:33Z</time>
      </trkpt>
      <trkpt lat="46.23268" lon="4.57859">
        <ele>558</ele>
        <time>2015-07-08T06:50:49Z</time>
      </trkpt>
      <trkpt lat="46.23282" lon="4.57834">
        <ele>558</ele>
        <time>2015-07-08T06:51:14Z</time>
      </trkpt>
      <trkpt lat="46.23287" lon="4.57832">
        <ele>558</ele>
        <time>2015-07-08T06:51:18Z</time>
      </trkpt>
      <trkpt lat="46.23316" lon="4.57829">
        <ele>559</ele>
        <time>2015-07-08T06:51:42Z</time>
      </trkpt>
      <trkpt lat="46.23338" lon="4.57819">
        <ele>557</ele>
        <time>2015-07-08T06:52:14Z</time>
      </trkpt>
      <trkpt lat="46.23381" lon="4.57766">
        <ele>560</ele>
        <time>2015-07-08T06:52:55Z</time>
      </trkpt>
      <trkpt lat="46.23391" lon="4.57766">
        <ele>561</ele>
        <time>2015-07-08T06:53:03Z</time>
      </trkpt>
      <trkpt lat="46.234" lon="4.57763">
        <ele>561</ele>
        <time>2015-07-08T06:53:11Z</time>
      </trkpt>
      <trkpt lat="46.23423" lon="4.57736">
        <ele>559</ele>
        <time>2015-07-08T06:53:33Z</time>
      </trkpt>
      <trkpt lat="46.23449" lon="4.57696">
        <ele>561</ele>
        <time>2015-07-08T06:54:06Z</time>
      </trkpt>
      <trkpt lat="46.23472" lon="4.57652">
        <ele>562</ele>
        <time>2015-07-08T06:54:41Z</time>
      </trkpt>
      <trkpt lat="46.2348" lon="4.57627">
        <ele>563</ele>
        <time>2015-07-08T06:54:58Z</time>
      </trkpt>
      <trkpt lat="46.2348" lon="4.57617">
        <ele>565</ele>
        <time>2015-07-08T06:55:14Z</time>
      </trkpt>
      <trkpt lat="46.23478" lon="4.57604">
        <ele>565</ele>
        <time>2015-07-08T06:55:35Z</time>
      </trkpt>
      <trkpt lat="46.23472" lon="4.57595">
        <ele>565</ele>
        <time>2015-07-08T06:55:43Z</time>
      </trkpt>
      <trkpt lat="46.23465" lon="4.57557">
        <ele>571</ele>
        <time>2015-07-08T06:56:18Z</time>
      </trkpt>
      <trkpt lat="46.23454" lon="4.5752">
        <ele>575</ele>
        <time>2015-07-08T06:56:44Z</time>
      </trkpt>
      <trkpt lat="46.23389" lon="4.57464">
        <ele>584</ele>
        <time>2015-07-08T06:57:55Z</time>
      </trkpt>
      <trkpt lat="46.23351" lon="4.57455">
        <ele>586</ele>
        <time>2015-07-08T06:58:32Z</time>
      </trkpt>
      <trkpt lat="46.23342" lon="4.57454">
        <ele>586</ele>
        <time>2015-07-08T06:58:43Z</time>
      </trkpt>
      <trkpt lat="46.23331" lon="4.57452">
        <ele>587</ele>
        <time>2015-07-08T06:58:50Z</time>
      </trkpt>
      <trkpt lat="46.23285" lon="4.5747">
        <ele>592</ele>
        <time>2015-07-08T06:59:33Z</time>
      </trkpt>
      <trkpt lat="46.23275" lon="4.57471">
        <ele>597</ele>
        <time>2015-07-08T06:59:41Z</time>
      </trkpt>
      <trkpt lat="46.23252" lon="4.5748">
        <ele>599</ele>
        <time>2015-07-08T07:00:12Z</time>
      </trkpt>
      <trkpt lat="46.23224" lon="4.57476">
        <ele>604</ele>
        <time>2015-07-08T07:00:41Z</time>
      </trkpt>
      <trkpt lat="46.23205" lon="4.57475">
        <ele>603</ele>
        <time>2015-07-08T07:00:58Z</time>
      </trkpt>
      <trkpt lat="46.23196" lon="4.57472">
        <ele>604</ele>
        <time>2015-07-08T07:01:09Z</time>
      </trkpt>
      <trkpt lat="46.23171" lon="4.57454">
        <ele>610</ele>
        <time>2015-07-08T07:01:43Z</time>
      </trkpt>
      <trkpt lat="46.23152" lon="4.57446">
        <ele>612</ele>
        <time>2015-07-08T07:01:56Z</time>
      </trkpt>
      <trkpt lat="46.23114" lon="4.57404">
        <ele>619</ele>
        <time>2015-07-08T07:02:48Z</time>
      </trkpt>
      <trkpt lat="46.23109" lon="4.57393">
        <ele>621</ele>
        <time>2015-07-08T07:02:57Z</time>
      </trkpt>
      <trkpt lat="46.23085" lon="4.5736">
        <ele>622</ele>
        <time>2015-07-08T07:03:52Z</time>
      </trkpt>
      <trkpt lat="46.23076" lon="4.57345">
        <ele>623</ele>
        <time>2015-07-08T07:04:04Z</time>
      </trkpt>
      <trkpt lat="46.23068" lon="4.57345">
        <ele>624</ele>
        <time>2015-07-08T07:05:22Z</time>
      </trkpt>
      <trkpt lat="46.23057" lon="4.57319">
        <ele>626</ele>
        <time>2015-07-08T07:06:09Z</time>
      </trkpt>
      <trkpt lat="46.23048" lon="4.57312">
        <ele>627</ele>
        <time>2015-07-08T07:06:16Z</time>
      </trkpt>
      <trkpt lat="46.23039" lon="4.57312">
        <ele>629</ele>
        <time>2015-07-08T07:06:30Z</time>
      </trkpt>
      <trkpt lat="46.22948" lon="4.57424">
        <ele>646</ele>
        <time>2015-07-08T07:08:41Z</time>
      </trkpt>
      <trkpt lat="46.2294" lon="4.57431">
        <ele>646</ele>
        <time>2015-07-08T07:09:07Z</time>
      </trkpt>
      <trkpt lat="46.22929" lon="4.57453">
        <ele>645</ele>
        <time>2015-07-08T07:09:27Z</time>
      </trkpt>
      <trkpt lat="46.22924" lon="4.57466">
        <ele>645</ele>
        <time>2015-07-08T07:09:35Z</time>
      </trkpt>
      <trkpt lat="46.22912" lon="4.57489">
        <ele>644</ele>
        <time>2015-07-08T07:09:57Z</time>
      </trkpt>
      <trkpt lat="46.22907" lon="4.5751">
        <ele>642</ele>
        <time>2015-07-08T07:10:12Z</time>
      </trkpt>
      <trkpt lat="46.22904" lon="4.57517">
        <ele>643</ele>
        <time>2015-07-08T07:10:40Z</time>
      </trkpt>
      <trkpt lat="46.22882" lon="4.57554">
        <ele>647</ele>
        <time>2015-07-08T07:11:16Z</time>
      </trkpt>
      <trkpt lat="46.22863" lon="4.57558">
        <ele>652</ele>
        <time>2015-07-08T07:11:41Z</time>
      </trkpt>
      <trkpt lat="46.22825" lon="4.5757">
        <ele>653</ele>
        <time>2015-07-08T07:12:20Z</time>
      </trkpt>
      <trkpt lat="46.22779" lon="4.57579">
        <ele>655</ele>
        <time>2015-07-08T07:13:15Z</time>
      </trkpt>
      <trkpt lat="46.2277" lon="4.57578">
        <ele>655</ele>
        <time>2015-07-08T07:13:24Z</time>
      </trkpt>
      <trkpt lat="46.22715" lon="4.57598">
        <ele>668</ele>
        <time>2015-07-08T07:14:35Z</time>
      </trkpt>
      <trkpt lat="46.22695" lon="4.57597">
        <ele>669</ele>
        <time>2015-07-08T07:15:01Z</time>
      </trkpt>
      <trkpt lat="46.22687" lon="4.57602">
        <ele>667</ele>
        <time>2015-07-08T07:15:13Z</time>
      </trkpt>
      <trkpt lat="46.22677" lon="4.57606">
        <ele>667</ele>
        <time>2015-07-08T07:15:20Z</time>
      </trkpt>
      <trkpt lat="46.22651" lon="4.57622">
        <ele>670</ele>
        <time>2015-07-08T07:15:52Z</time>
      </trkpt>
      <trkpt lat="46.22615" lon="4.5764">
        <ele>671</ele>
        <time>2015-07-08T07:16:27Z</time>
      </trkpt>
      <trkpt lat="46.22606" lon="4.57643">
        <ele>671</ele>
        <time>2015-07-08T07:16:35Z</time>
      </trkpt>
      <trkpt lat="46.22597" lon="4.57649">
        <ele>672</ele>
        <time>2015-07-08T07:16:44Z</time>
      </trkpt>
      <trkpt lat="46.22587" lon="4.57649">
        <ele>672</ele>
        <time>2015-07-08T07:16:50Z</time>
      </trkpt>
      <trkpt lat="46.22561" lon="4.5766">
        <ele>662</ele>
        <time>2015-07-08T07:17:27Z</time>
      </trkpt>
      <trkpt lat="46.22539" lon="4.57674">
        <ele>658</ele>
        <time>2015-07-08T07:17:54Z</time>
      </trkpt>
      <trkpt lat="46.22529" lon="4.57675">
        <ele>660</ele>
        <time>2015-07-08T07:18:04Z</time>
      </trkpt>
      <trkpt lat="46.22464" lon="4.57692">
        <ele>657</ele>
        <time>2015-07-08T07:19:29Z</time>
      </trkpt>
      <trkpt lat="46.22425" lon="4.577">
        <ele>656</ele>
        <time>2015-07-08T07:20:03Z</time>
      </trkpt>
      <trkpt lat="46.2235" lon="4.57737">
        <ele>656</ele>
        <time>2015-07-08T07:21:10Z</time>
      </trkpt>
      <trkpt lat="46.22328" lon="4.57739">
        <ele>656</ele>
        <time>2015-07-08T07:21:35Z</time>
      </trkpt>
      <trkpt lat="46.22322" lon="4.57738">
        <ele>656</ele>
        <time>2015-07-08T07:22:02Z</time>
      </trkpt>
      <trkpt lat="46.22307" lon="4.57734">
        <ele>655</ele>
        <time>2015-07-08T07:22:15Z</time>
      </trkpt>
      <trkpt lat="46.22266" lon="4.57714">
        <ele>653</ele>
        <time>2015-07-08T07:22:55Z</time>
      </trkpt>
      <trkpt lat="46.2224" lon="4.57695">
        <ele>650</ele>
        <time>2015-07-08T07:23:26Z</time>
      </trkpt>
      <trkpt lat="46.22235" lon="4.57682">
        <ele>649</ele>
        <time>2015-07-08T07:23:34Z</time>
      </trkpt>
      <trkpt lat="46.22231" lon="4.57678">
        <ele>649</ele>
        <time>2015-07-08T07:23:39Z</time>
      </trkpt>
      <trkpt lat="46.22149" lon="4.57635">
        <ele>646</ele>
        <time>2015-07-08T07:24:56Z</time>
      </trkpt>
      <trkpt lat="46.22148" lon="4.57631">
        <ele>647</ele>
        <time>2015-07-08T07:25:03Z</time>
      </trkpt>
      <trkpt lat="46.2214" lon="4.57629">
        <ele>646</ele>
        <time>2015-07-08T07:25:52Z</time>
      </trkpt>
      <trkpt lat="46.22102" lon="4.5757">
        <ele>646</ele>
        <time>2015-07-08T07:26:48Z</time>
      </trkpt>
      <trkpt lat="46.221" lon="4.57567">
        <ele>646</ele>
        <time>2015-07-08T07:27:54Z</time>
      </trkpt>
      <trkpt lat="46.22097" lon="4.57561">
        <ele>646</ele>
        <time>2015-07-08T07:28:00Z</time>
      </trkpt>
      <trkpt lat="46.22089" lon="4.5755">
        <ele>648</ele>
        <time>2015-07-08T07:28:10Z</time>
      </trkpt>
      <trkpt lat="46.22088" lon="4.57544">
        <ele>649</ele>
        <time>2015-07-08T07:28:19Z</time>
      </trkpt>
      <trkpt lat="46.22036" lon="4.5747">
        <ele>652</ele>
        <time>2015-07-08T07:29:21Z</time>
      </trkpt>
      <trkpt lat="46.22026" lon="4.57446">
        <ele>654</ele>
        <time>2015-07-08T07:29:35Z</time>
      </trkpt>
      <trkpt lat="46.22015" lon="4.57428">
        <ele>655</ele>
        <time>2015-07-08T07:29:49Z</time>
      </trkpt>
      <trkpt lat="46.21992" lon="4.57361">
        <ele>665</ele>
        <time>2015-07-08T07:31:08Z</time>
      </trkpt>
      <trkpt lat="46.21989" lon="4.57356">
        <ele>665</ele>
        <time>2015-07-08T07:31:15Z</time>
      </trkpt>
      <trkpt lat="46.21987" lon="4.57351">
        <ele>665</ele>
        <time>2015-07-08T07:31:18Z</time>
      </trkpt>
      <trkpt lat="46.21977" lon="4.57321">
        <ele>667</ele>
        <time>2015-07-08T07:31:42Z</time>
      </trkpt>
      <trkpt lat="46.21979" lon="4.57314">
        <ele>667</ele>
        <time>2015-07-08T07:31:47Z</time>
      </trkpt>
      <trkpt lat="46.21954" lon="4.57287">
        <ele>668</ele>
        <time>2015-07-08T07:32:16Z</time>
      </trkpt>
      <trkpt lat="46.21951" lon="4.57281">
        <ele>670</ele>
        <time>2015-07-08T07:32:53Z</time>
      </trkpt>
      <trkpt lat="46.21947" lon="4.57269">
        <ele>669</ele>
        <time>2015-07-08T07:33:01Z</time>
      </trkpt>
      <trkpt lat="46.21925" lon="4.57221">
        <ele>671</ele>
        <time>2015-07-08T07:33:36Z</time>
      </trkpt>
      <trkpt lat="46.21889" lon="4.57168">
        <ele>674</ele>
        <time>2015-07-08T07:34:18Z</time>
      </trkpt>
      <trkpt lat="46.21884" lon="4.57164">
        <ele>674</ele>
        <time>2015-07-08T07:34:22Z</time>
      </trkpt>
      <trkpt lat="46.21858" lon="4.5712">
        <ele>675</ele>
        <time>2015-07-08T07:34:58Z</time>
      </trkpt>
      <trkpt lat="46.21849" lon="4.57111">
        <ele>675</ele>
        <time>2015-07-08T07:35:07Z</time>
      </trkpt>
      <trkpt lat="46.21832" lon="4.57084">
        <ele>674</ele>
        <time>2015-07-08T07:35:35Z</time>
      </trkpt>
      <trkpt lat="46.21778" lon="4.57022">
        <ele>677</ele>
        <time>2015-07-08T07:38:15Z</time>
      </trkpt>
      <trkpt lat="46.2168" lon="4.5694">
        <ele>676</ele>
        <time>2015-07-08T07:39:59Z</time>
      </trkpt>
      <trkpt lat="46.2167" lon="4.56936">
        <ele>675</ele>
        <time>2015-07-08T07:40:08Z</time>
      </trkpt>
      <trkpt lat="46.2165" lon="4.5693">
        <ele>673</ele>
        <time>2015-07-08T07:40:29Z</time>
      </trkpt>
      <trkpt lat="46.21631" lon="4.56916">
        <ele>673</ele>
        <time>2015-07-08T07:40:51Z</time>
      </trkpt>
      <trkpt lat="46.21627" lon="4.5691">
        <ele>672</ele>
        <time>2015-07-08T07:41:10Z</time>
      </trkpt>
      <trkpt lat="46.21552" lon="4.56867">
        <ele>668</ele>
        <time>2015-07-08T07:42:13Z</time>
      </trkpt>
      <trkpt lat="46.21461" lon="4.56831">
        <ele>665</ele>
        <time>2015-07-08T07:43:37Z</time>
      </trkpt>
      <trkpt lat="46.21432" lon="4.56824">
        <ele>666</ele>
        <time>2015-07-08T07:44:03Z</time>
      </trkpt>
      <trkpt lat="46.214" lon="4.5681">
        <ele>671</ele>
        <time>2015-07-08T07:44:35Z</time>
      </trkpt>
      <trkpt lat="46.21364" lon="4.56783">
        <ele>674</ele>
        <time>2015-07-08T07:45:08Z</time>
      </trkpt>
      <trkpt lat="46.21351" lon="4.5677">
        <ele>675</ele>
        <time>2015-07-08T07:45:22Z</time>
      </trkpt>
      <trkpt lat="46.21346" lon="4.5677">
        <ele>675</ele>
        <time>2015-07-08T07:45:27Z</time>
      </trkpt>
      <trkpt lat="46.21343" lon="4.56765">
        <ele>675</ele>
        <time>2015-07-08T07:45:30Z</time>
      </trkpt>
      <trkpt lat="46.21334" lon="4.56756">
        <ele>675</ele>
        <time>2015-07-08T07:45:40Z</time>
      </trkpt>
      <trkpt lat="46.21332" lon="4.5675">
        <ele>675</ele>
        <time>2015-07-08T07:45:43Z</time>
      </trkpt>
      <trkpt lat="46.21331" lon="4.56743">
        <ele>675</ele>
        <time>2015-07-08T07:45:49Z</time>
      </trkpt>
      <trkpt lat="46.21325" lon="4.56732">
        <ele>675</ele>
        <time>2015-07-08T07:45:55Z</time>
      </trkpt>
      <trkpt lat="46.21319" lon="4.56725">
        <ele>674</ele>
        <time>2015-07-08T07:45:59Z</time>
      </trkpt>
      <trkpt lat="46.21315" lon="4.56722">
        <ele>674</ele>
        <time>2015-07-08T07:46:04Z</time>
      </trkpt>
      <trkpt lat="46.21311" lon="4.56722">
        <ele>675</ele>
        <time>2015-07-08T07:46:07Z</time>
      </trkpt>
      <trkpt lat="46.21299" lon="4.56697">
        <ele>675</ele>
        <time>2015-07-08T07:46:24Z</time>
      </trkpt>
      <trkpt lat="46.21286" lon="4.56683">
        <ele>676</ele>
        <time>2015-07-08T07:46:38Z</time>
      </trkpt>
      <trkpt lat="46.21282" lon="4.56685">
        <ele>676</ele>
        <time>2015-07-08T07:46:41Z</time>
      </trkpt>
      <trkpt lat="46.21277" lon="4.56684">
        <ele>676</ele>
        <time>2015-07-08T07:46:46Z</time>
      </trkpt>
      <trkpt lat="46.21269" lon="4.56657">
        <ele>677</ele>
        <time>2015-07-08T07:46:59Z</time>
      </trkpt>
      <trkpt lat="46.21271" lon="4.5665">
        <ele>677</ele>
        <time>2015-07-08T07:47:04Z</time>
      </trkpt>
      <trkpt lat="46.2127" lon="4.56645">
        <ele>677</ele>
        <time>2015-07-08T07:47:07Z</time>
      </trkpt>
      <trkpt lat="46.21247" lon="4.56603">
        <ele>678</ele>
        <time>2015-07-08T07:47:32Z</time>
      </trkpt>
      <trkpt lat="46.21246" lon="4.56597">
        <ele>679</ele>
        <time>2015-07-08T07:47:39Z</time>
      </trkpt>
      <trkpt lat="46.21242" lon="4.56593">
        <ele>679</ele>
        <time>2015-07-08T07:47:44Z</time>
      </trkpt>
      <trkpt lat="46.21239" lon="4.56588">
        <ele>679</ele>
        <time>2015-07-08T07:47:47Z</time>
      </trkpt>
      <trkpt lat="46.21206" lon="4.56331">
        <ele>689</ele>
        <time>2015-07-08T07:50:41Z</time>
      </trkpt>
      <trkpt lat="46.21206" lon="4.56309">
        <ele>689</ele>
        <time>2015-07-08T07:50:58Z</time>
      </trkpt>
      <trkpt lat="46.21206" lon="4.56302">
        <ele>690</ele>
        <time>2015-07-08T07:51:03Z</time>
      </trkpt>
      <trkpt lat="46.21188" lon="4.56104">
        <ele>697</ele>
        <time>2015-07-08T07:52:51Z</time>
      </trkpt>
      <trkpt lat="46.21178" lon="4.56069">
        <ele>699</ele>
        <time>2015-07-08T07:53:10Z</time>
      </trkpt>
      <trkpt lat="46.2118" lon="4.56066">
        <ele>700</ele>
        <time>2015-07-08T07:53:21Z</time>
      </trkpt>
      <trkpt lat="46.21176" lon="4.56052">
        <ele>700</ele>
        <time>2015-07-08T07:53:29Z</time>
      </trkpt>
      <trkpt lat="46.21171" lon="4.5601">
        <ele>699</ele>
        <time>2015-07-08T07:53:54Z</time>
      </trkpt>
      <trkpt lat="46.21168" lon="4.56004">
        <ele>699</ele>
        <time>2015-07-08T07:53:58Z</time>
      </trkpt>
      <trkpt lat="46.21156" lon="4.55831">
        <ele>706</ele>
        <time>2015-07-08T07:55:31Z</time>
      </trkpt>
      <trkpt lat="46.21146" lon="4.55782">
        <ele>707</ele>
        <time>2015-07-08T07:56:01Z</time>
      </trkpt>
      <trkpt lat="46.21141" lon="4.55769">
        <ele>709</ele>
        <time>2015-07-08T07:56:08Z</time>
      </trkpt>
      <trkpt lat="46.21141" lon="4.55761">
        <ele>709</ele>
        <time>2015-07-08T07:56:13Z</time>
      </trkpt>
      <trkpt lat="46.21145" lon="4.55747">
        <ele>710</ele>
        <time>2015-07-08T07:56:19Z</time>
      </trkpt>
      <trkpt lat="46.21148" lon="4.55606">
        <ele>721</ele>
        <time>2015-07-08T07:58:02Z</time>
      </trkpt>
      <trkpt lat="46.21153" lon="4.55578">
        <ele>721</ele>
        <time>2015-07-08T07:58:18Z</time>
      </trkpt>
      <trkpt lat="46.21152" lon="4.5557">
        <ele>724</ele>
        <time>2015-07-08T07:58:23Z</time>
      </trkpt>
      <trkpt lat="46.21154" lon="4.55557">
        <ele>724</ele>
        <time>2015-07-08T07:58:31Z</time>
      </trkpt>
      <trkpt lat="46.21152" lon="4.5555">
        <ele>725</ele>
        <time>2015-07-08T07:58:35Z</time>
      </trkpt>
      <trkpt lat="46.21151" lon="4.55543">
        <ele>725</ele>
        <time>2015-07-08T07:58:39Z</time>
      </trkpt>
      <trkpt lat="46.21152" lon="4.55515">
        <ele>727</ele>
        <time>2015-07-08T07:58:57Z</time>
      </trkpt>
      <trkpt lat="46.2115" lon="4.55494">
        <ele>728</ele>
        <time>2015-07-08T07:59:09Z</time>
      </trkpt>
      <trkpt lat="46.21151" lon="4.55488">
        <ele>728</ele>
        <time>2015-07-08T07:59:14Z</time>
      </trkpt>
      <trkpt lat="46.21128" lon="4.55367">
        <ele>733</ele>
        <time>2015-07-08T08:00:21Z</time>
      </trkpt>
      <trkpt lat="46.21128" lon="4.55347">
        <ele>734</ele>
        <time>2015-07-08T08:00:37Z</time>
      </trkpt>
      <trkpt lat="46.21127" lon="4.55342">
        <ele>734</ele>
        <time>2015-07-08T08:01:04Z</time>
      </trkpt>
      <trkpt lat="46.21124" lon="4.55335">
        <ele>734</ele>
        <time>2015-07-08T08:01:09Z</time>
      </trkpt>
      <trkpt lat="46.21123" lon="4.5533">
        <ele>734</ele>
        <time>2015-07-08T08:01:18Z</time>
      </trkpt>
      <trkpt lat="46.21127" lon="4.55326">
        <ele>734</ele>
        <time>2015-07-08T08:02:14Z</time>
      </trkpt>
      <trkpt lat="46.21132" lon="4.55305">
        <ele>733</ele>
        <time>2015-07-08T08:02:40Z</time>
      </trkpt>
      <trkpt lat="46.21133" lon="4.55299">
        <ele>733</ele>
        <time>2015-07-08T08:02:44Z</time>
      </trkpt>
      <trkpt lat="46.21137" lon="4.55279">
        <ele>730</ele>
        <time>2015-07-08T08:02:57Z</time>
      </trkpt>
      <trkpt lat="46.21137" lon="4.55271">
        <ele>730</ele>
        <time>2015-07-08T08:03:00Z</time>
      </trkpt>
      <trkpt lat="46.21142" lon="4.55258">
        <ele>731</ele>
        <time>2015-07-08T08:03:15Z</time>
      </trkpt>
      <trkpt lat="46.21139" lon="4.55252">
        <ele>731</ele>
        <time>2015-07-08T08:03:18Z</time>
      </trkpt>
      <trkpt lat="46.21135" lon="4.55247">
        <ele>731</ele>
        <time>2015-07-08T08:03:21Z</time>
      </trkpt>
      <trkpt lat="46.21133" lon="4.55235">
        <ele>731</ele>
        <time>2015-07-08T08:03:27Z</time>
      </trkpt>
      <trkpt lat="46.21134" lon="4.55228">
        <ele>731</ele>
        <time>2015-07-08T08:03:31Z</time>
      </trkpt>
      <trkpt lat="46.21139" lon="4.55228">
        <ele>731</ele>
        <time>2015-07-08T08:03:37Z</time>
      </trkpt>
      <trkpt lat="46.21142" lon="4.55229">
        <ele>730</ele>
        <time>2015-07-08T08:03:43Z</time>
      </trkpt>
      <trkpt lat="46.21144" lon="4.55229">
        <ele>729</ele>
        <time>2015-07-08T08:03:49Z</time>
      </trkpt>
      <trkpt lat="46.21145" lon="4.55223">
        <ele>729</ele>
        <time>2015-07-08T08:04:25Z</time>
      </trkpt>
      <trkpt lat="46.2115" lon="4.55219">
        <ele>729</ele>
        <time>2015-07-08T08:04:30Z</time>
      </trkpt>
      <trkpt lat="46.21148" lon="4.5521">
        <ele>728</ele>
        <time>2015-07-08T08:04:35Z</time>
      </trkpt>
      <trkpt lat="46.21145" lon="4.55204">
        <ele>728</ele>
        <time>2015-07-08T08:04:38Z</time>
      </trkpt>
      <trkpt lat="46.21109" lon="4.55051">
        <ele>724</ele>
        <time>2015-07-08T08:06:18Z</time>
      </trkpt>
      <trkpt lat="46.21106" lon="4.55044">
        <ele>724</ele>
        <time>2015-07-08T08:06:23Z</time>
      </trkpt>
      <trkpt lat="46.21104" lon="4.55038">
        <ele>724</ele>
        <time>2015-07-08T08:06:27Z</time>
      </trkpt>
      <trkpt lat="46.211" lon="4.55015">
        <ele>723</ele>
        <time>2015-07-08T08:06:39Z</time>
      </trkpt>
      <trkpt lat="46.21101" lon="4.55007">
        <ele>723</ele>
        <time>2015-07-08T08:06:43Z</time>
      </trkpt>
      <trkpt lat="46.21104" lon="4.55002">
        <ele>723</ele>
        <time>2015-07-08T08:06:45Z</time>
      </trkpt>
      <trkpt lat="46.21102" lon="4.55">
        <ele>720</ele>
        <time>2015-07-08T08:06:58Z</time>
      </trkpt>
      <trkpt lat="46.21101" lon="4.54993">
        <ele>720</ele>
        <time>2015-07-08T08:07:04Z</time>
      </trkpt>
      <trkpt lat="46.21091" lon="4.54954">
        <ele>712</ele>
        <time>2015-07-08T08:07:39Z</time>
      </trkpt>
      <trkpt lat="46.21087" lon="4.54948">
        <ele>710</ele>
        <time>2015-07-08T08:07:45Z</time>
      </trkpt>
      <trkpt lat="46.21083" lon="4.54935">
        <ele>709</ele>
        <time>2015-07-08T08:07:53Z</time>
      </trkpt>
      <trkpt lat="46.2108" lon="4.54931">
        <ele>708</ele>
        <time>2015-07-08T08:07:59Z</time>
      </trkpt>
      <trkpt lat="46.21067" lon="4.54898">
        <ele>703</ele>
        <time>2015-07-08T08:08:31Z</time>
      </trkpt>
      <trkpt lat="46.21059" lon="4.54883">
        <ele>700</ele>
        <time>2015-07-08T08:08:42Z</time>
      </trkpt>
      <trkpt lat="46.21057" lon="4.54876">
        <ele>700</ele>
        <time>2015-07-08T08:08:46Z</time>
      </trkpt>
      <trkpt lat="46.21056" lon="4.54869">
        <ele>700</ele>
        <time>2015-07-08T08:08:52Z</time>
      </trkpt>
      <trkpt lat="46.20998" lon="4.54675">
        <ele>688</ele>
        <time>2015-07-08T08:11:11Z</time>
      </trkpt>
      <trkpt lat="46.20972" lon="4.54626">
        <ele>683</ele>
        <time>2015-07-08T08:11:43Z</time>
      </trkpt>
      <trkpt lat="46.20948" lon="4.54519">
        <ele>675</ele>
        <time>2015-07-08T08:12:46Z</time>
      </trkpt>
      <trkpt lat="46.2089" lon="4.54309">
        <ele>661</ele>
        <time>2015-07-08T08:15:31Z</time>
      </trkpt>
      <trkpt lat="46.20885" lon="4.54304">
        <ele>660</ele>
        <time>2015-07-08T08:15:37Z</time>
      </trkpt>
      <trkpt lat="46.20862" lon="4.54255">
        <ele>658</ele>
        <time>2015-07-08T08:16:09Z</time>
      </trkpt>
      <trkpt lat="46.2086" lon="4.54246">
        <ele>658</ele>
        <time>2015-07-08T08:16:14Z</time>
      </trkpt>
      <trkpt lat="46.2086" lon="4.54192">
        <ele>657</ele>
        <time>2015-07-08T08:16:48Z</time>
      </trkpt>
      <trkpt lat="46.20861" lon="4.54187">
        <ele>657</ele>
        <time>2015-07-08T08:16:54Z</time>
      </trkpt>
      <trkpt lat="46.20848" lon="4.54147">
        <ele>653</ele>
        <time>2015-07-08T08:17:19Z</time>
      </trkpt>
      <trkpt lat="46.20847" lon="4.54126">
        <ele>651</ele>
        <time>2015-07-08T08:17:29Z</time>
      </trkpt>
      <trkpt lat="46.20841" lon="4.54122">
        <ele>651</ele>
        <time>2015-07-08T08:17:34Z</time>
      </trkpt>
      <trkpt lat="46.20836" lon="4.54111">
        <ele>650</ele>
        <time>2015-07-08T08:17:39Z</time>
      </trkpt>
      <trkpt lat="46.20822" lon="4.54103">
        <ele>645</ele>
        <time>2015-07-08T08:17:56Z</time>
      </trkpt>
      <trkpt lat="46.20819" lon="4.54103">
        <ele>644</ele>
        <time>2015-07-08T08:17:58Z</time>
      </trkpt>
      <trkpt lat="46.20817" lon="4.54105">
        <ele>644</ele>
        <time>2015-07-08T08:17:59Z</time>
      </trkpt>
      <trkpt lat="46.20812" lon="4.54106">
        <ele>643</ele>
        <time>2015-07-08T08:18:04Z</time>
      </trkpt>
      <trkpt lat="46.20797" lon="4.541">
        <ele>641</ele>
        <time>2015-07-08T08:18:15Z</time>
      </trkpt>
      <trkpt lat="46.20791" lon="4.54093">
        <ele>640</ele>
        <time>2015-07-08T08:18:19Z</time>
      </trkpt>
      <trkpt lat="46.20785" lon="4.54087">
        <ele>638</ele>
        <time>2015-07-08T08:18:27Z</time>
      </trkpt>
      <trkpt lat="46.20782" lon="4.54083">
        <ele>638</ele>
        <time>2015-07-08T08:18:31Z</time>
      </trkpt>
      <trkpt lat="46.20714" lon="4.53902">
        <ele>628</ele>
        <time>2015-07-08T08:21:23Z</time>
      </trkpt>
      <trkpt lat="46.20711" lon="4.53896">
        <ele>628</ele>
        <time>2015-07-08T08:21:30Z</time>
      </trkpt>
      <trkpt lat="46.20708" lon="4.5389">
        <ele>627</ele>
        <time>2015-07-08T08:21:34Z</time>
      </trkpt>
      <trkpt lat="46.20705" lon="4.53867">
        <ele>627</ele>
        <time>2015-07-08T08:21:47Z</time>
      </trkpt>
      <trkpt lat="46.20703" lon="4.5386">
        <ele>627</ele>
        <time>2015-07-08T08:21:51Z</time>
      </trkpt>
      <trkpt lat="46.20701" lon="4.53839">
        <ele>627</ele>
        <time>2015-07-08T08:22:03Z</time>
      </trkpt>
      <trkpt lat="46.20701" lon="4.5383">
        <ele>627</ele>
        <time>2015-07-08T08:22:08Z</time>
      </trkpt>
      <trkpt lat="46.20706" lon="4.53802">
        <ele>626</ele>
        <time>2015-07-08T08:22:24Z</time>
      </trkpt>
      <trkpt lat="46.20706" lon="4.53763">
        <ele>626</ele>
        <time>2015-07-08T08:22:50Z</time>
      </trkpt>
      <trkpt lat="46.20703" lon="4.53754">
        <ele>625</ele>
        <time>2015-07-08T08:22:54Z</time>
      </trkpt>
      <trkpt lat="46.20693" lon="4.53738">
        <ele>625</ele>
        <time>2015-07-08T08:23:06Z</time>
      </trkpt>
      <trkpt lat="46.2069" lon="4.53724">
        <ele>625</ele>
        <time>2015-07-08T08:23:15Z</time>
      </trkpt>
      <trkpt lat="46.20687" lon="4.53718">
        <ele>625</ele>
        <time>2015-07-08T08:23:19Z</time>
      </trkpt>
      <trkpt lat="46.20683" lon="4.53683">
        <ele>626</ele>
        <time>2015-07-08T08:23:39Z</time>
      </trkpt>
      <trkpt lat="46.2068" lon="4.53677">
        <ele>625</ele>
        <time>2015-07-08T08:23:43Z</time>
      </trkpt>
      <trkpt lat="46.2068" lon="4.53669">
        <ele>626</ele>
        <time>2015-07-08T08:23:48Z</time>
      </trkpt>
      <trkpt lat="46.20687" lon="4.53659">
        <ele>626</ele>
        <time>2015-07-08T08:23:57Z</time>
      </trkpt>
      <trkpt lat="46.20692" lon="4.53647">
        <ele>626</ele>
        <time>2015-07-08T08:24:05Z</time>
      </trkpt>
      <trkpt lat="46.20698" lon="4.53641">
        <ele>626</ele>
        <time>2015-07-08T08:24:10Z</time>
      </trkpt>
      <trkpt lat="46.20699" lon="4.53633">
        <ele>626</ele>
        <time>2015-07-08T08:24:15Z</time>
      </trkpt>
      <trkpt lat="46.20698" lon="4.53614">
        <ele>625</ele>
        <time>2015-07-08T08:24:49Z</time>
      </trkpt>
      <trkpt lat="46.207" lon="4.53612">
        <ele>625</ele>
        <time>2015-07-08T08:25:19Z</time>
      </trkpt>
      <trkpt lat="46.207" lon="4.53607">
        <ele>625</ele>
        <time>2015-07-08T08:29:22Z</time>
      </trkpt>
      <trkpt lat="46.20703" lon="4.53601">
        <ele>627</ele>
        <time>2015-07-08T08:30:49Z</time>
      </trkpt>
      <trkpt lat="46.20708" lon="4.53604">
        <ele>629</ele>
        <time>2015-07-08T08:34:53Z</time>
      </trkpt>
      <trkpt lat="46.2071" lon="4.53596">
        <ele>629</ele>
        <time>2015-07-08T08:39:09Z</time>
      </trkpt>
      <trkpt lat="46.20709" lon="4.53581">
        <ele>630</ele>
        <time>2015-07-08T08:39:21Z</time>
      </trkpt>
      <trkpt lat="46.20712" lon="4.53572">
        <ele>630</ele>
        <time>2015-07-08T08:39:35Z</time>
      </trkpt>
      <trkpt lat="46.20712" lon="4.53565">
        <ele>629</ele>
        <time>2015-07-08T08:39:43Z</time>
      </trkpt>
      <trkpt lat="46.20708" lon="4.5356">
        <ele>629</ele>
        <time>2015-07-08T08:39:47Z</time>
      </trkpt>
      <trkpt lat="46.20695" lon="4.53547">
        <ele>630</ele>
        <time>2015-07-08T08:40:03Z</time>
      </trkpt>
      <trkpt lat="46.20692" lon="4.5354">
        <ele>630</ele>
        <time>2015-07-08T08:40:10Z</time>
      </trkpt>
      <trkpt lat="46.20693" lon="4.53531">
        <ele>629</ele>
        <time>2015-07-08T08:40:15Z</time>
      </trkpt>
      <trkpt lat="46.20696" lon="4.53528">
        <ele>628</ele>
        <time>2015-07-08T08:40:24Z</time>
      </trkpt>
      <trkpt lat="46.20698" lon="4.53527">
        <ele>630</ele>
        <time>2015-07-08T08:40:30Z</time>
      </trkpt>
      <trkpt lat="46.20702" lon="4.53537">
        <ele>630</ele>
        <time>2015-07-08T08:43:35Z</time>
      </trkpt>
      <trkpt lat="46.20699" lon="4.53544">
        <ele>632</ele>
        <time>2015-07-08T08:48:29Z</time>
      </trkpt>
      <trkpt lat="46.20693" lon="4.53546">
        <ele>632</ele>
        <time>2015-07-08T08:50:21Z</time>
      </trkpt>
      <trkpt lat="46.2071" lon="4.53587">
        <ele>627</ele>
        <time>2015-07-08T08:50:46Z</time>
      </trkpt>
      <trkpt lat="46.2071" lon="4.53595">
        <ele>627</ele>
        <time>2015-07-08T08:50:51Z</time>
      </trkpt>
      <trkpt lat="46.207" lon="4.53611">
        <ele>626</ele>
        <time>2015-07-08T08:51:03Z</time>
      </trkpt>
      <trkpt lat="46.20699" lon="4.5363">
        <ele>626</ele>
        <time>2015-07-08T08:51:16Z</time>
      </trkpt>
      <trkpt lat="46.20695" lon="4.53635">
        <ele>626</ele>
        <time>2015-07-08T08:51:20Z</time>
      </trkpt>
      <trkpt lat="46.2069" lon="4.53638">
        <ele>626</ele>
        <time>2015-07-08T08:51:24Z</time>
      </trkpt>
      <trkpt lat="46.20678" lon="4.53645">
        <ele>625</ele>
        <time>2015-07-08T08:51:40Z</time>
      </trkpt>
      <trkpt lat="46.20674" lon="4.53646">
        <ele>625</ele>
        <time>2015-07-08T08:51:50Z</time>
      </trkpt>
      <trkpt lat="46.2067" lon="4.53651">
        <ele>625</ele>
        <time>2015-07-08T08:51:54Z</time>
      </trkpt>
      <trkpt lat="46.20637" lon="4.53678">
        <ele>625</ele>
        <time>2015-07-08T08:52:25Z</time>
      </trkpt>
      <trkpt lat="46.20615" lon="4.53676">
        <ele>624</ele>
        <time>2015-07-08T08:52:50Z</time>
      </trkpt>
      <trkpt lat="46.20595" lon="4.5367">
        <ele>624</ele>
        <time>2015-07-08T08:53:07Z</time>
      </trkpt>
      <trkpt lat="46.20525" lon="4.53672">
        <ele>622</ele>
        <time>2015-07-08T08:54:03Z</time>
      </trkpt>
      <trkpt lat="46.205" lon="4.53678">
        <ele>621</ele>
        <time>2015-07-08T08:54:27Z</time>
      </trkpt>
      <trkpt lat="46.20485" lon="4.53679">
        <ele>621</ele>
        <time>2015-07-08T08:54:40Z</time>
      </trkpt>
      <trkpt lat="46.20444" lon="4.53672">
        <ele>624</ele>
        <time>2015-07-08T08:55:13Z</time>
      </trkpt>
      <trkpt lat="46.20436" lon="4.53677">
        <ele>624</ele>
        <time>2015-07-08T08:55:20Z</time>
      </trkpt>
      <trkpt lat="46.20397" lon="4.5367">
        <ele>624</ele>
        <time>2015-07-08T08:55:52Z</time>
      </trkpt>
      <trkpt lat="46.20389" lon="4.53664">
        <ele>624</ele>
        <time>2015-07-08T08:55:59Z</time>
      </trkpt>
      <trkpt lat="46.2038" lon="4.53664">
        <ele>624</ele>
        <time>2015-07-08T08:56:06Z</time>
      </trkpt>
      <trkpt lat="46.2037" lon="4.53671">
        <ele>624</ele>
        <time>2015-07-08T08:56:13Z</time>
      </trkpt>
      <trkpt lat="46.2035" lon="4.53678">
        <ele>623</ele>
        <time>2015-07-08T08:56:28Z</time>
      </trkpt>
      <trkpt lat="46.20344" lon="4.53669">
        <ele>623</ele>
        <time>2015-07-08T08:56:34Z</time>
      </trkpt>
      <trkpt lat="46.20317" lon="4.53656">
        <ele>624</ele>
        <time>2015-07-08T08:57:06Z</time>
      </trkpt>
      <trkpt lat="46.20311" lon="4.5366">
        <ele>623</ele>
        <time>2015-07-08T08:58:34Z</time>
      </trkpt>
      <trkpt lat="46.20288" lon="4.53637">
        <ele>624</ele>
        <time>2015-07-08T08:59:07Z</time>
      </trkpt>
      <trkpt lat="46.20285" lon="4.53624">
        <ele>626</ele>
        <time>2015-07-08T08:59:17Z</time>
      </trkpt>
      <trkpt lat="46.20224" lon="4.53538">
        <ele>637</ele>
        <time>2015-07-08T09:00:33Z</time>
      </trkpt>
      <trkpt lat="46.2022" lon="4.53524">
        <ele>639</ele>
        <time>2015-07-08T09:00:42Z</time>
      </trkpt>
      <trkpt lat="46.20216" lon="4.53512">
        <ele>640</ele>
        <time>2015-07-08T09:00:49Z</time>
      </trkpt>
      <trkpt lat="46.20209" lon="4.53501">
        <ele>641</ele>
        <time>2015-07-08T09:00:59Z</time>
      </trkpt>
      <trkpt lat="46.20207" lon="4.53488">
        <ele>643</ele>
        <time>2015-07-08T09:01:12Z</time>
      </trkpt>
      <trkpt lat="46.20201" lon="4.53478">
        <ele>644</ele>
        <time>2015-07-08T09:01:22Z</time>
      </trkpt>
      <trkpt lat="46.20155" lon="4.5337">
        <ele>649</ele>
        <time>2015-07-08T09:02:28Z</time>
      </trkpt>
      <trkpt lat="46.20142" lon="4.53303">
        <ele>649</ele>
        <time>2015-07-08T09:02:59Z</time>
      </trkpt>
      <trkpt lat="46.20108" lon="4.53225">
        <ele>652</ele>
        <time>2015-07-08T09:03:46Z</time>
      </trkpt>
      <trkpt lat="46.20085" lon="4.53134">
        <ele>652</ele>
        <time>2015-07-08T09:04:37Z</time>
      </trkpt>
      <trkpt lat="46.20081" lon="4.53121">
        <ele>653</ele>
        <time>2015-07-08T09:04:45Z</time>
      </trkpt>
      <trkpt lat="46.2007" lon="4.53054">
        <ele>655</ele>
        <time>2015-07-08T09:05:20Z</time>
      </trkpt>
      <trkpt lat="46.20069" lon="4.5304">
        <ele>656</ele>
        <time>2015-07-08T09:05:30Z</time>
      </trkpt>
      <trkpt lat="46.20072" lon="4.53028">
        <ele>656</ele>
        <time>2015-07-08T09:05:37Z</time>
      </trkpt>
      <trkpt lat="46.20073" lon="4.53015">
        <ele>658</ele>
        <time>2015-07-08T09:05:44Z</time>
      </trkpt>
      <trkpt lat="46.2008" lon="4.52959">
        <ele>662</ele>
        <time>2015-07-08T09:06:16Z</time>
      </trkpt>
      <trkpt lat="46.20076" lon="4.52895">
        <ele>667</ele>
        <time>2015-07-08T09:06:57Z</time>
      </trkpt>
      <trkpt lat="46.20066" lon="4.52862">
        <ele>669</ele>
        <time>2015-07-08T09:07:18Z</time>
      </trkpt>
      <trkpt lat="46.2006" lon="4.52852">
        <ele>664</ele>
        <time>2015-07-08T09:08:13Z</time>
      </trkpt>
      <trkpt lat="46.2005" lon="4.52829">
        <ele>668</ele>
        <time>2015-07-08T09:08:27Z</time>
      </trkpt>
      <trkpt lat="46.20053" lon="4.52822">
        <ele>669</ele>
        <time>2015-07-08T09:08:32Z</time>
      </trkpt>
      <trkpt lat="46.20049" lon="4.52785">
        <ele>672</ele>
        <time>2015-07-08T09:08:57Z</time>
      </trkpt>
      <trkpt lat="46.2005" lon="4.52771">
        <ele>673</ele>
        <time>2015-07-08T09:09:08Z</time>
      </trkpt>
      <trkpt lat="46.20049" lon="4.52764">
        <ele>671</ele>
        <time>2015-07-08T09:10:00Z</time>
      </trkpt>
      <trkpt lat="46.2005" lon="4.52709">
        <ele>677</ele>
        <time>2015-07-08T09:10:37Z</time>
      </trkpt>
      <trkpt lat="46.20055" lon="4.52695">
        <ele>677</ele>
        <time>2015-07-08T09:10:47Z</time>
      </trkpt>
      <trkpt lat="46.20051" lon="4.52683">
        <ele>677</ele>
        <time>2015-07-08T09:10:55Z</time>
      </trkpt>
      <trkpt lat="46.20076" lon="4.52553">
        <ele>674</ele>
        <time>2015-07-08T09:12:15Z</time>
      </trkpt>
      <trkpt lat="46.20095" lon="4.52503">
        <ele>676</ele>
        <time>2015-07-08T09:12:52Z</time>
      </trkpt>
      <trkpt lat="46.20101" lon="4.52492">
        <ele>677</ele>
        <time>2015-07-08T09:13:00Z</time>
      </trkpt>
      <trkpt lat="46.20124" lon="4.52336">
        <ele>671</ele>
        <time>2015-07-08T09:14:46Z</time>
      </trkpt>
      <trkpt lat="46.2013" lon="4.52325">
        <ele>672</ele>
        <time>2015-07-08T09:14:54Z</time>
      </trkpt>
      <trkpt lat="46.20139" lon="4.5227">
        <ele>677</ele>
        <time>2015-07-08T09:15:36Z</time>
      </trkpt>
      <trkpt lat="46.20144" lon="4.52258">
        <ele>677</ele>
        <time>2015-07-08T09:15:44Z</time>
      </trkpt>
      <trkpt lat="46.20144" lon="4.52201">
        <ele>675</ele>
        <time>2015-07-08T09:16:15Z</time>
      </trkpt>
      <trkpt lat="46.20139" lon="4.52173">
        <ele>674</ele>
        <time>2015-07-08T09:16:29Z</time>
      </trkpt>
      <trkpt lat="46.2014" lon="4.52145">
        <ele>673</ele>
        <time>2015-07-08T09:16:46Z</time>
      </trkpt>
      <trkpt lat="46.2015" lon="4.52128">
        <ele>671</ele>
        <time>2015-07-08T09:17:09Z</time>
      </trkpt>
      <trkpt lat="46.20158" lon="4.52118">
        <ele>672</ele>
        <time>2015-07-08T09:17:16Z</time>
      </trkpt>
      <trkpt lat="46.20175" lon="4.52069">
        <ele>672</ele>
        <time>2015-07-08T09:17:50Z</time>
      </trkpt>
      <trkpt lat="46.20182" lon="4.52061">
        <ele>671</ele>
        <time>2015-07-08T09:18:03Z</time>
      </trkpt>
      <trkpt lat="46.20218" lon="4.51997">
        <ele>671</ele>
        <time>2015-07-08T09:18:52Z</time>
      </trkpt>
      <trkpt lat="46.2022" lon="4.5199">
        <ele>672</ele>
        <time>2015-07-08T09:19:05Z</time>
      </trkpt>
      <trkpt lat="46.20241" lon="4.5195">
        <ele>674</ele>
        <time>2015-07-08T09:19:35Z</time>
      </trkpt>
      <trkpt lat="46.20244" lon="4.51946">
        <ele>675</ele>
        <time>2015-07-08T09:19:39Z</time>
      </trkpt>
      <trkpt lat="46.20249" lon="4.51942">
        <ele>674</ele>
        <time>2015-07-08T09:19:44Z</time>
      </trkpt>
      <trkpt lat="46.20253" lon="4.5193">
        <ele>674</ele>
        <time>2015-07-08T09:19:52Z</time>
      </trkpt>
      <trkpt lat="46.20254" lon="4.51922">
        <ele>674</ele>
        <time>2015-07-08T09:19:58Z</time>
      </trkpt>
      <trkpt lat="46.20259" lon="4.51911">
        <ele>675</ele>
        <time>2015-07-08T09:20:06Z</time>
      </trkpt>
      <trkpt lat="46.20261" lon="4.51904">
        <ele>674</ele>
        <time>2015-07-08T09:20:09Z</time>
      </trkpt>
      <trkpt lat="46.20287" lon="4.51859">
        <ele>675</ele>
        <time>2015-07-08T09:20:41Z</time>
      </trkpt>
      <trkpt lat="46.20288" lon="4.51853">
        <ele>675</ele>
        <time>2015-07-08T09:20:48Z</time>
      </trkpt>
      <trkpt lat="46.20299" lon="4.51822">
        <ele>674</ele>
        <time>2015-07-08T09:21:12Z</time>
      </trkpt>
      <trkpt lat="46.20355" lon="4.51703">
        <ele>688</ele>
        <time>2015-07-08T09:22:58Z</time>
      </trkpt>
      <trkpt lat="46.2036" lon="4.51694">
        <ele>689</ele>
        <time>2015-07-08T09:23:11Z</time>
      </trkpt>
      <trkpt lat="46.20367" lon="4.51696">
        <ele>690</ele>
        <time>2015-07-08T09:23:16Z</time>
      </trkpt>
      <trkpt lat="46.20406" lon="4.51667">
        <ele>696</ele>
        <time>2015-07-08T09:24:01Z</time>
      </trkpt>
      <trkpt lat="46.20424" lon="4.51633">
        <ele>698</ele>
        <time>2015-07-08T09:24:32Z</time>
      </trkpt>
      <trkpt lat="46.20382" lon="4.51521">
        <ele>708</ele>
        <time>2015-07-08T09:26:33Z</time>
      </trkpt>
      <trkpt lat="46.20375" lon="4.5151">
        <ele>709</ele>
        <time>2015-07-08T09:26:40Z</time>
      </trkpt>
      <trkpt lat="46.20367" lon="4.51501">
        <ele>710</ele>
        <time>2015-07-08T09:26:47Z</time>
      </trkpt>
      <trkpt lat="46.20363" lon="4.51489">
        <ele>711</ele>
        <time>2015-07-08T09:26:55Z</time>
      </trkpt>
      <trkpt lat="46.20361" lon="4.51461">
        <ele>714</ele>
        <time>2015-07-08T09:27:12Z</time>
      </trkpt>
      <trkpt lat="46.20354" lon="4.51451">
        <ele>714</ele>
        <time>2015-07-08T09:27:19Z</time>
      </trkpt>
      <trkpt lat="46.20349" lon="4.51439">
        <ele>716</ele>
        <time>2015-07-08T09:27:28Z</time>
      </trkpt>
      <trkpt lat="46.20341" lon="4.5143">
        <ele>716</ele>
        <time>2015-07-08T09:27:36Z</time>
      </trkpt>
      <trkpt lat="46.20324" lon="4.51382">
        <ele>727</ele>
        <time>2015-07-08T09:28:07Z</time>
      </trkpt>
      <trkpt lat="46.20321" lon="4.51348">
        <ele>731</ele>
        <time>2015-07-08T09:28:31Z</time>
      </trkpt>
      <trkpt lat="46.20321" lon="4.51334">
        <ele>729</ele>
        <time>2015-07-08T09:28:39Z</time>
      </trkpt>
      <trkpt lat="46.20319" lon="4.51328">
        <ele>729</ele>
        <time>2015-07-08T09:28:45Z</time>
      </trkpt>
      <trkpt lat="46.2032" lon="4.51321">
        <ele>730</ele>
        <time>2015-07-08T09:28:50Z</time>
      </trkpt>
      <trkpt lat="46.20317" lon="4.51315">
        <ele>730</ele>
        <time>2015-07-08T09:28:54Z</time>
      </trkpt>
      <trkpt lat="46.20327" lon="4.51169">
        <ele>741</ele>
        <time>2015-07-08T09:30:21Z</time>
      </trkpt>
      <trkpt lat="46.20328" lon="4.51163">
        <ele>740</ele>
        <time>2015-07-08T09:33:14Z</time>
      </trkpt>
      <trkpt lat="46.20331" lon="4.51163">
        <ele>740</ele>
        <time>2015-07-08T09:33:42Z</time>
      </trkpt>
      <trkpt lat="46.20339" lon="4.51152">
        <ele>742</ele>
        <time>2015-07-08T09:35:03Z</time>
      </trkpt>
      <trkpt lat="46.20329" lon="4.51042">
        <ele>746</ele>
        <time>2015-07-08T09:36:06Z</time>
      </trkpt>
      <trkpt lat="46.20336" lon="4.51016">
        <ele>749</ele>
        <time>2015-07-08T09:36:27Z</time>
      </trkpt>
      <trkpt lat="46.20338" lon="4.51002">
        <ele>749</ele>
        <time>2015-07-08T09:36:40Z</time>
      </trkpt>
      <trkpt lat="46.20334" lon="4.5099">
        <ele>749</ele>
        <time>2015-07-08T09:36:46Z</time>
      </trkpt>
      <trkpt lat="46.20333" lon="4.50962">
        <ele>751</ele>
        <time>2015-07-08T09:36:58Z</time>
      </trkpt>
      <trkpt lat="46.20339" lon="4.50951">
        <ele>751</ele>
        <time>2015-07-08T09:37:10Z</time>
      </trkpt>
      <trkpt lat="46.20347" lon="4.50944">
        <ele>752</ele>
        <time>2015-07-08T09:37:20Z</time>
      </trkpt>
      <trkpt lat="46.20345" lon="4.50929">
        <ele>754</ele>
        <time>2015-07-08T09:37:44Z</time>
      </trkpt>
      <trkpt lat="46.20345" lon="4.50915">
        <ele>755</ele>
        <time>2015-07-08T09:37:53Z</time>
      </trkpt>
      <trkpt lat="46.2035" lon="4.50903">
        <ele>757</ele>
        <time>2015-07-08T09:38:03Z</time>
      </trkpt>
      <trkpt lat="46.20348" lon="4.50889">
        <ele>758</ele>
        <time>2015-07-08T09:38:11Z</time>
      </trkpt>
      <trkpt lat="46.20355" lon="4.50879">
        <ele>760</ele>
        <time>2015-07-08T09:38:19Z</time>
      </trkpt>
      <trkpt lat="46.20375" lon="4.50851">
        <ele>765</ele>
        <time>2015-07-08T09:38:41Z</time>
      </trkpt>
      <trkpt lat="46.20379" lon="4.50825">
        <ele>768</ele>
        <time>2015-07-08T09:38:57Z</time>
      </trkpt>
      <trkpt lat="46.20393" lon="4.50804">
        <ele>771</ele>
        <time>2015-07-08T09:39:34Z</time>
      </trkpt>
      <trkpt lat="46.20404" lon="4.50805">
        <ele>771</ele>
        <time>2015-07-08T09:39:42Z</time>
      </trkpt>
      <trkpt lat="46.20431" lon="4.50818">
        <ele>773</ele>
        <time>2015-07-08T09:40:02Z</time>
      </trkpt>
      <trkpt lat="46.2044" lon="4.50815">
        <ele>775</ele>
        <time>2015-07-08T09:40:16Z</time>
      </trkpt>
      <trkpt lat="46.2045" lon="4.50815">
        <ele>775</ele>
        <time>2015-07-08T09:40:24Z</time>
      </trkpt>
      <trkpt lat="46.2046" lon="4.50812">
        <ele>776</ele>
        <time>2015-07-08T09:40:30Z</time>
      </trkpt>
      <trkpt lat="46.20479" lon="4.50765">
        <ele>780</ele>
        <time>2015-07-08T09:41:06Z</time>
      </trkpt>
      <trkpt lat="46.20506" lon="4.50746">
        <ele>781</ele>
        <time>2015-07-08T09:41:27Z</time>
      </trkpt>
      <trkpt lat="46.20524" lon="4.50742">
        <ele>781</ele>
        <time>2015-07-08T09:41:41Z</time>
      </trkpt>
      <trkpt lat="46.20532" lon="4.50739">
        <ele>782</ele>
        <time>2015-07-08T09:41:58Z</time>
      </trkpt>
      <trkpt lat="46.20551" lon="4.50734">
        <ele>781</ele>
        <time>2015-07-08T09:42:50Z</time>
      </trkpt>
      <trkpt lat="46.20569" lon="4.50725">
        <ele>780</ele>
        <time>2015-07-08T09:43:11Z</time>
      </trkpt>
      <trkpt lat="46.20594" lon="4.5068">
        <ele>778</ele>
        <time>2015-07-08T09:43:47Z</time>
      </trkpt>
      <trkpt lat="46.20603" lon="4.50655">
        <ele>776</ele>
        <time>2015-07-08T09:44:05Z</time>
      </trkpt>
      <trkpt lat="46.20609" lon="4.50644">
        <ele>777</ele>
        <time>2015-07-08T09:44:15Z</time>
      </trkpt>
      <trkpt lat="46.20624" lon="4.50626">
        <ele>777</ele>
        <time>2015-07-08T09:44:32Z</time>
      </trkpt>
      <trkpt lat="46.20626" lon="4.50614">
        <ele>776</ele>
        <time>2015-07-08T09:44:49Z</time>
      </trkpt>
      <trkpt lat="46.20636" lon="4.50589">
        <ele>780</ele>
        <time>2015-07-08T09:45:05Z</time>
      </trkpt>
      <trkpt lat="46.20637" lon="4.5058">
        <ele>779</ele>
        <time>2015-07-08T09:45:21Z</time>
      </trkpt>
      <trkpt lat="46.20654" lon="4.50544">
        <ele>780</ele>
        <time>2015-07-08T09:46:18Z</time>
      </trkpt>
      <trkpt lat="46.20664" lon="4.5052">
        <ele>782</ele>
        <time>2015-07-08T09:46:35Z</time>
      </trkpt>
      <trkpt lat="46.2067" lon="4.5051">
        <ele>782</ele>
        <time>2015-07-08T09:46:43Z</time>
      </trkpt>
      <trkpt lat="46.20681" lon="4.5046">
        <ele>782</ele>
        <time>2015-07-08T09:47:14Z</time>
      </trkpt>
      <trkpt lat="46.20685" lon="4.50406">
        <ele>784</ele>
        <time>2015-07-08T09:47:44Z</time>
      </trkpt>
      <trkpt lat="46.20703" lon="4.50344">
        <ele>781</ele>
        <time>2015-07-08T09:48:24Z</time>
      </trkpt>
      <trkpt lat="46.20707" lon="4.50332">
        <ele>780</ele>
        <time>2015-07-08T09:48:32Z</time>
      </trkpt>
      <trkpt lat="46.20713" lon="4.50305">
        <ele>781</ele>
        <time>2015-07-08T09:48:47Z</time>
      </trkpt>
      <trkpt lat="46.20719" lon="4.50295">
        <ele>781</ele>
        <time>2015-07-08T09:48:54Z</time>
      </trkpt>
      <trkpt lat="46.20722" lon="4.50255">
        <ele>778</ele>
        <time>2015-07-08T09:49:23Z</time>
      </trkpt>
      <trkpt lat="46.20711" lon="4.50202">
        <ele>775</ele>
        <time>2015-07-08T09:49:57Z</time>
      </trkpt>
      <trkpt lat="46.20703" lon="4.50184">
        <ele>773</ele>
        <time>2015-07-08T09:50:10Z</time>
      </trkpt>
      <trkpt lat="46.20703" lon="4.50177">
        <ele>773</ele>
        <time>2015-07-08T09:50:15Z</time>
      </trkpt>
      <trkpt lat="46.20699" lon="4.50159">
        <ele>770</ele>
        <time>2015-07-08T09:50:27Z</time>
      </trkpt>
      <trkpt lat="46.2069" lon="4.50142">
        <ele>769</ele>
        <time>2015-07-08T09:50:39Z</time>
      </trkpt>
      <trkpt lat="46.20686" lon="4.50137">
        <ele>770</ele>
        <time>2015-07-08T09:50:43Z</time>
      </trkpt>
      <trkpt lat="46.20684" lon="4.50132">
        <ele>771</ele>
        <time>2015-07-08T09:50:53Z</time>
      </trkpt>
      <trkpt lat="46.20684" lon="4.50124">
        <ele>770</ele>
        <time>2015-07-08T09:51:01Z</time>
      </trkpt>
      <trkpt lat="46.2068" lon="4.50118">
        <ele>769</ele>
        <time>2015-07-08T09:51:05Z</time>
      </trkpt>
      <trkpt lat="46.20676" lon="4.50106">
        <ele>769</ele>
        <time>2015-07-08T09:51:13Z</time>
      </trkpt>
      <trkpt lat="46.20672" lon="4.50079">
        <ele>770</ele>
        <time>2015-07-08T09:51:31Z</time>
      </trkpt>
      <trkpt lat="46.20649" lon="4.50035">
        <ele>767</ele>
        <time>2015-07-08T09:52:07Z</time>
      </trkpt>
      <trkpt lat="46.20621" lon="4.49995">
        <ele>764</ele>
        <time>2015-07-08T09:52:35Z</time>
      </trkpt>
      <trkpt lat="46.20612" lon="4.49989">
        <ele>764</ele>
        <time>2015-07-08T09:52:41Z</time>
      </trkpt>
      <trkpt lat="46.20578" lon="4.49954">
        <ele>763</ele>
        <time>2015-07-08T09:53:16Z</time>
      </trkpt>
      <trkpt lat="46.20552" lon="4.49941">
        <ele>762</ele>
        <time>2015-07-08T09:53:41Z</time>
      </trkpt>
      <trkpt lat="46.2052" lon="4.49909">
        <ele>762</ele>
        <time>2015-07-08T09:54:11Z</time>
      </trkpt>
      <trkpt lat="46.20495" lon="4.49875">
        <ele>764</ele>
        <time>2015-07-08T09:54:46Z</time>
      </trkpt>
      <trkpt lat="46.20478" lon="4.49843">
        <ele>767</ele>
        <time>2015-07-08T09:55:27Z</time>
      </trkpt>
      <trkpt lat="46.20478" lon="4.49828">
        <ele>768</ele>
        <time>2015-07-08T09:55:51Z</time>
      </trkpt>
      <trkpt lat="46.20484" lon="4.49817">
        <ele>769</ele>
        <time>2015-07-08T09:56:01Z</time>
      </trkpt>
      <trkpt lat="46.20515" lon="4.49796">
        <ele>773</ele>
        <time>2015-07-08T09:56:34Z</time>
      </trkpt>
      <trkpt lat="46.20526" lon="4.49793">
        <ele>773</ele>
        <time>2015-07-08T09:56:44Z</time>
      </trkpt>
      <trkpt lat="46.20557" lon="4.49776">
        <ele>779</ele>
        <time>2015-07-08T09:57:15Z</time>
      </trkpt>
      <trkpt lat="46.20567" lon="4.49743">
        <ele>781</ele>
        <time>2015-07-08T09:57:41Z</time>
      </trkpt>
      <trkpt lat="46.20569" lon="4.49729">
        <ele>782</ele>
        <time>2015-07-08T09:57:51Z</time>
      </trkpt>
      <trkpt lat="46.20568" lon="4.49708">
        <ele>783</ele>
        <time>2015-07-08T09:58:04Z</time>
      </trkpt>
      <trkpt lat="46.20573" lon="4.49691">
        <ele>784</ele>
        <time>2015-07-08T09:58:18Z</time>
      </trkpt>
      <trkpt lat="46.20571" lon="4.49684">
        <ele>784</ele>
        <time>2015-07-08T09:58:30Z</time>
      </trkpt>
      <trkpt lat="46.20571" lon="4.49677">
        <ele>784</ele>
        <time>2015-07-08T09:58:34Z</time>
      </trkpt>
      <trkpt lat="46.20569" lon="4.4967">
        <ele>784</ele>
        <time>2015-07-08T09:58:39Z</time>
      </trkpt>
      <trkpt lat="46.20592" lon="4.49545">
        <ele>792</ele>
        <time>2015-07-08T09:59:58Z</time>
      </trkpt>
      <trkpt lat="46.2059" lon="4.49541">
        <ele>793</ele>
        <time>2015-07-08T10:00:09Z</time>
      </trkpt>
      <trkpt lat="46.20591" lon="4.49527">
        <ele>795</ele>
        <time>2015-07-08T10:00:18Z</time>
      </trkpt>
      <trkpt lat="46.20599" lon="4.49518">
        <ele>796</ele>
        <time>2015-07-08T10:00:26Z</time>
      </trkpt>
      <trkpt lat="46.20603" lon="4.49497">
        <ele>798</ele>
        <time>2015-07-08T10:00:39Z</time>
      </trkpt>
      <trkpt lat="46.20607" lon="4.49492">
        <ele>799</ele>
        <time>2015-07-08T10:00:43Z</time>
      </trkpt>
      <trkpt lat="46.20613" lon="4.4945">
        <ele>804</ele>
        <time>2015-07-08T10:01:13Z</time>
      </trkpt>
      <trkpt lat="46.20614" lon="4.49436">
        <ele>806</ele>
        <time>2015-07-08T10:01:22Z</time>
      </trkpt>
      <trkpt lat="46.20621" lon="4.49425">
        <ele>808</ele>
        <time>2015-07-08T10:01:31Z</time>
      </trkpt>
      <trkpt lat="46.20626" lon="4.49422">
        <ele>809</ele>
        <time>2015-07-08T10:01:37Z</time>
      </trkpt>
      <trkpt lat="46.20631" lon="4.49424">
        <ele>809</ele>
        <time>2015-07-08T10:01:42Z</time>
      </trkpt>
      <trkpt lat="46.20634" lon="4.49423">
        <ele>810</ele>
        <time>2015-07-08T10:01:49Z</time>
      </trkpt>
      <trkpt lat="46.2064" lon="4.49427">
        <ele>811</ele>
        <time>2015-07-08T10:02:56Z</time>
      </trkpt>
      <trkpt lat="46.20647" lon="4.49435">
        <ele>811</ele>
        <time>2015-07-08T10:03:04Z</time>
      </trkpt>
      <trkpt lat="46.2072" lon="4.49606">
        <ele>824</ele>
        <time>2015-07-08T10:05:08Z</time>
      </trkpt>
      <trkpt lat="46.20734" lon="4.49627">
        <ele>825</ele>
        <time>2015-07-08T10:05:24Z</time>
      </trkpt>
      <trkpt lat="46.20733" lon="4.49631">
        <ele>824</ele>
        <time>2015-07-08T10:05:30Z</time>
      </trkpt>
      <trkpt lat="46.20731" lon="4.49633">
        <ele>822</ele>
        <time>2015-07-08T10:05:41Z</time>
      </trkpt>
      <trkpt lat="46.20736" lon="4.49638">
        <ele>821</ele>
        <time>2015-07-08T10:06:03Z</time>
      </trkpt>
      <trkpt lat="46.20744" lon="4.49649">
        <ele>820</ele>
        <time>2015-07-08T10:06:48Z</time>
      </trkpt>
      <trkpt lat="46.20785" lon="4.49666">
        <ele>831</ele>
        <time>2015-07-08T10:07:24Z</time>
      </trkpt>
      <trkpt lat="46.20815" lon="4.49664">
        <ele>832</ele>
        <time>2015-07-08T10:07:46Z</time>
      </trkpt>
      <trkpt lat="46.20851" lon="4.49676">
        <ele>825</ele>
        <time>2015-07-08T10:08:22Z</time>
      </trkpt>
      <trkpt lat="46.20861" lon="4.49678">
        <ele>825</ele>
        <time>2015-07-08T10:08:32Z</time>
      </trkpt>
      <trkpt lat="46.20871" lon="4.49681">
        <ele>826</ele>
        <time>2015-07-08T10:08:42Z</time>
      </trkpt>
      <trkpt lat="46.20881" lon="4.49683">
        <ele>826</ele>
        <time>2015-07-08T10:08:49Z</time>
      </trkpt>
      <trkpt lat="46.20919" lon="4.49695">
        <ele>825</ele>
        <time>2015-07-08T10:09:23Z</time>
      </trkpt>
      <trkpt lat="46.20927" lon="4.49701">
        <ele>823</ele>
        <time>2015-07-08T10:09:34Z</time>
      </trkpt>
      <trkpt lat="46.20985" lon="4.4972">
        <ele>830</ele>
        <time>2015-07-08T10:10:24Z</time>
      </trkpt>
      <trkpt lat="46.20995" lon="4.49721">
        <ele>831</ele>
        <time>2015-07-08T10:10:31Z</time>
      </trkpt>
      <trkpt lat="46.21014" lon="4.49728">
        <ele>831</ele>
        <time>2015-07-08T10:10:49Z</time>
      </trkpt>
      <trkpt lat="46.21021" lon="4.49738">
        <ele>831</ele>
        <time>2015-07-08T10:11:07Z</time>
      </trkpt>
      <trkpt lat="46.21031" lon="4.49738">
        <ele>828</ele>
        <time>2015-07-08T10:11:13Z</time>
      </trkpt>
      <trkpt lat="46.21042" lon="4.49736">
        <ele>818</ele>
        <time>2015-07-08T10:11:23Z</time>
      </trkpt>
      <trkpt lat="46.21168" lon="4.49677">
        <ele>814</ele>
        <time>2015-07-08T10:13:11Z</time>
      </trkpt>
      <trkpt lat="46.21178" lon="4.4967">
        <ele>813</ele>
        <time>2015-07-08T10:13:21Z</time>
      </trkpt>
      <trkpt lat="46.21192" lon="4.49663">
        <ele>810</ele>
        <time>2015-07-08T10:13:33Z</time>
      </trkpt>
      <trkpt lat="46.21218" lon="4.49642">
        <ele>810</ele>
        <time>2015-07-08T10:14:03Z</time>
      </trkpt>
      <trkpt lat="46.2122" lon="4.49636">
        <ele>810</ele>
        <time>2015-07-08T10:14:07Z</time>
      </trkpt>
      <trkpt lat="46.21218" lon="4.49622">
        <ele>808</ele>
        <time>2015-07-08T10:14:22Z</time>
      </trkpt>
      <trkpt lat="46.21212" lon="4.49611">
        <ele>809</ele>
        <time>2015-07-08T10:14:32Z</time>
      </trkpt>
      <trkpt lat="46.21211" lon="4.49604">
        <ele>810</ele>
        <time>2015-07-08T10:14:37Z</time>
      </trkpt>
      <trkpt lat="46.21207" lon="4.49587">
        <ele>810</ele>
        <time>2015-07-08T10:14:51Z</time>
      </trkpt>
      <trkpt lat="46.21207" lon="4.49584">
        <ele>810</ele>
        <time>2015-07-08T10:14:52Z</time>
      </trkpt>
      <trkpt lat="46.21205" lon="4.49578">
        <ele>810</ele>
        <time>2015-07-08T10:14:56Z</time>
      </trkpt>
      <trkpt lat="46.21203" lon="4.49571">
        <ele>811</ele>
        <time>2015-07-08T10:15:01Z</time>
      </trkpt>
      <trkpt lat="46.21199" lon="4.49568">
        <ele>812</ele>
        <time>2015-07-08T10:15:06Z</time>
      </trkpt>
      <trkpt lat="46.21196" lon="4.49574">
        <ele>813</ele>
        <time>2015-07-08T10:15:11Z</time>
      </trkpt>
      <trkpt lat="46.21193" lon="4.49566">
        <ele>814</ele>
        <time>2015-07-08T10:15:22Z</time>
      </trkpt>
      <trkpt lat="46.21195" lon="4.49559">
        <ele>815</ele>
        <time>2015-07-08T10:15:27Z</time>
      </trkpt>
      <trkpt lat="46.21193" lon="4.49552">
        <ele>816</ele>
        <time>2015-07-08T10:15:33Z</time>
      </trkpt>
      <trkpt lat="46.21193" lon="4.49549">
        <ele>816</ele>
        <time>2015-07-08T10:15:39Z</time>
      </trkpt>
      <trkpt lat="46.2119" lon="4.49543">
        <ele>817</ele>
        <time>2015-07-08T10:15:45Z</time>
      </trkpt>
      <trkpt lat="46.21189" lon="4.49529">
        <ele>818</ele>
        <time>2015-07-08T10:15:55Z</time>
      </trkpt>
      <trkpt lat="46.2119" lon="4.49522">
        <ele>818</ele>
        <time>2015-07-08T10:16:01Z</time>
      </trkpt>
      <trkpt lat="46.21185" lon="4.4947">
        <ele>820</ele>
        <time>2015-07-08T10:16:35Z</time>
      </trkpt>
      <trkpt lat="46.2119" lon="4.49457">
        <ele>820</ele>
        <time>2015-07-08T10:16:47Z</time>
      </trkpt>
      <trkpt lat="46.21188" lon="4.49429">
        <ele>821</ele>
        <time>2015-07-08T10:17:01Z</time>
      </trkpt>
      <trkpt lat="46.21185" lon="4.49422">
        <ele>821</ele>
        <time>2015-07-08T10:17:04Z</time>
      </trkpt>
      <trkpt lat="46.2119" lon="4.49409">
        <ele>821</ele>
        <time>2015-07-08T10:17:12Z</time>
      </trkpt>
      <trkpt lat="46.21189" lon="4.49396">
        <ele>821</ele>
        <time>2015-07-08T10:17:20Z</time>
      </trkpt>
      <trkpt lat="46.21165" lon="4.49337">
        <ele>823</ele>
        <time>2015-07-08T10:17:54Z</time>
      </trkpt>
      <trkpt lat="46.21158" lon="4.49308">
        <ele>824</ele>
        <time>2015-07-08T10:18:12Z</time>
      </trkpt>
      <trkpt lat="46.21166" lon="4.49199">
        <ele>824</ele>
        <time>2015-07-08T10:19:19Z</time>
      </trkpt>
      <trkpt lat="46.21165" lon="4.49191">
        <ele>824</ele>
        <time>2015-07-08T10:19:24Z</time>
      </trkpt>
      <trkpt lat="46.21158" lon="4.49181">
        <ele>825</ele>
        <time>2015-07-08T10:19:34Z</time>
      </trkpt>
      <trkpt lat="46.21154" lon="4.49178">
        <ele>826</ele>
        <time>2015-07-08T10:19:41Z</time>
      </trkpt>
      <trkpt lat="46.21151" lon="4.49172">
        <ele>827</ele>
        <time>2015-07-08T10:19:50Z</time>
      </trkpt>
      <trkpt lat="46.21147" lon="4.49167">
        <ele>827</ele>
        <time>2015-07-08T10:19:55Z</time>
      </trkpt>
      <trkpt lat="46.21142" lon="4.49155">
        <ele>830</ele>
        <time>2015-07-08T10:20:09Z</time>
      </trkpt>
      <trkpt lat="46.21117" lon="4.49134">
        <ele>840</ele>
        <time>2015-07-08T10:20:39Z</time>
      </trkpt>
      <trkpt lat="46.21114" lon="4.49117">
        <ele>845</ele>
        <time>2015-07-08T10:21:10Z</time>
      </trkpt>
      <trkpt lat="46.21101" lon="4.4909">
        <ele>853</ele>
        <time>2015-07-08T10:21:44Z</time>
      </trkpt>
      <trkpt lat="46.21092" lon="4.49057">
        <ele>859</ele>
        <time>2015-07-08T10:22:17Z</time>
      </trkpt>
      <trkpt lat="46.21091" lon="4.49054">
        <ele>861</ele>
        <time>2015-07-08T10:22:23Z</time>
      </trkpt>
      <trkpt lat="46.21088" lon="4.49053">
        <ele>864</ele>
        <time>2015-07-08T10:22:34Z</time>
      </trkpt>
      <trkpt lat="46.21087" lon="4.49046">
        <ele>867</ele>
        <time>2015-07-08T10:22:46Z</time>
      </trkpt>
      <trkpt lat="46.21088" lon="4.4904">
        <ele>862</ele>
        <time>2015-07-08T10:23:46Z</time>
      </trkpt>
      <trkpt lat="46.21097" lon="4.49025">
        <ele>860</ele>
        <time>2015-07-08T10:24:12Z</time>
      </trkpt>
      <trkpt lat="46.21097" lon="4.48995">
        <ele>860</ele>
        <time>2015-07-08T10:24:36Z</time>
      </trkpt>
      <trkpt lat="46.21101" lon="4.48982">
        <ele>862</ele>
        <time>2015-07-08T10:24:49Z</time>
      </trkpt>
      <trkpt lat="46.21098" lon="4.48937">
        <ele>864</ele>
        <time>2015-07-08T10:25:20Z</time>
      </trkpt>
      <trkpt lat="46.21107" lon="4.4893">
        <ele>865</ele>
        <time>2015-07-08T10:25:26Z</time>
      </trkpt>
      <trkpt lat="46.21107" lon="4.48923">
        <ele>865</ele>
        <time>2015-07-08T10:25:31Z</time>
      </trkpt>
      <trkpt lat="46.21105" lon="4.48904">
        <ele>866</ele>
        <time>2015-07-08T10:25:43Z</time>
      </trkpt>
      <trkpt lat="46.21109" lon="4.48892">
        <ele>867</ele>
        <time>2015-07-08T10:25:49Z</time>
      </trkpt>
      <trkpt lat="46.21117" lon="4.48874">
        <ele>868</ele>
        <time>2015-07-08T10:26:00Z</time>
      </trkpt>
      <trkpt lat="46.21119" lon="4.48866">
        <ele>868</ele>
        <time>2015-07-08T10:26:05Z</time>
      </trkpt>
      <trkpt lat="46.21148" lon="4.4882">
        <ele>870</ele>
        <time>2015-07-08T10:26:37Z</time>
      </trkpt>
      <trkpt lat="46.21152" lon="4.48816">
        <ele>870</ele>
        <time>2015-07-08T10:26:41Z</time>
      </trkpt>
      <trkpt lat="46.21175" lon="4.48778">
        <ele>871</ele>
        <time>2015-07-08T10:27:09Z</time>
      </trkpt>
      <trkpt lat="46.21177" lon="4.48772">
        <ele>872</ele>
        <time>2015-07-08T10:27:14Z</time>
      </trkpt>
      <trkpt lat="46.21177" lon="4.48765">
        <ele>872</ele>
        <time>2015-07-08T10:27:17Z</time>
      </trkpt>
      <trkpt lat="46.2118" lon="4.48759">
        <ele>873</ele>
        <time>2015-07-08T10:27:21Z</time>
      </trkpt>
      <trkpt lat="46.21189" lon="4.48754">
        <ele>873</ele>
        <time>2015-07-08T10:27:32Z</time>
      </trkpt>
      <trkpt lat="46.21193" lon="4.48745">
        <ele>873</ele>
        <time>2015-07-08T10:27:39Z</time>
      </trkpt>
      <trkpt lat="46.21208" lon="4.48694">
        <ele>878</ele>
        <time>2015-07-08T10:28:13Z</time>
      </trkpt>
      <trkpt lat="46.21206" lon="4.48684">
        <ele>878</ele>
        <time>2015-07-08T10:28:25Z</time>
      </trkpt>
      <trkpt lat="46.21228" lon="4.48633">
        <ele>883</ele>
        <time>2015-07-08T10:28:59Z</time>
      </trkpt>
      <trkpt lat="46.21248" lon="4.486">
        <ele>886</ele>
        <time>2015-07-08T10:29:28Z</time>
      </trkpt>
      <trkpt lat="46.21242" lon="4.4858">
        <ele>883</ele>
        <time>2015-07-08T10:29:51Z</time>
      </trkpt>
      <trkpt lat="46.21236" lon="4.4854">
        <ele>888</ele>
        <time>2015-07-08T10:30:22Z</time>
      </trkpt>
      <trkpt lat="46.21234" lon="4.48533">
        <ele>889</ele>
        <time>2015-07-08T10:30:28Z</time>
      </trkpt>
      <trkpt lat="46.21226" lon="4.48463">
        <ele>893</ele>
        <time>2015-07-08T10:31:32Z</time>
      </trkpt>
      <trkpt lat="46.21211" lon="4.48416">
        <ele>895</ele>
        <time>2015-07-08T10:31:59Z</time>
      </trkpt>
      <trkpt lat="46.21208" lon="4.48411">
        <ele>894</ele>
        <time>2015-07-08T10:32:03Z</time>
      </trkpt>
      <trkpt lat="46.21183" lon="4.4836">
        <ele>898</ele>
        <time>2015-07-08T10:32:51Z</time>
      </trkpt>
      <trkpt lat="46.21177" lon="4.4836">
        <ele>899</ele>
        <time>2015-07-08T10:34:14Z</time>
      </trkpt>
      <trkpt lat="46.21173" lon="4.48362">
        <ele>899</ele>
        <time>2015-07-08T10:34:18Z</time>
      </trkpt>
      <trkpt lat="46.21167" lon="4.48362">
        <ele>899</ele>
        <time>2015-07-08T10:34:23Z</time>
      </trkpt>
      <trkpt lat="46.21148" lon="4.48369">
        <ele>901</ele>
        <time>2015-07-08T10:34:41Z</time>
      </trkpt>
      <trkpt lat="46.21083" lon="4.48414">
        <ele>911</ele>
        <time>2015-07-08T10:35:50Z</time>
      </trkpt>
      <trkpt lat="46.21079" lon="4.48419">
        <ele>912</ele>
        <time>2015-07-08T10:36:08Z</time>
      </trkpt>
      <trkpt lat="46.21077" lon="4.48425">
        <ele>912</ele>
        <time>2015-07-08T10:36:14Z</time>
      </trkpt>
      <trkpt lat="46.21071" lon="4.48432">
        <ele>914</ele>
        <time>2015-07-08T10:36:38Z</time>
      </trkpt>
      <trkpt lat="46.21048" lon="4.48443">
        <ele>918</ele>
        <time>2015-07-08T10:37:08Z</time>
      </trkpt>
      <trkpt lat="46.21013" lon="4.48479">
        <ele>923</ele>
        <time>2015-07-08T10:37:59Z</time>
      </trkpt>
      <trkpt lat="46.20992" lon="4.48489">
        <ele>926</ele>
        <time>2015-07-08T10:38:33Z</time>
      </trkpt>
      <trkpt lat="46.20983" lon="4.48489">
        <ele>927</ele>
        <time>2015-07-08T10:38:45Z</time>
      </trkpt>
      <trkpt lat="46.20978" lon="4.48488">
        <ele>926</ele>
        <time>2015-07-08T10:38:57Z</time>
      </trkpt>
      <trkpt lat="46.20924" lon="4.48483">
        <ele>942</ele>
        <time>2015-07-08T10:40:12Z</time>
      </trkpt>
      <trkpt lat="46.20918" lon="4.48481">
        <ele>943</ele>
        <time>2015-07-08T10:40:16Z</time>
      </trkpt>
      <trkpt lat="46.20909" lon="4.48486">
        <ele>946</ele>
        <time>2015-07-08T10:40:31Z</time>
      </trkpt>
      <trkpt lat="46.20887" lon="4.48489">
        <ele>952</ele>
        <time>2015-07-08T10:41:06Z</time>
      </trkpt>
      <trkpt lat="46.20883" lon="4.48486">
        <ele>953</ele>
        <time>2015-07-08T10:41:12Z</time>
      </trkpt>
      <trkpt lat="46.20881" lon="4.48484">
        <ele>954</ele>
        <time>2015-07-08T10:41:19Z</time>
      </trkpt>
      <trkpt lat="46.20882" lon="4.48486">
        <ele>955</ele>
        <time>2015-07-08T10:43:34Z</time>
      </trkpt>
      <trkpt lat="46.20886" lon="4.48482">
        <ele>955</ele>
        <time>2015-07-08T10:43:49Z</time>
      </trkpt>
      <trkpt lat="46.20889" lon="4.48497">
        <ele>955</ele>
        <time>2015-07-08T10:44:23Z</time>
      </trkpt>
      <trkpt lat="46.20894" lon="4.48508">
        <ele>959</ele>
        <time>2015-07-08T10:44:33Z</time>
      </trkpt>
      <trkpt lat="46.20896" lon="4.48535">
        <ele>961</ele>
        <time>2015-07-08T10:44:52Z</time>
      </trkpt>
      <trkpt lat="46.209" lon="4.48543">
        <ele>961</ele>
        <time>2015-07-08T10:44:58Z</time>
      </trkpt>
      <trkpt lat="46.20901" lon="4.4855">
        <ele>961</ele>
        <time>2015-07-08T10:45:03Z</time>
      </trkpt>
      <trkpt lat="46.209" lon="4.48558">
        <ele>963</ele>
        <time>2015-07-08T10:45:08Z</time>
      </trkpt>
      <trkpt lat="46.20906" lon="4.48583">
        <ele>970</ele>
        <time>2015-07-08T10:45:30Z</time>
      </trkpt>
      <trkpt lat="46.20907" lon="4.48585">
        <ele>970</ele>
        <time>2015-07-08T10:45:42Z</time>
      </trkpt>
      <trkpt lat="46.20908" lon="4.48602">
        <ele>971</ele>
        <time>2015-07-08T10:46:00Z</time>
      </trkpt>
      <trkpt lat="46.209" lon="4.48636">
        <ele>976</ele>
        <time>2015-07-08T10:46:35Z</time>
      </trkpt>
      <trkpt lat="46.20903" lon="4.48645">
        <ele>976</ele>
        <time>2015-07-08T10:46:46Z</time>
      </trkpt>
      <trkpt lat="46.20905" lon="4.48659">
        <ele>977</ele>
        <time>2015-07-08T10:46:56Z</time>
      </trkpt>
      <trkpt lat="46.20901" lon="4.4871">
        <ele>981</ele>
        <time>2015-07-08T10:47:29Z</time>
      </trkpt>
      <trkpt lat="46.20894" lon="4.48721">
        <ele>983</ele>
        <time>2015-07-08T10:47:37Z</time>
      </trkpt>
      <trkpt lat="46.20881" lon="4.48734">
        <ele>986</ele>
        <time>2015-07-08T10:48:04Z</time>
      </trkpt>
      <trkpt lat="46.2088" lon="4.48741">
        <ele>986</ele>
        <time>2015-07-08T10:48:08Z</time>
      </trkpt>
      <trkpt lat="46.20878" lon="4.48743">
        <ele>987</ele>
        <time>2015-07-08T10:48:25Z</time>
      </trkpt>
      <trkpt lat="46.20873" lon="4.48744">
        <ele>988</ele>
        <time>2015-07-08T10:48:30Z</time>
      </trkpt>
      <trkpt lat="46.20869" lon="4.48741">
        <ele>988</ele>
        <time>2015-07-08T10:48:35Z</time>
      </trkpt>
      <trkpt lat="46.20859" lon="4.48771">
        <ele>990</ele>
        <time>2015-07-08T10:48:54Z</time>
      </trkpt>
      <trkpt lat="46.20841" lon="4.48789">
        <ele>994</ele>
        <time>2015-07-08T10:49:23Z</time>
      </trkpt>
      <trkpt lat="46.20838" lon="4.48791">
        <ele>994</ele>
        <time>2015-07-08T10:49:32Z</time>
      </trkpt>
      <trkpt lat="46.20833" lon="4.48787">
        <ele>996</ele>
        <time>2015-07-08T10:49:48Z</time>
      </trkpt>
      <trkpt lat="46.20826" lon="4.48777">
        <ele>997</ele>
        <time>2015-07-08T10:49:57Z</time>
      </trkpt>
      <trkpt lat="46.20826" lon="4.48769">
        <ele>998</ele>
        <time>2015-07-08T10:50:10Z</time>
      </trkpt>
      <trkpt lat="46.20831" lon="4.48741">
        <ele>1003</ele>
        <time>2015-07-08T10:50:31Z</time>
      </trkpt>
      <trkpt lat="46.20833" lon="4.48734">
        <ele>1003</ele>
        <time>2015-07-08T10:50:36Z</time>
      </trkpt>
      <trkpt lat="46.20832" lon="4.48726">
        <ele>1003</ele>
        <time>2015-07-08T10:50:41Z</time>
      </trkpt>
      <trkpt lat="46.20832" lon="4.48714">
        <ele>1004</ele>
        <time>2015-07-08T10:50:48Z</time>
      </trkpt>
      <trkpt lat="46.20832" lon="4.48706">
        <ele>1004</ele>
        <time>2015-07-08T10:50:54Z</time>
      </trkpt>
      <trkpt lat="46.20828" lon="4.48702">
        <ele>1003</ele>
        <time>2015-07-08T10:51:02Z</time>
      </trkpt>
      <trkpt lat="46.20825" lon="4.48696">
        <ele>1002</ele>
        <time>2015-07-08T10:51:06Z</time>
      </trkpt>
      <trkpt lat="46.20822" lon="4.48692">
        <ele>1002</ele>
        <time>2015-07-08T10:51:10Z</time>
      </trkpt>
      <trkpt lat="46.20813" lon="4.4869">
        <ele>1002</ele>
        <time>2015-07-08T10:51:17Z</time>
      </trkpt>
      <trkpt lat="46.20813" lon="4.48696">
        <ele>1002</ele>
        <time>2015-07-08T10:51:45Z</time>
      </trkpt>
      <trkpt lat="46.20809" lon="4.48701">
        <ele>1002</ele>
        <time>2015-07-08T10:51:49Z</time>
      </trkpt>
      <trkpt lat="46.20804" lon="4.48703">
        <ele>1004</ele>
        <time>2015-07-08T10:51:56Z</time>
      </trkpt>
      <trkpt lat="46.20791" lon="4.48696">
        <ele>1005</ele>
        <time>2015-07-08T10:52:05Z</time>
      </trkpt>
      <trkpt lat="46.20786" lon="4.48699">
        <ele>1006</ele>
        <time>2015-07-08T10:52:10Z</time>
      </trkpt>
      <trkpt lat="46.20787" lon="4.48708">
        <ele>1008</ele>
        <time>2015-07-08T10:52:23Z</time>
      </trkpt>
      <trkpt lat="46.20798" lon="4.48724">
        <ele>1012</ele>
        <time>2015-07-08T10:52:37Z</time>
      </trkpt>
      <trkpt lat="46.20801" lon="4.48737">
        <ele>1011</ele>
        <time>2015-07-08T10:52:47Z</time>
      </trkpt>
      <trkpt lat="46.208" lon="4.48738">
        <ele>1008</ele>
        <time>2015-07-08T10:53:15Z</time>
      </trkpt>
      <trkpt lat="46.20796" lon="4.48738">
        <ele>1007</ele>
        <time>2015-07-08T10:54:12Z</time>
      </trkpt>
      <trkpt lat="46.20797" lon="4.48734">
        <ele>1007</ele>
        <time>2015-07-08T11:01:33Z</time>
      </trkpt>
      <trkpt lat="46.20801" lon="4.48736">
        <ele>1007</ele>
        <time>2015-07-08T11:01:42Z</time>
      </trkpt>
      <trkpt lat="46.20806" lon="4.48736">
        <ele>1007</ele>
        <time>2015-07-08T11:01:48Z</time>
      </trkpt>
      <trkpt lat="46.20808" lon="4.48735">
        <ele>1007</ele>
        <time>2015-07-08T11:13:02Z</time>
      </trkpt>
      <trkpt lat="46.20812" lon="4.48737">
        <ele>1007</ele>
        <time>2015-07-08T11:13:14Z</time>
      </trkpt>
      <trkpt lat="46.20811" lon="4.48729">
        <ele>1007</ele>
        <time>2015-07-08T11:13:28Z</time>
      </trkpt>
      <trkpt lat="46.20808" lon="4.48732">
        <ele>1006</ele>
        <time>2015-07-08T11:27:26Z</time>
      </trkpt>
      <trkpt lat="46.20805" lon="4.48736">
        <ele>1006</ele>
        <time>2015-07-08T11:27:39Z</time>
      </trkpt>
      <trkpt lat="46.20799" lon="4.48735">
        <ele>1006</ele>
        <time>2015-07-08T11:27:50Z</time>
      </trkpt>
      <trkpt lat="46.20797" lon="4.48733">
        <ele>1005</ele>
        <time>2015-07-08T11:27:57Z</time>
      </trkpt>
      <trkpt lat="46.20796" lon="4.48726">
        <ele>1005</ele>
        <time>2015-07-08T11:28:03Z</time>
      </trkpt>
      <trkpt lat="46.20798" lon="4.48718">
        <ele>1005</ele>
        <time>2015-07-08T11:28:08Z</time>
      </trkpt>
      <trkpt lat="46.20803" lon="4.48716">
        <ele>1006</ele>
        <time>2015-07-08T11:28:14Z</time>
      </trkpt>
      <trkpt lat="46.20805" lon="4.48714">
        <ele>1006</ele>
        <time>2015-07-08T11:28:25Z</time>
      </trkpt>
      <trkpt lat="46.20804" lon="4.48707">
        <ele>1006</ele>
        <time>2015-07-08T11:29:38Z</time>
      </trkpt>
      <trkpt lat="46.20801" lon="4.48701">
        <ele>1006</ele>
        <time>2015-07-08T11:29:45Z</time>
      </trkpt>
      <trkpt lat="46.20796" lon="4.48702">
        <ele>1008</ele>
        <time>2015-07-08T11:30:31Z</time>
      </trkpt>
      <trkpt lat="46.20797" lon="4.48699">
        <ele>1016</ele>
        <time>2015-07-08T11:35:00Z</time>
      </trkpt>
      <trkpt lat="46.20801" lon="4.48699">
        <ele>1016</ele>
        <time>2015-07-08T11:35:57Z</time>
      </trkpt>
      <trkpt lat="46.20803" lon="4.48703">
        <ele>1009</ele>
        <time>2015-07-08T11:36:55Z</time>
      </trkpt>
      <trkpt lat="46.20807" lon="4.48709">
        <ele>1008</ele>
        <time>2015-07-08T11:36:59Z</time>
      </trkpt>
      <trkpt lat="46.2081" lon="4.48722">
        <ele>1006</ele>
        <time>2015-07-08T11:37:08Z</time>
      </trkpt>
      <trkpt lat="46.20809" lon="4.48729">
        <ele>1006</ele>
        <time>2015-07-08T11:37:18Z</time>
      </trkpt>
      <trkpt lat="46.20806" lon="4.48732">
        <ele>1006</ele>
        <time>2015-07-08T11:37:54Z</time>
      </trkpt>
      <trkpt lat="46.20802" lon="4.48735">
        <ele>1008</ele>
        <time>2015-07-08T11:45:07Z</time>
      </trkpt>
      <trkpt lat="46.20806" lon="4.48732">
        <ele>1011</ele>
        <time>2015-07-08T11:57:57Z</time>
      </trkpt>
      <trkpt lat="46.20809" lon="4.48734">
        <ele>1011</ele>
        <time>2015-07-08T12:00:52Z</time>
      </trkpt>
      <trkpt lat="46.20808" lon="4.48725">
        <ele>1010</ele>
        <time>2015-07-08T12:03:39Z</time>
      </trkpt>
      <trkpt lat="46.20805" lon="4.4872">
        <ele>1009</ele>
        <time>2015-07-08T12:03:44Z</time>
      </trkpt>
      <trkpt lat="46.20796" lon="4.48725">
        <ele>1008</ele>
        <time>2015-07-08T12:03:53Z</time>
      </trkpt>
      <trkpt lat="46.20792" lon="4.48737">
        <ele>1008</ele>
        <time>2015-07-08T12:04:03Z</time>
      </trkpt>
      <trkpt lat="46.20789" lon="4.48751">
        <ele>1007</ele>
        <time>2015-07-08T12:04:14Z</time>
      </trkpt>
      <trkpt lat="46.20788" lon="4.48748">
        <ele>1007</ele>
        <time>2015-07-08T12:04:50Z</time>
      </trkpt>
      <trkpt lat="46.20787" lon="4.48741">
        <ele>1007</ele>
        <time>2015-07-08T12:04:54Z</time>
      </trkpt>
      <trkpt lat="46.20787" lon="4.48734">
        <ele>1007</ele>
        <time>2015-07-08T12:04:58Z</time>
      </trkpt>
      <trkpt lat="46.20806" lon="4.48691">
        <ele>1009</ele>
        <time>2015-07-08T12:05:29Z</time>
      </trkpt>
      <trkpt lat="46.2081" lon="4.48688">
        <ele>1008</ele>
        <time>2015-07-08T12:05:33Z</time>
      </trkpt>
      <trkpt lat="46.20815" lon="4.48687">
        <ele>1007</ele>
        <time>2015-07-08T12:05:37Z</time>
      </trkpt>
      <trkpt lat="46.2082" lon="4.4869">
        <ele>1007</ele>
        <time>2015-07-08T12:05:41Z</time>
      </trkpt>
      <trkpt lat="46.20826" lon="4.487">
        <ele>1006</ele>
        <time>2015-07-08T12:05:47Z</time>
      </trkpt>
      <trkpt lat="46.20828" lon="4.48708">
        <ele>1006</ele>
        <time>2015-07-08T12:05:51Z</time>
      </trkpt>
      <trkpt lat="46.20831" lon="4.48714">
        <ele>1006</ele>
        <time>2015-07-08T12:05:55Z</time>
      </trkpt>
      <trkpt lat="46.20833" lon="4.48722">
        <ele>1006</ele>
        <time>2015-07-08T12:05:59Z</time>
      </trkpt>
      <trkpt lat="46.20833" lon="4.48735">
        <ele>1006</ele>
        <time>2015-07-08T12:06:07Z</time>
      </trkpt>
      <trkpt lat="46.20831" lon="4.48742">
        <ele>1006</ele>
        <time>2015-07-08T12:06:11Z</time>
      </trkpt>
      <trkpt lat="46.20832" lon="4.48749">
        <ele>1006</ele>
        <time>2015-07-08T12:06:13Z</time>
      </trkpt>
      <trkpt lat="46.20827" lon="4.48775">
        <ele>1005</ele>
        <time>2015-07-08T12:06:33Z</time>
      </trkpt>
      <trkpt lat="46.20829" lon="4.48782">
        <ele>1006</ele>
        <time>2015-07-08T12:06:37Z</time>
      </trkpt>
      <trkpt lat="46.20831" lon="4.48787">
        <ele>1005</ele>
        <time>2015-07-08T12:06:41Z</time>
      </trkpt>
      <trkpt lat="46.20836" lon="4.48789">
        <ele>1005</ele>
        <time>2015-07-08T12:06:46Z</time>
      </trkpt>
      <trkpt lat="46.20853" lon="4.48774">
        <ele>1003</ele>
        <time>2015-07-08T12:07:03Z</time>
      </trkpt>
      <trkpt lat="46.20857" lon="4.48769">
        <ele>1003</ele>
        <time>2015-07-08T12:07:07Z</time>
      </trkpt>
      <trkpt lat="46.20865" lon="4.48763">
        <ele>1002</ele>
        <time>2015-07-08T12:07:14Z</time>
      </trkpt>
      <trkpt lat="46.20867" lon="4.48756">
        <ele>1000</ele>
        <time>2015-07-08T12:07:18Z</time>
      </trkpt>
      <trkpt lat="46.20894" lon="4.48707">
        <ele>995</ele>
        <time>2015-07-08T12:07:51Z</time>
      </trkpt>
      <trkpt lat="46.20886" lon="4.48677">
        <ele>990</ele>
        <time>2015-07-08T12:08:03Z</time>
      </trkpt>
      <trkpt lat="46.20893" lon="4.48667">
        <ele>990</ele>
        <time>2015-07-08T12:08:10Z</time>
      </trkpt>
      <trkpt lat="46.20904" lon="4.48654">
        <ele>988</ele>
        <time>2015-07-08T12:08:22Z</time>
      </trkpt>
      <trkpt lat="46.20904" lon="4.4864">
        <ele>985</ele>
        <time>2015-07-08T12:08:51Z</time>
      </trkpt>
      <trkpt lat="46.20901" lon="4.48627">
        <ele>985</ele>
        <time>2015-07-08T12:09:01Z</time>
      </trkpt>
      <trkpt lat="46.20901" lon="4.48557">
        <ele>978</ele>
        <time>2015-07-08T12:09:34Z</time>
      </trkpt>
      <trkpt lat="46.20886" lon="4.48504">
        <ele>970</ele>
        <time>2015-07-08T12:10:05Z</time>
      </trkpt>
      <trkpt lat="46.2087" lon="4.48489">
        <ele>968</ele>
        <time>2015-07-08T12:10:29Z</time>
      </trkpt>
      <trkpt lat="46.20874" lon="4.48484">
        <ele>957</ele>
        <time>2015-07-08T12:13:15Z</time>
      </trkpt>
      <trkpt lat="46.20874" lon="4.48485">
        <ele>957</ele>
        <time>2015-07-08T12:17:01Z</time>
      </trkpt>
      <trkpt lat="46.20865" lon="4.48472">
        <ele>957</ele>
        <time>2015-07-08T12:19:40Z</time>
      </trkpt>
      <trkpt lat="46.20858" lon="4.48463">
        <ele>958</ele>
        <time>2015-07-08T12:19:47Z</time>
      </trkpt>
      <trkpt lat="46.2085" lon="4.48456">
        <ele>957</ele>
        <time>2015-07-08T12:19:57Z</time>
      </trkpt>
      <trkpt lat="46.20832" lon="4.48449">
        <ele>958</ele>
        <time>2015-07-08T12:20:14Z</time>
      </trkpt>
      <trkpt lat="46.20788" lon="4.48423">
        <ele>964</ele>
        <time>2015-07-08T12:20:52Z</time>
      </trkpt>
      <trkpt lat="46.20779" lon="4.48424">
        <ele>964</ele>
        <time>2015-07-08T12:20:59Z</time>
      </trkpt>
      <trkpt lat="46.20766" lon="4.48422">
        <ele>963</ele>
        <time>2015-07-08T12:21:20Z</time>
      </trkpt>
      <trkpt lat="46.20757" lon="4.48427">
        <ele>964</ele>
        <time>2015-07-08T12:21:28Z</time>
      </trkpt>
      <trkpt lat="46.20747" lon="4.48426">
        <ele>965</ele>
        <time>2015-07-08T12:21:42Z</time>
      </trkpt>
      <trkpt lat="46.20729" lon="4.48421">
        <ele>957</ele>
        <time>2015-07-08T12:22:00Z</time>
      </trkpt>
      <trkpt lat="46.20695" lon="4.48437">
        <ele>949</ele>
        <time>2015-07-08T12:22:32Z</time>
      </trkpt>
      <trkpt lat="46.20665" lon="4.48431">
        <ele>946</ele>
        <time>2015-07-08T12:24:00Z</time>
      </trkpt>
      <trkpt lat="46.20656" lon="4.48438">
        <ele>948</ele>
        <time>2015-07-08T12:24:08Z</time>
      </trkpt>
      <trkpt lat="46.20576" lon="4.48536">
        <ele>957</ele>
        <time>2015-07-08T12:25:37Z</time>
      </trkpt>
      <trkpt lat="46.2049" lon="4.48599">
        <ele>947</ele>
        <time>2015-07-08T12:26:55Z</time>
      </trkpt>
      <trkpt lat="46.20484" lon="4.48609">
        <ele>948</ele>
        <time>2015-07-08T12:27:03Z</time>
      </trkpt>
      <trkpt lat="46.20459" lon="4.48633">
        <ele>947</ele>
        <time>2015-07-08T12:27:24Z</time>
      </trkpt>
      <trkpt lat="46.20453" lon="4.48637">
        <ele>949</ele>
        <time>2015-07-08T12:27:49Z</time>
      </trkpt>
      <trkpt lat="46.20443" lon="4.4864">
        <ele>949</ele>
        <time>2015-07-08T12:27:58Z</time>
      </trkpt>
      <trkpt lat="46.20428" lon="4.48638">
        <ele>951</ele>
        <time>2015-07-08T12:28:12Z</time>
      </trkpt>
      <trkpt lat="46.20423" lon="4.48639">
        <ele>950</ele>
        <time>2015-07-08T12:28:18Z</time>
      </trkpt>
      <trkpt lat="46.20408" lon="4.48636">
        <ele>951</ele>
        <time>2015-07-08T12:28:29Z</time>
      </trkpt>
      <trkpt lat="46.20378" lon="4.48623">
        <ele>952</ele>
        <time>2015-07-08T12:28:52Z</time>
      </trkpt>
      <trkpt lat="46.20365" lon="4.48611">
        <ele>954</ele>
        <time>2015-07-08T12:29:43Z</time>
      </trkpt>
      <trkpt lat="46.20318" lon="4.48598">
        <ele>960</ele>
        <time>2015-07-08T12:30:25Z</time>
      </trkpt>
      <trkpt lat="46.20309" lon="4.48592">
        <ele>960</ele>
        <time>2015-07-08T12:30:31Z</time>
      </trkpt>
      <trkpt lat="46.20252" lon="4.48568">
        <ele>966</ele>
        <time>2015-07-08T12:31:29Z</time>
      </trkpt>
      <trkpt lat="46.20213" lon="4.48565">
        <ele>973</ele>
        <time>2015-07-08T12:32:01Z</time>
      </trkpt>
      <trkpt lat="46.20174" lon="4.48569">
        <ele>973</ele>
        <time>2015-07-08T12:32:37Z</time>
      </trkpt>
      <trkpt lat="46.20126" lon="4.48588">
        <ele>973</ele>
        <time>2015-07-08T12:33:30Z</time>
      </trkpt>
      <trkpt lat="46.20094" lon="4.48617">
        <ele>974</ele>
        <time>2015-07-08T12:34:03Z</time>
      </trkpt>
      <trkpt lat="46.20089" lon="4.48619">
        <ele>973</ele>
        <time>2015-07-08T12:34:11Z</time>
      </trkpt>
      <trkpt lat="46.20084" lon="4.48621">
        <ele>972</ele>
        <time>2015-07-08T12:34:15Z</time>
      </trkpt>
      <trkpt lat="46.2008" lon="4.48623">
        <ele>971</ele>
        <time>2015-07-08T12:34:19Z</time>
      </trkpt>
      <trkpt lat="46.20065" lon="4.48622">
        <ele>971</ele>
        <time>2015-07-08T12:34:32Z</time>
      </trkpt>
      <trkpt lat="46.2006" lon="4.4862">
        <ele>970</ele>
        <time>2015-07-08T12:34:37Z</time>
      </trkpt>
      <trkpt lat="46.20051" lon="4.48608">
        <ele>969</ele>
        <time>2015-07-08T12:34:43Z</time>
      </trkpt>
      <trkpt lat="46.2005" lon="4.48604">
        <ele>969</ele>
        <time>2015-07-08T12:34:44Z</time>
      </trkpt>
      <trkpt lat="46.20046" lon="4.486">
        <ele>968</ele>
        <time>2015-07-08T12:34:52Z</time>
      </trkpt>
      <trkpt lat="46.2004" lon="4.48588">
        <ele>967</ele>
        <time>2015-07-08T12:35:01Z</time>
      </trkpt>
      <trkpt lat="46.20036" lon="4.48588">
        <ele>967</ele>
        <time>2015-07-08T12:35:03Z</time>
      </trkpt>
      <trkpt lat="46.20032" lon="4.4859">
        <ele>966</ele>
        <time>2015-07-08T12:35:05Z</time>
      </trkpt>
      <trkpt lat="46.2003" lon="4.48595">
        <ele>966</ele>
        <time>2015-07-08T12:35:07Z</time>
      </trkpt>
      <trkpt lat="46.20025" lon="4.48598">
        <ele>966</ele>
        <time>2015-07-08T12:35:10Z</time>
      </trkpt>
      <trkpt lat="46.2002" lon="4.48592">
        <ele>966</ele>
        <time>2015-07-08T12:35:13Z</time>
      </trkpt>
      <trkpt lat="46.20012" lon="4.48577">
        <ele>965</ele>
        <time>2015-07-08T12:35:21Z</time>
      </trkpt>
      <trkpt lat="46.20011" lon="4.48568">
        <ele>964</ele>
        <time>2015-07-08T12:35:29Z</time>
      </trkpt>
      <trkpt lat="46.19995" lon="4.48529">
        <ele>963</ele>
        <time>2015-07-08T12:35:49Z</time>
      </trkpt>
      <trkpt lat="46.19999" lon="4.48525">
        <ele>963</ele>
        <time>2015-07-08T12:35:53Z</time>
      </trkpt>
      <trkpt lat="46.19998" lon="4.48515">
        <ele>962</ele>
        <time>2015-07-08T12:35:59Z</time>
      </trkpt>
      <trkpt lat="46.1999" lon="4.48502">
        <ele>961</ele>
        <time>2015-07-08T12:36:03Z</time>
      </trkpt>
      <trkpt lat="46.19979" lon="4.48473">
        <ele>961</ele>
        <time>2015-07-08T12:36:27Z</time>
      </trkpt>
      <trkpt lat="46.19979" lon="4.48466">
        <ele>960</ele>
        <time>2015-07-08T12:36:31Z</time>
      </trkpt>
      <trkpt lat="46.19973" lon="4.48443">
        <ele>957</ele>
        <time>2015-07-08T12:37:03Z</time>
      </trkpt>
      <trkpt lat="46.19953" lon="4.48397">
        <ele>949</ele>
        <time>2015-07-08T12:37:36Z</time>
      </trkpt>
      <trkpt lat="46.1994" lon="4.48375">
        <ele>947</ele>
        <time>2015-07-08T12:37:51Z</time>
      </trkpt>
      <trkpt lat="46.19924" lon="4.48324">
        <ele>944</ele>
        <time>2015-07-08T12:38:26Z</time>
      </trkpt>
      <trkpt lat="46.19897" lon="4.48275">
        <ele>938</ele>
        <time>2015-07-08T12:39:02Z</time>
      </trkpt>
      <trkpt lat="46.19781" lon="4.48181">
        <ele>920</ele>
        <time>2015-07-08T12:40:43Z</time>
      </trkpt>
      <trkpt lat="46.19762" lon="4.48134">
        <ele>916</ele>
        <time>2015-07-08T12:41:15Z</time>
      </trkpt>
      <trkpt lat="46.19761" lon="4.48121">
        <ele>915</ele>
        <time>2015-07-08T12:41:24Z</time>
      </trkpt>
      <trkpt lat="46.19758" lon="4.48116">
        <ele>915</ele>
        <time>2015-07-08T12:41:40Z</time>
      </trkpt>
      <trkpt lat="46.19763" lon="4.48105">
        <ele>915</ele>
        <time>2015-07-08T12:42:38Z</time>
      </trkpt>
      <trkpt lat="46.19765" lon="4.47967">
        <ele>922</ele>
        <time>2015-07-08T12:43:56Z</time>
      </trkpt>
      <trkpt lat="46.1977" lon="4.47956">
        <ele>920</ele>
        <time>2015-07-08T12:44:04Z</time>
      </trkpt>
      <trkpt lat="46.19771" lon="4.4794">
        <ele>919</ele>
        <time>2015-07-08T12:44:13Z</time>
      </trkpt>
      <trkpt lat="46.1977" lon="4.47937">
        <ele>920</ele>
        <time>2015-07-08T12:44:19Z</time>
      </trkpt>
      <trkpt lat="46.19772" lon="4.47937">
        <ele>919</ele>
        <time>2015-07-08T12:44:40Z</time>
      </trkpt>
      <trkpt lat="46.19774" lon="4.47799">
        <ele>923</ele>
        <time>2015-07-08T12:46:43Z</time>
      </trkpt>
      <trkpt lat="46.19769" lon="4.47744">
        <ele>926</ele>
        <time>2015-07-08T12:47:15Z</time>
      </trkpt>
      <trkpt lat="46.19746" lon="4.47654">
        <ele>926</ele>
        <time>2015-07-08T12:48:09Z</time>
      </trkpt>
      <trkpt lat="46.1974" lon="4.47644">
        <ele>927</ele>
        <time>2015-07-08T12:48:19Z</time>
      </trkpt>
      <trkpt lat="46.19704" lon="4.47599">
        <ele>928</ele>
        <time>2015-07-08T12:48:58Z</time>
      </trkpt>
      <trkpt lat="46.19694" lon="4.47595">
        <ele>928</ele>
        <time>2015-07-08T12:49:06Z</time>
      </trkpt>
      <trkpt lat="46.19671" lon="4.47592">
        <ele>928</ele>
        <time>2015-07-08T12:49:23Z</time>
      </trkpt>
      <trkpt lat="46.19667" lon="4.47591">
        <ele>927</ele>
        <time>2015-07-08T12:49:27Z</time>
      </trkpt>
      <trkpt lat="46.19624" lon="4.47572">
        <ele>922</ele>
        <time>2015-07-08T12:50:09Z</time>
      </trkpt>
      <trkpt lat="46.19621" lon="4.47567">
        <ele>921</ele>
        <time>2015-07-08T12:50:17Z</time>
      </trkpt>
      <trkpt lat="46.19584" lon="4.47545">
        <ele>918</ele>
        <time>2015-07-08T12:50:41Z</time>
      </trkpt>
      <trkpt lat="46.19576" lon="4.47537">
        <ele>919</ele>
        <time>2015-07-08T12:50:48Z</time>
      </trkpt>
      <trkpt lat="46.19566" lon="4.47535">
        <ele>919</ele>
        <time>2015-07-08T12:50:56Z</time>
      </trkpt>
      <trkpt lat="46.19537" lon="4.47507">
        <ele>916</ele>
        <time>2015-07-08T12:51:24Z</time>
      </trkpt>
      <trkpt lat="46.19525" lon="4.47502">
        <ele>914</ele>
        <time>2015-07-08T12:51:50Z</time>
      </trkpt>
      <trkpt lat="46.19515" lon="4.47494">
        <ele>913</ele>
        <time>2015-07-08T12:51:59Z</time>
      </trkpt>
      <trkpt lat="46.19459" lon="4.47479">
        <ele>919</ele>
        <time>2015-07-08T12:52:49Z</time>
      </trkpt>
      <trkpt lat="46.19457" lon="4.47478">
        <ele>919</ele>
        <time>2015-07-08T12:52:51Z</time>
      </trkpt>
      <trkpt lat="46.19455" lon="4.47476">
        <ele>919</ele>
        <time>2015-07-08T12:52:52Z</time>
      </trkpt>
      <trkpt lat="46.19447" lon="4.47476">
        <ele>916</ele>
        <time>2015-07-08T12:53:11Z</time>
      </trkpt>
      <trkpt lat="46.19438" lon="4.47476">
        <ele>916</ele>
        <time>2015-07-08T12:53:18Z</time>
      </trkpt>
      <trkpt lat="46.19428" lon="4.47473">
        <ele>916</ele>
        <time>2015-07-08T12:53:28Z</time>
      </trkpt>
      <trkpt lat="46.19402" lon="4.47453">
        <ele>913</ele>
        <time>2015-07-08T12:53:51Z</time>
      </trkpt>
      <trkpt lat="46.19371" lon="4.47419">
        <ele>910</ele>
        <time>2015-07-08T12:54:22Z</time>
      </trkpt>
      <trkpt lat="46.19366" lon="4.47417">
        <ele>910</ele>
        <time>2015-07-08T12:54:27Z</time>
      </trkpt>
      <trkpt lat="46.19349" lon="4.47407">
        <ele>913</ele>
        <time>2015-07-08T12:54:41Z</time>
      </trkpt>
      <trkpt lat="46.19344" lon="4.47404">
        <ele>913</ele>
        <time>2015-07-08T12:54:46Z</time>
      </trkpt>
      <trkpt lat="46.1934" lon="4.47399">
        <ele>913</ele>
        <time>2015-07-08T12:54:49Z</time>
      </trkpt>
      <trkpt lat="46.19336" lon="4.47398">
        <ele>913</ele>
        <time>2015-07-08T12:54:51Z</time>
      </trkpt>
      <trkpt lat="46.19329" lon="4.47396">
        <ele>913</ele>
        <time>2015-07-08T12:54:56Z</time>
      </trkpt>
      <trkpt lat="46.19324" lon="4.47393">
        <ele>913</ele>
        <time>2015-07-08T12:55:03Z</time>
      </trkpt>
      <trkpt lat="46.19316" lon="4.47383">
        <ele>913</ele>
        <time>2015-07-08T12:55:12Z</time>
      </trkpt>
      <trkpt lat="46.19286" lon="4.47372">
        <ele>911</ele>
        <time>2015-07-08T12:55:36Z</time>
      </trkpt>
      <trkpt lat="46.19279" lon="4.47374">
        <ele>909</ele>
        <time>2015-07-08T12:55:40Z</time>
      </trkpt>
      <trkpt lat="46.19275" lon="4.47377">
        <ele>910</ele>
        <time>2015-07-08T12:55:43Z</time>
      </trkpt>
      <trkpt lat="46.19239" lon="4.47378">
        <ele>909</ele>
        <time>2015-07-08T12:56:16Z</time>
      </trkpt>
      <trkpt lat="46.1919" lon="4.47402">
        <ele>905</ele>
        <time>2015-07-08T12:56:59Z</time>
      </trkpt>
      <trkpt lat="46.19175" lon="4.474">
        <ele>904</ele>
        <time>2015-07-08T12:57:11Z</time>
      </trkpt>
      <trkpt lat="46.1917" lon="4.47399">
        <ele>904</ele>
        <time>2015-07-08T12:57:15Z</time>
      </trkpt>
      <trkpt lat="46.19164" lon="4.47396">
        <ele>903</ele>
        <time>2015-07-08T12:57:20Z</time>
      </trkpt>
      <trkpt lat="46.1916" lon="4.47398">
        <ele>903</ele>
        <time>2015-07-08T12:57:25Z</time>
      </trkpt>
      <trkpt lat="46.19131" lon="4.47396">
        <ele>905</ele>
        <time>2015-07-08T12:57:45Z</time>
      </trkpt>
      <trkpt lat="46.19119" lon="4.47388">
        <ele>905</ele>
        <time>2015-07-08T12:57:55Z</time>
      </trkpt>
      <trkpt lat="46.19114" lon="4.47389">
        <ele>904</ele>
        <time>2015-07-08T12:58:02Z</time>
      </trkpt>
      <trkpt lat="46.1909" lon="4.47386">
        <ele>903</ele>
        <time>2015-07-08T12:58:21Z</time>
      </trkpt>
      <trkpt lat="46.19078" lon="4.47378">
        <ele>901</ele>
        <time>2015-07-08T12:58:30Z</time>
      </trkpt>
      <trkpt lat="46.19074" lon="4.47378">
        <ele>901</ele>
        <time>2015-07-08T12:58:35Z</time>
      </trkpt>
      <trkpt lat="46.19069" lon="4.47375">
        <ele>901</ele>
        <time>2015-07-08T12:58:37Z</time>
      </trkpt>
      <trkpt lat="46.19065" lon="4.4737">
        <ele>900</ele>
        <time>2015-07-08T12:58:40Z</time>
      </trkpt>
      <trkpt lat="46.19064" lon="4.47363">
        <ele>899</ele>
        <time>2015-07-08T12:58:45Z</time>
      </trkpt>
      <trkpt lat="46.1906" lon="4.4736">
        <ele>899</ele>
        <time>2015-07-08T12:58:52Z</time>
      </trkpt>
      <trkpt lat="46.19055" lon="4.47357">
        <ele>899</ele>
        <time>2015-07-08T12:58:57Z</time>
      </trkpt>
      <trkpt lat="46.19019" lon="4.47332">
        <ele>894</ele>
        <time>2015-07-08T12:59:28Z</time>
      </trkpt>
      <trkpt lat="46.19" lon="4.47323">
        <ele>895</ele>
        <time>2015-07-08T12:59:46Z</time>
      </trkpt>
      <trkpt lat="46.1894" lon="4.47279">
        <ele>891</ele>
        <time>2015-07-08T13:00:39Z</time>
      </trkpt>
      <trkpt lat="46.18867" lon="4.47187">
        <ele>881</ele>
        <time>2015-07-08T13:01:59Z</time>
      </trkpt>
      <trkpt lat="46.1886" lon="4.47177">
        <ele>881</ele>
        <time>2015-07-08T13:02:07Z</time>
      </trkpt>
      <trkpt lat="46.18839" lon="4.4715">
        <ele>877</ele>
        <time>2015-07-08T13:02:25Z</time>
      </trkpt>
      <trkpt lat="46.18839" lon="4.47137">
        <ele>874</ele>
        <time>2015-07-08T13:02:34Z</time>
      </trkpt>
      <trkpt lat="46.18806" lon="4.47071">
        <ele>872</ele>
        <time>2015-07-08T13:03:24Z</time>
      </trkpt>
      <trkpt lat="46.18773" lon="4.47023">
        <ele>870</ele>
        <time>2015-07-08T13:04:01Z</time>
      </trkpt>
      <trkpt lat="46.18709" lon="4.46965">
        <ele>866</ele>
        <time>2015-07-08T13:05:04Z</time>
      </trkpt>
      <trkpt lat="46.18702" lon="4.46956">
        <ele>865</ele>
        <time>2015-07-08T13:05:12Z</time>
      </trkpt>
      <trkpt lat="46.187" lon="4.46943">
        <ele>865</ele>
        <time>2015-07-08T13:05:24Z</time>
      </trkpt>
      <trkpt lat="46.18693" lon="4.46936">
        <ele>864</ele>
        <time>2015-07-08T13:05:29Z</time>
      </trkpt>
      <trkpt lat="46.18654" lon="4.46909">
        <ele>863</ele>
        <time>2015-07-08T13:06:04Z</time>
      </trkpt>
      <trkpt lat="46.18638" lon="4.46892">
        <ele>862</ele>
        <time>2015-07-08T13:06:19Z</time>
      </trkpt>
      <trkpt lat="46.1863" lon="4.46886">
        <ele>862</ele>
        <time>2015-07-08T13:06:25Z</time>
      </trkpt>
      <trkpt lat="46.18517" lon="4.46811">
        <ele>854</ele>
        <time>2015-07-08T13:08:10Z</time>
      </trkpt>
      <trkpt lat="46.18507" lon="4.46797">
        <ele>854</ele>
        <time>2015-07-08T13:08:29Z</time>
      </trkpt>
      <trkpt lat="46.18503" lon="4.46796">
        <ele>854</ele>
        <time>2015-07-08T13:09:27Z</time>
      </trkpt>
      <trkpt lat="46.185" lon="4.46793">
        <ele>855</ele>
        <time>2015-07-08T13:09:35Z</time>
      </trkpt>
      <trkpt lat="46.18498" lon="4.46794">
        <ele>855</ele>
        <time>2015-07-08T13:10:14Z</time>
      </trkpt>
      <trkpt lat="46.18494" lon="4.4679">
        <ele>856</ele>
        <time>2015-07-08T13:10:58Z</time>
      </trkpt>
      <trkpt lat="46.18482" lon="4.46768">
        <ele>861</ele>
        <time>2015-07-08T13:11:17Z</time>
      </trkpt>
      <trkpt lat="46.18351" lon="4.46607">
        <ele>869</ele>
        <time>2015-07-08T13:13:47Z</time>
      </trkpt>
      <trkpt lat="46.18342" lon="4.466">
        <ele>869</ele>
        <time>2015-07-08T13:13:56Z</time>
      </trkpt>
      <trkpt lat="46.18334" lon="4.46591">
        <ele>868</ele>
        <time>2015-07-08T13:14:05Z</time>
      </trkpt>
      <trkpt lat="46.18319" lon="4.46577">
        <ele>869</ele>
        <time>2015-07-08T13:14:24Z</time>
      </trkpt>
      <trkpt lat="46.18295" lon="4.46512">
        <ele>858</ele>
        <time>2015-07-08T13:15:24Z</time>
      </trkpt>
      <trkpt lat="46.18292" lon="4.46507">
        <ele>859</ele>
        <time>2015-07-08T13:15:28Z</time>
      </trkpt>
      <trkpt lat="46.18283" lon="4.4648">
        <ele>857</ele>
        <time>2015-07-08T13:15:42Z</time>
      </trkpt>
      <trkpt lat="46.18272" lon="4.46455">
        <ele>855</ele>
        <time>2015-07-08T13:15:55Z</time>
      </trkpt>
      <trkpt lat="46.18272" lon="4.46448">
        <ele>855</ele>
        <time>2015-07-08T13:16:01Z</time>
      </trkpt>
      <trkpt lat="46.18265" lon="4.46428">
        <ele>856</ele>
        <time>2015-07-08T13:16:15Z</time>
      </trkpt>
      <trkpt lat="46.18264" lon="4.46415">
        <ele>856</ele>
        <time>2015-07-08T13:16:23Z</time>
      </trkpt>
      <trkpt lat="46.18251" lon="4.46365">
        <ele>858</ele>
        <time>2015-07-08T13:16:51Z</time>
      </trkpt>
      <trkpt lat="46.18245" lon="4.46353">
        <ele>857</ele>
        <time>2015-07-08T13:17:00Z</time>
      </trkpt>
      <trkpt lat="46.18239" lon="4.46312">
        <ele>856</ele>
        <time>2015-07-08T13:17:29Z</time>
      </trkpt>
      <trkpt lat="46.1824" lon="4.46285">
        <ele>857</ele>
        <time>2015-07-08T13:17:46Z</time>
      </trkpt>
      <trkpt lat="46.18236" lon="4.46257">
        <ele>857</ele>
        <time>2015-07-08T13:18:02Z</time>
      </trkpt>
      <trkpt lat="46.18231" lon="4.46245">
        <ele>856</ele>
        <time>2015-07-08T13:18:08Z</time>
      </trkpt>
      <trkpt lat="46.18233" lon="4.46232">
        <ele>856</ele>
        <time>2015-07-08T13:18:17Z</time>
      </trkpt>
      <trkpt lat="46.1822" lon="4.4615">
        <ele>850</ele>
        <time>2015-07-08T13:19:07Z</time>
      </trkpt>
      <trkpt lat="46.1822" lon="4.46142">
        <ele>850</ele>
        <time>2015-07-08T13:19:12Z</time>
      </trkpt>
      <trkpt lat="46.18222" lon="4.46136">
        <ele>850</ele>
        <time>2015-07-08T13:19:16Z</time>
      </trkpt>
      <trkpt lat="46.18219" lon="4.46121">
        <ele>849</ele>
        <time>2015-07-08T13:19:26Z</time>
      </trkpt>
      <trkpt lat="46.18215" lon="4.46114">
        <ele>848</ele>
        <time>2015-07-08T13:19:30Z</time>
      </trkpt>
      <trkpt lat="46.18213" lon="4.46104">
        <ele>849</ele>
        <time>2015-07-08T13:19:39Z</time>
      </trkpt>
      <trkpt lat="46.18205" lon="4.46091">
        <ele>849</ele>
        <time>2015-07-08T13:19:46Z</time>
      </trkpt>
      <trkpt lat="46.18203" lon="4.46091">
        <ele>849</ele>
        <time>2015-07-08T13:19:47Z</time>
      </trkpt>
      <trkpt lat="46.18199" lon="4.46087">
        <ele>849</ele>
        <time>2015-07-08T13:19:52Z</time>
      </trkpt>
      <trkpt lat="46.18202" lon="4.4608">
        <ele>850</ele>
        <time>2015-07-08T13:20:00Z</time>
      </trkpt>
      <trkpt lat="46.18192" lon="4.46018">
        <ele>840</ele>
        <time>2015-07-08T13:20:41Z</time>
      </trkpt>
      <trkpt lat="46.18192" lon="4.46003">
        <ele>839</ele>
        <time>2015-07-08T13:20:51Z</time>
      </trkpt>
      <trkpt lat="46.1819" lon="4.45998">
        <ele>838</ele>
        <time>2015-07-08T13:20:56Z</time>
      </trkpt>
      <trkpt lat="46.18191" lon="4.45983">
        <ele>838</ele>
        <time>2015-07-08T13:21:08Z</time>
      </trkpt>
      <trkpt lat="46.18184" lon="4.45949">
        <ele>836</ele>
        <time>2015-07-08T13:21:35Z</time>
      </trkpt>
      <trkpt lat="46.18184" lon="4.45942">
        <ele>837</ele>
        <time>2015-07-08T13:21:39Z</time>
      </trkpt>
      <trkpt lat="46.18152" lon="4.45777">
        <ele>838</ele>
        <time>2015-07-08T13:23:15Z</time>
      </trkpt>
      <trkpt lat="46.18155" lon="4.45735">
        <ele>831</ele>
        <time>2015-07-08T13:23:46Z</time>
      </trkpt>
      <trkpt lat="46.18154" lon="4.45727">
        <ele>829</ele>
        <time>2015-07-08T13:24:31Z</time>
      </trkpt>
      <trkpt lat="46.18154" lon="4.45714">
        <ele>828</ele>
        <time>2015-07-08T13:24:43Z</time>
      </trkpt>
      <trkpt lat="46.18149" lon="4.45649">
        <ele>824</ele>
        <time>2015-07-08T13:25:33Z</time>
      </trkpt>
      <trkpt lat="46.18149" lon="4.4561">
        <ele>824</ele>
        <time>2015-07-08T13:25:58Z</time>
      </trkpt>
      <trkpt lat="46.18146" lon="4.4556">
        <ele>824</ele>
        <time>2015-07-08T13:26:28Z</time>
      </trkpt>
      <trkpt lat="46.18141" lon="4.45548">
        <ele>824</ele>
        <time>2015-07-08T13:26:34Z</time>
      </trkpt>
      <trkpt lat="46.1814" lon="4.45543">
        <ele>824</ele>
        <time>2015-07-08T13:26:36Z</time>
      </trkpt>
      <trkpt lat="46.18147" lon="4.45475">
        <ele>820</ele>
        <time>2015-07-08T13:27:15Z</time>
      </trkpt>
      <trkpt lat="46.18147" lon="4.45462">
        <ele>819</ele>
        <time>2015-07-08T13:27:23Z</time>
      </trkpt>
      <trkpt lat="46.18155" lon="4.45413">
        <ele>819</ele>
        <time>2015-07-08T13:27:53Z</time>
      </trkpt>
      <trkpt lat="46.18158" lon="4.45413">
        <ele>820</ele>
        <time>2015-07-08T13:28:09Z</time>
      </trkpt>
      <trkpt lat="46.18158" lon="4.45403">
        <ele>820</ele>
        <time>2015-07-08T13:28:15Z</time>
      </trkpt>
      <trkpt lat="46.18162" lon="4.45395">
        <ele>821</ele>
        <time>2015-07-08T13:28:19Z</time>
      </trkpt>
      <trkpt lat="46.18168" lon="4.45391">
        <ele>820</ele>
        <time>2015-07-08T13:28:23Z</time>
      </trkpt>
      <trkpt lat="46.18184" lon="4.45342">
        <ele>820</ele>
        <time>2015-07-08T13:28:58Z</time>
      </trkpt>
      <trkpt lat="46.18187" lon="4.45336">
        <ele>820</ele>
        <time>2015-07-08T13:29:02Z</time>
      </trkpt>
      <trkpt lat="46.18186" lon="4.45329">
        <ele>820</ele>
        <time>2015-07-08T13:29:07Z</time>
      </trkpt>
      <trkpt lat="46.18187" lon="4.45322">
        <ele>820</ele>
        <time>2015-07-08T13:29:13Z</time>
      </trkpt>
      <trkpt lat="46.18202" lon="4.4527">
        <ele>818</ele>
        <time>2015-07-08T13:29:44Z</time>
      </trkpt>
      <trkpt lat="46.18199" lon="4.45259">
        <ele>819</ele>
        <time>2015-07-08T13:29:56Z</time>
      </trkpt>
      <trkpt lat="46.18202" lon="4.45252">
        <ele>818</ele>
        <time>2015-07-08T13:30:02Z</time>
      </trkpt>
      <trkpt lat="46.18206" lon="4.45247">
        <ele>817</ele>
        <time>2015-07-08T13:30:08Z</time>
      </trkpt>
      <trkpt lat="46.18217" lon="4.4521">
        <ele>806</ele>
        <time>2015-07-08T13:30:38Z</time>
      </trkpt>
      <trkpt lat="46.18216" lon="4.45204">
        <ele>805</ele>
        <time>2015-07-08T13:30:46Z</time>
      </trkpt>
      <trkpt lat="46.18221" lon="4.45199">
        <ele>804</ele>
        <time>2015-07-08T13:30:51Z</time>
      </trkpt>
      <trkpt lat="46.1822" lon="4.45188">
        <ele>803</ele>
        <time>2015-07-08T13:31:00Z</time>
      </trkpt>
      <trkpt lat="46.18224" lon="4.45185">
        <ele>803</ele>
        <time>2015-07-08T13:31:06Z</time>
      </trkpt>
      <trkpt lat="46.18235" lon="4.45178">
        <ele>802</ele>
        <time>2015-07-08T13:31:13Z</time>
      </trkpt>
      <trkpt lat="46.1823" lon="4.45171">
        <ele>801</ele>
        <time>2015-07-08T13:31:19Z</time>
      </trkpt>
      <trkpt lat="46.1824" lon="4.45159">
        <ele>801</ele>
        <time>2015-07-08T13:31:26Z</time>
      </trkpt>
      <trkpt lat="46.18245" lon="4.4514">
        <ele>799</ele>
        <time>2015-07-08T13:31:44Z</time>
      </trkpt>
      <trkpt lat="46.18242" lon="4.45133">
        <ele>798</ele>
        <time>2015-07-08T13:31:53Z</time>
      </trkpt>
      <trkpt lat="46.18247" lon="4.45119">
        <ele>797</ele>
        <time>2015-07-08T13:32:02Z</time>
      </trkpt>
      <trkpt lat="46.18243" lon="4.45092">
        <ele>796</ele>
        <time>2015-07-08T13:32:19Z</time>
      </trkpt>
      <trkpt lat="46.18263" lon="4.45028">
        <ele>792</ele>
        <time>2015-07-08T13:33:00Z</time>
      </trkpt>
      <trkpt lat="46.18261" lon="4.45021">
        <ele>792</ele>
        <time>2015-07-08T13:33:04Z</time>
      </trkpt>
      <trkpt lat="46.18264" lon="4.45015">
        <ele>792</ele>
        <time>2015-07-08T13:33:44Z</time>
      </trkpt>
      <trkpt lat="46.18273" lon="4.45012">
        <ele>793</ele>
        <time>2015-07-08T13:33:53Z</time>
      </trkpt>
      <trkpt lat="46.18276" lon="4.45006">
        <ele>794</ele>
        <time>2015-07-08T13:33:57Z</time>
      </trkpt>
      <trkpt lat="46.18278" lon="4.44992">
        <ele>796</ele>
        <time>2015-07-08T13:34:05Z</time>
      </trkpt>
      <trkpt lat="46.18281" lon="4.44986">
        <ele>796</ele>
        <time>2015-07-08T13:34:09Z</time>
      </trkpt>
      <trkpt lat="46.18277" lon="4.44979">
        <ele>795</ele>
        <time>2015-07-08T13:34:16Z</time>
      </trkpt>
      <trkpt lat="46.18278" lon="4.44973">
        <ele>795</ele>
        <time>2015-07-08T13:34:18Z</time>
      </trkpt>
      <trkpt lat="46.18275" lon="4.44966">
        <ele>795</ele>
        <time>2015-07-08T13:34:25Z</time>
      </trkpt>
      <trkpt lat="46.18274" lon="4.44952">
        <ele>796</ele>
        <time>2015-07-08T13:34:31Z</time>
      </trkpt>
      <trkpt lat="46.1827" lon="4.44945">
        <ele>796</ele>
        <time>2015-07-08T13:34:36Z</time>
      </trkpt>
      <trkpt lat="46.18265" lon="4.44908">
        <ele>798</ele>
        <time>2015-07-08T13:34:54Z</time>
      </trkpt>
      <trkpt lat="46.18259" lon="4.44886">
        <ele>796</ele>
        <time>2015-07-08T13:35:09Z</time>
      </trkpt>
      <trkpt lat="46.18257" lon="4.44886">
        <ele>795</ele>
        <time>2015-07-08T13:35:15Z</time>
      </trkpt>
      <trkpt lat="46.18253" lon="4.44882">
        <ele>795</ele>
        <time>2015-07-08T13:35:23Z</time>
      </trkpt>
      <trkpt lat="46.18252" lon="4.44876">
        <ele>793</ele>
        <time>2015-07-08T13:35:29Z</time>
      </trkpt>
      <trkpt lat="46.18249" lon="4.44871">
        <ele>791</ele>
        <time>2015-07-08T13:35:32Z</time>
      </trkpt>
      <trkpt lat="46.18233" lon="4.44852">
        <ele>789</ele>
        <time>2015-07-08T13:35:47Z</time>
      </trkpt>
      <trkpt lat="46.18228" lon="4.44849">
        <ele>789</ele>
        <time>2015-07-08T13:35:50Z</time>
      </trkpt>
      <trkpt lat="46.18213" lon="4.44822">
        <ele>788</ele>
        <time>2015-07-08T13:36:06Z</time>
      </trkpt>
      <trkpt lat="46.18202" lon="4.4481">
        <ele>789</ele>
        <time>2015-07-08T13:36:33Z</time>
      </trkpt>
      <trkpt lat="46.18197" lon="4.44809">
        <ele>790</ele>
        <time>2015-07-08T13:36:50Z</time>
      </trkpt>
      <trkpt lat="46.18193" lon="4.44804">
        <ele>790</ele>
        <time>2015-07-08T13:36:54Z</time>
      </trkpt>
      <trkpt lat="46.18131" lon="4.44769">
        <ele>785</ele>
        <time>2015-07-08T13:37:58Z</time>
      </trkpt>
      <trkpt lat="46.18004" lon="4.44735">
        <ele>779</ele>
        <time>2015-07-08T13:40:00Z</time>
      </trkpt>
      <trkpt lat="46.17995" lon="4.44721">
        <ele>779</ele>
        <time>2015-07-08T13:40:27Z</time>
      </trkpt>
      <trkpt lat="46.17986" lon="4.44718">
        <ele>780</ele>
        <time>2015-07-08T13:40:39Z</time>
      </trkpt>
      <trkpt lat="46.1797" lon="4.44705">
        <ele>778</ele>
        <time>2015-07-08T13:40:54Z</time>
      </trkpt>
      <trkpt lat="46.17911" lon="4.44683">
        <ele>789</ele>
        <time>2015-07-08T13:41:42Z</time>
      </trkpt>
      <trkpt lat="46.17901" lon="4.44681">
        <ele>790</ele>
        <time>2015-07-08T13:41:51Z</time>
      </trkpt>
      <trkpt lat="46.17874" lon="4.4467">
        <ele>790</ele>
        <time>2015-07-08T13:42:12Z</time>
      </trkpt>
      <trkpt lat="46.1787" lon="4.44663">
        <ele>786</ele>
        <time>2015-07-08T13:42:26Z</time>
      </trkpt>
      <trkpt lat="46.1785" lon="4.44658">
        <ele>778</ele>
        <time>2015-07-08T13:43:05Z</time>
      </trkpt>
      <trkpt lat="46.17845" lon="4.44658">
        <ele>778</ele>
        <time>2015-07-08T13:43:10Z</time>
      </trkpt>
      <trkpt lat="46.17827" lon="4.4465">
        <ele>771</ele>
        <time>2015-07-08T13:43:28Z</time>
      </trkpt>
      <trkpt lat="46.17822" lon="4.44649">
        <ele>771</ele>
        <time>2015-07-08T13:43:31Z</time>
      </trkpt>
      <trkpt lat="46.17818" lon="4.44651">
        <ele>771</ele>
        <time>2015-07-08T13:43:33Z</time>
      </trkpt>
      <trkpt lat="46.17814" lon="4.4465">
        <ele>771</ele>
        <time>2015-07-08T13:43:35Z</time>
      </trkpt>
      <trkpt lat="46.17812" lon="4.44649">
        <ele>772</ele>
        <time>2015-07-08T13:43:54Z</time>
      </trkpt>
      <trkpt lat="46.17805" lon="4.44647">
        <ele>771</ele>
        <time>2015-07-08T13:44:03Z</time>
      </trkpt>
      <trkpt lat="46.17791" lon="4.4464">
        <ele>769</ele>
        <time>2015-07-08T13:44:16Z</time>
      </trkpt>
      <trkpt lat="46.17782" lon="4.44638">
        <ele>771</ele>
        <time>2015-07-08T13:44:27Z</time>
      </trkpt>
      <trkpt lat="46.17778" lon="4.44633">
        <ele>772</ele>
        <time>2015-07-08T13:44:35Z</time>
      </trkpt>
      <trkpt lat="46.17773" lon="4.44631">
        <ele>771</ele>
        <time>2015-07-08T13:44:43Z</time>
      </trkpt>
      <trkpt lat="46.1775" lon="4.44623">
        <ele>768</ele>
        <time>2015-07-08T13:45:34Z</time>
      </trkpt>
      <trkpt lat="46.17711" lon="4.44617">
        <ele>765</ele>
        <time>2015-07-08T13:46:08Z</time>
      </trkpt>
      <trkpt lat="46.17676" lon="4.44593">
        <ele>763</ele>
        <time>2015-07-08T13:46:39Z</time>
      </trkpt>
      <trkpt lat="46.1764" lon="4.4458">
        <ele>763</ele>
        <time>2015-07-08T13:47:12Z</time>
      </trkpt>
      <trkpt lat="46.17631" lon="4.44583">
        <ele>763</ele>
        <time>2015-07-08T13:47:20Z</time>
      </trkpt>
      <trkpt lat="46.17612" lon="4.44576">
        <ele>762</ele>
        <time>2015-07-08T13:47:40Z</time>
      </trkpt>
      <trkpt lat="46.17604" lon="4.44569">
        <ele>763</ele>
        <time>2015-07-08T13:47:50Z</time>
      </trkpt>
      <trkpt lat="46.17532" lon="4.44545">
        <ele>751</ele>
        <time>2015-07-08T13:48:53Z</time>
      </trkpt>
      <trkpt lat="46.17527" lon="4.44549">
        <ele>751</ele>
        <time>2015-07-08T13:48:55Z</time>
      </trkpt>
      <trkpt lat="46.1748" lon="4.44539">
        <ele>748</ele>
        <time>2015-07-08T13:49:42Z</time>
      </trkpt>
      <trkpt lat="46.17475" lon="4.44539">
        <ele>748</ele>
        <time>2015-07-08T13:49:47Z</time>
      </trkpt>
      <trkpt lat="46.17455" lon="4.44533">
        <ele>746</ele>
        <time>2015-07-08T13:50:05Z</time>
      </trkpt>
      <trkpt lat="46.17445" lon="4.44528">
        <ele>745</ele>
        <time>2015-07-08T13:50:15Z</time>
      </trkpt>
      <trkpt lat="46.17435" lon="4.44529">
        <ele>750</ele>
        <time>2015-07-08T13:50:26Z</time>
      </trkpt>
      <trkpt lat="46.17426" lon="4.44525">
        <ele>751</ele>
        <time>2015-07-08T13:50:32Z</time>
      </trkpt>
      <trkpt lat="46.17421" lon="4.44525">
        <ele>751</ele>
        <time>2015-07-08T13:50:36Z</time>
      </trkpt>
      <trkpt lat="46.1738" lon="4.44503">
        <ele>750</ele>
        <time>2015-07-08T13:51:11Z</time>
      </trkpt>
      <trkpt lat="46.17344" lon="4.44497">
        <ele>748</ele>
        <time>2015-07-08T13:51:43Z</time>
      </trkpt>
      <trkpt lat="46.17316" lon="4.44501">
        <ele>742</ele>
        <time>2015-07-08T13:52:23Z</time>
      </trkpt>
      <trkpt lat="46.17312" lon="4.44496">
        <ele>740</ele>
        <time>2015-07-08T13:52:28Z</time>
      </trkpt>
      <trkpt lat="46.17297" lon="4.44491">
        <ele>738</ele>
        <time>2015-07-08T13:52:42Z</time>
      </trkpt>
      <trkpt lat="46.17289" lon="4.44482">
        <ele>737</ele>
        <time>2015-07-08T13:52:53Z</time>
      </trkpt>
      <trkpt lat="46.17285" lon="4.44482">
        <ele>737</ele>
        <time>2015-07-08T13:52:57Z</time>
      </trkpt>
      <trkpt lat="46.1728" lon="4.44479">
        <ele>736</ele>
        <time>2015-07-08T13:53:01Z</time>
      </trkpt>
      <trkpt lat="46.17272" lon="4.44476">
        <ele>738</ele>
        <time>2015-07-08T13:53:17Z</time>
      </trkpt>
      <trkpt lat="46.17266" lon="4.44477">
        <ele>738</ele>
        <time>2015-07-08T13:53:22Z</time>
      </trkpt>
      <trkpt lat="46.17241" lon="4.44471">
        <ele>738</ele>
        <time>2015-07-08T13:53:48Z</time>
      </trkpt>
      <trkpt lat="46.17238" lon="4.44466">
        <ele>736</ele>
        <time>2015-07-08T13:53:53Z</time>
      </trkpt>
      <trkpt lat="46.17225" lon="4.44456">
        <ele>733</ele>
        <time>2015-07-08T13:54:06Z</time>
      </trkpt>
      <trkpt lat="46.17159" lon="4.44421">
        <ele>727</ele>
        <time>2015-07-08T13:55:07Z</time>
      </trkpt>
      <trkpt lat="46.17129" lon="4.44387">
        <ele>724</ele>
        <time>2015-07-08T13:55:41Z</time>
      </trkpt>
      <trkpt lat="46.17104" lon="4.44351">
        <ele>720</ele>
        <time>2015-07-08T13:56:11Z</time>
      </trkpt>
      <trkpt lat="46.17091" lon="4.44344">
        <ele>720</ele>
        <time>2015-07-08T13:56:27Z</time>
      </trkpt>
      <trkpt lat="46.17089" lon="4.4434">
        <ele>719</ele>
        <time>2015-07-08T13:56:29Z</time>
      </trkpt>
      <trkpt lat="46.17083" lon="4.44338">
        <ele>719</ele>
        <time>2015-07-08T13:56:33Z</time>
      </trkpt>
      <trkpt lat="46.17078" lon="4.44338">
        <ele>719</ele>
        <time>2015-07-08T13:56:37Z</time>
      </trkpt>
      <trkpt lat="46.1707" lon="4.44331">
        <ele>719</ele>
        <time>2015-07-08T13:56:47Z</time>
      </trkpt>
      <trkpt lat="46.1706" lon="4.44326">
        <ele>720</ele>
        <time>2015-07-08T13:56:56Z</time>
      </trkpt>
      <trkpt lat="46.17053" lon="4.44318">
        <ele>720</ele>
        <time>2015-07-08T13:57:04Z</time>
      </trkpt>
      <trkpt lat="46.17037" lon="4.44298">
        <ele>723</ele>
        <time>2015-07-08T13:57:34Z</time>
      </trkpt>
      <trkpt lat="46.17027" lon="4.44293">
        <ele>721</ele>
        <time>2015-07-08T13:57:43Z</time>
      </trkpt>
      <trkpt lat="46.17021" lon="4.44282">
        <ele>720</ele>
        <time>2015-07-08T13:57:51Z</time>
      </trkpt>
      <trkpt lat="46.16988" lon="4.4425">
        <ele>717</ele>
        <time>2015-07-08T13:58:22Z</time>
      </trkpt>
      <trkpt lat="46.16965" lon="4.44234">
        <ele>716</ele>
        <time>2015-07-08T13:58:46Z</time>
      </trkpt>
      <trkpt lat="46.16961" lon="4.4423">
        <ele>716</ele>
        <time>2015-07-08T13:58:50Z</time>
      </trkpt>
      <trkpt lat="46.16939" lon="4.44222">
        <ele>718</ele>
        <time>2015-07-08T13:59:09Z</time>
      </trkpt>
      <trkpt lat="46.16932" lon="4.44211">
        <ele>718</ele>
        <time>2015-07-08T13:59:16Z</time>
      </trkpt>
      <trkpt lat="46.16932" lon="4.44208">
        <ele>718</ele>
        <time>2015-07-08T13:59:19Z</time>
      </trkpt>
      <trkpt lat="46.16927" lon="4.44211">
        <ele>717</ele>
        <time>2015-07-08T13:59:24Z</time>
      </trkpt>
      <trkpt lat="46.16922" lon="4.44212">
        <ele>716</ele>
        <time>2015-07-08T13:59:30Z</time>
      </trkpt>
      <trkpt lat="46.16894" lon="4.44195">
        <ele>718</ele>
        <time>2015-07-08T14:00:00Z</time>
      </trkpt>
      <trkpt lat="46.16873" lon="4.44186">
        <ele>718</ele>
        <time>2015-07-08T14:00:19Z</time>
      </trkpt>
      <trkpt lat="46.16869" lon="4.44183">
        <ele>717</ele>
        <time>2015-07-08T14:00:23Z</time>
      </trkpt>
      <trkpt lat="46.16864" lon="4.44179">
        <ele>717</ele>
        <time>2015-07-08T14:00:28Z</time>
      </trkpt>
      <trkpt lat="46.1686" lon="4.44177">
        <ele>718</ele>
        <time>2015-07-08T14:00:32Z</time>
      </trkpt>
      <trkpt lat="46.16851" lon="4.44173">
        <ele>717</ele>
        <time>2015-07-08T14:00:40Z</time>
      </trkpt>
      <trkpt lat="46.16841" lon="4.44167">
        <ele>717</ele>
        <time>2015-07-08T14:00:50Z</time>
      </trkpt>
      <trkpt lat="46.16809" lon="4.44151">
        <ele>718</ele>
        <time>2015-07-08T14:01:21Z</time>
      </trkpt>
      <trkpt lat="46.16801" lon="4.44143">
        <ele>718</ele>
        <time>2015-07-08T14:01:33Z</time>
      </trkpt>
      <trkpt lat="46.16795" lon="4.44142">
        <ele>718</ele>
        <time>2015-07-08T14:01:38Z</time>
      </trkpt>
      <trkpt lat="46.16786" lon="4.44134">
        <ele>717</ele>
        <time>2015-07-08T14:01:47Z</time>
      </trkpt>
      <trkpt lat="46.16783" lon="4.44129">
        <ele>715</ele>
        <time>2015-07-08T14:01:53Z</time>
      </trkpt>
      <trkpt lat="46.16778" lon="4.4413">
        <ele>714</ele>
        <time>2015-07-08T14:01:58Z</time>
      </trkpt>
      <trkpt lat="46.16774" lon="4.44135">
        <ele>713</ele>
        <time>2015-07-08T14:02:03Z</time>
      </trkpt>
      <trkpt lat="46.1674" lon="4.44162">
        <ele>713</ele>
        <time>2015-07-08T14:02:39Z</time>
      </trkpt>
      <trkpt lat="46.1673" lon="4.44178">
        <ele>713</ele>
        <time>2015-07-08T14:02:52Z</time>
      </trkpt>
      <trkpt lat="46.16715" lon="4.44182">
        <ele>712</ele>
        <time>2015-07-08T14:03:05Z</time>
      </trkpt>
      <trkpt lat="46.16701" lon="4.44175">
        <ele>711</ele>
        <time>2015-07-08T14:03:19Z</time>
      </trkpt>
      <trkpt lat="46.16696" lon="4.44171">
        <ele>711</ele>
        <time>2015-07-08T14:03:30Z</time>
      </trkpt>
      <trkpt lat="46.16695" lon="4.44173">
        <ele>712</ele>
        <time>2015-07-08T14:04:01Z</time>
      </trkpt>
      <trkpt lat="46.16694" lon="4.4418">
        <ele>712</ele>
        <time>2015-07-08T14:04:07Z</time>
      </trkpt>
      <trkpt lat="46.16692" lon="4.44176">
        <ele>712</ele>
        <time>2015-07-08T14:05:58Z</time>
      </trkpt>
      <trkpt lat="46.16695" lon="4.44177">
        <ele>711</ele>
        <time>2015-07-08T14:22:39Z</time>
      </trkpt>
      <trkpt lat="46.16696" lon="4.44185">
        <ele>711</ele>
        <time>2015-07-08T14:22:44Z</time>
      </trkpt>
      <trkpt lat="46.16699" lon="4.44189">
        <ele>710</ele>
        <time>2015-07-08T14:22:58Z</time>
      </trkpt>
      <trkpt lat="46.16699" lon="4.44218">
        <ele>702</ele>
        <time>2015-07-08T14:23:14Z</time>
      </trkpt>
      <trkpt lat="46.16694" lon="4.4423">
        <ele>699</ele>
        <time>2015-07-08T14:23:20Z</time>
      </trkpt>
      <trkpt lat="46.1669" lon="4.44235">
        <ele>698</ele>
        <time>2015-07-08T14:23:26Z</time>
      </trkpt>
      <trkpt lat="46.16689" lon="4.44242">
        <ele>699</ele>
        <time>2015-07-08T14:23:30Z</time>
      </trkpt>
      <trkpt lat="46.1668" lon="4.44267">
        <ele>706</ele>
        <time>2015-07-08T14:23:50Z</time>
      </trkpt>
      <trkpt lat="46.16676" lon="4.44272">
        <ele>706</ele>
        <time>2015-07-08T14:23:54Z</time>
      </trkpt>
      <trkpt lat="46.16663" lon="4.44293">
        <ele>704</ele>
        <time>2015-07-08T14:24:11Z</time>
      </trkpt>
      <trkpt lat="46.16658" lon="4.44296">
        <ele>704</ele>
        <time>2015-07-08T14:24:16Z</time>
      </trkpt>
      <trkpt lat="46.16654" lon="4.44292">
        <ele>703</ele>
        <time>2015-07-08T14:24:20Z</time>
      </trkpt>
      <trkpt lat="46.16645" lon="4.44268">
        <ele>699</ele>
        <time>2015-07-08T14:24:37Z</time>
      </trkpt>
      <trkpt lat="46.16641" lon="4.44265">
        <ele>698</ele>
        <time>2015-07-08T14:24:43Z</time>
      </trkpt>
      <trkpt lat="46.16635" lon="4.44263">
        <ele>697</ele>
        <time>2015-07-08T14:25:53Z</time>
      </trkpt>
      <trkpt lat="46.16619" lon="4.44268">
        <ele>699</ele>
        <time>2015-07-08T14:26:11Z</time>
      </trkpt>
      <trkpt lat="46.1659" lon="4.44281">
        <ele>693</ele>
        <time>2015-07-08T14:26:39Z</time>
      </trkpt>
      <trkpt lat="46.16585" lon="4.44282">
        <ele>692</ele>
        <time>2015-07-08T14:26:44Z</time>
      </trkpt>
      <trkpt lat="46.16542" lon="4.44303">
        <ele>686</ele>
        <time>2015-07-08T14:27:25Z</time>
      </trkpt>
      <trkpt lat="46.16498" lon="4.44318">
        <ele>680</ele>
        <time>2015-07-08T14:28:09Z</time>
      </trkpt>
      <trkpt lat="46.16493" lon="4.44317">
        <ele>679</ele>
        <time>2015-07-08T14:28:14Z</time>
      </trkpt>
      <trkpt lat="46.16464" lon="4.4431">
        <ele>675</ele>
        <time>2015-07-08T14:28:38Z</time>
      </trkpt>
      <trkpt lat="46.16459" lon="4.44307">
        <ele>673</ele>
        <time>2015-07-08T14:28:45Z</time>
      </trkpt>
      <trkpt lat="46.16453" lon="4.44311">
        <ele>673</ele>
        <time>2015-07-08T14:29:23Z</time>
      </trkpt>
      <trkpt lat="46.1642" lon="4.44318">
        <ele>667</ele>
        <time>2015-07-08T14:29:59Z</time>
      </trkpt>
      <trkpt lat="46.16405" lon="4.44323">
        <ele>664</ele>
        <time>2015-07-08T14:30:23Z</time>
      </trkpt>
      <trkpt lat="46.16399" lon="4.44329">
        <ele>662</ele>
        <time>2015-07-08T14:30:51Z</time>
      </trkpt>
      <trkpt lat="46.16383" lon="4.44378">
        <ele>660</ele>
        <time>2015-07-08T14:31:33Z</time>
      </trkpt>
      <trkpt lat="46.16364" lon="4.44416">
        <ele>657</ele>
        <time>2015-07-08T14:31:59Z</time>
      </trkpt>
      <trkpt lat="46.16359" lon="4.44417">
        <ele>657</ele>
        <time>2015-07-08T14:32:06Z</time>
      </trkpt>
      <trkpt lat="46.16337" lon="4.44445">
        <ele>654</ele>
        <time>2015-07-08T14:32:37Z</time>
      </trkpt>
      <trkpt lat="46.16332" lon="4.44449">
        <ele>653</ele>
        <time>2015-07-08T14:32:43Z</time>
      </trkpt>
      <trkpt lat="46.16311" lon="4.44483">
        <ele>648</ele>
        <time>2015-07-08T14:33:10Z</time>
      </trkpt>
      <trkpt lat="46.16309" lon="4.44484">
        <ele>648</ele>
        <time>2015-07-08T14:33:16Z</time>
      </trkpt>
      <trkpt lat="46.16307" lon="4.44486">
        <ele>648</ele>
        <time>2015-07-08T14:33:35Z</time>
      </trkpt>
      <trkpt lat="46.16304" lon="4.44492">
        <ele>648</ele>
        <time>2015-07-08T14:33:41Z</time>
      </trkpt>
      <trkpt lat="46.16288" lon="4.44515">
        <ele>644</ele>
        <time>2015-07-08T14:34:12Z</time>
      </trkpt>
      <trkpt lat="46.16284" lon="4.44525">
        <ele>641</ele>
        <time>2015-07-08T14:34:38Z</time>
      </trkpt>
      <trkpt lat="46.16275" lon="4.44531">
        <ele>640</ele>
        <time>2015-07-08T14:35:01Z</time>
      </trkpt>
      <trkpt lat="46.1627" lon="4.44533">
        <ele>640</ele>
        <time>2015-07-08T14:35:06Z</time>
      </trkpt>
      <trkpt lat="46.16266" lon="4.44535">
        <ele>639</ele>
        <time>2015-07-08T14:35:12Z</time>
      </trkpt>
      <trkpt lat="46.16262" lon="4.44539">
        <ele>639</ele>
        <time>2015-07-08T14:35:18Z</time>
      </trkpt>
      <trkpt lat="46.16167" lon="4.44583">
        <ele>630</ele>
        <time>2015-07-08T14:37:09Z</time>
      </trkpt>
      <trkpt lat="46.16161" lon="4.44592">
        <ele>629</ele>
        <time>2015-07-08T14:37:26Z</time>
      </trkpt>
      <trkpt lat="46.16156" lon="4.44595">
        <ele>629</ele>
        <time>2015-07-08T14:37:36Z</time>
      </trkpt>
      <trkpt lat="46.16152" lon="4.44609">
        <ele>627</ele>
        <time>2015-07-08T14:37:56Z</time>
      </trkpt>
      <trkpt lat="46.16144" lon="4.44612">
        <ele>626</ele>
        <time>2015-07-08T14:38:16Z</time>
      </trkpt>
      <trkpt lat="46.16138" lon="4.44612">
        <ele>626</ele>
        <time>2015-07-08T14:38:30Z</time>
      </trkpt>
      <trkpt lat="46.16129" lon="4.44607">
        <ele>624</ele>
        <time>2015-07-08T14:38:43Z</time>
      </trkpt>
      <trkpt lat="46.16128" lon="4.44602">
        <ele>623</ele>
        <time>2015-07-08T14:38:55Z</time>
      </trkpt>
      <trkpt lat="46.16123" lon="4.44601">
        <ele>622</ele>
        <time>2015-07-08T14:39:09Z</time>
      </trkpt>
      <trkpt lat="46.16107" lon="4.44601">
        <ele>619</ele>
        <time>2015-07-08T14:39:52Z</time>
      </trkpt>
      <trkpt lat="46.16097" lon="4.44599">
        <ele>618</ele>
        <time>2015-07-08T14:40:06Z</time>
      </trkpt>
      <trkpt lat="46.16092" lon="4.44601">
        <ele>618</ele>
        <time>2015-07-08T14:40:11Z</time>
      </trkpt>
      <trkpt lat="46.16034" lon="4.44595">
        <ele>614</ele>
        <time>2015-07-08T14:41:15Z</time>
      </trkpt>
      <trkpt lat="46.16032" lon="4.44593">
        <ele>614</ele>
        <time>2015-07-08T14:41:21Z</time>
      </trkpt>
      <trkpt lat="46.1603" lon="4.44591">
        <ele>614</ele>
        <time>2015-07-08T14:41:38Z</time>
      </trkpt>
      <trkpt lat="46.1602" lon="4.44592">
        <ele>616</ele>
        <time>2015-07-08T14:41:56Z</time>
      </trkpt>
      <trkpt lat="46.16015" lon="4.44595">
        <ele>616</ele>
        <time>2015-07-08T14:42:01Z</time>
      </trkpt>
      <trkpt lat="46.16013" lon="4.44601">
        <ele>616</ele>
        <time>2015-07-08T14:42:05Z</time>
      </trkpt>
      <trkpt lat="46.16011" lon="4.44608">
        <ele>614</ele>
        <time>2015-07-08T14:42:10Z</time>
      </trkpt>
      <trkpt lat="46.16004" lon="4.44627">
        <ele>615</ele>
        <time>2015-07-08T14:42:22Z</time>
      </trkpt>
      <trkpt lat="46.16001" lon="4.44632">
        <ele>615</ele>
        <time>2015-07-08T14:42:26Z</time>
      </trkpt>
      <trkpt lat="46.15985" lon="4.44651">
        <ele>613</ele>
        <time>2015-07-08T14:42:46Z</time>
      </trkpt>
      <trkpt lat="46.15981" lon="4.44655">
        <ele>612</ele>
        <time>2015-07-08T14:42:51Z</time>
      </trkpt>
      <trkpt lat="46.15977" lon="4.44657">
        <ele>613</ele>
        <time>2015-07-08T14:42:55Z</time>
      </trkpt>
      <trkpt lat="46.15956" lon="4.44661">
        <ele>610</ele>
        <time>2015-07-08T14:43:15Z</time>
      </trkpt>
      <trkpt lat="46.1594" lon="4.44666">
        <ele>610</ele>
        <time>2015-07-08T14:43:58Z</time>
      </trkpt>
      <trkpt lat="46.15927" lon="4.44674">
        <ele>610</ele>
        <time>2015-07-08T14:44:10Z</time>
      </trkpt>
      <trkpt lat="46.15923" lon="4.44675">
        <ele>610</ele>
        <time>2015-07-08T14:44:16Z</time>
      </trkpt>
      <trkpt lat="46.15914" lon="4.44684">
        <ele>612</ele>
        <time>2015-07-08T14:44:26Z</time>
      </trkpt>
      <trkpt lat="46.15891" lon="4.44725">
        <ele>612</ele>
        <time>2015-07-08T14:44:58Z</time>
      </trkpt>
      <trkpt lat="46.15884" lon="4.44747">
        <ele>613</ele>
        <time>2015-07-08T14:45:23Z</time>
      </trkpt>
      <trkpt lat="46.15883" lon="4.44754">
        <ele>613</ele>
        <time>2015-07-08T14:45:27Z</time>
      </trkpt>
      <trkpt lat="46.15859" lon="4.44816">
        <ele>615</ele>
        <time>2015-07-08T14:46:12Z</time>
      </trkpt>
      <trkpt lat="46.15846" lon="4.44838">
        <ele>614</ele>
        <time>2015-07-08T14:46:31Z</time>
      </trkpt>
      <trkpt lat="46.15832" lon="4.44849">
        <ele>615</ele>
        <time>2015-07-08T14:46:44Z</time>
      </trkpt>
      <trkpt lat="46.15827" lon="4.44852">
        <ele>616</ele>
        <time>2015-07-08T14:47:12Z</time>
      </trkpt>
      <trkpt lat="46.15763" lon="4.44975">
        <ele>612</ele>
        <time>2015-07-08T14:48:46Z</time>
      </trkpt>
      <trkpt lat="46.15759" lon="4.45002">
        <ele>609</ele>
        <time>2015-07-08T14:49:06Z</time>
      </trkpt>
      <trkpt lat="46.15755" lon="4.45016">
        <ele>610</ele>
        <time>2015-07-08T14:49:15Z</time>
      </trkpt>
      <trkpt lat="46.15719" lon="4.45104">
        <ele>605</ele>
        <time>2015-07-08T14:50:45Z</time>
      </trkpt>
      <trkpt lat="46.15705" lon="4.45124">
        <ele>603</ele>
        <time>2015-07-08T14:51:01Z</time>
      </trkpt>
      <trkpt lat="46.15684" lon="4.45144">
        <ele>604</ele>
        <time>2015-07-08T14:51:24Z</time>
      </trkpt>
      <trkpt lat="46.15652" lon="4.45187">
        <ele>608</ele>
        <time>2015-07-08T14:52:07Z</time>
      </trkpt>
      <trkpt lat="46.15648" lon="4.45191">
        <ele>608</ele>
        <time>2015-07-08T14:52:11Z</time>
      </trkpt>
      <trkpt lat="46.15638" lon="4.45204">
        <ele>609</ele>
        <time>2015-07-08T14:52:25Z</time>
      </trkpt>
      <trkpt lat="46.15631" lon="4.45215">
        <ele>609</ele>
        <time>2015-07-08T14:52:34Z</time>
      </trkpt>
      <trkpt lat="46.1561" lon="4.45244">
        <ele>610</ele>
        <time>2015-07-08T14:52:59Z</time>
      </trkpt>
      <trkpt lat="46.15606" lon="4.45246">
        <ele>612</ele>
        <time>2015-07-08T14:53:08Z</time>
      </trkpt>
      <trkpt lat="46.15602" lon="4.45251">
        <ele>613</ele>
        <time>2015-07-08T14:53:13Z</time>
      </trkpt>
      <trkpt lat="46.15594" lon="4.45258">
        <ele>613</ele>
        <time>2015-07-08T14:53:22Z</time>
      </trkpt>
      <trkpt lat="46.1557" lon="4.45271">
        <ele>610</ele>
        <time>2015-07-08T14:53:45Z</time>
      </trkpt>
      <trkpt lat="46.15559" lon="4.45274">
        <ele>610</ele>
        <time>2015-07-08T14:53:57Z</time>
      </trkpt>
      <trkpt lat="46.15554" lon="4.45276">
        <ele>610</ele>
        <time>2015-07-08T14:54:04Z</time>
      </trkpt>
      <trkpt lat="46.1555" lon="4.45281">
        <ele>609</ele>
        <time>2015-07-08T14:54:09Z</time>
      </trkpt>
      <trkpt lat="46.15526" lon="4.45302">
        <ele>606</ele>
        <time>2015-07-08T14:54:33Z</time>
      </trkpt>
      <trkpt lat="46.15522" lon="4.45303">
        <ele>606</ele>
        <time>2015-07-08T14:54:37Z</time>
      </trkpt>
      <trkpt lat="46.15513" lon="4.45309">
        <ele>606</ele>
        <time>2015-07-08T14:54:49Z</time>
      </trkpt>
      <trkpt lat="46.15483" lon="4.45317">
        <ele>603</ele>
        <time>2015-07-08T14:55:15Z</time>
      </trkpt>
      <trkpt lat="46.15479" lon="4.4532">
        <ele>602</ele>
        <time>2015-07-08T14:55:22Z</time>
      </trkpt>
      <trkpt lat="46.15472" lon="4.45329">
        <ele>603</ele>
        <time>2015-07-08T14:55:30Z</time>
      </trkpt>
      <trkpt lat="46.15459" lon="4.45341">
        <ele>603</ele>
        <time>2015-07-08T14:55:44Z</time>
      </trkpt>
      <trkpt lat="46.15455" lon="4.45344">
        <ele>602</ele>
        <time>2015-07-08T14:55:48Z</time>
      </trkpt>
      <trkpt lat="46.15448" lon="4.45354">
        <ele>602</ele>
        <time>2015-07-08T14:55:58Z</time>
      </trkpt>
      <trkpt lat="46.15445" lon="4.45362">
        <ele>601</ele>
        <time>2015-07-08T14:56:03Z</time>
      </trkpt>
      <trkpt lat="46.1544" lon="4.45369">
        <ele>601</ele>
        <time>2015-07-08T14:56:08Z</time>
      </trkpt>
      <trkpt lat="46.15408" lon="4.45394">
        <ele>602</ele>
        <time>2015-07-08T14:56:39Z</time>
      </trkpt>
      <trkpt lat="46.15404" lon="4.45395">
        <ele>601</ele>
        <time>2015-07-08T14:56:44Z</time>
      </trkpt>
      <trkpt lat="46.15368" lon="4.45448">
        <ele>601</ele>
        <time>2015-07-08T14:57:28Z</time>
      </trkpt>
      <trkpt lat="46.15352" lon="4.45466">
        <ele>601</ele>
        <time>2015-07-08T14:57:46Z</time>
      </trkpt>
      <trkpt lat="46.1534" lon="4.45476">
        <ele>600</ele>
        <time>2015-07-08T14:58:03Z</time>
      </trkpt>
      <trkpt lat="46.15329" lon="4.45488">
        <ele>601</ele>
        <time>2015-07-08T14:58:15Z</time>
      </trkpt>
      <trkpt lat="46.15325" lon="4.45494">
        <ele>601</ele>
        <time>2015-07-08T14:58:20Z</time>
      </trkpt>
      <trkpt lat="46.15311" lon="4.45501">
        <ele>600</ele>
        <time>2015-07-08T14:58:35Z</time>
      </trkpt>
      <trkpt lat="46.15286" lon="4.45527">
        <ele>602</ele>
        <time>2015-07-08T14:58:59Z</time>
      </trkpt>
      <trkpt lat="46.1528" lon="4.45529">
        <ele>602</ele>
        <time>2015-07-08T14:59:10Z</time>
      </trkpt>
      <trkpt lat="46.15273" lon="4.45533">
        <ele>599</ele>
        <time>2015-07-08T14:59:38Z</time>
      </trkpt>
      <trkpt lat="46.15264" lon="4.45543">
        <ele>599</ele>
        <time>2015-07-08T15:00:07Z</time>
      </trkpt>
      <trkpt lat="46.15223" lon="4.45572">
        <ele>597</ele>
        <time>2015-07-08T15:00:47Z</time>
      </trkpt>
      <trkpt lat="46.15179" lon="4.45622">
        <ele>597</ele>
        <time>2015-07-08T15:01:35Z</time>
      </trkpt>
      <trkpt lat="46.15157" lon="4.45669">
        <ele>597</ele>
        <time>2015-07-08T15:02:10Z</time>
      </trkpt>
      <trkpt lat="46.15154" lon="4.45674">
        <ele>597</ele>
        <time>2015-07-08T15:02:14Z</time>
      </trkpt>
      <trkpt lat="46.15149" lon="4.45677">
        <ele>596</ele>
        <time>2015-07-08T15:02:19Z</time>
      </trkpt>
      <trkpt lat="46.15134" lon="4.45682">
        <ele>594</ele>
        <time>2015-07-08T15:02:33Z</time>
      </trkpt>
      <trkpt lat="46.15123" lon="4.45693">
        <ele>593</ele>
        <time>2015-07-08T15:02:43Z</time>
      </trkpt>
      <trkpt lat="46.15118" lon="4.45694">
        <ele>593</ele>
        <time>2015-07-08T15:02:46Z</time>
      </trkpt>
      <trkpt lat="46.15111" lon="4.457">
        <ele>592</ele>
        <time>2015-07-08T15:02:54Z</time>
      </trkpt>
      <trkpt lat="46.15107" lon="4.457">
        <ele>592</ele>
        <time>2015-07-08T15:02:56Z</time>
      </trkpt>
      <trkpt lat="46.15101" lon="4.45703">
        <ele>591</ele>
        <time>2015-07-08T15:03:08Z</time>
      </trkpt>
      <trkpt lat="46.1509" lon="4.45712">
        <ele>590</ele>
        <time>2015-07-08T15:03:19Z</time>
      </trkpt>
      <trkpt lat="46.15085" lon="4.45711">
        <ele>590</ele>
        <time>2015-07-08T15:03:22Z</time>
      </trkpt>
      <trkpt lat="46.15068" lon="4.45722">
        <ele>588</ele>
        <time>2015-07-08T15:03:42Z</time>
      </trkpt>
      <trkpt lat="46.15061" lon="4.45725">
        <ele>588</ele>
        <time>2015-07-08T15:03:48Z</time>
      </trkpt>
      <trkpt lat="46.15057" lon="4.45729">
        <ele>588</ele>
        <time>2015-07-08T15:03:52Z</time>
      </trkpt>
      <trkpt lat="46.15051" lon="4.45731">
        <ele>588</ele>
        <time>2015-07-08T15:03:58Z</time>
      </trkpt>
      <trkpt lat="46.15042" lon="4.45737">
        <ele>588</ele>
        <time>2015-07-08T15:04:07Z</time>
      </trkpt>
      <trkpt lat="46.15028" lon="4.45742">
        <ele>589</ele>
        <time>2015-07-08T15:04:17Z</time>
      </trkpt>
      <trkpt lat="46.15019" lon="4.45751">
        <ele>587</ele>
        <time>2015-07-08T15:05:09Z</time>
      </trkpt>
      <trkpt lat="46.15015" lon="4.45753">
        <ele>586</ele>
        <time>2015-07-08T15:05:13Z</time>
      </trkpt>
      <trkpt lat="46.15004" lon="4.45765">
        <ele>584</ele>
        <time>2015-07-08T15:05:22Z</time>
      </trkpt>
      <trkpt lat="46.14999" lon="4.45765">
        <ele>584</ele>
        <time>2015-07-08T15:05:31Z</time>
      </trkpt>
      <trkpt lat="46.14983" lon="4.45774">
        <ele>581</ele>
        <time>2015-07-08T15:05:45Z</time>
      </trkpt>
      <trkpt lat="46.14978" lon="4.45778">
        <ele>581</ele>
        <time>2015-07-08T15:05:49Z</time>
      </trkpt>
      <trkpt lat="46.14973" lon="4.45779">
        <ele>581</ele>
        <time>2015-07-08T15:05:53Z</time>
      </trkpt>
      <trkpt lat="46.14958" lon="4.45778">
        <ele>583</ele>
        <time>2015-07-08T15:06:05Z</time>
      </trkpt>
      <trkpt lat="46.14951" lon="4.45787">
        <ele>584</ele>
        <time>2015-07-08T15:06:15Z</time>
      </trkpt>
      <trkpt lat="46.14948" lon="4.45789">
        <ele>584</ele>
        <time>2015-07-08T15:06:17Z</time>
      </trkpt>
      <trkpt lat="46.14941" lon="4.45793">
        <ele>583</ele>
        <time>2015-07-08T15:06:22Z</time>
      </trkpt>
      <trkpt lat="46.14938" lon="4.45796">
        <ele>583</ele>
        <time>2015-07-08T15:06:24Z</time>
      </trkpt>
      <trkpt lat="46.14932" lon="4.45793">
        <ele>583</ele>
        <time>2015-07-08T15:06:31Z</time>
      </trkpt>
      <trkpt lat="46.1492" lon="4.45797">
        <ele>583</ele>
        <time>2015-07-08T15:06:42Z</time>
      </trkpt>
      <trkpt lat="46.14915" lon="4.45795">
        <ele>582</ele>
        <time>2015-07-08T15:06:48Z</time>
      </trkpt>
      <trkpt lat="46.14907" lon="4.45777">
        <ele>581</ele>
        <time>2015-07-08T15:07:05Z</time>
      </trkpt>
      <trkpt lat="46.14907" lon="4.45773">
        <ele>580</ele>
        <time>2015-07-08T15:07:12Z</time>
      </trkpt>
      <trkpt lat="46.14903" lon="4.4577">
        <ele>579</ele>
        <time>2015-07-08T15:07:25Z</time>
      </trkpt>
      <trkpt lat="46.149" lon="4.45764">
        <ele>579</ele>
        <time>2015-07-08T15:07:30Z</time>
      </trkpt>
      <trkpt lat="46.14899" lon="4.45758">
        <ele>579</ele>
        <time>2015-07-08T15:07:37Z</time>
      </trkpt>
      <trkpt lat="46.14889" lon="4.45753">
        <ele>578</ele>
        <time>2015-07-08T15:07:46Z</time>
      </trkpt>
      <trkpt lat="46.14887" lon="4.45751">
        <ele>578</ele>
        <time>2015-07-08T15:07:48Z</time>
      </trkpt>
      <trkpt lat="46.14881" lon="4.45749">
        <ele>578</ele>
        <time>2015-07-08T15:07:52Z</time>
      </trkpt>
      <trkpt lat="46.14877" lon="4.45755">
        <ele>578</ele>
        <time>2015-07-08T15:08:12Z</time>
      </trkpt>
      <trkpt lat="46.14875" lon="4.45769">
        <ele>577</ele>
        <time>2015-07-08T15:08:19Z</time>
      </trkpt>
      <trkpt lat="46.14872" lon="4.45775">
        <ele>577</ele>
        <time>2015-07-08T15:08:22Z</time>
      </trkpt>
      <trkpt lat="46.1487" lon="4.45768">
        <ele>577</ele>
        <time>2015-07-08T15:08:38Z</time>
      </trkpt>
      <trkpt lat="46.14864" lon="4.45748">
        <ele>581</ele>
        <time>2015-07-08T15:08:52Z</time>
      </trkpt>
      <trkpt lat="46.1486" lon="4.45744">
        <ele>581</ele>
        <time>2015-07-08T15:08:57Z</time>
      </trkpt>
      <trkpt lat="46.14855" lon="4.45742">
        <ele>581</ele>
        <time>2015-07-08T15:09:03Z</time>
      </trkpt>
      <trkpt lat="46.14839" lon="4.45739">
        <ele>579</ele>
        <time>2015-07-08T15:09:17Z</time>
      </trkpt>
      <trkpt lat="46.14835" lon="4.45739">
        <ele>578</ele>
        <time>2015-07-08T15:09:24Z</time>
      </trkpt>
      <trkpt lat="46.14833" lon="4.45733">
        <ele>577</ele>
        <time>2015-07-08T15:09:32Z</time>
      </trkpt>
      <trkpt lat="46.14836" lon="4.45727">
        <ele>577</ele>
        <time>2015-07-08T15:09:37Z</time>
      </trkpt>
      <trkpt lat="46.14835" lon="4.4572">
        <ele>577</ele>
        <time>2015-07-08T15:09:42Z</time>
      </trkpt>
      <trkpt lat="46.14832" lon="4.45713">
        <ele>577</ele>
        <time>2015-07-08T15:09:54Z</time>
      </trkpt>
      <trkpt lat="46.1483" lon="4.45692">
        <ele>577</ele>
        <time>2015-07-08T15:10:09Z</time>
      </trkpt>
      <trkpt lat="46.14823" lon="4.4568">
        <ele>576</ele>
        <time>2015-07-08T15:10:19Z</time>
      </trkpt>
      <trkpt lat="46.1482" lon="4.45685">
        <ele>577</ele>
        <time>2015-07-08T15:11:00Z</time>
      </trkpt>
      <trkpt lat="46.14824" lon="4.45692">
        <ele>577</ele>
        <time>2015-07-08T15:11:09Z</time>
      </trkpt>
      <trkpt lat="46.14831" lon="4.45695">
        <ele>578</ele>
        <time>2015-07-08T15:11:22Z</time>
      </trkpt>
      <trkpt lat="46.14826" lon="4.45687">
        <ele>578</ele>
        <time>2015-07-08T15:11:52Z</time>
      </trkpt>
      <trkpt lat="46.14817" lon="4.45674">
        <ele>577</ele>
        <time>2015-07-08T15:12:08Z</time>
      </trkpt>
      <trkpt lat="46.14801" lon="4.45672">
        <ele>580</ele>
        <time>2015-07-08T15:12:19Z</time>
      </trkpt>
      <trkpt lat="46.14794" lon="4.45693">
        <ele>576</ele>
        <time>2015-07-08T15:13:01Z</time>
      </trkpt>
      <trkpt lat="46.14796" lon="4.457">
        <ele>575</ele>
        <time>2015-07-08T15:13:21Z</time>
      </trkpt>
      <trkpt lat="46.14798" lon="4.457">
        <ele>576</ele>
        <time>2015-07-08T15:15:23Z</time>
      </trkpt>
      <trkpt lat="46.14877" lon="4.4576">
        <ele>580</ele>
        <time>2015-07-09T07:06:31Z</time>
      </trkpt>
      <trkpt lat="46.14868" lon="4.45754">
        <ele>580</ele>
        <time>2015-07-09T07:06:42Z</time>
      </trkpt>
      <trkpt lat="46.14864" lon="4.45741">
        <ele>581</ele>
        <time>2015-07-09T07:06:52Z</time>
      </trkpt>
      <trkpt lat="46.14857" lon="4.45692">
        <ele>580</ele>
        <time>2015-07-09T07:07:21Z</time>
      </trkpt>
      <trkpt lat="46.14853" lon="4.45687">
        <ele>580</ele>
        <time>2015-07-09T07:07:25Z</time>
      </trkpt>
      <trkpt lat="46.14838" lon="4.45682">
        <ele>579</ele>
        <time>2015-07-09T07:07:34Z</time>
      </trkpt>
      <trkpt lat="46.14829" lon="4.45663">
        <ele>579</ele>
        <time>2015-07-09T07:07:46Z</time>
      </trkpt>
      <trkpt lat="46.14831" lon="4.45657">
        <ele>579</ele>
        <time>2015-07-09T07:07:50Z</time>
      </trkpt>
      <trkpt lat="46.14835" lon="4.45652">
        <ele>579</ele>
        <time>2015-07-09T07:07:54Z</time>
      </trkpt>
      <trkpt lat="46.1484" lon="4.45649">
        <ele>578</ele>
        <time>2015-07-09T07:07:58Z</time>
      </trkpt>
      <trkpt lat="46.14844" lon="4.45645">
        <ele>578</ele>
        <time>2015-07-09T07:08:01Z</time>
      </trkpt>
      <trkpt lat="46.14846" lon="4.45638">
        <ele>578</ele>
        <time>2015-07-09T07:08:04Z</time>
      </trkpt>
      <trkpt lat="46.1485" lon="4.45633">
        <ele>578</ele>
        <time>2015-07-09T07:08:08Z</time>
      </trkpt>
      <trkpt lat="46.14863" lon="4.45581">
        <ele>576</ele>
        <time>2015-07-09T07:08:45Z</time>
      </trkpt>
      <trkpt lat="46.14868" lon="4.45581">
        <ele>576</ele>
        <time>2015-07-09T07:08:49Z</time>
      </trkpt>
      <trkpt lat="46.14873" lon="4.45584">
        <ele>575</ele>
        <time>2015-07-09T07:08:53Z</time>
      </trkpt>
      <trkpt lat="46.14886" lon="4.45579">
        <ele>575</ele>
        <time>2015-07-09T07:09:05Z</time>
      </trkpt>
      <trkpt lat="46.14896" lon="4.45578">
        <ele>575</ele>
        <time>2015-07-09T07:09:13Z</time>
      </trkpt>
      <trkpt lat="46.14898" lon="4.45572">
        <ele>575</ele>
        <time>2015-07-09T07:09:18Z</time>
      </trkpt>
      <trkpt lat="46.14896" lon="4.45565">
        <ele>574</ele>
        <time>2015-07-09T07:09:22Z</time>
      </trkpt>
      <trkpt lat="46.1489" lon="4.45553">
        <ele>573</ele>
        <time>2015-07-09T07:09:30Z</time>
      </trkpt>
      <trkpt lat="46.1489" lon="4.45545">
        <ele>572</ele>
        <time>2015-07-09T07:09:35Z</time>
      </trkpt>
      <trkpt lat="46.14898" lon="4.45496">
        <ele>567</ele>
        <time>2015-07-09T07:10:05Z</time>
      </trkpt>
      <trkpt lat="46.1491" lon="4.45459">
        <ele>564</ele>
        <time>2015-07-09T07:10:29Z</time>
      </trkpt>
      <trkpt lat="46.14915" lon="4.45456">
        <ele>563</ele>
        <time>2015-07-09T07:10:38Z</time>
      </trkpt>
      <trkpt lat="46.14918" lon="4.45453">
        <ele>563</ele>
        <time>2015-07-09T07:11:00Z</time>
      </trkpt>
      <trkpt lat="46.14923" lon="4.45439">
        <ele>562</ele>
        <time>2015-07-09T07:11:09Z</time>
      </trkpt>
      <trkpt lat="46.14927" lon="4.45427">
        <ele>561</ele>
        <time>2015-07-09T07:11:20Z</time>
      </trkpt>
      <trkpt lat="46.14934" lon="4.45374">
        <ele>560</ele>
        <time>2015-07-09T07:11:58Z</time>
      </trkpt>
      <trkpt lat="46.1493" lon="4.45284">
        <ele>559</ele>
        <time>2015-07-09T07:12:50Z</time>
      </trkpt>
      <trkpt lat="46.14932" lon="4.45262">
        <ele>558</ele>
        <time>2015-07-09T07:13:02Z</time>
      </trkpt>
      <trkpt lat="46.14932" lon="4.45255">
        <ele>558</ele>
        <time>2015-07-09T07:13:07Z</time>
      </trkpt>
      <trkpt lat="46.1494" lon="4.45213">
        <ele>559</ele>
        <time>2015-07-09T07:13:38Z</time>
      </trkpt>
      <trkpt lat="46.14946" lon="4.45192">
        <ele>559</ele>
        <time>2015-07-09T07:13:53Z</time>
      </trkpt>
      <trkpt lat="46.14946" lon="4.45185">
        <ele>559</ele>
        <time>2015-07-09T07:14:01Z</time>
      </trkpt>
      <trkpt lat="46.14939" lon="4.45162">
        <ele>559</ele>
        <time>2015-07-09T07:14:16Z</time>
      </trkpt>
      <trkpt lat="46.14936" lon="4.45126">
        <ele>564</ele>
        <time>2015-07-09T07:14:55Z</time>
      </trkpt>
      <trkpt lat="46.14943" lon="4.45104">
        <ele>569</ele>
        <time>2015-07-09T07:15:24Z</time>
      </trkpt>
      <trkpt lat="46.14947" lon="4.45101">
        <ele>570</ele>
        <time>2015-07-09T07:16:32Z</time>
      </trkpt>
      <trkpt lat="46.14953" lon="4.45102">
        <ele>570</ele>
        <time>2015-07-09T07:16:37Z</time>
      </trkpt>
      <trkpt lat="46.14958" lon="4.45104">
        <ele>571</ele>
        <time>2015-07-09T07:16:41Z</time>
      </trkpt>
      <trkpt lat="46.14962" lon="4.45107">
        <ele>570</ele>
        <time>2015-07-09T07:16:45Z</time>
      </trkpt>
      <trkpt lat="46.14966" lon="4.4511">
        <ele>570</ele>
        <time>2015-07-09T07:16:49Z</time>
      </trkpt>
      <trkpt lat="46.14981" lon="4.45113">
        <ele>571</ele>
        <time>2015-07-09T07:17:03Z</time>
      </trkpt>
      <trkpt lat="46.14985" lon="4.45115">
        <ele>571</ele>
        <time>2015-07-09T07:17:06Z</time>
      </trkpt>
      <trkpt lat="46.15001" lon="4.45123">
        <ele>573</ele>
        <time>2015-07-09T07:17:19Z</time>
      </trkpt>
      <trkpt lat="46.1501" lon="4.4513">
        <ele>573</ele>
        <time>2015-07-09T07:17:27Z</time>
      </trkpt>
      <trkpt lat="46.15015" lon="4.45133">
        <ele>573</ele>
        <time>2015-07-09T07:17:31Z</time>
      </trkpt>
      <trkpt lat="46.1502" lon="4.45136">
        <ele>572</ele>
        <time>2015-07-09T07:17:35Z</time>
      </trkpt>
      <trkpt lat="46.1503" lon="4.45139">
        <ele>572</ele>
        <time>2015-07-09T07:17:43Z</time>
      </trkpt>
      <trkpt lat="46.15034" lon="4.45142">
        <ele>572</ele>
        <time>2015-07-09T07:17:47Z</time>
      </trkpt>
      <trkpt lat="46.15039" lon="4.45143">
        <ele>571</ele>
        <time>2015-07-09T07:17:51Z</time>
      </trkpt>
      <trkpt lat="46.15059" lon="4.45139">
        <ele>571</ele>
        <time>2015-07-09T07:18:09Z</time>
      </trkpt>
      <trkpt lat="46.15059" lon="4.45136">
        <ele>572</ele>
        <time>2015-07-09T07:18:40Z</time>
      </trkpt>
      <trkpt lat="46.15089" lon="4.45105">
        <ele>575</ele>
        <time>2015-07-09T07:19:23Z</time>
      </trkpt>
      <trkpt lat="46.15094" lon="4.45102">
        <ele>575</ele>
        <time>2015-07-09T07:19:27Z</time>
      </trkpt>
      <trkpt lat="46.15096" lon="4.45096">
        <ele>575</ele>
        <time>2015-07-09T07:19:31Z</time>
      </trkpt>
      <trkpt lat="46.15095" lon="4.4509">
        <ele>575</ele>
        <time>2015-07-09T07:19:36Z</time>
      </trkpt>
      <trkpt lat="46.1509" lon="4.45088">
        <ele>576</ele>
        <time>2015-07-09T07:19:42Z</time>
      </trkpt>
      <trkpt lat="46.15065" lon="4.45067">
        <ele>579</ele>
        <time>2015-07-09T07:20:12Z</time>
      </trkpt>
      <trkpt lat="46.15057" lon="4.45059">
        <ele>580</ele>
        <time>2015-07-09T07:20:21Z</time>
      </trkpt>
      <trkpt lat="46.15053" lon="4.45053">
        <ele>580</ele>
        <time>2015-07-09T07:20:26Z</time>
      </trkpt>
      <trkpt lat="46.15046" lon="4.45032">
        <ele>580</ele>
        <time>2015-07-09T07:20:43Z</time>
      </trkpt>
      <trkpt lat="46.15045" lon="4.45004">
        <ele>585</ele>
        <time>2015-07-09T07:21:01Z</time>
      </trkpt>
      <trkpt lat="46.15045" lon="4.44991">
        <ele>585</ele>
        <time>2015-07-09T07:21:13Z</time>
      </trkpt>
      <trkpt lat="46.15043" lon="4.44962">
        <ele>587</ele>
        <time>2015-07-09T07:21:31Z</time>
      </trkpt>
      <trkpt lat="46.15042" lon="4.44955">
        <ele>587</ele>
        <time>2015-07-09T07:21:36Z</time>
      </trkpt>
      <trkpt lat="46.15018" lon="4.44882">
        <ele>588</ele>
        <time>2015-07-09T07:22:31Z</time>
      </trkpt>
      <trkpt lat="46.15011" lon="4.44823">
        <ele>590</ele>
        <time>2015-07-09T07:23:11Z</time>
      </trkpt>
      <trkpt lat="46.15009" lon="4.44816">
        <ele>590</ele>
        <time>2015-07-09T07:23:15Z</time>
      </trkpt>
      <trkpt lat="46.15011" lon="4.44802">
        <ele>590</ele>
        <time>2015-07-09T07:23:24Z</time>
      </trkpt>
      <trkpt lat="46.15008" lon="4.44788">
        <ele>591</ele>
        <time>2015-07-09T07:23:32Z</time>
      </trkpt>
      <trkpt lat="46.14997" lon="4.4468">
        <ele>597</ele>
        <time>2015-07-09T07:24:33Z</time>
      </trkpt>
      <trkpt lat="46.14992" lon="4.4466">
        <ele>597</ele>
        <time>2015-07-09T07:24:46Z</time>
      </trkpt>
      <trkpt lat="46.14989" lon="4.44626">
        <ele>596</ele>
        <time>2015-07-09T07:25:13Z</time>
      </trkpt>
      <trkpt lat="46.14986" lon="4.44619">
        <ele>597</ele>
        <time>2015-07-09T07:25:39Z</time>
      </trkpt>
      <trkpt lat="46.14987" lon="4.44613">
        <ele>598</ele>
        <time>2015-07-09T07:26:59Z</time>
      </trkpt>
      <trkpt lat="46.14986" lon="4.44607">
        <ele>598</ele>
        <time>2015-07-09T07:27:03Z</time>
      </trkpt>
      <trkpt lat="46.14979" lon="4.44591">
        <ele>598</ele>
        <time>2015-07-09T07:27:12Z</time>
      </trkpt>
      <trkpt lat="46.14947" lon="4.44483">
        <ele>593</ele>
        <time>2015-07-09T07:28:19Z</time>
      </trkpt>
      <trkpt lat="46.14944" lon="4.44477">
        <ele>593</ele>
        <time>2015-07-09T07:28:24Z</time>
      </trkpt>
      <trkpt lat="46.14928" lon="4.44447">
        <ele>596</ele>
        <time>2015-07-09T07:28:45Z</time>
      </trkpt>
      <trkpt lat="46.14925" lon="4.44444">
        <ele>598</ele>
        <time>2015-07-09T07:28:53Z</time>
      </trkpt>
      <trkpt lat="46.1492" lon="4.44443">
        <ele>598</ele>
        <time>2015-07-09T07:28:58Z</time>
      </trkpt>
      <trkpt lat="46.14897" lon="4.44426">
        <ele>601</ele>
        <time>2015-07-09T07:29:19Z</time>
      </trkpt>
      <trkpt lat="46.14893" lon="4.44423">
        <ele>601</ele>
        <time>2015-07-09T07:29:23Z</time>
      </trkpt>
      <trkpt lat="46.14885" lon="4.44413">
        <ele>600</ele>
        <time>2015-07-09T07:29:34Z</time>
      </trkpt>
      <trkpt lat="46.14875" lon="4.44407">
        <ele>599</ele>
        <time>2015-07-09T07:29:42Z</time>
      </trkpt>
      <trkpt lat="46.14862" lon="4.44397">
        <ele>601</ele>
        <time>2015-07-09T07:29:55Z</time>
      </trkpt>
      <trkpt lat="46.14853" lon="4.44391">
        <ele>600</ele>
        <time>2015-07-09T07:30:03Z</time>
      </trkpt>
      <trkpt lat="46.14848" lon="4.44389">
        <ele>601</ele>
        <time>2015-07-09T07:30:09Z</time>
      </trkpt>
      <trkpt lat="46.14843" lon="4.44387">
        <ele>600</ele>
        <time>2015-07-09T07:30:15Z</time>
      </trkpt>
      <trkpt lat="46.14836" lon="4.44389">
        <ele>600</ele>
        <time>2015-07-09T07:30:19Z</time>
      </trkpt>
      <trkpt lat="46.14831" lon="4.44391">
        <ele>600</ele>
        <time>2015-07-09T07:30:27Z</time>
      </trkpt>
      <trkpt lat="46.14828" lon="4.4439">
        <ele>601</ele>
        <time>2015-07-09T07:30:34Z</time>
      </trkpt>
      <trkpt lat="46.14825" lon="4.44388">
        <ele>602</ele>
        <time>2015-07-09T07:30:44Z</time>
      </trkpt>
      <trkpt lat="46.14812" lon="4.44376">
        <ele>603</ele>
        <time>2015-07-09T07:30:54Z</time>
      </trkpt>
      <trkpt lat="46.14809" lon="4.44374">
        <ele>604</ele>
        <time>2015-07-09T07:31:01Z</time>
      </trkpt>
      <trkpt lat="46.14796" lon="4.44363">
        <ele>606</ele>
        <time>2015-07-09T07:31:15Z</time>
      </trkpt>
      <trkpt lat="46.14784" lon="4.44348">
        <ele>607</ele>
        <time>2015-07-09T07:31:28Z</time>
      </trkpt>
      <trkpt lat="46.14763" lon="4.44308">
        <ele>610</ele>
        <time>2015-07-09T07:31:59Z</time>
      </trkpt>
      <trkpt lat="46.14748" lon="4.44263">
        <ele>609</ele>
        <time>2015-07-09T07:32:27Z</time>
      </trkpt>
      <trkpt lat="46.14723" lon="4.44216">
        <ele>602</ele>
        <time>2015-07-09T07:33:04Z</time>
      </trkpt>
      <trkpt lat="46.14675" lon="4.44096">
        <ele>595</ele>
        <time>2015-07-09T07:34:32Z</time>
      </trkpt>
      <trkpt lat="46.14672" lon="4.4409">
        <ele>595</ele>
        <time>2015-07-09T07:34:37Z</time>
      </trkpt>
      <trkpt lat="46.1466" lon="4.44076">
        <ele>592</ele>
        <time>2015-07-09T07:34:51Z</time>
      </trkpt>
      <trkpt lat="46.14646" lon="4.44069">
        <ele>593</ele>
        <time>2015-07-09T07:35:02Z</time>
      </trkpt>
      <trkpt lat="46.14637" lon="4.44061">
        <ele>593</ele>
        <time>2015-07-09T07:35:13Z</time>
      </trkpt>
      <trkpt lat="46.14634" lon="4.44061">
        <ele>593</ele>
        <time>2015-07-09T07:35:15Z</time>
      </trkpt>
      <trkpt lat="46.14631" lon="4.4406">
        <ele>593</ele>
        <time>2015-07-09T07:35:17Z</time>
      </trkpt>
      <trkpt lat="46.14622" lon="4.4405">
        <ele>593</ele>
        <time>2015-07-09T07:35:29Z</time>
      </trkpt>
      <trkpt lat="46.14613" lon="4.44043">
        <ele>592</ele>
        <time>2015-07-09T07:35:38Z</time>
      </trkpt>
      <trkpt lat="46.1461" lon="4.44036">
        <ele>591</ele>
        <time>2015-07-09T07:35:43Z</time>
      </trkpt>
      <trkpt lat="46.14606" lon="4.44032">
        <ele>591</ele>
        <time>2015-07-09T07:35:47Z</time>
      </trkpt>
      <trkpt lat="46.14602" lon="4.44029">
        <ele>592</ele>
        <time>2015-07-09T07:35:51Z</time>
      </trkpt>
      <trkpt lat="46.146" lon="4.44025">
        <ele>593</ele>
        <time>2015-07-09T07:35:53Z</time>
      </trkpt>
      <trkpt lat="46.14579" lon="4.4392">
        <ele>598</ele>
        <time>2015-07-09T07:36:57Z</time>
      </trkpt>
      <trkpt lat="46.1458" lon="4.43912">
        <ele>598</ele>
        <time>2015-07-09T07:37:01Z</time>
      </trkpt>
      <trkpt lat="46.14577" lon="4.4389">
        <ele>598</ele>
        <time>2015-07-09T07:37:15Z</time>
      </trkpt>
      <trkpt lat="46.14569" lon="4.43868">
        <ele>600</ele>
        <time>2015-07-09T07:37:34Z</time>
      </trkpt>
      <trkpt lat="46.14558" lon="4.43855">
        <ele>599</ele>
        <time>2015-07-09T07:37:45Z</time>
      </trkpt>
      <trkpt lat="46.14554" lon="4.43842">
        <ele>599</ele>
        <time>2015-07-09T07:37:59Z</time>
      </trkpt>
      <trkpt lat="46.1452" lon="4.43804">
        <ele>606</ele>
        <time>2015-07-09T07:38:36Z</time>
      </trkpt>
      <trkpt lat="46.14497" lon="4.43759">
        <ele>610</ele>
        <time>2015-07-09T07:39:15Z</time>
      </trkpt>
      <trkpt lat="46.1449" lon="4.43681">
        <ele>621</ele>
        <time>2015-07-09T07:40:17Z</time>
      </trkpt>
      <trkpt lat="46.1449" lon="4.43662">
        <ele>624</ele>
        <time>2015-07-09T07:40:37Z</time>
      </trkpt>
      <trkpt lat="46.14487" lon="4.43655">
        <ele>624</ele>
        <time>2015-07-09T07:40:40Z</time>
      </trkpt>
      <trkpt lat="46.14487" lon="4.43648">
        <ele>625</ele>
        <time>2015-07-09T07:40:44Z</time>
      </trkpt>
      <trkpt lat="46.14489" lon="4.43641">
        <ele>625</ele>
        <time>2015-07-09T07:40:48Z</time>
      </trkpt>
      <trkpt lat="46.14498" lon="4.43592">
        <ele>628</ele>
        <time>2015-07-09T07:41:23Z</time>
      </trkpt>
      <trkpt lat="46.14499" lon="4.43585">
        <ele>628</ele>
        <time>2015-07-09T07:41:28Z</time>
      </trkpt>
      <trkpt lat="46.14497" lon="4.43578">
        <ele>629</ele>
        <time>2015-07-09T07:41:35Z</time>
      </trkpt>
      <trkpt lat="46.14509" lon="4.43539">
        <ele>633</ele>
        <time>2015-07-09T07:42:05Z</time>
      </trkpt>
      <trkpt lat="46.14508" lon="4.43516">
        <ele>634</ele>
        <time>2015-07-09T07:42:18Z</time>
      </trkpt>
      <trkpt lat="46.14505" lon="4.43515">
        <ele>639</ele>
        <time>2015-07-09T07:45:34Z</time>
      </trkpt>
      <trkpt lat="46.14501" lon="4.43521">
        <ele>640</ele>
        <time>2015-07-09T07:45:39Z</time>
      </trkpt>
      <trkpt lat="46.14489" lon="4.4353">
        <ele>642</ele>
        <time>2015-07-09T07:45:52Z</time>
      </trkpt>
      <trkpt lat="46.14449" lon="4.43523">
        <ele>643</ele>
        <time>2015-07-09T07:46:26Z</time>
      </trkpt>
      <trkpt lat="46.14436" lon="4.43512">
        <ele>645</ele>
        <time>2015-07-09T07:46:39Z</time>
      </trkpt>
      <trkpt lat="46.14421" lon="4.43493">
        <ele>645</ele>
        <time>2015-07-09T07:46:55Z</time>
      </trkpt>
      <trkpt lat="46.144" lon="4.43447">
        <ele>648</ele>
        <time>2015-07-09T07:47:27Z</time>
      </trkpt>
      <trkpt lat="46.14386" lon="4.43395">
        <ele>648</ele>
        <time>2015-07-09T07:48:00Z</time>
      </trkpt>
      <trkpt lat="46.14365" lon="4.43356">
        <ele>650</ele>
        <time>2015-07-09T07:48:30Z</time>
      </trkpt>
      <trkpt lat="46.14341" lon="4.43329">
        <ele>650</ele>
        <time>2015-07-09T07:48:56Z</time>
      </trkpt>
      <trkpt lat="46.14333" lon="4.43315">
        <ele>655</ele>
        <time>2015-07-09T07:49:26Z</time>
      </trkpt>
      <trkpt lat="46.14328" lon="4.43317">
        <ele>656</ele>
        <time>2015-07-09T07:49:42Z</time>
      </trkpt>
      <trkpt lat="46.14326" lon="4.43311">
        <ele>656</ele>
        <time>2015-07-09T07:49:49Z</time>
      </trkpt>
      <trkpt lat="46.14322" lon="4.43307">
        <ele>656</ele>
        <time>2015-07-09T07:50:02Z</time>
      </trkpt>
      <trkpt lat="46.14315" lon="4.43304">
        <ele>657</ele>
        <time>2015-07-09T07:50:13Z</time>
      </trkpt>
      <trkpt lat="46.14315" lon="4.43297">
        <ele>657</ele>
        <time>2015-07-09T07:50:18Z</time>
      </trkpt>
      <trkpt lat="46.14311" lon="4.43292">
        <ele>658</ele>
        <time>2015-07-09T07:50:24Z</time>
      </trkpt>
      <trkpt lat="46.14302" lon="4.43285">
        <ele>659</ele>
        <time>2015-07-09T07:50:33Z</time>
      </trkpt>
      <trkpt lat="46.14302" lon="4.43275">
        <ele>660</ele>
        <time>2015-07-09T07:50:43Z</time>
      </trkpt>
      <trkpt lat="46.14292" lon="4.43259">
        <ele>662</ele>
        <time>2015-07-09T07:50:58Z</time>
      </trkpt>
      <trkpt lat="46.1428" lon="4.43248">
        <ele>664</ele>
        <time>2015-07-09T07:51:15Z</time>
      </trkpt>
      <trkpt lat="46.14269" lon="4.43224">
        <ele>666</ele>
        <time>2015-07-09T07:51:34Z</time>
      </trkpt>
      <trkpt lat="46.14266" lon="4.4321">
        <ele>669</ele>
        <time>2015-07-09T07:51:47Z</time>
      </trkpt>
      <trkpt lat="46.14267" lon="4.43203">
        <ele>670</ele>
        <time>2015-07-09T07:51:57Z</time>
      </trkpt>
      <trkpt lat="46.14259" lon="4.43186">
        <ele>673</ele>
        <time>2015-07-09T07:52:17Z</time>
      </trkpt>
      <trkpt lat="46.14258" lon="4.43149">
        <ele>669</ele>
        <time>2015-07-09T07:52:44Z</time>
      </trkpt>
      <trkpt lat="46.14253" lon="4.43135">
        <ele>670</ele>
        <time>2015-07-09T07:52:53Z</time>
      </trkpt>
      <trkpt lat="46.14252" lon="4.43128">
        <ele>670</ele>
        <time>2015-07-09T07:52:58Z</time>
      </trkpt>
      <trkpt lat="46.14252" lon="4.43084">
        <ele>672</ele>
        <time>2015-07-09T07:53:26Z</time>
      </trkpt>
      <trkpt lat="46.14231" lon="4.42943">
        <ele>678</ele>
        <time>2015-07-09T07:55:00Z</time>
      </trkpt>
      <trkpt lat="46.14231" lon="4.42928">
        <ele>679</ele>
        <time>2015-07-09T07:55:12Z</time>
      </trkpt>
      <trkpt lat="46.14237" lon="4.42922">
        <ele>680</ele>
        <time>2015-07-09T07:55:27Z</time>
      </trkpt>
      <trkpt lat="46.14236" lon="4.42908">
        <ele>680</ele>
        <time>2015-07-09T07:55:42Z</time>
      </trkpt>
      <trkpt lat="46.14231" lon="4.42902">
        <ele>681</ele>
        <time>2015-07-09T07:56:13Z</time>
      </trkpt>
      <trkpt lat="46.14229" lon="4.42876">
        <ele>677</ele>
        <time>2015-07-09T07:57:31Z</time>
      </trkpt>
      <trkpt lat="46.14226" lon="4.42863">
        <ele>677</ele>
        <time>2015-07-09T07:57:39Z</time>
      </trkpt>
      <trkpt lat="46.14228" lon="4.42839">
        <ele>682</ele>
        <time>2015-07-09T07:59:01Z</time>
      </trkpt>
      <trkpt lat="46.14224" lon="4.42826">
        <ele>682</ele>
        <time>2015-07-09T07:59:10Z</time>
      </trkpt>
      <trkpt lat="46.14219" lon="4.42787">
        <ele>681</ele>
        <time>2015-07-09T07:59:44Z</time>
      </trkpt>
      <trkpt lat="46.14209" lon="4.42753">
        <ele>692</ele>
        <time>2015-07-09T08:00:24Z</time>
      </trkpt>
      <trkpt lat="46.14208" lon="4.4274">
        <ele>696</ele>
        <time>2015-07-09T08:00:37Z</time>
      </trkpt>
      <trkpt lat="46.14204" lon="4.42727">
        <ele>699</ele>
        <time>2015-07-09T08:00:49Z</time>
      </trkpt>
      <trkpt lat="46.14195" lon="4.42723">
        <ele>701</ele>
        <time>2015-07-09T08:01:05Z</time>
      </trkpt>
      <trkpt lat="46.14189" lon="4.42712">
        <ele>703</ele>
        <time>2015-07-09T08:01:14Z</time>
      </trkpt>
      <trkpt lat="46.14182" lon="4.42704">
        <ele>704</ele>
        <time>2015-07-09T08:01:26Z</time>
      </trkpt>
      <trkpt lat="46.14176" lon="4.42693">
        <ele>705</ele>
        <time>2015-07-09T08:01:38Z</time>
      </trkpt>
      <trkpt lat="46.14169" lon="4.42689">
        <ele>706</ele>
        <time>2015-07-09T08:01:55Z</time>
      </trkpt>
      <trkpt lat="46.14137" lon="4.42621">
        <ele>718</ele>
        <time>2015-07-09T08:06:42Z</time>
      </trkpt>
      <trkpt lat="46.14133" lon="4.42616">
        <ele>717</ele>
        <time>2015-07-09T08:06:47Z</time>
      </trkpt>
      <trkpt lat="46.14131" lon="4.42608">
        <ele>718</ele>
        <time>2015-07-09T08:07:20Z</time>
      </trkpt>
      <trkpt lat="46.14129" lon="4.42603">
        <ele>718</ele>
        <time>2015-07-09T08:07:30Z</time>
      </trkpt>
      <trkpt lat="46.1413" lon="4.42594">
        <ele>720</ele>
        <time>2015-07-09T08:07:41Z</time>
      </trkpt>
      <trkpt lat="46.14127" lon="4.4257">
        <ele>721</ele>
        <time>2015-07-09T08:08:05Z</time>
      </trkpt>
      <trkpt lat="46.14127" lon="4.42563">
        <ele>721</ele>
        <time>2015-07-09T08:08:09Z</time>
      </trkpt>
      <trkpt lat="46.14131" lon="4.42535">
        <ele>722</ele>
        <time>2015-07-09T08:08:25Z</time>
      </trkpt>
      <trkpt lat="46.14131" lon="4.42527">
        <ele>721</ele>
        <time>2015-07-09T08:08:29Z</time>
      </trkpt>
      <trkpt lat="46.14132" lon="4.42521">
        <ele>721</ele>
        <time>2015-07-09T08:08:33Z</time>
      </trkpt>
      <trkpt lat="46.14135" lon="4.42515">
        <ele>722</ele>
        <time>2015-07-09T08:08:38Z</time>
      </trkpt>
      <trkpt lat="46.14136" lon="4.42507">
        <ele>722</ele>
        <time>2015-07-09T08:08:42Z</time>
      </trkpt>
      <trkpt lat="46.14141" lon="4.42503">
        <ele>723</ele>
        <time>2015-07-09T08:08:49Z</time>
      </trkpt>
      <trkpt lat="46.14153" lon="4.4248">
        <ele>725</ele>
        <time>2015-07-09T08:09:09Z</time>
      </trkpt>
      <trkpt lat="46.14158" lon="4.42444">
        <ele>728</ele>
        <time>2015-07-09T08:09:37Z</time>
      </trkpt>
      <trkpt lat="46.1416" lon="4.42438">
        <ele>728</ele>
        <time>2015-07-09T08:09:41Z</time>
      </trkpt>
      <trkpt lat="46.14159" lon="4.42431">
        <ele>728</ele>
        <time>2015-07-09T08:09:45Z</time>
      </trkpt>
      <trkpt lat="46.14163" lon="4.42377">
        <ele>732</ele>
        <time>2015-07-09T08:10:23Z</time>
      </trkpt>
      <trkpt lat="46.14159" lon="4.42364">
        <ele>734</ele>
        <time>2015-07-09T08:10:32Z</time>
      </trkpt>
      <trkpt lat="46.14156" lon="4.42359">
        <ele>734</ele>
        <time>2015-07-09T08:10:36Z</time>
      </trkpt>
      <trkpt lat="46.14156" lon="4.42351">
        <ele>735</ele>
        <time>2015-07-09T08:10:44Z</time>
      </trkpt>
      <trkpt lat="46.14156" lon="4.42344">
        <ele>735</ele>
        <time>2015-07-09T08:10:47Z</time>
      </trkpt>
      <trkpt lat="46.14156" lon="4.42337">
        <ele>736</ele>
        <time>2015-07-09T08:10:51Z</time>
      </trkpt>
      <trkpt lat="46.14141" lon="4.42306">
        <ele>739</ele>
        <time>2015-07-09T08:11:12Z</time>
      </trkpt>
      <trkpt lat="46.14142" lon="4.42299">
        <ele>739</ele>
        <time>2015-07-09T08:11:15Z</time>
      </trkpt>
      <trkpt lat="46.14144" lon="4.42291">
        <ele>740</ele>
        <time>2015-07-09T08:11:20Z</time>
      </trkpt>
      <trkpt lat="46.14144" lon="4.42283">
        <ele>740</ele>
        <time>2015-07-09T08:11:23Z</time>
      </trkpt>
      <trkpt lat="46.14142" lon="4.42276">
        <ele>740</ele>
        <time>2015-07-09T08:11:28Z</time>
      </trkpt>
      <trkpt lat="46.14148" lon="4.42252">
        <ele>741</ele>
        <time>2015-07-09T08:11:44Z</time>
      </trkpt>
      <trkpt lat="46.14151" lon="4.42249">
        <ele>742</ele>
        <time>2015-07-09T08:11:51Z</time>
      </trkpt>
      <trkpt lat="46.14148" lon="4.42243">
        <ele>743</ele>
        <time>2015-07-09T08:12:09Z</time>
      </trkpt>
      <trkpt lat="46.1415" lon="4.42237">
        <ele>743</ele>
        <time>2015-07-09T08:12:14Z</time>
      </trkpt>
      <trkpt lat="46.14159" lon="4.42219">
        <ele>745</ele>
        <time>2015-07-09T08:12:29Z</time>
      </trkpt>
      <trkpt lat="46.14168" lon="4.42213">
        <ele>746</ele>
        <time>2015-07-09T08:12:38Z</time>
      </trkpt>
      <trkpt lat="46.14184" lon="4.42182">
        <ele>750</ele>
        <time>2015-07-09T08:13:11Z</time>
      </trkpt>
      <trkpt lat="46.14206" lon="4.42151">
        <ele>754</ele>
        <time>2015-07-09T08:13:43Z</time>
      </trkpt>
      <trkpt lat="46.14207" lon="4.42144">
        <ele>755</ele>
        <time>2015-07-09T08:13:49Z</time>
      </trkpt>
      <trkpt lat="46.14202" lon="4.42138">
        <ele>756</ele>
        <time>2015-07-09T08:16:10Z</time>
      </trkpt>
      <trkpt lat="46.14182" lon="4.42095">
        <ele>765</ele>
        <time>2015-07-09T08:16:42Z</time>
      </trkpt>
      <trkpt lat="46.1418" lon="4.42089">
        <ele>766</ele>
        <time>2015-07-09T08:16:46Z</time>
      </trkpt>
      <trkpt lat="46.14173" lon="4.42069">
        <ele>766</ele>
        <time>2015-07-09T08:17:03Z</time>
      </trkpt>
      <trkpt lat="46.1417" lon="4.42064">
        <ele>765</ele>
        <time>2015-07-09T08:17:08Z</time>
      </trkpt>
      <trkpt lat="46.14161" lon="4.42036">
        <ele>764</ele>
        <time>2015-07-09T08:17:25Z</time>
      </trkpt>
      <trkpt lat="46.14149" lon="4.41974">
        <ele>766</ele>
        <time>2015-07-09T08:18:04Z</time>
      </trkpt>
      <trkpt lat="46.14153" lon="4.41954">
        <ele>767</ele>
        <time>2015-07-09T08:18:17Z</time>
      </trkpt>
      <trkpt lat="46.14142" lon="4.41902">
        <ele>770</ele>
        <time>2015-07-09T08:18:50Z</time>
      </trkpt>
      <trkpt lat="46.14143" lon="4.41896">
        <ele>771</ele>
        <time>2015-07-09T08:18:54Z</time>
      </trkpt>
      <trkpt lat="46.14142" lon="4.41888">
        <ele>772</ele>
        <time>2015-07-09T08:18:58Z</time>
      </trkpt>
      <trkpt lat="46.14144" lon="4.41873">
        <ele>772</ele>
        <time>2015-07-09T08:19:06Z</time>
      </trkpt>
      <trkpt lat="46.14142" lon="4.4186">
        <ele>772</ele>
        <time>2015-07-09T08:19:14Z</time>
      </trkpt>
      <trkpt lat="46.14146" lon="4.41835">
        <ele>769</ele>
        <time>2015-07-09T08:19:32Z</time>
      </trkpt>
      <trkpt lat="46.14153" lon="4.41808">
        <ele>769</ele>
        <time>2015-07-09T08:19:51Z</time>
      </trkpt>
      <trkpt lat="46.1415" lon="4.41795">
        <ele>770</ele>
        <time>2015-07-09T08:20:00Z</time>
      </trkpt>
      <trkpt lat="46.14153" lon="4.41744">
        <ele>772</ele>
        <time>2015-07-09T08:20:32Z</time>
      </trkpt>
      <trkpt lat="46.14135" lon="4.41701">
        <ele>774</ele>
        <time>2015-07-09T08:20:59Z</time>
      </trkpt>
      <trkpt lat="46.14119" lon="4.41684">
        <ele>775</ele>
        <time>2015-07-09T08:21:12Z</time>
      </trkpt>
      <trkpt lat="46.14088" lon="4.41659">
        <ele>778</ele>
        <time>2015-07-09T08:21:44Z</time>
      </trkpt>
      <trkpt lat="46.14082" lon="4.41657">
        <ele>778</ele>
        <time>2015-07-09T08:21:49Z</time>
      </trkpt>
      <trkpt lat="46.14074" lon="4.41658">
        <ele>778</ele>
        <time>2015-07-09T08:21:55Z</time>
      </trkpt>
      <trkpt lat="46.14071" lon="4.41654">
        <ele>778</ele>
        <time>2015-07-09T08:22:01Z</time>
      </trkpt>
      <trkpt lat="46.14066" lon="4.41655">
        <ele>779</ele>
        <time>2015-07-09T08:22:05Z</time>
      </trkpt>
      <trkpt lat="46.14062" lon="4.41654">
        <ele>779</ele>
        <time>2015-07-09T08:22:09Z</time>
      </trkpt>
      <trkpt lat="46.14058" lon="4.41651">
        <ele>779</ele>
        <time>2015-07-09T08:22:12Z</time>
      </trkpt>
      <trkpt lat="46.14051" lon="4.41637">
        <ele>780</ele>
        <time>2015-07-09T08:22:21Z</time>
      </trkpt>
      <trkpt lat="46.14046" lon="4.41634">
        <ele>781</ele>
        <time>2015-07-09T08:22:26Z</time>
      </trkpt>
      <trkpt lat="46.14027" lon="4.41629">
        <ele>781</ele>
        <time>2015-07-09T08:23:22Z</time>
      </trkpt>
      <trkpt lat="46.14006" lon="4.41599">
        <ele>789</ele>
        <time>2015-07-09T08:23:50Z</time>
      </trkpt>
      <trkpt lat="46.13998" lon="4.41593">
        <ele>789</ele>
        <time>2015-07-09T08:23:58Z</time>
      </trkpt>
      <trkpt lat="46.13991" lon="4.41583">
        <ele>790</ele>
        <time>2015-07-09T08:24:07Z</time>
      </trkpt>
      <trkpt lat="46.1396" lon="4.41552">
        <ele>792</ele>
        <time>2015-07-09T08:24:40Z</time>
      </trkpt>
      <trkpt lat="46.13942" lon="4.41539">
        <ele>794</ele>
        <time>2015-07-09T08:24:54Z</time>
      </trkpt>
      <trkpt lat="46.13938" lon="4.41526">
        <ele>795</ele>
        <time>2015-07-09T08:25:01Z</time>
      </trkpt>
      <trkpt lat="46.13924" lon="4.41509">
        <ele>797</ele>
        <time>2015-07-09T08:25:20Z</time>
      </trkpt>
      <trkpt lat="46.1392" lon="4.41497">
        <ele>798</ele>
        <time>2015-07-09T08:25:26Z</time>
      </trkpt>
      <trkpt lat="46.13911" lon="4.41491">
        <ele>799</ele>
        <time>2015-07-09T08:25:33Z</time>
      </trkpt>
      <trkpt lat="46.13905" lon="4.41488">
        <ele>799</ele>
        <time>2015-07-09T08:25:47Z</time>
      </trkpt>
      <trkpt lat="46.13891" lon="4.41476">
        <ele>794</ele>
        <time>2015-07-09T08:26:10Z</time>
      </trkpt>
      <trkpt lat="46.13884" lon="4.41466">
        <ele>793</ele>
        <time>2015-07-09T08:26:17Z</time>
      </trkpt>
      <trkpt lat="46.13878" lon="4.41456">
        <ele>793</ele>
        <time>2015-07-09T08:26:26Z</time>
      </trkpt>
      <trkpt lat="46.13868" lon="4.41451">
        <ele>794</ele>
        <time>2015-07-09T08:26:33Z</time>
      </trkpt>
      <trkpt lat="46.13834" lon="4.41423">
        <ele>807</ele>
        <time>2015-07-09T08:27:04Z</time>
      </trkpt>
      <trkpt lat="46.13813" lon="4.41394">
        <ele>806</ele>
        <time>2015-07-09T08:27:29Z</time>
      </trkpt>
      <trkpt lat="46.1381" lon="4.41366">
        <ele>807</ele>
        <time>2015-07-09T08:27:49Z</time>
      </trkpt>
      <trkpt lat="46.13817" lon="4.41351">
        <ele>806</ele>
        <time>2015-07-09T08:28:05Z</time>
      </trkpt>
      <trkpt lat="46.13814" lon="4.41323">
        <ele>805</ele>
        <time>2015-07-09T08:28:27Z</time>
      </trkpt>
      <trkpt lat="46.13819" lon="4.41298">
        <ele>807</ele>
        <time>2015-07-09T08:28:44Z</time>
      </trkpt>
      <trkpt lat="46.13817" lon="4.41285">
        <ele>807</ele>
        <time>2015-07-09T08:28:59Z</time>
      </trkpt>
      <trkpt lat="46.13826" lon="4.41262">
        <ele>808</ele>
        <time>2015-07-09T08:29:14Z</time>
      </trkpt>
      <trkpt lat="46.13828" lon="4.41212">
        <ele>813</ele>
        <time>2015-07-09T08:29:44Z</time>
      </trkpt>
      <trkpt lat="46.13822" lon="4.41153">
        <ele>813</ele>
        <time>2015-07-09T08:30:20Z</time>
      </trkpt>
      <trkpt lat="46.13816" lon="4.41142">
        <ele>813</ele>
        <time>2015-07-09T08:30:29Z</time>
      </trkpt>
      <trkpt lat="46.13814" lon="4.41135">
        <ele>813</ele>
        <time>2015-07-09T08:30:33Z</time>
      </trkpt>
      <trkpt lat="46.13794" lon="4.41101">
        <ele>816</ele>
        <time>2015-07-09T08:31:00Z</time>
      </trkpt>
      <trkpt lat="46.13789" lon="4.41073">
        <ele>818</ele>
        <time>2015-07-09T08:31:19Z</time>
      </trkpt>
      <trkpt lat="46.1379" lon="4.41066">
        <ele>818</ele>
        <time>2015-07-09T08:31:23Z</time>
      </trkpt>
      <trkpt lat="46.13779" lon="4.41024">
        <ele>816</ele>
        <time>2015-07-09T08:31:50Z</time>
      </trkpt>
      <trkpt lat="46.13771" lon="4.41016">
        <ele>816</ele>
        <time>2015-07-09T08:31:57Z</time>
      </trkpt>
      <trkpt lat="46.1377" lon="4.41003">
        <ele>817</ele>
        <time>2015-07-09T08:32:05Z</time>
      </trkpt>
      <trkpt lat="46.13758" lon="4.40952">
        <ele>819</ele>
        <time>2015-07-09T08:32:40Z</time>
      </trkpt>
      <trkpt lat="46.13753" lon="4.4094">
        <ele>820</ele>
        <time>2015-07-09T08:32:49Z</time>
      </trkpt>
      <trkpt lat="46.13752" lon="4.40933">
        <ele>820</ele>
        <time>2015-07-09T08:32:53Z</time>
      </trkpt>
      <trkpt lat="46.13731" lon="4.40897">
        <ele>823</ele>
        <time>2015-07-09T08:33:23Z</time>
      </trkpt>
      <trkpt lat="46.13725" lon="4.40886">
        <ele>823</ele>
        <time>2015-07-09T08:33:33Z</time>
      </trkpt>
      <trkpt lat="46.13717" lon="4.40883">
        <ele>824</ele>
        <time>2015-07-09T08:33:47Z</time>
      </trkpt>
      <trkpt lat="46.13712" lon="4.40891">
        <ele>824</ele>
        <time>2015-07-09T08:34:03Z</time>
      </trkpt>
      <trkpt lat="46.13707" lon="4.40905">
        <ele>824</ele>
        <time>2015-07-09T08:35:57Z</time>
      </trkpt>
      <trkpt lat="46.13698" lon="4.40923">
        <ele>824</ele>
        <time>2015-07-09T08:36:07Z</time>
      </trkpt>
      <trkpt lat="46.13694" lon="4.40978">
        <ele>837</ele>
        <time>2015-07-09T08:36:43Z</time>
      </trkpt>
      <trkpt lat="46.1368" lon="4.4103">
        <ele>840</ele>
        <time>2015-07-09T08:37:20Z</time>
      </trkpt>
      <trkpt lat="46.13679" lon="4.41044">
        <ele>840</ele>
        <time>2015-07-09T08:37:27Z</time>
      </trkpt>
      <trkpt lat="46.1367" lon="4.41084">
        <ele>841</ele>
        <time>2015-07-09T08:37:48Z</time>
      </trkpt>
      <trkpt lat="46.13672" lon="4.41139">
        <ele>847</ele>
        <time>2015-07-09T08:38:24Z</time>
      </trkpt>
      <trkpt lat="46.13659" lon="4.41158">
        <ele>848</ele>
        <time>2015-07-09T08:38:37Z</time>
      </trkpt>
      <trkpt lat="46.13652" lon="4.41175">
        <ele>847</ele>
        <time>2015-07-09T08:39:00Z</time>
      </trkpt>
      <trkpt lat="46.13632" lon="4.41204">
        <ele>851</ele>
        <time>2015-07-09T08:39:22Z</time>
      </trkpt>
      <trkpt lat="46.13623" lon="4.41201">
        <ele>851</ele>
        <time>2015-07-09T08:39:30Z</time>
      </trkpt>
      <trkpt lat="46.13613" lon="4.41201">
        <ele>850</ele>
        <time>2015-07-09T08:39:40Z</time>
      </trkpt>
      <trkpt lat="46.13575" lon="4.41184">
        <ele>834</ele>
        <time>2015-07-09T08:40:15Z</time>
      </trkpt>
      <trkpt lat="46.13551" lon="4.41166">
        <ele>832</ele>
        <time>2015-07-09T08:40:46Z</time>
      </trkpt>
      <trkpt lat="46.13541" lon="4.41161">
        <ele>831</ele>
        <time>2015-07-09T08:40:55Z</time>
      </trkpt>
      <trkpt lat="46.13512" lon="4.41156">
        <ele>844</ele>
        <time>2015-07-09T08:41:21Z</time>
      </trkpt>
      <trkpt lat="46.13496" lon="4.41144">
        <ele>843</ele>
        <time>2015-07-09T08:41:33Z</time>
      </trkpt>
      <trkpt lat="46.13491" lon="4.41139">
        <ele>836</ele>
        <time>2015-07-09T08:41:48Z</time>
      </trkpt>
      <trkpt lat="46.13479" lon="4.41138">
        <ele>830</ele>
        <time>2015-07-09T08:42:59Z</time>
      </trkpt>
      <trkpt lat="46.13449" lon="4.41125">
        <ele>826</ele>
        <time>2015-07-09T08:43:27Z</time>
      </trkpt>
      <trkpt lat="46.13429" lon="4.41107">
        <ele>827</ele>
        <time>2015-07-09T08:43:47Z</time>
      </trkpt>
      <trkpt lat="46.13425" lon="4.41104">
        <ele>828</ele>
        <time>2015-07-09T08:43:51Z</time>
      </trkpt>
      <trkpt lat="46.13403" lon="4.41084">
        <ele>828</ele>
        <time>2015-07-09T08:44:14Z</time>
      </trkpt>
      <trkpt lat="46.13399" lon="4.41079">
        <ele>827</ele>
        <time>2015-07-09T08:44:19Z</time>
      </trkpt>
      <trkpt lat="46.13395" lon="4.41074">
        <ele>827</ele>
        <time>2015-07-09T08:44:24Z</time>
      </trkpt>
      <trkpt lat="46.1339" lon="4.41072">
        <ele>826</ele>
        <time>2015-07-09T08:44:29Z</time>
      </trkpt>
      <trkpt lat="46.13386" lon="4.41072">
        <ele>826</ele>
        <time>2015-07-09T08:44:34Z</time>
      </trkpt>
      <trkpt lat="46.13377" lon="4.41078">
        <ele>828</ele>
        <time>2015-07-09T08:44:45Z</time>
      </trkpt>
      <trkpt lat="46.13371" lon="4.41091">
        <ele>829</ele>
        <time>2015-07-09T08:44:55Z</time>
      </trkpt>
      <trkpt lat="46.13344" lon="4.41115">
        <ele>831</ele>
        <time>2015-07-09T08:45:18Z</time>
      </trkpt>
      <trkpt lat="46.1334" lon="4.41114">
        <ele>831</ele>
        <time>2015-07-09T08:45:22Z</time>
      </trkpt>
      <trkpt lat="46.13321" lon="4.41118">
        <ele>831</ele>
        <time>2015-07-09T08:45:41Z</time>
      </trkpt>
      <trkpt lat="46.13222" lon="4.41186">
        <ele>839</ele>
        <time>2015-07-09T08:47:00Z</time>
      </trkpt>
      <trkpt lat="46.13209" lon="4.41179">
        <ele>841</ele>
        <time>2015-07-09T08:47:21Z</time>
      </trkpt>
      <trkpt lat="46.13171" lon="4.41177">
        <ele>847</ele>
        <time>2015-07-09T08:47:58Z</time>
      </trkpt>
      <trkpt lat="46.13153" lon="4.41168">
        <ele>848</ele>
        <time>2015-07-09T08:48:16Z</time>
      </trkpt>
      <trkpt lat="46.13116" lon="4.41162">
        <ele>853</ele>
        <time>2015-07-09T08:48:47Z</time>
      </trkpt>
      <trkpt lat="46.13101" lon="4.41144">
        <ele>856</ele>
        <time>2015-07-09T08:49:06Z</time>
      </trkpt>
      <trkpt lat="46.13053" lon="4.41134">
        <ele>860</ele>
        <time>2015-07-09T08:49:45Z</time>
      </trkpt>
      <trkpt lat="46.13034" lon="4.41127">
        <ele>861</ele>
        <time>2015-07-09T08:50:06Z</time>
      </trkpt>
      <trkpt lat="46.13024" lon="4.41129">
        <ele>860</ele>
        <time>2015-07-09T08:50:14Z</time>
      </trkpt>
      <trkpt lat="46.13015" lon="4.41122">
        <ele>860</ele>
        <time>2015-07-09T08:50:21Z</time>
      </trkpt>
      <trkpt lat="46.12978" lon="4.41119">
        <ele>864</ele>
        <time>2015-07-09T08:50:49Z</time>
      </trkpt>
      <trkpt lat="46.12958" lon="4.41119">
        <ele>865</ele>
        <time>2015-07-09T08:51:06Z</time>
      </trkpt>
      <trkpt lat="46.12949" lon="4.41119">
        <ele>865</ele>
        <time>2015-07-09T08:51:14Z</time>
      </trkpt>
      <trkpt lat="46.12944" lon="4.41124">
        <ele>864</ele>
        <time>2015-07-09T08:51:29Z</time>
      </trkpt>
      <trkpt lat="46.12934" lon="4.41126">
        <ele>863</ele>
        <time>2015-07-09T08:51:46Z</time>
      </trkpt>
      <trkpt lat="46.12916" lon="4.41119">
        <ele>860</ele>
        <time>2015-07-09T08:52:01Z</time>
      </trkpt>
      <trkpt lat="46.12909" lon="4.41111">
        <ele>859</ele>
        <time>2015-07-09T08:52:09Z</time>
      </trkpt>
      <trkpt lat="46.12903" lon="4.41099">
        <ele>858</ele>
        <time>2015-07-09T08:52:17Z</time>
      </trkpt>
      <trkpt lat="46.12876" lon="4.41068">
        <ele>865</ele>
        <time>2015-07-09T08:52:44Z</time>
      </trkpt>
      <trkpt lat="46.12876" lon="4.4106">
        <ele>870</ele>
        <time>2015-07-09T08:53:58Z</time>
      </trkpt>
      <trkpt lat="46.12873" lon="4.41053">
        <ele>871</ele>
        <time>2015-07-09T08:54:03Z</time>
      </trkpt>
      <trkpt lat="46.1287" lon="4.41047">
        <ele>872</ele>
        <time>2015-07-09T08:54:08Z</time>
      </trkpt>
      <trkpt lat="46.12866" lon="4.41042">
        <ele>872</ele>
        <time>2015-07-09T08:54:13Z</time>
      </trkpt>
      <trkpt lat="46.12857" lon="4.4104">
        <ele>873</ele>
        <time>2015-07-09T08:54:24Z</time>
      </trkpt>
      <trkpt lat="46.12859" lon="4.41063">
        <ele>874</ele>
        <time>2015-07-09T08:54:47Z</time>
      </trkpt>
      <trkpt lat="46.12857" lon="4.41061">
        <ele>874</ele>
        <time>2015-07-09T08:54:59Z</time>
      </trkpt>
      <trkpt lat="46.12855" lon="4.41047">
        <ele>874</ele>
        <time>2015-07-09T08:55:07Z</time>
      </trkpt>
      <trkpt lat="46.12858" lon="4.41041">
        <ele>874</ele>
        <time>2015-07-09T08:55:12Z</time>
      </trkpt>
      <trkpt lat="46.12862" lon="4.41045">
        <ele>874</ele>
        <time>2015-07-09T08:55:18Z</time>
      </trkpt>
      <trkpt lat="46.12862" lon="4.41054">
        <ele>875</ele>
        <time>2015-07-09T08:55:36Z</time>
      </trkpt>
      <trkpt lat="46.12864" lon="4.41061">
        <ele>874</ele>
        <time>2015-07-09T08:56:22Z</time>
      </trkpt>
      <trkpt lat="46.12867" lon="4.41066">
        <ele>874</ele>
        <time>2015-07-09T08:56:29Z</time>
      </trkpt>
      <trkpt lat="46.12859" lon="4.41057">
        <ele>874</ele>
        <time>2015-07-09T08:56:47Z</time>
      </trkpt>
      <trkpt lat="46.12861" lon="4.4105">
        <ele>874</ele>
        <time>2015-07-09T08:56:56Z</time>
      </trkpt>
      <trkpt lat="46.12858" lon="4.41029">
        <ele>872</ele>
        <time>2015-07-09T08:57:08Z</time>
      </trkpt>
      <trkpt lat="46.1286" lon="4.41023">
        <ele>872</ele>
        <time>2015-07-09T08:57:13Z</time>
      </trkpt>
      <trkpt lat="46.12859" lon="4.41025">
        <ele>872</ele>
        <time>2015-07-09T08:57:43Z</time>
      </trkpt>
      <trkpt lat="46.12863" lon="4.41019">
        <ele>873</ele>
        <time>2015-07-09T08:58:13Z</time>
      </trkpt>
      <trkpt lat="46.12861" lon="4.41004">
        <ele>871</ele>
        <time>2015-07-09T08:58:31Z</time>
      </trkpt>
      <trkpt lat="46.12853" lon="4.40996">
        <ele>869</ele>
        <time>2015-07-09T08:58:42Z</time>
      </trkpt>
      <trkpt lat="46.12857" lon="4.41004">
        <ele>869</ele>
        <time>2015-07-09T08:59:01Z</time>
      </trkpt>
      <trkpt lat="46.12861" lon="4.41007">
        <ele>869</ele>
        <time>2015-07-09T08:59:05Z</time>
      </trkpt>
      <trkpt lat="46.12863" lon="4.41014">
        <ele>868</ele>
        <time>2015-07-09T08:59:10Z</time>
      </trkpt>
      <trkpt lat="46.12862" lon="4.41021">
        <ele>869</ele>
        <time>2015-07-09T08:59:19Z</time>
      </trkpt>
      <trkpt lat="46.12863" lon="4.41028">
        <ele>870</ele>
        <time>2015-07-09T08:59:26Z</time>
      </trkpt>
      <trkpt lat="46.12862" lon="4.41031">
        <ele>871</ele>
        <time>2015-07-09T08:59:32Z</time>
      </trkpt>
      <trkpt lat="46.12865" lon="4.41036">
        <ele>873</ele>
        <time>2015-07-09T09:01:43Z</time>
      </trkpt>
      <trkpt lat="46.12868" lon="4.4104">
        <ele>873</ele>
        <time>2015-07-09T09:01:48Z</time>
      </trkpt>
      <trkpt lat="46.12873" lon="4.41043">
        <ele>873</ele>
        <time>2015-07-09T09:01:52Z</time>
      </trkpt>
      <trkpt lat="46.12878" lon="4.41044">
        <ele>872</ele>
        <time>2015-07-09T09:01:55Z</time>
      </trkpt>
      <trkpt lat="46.12888" lon="4.41059">
        <ele>871</ele>
        <time>2015-07-09T09:02:08Z</time>
      </trkpt>
      <trkpt lat="46.12899" lon="4.41071">
        <ele>871</ele>
        <time>2015-07-09T09:02:20Z</time>
      </trkpt>
      <trkpt lat="46.12946" lon="4.41089">
        <ele>874</ele>
        <time>2015-07-09T09:03:00Z</time>
      </trkpt>
      <trkpt lat="46.12963" lon="4.41099">
        <ele>875</ele>
        <time>2015-07-09T09:03:16Z</time>
      </trkpt>
      <trkpt lat="46.12982" lon="4.41098">
        <ele>876</ele>
        <time>2015-07-09T09:03:31Z</time>
      </trkpt>
      <trkpt lat="46.13018" lon="4.41114">
        <ele>875</ele>
        <time>2015-07-09T09:04:02Z</time>
      </trkpt>
      <trkpt lat="46.13181" lon="4.41163">
        <ele>855</ele>
        <time>2015-07-09T09:06:22Z</time>
      </trkpt>
      <trkpt lat="46.132" lon="4.41165">
        <ele>853</ele>
        <time>2015-07-09T09:06:36Z</time>
      </trkpt>
      <trkpt lat="46.1321" lon="4.41161">
        <ele>852</ele>
        <time>2015-07-09T09:06:43Z</time>
      </trkpt>
      <trkpt lat="46.13271" lon="4.41145">
        <ele>846</ele>
        <time>2015-07-09T09:07:26Z</time>
      </trkpt>
      <trkpt lat="46.13293" lon="4.41128">
        <ele>848</ele>
        <time>2015-07-09T09:07:45Z</time>
      </trkpt>
      <trkpt lat="46.13296" lon="4.41122">
        <ele>848</ele>
        <time>2015-07-09T09:07:53Z</time>
      </trkpt>
      <trkpt lat="46.13326" lon="4.41103">
        <ele>838</ele>
        <time>2015-07-09T09:08:32Z</time>
      </trkpt>
      <trkpt lat="46.13327" lon="4.41108">
        <ele>837</ele>
        <time>2015-07-09T09:08:50Z</time>
      </trkpt>
      <trkpt lat="46.13331" lon="4.41103">
        <ele>837</ele>
        <time>2015-07-09T09:09:08Z</time>
      </trkpt>
      <trkpt lat="46.13367" lon="4.4108">
        <ele>833</ele>
        <time>2015-07-09T09:09:40Z</time>
      </trkpt>
      <trkpt lat="46.13381" lon="4.41069">
        <ele>831</ele>
        <time>2015-07-09T09:09:52Z</time>
      </trkpt>
      <trkpt lat="46.13383" lon="4.41062">
        <ele>830</ele>
        <time>2015-07-09T09:09:59Z</time>
      </trkpt>
      <trkpt lat="46.1334" lon="4.41026">
        <ele>827</ele>
        <time>2015-07-09T09:10:43Z</time>
      </trkpt>
      <trkpt lat="46.13317" lon="4.41012">
        <ele>825</ele>
        <time>2015-07-09T09:11:01Z</time>
      </trkpt>
      <trkpt lat="46.13281" lon="4.40977">
        <ele>821</ele>
        <time>2015-07-09T09:11:36Z</time>
      </trkpt>
      <trkpt lat="46.13272" lon="4.4097">
        <ele>819</ele>
        <time>2015-07-09T09:11:45Z</time>
      </trkpt>
      <trkpt lat="46.13267" lon="4.40959">
        <ele>819</ele>
        <time>2015-07-09T09:11:54Z</time>
      </trkpt>
      <trkpt lat="46.13261" lon="4.40948">
        <ele>819</ele>
        <time>2015-07-09T09:12:07Z</time>
      </trkpt>
      <trkpt lat="46.13252" lon="4.40946">
        <ele>819</ele>
        <time>2015-07-09T09:12:15Z</time>
      </trkpt>
      <trkpt lat="46.13229" lon="4.40935">
        <ele>820</ele>
        <time>2015-07-09T09:12:30Z</time>
      </trkpt>
      <trkpt lat="46.13211" lon="4.40923">
        <ele>820</ele>
        <time>2015-07-09T09:12:48Z</time>
      </trkpt>
      <trkpt lat="46.13175" lon="4.40891">
        <ele>818</ele>
        <time>2015-07-09T09:13:17Z</time>
      </trkpt>
      <trkpt lat="46.13169" lon="4.4088">
        <ele>818</ele>
        <time>2015-07-09T09:13:25Z</time>
      </trkpt>
      <trkpt lat="46.13118" lon="4.40818">
        <ele>812</ele>
        <time>2015-07-09T09:14:21Z</time>
      </trkpt>
      <trkpt lat="46.13079" lon="4.4078">
        <ele>804</ele>
        <time>2015-07-09T09:15:04Z</time>
      </trkpt>
      <trkpt lat="46.1306" lon="4.40766">
        <ele>804</ele>
        <time>2015-07-09T09:15:20Z</time>
      </trkpt>
      <trkpt lat="46.13059" lon="4.40757">
        <ele>800</ele>
        <time>2015-07-09T09:16:12Z</time>
      </trkpt>
      <trkpt lat="46.13049" lon="4.40752">
        <ele>799</ele>
        <time>2015-07-09T09:16:25Z</time>
      </trkpt>
      <trkpt lat="46.13041" lon="4.40745">
        <ele>799</ele>
        <time>2015-07-09T09:16:34Z</time>
      </trkpt>
      <trkpt lat="46.13023" lon="4.40733">
        <ele>796</ele>
        <time>2015-07-09T09:16:49Z</time>
      </trkpt>
      <trkpt lat="46.12984" lon="4.40696">
        <ele>792</ele>
        <time>2015-07-09T09:17:23Z</time>
      </trkpt>
      <trkpt lat="46.12954" lon="4.40651">
        <ele>788</ele>
        <time>2015-07-09T09:18:24Z</time>
      </trkpt>
      <trkpt lat="46.1293" lon="4.40627">
        <ele>786</ele>
        <time>2015-07-09T09:18:50Z</time>
      </trkpt>
      <trkpt lat="46.1292" lon="4.40604">
        <ele>783</ele>
        <time>2015-07-09T09:19:07Z</time>
      </trkpt>
      <trkpt lat="46.12888" lon="4.40562">
        <ele>778</ele>
        <time>2015-07-09T09:19:40Z</time>
      </trkpt>
      <trkpt lat="46.1288" lon="4.40555">
        <ele>778</ele>
        <time>2015-07-09T09:19:48Z</time>
      </trkpt>
      <trkpt lat="46.12876" lon="4.40549">
        <ele>777</ele>
        <time>2015-07-09T09:19:54Z</time>
      </trkpt>
      <trkpt lat="46.12868" lon="4.4054">
        <ele>779</ele>
        <time>2015-07-09T09:20:06Z</time>
      </trkpt>
      <trkpt lat="46.12848" lon="4.40525">
        <ele>778</ele>
        <time>2015-07-09T09:20:25Z</time>
      </trkpt>
      <trkpt lat="46.12811" lon="4.40507">
        <ele>773</ele>
        <time>2015-07-09T09:20:50Z</time>
      </trkpt>
      <trkpt lat="46.12793" lon="4.4047">
        <ele>769</ele>
        <time>2015-07-09T09:21:23Z</time>
      </trkpt>
      <trkpt lat="46.12792" lon="4.40466">
        <ele>770</ele>
        <time>2015-07-09T09:21:33Z</time>
      </trkpt>
      <trkpt lat="46.12786" lon="4.40465">
        <ele>770</ele>
        <time>2015-07-09T09:21:54Z</time>
      </trkpt>
      <trkpt lat="46.1278" lon="4.40461">
        <ele>769</ele>
        <time>2015-07-09T09:22:00Z</time>
      </trkpt>
      <trkpt lat="46.12757" lon="4.40431">
        <ele>772</ele>
        <time>2015-07-09T09:22:23Z</time>
      </trkpt>
      <trkpt lat="46.12752" lon="4.40427">
        <ele>771</ele>
        <time>2015-07-09T09:22:28Z</time>
      </trkpt>
      <trkpt lat="46.12724" lon="4.4039">
        <ele>764</ele>
        <time>2015-07-09T09:23:02Z</time>
      </trkpt>
      <trkpt lat="46.12717" lon="4.40376">
        <ele>763</ele>
        <time>2015-07-09T09:23:14Z</time>
      </trkpt>
      <trkpt lat="46.12678" lon="4.40343">
        <ele>765</ele>
        <time>2015-07-09T09:23:45Z</time>
      </trkpt>
      <trkpt lat="46.12641" lon="4.40302">
        <ele>762</ele>
        <time>2015-07-09T09:24:21Z</time>
      </trkpt>
      <trkpt lat="46.12634" lon="4.40292">
        <ele>761</ele>
        <time>2015-07-09T09:24:28Z</time>
      </trkpt>
      <trkpt lat="46.12632" lon="4.40286">
        <ele>759</ele>
        <time>2015-07-09T09:24:32Z</time>
      </trkpt>
      <trkpt lat="46.12629" lon="4.40283">
        <ele>756</ele>
        <time>2015-07-09T09:25:17Z</time>
      </trkpt>
      <trkpt lat="46.12625" lon="4.40282">
        <ele>755</ele>
        <time>2015-07-09T09:25:20Z</time>
      </trkpt>
      <trkpt lat="46.1262" lon="4.40279">
        <ele>755</ele>
        <time>2015-07-09T09:25:24Z</time>
      </trkpt>
      <trkpt lat="46.12602" lon="4.40261">
        <ele>752</ele>
        <time>2015-07-09T09:25:41Z</time>
      </trkpt>
      <trkpt lat="46.12594" lon="4.40256">
        <ele>748</ele>
        <time>2015-07-09T09:25:51Z</time>
      </trkpt>
      <trkpt lat="46.1256" lon="4.4022">
        <ele>744</ele>
        <time>2015-07-09T09:26:20Z</time>
      </trkpt>
      <trkpt lat="46.12556" lon="4.40213">
        <ele>744</ele>
        <time>2015-07-09T09:26:24Z</time>
      </trkpt>
      <trkpt lat="46.12551" lon="4.40211">
        <ele>742</ele>
        <time>2015-07-09T09:26:30Z</time>
      </trkpt>
      <trkpt lat="46.12544" lon="4.40204">
        <ele>739</ele>
        <time>2015-07-09T09:26:41Z</time>
      </trkpt>
      <trkpt lat="46.12539" lon="4.402">
        <ele>738</ele>
        <time>2015-07-09T09:26:46Z</time>
      </trkpt>
      <trkpt lat="46.12532" lon="4.40191">
        <ele>737</ele>
        <time>2015-07-09T09:26:54Z</time>
      </trkpt>
      <trkpt lat="46.12524" lon="4.40175">
        <ele>741</ele>
        <time>2015-07-09T09:27:13Z</time>
      </trkpt>
      <trkpt lat="46.12504" lon="4.40144">
        <ele>737</ele>
        <time>2015-07-09T09:27:47Z</time>
      </trkpt>
      <trkpt lat="46.12498" lon="4.40132">
        <ele>733</ele>
        <time>2015-07-09T09:28:00Z</time>
      </trkpt>
      <trkpt lat="46.12475" lon="4.40103">
        <ele>736</ele>
        <time>2015-07-09T09:28:21Z</time>
      </trkpt>
      <trkpt lat="46.12459" lon="4.40077">
        <ele>735</ele>
        <time>2015-07-09T09:28:41Z</time>
      </trkpt>
      <trkpt lat="46.12454" lon="4.40073">
        <ele>735</ele>
        <time>2015-07-09T09:28:45Z</time>
      </trkpt>
      <trkpt lat="46.1245" lon="4.40067">
        <ele>735</ele>
        <time>2015-07-09T09:28:49Z</time>
      </trkpt>
      <trkpt lat="46.12446" lon="4.40064">
        <ele>735</ele>
        <time>2015-07-09T09:28:53Z</time>
      </trkpt>
      <trkpt lat="46.12443" lon="4.40059">
        <ele>735</ele>
        <time>2015-07-09T09:28:57Z</time>
      </trkpt>
      <trkpt lat="46.12442" lon="4.40052">
        <ele>735</ele>
        <time>2015-07-09T09:29:01Z</time>
      </trkpt>
      <trkpt lat="46.12443" lon="4.40045">
        <ele>735</ele>
        <time>2015-07-09T09:29:04Z</time>
      </trkpt>
      <trkpt lat="46.12446" lon="4.40039">
        <ele>735</ele>
        <time>2015-07-09T09:29:07Z</time>
      </trkpt>
      <trkpt lat="46.12466" lon="4.40024">
        <ele>732</ele>
        <time>2015-07-09T09:29:23Z</time>
      </trkpt>
      <trkpt lat="46.12487" lon="4.40024">
        <ele>730</ele>
        <time>2015-07-09T09:29:37Z</time>
      </trkpt>
      <trkpt lat="46.12498" lon="4.4002">
        <ele>730</ele>
        <time>2015-07-09T09:29:43Z</time>
      </trkpt>
      <trkpt lat="46.125" lon="4.40014">
        <ele>730</ele>
        <time>2015-07-09T09:29:53Z</time>
      </trkpt>
      <trkpt lat="46.12511" lon="4.40018">
        <ele>729</ele>
        <time>2015-07-09T09:30:01Z</time>
      </trkpt>
      <trkpt lat="46.12531" lon="4.40022">
        <ele>729</ele>
        <time>2015-07-09T09:30:16Z</time>
      </trkpt>
      <trkpt lat="46.12567" lon="4.40025">
        <ele>727</ele>
        <time>2015-07-09T09:30:53Z</time>
      </trkpt>
      <trkpt lat="46.12571" lon="4.40019">
        <ele>726</ele>
        <time>2015-07-09T09:31:09Z</time>
      </trkpt>
      <trkpt lat="46.1259" lon="4.40009">
        <ele>722</ele>
        <time>2015-07-09T09:31:34Z</time>
      </trkpt>
      <trkpt lat="46.12595" lon="4.4001">
        <ele>722</ele>
        <time>2015-07-09T09:31:38Z</time>
      </trkpt>
      <trkpt lat="46.12627" lon="4.40042">
        <ele>718</ele>
        <time>2015-07-09T09:32:10Z</time>
      </trkpt>
      <trkpt lat="46.12666" lon="4.4005">
        <ele>714</ele>
        <time>2015-07-09T09:32:42Z</time>
      </trkpt>
      <trkpt lat="46.12706" lon="4.40053">
        <ele>710</ele>
        <time>2015-07-09T09:33:15Z</time>
      </trkpt>
      <trkpt lat="46.12711" lon="4.40052">
        <ele>710</ele>
        <time>2015-07-09T09:33:19Z</time>
      </trkpt>
      <trkpt lat="46.12714" lon="4.40056">
        <ele>711</ele>
        <time>2015-07-09T09:33:27Z</time>
      </trkpt>
      <trkpt lat="46.12724" lon="4.40063">
        <ele>711</ele>
        <time>2015-07-09T09:33:36Z</time>
      </trkpt>
      <trkpt lat="46.12731" lon="4.40073">
        <ele>711</ele>
        <time>2015-07-09T09:33:47Z</time>
      </trkpt>
      <trkpt lat="46.12735" lon="4.40075">
        <ele>711</ele>
        <time>2015-07-09T09:33:52Z</time>
      </trkpt>
      <trkpt lat="46.12747" lon="4.40074">
        <ele>711</ele>
        <time>2015-07-09T09:34:04Z</time>
      </trkpt>
      <trkpt lat="46.12753" lon="4.40077">
        <ele>710</ele>
        <time>2015-07-09T09:34:08Z</time>
      </trkpt>
      <trkpt lat="46.12762" lon="4.40079">
        <ele>709</ele>
        <time>2015-07-09T09:34:18Z</time>
      </trkpt>
      <trkpt lat="46.12777" lon="4.40085">
        <ele>709</ele>
        <time>2015-07-09T09:34:33Z</time>
      </trkpt>
      <trkpt lat="46.12781" lon="4.40084">
        <ele>709</ele>
        <time>2015-07-09T09:34:37Z</time>
      </trkpt>
      <trkpt lat="46.12786" lon="4.40085">
        <ele>709</ele>
        <time>2015-07-09T09:34:41Z</time>
      </trkpt>
      <trkpt lat="46.12802" lon="4.40076">
        <ele>709</ele>
        <time>2015-07-09T09:34:54Z</time>
      </trkpt>
      <trkpt lat="46.12815" lon="4.40065">
        <ele>710</ele>
        <time>2015-07-09T09:35:04Z</time>
      </trkpt>
      <trkpt lat="46.12819" lon="4.40066">
        <ele>710</ele>
        <time>2015-07-09T09:35:09Z</time>
      </trkpt>
      <trkpt lat="46.12821" lon="4.40059">
        <ele>711</ele>
        <time>2015-07-09T09:35:16Z</time>
      </trkpt>
      <trkpt lat="46.12825" lon="4.40054">
        <ele>711</ele>
        <time>2015-07-09T09:35:19Z</time>
      </trkpt>
      <trkpt lat="46.12827" lon="4.40048">
        <ele>710</ele>
        <time>2015-07-09T09:35:25Z</time>
      </trkpt>
      <trkpt lat="46.12836" lon="4.4004">
        <ele>711</ele>
        <time>2015-07-09T09:35:35Z</time>
      </trkpt>
      <trkpt lat="46.1284" lon="4.40035">
        <ele>711</ele>
        <time>2015-07-09T09:35:39Z</time>
      </trkpt>
      <trkpt lat="46.12852" lon="4.40013">
        <ele>714</ele>
        <time>2015-07-09T09:36:03Z</time>
      </trkpt>
      <trkpt lat="46.12856" lon="4.40009">
        <ele>713</ele>
        <time>2015-07-09T09:36:07Z</time>
      </trkpt>
      <trkpt lat="46.12878" lon="4.3997">
        <ele>712</ele>
        <time>2015-07-09T09:36:37Z</time>
      </trkpt>
      <trkpt lat="46.12882" lon="4.39964">
        <ele>712</ele>
        <time>2015-07-09T09:36:42Z</time>
      </trkpt>
      <trkpt lat="46.1289" lon="4.39937">
        <ele>709</ele>
        <time>2015-07-09T09:36:58Z</time>
      </trkpt>
      <trkpt lat="46.1289" lon="4.39928">
        <ele>709</ele>
        <time>2015-07-09T09:37:05Z</time>
      </trkpt>
      <trkpt lat="46.12897" lon="4.3991">
        <ele>710</ele>
        <time>2015-07-09T09:37:15Z</time>
      </trkpt>
      <trkpt lat="46.12897" lon="4.39903">
        <ele>714</ele>
        <time>2015-07-09T09:37:20Z</time>
      </trkpt>
      <trkpt lat="46.12889" lon="4.39894">
        <ele>719</ele>
        <time>2015-07-09T09:37:29Z</time>
      </trkpt>
      <trkpt lat="46.12884" lon="4.3989">
        <ele>719</ele>
        <time>2015-07-09T09:37:34Z</time>
      </trkpt>
      <trkpt lat="46.12882" lon="4.39886">
        <ele>716</ele>
        <time>2015-07-09T09:37:57Z</time>
      </trkpt>
      <trkpt lat="46.12883" lon="4.39883">
        <ele>715</ele>
        <time>2015-07-09T09:38:46Z</time>
      </trkpt>
      <trkpt lat="46.12913" lon="4.39897">
        <ele>710</ele>
        <time>2015-07-09T09:39:16Z</time>
      </trkpt>
      <trkpt lat="46.12916" lon="4.39902">
        <ele>710</ele>
        <time>2015-07-09T09:39:24Z</time>
      </trkpt>
      <trkpt lat="46.12918" lon="4.39897">
        <ele>714</ele>
        <time>2015-07-09T09:40:26Z</time>
      </trkpt>
      <trkpt lat="46.12917" lon="4.39893">
        <ele>716</ele>
        <time>2015-07-09T09:41:59Z</time>
      </trkpt>
      <trkpt lat="46.12908" lon="4.39895">
        <ele>716</ele>
        <time>2015-07-09T09:43:00Z</time>
      </trkpt>
      <trkpt lat="46.12898" lon="4.39894">
        <ele>719</ele>
        <time>2015-07-09T09:43:08Z</time>
      </trkpt>
      <trkpt lat="46.12883" lon="4.39887">
        <ele>718</ele>
        <time>2015-07-09T09:43:22Z</time>
      </trkpt>
      <trkpt lat="46.12875" lon="4.39883">
        <ele>715</ele>
        <time>2015-07-09T09:43:35Z</time>
      </trkpt>
      <trkpt lat="46.12875" lon="4.39873">
        <ele>714</ele>
        <time>2015-07-09T09:43:51Z</time>
      </trkpt>
      <trkpt lat="46.12878" lon="4.39869">
        <ele>713</ele>
        <time>2015-07-09T09:43:55Z</time>
      </trkpt>
      <trkpt lat="46.12875" lon="4.3987">
        <ele>713</ele>
        <time>2015-07-09T09:44:58Z</time>
      </trkpt>
      <trkpt lat="46.12876" lon="4.39871">
        <ele>712</ele>
        <time>2015-07-09T09:45:13Z</time>
      </trkpt>
      <trkpt lat="46.12877" lon="4.39866">
        <ele>715</ele>
        <time>2015-07-09T10:19:50Z</time>
      </trkpt>
      <trkpt lat="46.12883" lon="4.39863">
        <ele>709</ele>
        <time>2015-07-09T10:25:49Z</time>
      </trkpt>
      <trkpt lat="46.12878" lon="4.39864">
        <ele>710</ele>
        <time>2015-07-09T10:27:16Z</time>
      </trkpt>
      <trkpt lat="46.12876" lon="4.39867">
        <ele>710</ele>
        <time>2015-07-09T10:27:23Z</time>
      </trkpt>
      <trkpt lat="46.1288" lon="4.39865">
        <ele>711</ele>
        <time>2015-07-09T10:37:01Z</time>
      </trkpt>
      <trkpt lat="46.12885" lon="4.39867">
        <ele>711</ele>
        <time>2015-07-09T10:37:06Z</time>
      </trkpt>
      <trkpt lat="46.12888" lon="4.3987">
        <ele>712</ele>
        <time>2015-07-09T10:37:14Z</time>
      </trkpt>
      <trkpt lat="46.12906" lon="4.39875">
        <ele>714</ele>
        <time>2015-07-09T10:37:35Z</time>
      </trkpt>
      <trkpt lat="46.1291" lon="4.39876">
        <ele>713</ele>
        <time>2015-07-09T10:37:39Z</time>
      </trkpt>
      <trkpt lat="46.12914" lon="4.3987">
        <ele>712</ele>
        <time>2015-07-09T10:37:45Z</time>
      </trkpt>
      <trkpt lat="46.12913" lon="4.39862">
        <ele>712</ele>
        <time>2015-07-09T10:37:50Z</time>
      </trkpt>
      <trkpt lat="46.12899" lon="4.39817">
        <ele>713</ele>
        <time>2015-07-09T10:38:23Z</time>
      </trkpt>
      <trkpt lat="46.12879" lon="4.39784">
        <ele>718</ele>
        <time>2015-07-09T10:38:54Z</time>
      </trkpt>
      <trkpt lat="46.12873" lon="4.39771">
        <ele>718</ele>
        <time>2015-07-09T10:39:04Z</time>
      </trkpt>
      <trkpt lat="46.1287" lon="4.39743">
        <ele>721</ele>
        <time>2015-07-09T10:39:25Z</time>
      </trkpt>
      <trkpt lat="46.12874" lon="4.39737">
        <ele>722</ele>
        <time>2015-07-09T10:39:30Z</time>
      </trkpt>
      <trkpt lat="46.12874" lon="4.39741">
        <ele>722</ele>
        <time>2015-07-09T10:39:45Z</time>
      </trkpt>
      <trkpt lat="46.12881" lon="4.39747">
        <ele>721</ele>
        <time>2015-07-09T10:40:06Z</time>
      </trkpt>
      <trkpt lat="46.12879" lon="4.39763">
        <ele>720</ele>
        <time>2015-07-09T10:40:35Z</time>
      </trkpt>
      <trkpt lat="46.12889" lon="4.39762">
        <ele>721</ele>
        <time>2015-07-09T10:41:02Z</time>
      </trkpt>
      <trkpt lat="46.12887" lon="4.3975">
        <ele>720</ele>
        <time>2015-07-09T10:41:31Z</time>
      </trkpt>
      <trkpt lat="46.12878" lon="4.39749">
        <ele>720</ele>
        <time>2015-07-09T10:41:44Z</time>
      </trkpt>
      <trkpt lat="46.12875" lon="4.39742">
        <ele>720</ele>
        <time>2015-07-09T10:42:33Z</time>
      </trkpt>
      <trkpt lat="46.12873" lon="4.39728">
        <ele>720</ele>
        <time>2015-07-09T10:42:40Z</time>
      </trkpt>
      <trkpt lat="46.12867" lon="4.39717">
        <ele>719</ele>
        <time>2015-07-09T10:43:11Z</time>
      </trkpt>
      <trkpt lat="46.12864" lon="4.39713">
        <ele>718</ele>
        <time>2015-07-09T10:43:16Z</time>
      </trkpt>
      <trkpt lat="46.12859" lon="4.39708">
        <ele>718</ele>
        <time>2015-07-09T10:43:21Z</time>
      </trkpt>
      <trkpt lat="46.12855" lon="4.39706">
        <ele>718</ele>
        <time>2015-07-09T10:43:26Z</time>
      </trkpt>
      <trkpt lat="46.12823" lon="4.39675">
        <ele>715</ele>
        <time>2015-07-09T10:44:03Z</time>
      </trkpt>
      <trkpt lat="46.12815" lon="4.39665">
        <ele>714</ele>
        <time>2015-07-09T10:44:12Z</time>
      </trkpt>
      <trkpt lat="46.12812" lon="4.3966">
        <ele>714</ele>
        <time>2015-07-09T10:44:16Z</time>
      </trkpt>
      <trkpt lat="46.12813" lon="4.39652">
        <ele>714</ele>
        <time>2015-07-09T10:44:21Z</time>
      </trkpt>
      <trkpt lat="46.12822" lon="4.39619">
        <ele>715</ele>
        <time>2015-07-09T10:44:52Z</time>
      </trkpt>
      <trkpt lat="46.12848" lon="4.39589">
        <ele>716</ele>
        <time>2015-07-09T10:45:21Z</time>
      </trkpt>
      <trkpt lat="46.12869" lon="4.39571">
        <ele>715</ele>
        <time>2015-07-09T10:46:12Z</time>
      </trkpt>
      <trkpt lat="46.12876" lon="4.39568">
        <ele>713</ele>
        <time>2015-07-09T10:46:22Z</time>
      </trkpt>
      <trkpt lat="46.12886" lon="4.39559">
        <ele>713</ele>
        <time>2015-07-09T10:46:34Z</time>
      </trkpt>
      <trkpt lat="46.12888" lon="4.39562">
        <ele>712</ele>
        <time>2015-07-09T10:46:41Z</time>
      </trkpt>
      <trkpt lat="46.12891" lon="4.39558">
        <ele>711</ele>
        <time>2015-07-09T10:46:59Z</time>
      </trkpt>
      <trkpt lat="46.12896" lon="4.39555">
        <ele>711</ele>
        <time>2015-07-09T10:47:04Z</time>
      </trkpt>
      <trkpt lat="46.12899" lon="4.39555">
        <ele>711</ele>
        <time>2015-07-09T10:47:12Z</time>
      </trkpt>
      <trkpt lat="46.12901" lon="4.3956">
        <ele>712</ele>
        <time>2015-07-09T10:47:24Z</time>
      </trkpt>
      <trkpt lat="46.1291" lon="4.3959">
        <ele>713</ele>
        <time>2015-07-09T10:48:12Z</time>
      </trkpt>
      <trkpt lat="46.12914" lon="4.39595">
        <ele>713</ele>
        <time>2015-07-09T10:48:17Z</time>
      </trkpt>
      <trkpt lat="46.12918" lon="4.39592">
        <ele>713</ele>
        <time>2015-07-09T10:48:23Z</time>
      </trkpt>
      <trkpt lat="46.12935" lon="4.39578">
        <ele>712</ele>
        <time>2015-07-09T10:48:43Z</time>
      </trkpt>
      <trkpt lat="46.12938" lon="4.39574">
        <ele>711</ele>
        <time>2015-07-09T10:48:50Z</time>
      </trkpt>
      <trkpt lat="46.12942" lon="4.39572">
        <ele>711</ele>
        <time>2015-07-09T10:48:54Z</time>
      </trkpt>
      <trkpt lat="46.12947" lon="4.39569">
        <ele>711</ele>
        <time>2015-07-09T10:48:57Z</time>
      </trkpt>
      <trkpt lat="46.12955" lon="4.39559">
        <ele>713</ele>
        <time>2015-07-09T10:49:04Z</time>
      </trkpt>
      <trkpt lat="46.12973" lon="4.39541">
        <ele>712</ele>
        <time>2015-07-09T10:49:20Z</time>
      </trkpt>
      <trkpt lat="46.12984" lon="4.39533">
        <ele>713</ele>
        <time>2015-07-09T10:49:32Z</time>
      </trkpt>
      <trkpt lat="46.12989" lon="4.39531">
        <ele>713</ele>
        <time>2015-07-09T10:49:37Z</time>
      </trkpt>
      <trkpt lat="46.13019" lon="4.39498">
        <ele>711</ele>
        <time>2015-07-09T10:50:09Z</time>
      </trkpt>
      <trkpt lat="46.13022" lon="4.39493">
        <ele>711</ele>
        <time>2015-07-09T10:50:13Z</time>
      </trkpt>
      <trkpt lat="46.13029" lon="4.39479">
        <ele>711</ele>
        <time>2015-07-09T10:50:20Z</time>
      </trkpt>
      <trkpt lat="46.13034" lon="4.39454">
        <ele>710</ele>
        <time>2015-07-09T10:50:27Z</time>
      </trkpt>
      <trkpt lat="46.13045" lon="4.39451">
        <ele>710</ele>
        <time>2015-07-09T10:50:37Z</time>
      </trkpt>
      <trkpt lat="46.13057" lon="4.39436">
        <ele>709</ele>
        <time>2015-07-09T10:50:49Z</time>
      </trkpt>
      <trkpt lat="46.13063" lon="4.39415">
        <ele>709</ele>
        <time>2015-07-09T10:50:59Z</time>
      </trkpt>
      <trkpt lat="46.13073" lon="4.39407">
        <ele>708</ele>
        <time>2015-07-09T10:51:07Z</time>
      </trkpt>
      <trkpt lat="46.13077" lon="4.39402">
        <ele>709</ele>
        <time>2015-07-09T10:51:11Z</time>
      </trkpt>
      <trkpt lat="46.1309" lon="4.39377">
        <ele>709</ele>
        <time>2015-07-09T10:51:28Z</time>
      </trkpt>
      <trkpt lat="46.13102" lon="4.39361">
        <ele>709</ele>
        <time>2015-07-09T10:51:40Z</time>
      </trkpt>
      <trkpt lat="46.13108" lon="4.39348">
        <ele>709</ele>
        <time>2015-07-09T10:51:48Z</time>
      </trkpt>
      <trkpt lat="46.13111" lon="4.39342">
        <ele>709</ele>
        <time>2015-07-09T10:51:52Z</time>
      </trkpt>
      <trkpt lat="46.13121" lon="4.39323">
        <ele>709</ele>
        <time>2015-07-09T10:52:07Z</time>
      </trkpt>
      <trkpt lat="46.13122" lon="4.39316">
        <ele>708</ele>
        <time>2015-07-09T10:52:11Z</time>
      </trkpt>
      <trkpt lat="46.13125" lon="4.39309">
        <ele>708</ele>
        <time>2015-07-09T10:52:15Z</time>
      </trkpt>
      <trkpt lat="46.13154" lon="4.39281">
        <ele>713</ele>
        <time>2015-07-09T10:52:47Z</time>
      </trkpt>
      <trkpt lat="46.13211" lon="4.39234">
        <ele>708</ele>
        <time>2015-07-09T10:53:50Z</time>
      </trkpt>
      <trkpt lat="46.13225" lon="4.39217">
        <ele>704</ele>
        <time>2015-07-09T10:54:10Z</time>
      </trkpt>
      <trkpt lat="46.13244" lon="4.39203">
        <ele>712</ele>
        <time>2015-07-09T10:54:25Z</time>
      </trkpt>
      <trkpt lat="46.13255" lon="4.39197">
        <ele>711</ele>
        <time>2015-07-09T10:54:33Z</time>
      </trkpt>
      <trkpt lat="46.1326" lon="4.39196">
        <ele>711</ele>
        <time>2015-07-09T10:54:36Z</time>
      </trkpt>
      <trkpt lat="46.13265" lon="4.39192">
        <ele>711</ele>
        <time>2015-07-09T10:54:40Z</time>
      </trkpt>
      <trkpt lat="46.13275" lon="4.39189">
        <ele>710</ele>
        <time>2015-07-09T10:54:47Z</time>
      </trkpt>
      <trkpt lat="46.13279" lon="4.39185">
        <ele>710</ele>
        <time>2015-07-09T10:54:50Z</time>
      </trkpt>
      <trkpt lat="46.13283" lon="4.39183">
        <ele>709</ele>
        <time>2015-07-09T10:54:53Z</time>
      </trkpt>
      <trkpt lat="46.13326" lon="4.39164">
        <ele>704</ele>
        <time>2015-07-09T10:55:26Z</time>
      </trkpt>
      <trkpt lat="46.13398" lon="4.39124">
        <ele>686</ele>
        <time>2015-07-09T10:57:09Z</time>
      </trkpt>
      <trkpt lat="46.13431" lon="4.39095">
        <ele>688</ele>
        <time>2015-07-09T10:57:41Z</time>
      </trkpt>
      <trkpt lat="46.13437" lon="4.39086">
        <ele>689</ele>
        <time>2015-07-09T10:57:49Z</time>
      </trkpt>
      <trkpt lat="46.13441" lon="4.39072">
        <ele>689</ele>
        <time>2015-07-09T10:57:59Z</time>
      </trkpt>
      <trkpt lat="46.13438" lon="4.3906">
        <ele>689</ele>
        <time>2015-07-09T10:58:08Z</time>
      </trkpt>
      <trkpt lat="46.13435" lon="4.39054">
        <ele>688</ele>
        <time>2015-07-09T10:58:12Z</time>
      </trkpt>
      <trkpt lat="46.134" lon="4.39043">
        <ele>684</ele>
        <time>2015-07-09T10:58:42Z</time>
      </trkpt>
      <trkpt lat="46.13394" lon="4.39039">
        <ele>684</ele>
        <time>2015-07-09T10:58:46Z</time>
      </trkpt>
      <trkpt lat="46.13363" lon="4.39023">
        <ele>687</ele>
        <time>2015-07-09T10:59:16Z</time>
      </trkpt>
      <trkpt lat="46.13358" lon="4.39024">
        <ele>687</ele>
        <time>2015-07-09T10:59:22Z</time>
      </trkpt>
      <trkpt lat="46.13354" lon="4.39021">
        <ele>688</ele>
        <time>2015-07-09T10:59:25Z</time>
      </trkpt>
      <trkpt lat="46.13342" lon="4.39007">
        <ele>687</ele>
        <time>2015-07-09T10:59:40Z</time>
      </trkpt>
      <trkpt lat="46.13346" lon="4.39001">
        <ele>687</ele>
        <time>2015-07-09T10:59:51Z</time>
      </trkpt>
      <trkpt lat="46.13345" lon="4.38994">
        <ele>686</ele>
        <time>2015-07-09T10:59:59Z</time>
      </trkpt>
      <trkpt lat="46.13339" lon="4.38936">
        <ele>688</ele>
        <time>2015-07-09T11:00:32Z</time>
      </trkpt>
      <trkpt lat="46.13338" lon="4.38876">
        <ele>691</ele>
        <time>2015-07-09T11:01:06Z</time>
      </trkpt>
      <trkpt lat="46.13334" lon="4.38852">
        <ele>691</ele>
        <time>2015-07-09T11:01:17Z</time>
      </trkpt>
      <trkpt lat="46.13347" lon="4.38719">
        <ele>695</ele>
        <time>2015-07-09T11:02:36Z</time>
      </trkpt>
      <trkpt lat="46.1335" lon="4.38713">
        <ele>696</ele>
        <time>2015-07-09T11:02:40Z</time>
      </trkpt>
      <trkpt lat="46.13366" lon="4.38657">
        <ele>697</ele>
        <time>2015-07-09T11:03:20Z</time>
      </trkpt>
      <trkpt lat="46.1337" lon="4.38601">
        <ele>701</ele>
        <time>2015-07-09T11:03:51Z</time>
      </trkpt>
      <trkpt lat="46.13366" lon="4.38591">
        <ele>702</ele>
        <time>2015-07-09T11:04:03Z</time>
      </trkpt>
      <trkpt lat="46.13362" lon="4.38562">
        <ele>705</ele>
        <time>2015-07-09T11:04:23Z</time>
      </trkpt>
      <trkpt lat="46.13362" lon="4.38555">
        <ele>705</ele>
        <time>2015-07-09T11:04:29Z</time>
      </trkpt>
      <trkpt lat="46.13368" lon="4.38519">
        <ele>707</ele>
        <time>2015-07-09T11:05:01Z</time>
      </trkpt>
      <trkpt lat="46.13368" lon="4.38512">
        <ele>707</ele>
        <time>2015-07-09T11:05:05Z</time>
      </trkpt>
      <trkpt lat="46.13373" lon="4.385">
        <ele>709</ele>
        <time>2015-07-09T11:05:13Z</time>
      </trkpt>
      <trkpt lat="46.1338" lon="4.38491">
        <ele>712</ele>
        <time>2015-07-09T11:05:38Z</time>
      </trkpt>
      <trkpt lat="46.13385" lon="4.38488">
        <ele>711</ele>
        <time>2015-07-09T11:05:43Z</time>
      </trkpt>
      <trkpt lat="46.1339" lon="4.38486">
        <ele>710</ele>
        <time>2015-07-09T11:05:48Z</time>
      </trkpt>
      <trkpt lat="46.13401" lon="4.38483">
        <ele>711</ele>
        <time>2015-07-09T11:05:59Z</time>
      </trkpt>
      <trkpt lat="46.13403" lon="4.38479">
        <ele>711</ele>
        <time>2015-07-09T11:06:08Z</time>
      </trkpt>
      <trkpt lat="46.13408" lon="4.38478">
        <ele>712</ele>
        <time>2015-07-09T11:06:14Z</time>
      </trkpt>
      <trkpt lat="46.13413" lon="4.38481">
        <ele>713</ele>
        <time>2015-07-09T11:06:21Z</time>
      </trkpt>
      <trkpt lat="46.13416" lon="4.38474">
        <ele>713</ele>
        <time>2015-07-09T11:06:27Z</time>
      </trkpt>
      <trkpt lat="46.13428" lon="4.38463">
        <ele>712</ele>
        <time>2015-07-09T11:06:39Z</time>
      </trkpt>
      <trkpt lat="46.13433" lon="4.38456">
        <ele>712</ele>
        <time>2015-07-09T11:06:50Z</time>
      </trkpt>
      <trkpt lat="46.13464" lon="4.38432">
        <ele>722</ele>
        <time>2015-07-09T11:07:28Z</time>
      </trkpt>
      <trkpt lat="46.13466" lon="4.38426">
        <ele>723</ele>
        <time>2015-07-09T11:07:30Z</time>
      </trkpt>
      <trkpt lat="46.13475" lon="4.38424">
        <ele>725</ele>
        <time>2015-07-09T11:07:40Z</time>
      </trkpt>
      <trkpt lat="46.13496" lon="4.38405">
        <ele>729</ele>
        <time>2015-07-09T11:08:09Z</time>
      </trkpt>
      <trkpt lat="46.13499" lon="4.38401">
        <ele>729</ele>
        <time>2015-07-09T11:08:14Z</time>
      </trkpt>
      <trkpt lat="46.13512" lon="4.3839">
        <ele>727</ele>
        <time>2015-07-09T11:08:27Z</time>
      </trkpt>
      <trkpt lat="46.13542" lon="4.38368">
        <ele>729</ele>
        <time>2015-07-09T11:08:57Z</time>
      </trkpt>
      <trkpt lat="46.13547" lon="4.38362">
        <ele>729</ele>
        <time>2015-07-09T11:09:03Z</time>
      </trkpt>
      <trkpt lat="46.13557" lon="4.3836">
        <ele>729</ele>
        <time>2015-07-09T11:09:10Z</time>
      </trkpt>
      <trkpt lat="46.13565" lon="4.38351">
        <ele>728</ele>
        <time>2015-07-09T11:09:19Z</time>
      </trkpt>
      <trkpt lat="46.13579" lon="4.38345">
        <ele>728</ele>
        <time>2015-07-09T11:09:31Z</time>
      </trkpt>
      <trkpt lat="46.13584" lon="4.38347">
        <ele>728</ele>
        <time>2015-07-09T11:09:34Z</time>
      </trkpt>
      <trkpt lat="46.13599" lon="4.38341">
        <ele>729</ele>
        <time>2015-07-09T11:09:45Z</time>
      </trkpt>
      <trkpt lat="46.13602" lon="4.38337">
        <ele>729</ele>
        <time>2015-07-09T11:09:55Z</time>
      </trkpt>
      <trkpt lat="46.13611" lon="4.3834">
        <ele>729</ele>
        <time>2015-07-09T11:10:09Z</time>
      </trkpt>
      <trkpt lat="46.13644" lon="4.38322">
        <ele>734</ele>
        <time>2015-07-09T11:10:36Z</time>
      </trkpt>
      <trkpt lat="46.1365" lon="4.38321">
        <ele>734</ele>
        <time>2015-07-09T11:10:40Z</time>
      </trkpt>
      <trkpt lat="46.13687" lon="4.38308">
        <ele>738</ele>
        <time>2015-07-09T11:11:15Z</time>
      </trkpt>
      <trkpt lat="46.13695" lon="4.38299">
        <ele>738</ele>
        <time>2015-07-09T11:11:23Z</time>
      </trkpt>
      <trkpt lat="46.137" lon="4.38287">
        <ele>738</ele>
        <time>2015-07-09T11:11:31Z</time>
      </trkpt>
      <trkpt lat="46.137" lon="4.38273">
        <ele>738</ele>
        <time>2015-07-09T11:11:40Z</time>
      </trkpt>
      <trkpt lat="46.13714" lon="4.38224">
        <ele>731</ele>
        <time>2015-07-09T11:12:17Z</time>
      </trkpt>
      <trkpt lat="46.13737" lon="4.38196">
        <ele>729</ele>
        <time>2015-07-09T11:12:42Z</time>
      </trkpt>
      <trkpt lat="46.13764" lon="4.38115">
        <ele>725</ele>
        <time>2015-07-09T11:13:39Z</time>
      </trkpt>
      <trkpt lat="46.13767" lon="4.38109">
        <ele>724</ele>
        <time>2015-07-09T11:13:43Z</time>
      </trkpt>
      <trkpt lat="46.13786" lon="4.38084">
        <ele>724</ele>
        <time>2015-07-09T11:14:05Z</time>
      </trkpt>
      <trkpt lat="46.1381" lon="4.38036">
        <ele>726</ele>
        <time>2015-07-09T11:14:43Z</time>
      </trkpt>
      <trkpt lat="46.13818" lon="4.3801">
        <ele>726</ele>
        <time>2015-07-09T11:15:00Z</time>
      </trkpt>
      <trkpt lat="46.13821" lon="4.3799">
        <ele>727</ele>
        <time>2015-07-09T11:15:13Z</time>
      </trkpt>
      <trkpt lat="46.13834" lon="4.37942">
        <ele>725</ele>
        <time>2015-07-09T11:15:46Z</time>
      </trkpt>
      <trkpt lat="46.13847" lon="4.37917">
        <ele>726</ele>
        <time>2015-07-09T11:16:03Z</time>
      </trkpt>
      <trkpt lat="46.13853" lon="4.37912">
        <ele>726</ele>
        <time>2015-07-09T11:16:07Z</time>
      </trkpt>
      <trkpt lat="46.13857" lon="4.37908">
        <ele>726</ele>
        <time>2015-07-09T11:16:11Z</time>
      </trkpt>
      <trkpt lat="46.13858" lon="4.37903">
        <ele>725</ele>
        <time>2015-07-09T11:16:15Z</time>
      </trkpt>
      <trkpt lat="46.13867" lon="4.37889">
        <ele>723</ele>
        <time>2015-07-09T11:16:57Z</time>
      </trkpt>
      <trkpt lat="46.13912" lon="4.37855">
        <ele>722</ele>
        <time>2015-07-09T11:17:46Z</time>
      </trkpt>
      <trkpt lat="46.13917" lon="4.37853">
        <ele>723</ele>
        <time>2015-07-09T11:17:50Z</time>
      </trkpt>
      <trkpt lat="46.13966" lon="4.37829">
        <ele>720</ele>
        <time>2015-07-09T11:18:30Z</time>
      </trkpt>
      <trkpt lat="46.1397" lon="4.37825">
        <ele>720</ele>
        <time>2015-07-09T11:18:34Z</time>
      </trkpt>
      <trkpt lat="46.14007" lon="4.37805">
        <ele>722</ele>
        <time>2015-07-09T11:19:10Z</time>
      </trkpt>
      <trkpt lat="46.14011" lon="4.37799">
        <ele>722</ele>
        <time>2015-07-09T11:19:15Z</time>
      </trkpt>
      <trkpt lat="46.14014" lon="4.37798">
        <ele>721</ele>
        <time>2015-07-09T11:19:17Z</time>
      </trkpt>
      <trkpt lat="46.14017" lon="4.378">
        <ele>721</ele>
        <time>2015-07-09T11:19:19Z</time>
      </trkpt>
      <trkpt lat="46.14026" lon="4.37794">
        <ele>722</ele>
        <time>2015-07-09T11:19:26Z</time>
      </trkpt>
      <trkpt lat="46.14049" lon="4.37783">
        <ele>719</ele>
        <time>2015-07-09T11:19:43Z</time>
      </trkpt>
      <trkpt lat="46.14053" lon="4.37782">
        <ele>720</ele>
        <time>2015-07-09T11:19:48Z</time>
      </trkpt>
      <trkpt lat="46.14057" lon="4.37781">
        <ele>720</ele>
        <time>2015-07-09T11:19:51Z</time>
      </trkpt>
      <trkpt lat="46.14095" lon="4.37772">
        <ele>722</ele>
        <time>2015-07-09T11:20:21Z</time>
      </trkpt>
      <trkpt lat="46.14103" lon="4.37771">
        <ele>723</ele>
        <time>2015-07-09T11:20:26Z</time>
      </trkpt>
      <trkpt lat="46.14119" lon="4.37769">
        <ele>725</ele>
        <time>2015-07-09T11:20:40Z</time>
      </trkpt>
      <trkpt lat="46.14124" lon="4.3777">
        <ele>725</ele>
        <time>2015-07-09T11:20:46Z</time>
      </trkpt>
      <trkpt lat="46.14164" lon="4.37782">
        <ele>726</ele>
        <time>2015-07-09T11:21:19Z</time>
      </trkpt>
      <trkpt lat="46.14173" lon="4.37788">
        <ele>726</ele>
        <time>2015-07-09T11:21:27Z</time>
      </trkpt>
      <trkpt lat="46.14178" lon="4.37789">
        <ele>726</ele>
        <time>2015-07-09T11:21:32Z</time>
      </trkpt>
      <trkpt lat="46.14198" lon="4.37777">
        <ele>727</ele>
        <time>2015-07-09T11:21:51Z</time>
      </trkpt>
      <trkpt lat="46.14205" lon="4.37769">
        <ele>728</ele>
        <time>2015-07-09T11:21:59Z</time>
      </trkpt>
      <trkpt lat="46.14201" lon="4.37757">
        <ele>728</ele>
        <time>2015-07-09T11:22:16Z</time>
      </trkpt>
      <trkpt lat="46.14198" lon="4.37752">
        <ele>729</ele>
        <time>2015-07-09T11:22:22Z</time>
      </trkpt>
      <trkpt lat="46.14194" lon="4.37738">
        <ele>726</ele>
        <time>2015-07-09T11:22:34Z</time>
      </trkpt>
      <trkpt lat="46.14197" lon="4.37728">
        <ele>726</ele>
        <time>2015-07-09T11:22:39Z</time>
      </trkpt>
      <trkpt lat="46.14196" lon="4.37721">
        <ele>725</ele>
        <time>2015-07-09T11:22:44Z</time>
      </trkpt>
      <trkpt lat="46.14193" lon="4.37715">
        <ele>727</ele>
        <time>2015-07-09T11:22:51Z</time>
      </trkpt>
      <trkpt lat="46.14189" lon="4.3771">
        <ele>726</ele>
        <time>2015-07-09T11:22:56Z</time>
      </trkpt>
      <trkpt lat="46.14176" lon="4.3769">
        <ele>727</ele>
        <time>2015-07-09T11:23:10Z</time>
      </trkpt>
      <trkpt lat="46.14151" lon="4.37667">
        <ele>729</ele>
        <time>2015-07-09T11:23:32Z</time>
      </trkpt>
      <trkpt lat="46.14148" lon="4.37656">
        <ele>730</ele>
        <time>2015-07-09T11:23:40Z</time>
      </trkpt>
      <trkpt lat="46.14149" lon="4.37648">
        <ele>731</ele>
        <time>2015-07-09T11:23:49Z</time>
      </trkpt>
      <trkpt lat="46.14141" lon="4.37617">
        <ele>733</ele>
        <time>2015-07-09T11:24:13Z</time>
      </trkpt>
      <trkpt lat="46.14137" lon="4.37616">
        <ele>734</ele>
        <time>2015-07-09T11:24:20Z</time>
      </trkpt>
      <trkpt lat="46.14137" lon="4.37594">
        <ele>736</ele>
        <time>2015-07-09T11:24:33Z</time>
      </trkpt>
      <trkpt lat="46.14141" lon="4.37586">
        <ele>737</ele>
        <time>2015-07-09T11:24:40Z</time>
      </trkpt>
      <trkpt lat="46.14144" lon="4.37581">
        <ele>737</ele>
        <time>2015-07-09T11:24:44Z</time>
      </trkpt>
      <trkpt lat="46.14142" lon="4.37578">
        <ele>737</ele>
        <time>2015-07-09T11:25:04Z</time>
      </trkpt>
      <trkpt lat="46.1418" lon="4.37497">
        <ele>743</ele>
        <time>2015-07-09T11:25:55Z</time>
      </trkpt>
      <trkpt lat="46.14199" lon="4.37473">
        <ele>737</ele>
        <time>2015-07-09T11:26:19Z</time>
      </trkpt>
      <trkpt lat="46.14225" lon="4.3745">
        <ele>747</ele>
        <time>2015-07-09T11:26:51Z</time>
      </trkpt>
      <trkpt lat="46.14229" lon="4.37448">
        <ele>747</ele>
        <time>2015-07-09T11:26:55Z</time>
      </trkpt>
      <trkpt lat="46.14239" lon="4.37443">
        <ele>746</ele>
        <time>2015-07-09T11:27:05Z</time>
      </trkpt>
      <trkpt lat="46.14246" lon="4.37434">
        <ele>745</ele>
        <time>2015-07-09T11:27:15Z</time>
      </trkpt>
      <trkpt lat="46.14247" lon="4.3743">
        <ele>745</ele>
        <time>2015-07-09T11:27:16Z</time>
      </trkpt>
      <trkpt lat="46.14293" lon="4.37375">
        <ele>750</ele>
        <time>2015-07-09T11:28:27Z</time>
      </trkpt>
      <trkpt lat="46.14297" lon="4.37371">
        <ele>750</ele>
        <time>2015-07-09T11:28:34Z</time>
      </trkpt>
      <trkpt lat="46.143" lon="4.37365">
        <ele>750</ele>
        <time>2015-07-09T11:28:38Z</time>
      </trkpt>
      <trkpt lat="46.14323" lon="4.3735">
        <ele>749</ele>
        <time>2015-07-09T11:29:01Z</time>
      </trkpt>
      <trkpt lat="46.14328" lon="4.37347">
        <ele>749</ele>
        <time>2015-07-09T11:29:07Z</time>
      </trkpt>
      <trkpt lat="46.14335" lon="4.37343">
        <ele>749</ele>
        <time>2015-07-09T11:29:13Z</time>
      </trkpt>
      <trkpt lat="46.14339" lon="4.37339">
        <ele>750</ele>
        <time>2015-07-09T11:29:22Z</time>
      </trkpt>
      <trkpt lat="46.1434" lon="4.37332">
        <ele>751</ele>
        <time>2015-07-09T11:29:26Z</time>
      </trkpt>
      <trkpt lat="46.14306" lon="4.37198">
        <ele>766</ele>
        <time>2015-07-09T11:31:08Z</time>
      </trkpt>
      <trkpt lat="46.14298" lon="4.37128">
        <ele>770</ele>
        <time>2015-07-09T11:31:58Z</time>
      </trkpt>
      <trkpt lat="46.14294" lon="4.37124">
        <ele>771</ele>
        <time>2015-07-09T11:32:15Z</time>
      </trkpt>
      <trkpt lat="46.1427" lon="4.37103">
        <ele>770</ele>
        <time>2015-07-09T11:32:41Z</time>
      </trkpt>
      <trkpt lat="46.14264" lon="4.371">
        <ele>770</ele>
        <time>2015-07-09T11:32:50Z</time>
      </trkpt>
      <trkpt lat="46.1425" lon="4.37096">
        <ele>770</ele>
        <time>2015-07-09T11:33:02Z</time>
      </trkpt>
      <trkpt lat="46.14246" lon="4.37094">
        <ele>770</ele>
        <time>2015-07-09T11:33:06Z</time>
      </trkpt>
      <trkpt lat="46.14217" lon="4.37074">
        <ele>771</ele>
        <time>2015-07-09T11:33:35Z</time>
      </trkpt>
      <trkpt lat="46.14197" lon="4.37067">
        <ele>777</ele>
        <time>2015-07-09T11:33:56Z</time>
      </trkpt>
      <trkpt lat="46.14193" lon="4.37068">
        <ele>776</ele>
        <time>2015-07-09T11:34:12Z</time>
      </trkpt>
      <trkpt lat="46.14184" lon="4.37061">
        <ele>775</ele>
        <time>2015-07-09T11:34:22Z</time>
      </trkpt>
      <trkpt lat="46.14159" lon="4.37054">
        <ele>779</ele>
        <time>2015-07-09T11:34:54Z</time>
      </trkpt>
      <trkpt lat="46.14154" lon="4.37055">
        <ele>780</ele>
        <time>2015-07-09T11:35:01Z</time>
      </trkpt>
      <trkpt lat="46.14145" lon="4.37062">
        <ele>782</ele>
        <time>2015-07-09T11:35:12Z</time>
      </trkpt>
      <trkpt lat="46.14115" lon="4.37065">
        <ele>785</ele>
        <time>2015-07-09T11:35:43Z</time>
      </trkpt>
      <trkpt lat="46.14094" lon="4.37061">
        <ele>788</ele>
        <time>2015-07-09T11:36:22Z</time>
      </trkpt>
      <trkpt lat="46.14074" lon="4.37062">
        <ele>789</ele>
        <time>2015-07-09T11:36:39Z</time>
      </trkpt>
      <trkpt lat="46.14067" lon="4.37053">
        <ele>789</ele>
        <time>2015-07-09T11:36:51Z</time>
      </trkpt>
      <trkpt lat="46.14063" lon="4.37051">
        <ele>789</ele>
        <time>2015-07-09T11:36:55Z</time>
      </trkpt>
      <trkpt lat="46.14058" lon="4.37047">
        <ele>788</ele>
        <time>2015-07-09T11:37:00Z</time>
      </trkpt>
      <trkpt lat="46.14054" lon="4.37045">
        <ele>790</ele>
        <time>2015-07-09T11:37:06Z</time>
      </trkpt>
      <trkpt lat="46.14047" lon="4.37035">
        <ele>790</ele>
        <time>2015-07-09T11:37:16Z</time>
      </trkpt>
      <trkpt lat="46.14037" lon="4.37002">
        <ele>790</ele>
        <time>2015-07-09T11:37:40Z</time>
      </trkpt>
      <trkpt lat="46.14034" lon="4.36997">
        <ele>790</ele>
        <time>2015-07-09T11:37:46Z</time>
      </trkpt>
      <trkpt lat="46.14033" lon="4.36983">
        <ele>789</ele>
        <time>2015-07-09T11:37:55Z</time>
      </trkpt>
      <trkpt lat="46.14032" lon="4.36976">
        <ele>789</ele>
        <time>2015-07-09T11:38:00Z</time>
      </trkpt>
      <trkpt lat="46.14028" lon="4.36971">
        <ele>788</ele>
        <time>2015-07-09T11:38:05Z</time>
      </trkpt>
      <trkpt lat="46.14027" lon="4.36964">
        <ele>788</ele>
        <time>2015-07-09T11:38:11Z</time>
      </trkpt>
      <trkpt lat="46.14018" lon="4.36953">
        <ele>791</ele>
        <time>2015-07-09T11:38:20Z</time>
      </trkpt>
      <trkpt lat="46.14019" lon="4.36939">
        <ele>793</ele>
        <time>2015-07-09T11:38:27Z</time>
      </trkpt>
      <trkpt lat="46.14018" lon="4.36924">
        <ele>793</ele>
        <time>2015-07-09T11:38:34Z</time>
      </trkpt>
      <trkpt lat="46.14011" lon="4.369">
        <ele>791</ele>
        <time>2015-07-09T11:38:48Z</time>
      </trkpt>
      <trkpt lat="46.1402" lon="4.36851">
        <ele>787</ele>
        <time>2015-07-09T11:39:38Z</time>
      </trkpt>
      <trkpt lat="46.1402" lon="4.36823">
        <ele>787</ele>
        <time>2015-07-09T11:39:56Z</time>
      </trkpt>
      <trkpt lat="46.14048" lon="4.36663">
        <ele>781</ele>
        <time>2015-07-09T11:41:50Z</time>
      </trkpt>
      <trkpt lat="46.14055" lon="4.36644">
        <ele>783</ele>
        <time>2015-07-09T11:41:59Z</time>
      </trkpt>
      <trkpt lat="46.14059" lon="4.36614">
        <ele>783</ele>
        <time>2015-07-09T11:42:17Z</time>
      </trkpt>
      <trkpt lat="46.14057" lon="4.36573">
        <ele>786</ele>
        <time>2015-07-09T11:42:37Z</time>
      </trkpt>
      <trkpt lat="46.14059" lon="4.36504">
        <ele>781</ele>
        <time>2015-07-09T11:43:22Z</time>
      </trkpt>
      <trkpt lat="46.14056" lon="4.36491">
        <ele>781</ele>
        <time>2015-07-09T11:43:30Z</time>
      </trkpt>
      <trkpt lat="46.14057" lon="4.36483">
        <ele>780</ele>
        <time>2015-07-09T11:43:35Z</time>
      </trkpt>
      <trkpt lat="46.14055" lon="4.36477">
        <ele>779</ele>
        <time>2015-07-09T11:43:39Z</time>
      </trkpt>
      <trkpt lat="46.14053" lon="4.36448">
        <ele>779</ele>
        <time>2015-07-09T11:43:55Z</time>
      </trkpt>
      <trkpt lat="46.14057" lon="4.36411">
        <ele>778</ele>
        <time>2015-07-09T11:44:19Z</time>
      </trkpt>
      <trkpt lat="46.14061" lon="4.36398">
        <ele>778</ele>
        <time>2015-07-09T11:44:29Z</time>
      </trkpt>
      <trkpt lat="46.14059" lon="4.36389">
        <ele>778</ele>
        <time>2015-07-09T11:45:48Z</time>
      </trkpt>
      <trkpt lat="46.14057" lon="4.36386">
        <ele>779</ele>
        <time>2015-07-09T11:45:56Z</time>
      </trkpt>
      <trkpt lat="46.14063" lon="4.36383">
        <ele>779</ele>
        <time>2015-07-09T11:46:13Z</time>
      </trkpt>
      <trkpt lat="46.14065" lon="4.36388">
        <ele>779</ele>
        <time>2015-07-09T11:46:22Z</time>
      </trkpt>
      <trkpt lat="46.14063" lon="4.36389">
        <ele>779</ele>
        <time>2015-07-09T11:46:37Z</time>
      </trkpt>
      <trkpt lat="46.14055" lon="4.3639">
        <ele>779</ele>
        <time>2015-07-09T11:46:51Z</time>
      </trkpt>
      <trkpt lat="46.14041" lon="4.36382">
        <ele>776</ele>
        <time>2015-07-09T11:47:03Z</time>
      </trkpt>
      <trkpt lat="46.14036" lon="4.36381">
        <ele>776</ele>
        <time>2015-07-09T11:47:08Z</time>
      </trkpt>
      <trkpt lat="46.14021" lon="4.36381">
        <ele>775</ele>
        <time>2015-07-09T11:47:21Z</time>
      </trkpt>
      <trkpt lat="46.14017" lon="4.36379">
        <ele>775</ele>
        <time>2015-07-09T11:47:25Z</time>
      </trkpt>
      <trkpt lat="46.14001" lon="4.36364">
        <ele>781</ele>
        <time>2015-07-09T11:47:41Z</time>
      </trkpt>
      <trkpt lat="46.13985" lon="4.36337">
        <ele>778</ele>
        <time>2015-07-09T11:48:02Z</time>
      </trkpt>
      <trkpt lat="46.13981" lon="4.36332">
        <ele>779</ele>
        <time>2015-07-09T11:48:07Z</time>
      </trkpt>
      <trkpt lat="46.13976" lon="4.3633">
        <ele>779</ele>
        <time>2015-07-09T11:48:10Z</time>
      </trkpt>
      <trkpt lat="46.13968" lon="4.36322">
        <ele>779</ele>
        <time>2015-07-09T11:48:19Z</time>
      </trkpt>
      <trkpt lat="46.13935" lon="4.36274">
        <ele>786</ele>
        <time>2015-07-09T11:49:00Z</time>
      </trkpt>
      <trkpt lat="46.13894" lon="4.36227">
        <ele>788</ele>
        <time>2015-07-09T11:49:43Z</time>
      </trkpt>
      <trkpt lat="46.1387" lon="4.36189">
        <ele>792</ele>
        <time>2015-07-09T11:50:17Z</time>
      </trkpt>
      <trkpt lat="46.13868" lon="4.36181">
        <ele>793</ele>
        <time>2015-07-09T11:50:22Z</time>
      </trkpt>
      <trkpt lat="46.13853" lon="4.36162">
        <ele>795</ele>
        <time>2015-07-09T11:50:37Z</time>
      </trkpt>
      <trkpt lat="46.13834" lon="4.36128">
        <ele>795</ele>
        <time>2015-07-09T11:50:59Z</time>
      </trkpt>
      <trkpt lat="46.13838" lon="4.3603">
        <ele>795</ele>
        <time>2015-07-09T11:51:53Z</time>
      </trkpt>
      <trkpt lat="46.13826" lon="4.35983">
        <ele>794</ele>
        <time>2015-07-09T11:52:20Z</time>
      </trkpt>
      <trkpt lat="46.13818" lon="4.35965">
        <ele>796</ele>
        <time>2015-07-09T11:52:35Z</time>
      </trkpt>
      <trkpt lat="46.13817" lon="4.35936">
        <ele>795</ele>
        <time>2015-07-09T11:52:54Z</time>
      </trkpt>
      <trkpt lat="46.13812" lon="4.35923">
        <ele>795</ele>
        <time>2015-07-09T11:53:03Z</time>
      </trkpt>
      <trkpt lat="46.13812" lon="4.35916">
        <ele>795</ele>
        <time>2015-07-09T11:53:07Z</time>
      </trkpt>
      <trkpt lat="46.13816" lon="4.35904">
        <ele>795</ele>
        <time>2015-07-09T11:53:13Z</time>
      </trkpt>
      <trkpt lat="46.13828" lon="4.35879">
        <ele>795</ele>
        <time>2015-07-09T11:53:23Z</time>
      </trkpt>
      <trkpt lat="46.13829" lon="4.35865">
        <ele>796</ele>
        <time>2015-07-09T11:53:31Z</time>
      </trkpt>
      <trkpt lat="46.13828" lon="4.35852">
        <ele>796</ele>
        <time>2015-07-09T11:53:37Z</time>
      </trkpt>
      <trkpt lat="46.13829" lon="4.35839">
        <ele>796</ele>
        <time>2015-07-09T11:53:49Z</time>
      </trkpt>
      <trkpt lat="46.13846" lon="4.35807">
        <ele>796</ele>
        <time>2015-07-09T11:54:11Z</time>
      </trkpt>
      <trkpt lat="46.1384" lon="4.35738">
        <ele>796</ele>
        <time>2015-07-09T11:54:44Z</time>
      </trkpt>
      <trkpt lat="46.13843" lon="4.35732">
        <ele>796</ele>
        <time>2015-07-09T11:54:46Z</time>
      </trkpt>
      <trkpt lat="46.13847" lon="4.35727">
        <ele>796</ele>
        <time>2015-07-09T11:54:49Z</time>
      </trkpt>
      <trkpt lat="46.13847" lon="4.3571">
        <ele>796</ele>
        <time>2015-07-09T11:54:56Z</time>
      </trkpt>
      <trkpt lat="46.13844" lon="4.35698">
        <ele>797</ele>
        <time>2015-07-09T11:55:04Z</time>
      </trkpt>
      <trkpt lat="46.13834" lon="4.35693">
        <ele>797</ele>
        <time>2015-07-09T11:55:09Z</time>
      </trkpt>
      <trkpt lat="46.13824" lon="4.35678">
        <ele>797</ele>
        <time>2015-07-09T11:55:20Z</time>
      </trkpt>
      <trkpt lat="46.13821" lon="4.35651">
        <ele>796</ele>
        <time>2015-07-09T11:55:34Z</time>
      </trkpt>
      <trkpt lat="46.13802" lon="4.35589">
        <ele>796</ele>
        <time>2015-07-09T11:56:12Z</time>
      </trkpt>
      <trkpt lat="46.13797" lon="4.35535">
        <ele>794</ele>
        <time>2015-07-09T11:56:45Z</time>
      </trkpt>
      <trkpt lat="46.13781" lon="4.35499">
        <ele>799</ele>
        <time>2015-07-09T11:57:06Z</time>
      </trkpt>
      <trkpt lat="46.13776" lon="4.35495">
        <ele>799</ele>
        <time>2015-07-09T11:57:21Z</time>
      </trkpt>
      <trkpt lat="46.13774" lon="4.35486">
        <ele>792</ele>
        <time>2015-07-09T11:57:59Z</time>
      </trkpt>
      <trkpt lat="46.13762" lon="4.35461">
        <ele>795</ele>
        <time>2015-07-09T11:58:16Z</time>
      </trkpt>
      <trkpt lat="46.13761" lon="4.35454">
        <ele>797</ele>
        <time>2015-07-09T11:58:20Z</time>
      </trkpt>
      <trkpt lat="46.13756" lon="4.35442">
        <ele>798</ele>
        <time>2015-07-09T11:58:27Z</time>
      </trkpt>
      <trkpt lat="46.13753" lon="4.3542">
        <ele>797</ele>
        <time>2015-07-09T11:58:40Z</time>
      </trkpt>
      <trkpt lat="46.13752" lon="4.35405">
        <ele>798</ele>
        <time>2015-07-09T11:58:48Z</time>
      </trkpt>
      <trkpt lat="46.13746" lon="4.35392">
        <ele>798</ele>
        <time>2015-07-09T11:58:56Z</time>
      </trkpt>
      <trkpt lat="46.13744" lon="4.35379">
        <ele>797</ele>
        <time>2015-07-09T11:59:06Z</time>
      </trkpt>
      <trkpt lat="46.13728" lon="4.35332">
        <ele>787</ele>
        <time>2015-07-09T11:59:37Z</time>
      </trkpt>
      <trkpt lat="46.13724" lon="4.35326">
        <ele>786</ele>
        <time>2015-07-09T11:59:42Z</time>
      </trkpt>
      <trkpt lat="46.13692" lon="4.35289">
        <ele>785</ele>
        <time>2015-07-09T12:00:14Z</time>
      </trkpt>
      <trkpt lat="46.13596" lon="4.35216">
        <ele>783</ele>
        <time>2015-07-09T12:01:42Z</time>
      </trkpt>
      <trkpt lat="46.13593" lon="4.3521">
        <ele>783</ele>
        <time>2015-07-09T12:01:48Z</time>
      </trkpt>
      <trkpt lat="46.13593" lon="4.35203">
        <ele>783</ele>
        <time>2015-07-09T12:01:53Z</time>
      </trkpt>
      <trkpt lat="46.13589" lon="4.35197">
        <ele>782</ele>
        <time>2015-07-09T12:02:00Z</time>
      </trkpt>
      <trkpt lat="46.13584" lon="4.35186">
        <ele>782</ele>
        <time>2015-07-09T12:02:07Z</time>
      </trkpt>
      <trkpt lat="46.13584" lon="4.35178">
        <ele>782</ele>
        <time>2015-07-09T12:02:11Z</time>
      </trkpt>
      <trkpt lat="46.13586" lon="4.35171">
        <ele>782</ele>
        <time>2015-07-09T12:02:15Z</time>
      </trkpt>
      <trkpt lat="46.13587" lon="4.35163">
        <ele>783</ele>
        <time>2015-07-09T12:02:22Z</time>
      </trkpt>
      <trkpt lat="46.13588" lon="4.35141">
        <ele>783</ele>
        <time>2015-07-09T12:02:34Z</time>
      </trkpt>
      <trkpt lat="46.13595" lon="4.35115">
        <ele>779</ele>
        <time>2015-07-09T12:02:55Z</time>
      </trkpt>
      <trkpt lat="46.13597" lon="4.35092">
        <ele>781</ele>
        <time>2015-07-09T12:03:07Z</time>
      </trkpt>
      <trkpt lat="46.13602" lon="4.35011">
        <ele>777</ele>
        <time>2015-07-09T12:04:00Z</time>
      </trkpt>
      <trkpt lat="46.136" lon="4.34998">
        <ele>776</ele>
        <time>2015-07-09T12:04:07Z</time>
      </trkpt>
      <trkpt lat="46.13603" lon="4.34992">
        <ele>777</ele>
        <time>2015-07-09T12:04:12Z</time>
      </trkpt>
      <trkpt lat="46.13602" lon="4.34985">
        <ele>777</ele>
        <time>2015-07-09T12:04:16Z</time>
      </trkpt>
      <trkpt lat="46.136" lon="4.34979">
        <ele>777</ele>
        <time>2015-07-09T12:04:20Z</time>
      </trkpt>
      <trkpt lat="46.13594" lon="4.34952">
        <ele>776</ele>
        <time>2015-07-09T12:04:36Z</time>
      </trkpt>
      <trkpt lat="46.13592" lon="4.34924">
        <ele>777</ele>
        <time>2015-07-09T12:04:52Z</time>
      </trkpt>
      <trkpt lat="46.13592" lon="4.34897">
        <ele>778</ele>
        <time>2015-07-09T12:05:05Z</time>
      </trkpt>
      <trkpt lat="46.13588" lon="4.34884">
        <ele>778</ele>
        <time>2015-07-09T12:05:12Z</time>
      </trkpt>
      <trkpt lat="46.13582" lon="4.34845">
        <ele>781</ele>
        <time>2015-07-09T12:05:47Z</time>
      </trkpt>
      <trkpt lat="46.13576" lon="4.34835">
        <ele>781</ele>
        <time>2015-07-09T12:05:57Z</time>
      </trkpt>
      <trkpt lat="46.13567" lon="4.34796">
        <ele>768</ele>
        <time>2015-07-09T12:06:18Z</time>
      </trkpt>
      <trkpt lat="46.13569" lon="4.34783">
        <ele>767</ele>
        <time>2015-07-09T12:06:27Z</time>
      </trkpt>
      <trkpt lat="46.1356" lon="4.34726">
        <ele>766</ele>
        <time>2015-07-09T12:06:58Z</time>
      </trkpt>
      <trkpt lat="46.13559" lon="4.3467">
        <ele>765</ele>
        <time>2015-07-09T12:07:29Z</time>
      </trkpt>
      <trkpt lat="46.1356" lon="4.34664">
        <ele>765</ele>
        <time>2015-07-09T12:07:33Z</time>
      </trkpt>
      <trkpt lat="46.1356" lon="4.34636">
        <ele>763</ele>
        <time>2015-07-09T12:07:53Z</time>
      </trkpt>
      <trkpt lat="46.13555" lon="4.34606">
        <ele>762</ele>
        <time>2015-07-09T12:08:09Z</time>
      </trkpt>
      <trkpt lat="46.13558" lon="4.346">
        <ele>761</ele>
        <time>2015-07-09T12:08:14Z</time>
      </trkpt>
      <trkpt lat="46.13559" lon="4.34594">
        <ele>761</ele>
        <time>2015-07-09T12:08:20Z</time>
      </trkpt>
      <trkpt lat="46.13546" lon="4.34572">
        <ele>759</ele>
        <time>2015-07-09T12:08:32Z</time>
      </trkpt>
      <trkpt lat="46.13528" lon="4.3456">
        <ele>758</ele>
        <time>2015-07-09T12:08:46Z</time>
      </trkpt>
      <trkpt lat="46.13515" lon="4.3454">
        <ele>763</ele>
        <time>2015-07-09T12:09:06Z</time>
      </trkpt>
      <trkpt lat="46.13508" lon="4.34512">
        <ele>765</ele>
        <time>2015-07-09T12:09:20Z</time>
      </trkpt>
      <trkpt lat="46.13492" lon="4.34477">
        <ele>766</ele>
        <time>2015-07-09T12:09:44Z</time>
      </trkpt>
      <trkpt lat="46.13485" lon="4.34452">
        <ele>766</ele>
        <time>2015-07-09T12:10:01Z</time>
      </trkpt>
      <trkpt lat="46.13481" lon="4.34409">
        <ele>765</ele>
        <time>2015-07-09T12:10:27Z</time>
      </trkpt>
      <trkpt lat="46.13476" lon="4.34398">
        <ele>764</ele>
        <time>2015-07-09T12:10:31Z</time>
      </trkpt>
      <trkpt lat="46.13476" lon="4.34385">
        <ele>763</ele>
        <time>2015-07-09T12:10:37Z</time>
      </trkpt>
      <trkpt lat="46.13478" lon="4.34371">
        <ele>762</ele>
        <time>2015-07-09T12:10:46Z</time>
      </trkpt>
      <trkpt lat="46.13473" lon="4.34359">
        <ele>760</ele>
        <time>2015-07-09T12:10:54Z</time>
      </trkpt>
      <trkpt lat="46.1347" lon="4.34333">
        <ele>758</ele>
        <time>2015-07-09T12:11:11Z</time>
      </trkpt>
      <trkpt lat="46.13459" lon="4.34292">
        <ele>755</ele>
        <time>2015-07-09T12:11:37Z</time>
      </trkpt>
      <trkpt lat="46.13437" lon="4.34274">
        <ele>751</ele>
        <time>2015-07-09T12:12:02Z</time>
      </trkpt>
      <trkpt lat="46.13414" lon="4.34232">
        <ele>754</ele>
        <time>2015-07-09T12:12:36Z</time>
      </trkpt>
      <trkpt lat="46.13405" lon="4.34178">
        <ele>755</ele>
        <time>2015-07-09T12:13:10Z</time>
      </trkpt>
      <trkpt lat="46.13406" lon="4.34165">
        <ele>755</ele>
        <time>2015-07-09T12:13:17Z</time>
      </trkpt>
      <trkpt lat="46.13411" lon="4.34129">
        <ele>753</ele>
        <time>2015-07-09T12:13:36Z</time>
      </trkpt>
      <trkpt lat="46.13415" lon="4.34114">
        <ele>751</ele>
        <time>2015-07-09T12:13:44Z</time>
      </trkpt>
      <trkpt lat="46.13415" lon="4.34099">
        <ele>750</ele>
        <time>2015-07-09T12:13:53Z</time>
      </trkpt>
      <trkpt lat="46.13412" lon="4.34084">
        <ele>749</ele>
        <time>2015-07-09T12:14:01Z</time>
      </trkpt>
      <trkpt lat="46.13409" lon="4.34075">
        <ele>749</ele>
        <time>2015-07-09T12:14:04Z</time>
      </trkpt>
      <trkpt lat="46.13408" lon="4.34066">
        <ele>748</ele>
        <time>2015-07-09T12:14:10Z</time>
      </trkpt>
      <trkpt lat="46.13404" lon="4.34062">
        <ele>747</ele>
        <time>2015-07-09T12:14:14Z</time>
      </trkpt>
      <trkpt lat="46.13408" lon="4.34049">
        <ele>747</ele>
        <time>2015-07-09T12:14:26Z</time>
      </trkpt>
      <trkpt lat="46.13411" lon="4.34037">
        <ele>746</ele>
        <time>2015-07-09T12:14:34Z</time>
      </trkpt>
      <trkpt lat="46.13408" lon="4.3403">
        <ele>746</ele>
        <time>2015-07-09T12:14:39Z</time>
      </trkpt>
      <trkpt lat="46.13401" lon="4.3402">
        <ele>747</ele>
        <time>2015-07-09T12:14:46Z</time>
      </trkpt>
      <trkpt lat="46.13393" lon="4.33982">
        <ele>749</ele>
        <time>2015-07-09T12:15:08Z</time>
      </trkpt>
      <trkpt lat="46.13386" lon="4.33973">
        <ele>749</ele>
        <time>2015-07-09T12:15:12Z</time>
      </trkpt>
      <trkpt lat="46.13386" lon="4.33947">
        <ele>750</ele>
        <time>2015-07-09T12:15:34Z</time>
      </trkpt>
      <trkpt lat="46.13385" lon="4.33933">
        <ele>750</ele>
        <time>2015-07-09T12:15:42Z</time>
      </trkpt>
      <trkpt lat="46.13379" lon="4.33922">
        <ele>750</ele>
        <time>2015-07-09T12:15:48Z</time>
      </trkpt>
      <trkpt lat="46.13374" lon="4.33909">
        <ele>751</ele>
        <time>2015-07-09T12:15:57Z</time>
      </trkpt>
      <trkpt lat="46.13374" lon="4.33902">
        <ele>751</ele>
        <time>2015-07-09T12:16:01Z</time>
      </trkpt>
      <trkpt lat="46.13376" lon="4.33895">
        <ele>751</ele>
        <time>2015-07-09T12:16:05Z</time>
      </trkpt>
      <trkpt lat="46.13375" lon="4.33887">
        <ele>751</ele>
        <time>2015-07-09T12:16:11Z</time>
      </trkpt>
      <trkpt lat="46.13375" lon="4.33881">
        <ele>751</ele>
        <time>2015-07-09T12:16:15Z</time>
      </trkpt>
      <trkpt lat="46.13371" lon="4.33838">
        <ele>755</ele>
        <time>2015-07-09T12:16:38Z</time>
      </trkpt>
      <trkpt lat="46.1338" lon="4.33805">
        <ele>750</ele>
        <time>2015-07-09T12:17:04Z</time>
      </trkpt>
      <trkpt lat="46.13381" lon="4.33798">
        <ele>750</ele>
        <time>2015-07-09T12:17:08Z</time>
      </trkpt>
      <trkpt lat="46.13381" lon="4.33771">
        <ele>751</ele>
        <time>2015-07-09T12:17:24Z</time>
      </trkpt>
      <trkpt lat="46.13373" lon="4.33742">
        <ele>750</ele>
        <time>2015-07-09T12:17:41Z</time>
      </trkpt>
      <trkpt lat="46.13356" lon="4.33698">
        <ele>749</ele>
        <time>2015-07-09T12:18:09Z</time>
      </trkpt>
      <trkpt lat="46.13327" lon="4.33655">
        <ele>746</ele>
        <time>2015-07-09T12:18:46Z</time>
      </trkpt>
      <trkpt lat="46.13323" lon="4.33651">
        <ele>746</ele>
        <time>2015-07-09T12:18:50Z</time>
      </trkpt>
      <trkpt lat="46.13314" lon="4.33635">
        <ele>747</ele>
        <time>2015-07-09T12:19:03Z</time>
      </trkpt>
      <trkpt lat="46.13309" lon="4.3363">
        <ele>746</ele>
        <time>2015-07-09T12:19:11Z</time>
      </trkpt>
      <trkpt lat="46.13298" lon="4.33615">
        <ele>746</ele>
        <time>2015-07-09T12:19:25Z</time>
      </trkpt>
      <trkpt lat="46.13294" lon="4.33611">
        <ele>745</ele>
        <time>2015-07-09T12:19:32Z</time>
      </trkpt>
      <trkpt lat="46.1329" lon="4.33606">
        <ele>745</ele>
        <time>2015-07-09T12:19:36Z</time>
      </trkpt>
      <trkpt lat="46.13285" lon="4.33603">
        <ele>745</ele>
        <time>2015-07-09T12:19:40Z</time>
      </trkpt>
      <trkpt lat="46.13267" lon="4.33591">
        <ele>744</ele>
        <time>2015-07-09T12:20:04Z</time>
      </trkpt>
      <trkpt lat="46.13258" lon="4.33587">
        <ele>742</ele>
        <time>2015-07-09T12:20:10Z</time>
      </trkpt>
      <trkpt lat="46.13226" lon="4.33559">
        <ele>733</ele>
        <time>2015-07-09T12:20:44Z</time>
      </trkpt>
      <trkpt lat="46.13215" lon="4.33537">
        <ele>730</ele>
        <time>2015-07-09T12:21:08Z</time>
      </trkpt>
      <trkpt lat="46.13203" lon="4.33492">
        <ele>727</ele>
        <time>2015-07-09T12:22:23Z</time>
      </trkpt>
      <trkpt lat="46.13202" lon="4.33466">
        <ele>725</ele>
        <time>2015-07-09T12:22:57Z</time>
      </trkpt>
      <trkpt lat="46.1321" lon="4.33441">
        <ele>723</ele>
        <time>2015-07-09T12:23:13Z</time>
      </trkpt>
      <trkpt lat="46.13206" lon="4.33429">
        <ele>722</ele>
        <time>2015-07-09T12:23:23Z</time>
      </trkpt>
      <trkpt lat="46.13207" lon="4.33416">
        <ele>722</ele>
        <time>2015-07-09T12:23:29Z</time>
      </trkpt>
      <trkpt lat="46.132" lon="4.33392">
        <ele>721</ele>
        <time>2015-07-09T12:23:44Z</time>
      </trkpt>
      <trkpt lat="46.13193" lon="4.33382">
        <ele>720</ele>
        <time>2015-07-09T12:23:51Z</time>
      </trkpt>
      <trkpt lat="46.13187" lon="4.33366">
        <ele>720</ele>
        <time>2015-07-09T12:24:00Z</time>
      </trkpt>
      <trkpt lat="46.13172" lon="4.33351">
        <ele>718</ele>
        <time>2015-07-09T12:24:14Z</time>
      </trkpt>
      <trkpt lat="46.13133" lon="4.33214">
        <ele>709</ele>
        <time>2015-07-09T12:25:46Z</time>
      </trkpt>
      <trkpt lat="46.13139" lon="4.33203">
        <ele>709</ele>
        <time>2015-07-09T12:25:54Z</time>
      </trkpt>
      <trkpt lat="46.13198" lon="4.33058">
        <ele>699</ele>
        <time>2015-07-09T12:27:52Z</time>
      </trkpt>
      <trkpt lat="46.13211" lon="4.33">
        <ele>695</ele>
        <time>2015-07-09T12:28:34Z</time>
      </trkpt>
      <trkpt lat="46.13211" lon="4.32986">
        <ele>696</ele>
        <time>2015-07-09T12:28:54Z</time>
      </trkpt>
      <trkpt lat="46.13204" lon="4.32976">
        <ele>695</ele>
        <time>2015-07-09T12:29:03Z</time>
      </trkpt>
      <trkpt lat="46.13203" lon="4.32969">
        <ele>695</ele>
        <time>2015-07-09T12:29:12Z</time>
      </trkpt>
      <trkpt lat="46.13207" lon="4.32948">
        <ele>692</ele>
        <time>2015-07-09T12:29:25Z</time>
      </trkpt>
      <trkpt lat="46.13209" lon="4.32941">
        <ele>691</ele>
        <time>2015-07-09T12:29:30Z</time>
      </trkpt>
      <trkpt lat="46.13207" lon="4.32914">
        <ele>691</ele>
        <time>2015-07-09T12:29:51Z</time>
      </trkpt>
      <trkpt lat="46.13207" lon="4.3291">
        <ele>691</ele>
        <time>2015-07-09T12:30:08Z</time>
      </trkpt>
      <trkpt lat="46.13209" lon="4.32903">
        <ele>689</ele>
        <time>2015-07-09T12:30:59Z</time>
      </trkpt>
      <trkpt lat="46.1321" lon="4.32896">
        <ele>689</ele>
        <time>2015-07-09T12:31:08Z</time>
      </trkpt>
      <trkpt lat="46.1321" lon="4.32896">
        <ele>691</ele>
        <time>2015-07-09T12:46:22Z</time>
      </trkpt>
      <trkpt lat="46.13213" lon="4.32888">
        <ele>691</ele>
        <time>2015-07-09T12:46:33Z</time>
      </trkpt>
      <trkpt lat="46.13216" lon="4.32882">
        <ele>690</ele>
        <time>2015-07-09T12:46:38Z</time>
      </trkpt>
      <trkpt lat="46.1322" lon="4.32868">
        <ele>689</ele>
        <time>2015-07-09T12:46:47Z</time>
      </trkpt>
      <trkpt lat="46.13225" lon="4.32863">
        <ele>690</ele>
        <time>2015-07-09T12:46:51Z</time>
      </trkpt>
      <trkpt lat="46.13234" lon="4.32798">
        <ele>692</ele>
        <time>2015-07-09T12:47:40Z</time>
      </trkpt>
      <trkpt lat="46.13248" lon="4.32759">
        <ele>696</ele>
        <time>2015-07-09T12:48:12Z</time>
      </trkpt>
      <trkpt lat="46.13271" lon="4.32724">
        <ele>700</ele>
        <time>2015-07-09T12:48:48Z</time>
      </trkpt>
      <trkpt lat="46.13273" lon="4.32713">
        <ele>702</ele>
        <time>2015-07-09T12:49:35Z</time>
      </trkpt>
      <trkpt lat="46.1327" lon="4.32684">
        <ele>704</ele>
        <time>2015-07-09T12:49:53Z</time>
      </trkpt>
      <trkpt lat="46.13282" lon="4.32636">
        <ele>708</ele>
        <time>2015-07-09T12:50:26Z</time>
      </trkpt>
      <trkpt lat="46.13272" lon="4.32635">
        <ele>708</ele>
        <time>2015-07-09T12:50:38Z</time>
      </trkpt>
      <trkpt lat="46.13268" lon="4.32631">
        <ele>709</ele>
        <time>2015-07-09T12:51:30Z</time>
      </trkpt>
      <trkpt lat="46.13259" lon="4.3263">
        <ele>710</ele>
        <time>2015-07-09T12:51:44Z</time>
      </trkpt>
      <trkpt lat="46.13246" lon="4.32649">
        <ele>713</ele>
        <time>2015-07-09T12:52:04Z</time>
      </trkpt>
      <trkpt lat="46.13218" lon="4.32665">
        <ele>715</ele>
        <time>2015-07-09T12:52:33Z</time>
      </trkpt>
      <trkpt lat="46.13217" lon="4.32676">
        <ele>716</ele>
        <time>2015-07-09T12:52:51Z</time>
      </trkpt>
      <trkpt lat="46.13207" lon="4.32678">
        <ele>716</ele>
        <time>2015-07-09T12:52:57Z</time>
      </trkpt>
      <trkpt lat="46.13167" lon="4.3268">
        <ele>720</ele>
        <time>2015-07-09T12:53:34Z</time>
      </trkpt>
      <trkpt lat="46.13131" lon="4.3267">
        <ele>724</ele>
        <time>2015-07-09T12:54:06Z</time>
      </trkpt>
      <trkpt lat="46.13134" lon="4.32662">
        <ele>725</ele>
        <time>2015-07-09T12:54:20Z</time>
      </trkpt>
      <trkpt lat="46.13142" lon="4.32639">
        <ele>729</ele>
        <time>2015-07-09T12:55:07Z</time>
      </trkpt>
      <trkpt lat="46.13143" lon="4.3263">
        <ele>727</ele>
        <time>2015-07-09T12:56:15Z</time>
      </trkpt>
      <trkpt lat="46.13147" lon="4.32626">
        <ele>729</ele>
        <time>2015-07-09T12:56:24Z</time>
      </trkpt>
      <trkpt lat="46.13155" lon="4.32615">
        <ele>730</ele>
        <time>2015-07-09T12:57:36Z</time>
      </trkpt>
      <trkpt lat="46.13156" lon="4.32601">
        <ele>732</ele>
        <time>2015-07-09T12:57:48Z</time>
      </trkpt>
      <trkpt lat="46.13173" lon="4.32567">
        <ele>738</ele>
        <time>2015-07-09T12:58:18Z</time>
      </trkpt>
      <trkpt lat="46.13177" lon="4.32556">
        <ele>739</ele>
        <time>2015-07-09T12:58:29Z</time>
      </trkpt>
      <trkpt lat="46.13169" lon="4.32503">
        <ele>745</ele>
        <time>2015-07-09T12:59:12Z</time>
      </trkpt>
      <trkpt lat="46.13165" lon="4.3249">
        <ele>746</ele>
        <time>2015-07-09T12:59:26Z</time>
      </trkpt>
      <trkpt lat="46.13165" lon="4.32485">
        <ele>748</ele>
        <time>2015-07-09T12:59:33Z</time>
      </trkpt>
      <trkpt lat="46.13154" lon="4.32455">
        <ele>751</ele>
        <time>2015-07-09T13:00:04Z</time>
      </trkpt>
      <trkpt lat="46.13137" lon="4.3244">
        <ele>754</ele>
        <time>2015-07-09T13:00:25Z</time>
      </trkpt>
      <trkpt lat="46.13135" lon="4.32434">
        <ele>755</ele>
        <time>2015-07-09T13:00:34Z</time>
      </trkpt>
      <trkpt lat="46.13115" lon="4.32402">
        <ele>758</ele>
        <time>2015-07-09T13:01:07Z</time>
      </trkpt>
      <trkpt lat="46.13114" lon="4.32389">
        <ele>759</ele>
        <time>2015-07-09T13:01:15Z</time>
      </trkpt>
      <trkpt lat="46.13106" lon="4.3238">
        <ele>760</ele>
        <time>2015-07-09T13:01:28Z</time>
      </trkpt>
      <trkpt lat="46.13111" lon="4.32366">
        <ele>760</ele>
        <time>2015-07-09T13:01:46Z</time>
      </trkpt>
      <trkpt lat="46.13113" lon="4.32353">
        <ele>761</ele>
        <time>2015-07-09T13:01:56Z</time>
      </trkpt>
      <trkpt lat="46.13075" lon="4.32279">
        <ele>768</ele>
        <time>2015-07-09T13:03:11Z</time>
      </trkpt>
      <trkpt lat="46.13063" lon="4.3226">
        <ele>771</ele>
        <time>2015-07-09T13:03:46Z</time>
      </trkpt>
      <trkpt lat="46.13014" lon="4.32219">
        <ele>775</ele>
        <time>2015-07-09T13:04:49Z</time>
      </trkpt>
      <trkpt lat="46.12989" lon="4.32177">
        <ele>777</ele>
        <time>2015-07-09T13:05:29Z</time>
      </trkpt>
      <trkpt lat="46.12985" lon="4.3217">
        <ele>778</ele>
        <time>2015-07-09T13:05:50Z</time>
      </trkpt>
      <trkpt lat="46.12979" lon="4.32163">
        <ele>778</ele>
        <time>2015-07-09T13:07:53Z</time>
      </trkpt>
      <trkpt lat="46.12976" lon="4.3215">
        <ele>778</ele>
        <time>2015-07-09T13:08:33Z</time>
      </trkpt>
      <trkpt lat="46.12972" lon="4.32112">
        <ele>777</ele>
        <time>2015-07-09T13:09:05Z</time>
      </trkpt>
      <trkpt lat="46.12976" lon="4.32057">
        <ele>775</ele>
        <time>2015-07-09T13:09:43Z</time>
      </trkpt>
      <trkpt lat="46.12996" lon="4.32009">
        <ele>773</ele>
        <time>2015-07-09T13:10:19Z</time>
      </trkpt>
      <trkpt lat="46.1301" lon="4.31989">
        <ele>773</ele>
        <time>2015-07-09T13:10:33Z</time>
      </trkpt>
      <trkpt lat="46.13012" lon="4.31976">
        <ele>772</ele>
        <time>2015-07-09T13:10:40Z</time>
      </trkpt>
      <trkpt lat="46.13033" lon="4.31911">
        <ele>770</ele>
        <time>2015-07-09T13:11:20Z</time>
      </trkpt>
      <trkpt lat="46.13035" lon="4.31898">
        <ele>769</ele>
        <time>2015-07-09T13:11:29Z</time>
      </trkpt>
      <trkpt lat="46.13048" lon="4.31864">
        <ele>767</ele>
        <time>2015-07-09T13:11:51Z</time>
      </trkpt>
      <trkpt lat="46.13048" lon="4.31849">
        <ele>766</ele>
        <time>2015-07-09T13:12:00Z</time>
      </trkpt>
      <trkpt lat="46.13055" lon="4.31795">
        <ele>763</ele>
        <time>2015-07-09T13:12:31Z</time>
      </trkpt>
      <trkpt lat="46.13048" lon="4.31787">
        <ele>762</ele>
        <time>2015-07-09T13:12:38Z</time>
      </trkpt>
      <trkpt lat="46.13057" lon="4.31734">
        <ele>759</ele>
        <time>2015-07-09T13:13:16Z</time>
      </trkpt>
      <trkpt lat="46.13054" lon="4.31713">
        <ele>758</ele>
        <time>2015-07-09T13:14:45Z</time>
      </trkpt>
      <trkpt lat="46.1305" lon="4.317">
        <ele>758</ele>
        <time>2015-07-09T13:14:50Z</time>
      </trkpt>
      <trkpt lat="46.13052" lon="4.31693">
        <ele>758</ele>
        <time>2015-07-09T13:15:02Z</time>
      </trkpt>
      <trkpt lat="46.13052" lon="4.31635">
        <ele>756</ele>
        <time>2015-07-09T13:15:39Z</time>
      </trkpt>
      <trkpt lat="46.13049" lon="4.31615">
        <ele>756</ele>
        <time>2015-07-09T13:15:55Z</time>
      </trkpt>
      <trkpt lat="46.13045" lon="4.31607">
        <ele>755</ele>
        <time>2015-07-09T13:16:06Z</time>
      </trkpt>
      <trkpt lat="46.13045" lon="4.31513">
        <ele>755</ele>
        <time>2015-07-09T13:17:01Z</time>
      </trkpt>
      <trkpt lat="46.13056" lon="4.31436">
        <ele>754</ele>
        <time>2015-07-09T13:17:44Z</time>
      </trkpt>
      <trkpt lat="46.13053" lon="4.3143">
        <ele>754</ele>
        <time>2015-07-09T13:17:47Z</time>
      </trkpt>
      <trkpt lat="46.13056" lon="4.31425">
        <ele>754</ele>
        <time>2015-07-09T13:17:51Z</time>
      </trkpt>
      <trkpt lat="46.13065" lon="4.31414">
        <ele>755</ele>
        <time>2015-07-09T13:17:59Z</time>
      </trkpt>
      <trkpt lat="46.13066" lon="4.31401">
        <ele>755</ele>
        <time>2015-07-09T13:18:06Z</time>
      </trkpt>
      <trkpt lat="46.13059" lon="4.31389">
        <ele>755</ele>
        <time>2015-07-09T13:19:09Z</time>
      </trkpt>
      <trkpt lat="46.13018" lon="4.31371">
        <ele>752</ele>
        <time>2015-07-09T13:19:42Z</time>
      </trkpt>
      <trkpt lat="46.13013" lon="4.31369">
        <ele>751</ele>
        <time>2015-07-09T13:19:46Z</time>
      </trkpt>
      <trkpt lat="46.13008" lon="4.31369">
        <ele>751</ele>
        <time>2015-07-09T13:19:50Z</time>
      </trkpt>
      <trkpt lat="46.13003" lon="4.3137">
        <ele>751</ele>
        <time>2015-07-09T13:19:54Z</time>
      </trkpt>
      <trkpt lat="46.12995" lon="4.31368">
        <ele>750</ele>
        <time>2015-07-09T13:20:03Z</time>
      </trkpt>
      <trkpt lat="46.12989" lon="4.31379">
        <ele>749</ele>
        <time>2015-07-09T13:20:14Z</time>
      </trkpt>
      <trkpt lat="46.12947" lon="4.31362">
        <ele>744</ele>
        <time>2015-07-09T13:20:49Z</time>
      </trkpt>
      <trkpt lat="46.1293" lon="4.31359">
        <ele>743</ele>
        <time>2015-07-09T13:21:04Z</time>
      </trkpt>
      <trkpt lat="46.12912" lon="4.31348">
        <ele>742</ele>
        <time>2015-07-09T13:21:19Z</time>
      </trkpt>
      <trkpt lat="46.12908" lon="4.31345">
        <ele>744</ele>
        <time>2015-07-09T13:21:23Z</time>
      </trkpt>
      <trkpt lat="46.12901" lon="4.31334">
        <ele>746</ele>
        <time>2015-07-09T13:21:34Z</time>
      </trkpt>
      <trkpt lat="46.12892" lon="4.3132">
        <ele>746</ele>
        <time>2015-07-09T13:21:46Z</time>
      </trkpt>
      <trkpt lat="46.12867" lon="4.31275">
        <ele>742</ele>
        <time>2015-07-09T13:22:20Z</time>
      </trkpt>
      <trkpt lat="46.12856" lon="4.31258">
        <ele>740</ele>
        <time>2015-07-09T13:22:34Z</time>
      </trkpt>
      <trkpt lat="46.12852" lon="4.31257">
        <ele>739</ele>
        <time>2015-07-09T13:22:41Z</time>
      </trkpt>
      <trkpt lat="46.12823" lon="4.31258">
        <ele>738</ele>
        <time>2015-07-09T13:23:07Z</time>
      </trkpt>
      <trkpt lat="46.12786" lon="4.31232">
        <ele>734</ele>
        <time>2015-07-09T13:23:40Z</time>
      </trkpt>
      <trkpt lat="46.12776" lon="4.31227">
        <ele>734</ele>
        <time>2015-07-09T13:23:48Z</time>
      </trkpt>
      <trkpt lat="46.12734" lon="4.31231">
        <ele>732</ele>
        <time>2015-07-09T13:24:21Z</time>
      </trkpt>
      <trkpt lat="46.1273" lon="4.3123">
        <ele>732</ele>
        <time>2015-07-09T13:24:25Z</time>
      </trkpt>
      <trkpt lat="46.12662" lon="4.31196">
        <ele>729</ele>
        <time>2015-07-09T13:25:28Z</time>
      </trkpt>
      <trkpt lat="46.12652" lon="4.31183">
        <ele>728</ele>
        <time>2015-07-09T13:25:46Z</time>
      </trkpt>
      <trkpt lat="46.12649" lon="4.31177">
        <ele>728</ele>
        <time>2015-07-09T13:25:50Z</time>
      </trkpt>
      <trkpt lat="46.12646" lon="4.31172">
        <ele>728</ele>
        <time>2015-07-09T13:25:54Z</time>
      </trkpt>
      <trkpt lat="46.12642" lon="4.31169">
        <ele>727</ele>
        <time>2015-07-09T13:25:58Z</time>
      </trkpt>
      <trkpt lat="46.12628" lon="4.31161">
        <ele>725</ele>
        <time>2015-07-09T13:26:10Z</time>
      </trkpt>
      <trkpt lat="46.12598" lon="4.31132">
        <ele>717</ele>
        <time>2015-07-09T13:26:41Z</time>
      </trkpt>
      <trkpt lat="46.12544" lon="4.31059">
        <ele>713</ele>
        <time>2015-07-09T13:27:55Z</time>
      </trkpt>
      <trkpt lat="46.12503" lon="4.3102">
        <ele>712</ele>
        <time>2015-07-09T13:28:29Z</time>
      </trkpt>
      <trkpt lat="46.12468" lon="4.30997">
        <ele>711</ele>
        <time>2015-07-09T13:29:01Z</time>
      </trkpt>
      <trkpt lat="46.12438" lon="4.30969">
        <ele>710</ele>
        <time>2015-07-09T13:29:31Z</time>
      </trkpt>
      <trkpt lat="46.12394" lon="4.3092">
        <ele>706</ele>
        <time>2015-07-09T13:30:28Z</time>
      </trkpt>
      <trkpt lat="46.12392" lon="4.30913">
        <ele>705</ele>
        <time>2015-07-09T13:30:35Z</time>
      </trkpt>
      <trkpt lat="46.12388" lon="4.30909">
        <ele>704</ele>
        <time>2015-07-09T13:30:41Z</time>
      </trkpt>
      <trkpt lat="46.12385" lon="4.30903">
        <ele>703</ele>
        <time>2015-07-09T13:30:47Z</time>
      </trkpt>
      <trkpt lat="46.12319" lon="4.30822">
        <ele>690</ele>
        <time>2015-07-09T13:32:30Z</time>
      </trkpt>
      <trkpt lat="46.12314" lon="4.30818">
        <ele>689</ele>
        <time>2015-07-09T13:33:50Z</time>
      </trkpt>
      <trkpt lat="46.12292" lon="4.30782">
        <ele>685</ele>
        <time>2015-07-09T13:34:25Z</time>
      </trkpt>
      <trkpt lat="46.1228" lon="4.30767">
        <ele>681</ele>
        <time>2015-07-09T13:34:39Z</time>
      </trkpt>
      <trkpt lat="46.12256" lon="4.3073">
        <ele>677</ele>
        <time>2015-07-09T13:35:22Z</time>
      </trkpt>
      <trkpt lat="46.12253" lon="4.30728">
        <ele>677</ele>
        <time>2015-07-09T13:35:44Z</time>
      </trkpt>
      <trkpt lat="46.1225" lon="4.30727">
        <ele>677</ele>
        <time>2015-07-09T13:35:46Z</time>
      </trkpt>
      <trkpt lat="46.12241" lon="4.30728">
        <ele>676</ele>
        <time>2015-07-09T13:35:56Z</time>
      </trkpt>
      <trkpt lat="46.12232" lon="4.30723">
        <ele>676</ele>
        <time>2015-07-09T13:36:03Z</time>
      </trkpt>
      <trkpt lat="46.12223" lon="4.30714">
        <ele>675</ele>
        <time>2015-07-09T13:36:10Z</time>
      </trkpt>
      <trkpt lat="46.12212" lon="4.30713">
        <ele>674</ele>
        <time>2015-07-09T13:36:13Z</time>
      </trkpt>
      <trkpt lat="46.12187" lon="4.30704">
        <ele>672</ele>
        <time>2015-07-09T13:36:46Z</time>
      </trkpt>
      <trkpt lat="46.12159" lon="4.30685">
        <ele>671</ele>
        <time>2015-07-09T13:37:09Z</time>
      </trkpt>
      <trkpt lat="46.12152" lon="4.30685">
        <ele>671</ele>
        <time>2015-07-09T13:37:20Z</time>
      </trkpt>
      <trkpt lat="46.12143" lon="4.30678">
        <ele>670</ele>
        <time>2015-07-09T13:37:28Z</time>
      </trkpt>
      <trkpt lat="46.12134" lon="4.30659">
        <ele>669</ele>
        <time>2015-07-09T13:37:44Z</time>
      </trkpt>
      <trkpt lat="46.12121" lon="4.3065">
        <ele>668</ele>
        <time>2015-07-09T13:37:59Z</time>
      </trkpt>
      <trkpt lat="46.12118" lon="4.30644">
        <ele>668</ele>
        <time>2015-07-09T13:38:03Z</time>
      </trkpt>
      <trkpt lat="46.1212" lon="4.30638">
        <ele>668</ele>
        <time>2015-07-09T13:38:09Z</time>
      </trkpt>
      <trkpt lat="46.12123" lon="4.30632">
        <ele>667</ele>
        <time>2015-07-09T13:38:15Z</time>
      </trkpt>
      <trkpt lat="46.12125" lon="4.30618">
        <ele>666</ele>
        <time>2015-07-09T13:38:25Z</time>
      </trkpt>
      <trkpt lat="46.1214" lon="4.30582">
        <ele>660</ele>
        <time>2015-07-09T13:38:59Z</time>
      </trkpt>
      <trkpt lat="46.12153" lon="4.30562">
        <ele>655</ele>
        <time>2015-07-09T13:39:17Z</time>
      </trkpt>
      <trkpt lat="46.12159" lon="4.30557">
        <ele>653</ele>
        <time>2015-07-09T13:39:29Z</time>
      </trkpt>
      <trkpt lat="46.12165" lon="4.30556">
        <ele>652</ele>
        <time>2015-07-09T13:39:58Z</time>
      </trkpt>
      <trkpt lat="46.12167" lon="4.30552">
        <ele>652</ele>
        <time>2015-07-09T13:40:05Z</time>
      </trkpt>
      <trkpt lat="46.1217" lon="4.30544">
        <ele>650</ele>
        <time>2015-07-09T13:40:25Z</time>
      </trkpt>
      <trkpt lat="46.12174" lon="4.30539">
        <ele>648</ele>
        <time>2015-07-09T13:40:31Z</time>
      </trkpt>
      <trkpt lat="46.12183" lon="4.30535">
        <ele>646</ele>
        <time>2015-07-09T13:40:41Z</time>
      </trkpt>
      <trkpt lat="46.12189" lon="4.30525">
        <ele>645</ele>
        <time>2015-07-09T13:40:52Z</time>
      </trkpt>
      <trkpt lat="46.12225" lon="4.30496">
        <ele>639</ele>
        <time>2015-07-09T13:41:38Z</time>
      </trkpt>
      <trkpt lat="46.12224" lon="4.30491">
        <ele>638</ele>
        <time>2015-07-09T13:42:19Z</time>
      </trkpt>
      <trkpt lat="46.12223" lon="4.30486">
        <ele>638</ele>
        <time>2015-07-09T13:42:40Z</time>
      </trkpt>
      <trkpt lat="46.12227" lon="4.30482">
        <ele>638</ele>
        <time>2015-07-09T13:42:41Z</time>
      </trkpt>
      <trkpt lat="46.12229" lon="4.30477">
        <ele>638</ele>
        <time>2015-07-09T13:43:01Z</time>
      </trkpt>
      <trkpt lat="46.12235" lon="4.30475">
        <ele>638</ele>
        <time>2015-07-09T13:43:09Z</time>
      </trkpt>
      <trkpt lat="46.12239" lon="4.30472">
        <ele>637</ele>
        <time>2015-07-09T13:43:14Z</time>
      </trkpt>
      <trkpt lat="46.12242" lon="4.30472">
        <ele>636</ele>
        <time>2015-07-09T13:43:21Z</time>
      </trkpt>
      <trkpt lat="46.12244" lon="4.30471">
        <ele>635</ele>
        <time>2015-07-09T13:43:27Z</time>
      </trkpt>
      <trkpt lat="46.12249" lon="4.30447">
        <ele>631</ele>
        <time>2015-07-09T13:44:02Z</time>
      </trkpt>
      <trkpt lat="46.12267" lon="4.30425">
        <ele>627</ele>
        <time>2015-07-09T13:44:37Z</time>
      </trkpt>
      <trkpt lat="46.12276" lon="4.30417">
        <ele>625</ele>
        <time>2015-07-09T13:44:50Z</time>
      </trkpt>
      <trkpt lat="46.12278" lon="4.30412">
        <ele>624</ele>
        <time>2015-07-09T13:45:03Z</time>
      </trkpt>
      <trkpt lat="46.1228" lon="4.30405">
        <ele>624</ele>
        <time>2015-07-09T13:45:07Z</time>
      </trkpt>
      <trkpt lat="46.12305" lon="4.30357">
        <ele>617</ele>
        <time>2015-07-09T13:45:50Z</time>
      </trkpt>
      <trkpt lat="46.12304" lon="4.30348">
        <ele>616</ele>
        <time>2015-07-09T13:46:06Z</time>
      </trkpt>
      <trkpt lat="46.12308" lon="4.30325">
        <ele>613</ele>
        <time>2015-07-09T13:46:21Z</time>
      </trkpt>
      <trkpt lat="46.12306" lon="4.30318">
        <ele>612</ele>
        <time>2015-07-09T13:46:27Z</time>
      </trkpt>
      <trkpt lat="46.12311" lon="4.30291">
        <ele>609</ele>
        <time>2015-07-09T13:46:49Z</time>
      </trkpt>
      <trkpt lat="46.12317" lon="4.30287">
        <ele>608</ele>
        <time>2015-07-09T13:47:00Z</time>
      </trkpt>
      <trkpt lat="46.12322" lon="4.30285">
        <ele>608</ele>
        <time>2015-07-09T13:47:06Z</time>
      </trkpt>
      <trkpt lat="46.12345" lon="4.30297">
        <ele>607</ele>
        <time>2015-07-09T13:47:26Z</time>
      </trkpt>
      <trkpt lat="46.12347" lon="4.30299">
        <ele>606</ele>
        <time>2015-07-09T13:47:37Z</time>
      </trkpt>
      <trkpt lat="46.12353" lon="4.3031">
        <ele>605</ele>
        <time>2015-07-09T13:47:52Z</time>
      </trkpt>
      <trkpt lat="46.12372" lon="4.30329">
        <ele>605</ele>
        <time>2015-07-09T13:48:08Z</time>
      </trkpt>
      <trkpt lat="46.12383" lon="4.30328">
        <ele>605</ele>
        <time>2015-07-09T13:48:18Z</time>
      </trkpt>
      <trkpt lat="46.12422" lon="4.30264">
        <ele>605</ele>
        <time>2015-07-09T13:49:06Z</time>
      </trkpt>
      <trkpt lat="46.12435" lon="4.3025">
        <ele>606</ele>
        <time>2015-07-09T13:49:37Z</time>
      </trkpt>
      <trkpt lat="46.12458" lon="4.30214">
        <ele>606</ele>
        <time>2015-07-09T13:50:04Z</time>
      </trkpt>
      <trkpt lat="46.12467" lon="4.3021">
        <ele>605</ele>
        <time>2015-07-09T13:50:14Z</time>
      </trkpt>
      <trkpt lat="46.1247" lon="4.30208">
        <ele>605</ele>
        <time>2015-07-09T13:50:20Z</time>
      </trkpt>
      <trkpt lat="46.12472" lon="4.30201">
        <ele>604</ele>
        <time>2015-07-09T13:50:28Z</time>
      </trkpt>
      <trkpt lat="46.12471" lon="4.3019">
        <ele>601</ele>
        <time>2015-07-09T13:50:35Z</time>
      </trkpt>
      <trkpt lat="46.12469" lon="4.30179">
        <ele>599</ele>
        <time>2015-07-09T13:50:49Z</time>
      </trkpt>
      <trkpt lat="46.12463" lon="4.30175">
        <ele>599</ele>
        <time>2015-07-09T13:50:53Z</time>
      </trkpt>
      <trkpt lat="46.12466" lon="4.30155">
        <ele>597</ele>
        <time>2015-07-09T13:51:05Z</time>
      </trkpt>
      <trkpt lat="46.12458" lon="4.30126">
        <ele>595</ele>
        <time>2015-07-09T13:51:39Z</time>
      </trkpt>
      <trkpt lat="46.12457" lon="4.30122">
        <ele>594</ele>
        <time>2015-07-09T13:51:51Z</time>
      </trkpt>
      <trkpt lat="46.12458" lon="4.30119">
        <ele>593</ele>
        <time>2015-07-09T13:52:19Z</time>
      </trkpt>
      <trkpt lat="46.12456" lon="4.30113">
        <ele>593</ele>
        <time>2015-07-09T13:52:26Z</time>
      </trkpt>
      <trkpt lat="46.12455" lon="4.30106">
        <ele>592</ele>
        <time>2015-07-09T13:52:31Z</time>
      </trkpt>
      <trkpt lat="46.12456" lon="4.30098">
        <ele>592</ele>
        <time>2015-07-09T13:52:35Z</time>
      </trkpt>
      <trkpt lat="46.12443" lon="4.30033">
        <ele>587</ele>
        <time>2015-07-09T13:53:17Z</time>
      </trkpt>
      <trkpt lat="46.12431" lon="4.29994">
        <ele>583</ele>
        <time>2015-07-09T13:53:50Z</time>
      </trkpt>
      <trkpt lat="46.12425" lon="4.29945">
        <ele>578</ele>
        <time>2015-07-09T13:54:22Z</time>
      </trkpt>
      <trkpt lat="46.12394" lon="4.2984">
        <ele>559</ele>
        <time>2015-07-09T13:55:34Z</time>
      </trkpt>
      <trkpt lat="46.12395" lon="4.29833">
        <ele>559</ele>
        <time>2015-07-09T13:55:39Z</time>
      </trkpt>
      <trkpt lat="46.124" lon="4.2983">
        <ele>558</ele>
        <time>2015-07-09T13:55:45Z</time>
      </trkpt>
      <trkpt lat="46.12415" lon="4.29831">
        <ele>558</ele>
        <time>2015-07-09T13:55:57Z</time>
      </trkpt>
      <trkpt lat="46.12445" lon="4.2983">
        <ele>553</ele>
        <time>2015-07-09T13:56:29Z</time>
      </trkpt>
      <trkpt lat="46.1245" lon="4.29831">
        <ele>553</ele>
        <time>2015-07-09T13:56:34Z</time>
      </trkpt>
      <trkpt lat="46.12462" lon="4.29828">
        <ele>553</ele>
        <time>2015-07-09T13:56:40Z</time>
      </trkpt>
      <trkpt lat="46.12461" lon="4.29825">
        <ele>553</ele>
        <time>2015-07-09T13:56:45Z</time>
      </trkpt>
      <trkpt lat="46.12466" lon="4.29805">
        <ele>554</ele>
        <time>2015-07-09T13:57:08Z</time>
      </trkpt>
      <trkpt lat="46.12466" lon="4.298">
        <ele>555</ele>
        <time>2015-07-09T13:57:17Z</time>
      </trkpt>
      <trkpt lat="46.12466" lon="4.29793">
        <ele>556</ele>
        <time>2015-07-09T13:57:25Z</time>
      </trkpt>
      <trkpt lat="46.12471" lon="4.2978">
        <ele>556</ele>
        <time>2015-07-09T13:57:32Z</time>
      </trkpt>
      <trkpt lat="46.12474" lon="4.29775">
        <ele>557</ele>
        <time>2015-07-09T13:57:36Z</time>
      </trkpt>
      <trkpt lat="46.12479" lon="4.29759">
        <ele>558</ele>
        <time>2015-07-09T13:57:41Z</time>
      </trkpt>
      <trkpt lat="46.12479" lon="4.29731">
        <ele>561</ele>
        <time>2015-07-09T13:58:02Z</time>
      </trkpt>
      <trkpt lat="46.12482" lon="4.29725">
        <ele>561</ele>
        <time>2015-07-09T13:58:09Z</time>
      </trkpt>
      <trkpt lat="46.12483" lon="4.29712">
        <ele>561</ele>
        <time>2015-07-09T13:58:18Z</time>
      </trkpt>
      <trkpt lat="46.12486" lon="4.29706">
        <ele>561</ele>
        <time>2015-07-09T13:58:23Z</time>
      </trkpt>
      <trkpt lat="46.12493" lon="4.29663">
        <ele>559</ele>
        <time>2015-07-09T13:58:54Z</time>
      </trkpt>
      <trkpt lat="46.1254" lon="4.29556">
        <ele>552</ele>
        <time>2015-07-09T14:00:39Z</time>
      </trkpt>
      <trkpt lat="46.12547" lon="4.29528">
        <ele>551</ele>
        <time>2015-07-09T14:00:58Z</time>
      </trkpt>
      <trkpt lat="46.12558" lon="4.29504">
        <ele>549</ele>
        <time>2015-07-09T14:01:19Z</time>
      </trkpt>
      <trkpt lat="46.12557" lon="4.29501">
        <ele>549</ele>
        <time>2015-07-09T14:01:25Z</time>
      </trkpt>
      <trkpt lat="46.12579" lon="4.29465">
        <ele>548</ele>
        <time>2015-07-09T14:02:22Z</time>
      </trkpt>
      <trkpt lat="46.12588" lon="4.29462">
        <ele>550</ele>
        <time>2015-07-09T14:02:35Z</time>
      </trkpt>
      <trkpt lat="46.12618" lon="4.29435">
        <ele>554</ele>
        <time>2015-07-09T14:02:56Z</time>
      </trkpt>
      <trkpt lat="46.12619" lon="4.29422">
        <ele>550</ele>
        <time>2015-07-09T14:03:03Z</time>
      </trkpt>
      <trkpt lat="46.12613" lon="4.29397">
        <ele>556</ele>
        <time>2015-07-09T14:03:21Z</time>
      </trkpt>
      <trkpt lat="46.12634" lon="4.29318">
        <ele>547</ele>
        <time>2015-07-09T14:04:05Z</time>
      </trkpt>
      <trkpt lat="46.12641" lon="4.2931">
        <ele>547</ele>
        <time>2015-07-09T14:04:12Z</time>
      </trkpt>
      <trkpt lat="46.12649" lon="4.29302">
        <ele>548</ele>
        <time>2015-07-09T14:04:23Z</time>
      </trkpt>
      <trkpt lat="46.12658" lon="4.29278">
        <ele>549</ele>
        <time>2015-07-09T14:04:42Z</time>
      </trkpt>
      <trkpt lat="46.12663" lon="4.29267">
        <ele>549</ele>
        <time>2015-07-09T14:04:49Z</time>
      </trkpt>
      <trkpt lat="46.12665" lon="4.29254">
        <ele>549</ele>
        <time>2015-07-09T14:04:57Z</time>
      </trkpt>
      <trkpt lat="46.12663" lon="4.29241">
        <ele>549</ele>
        <time>2015-07-09T14:05:05Z</time>
      </trkpt>
      <trkpt lat="46.12667" lon="4.29217">
        <ele>550</ele>
        <time>2015-07-09T14:05:13Z</time>
      </trkpt>
      <trkpt lat="46.12687" lon="4.2919">
        <ele>552</ele>
        <time>2015-07-09T14:05:42Z</time>
      </trkpt>
      <trkpt lat="46.12706" lon="4.29181">
        <ele>555</ele>
        <time>2015-07-09T14:05:59Z</time>
      </trkpt>
      <trkpt lat="46.12725" lon="4.29137">
        <ele>557</ele>
        <time>2015-07-09T14:07:11Z</time>
      </trkpt>
      <trkpt lat="46.12746" lon="4.29113">
        <ele>559</ele>
        <time>2015-07-09T14:07:43Z</time>
      </trkpt>
      <trkpt lat="46.12783" lon="4.29093">
        <ele>561</ele>
        <time>2015-07-09T14:08:16Z</time>
      </trkpt>
      <trkpt lat="46.12803" lon="4.29091">
        <ele>563</ele>
        <time>2015-07-09T14:08:41Z</time>
      </trkpt>
      <trkpt lat="46.12834" lon="4.29082">
        <ele>564</ele>
        <time>2015-07-09T14:09:12Z</time>
      </trkpt>
      <trkpt lat="46.12885" lon="4.29045">
        <ele>565</ele>
        <time>2015-07-09T14:09:57Z</time>
      </trkpt>
      <trkpt lat="46.12904" lon="4.29034">
        <ele>565</ele>
        <time>2015-07-09T14:10:15Z</time>
      </trkpt>
      <trkpt lat="46.12941" lon="4.2902">
        <ele>566</ele>
        <time>2015-07-09T14:10:49Z</time>
      </trkpt>
      <trkpt lat="46.12967" lon="4.29015">
        <ele>567</ele>
        <time>2015-07-09T14:11:12Z</time>
      </trkpt>
      <trkpt lat="46.13004" lon="4.2902">
        <ele>566</ele>
        <time>2015-07-09T14:11:45Z</time>
      </trkpt>
      <trkpt lat="46.13008" lon="4.29021">
        <ele>565</ele>
        <time>2015-07-09T14:11:49Z</time>
      </trkpt>
      <trkpt lat="46.13049" lon="4.29037">
        <ele>562</ele>
        <time>2015-07-09T14:12:28Z</time>
      </trkpt>
      <trkpt lat="46.13089" lon="4.29039">
        <ele>559</ele>
        <time>2015-07-09T14:13:00Z</time>
      </trkpt>
      <trkpt lat="46.13094" lon="4.29037">
        <ele>558</ele>
        <time>2015-07-09T14:13:04Z</time>
      </trkpt>
      <trkpt lat="46.13128" lon="4.29006">
        <ele>560</ele>
        <time>2015-07-09T14:13:39Z</time>
      </trkpt>
      <trkpt lat="46.13168" lon="4.28978">
        <ele>561</ele>
        <time>2015-07-09T14:14:15Z</time>
      </trkpt>
      <trkpt lat="46.13171" lon="4.28973">
        <ele>561</ele>
        <time>2015-07-09T14:14:19Z</time>
      </trkpt>
      <trkpt lat="46.13176" lon="4.28969">
        <ele>561</ele>
        <time>2015-07-09T14:14:23Z</time>
      </trkpt>
      <trkpt lat="46.13209" lon="4.28952">
        <ele>559</ele>
        <time>2015-07-09T14:14:53Z</time>
      </trkpt>
      <trkpt lat="46.1323" lon="4.28932">
        <ele>558</ele>
        <time>2015-07-09T14:15:17Z</time>
      </trkpt>
      <trkpt lat="46.13244" lon="4.28904">
        <ele>557</ele>
        <time>2015-07-09T14:15:36Z</time>
      </trkpt>
      <trkpt lat="46.13271" lon="4.28817">
        <ele>553</ele>
        <time>2015-07-09T14:16:26Z</time>
      </trkpt>
      <trkpt lat="46.13294" lon="4.2877">
        <ele>553</ele>
        <time>2015-07-09T14:16:59Z</time>
      </trkpt>
      <trkpt lat="46.13312" lon="4.28703">
        <ele>554</ele>
        <time>2015-07-09T14:17:56Z</time>
      </trkpt>
      <trkpt lat="46.13303" lon="4.28645">
        <ele>557</ele>
        <time>2015-07-09T14:18:30Z</time>
      </trkpt>
      <trkpt lat="46.13305" lon="4.286">
        <ele>559</ele>
        <time>2015-07-09T14:19:00Z</time>
      </trkpt>
      <trkpt lat="46.1331" lon="4.28588">
        <ele>559</ele>
        <time>2015-07-09T14:19:08Z</time>
      </trkpt>
      <trkpt lat="46.13313" lon="4.28531">
        <ele>561</ele>
        <time>2015-07-09T14:19:46Z</time>
      </trkpt>
      <trkpt lat="46.13319" lon="4.28513">
        <ele>562</ele>
        <time>2015-07-09T14:20:01Z</time>
      </trkpt>
      <trkpt lat="46.13318" lon="4.28506">
        <ele>562</ele>
        <time>2015-07-09T14:20:06Z</time>
      </trkpt>
      <trkpt lat="46.13315" lon="4.28501">
        <ele>562</ele>
        <time>2015-07-09T14:20:11Z</time>
      </trkpt>
      <trkpt lat="46.13309" lon="4.28503">
        <ele>562</ele>
        <time>2015-07-09T14:20:14Z</time>
      </trkpt>
      <trkpt lat="46.13304" lon="4.28504">
        <ele>563</ele>
        <time>2015-07-09T14:20:18Z</time>
      </trkpt>
      <trkpt lat="46.13303" lon="4.28499">
        <ele>562</ele>
        <time>2015-07-09T14:20:47Z</time>
      </trkpt>
      <trkpt lat="46.13297" lon="4.28499">
        <ele>562</ele>
        <time>2015-07-09T14:22:42Z</time>
      </trkpt>
      <trkpt lat="46.13301" lon="4.2851">
        <ele>562</ele>
        <time>2015-07-09T14:22:57Z</time>
      </trkpt>
      <trkpt lat="46.13297" lon="4.28511">
        <ele>562</ele>
        <time>2015-07-09T14:23:40Z</time>
      </trkpt>
      <trkpt lat="46.13297" lon="4.28519">
        <ele>562</ele>
        <time>2015-07-09T14:23:45Z</time>
      </trkpt>
      <trkpt lat="46.13296" lon="4.28516">
        <ele>562</ele>
        <time>2015-07-09T14:24:00Z</time>
      </trkpt>
      <trkpt lat="46.13292" lon="4.28513">
        <ele>562</ele>
        <time>2015-07-09T14:24:06Z</time>
      </trkpt>
      <trkpt lat="46.13293" lon="4.2851">
        <ele>562</ele>
        <time>2015-07-09T14:24:12Z</time>
      </trkpt>
      <trkpt lat="46.13297" lon="4.28505">
        <ele>563</ele>
        <time>2015-07-09T14:24:43Z</time>
      </trkpt>
      <trkpt lat="46.13297" lon="4.28498">
        <ele>563</ele>
        <time>2015-07-09T14:24:47Z</time>
      </trkpt>
      <trkpt lat="46.13295" lon="4.28497">
        <ele>563</ele>
        <time>2015-07-09T14:25:10Z</time>
      </trkpt>
      <trkpt lat="46.133" lon="4.28489">
        <ele>563</ele>
        <time>2015-07-09T14:25:18Z</time>
      </trkpt>
      <trkpt lat="46.13303" lon="4.28495">
        <ele>563</ele>
        <time>2015-07-09T14:25:22Z</time>
      </trkpt>
      <trkpt lat="46.13304" lon="4.28502">
        <ele>563</ele>
        <time>2015-07-09T14:25:25Z</time>
      </trkpt>
      <trkpt lat="46.13303" lon="4.28508">
        <ele>563</ele>
        <time>2015-07-09T14:25:42Z</time>
      </trkpt>
      <trkpt lat="46.13309" lon="4.28509">
        <ele>563</ele>
        <time>2015-07-09T14:26:10Z</time>
      </trkpt>
      <trkpt lat="46.13309" lon="4.28504">
        <ele>565</ele>
        <time>2015-07-09T14:42:18Z</time>
      </trkpt>
      <trkpt lat="46.13309" lon="4.28494">
        <ele>565</ele>
        <time>2015-07-09T14:44:26Z</time>
      </trkpt>
      <trkpt lat="46.13317" lon="4.28483">
        <ele>563</ele>
        <time>2015-07-09T14:44:40Z</time>
      </trkpt>
      <trkpt lat="46.1332" lon="4.28455">
        <ele>565</ele>
        <time>2015-07-09T14:45:03Z</time>
      </trkpt>
      <trkpt lat="46.13334" lon="4.28416">
        <ele>558</ele>
        <time>2015-07-09T14:45:48Z</time>
      </trkpt>
      <trkpt lat="46.13337" lon="4.28401">
        <ele>558</ele>
        <time>2015-07-09T14:45:55Z</time>
      </trkpt>
      <trkpt lat="46.13332" lon="4.28367">
        <ele>546</ele>
        <time>2015-07-09T14:46:28Z</time>
      </trkpt>
      <trkpt lat="46.13333" lon="4.2834">
        <ele>541</ele>
        <time>2015-07-09T14:46:45Z</time>
      </trkpt>
      <trkpt lat="46.13329" lon="4.28328">
        <ele>541</ele>
        <time>2015-07-09T14:47:00Z</time>
      </trkpt>
      <trkpt lat="46.13326" lon="4.28301">
        <ele>545</ele>
        <time>2015-07-09T14:47:23Z</time>
      </trkpt>
      <trkpt lat="46.13321" lon="4.28289">
        <ele>536</ele>
        <time>2015-07-09T14:47:32Z</time>
      </trkpt>
      <trkpt lat="46.13306" lon="4.28269">
        <ele>538</ele>
        <time>2015-07-09T14:47:48Z</time>
      </trkpt>
      <trkpt lat="46.13305" lon="4.28257">
        <ele>529</ele>
        <time>2015-07-09T14:48:37Z</time>
      </trkpt>
      <trkpt lat="46.13299" lon="4.28251">
        <ele>523</ele>
        <time>2015-07-09T14:49:39Z</time>
      </trkpt>
      <trkpt lat="46.1328" lon="4.2822">
        <ele>517</ele>
        <time>2015-07-09T14:50:06Z</time>
      </trkpt>
      <trkpt lat="46.13279" lon="4.28206">
        <ele>511</ele>
        <time>2015-07-09T14:50:21Z</time>
      </trkpt>
      <trkpt lat="46.13287" lon="4.282">
        <ele>510</ele>
        <time>2015-07-09T14:50:29Z</time>
      </trkpt>
      <trkpt lat="46.13293" lon="4.28202">
        <ele>509</ele>
        <time>2015-07-09T14:50:43Z</time>
      </trkpt>
      <trkpt lat="46.13297" lon="4.28204">
        <ele>511</ele>
        <time>2015-07-09T14:53:27Z</time>
      </trkpt>
      <trkpt lat="46.13302" lon="4.28203">
        <ele>511</ele>
        <time>2015-07-09T14:54:03Z</time>
      </trkpt>
      <trkpt lat="46.13309" lon="4.28207">
        <ele>511</ele>
        <time>2015-07-09T14:54:20Z</time>
      </trkpt>
      <trkpt lat="46.13324" lon="4.28208">
        <ele>508</ele>
        <time>2015-07-09T14:54:35Z</time>
      </trkpt>
      <trkpt lat="46.13343" lon="4.28217">
        <ele>501</ele>
        <time>2015-07-09T14:54:54Z</time>
      </trkpt>
      <trkpt lat="46.13355" lon="4.28237">
        <ele>498</ele>
        <time>2015-07-09T14:55:09Z</time>
      </trkpt>
      <trkpt lat="46.134" lon="4.28286">
        <ele>499</ele>
        <time>2015-07-09T14:56:07Z</time>
      </trkpt>
      <trkpt lat="46.13404" lon="4.28298">
        <ele>499</ele>
        <time>2015-07-09T14:56:14Z</time>
      </trkpt>
      <trkpt lat="46.13425" lon="4.28328">
        <ele>500</ele>
        <time>2015-07-09T14:56:39Z</time>
      </trkpt>
      <trkpt lat="46.13444" lon="4.28347">
        <ele>503</ele>
        <time>2015-07-09T14:57:02Z</time>
      </trkpt>
      <trkpt lat="46.13459" lon="4.28368">
        <ele>504</ele>
        <time>2015-07-09T14:57:33Z</time>
      </trkpt>
      <trkpt lat="46.13468" lon="4.28376">
        <ele>504</ele>
        <time>2015-07-09T14:57:40Z</time>
      </trkpt>
      <trkpt lat="46.13489" lon="4.28436">
        <ele>500</ele>
        <time>2015-07-09T14:58:31Z</time>
      </trkpt>
      <trkpt lat="46.1349" lon="4.28443">
        <ele>501</ele>
        <time>2015-07-09T14:58:35Z</time>
      </trkpt>
      <trkpt lat="46.13499" lon="4.28456">
        <ele>500</ele>
        <time>2015-07-09T14:58:47Z</time>
      </trkpt>
      <trkpt lat="46.135" lon="4.28464">
        <ele>499</ele>
        <time>2015-07-09T14:58:51Z</time>
      </trkpt>
      <trkpt lat="46.13498" lon="4.28467">
        <ele>500</ele>
        <time>2015-07-09T14:58:58Z</time>
      </trkpt>
      <trkpt lat="46.13506" lon="4.28488">
        <ele>499</ele>
        <time>2015-07-09T14:59:17Z</time>
      </trkpt>
      <trkpt lat="46.13502" lon="4.28504">
        <ele>498</ele>
        <time>2015-07-09T14:59:26Z</time>
      </trkpt>
      <trkpt lat="46.13506" lon="4.28508">
        <ele>497</ele>
        <time>2015-07-09T14:59:36Z</time>
      </trkpt>
      <trkpt lat="46.13509" lon="4.28517">
        <ele>496</ele>
        <time>2015-07-09T14:59:59Z</time>
      </trkpt>
      <trkpt lat="46.13509" lon="4.28525">
        <ele>497</ele>
        <time>2015-07-09T15:00:04Z</time>
      </trkpt>
      <trkpt lat="46.13507" lon="4.28532">
        <ele>497</ele>
        <time>2015-07-09T15:00:08Z</time>
      </trkpt>
      <trkpt lat="46.13507" lon="4.28553">
        <ele>494</ele>
        <time>2015-07-09T15:00:20Z</time>
      </trkpt>
      <trkpt lat="46.13508" lon="4.2856">
        <ele>494</ele>
        <time>2015-07-09T15:00:24Z</time>
      </trkpt>
      <trkpt lat="46.1351" lon="4.28566">
        <ele>495</ele>
        <time>2015-07-09T15:00:29Z</time>
      </trkpt>
      <trkpt lat="46.13513" lon="4.28572">
        <ele>495</ele>
        <time>2015-07-09T15:00:34Z</time>
      </trkpt>
      <trkpt lat="46.13517" lon="4.28577">
        <ele>494</ele>
        <time>2015-07-09T15:00:38Z</time>
      </trkpt>
      <trkpt lat="46.13523" lon="4.2858">
        <ele>495</ele>
        <time>2015-07-09T15:00:42Z</time>
      </trkpt>
      <trkpt lat="46.13527" lon="4.28582">
        <ele>495</ele>
        <time>2015-07-09T15:00:45Z</time>
      </trkpt>
      <trkpt lat="46.13538" lon="4.28582">
        <ele>495</ele>
        <time>2015-07-09T15:01:01Z</time>
      </trkpt>
      <trkpt lat="46.13538" lon="4.28581">
        <ele>495</ele>
        <time>2015-07-09T15:01:14Z</time>
      </trkpt>
      <trkpt lat="46.13543" lon="4.28578">
        <ele>495</ele>
        <time>2015-07-09T15:01:19Z</time>
      </trkpt>
      <trkpt lat="46.13575" lon="4.28579">
        <ele>496</ele>
        <time>2015-07-09T15:01:41Z</time>
      </trkpt>
      <trkpt lat="46.13579" lon="4.28582">
        <ele>496</ele>
        <time>2015-07-09T15:01:45Z</time>
      </trkpt>
      <trkpt lat="46.1359" lon="4.28583">
        <ele>496</ele>
        <time>2015-07-09T15:01:52Z</time>
      </trkpt>
      <trkpt lat="46.13613" lon="4.28579">
        <ele>494</ele>
        <time>2015-07-09T15:02:25Z</time>
      </trkpt>
      <trkpt lat="46.13619" lon="4.28581">
        <ele>495</ele>
        <time>2015-07-09T15:02:29Z</time>
      </trkpt>
      <trkpt lat="46.13655" lon="4.2858">
        <ele>497</ele>
        <time>2015-07-09T15:03:03Z</time>
      </trkpt>
      <trkpt lat="46.13669" lon="4.28585">
        <ele>499</ele>
        <time>2015-07-09T15:03:16Z</time>
      </trkpt>
      <trkpt lat="46.13703" lon="4.28587">
        <ele>501</ele>
        <time>2015-07-09T15:03:45Z</time>
      </trkpt>
      <trkpt lat="46.13714" lon="4.28589">
        <ele>503</ele>
        <time>2015-07-09T15:03:54Z</time>
      </trkpt>
      <trkpt lat="46.13739" lon="4.28589">
        <ele>503</ele>
        <time>2015-07-09T15:04:17Z</time>
      </trkpt>
      <trkpt lat="46.13754" lon="4.28575">
        <ele>505</ele>
        <time>2015-07-09T15:04:33Z</time>
      </trkpt>
      <trkpt lat="46.13765" lon="4.28543">
        <ele>505</ele>
        <time>2015-07-09T15:04:58Z</time>
      </trkpt>
      <trkpt lat="46.13775" lon="4.2841">
        <ele>508</ele>
        <time>2015-07-09T15:06:20Z</time>
      </trkpt>
      <trkpt lat="46.13774" lon="4.28402">
        <ele>509</ele>
        <time>2015-07-09T15:06:25Z</time>
      </trkpt>
      <trkpt lat="46.13778" lon="4.28371">
        <ele>510</ele>
        <time>2015-07-09T15:07:36Z</time>
      </trkpt>
      <trkpt lat="46.13776" lon="4.28345">
        <ele>512</ele>
        <time>2015-07-09T15:07:55Z</time>
      </trkpt>
      <trkpt lat="46.13767" lon="4.28309">
        <ele>516</ele>
        <time>2015-07-09T15:08:16Z</time>
      </trkpt>
      <trkpt lat="46.13767" lon="4.28303">
        <ele>516</ele>
        <time>2015-07-09T15:08:21Z</time>
      </trkpt>
      <trkpt lat="46.13736" lon="4.2816">
        <ele>516</ele>
        <time>2015-07-09T15:09:57Z</time>
      </trkpt>
      <trkpt lat="46.13736" lon="4.28153">
        <ele>515</ele>
        <time>2015-07-09T15:10:02Z</time>
      </trkpt>
      <trkpt lat="46.13744" lon="4.2811">
        <ele>515</ele>
        <time>2015-07-09T15:10:28Z</time>
      </trkpt>
      <trkpt lat="46.13746" lon="4.28028">
        <ele>509</ele>
        <time>2015-07-09T15:11:24Z</time>
      </trkpt>
      <trkpt lat="46.13738" lon="4.27988">
        <ele>507</ele>
        <time>2015-07-09T15:11:49Z</time>
      </trkpt>
      <trkpt lat="46.13685" lon="4.27921">
        <ele>503</ele>
        <time>2015-07-09T15:12:52Z</time>
      </trkpt>
      <trkpt lat="46.13684" lon="4.27914">
        <ele>502</ele>
        <time>2015-07-09T15:12:57Z</time>
      </trkpt>
      <trkpt lat="46.13686" lon="4.27906">
        <ele>501</ele>
        <time>2015-07-09T15:13:11Z</time>
      </trkpt>
      <trkpt lat="46.13704" lon="4.27892">
        <ele>500</ele>
        <time>2015-07-09T15:13:30Z</time>
      </trkpt>
      <trkpt lat="46.1373" lon="4.27888">
        <ele>497</ele>
        <time>2015-07-09T15:13:51Z</time>
      </trkpt>
      <trkpt lat="46.13762" lon="4.27913">
        <ele>491</ele>
        <time>2015-07-09T15:14:23Z</time>
      </trkpt>
      <trkpt lat="46.13766" lon="4.27917">
        <ele>490</ele>
        <time>2015-07-09T15:14:27Z</time>
      </trkpt>
      <trkpt lat="46.13775" lon="4.2792">
        <ele>490</ele>
        <time>2015-07-09T15:14:35Z</time>
      </trkpt>
      <trkpt lat="46.13784" lon="4.27926">
        <ele>489</ele>
        <time>2015-07-09T15:14:43Z</time>
      </trkpt>
      <trkpt lat="46.13787" lon="4.2793">
        <ele>490</ele>
        <time>2015-07-09T15:14:47Z</time>
      </trkpt>
      <trkpt lat="46.13796" lon="4.27937">
        <ele>489</ele>
        <time>2015-07-09T15:14:56Z</time>
      </trkpt>
      <trkpt lat="46.13831" lon="4.27951">
        <ele>489</ele>
        <time>2015-07-09T15:15:30Z</time>
      </trkpt>
      <trkpt lat="46.13868" lon="4.27946">
        <ele>488</ele>
        <time>2015-07-09T15:15:58Z</time>
      </trkpt>
      <trkpt lat="46.13917" lon="4.27883">
        <ele>490</ele>
        <time>2015-07-09T15:17:02Z</time>
      </trkpt>
      <trkpt lat="46.13922" lon="4.27881">
        <ele>491</ele>
        <time>2015-07-09T15:17:05Z</time>
      </trkpt>
      <trkpt lat="46.13945" lon="4.27856">
        <ele>494</ele>
        <time>2015-07-09T15:17:37Z</time>
      </trkpt>
      <trkpt lat="46.13966" lon="4.27828">
        <ele>495</ele>
        <time>2015-07-09T15:18:03Z</time>
      </trkpt>
      <trkpt lat="46.13993" lon="4.27813">
        <ele>496</ele>
        <time>2015-07-09T15:18:29Z</time>
      </trkpt>
      <trkpt lat="46.14027" lon="4.278">
        <ele>496</ele>
        <time>2015-07-09T15:19:02Z</time>
      </trkpt>
      <trkpt lat="46.14036" lon="4.27797">
        <ele>495</ele>
        <time>2015-07-09T15:19:10Z</time>
      </trkpt>
      <trkpt lat="46.14047" lon="4.27797">
        <ele>496</ele>
        <time>2015-07-09T15:19:18Z</time>
      </trkpt>
      <trkpt lat="46.14068" lon="4.27798">
        <ele>496</ele>
        <time>2015-07-09T15:19:35Z</time>
      </trkpt>
      <trkpt lat="46.14073" lon="4.278">
        <ele>496</ele>
        <time>2015-07-09T15:19:40Z</time>
      </trkpt>
      <trkpt lat="46.14103" lon="4.27803">
        <ele>495</ele>
        <time>2015-07-09T15:20:06Z</time>
      </trkpt>
      <trkpt lat="46.14108" lon="4.27805">
        <ele>495</ele>
        <time>2015-07-09T15:20:10Z</time>
      </trkpt>
      <trkpt lat="46.14132" lon="4.27807">
        <ele>492</ele>
        <time>2015-07-09T15:20:31Z</time>
      </trkpt>
      <trkpt lat="46.14142" lon="4.27812">
        <ele>491</ele>
        <time>2015-07-09T15:20:38Z</time>
      </trkpt>
      <trkpt lat="46.1415" lon="4.2782">
        <ele>490</ele>
        <time>2015-07-09T15:20:51Z</time>
      </trkpt>
      <trkpt lat="46.14155" lon="4.27816">
        <ele>488</ele>
        <time>2015-07-09T15:20:57Z</time>
      </trkpt>
      <trkpt lat="46.14183" lon="4.2782">
        <ele>487</ele>
        <time>2015-07-09T15:21:16Z</time>
      </trkpt>
      <trkpt lat="46.14188" lon="4.27823">
        <ele>488</ele>
        <time>2015-07-09T15:21:23Z</time>
      </trkpt>
      <trkpt lat="46.14195" lon="4.27822">
        <ele>488</ele>
        <time>2015-07-09T15:21:28Z</time>
      </trkpt>
      <trkpt lat="46.14205" lon="4.2782">
        <ele>489</ele>
        <time>2015-07-09T15:21:35Z</time>
      </trkpt>
      <trkpt lat="46.14218" lon="4.27827">
        <ele>490</ele>
        <time>2015-07-09T15:21:50Z</time>
      </trkpt>
      <trkpt lat="46.14249" lon="4.27833">
        <ele>492</ele>
        <time>2015-07-09T15:22:17Z</time>
      </trkpt>
      <trkpt lat="46.14259" lon="4.27833">
        <ele>493</ele>
        <time>2015-07-09T15:22:26Z</time>
      </trkpt>
      <trkpt lat="46.14269" lon="4.27834">
        <ele>492</ele>
        <time>2015-07-09T15:22:36Z</time>
      </trkpt>
      <trkpt lat="46.14274" lon="4.27834">
        <ele>490</ele>
        <time>2015-07-09T15:22:41Z</time>
      </trkpt>
      <trkpt lat="46.14284" lon="4.27833">
        <ele>489</ele>
        <time>2015-07-09T15:22:50Z</time>
      </trkpt>
      <trkpt lat="46.14288" lon="4.27827">
        <ele>490</ele>
        <time>2015-07-09T15:22:56Z</time>
      </trkpt>
      <trkpt lat="46.1429" lon="4.27821">
        <ele>490</ele>
        <time>2015-07-09T15:23:01Z</time>
      </trkpt>
      <trkpt lat="46.1429" lon="4.27813">
        <ele>490</ele>
        <time>2015-07-09T15:23:07Z</time>
      </trkpt>
      <trkpt lat="46.14274" lon="4.27787">
        <ele>489</ele>
        <time>2015-07-09T15:23:26Z</time>
      </trkpt>
      <trkpt lat="46.1427" lon="4.27783">
        <ele>490</ele>
        <time>2015-07-09T15:23:30Z</time>
      </trkpt>
      <trkpt lat="46.14266" lon="4.27778">
        <ele>489</ele>
        <time>2015-07-09T15:23:35Z</time>
      </trkpt>
      <trkpt lat="46.14259" lon="4.27767">
        <ele>490</ele>
        <time>2015-07-09T15:23:45Z</time>
      </trkpt>
      <trkpt lat="46.14256" lon="4.2776">
        <ele>491</ele>
        <time>2015-07-09T15:23:50Z</time>
      </trkpt>
      <trkpt lat="46.14251" lon="4.27755">
        <ele>491</ele>
        <time>2015-07-09T15:23:55Z</time>
      </trkpt>
      <trkpt lat="46.14245" lon="4.27744">
        <ele>491</ele>
        <time>2015-07-09T15:24:02Z</time>
      </trkpt>
      <trkpt lat="46.14233" lon="4.27712">
        <ele>491</ele>
        <time>2015-07-09T15:24:20Z</time>
      </trkpt>
      <trkpt lat="46.14233" lon="4.27707">
        <ele>491</ele>
        <time>2015-07-09T15:24:28Z</time>
      </trkpt>
      <trkpt lat="46.14235" lon="4.27705">
        <ele>491</ele>
        <time>2015-07-09T15:24:34Z</time>
      </trkpt>
      <trkpt lat="46.14223" lon="4.2765">
        <ele>487</ele>
        <time>2015-07-09T15:25:09Z</time>
      </trkpt>
      <trkpt lat="46.14223" lon="4.27635">
        <ele>488</ele>
        <time>2015-07-09T15:25:18Z</time>
      </trkpt>
      <trkpt lat="46.14221" lon="4.27622">
        <ele>487</ele>
        <time>2015-07-09T15:25:26Z</time>
      </trkpt>
      <trkpt lat="46.14221" lon="4.27608">
        <ele>487</ele>
        <time>2015-07-09T15:25:35Z</time>
      </trkpt>
      <trkpt lat="46.14196" lon="4.27565">
        <ele>486</ele>
        <time>2015-07-09T15:26:08Z</time>
      </trkpt>
      <trkpt lat="46.14189" lon="4.27546">
        <ele>486</ele>
        <time>2015-07-09T15:26:20Z</time>
      </trkpt>
      <trkpt lat="46.14186" lon="4.27541">
        <ele>487</ele>
        <time>2015-07-09T15:26:24Z</time>
      </trkpt>
      <trkpt lat="46.14183" lon="4.27534">
        <ele>487</ele>
        <time>2015-07-09T15:26:28Z</time>
      </trkpt>
      <trkpt lat="46.14161" lon="4.27495">
        <ele>487</ele>
        <time>2015-07-09T15:26:59Z</time>
      </trkpt>
      <trkpt lat="46.14156" lon="4.27481">
        <ele>488</ele>
        <time>2015-07-09T15:27:07Z</time>
      </trkpt>
      <trkpt lat="46.14149" lon="4.27447">
        <ele>488</ele>
        <time>2015-07-09T15:27:28Z</time>
      </trkpt>
      <trkpt lat="46.14145" lon="4.27405">
        <ele>490</ele>
        <time>2015-07-09T15:27:53Z</time>
      </trkpt>
      <trkpt lat="46.14151" lon="4.27343">
        <ele>489</ele>
        <time>2015-07-09T15:28:32Z</time>
      </trkpt>
      <trkpt lat="46.14153" lon="4.27336">
        <ele>489</ele>
        <time>2015-07-09T15:28:36Z</time>
      </trkpt>
      <trkpt lat="46.14156" lon="4.27329">
        <ele>489</ele>
        <time>2015-07-09T15:28:41Z</time>
      </trkpt>
      <trkpt lat="46.14155" lon="4.27321">
        <ele>489</ele>
        <time>2015-07-09T15:28:45Z</time>
      </trkpt>
      <trkpt lat="46.14161" lon="4.27295">
        <ele>489</ele>
        <time>2015-07-09T15:29:00Z</time>
      </trkpt>
      <trkpt lat="46.14177" lon="4.27266">
        <ele>489</ele>
        <time>2015-07-09T15:29:40Z</time>
      </trkpt>
      <trkpt lat="46.14186" lon="4.2724">
        <ele>490</ele>
        <time>2015-07-09T15:29:56Z</time>
      </trkpt>
      <trkpt lat="46.14187" lon="4.27219">
        <ele>492</ele>
        <time>2015-07-09T15:30:08Z</time>
      </trkpt>
      <trkpt lat="46.14174" lon="4.27186">
        <ele>494</ele>
        <time>2015-07-09T15:30:27Z</time>
      </trkpt>
      <trkpt lat="46.14173" lon="4.27179">
        <ele>494</ele>
        <time>2015-07-09T15:30:31Z</time>
      </trkpt>
      <trkpt lat="46.14173" lon="4.27172">
        <ele>495</ele>
        <time>2015-07-09T15:30:35Z</time>
      </trkpt>
      <trkpt lat="46.14173" lon="4.27164">
        <ele>494</ele>
        <time>2015-07-09T15:30:39Z</time>
      </trkpt>
      <trkpt lat="46.14167" lon="4.27131">
        <ele>493</ele>
        <time>2015-07-09T15:30:58Z</time>
      </trkpt>
      <trkpt lat="46.14124" lon="4.27035">
        <ele>494</ele>
        <time>2015-07-09T15:32:10Z</time>
      </trkpt>
      <trkpt lat="46.14119" lon="4.27019">
        <ele>493</ele>
        <time>2015-07-09T15:32:19Z</time>
      </trkpt>
      <trkpt lat="46.14111" lon="4.27003">
        <ele>492</ele>
        <time>2015-07-09T15:32:30Z</time>
      </trkpt>
      <trkpt lat="46.141" lon="4.26953">
        <ele>487</ele>
        <time>2015-07-09T15:33:03Z</time>
      </trkpt>
      <trkpt lat="46.14102" lon="4.26939">
        <ele>486</ele>
        <time>2015-07-09T15:33:12Z</time>
      </trkpt>
      <trkpt lat="46.14101" lon="4.26931">
        <ele>486</ele>
        <time>2015-07-09T15:33:17Z</time>
      </trkpt>
      <trkpt lat="46.1411" lon="4.26823">
        <ele>476</ele>
        <time>2015-07-09T15:34:31Z</time>
      </trkpt>
      <trkpt lat="46.14113" lon="4.26816">
        <ele>475</ele>
        <time>2015-07-09T15:34:36Z</time>
      </trkpt>
      <trkpt lat="46.14117" lon="4.26787">
        <ele>473</ele>
        <time>2015-07-09T15:34:54Z</time>
      </trkpt>
      <trkpt lat="46.14119" lon="4.2678">
        <ele>473</ele>
        <time>2015-07-09T15:34:59Z</time>
      </trkpt>
      <trkpt lat="46.14123" lon="4.26777">
        <ele>472</ele>
        <time>2015-07-09T15:35:04Z</time>
      </trkpt>
      <trkpt lat="46.14149" lon="4.26776">
        <ele>470</ele>
        <time>2015-07-09T15:35:37Z</time>
      </trkpt>
      <trkpt lat="46.14172" lon="4.26791">
        <ele>463</ele>
        <time>2015-07-09T15:36:17Z</time>
      </trkpt>
      <trkpt lat="46.1418" lon="4.26798">
        <ele>462</ele>
        <time>2015-07-09T15:36:26Z</time>
      </trkpt>
      <trkpt lat="46.14214" lon="4.2681">
        <ele>455</ele>
        <time>2015-07-09T15:37:01Z</time>
      </trkpt>
      <trkpt lat="46.14238" lon="4.26815">
        <ele>451</ele>
        <time>2015-07-09T15:37:29Z</time>
      </trkpt>
      <trkpt lat="46.14242" lon="4.26822">
        <ele>451</ele>
        <time>2015-07-09T15:38:07Z</time>
      </trkpt>
      <trkpt lat="46.14251" lon="4.26828">
        <ele>451</ele>
        <time>2015-07-09T15:38:15Z</time>
      </trkpt>
      <trkpt lat="46.14286" lon="4.26829">
        <ele>448</ele>
        <time>2015-07-09T15:38:47Z</time>
      </trkpt>
      <trkpt lat="46.14324" lon="4.26822">
        <ele>447</ele>
        <time>2015-07-09T15:39:23Z</time>
      </trkpt>
      <trkpt lat="46.14352" lon="4.26823">
        <ele>445</ele>
        <time>2015-07-09T15:39:57Z</time>
      </trkpt>
      <trkpt lat="46.14356" lon="4.26825">
        <ele>445</ele>
        <time>2015-07-09T15:40:24Z</time>
      </trkpt>
      <trkpt lat="46.14358" lon="4.26823">
        <ele>444</ele>
        <time>2015-07-09T15:41:19Z</time>
      </trkpt>
      <trkpt lat="46.14363" lon="4.26821">
        <ele>443</ele>
        <time>2015-07-09T15:41:25Z</time>
      </trkpt>
      <trkpt lat="46.14388" lon="4.26828">
        <ele>441</ele>
        <time>2015-07-09T15:41:48Z</time>
      </trkpt>
      <trkpt lat="46.14422" lon="4.26839">
        <ele>438</ele>
        <time>2015-07-09T15:42:20Z</time>
      </trkpt>
      <trkpt lat="46.14424" lon="4.26834">
        <ele>438</ele>
        <time>2015-07-09T15:42:28Z</time>
      </trkpt>
      <trkpt lat="46.14425" lon="4.26819">
        <ele>439</ele>
        <time>2015-07-09T15:42:41Z</time>
      </trkpt>
      <trkpt lat="46.14436" lon="4.26746">
        <ele>431</ele>
        <time>2015-07-09T15:43:41Z</time>
      </trkpt>
      <trkpt lat="46.14463" lon="4.26711">
        <ele>423</ele>
        <time>2015-07-09T15:44:16Z</time>
      </trkpt>
      <trkpt lat="46.14504" lon="4.26686">
        <ele>416</ele>
        <time>2015-07-09T15:44:58Z</time>
      </trkpt>
      <trkpt lat="46.14532" lon="4.26676">
        <ele>413</ele>
        <time>2015-07-09T15:46:22Z</time>
      </trkpt>
      <trkpt lat="46.14537" lon="4.26674">
        <ele>413</ele>
        <time>2015-07-09T15:46:26Z</time>
      </trkpt>
      <trkpt lat="46.14542" lon="4.26671">
        <ele>412</ele>
        <time>2015-07-09T15:46:30Z</time>
      </trkpt>
      <trkpt lat="46.14547" lon="4.26658">
        <ele>410</ele>
        <time>2015-07-09T15:46:39Z</time>
      </trkpt>
      <trkpt lat="46.14569" lon="4.26615">
        <ele>409</ele>
        <time>2015-07-09T15:47:15Z</time>
      </trkpt>
      <trkpt lat="46.14587" lon="4.26591">
        <ele>408</ele>
        <time>2015-07-09T15:47:37Z</time>
      </trkpt>
      <trkpt lat="46.14595" lon="4.26582">
        <ele>408</ele>
        <time>2015-07-09T15:47:45Z</time>
      </trkpt>
      <trkpt lat="46.14598" lon="4.26562">
        <ele>409</ele>
        <time>2015-07-09T15:47:58Z</time>
      </trkpt>
      <trkpt lat="46.14598" lon="4.26525">
        <ele>409</ele>
        <time>2015-07-09T15:48:19Z</time>
      </trkpt>
      <trkpt lat="46.146" lon="4.26503">
        <ele>408</ele>
        <time>2015-07-09T15:48:32Z</time>
      </trkpt>
      <trkpt lat="46.14628" lon="4.26433">
        <ele>408</ele>
        <time>2015-07-09T15:49:18Z</time>
      </trkpt>
      <trkpt lat="46.14635" lon="4.26384">
        <ele>408</ele>
        <time>2015-07-09T15:49:48Z</time>
      </trkpt>
      <trkpt lat="46.14634" lon="4.26348">
        <ele>409</ele>
        <time>2015-07-09T15:50:11Z</time>
      </trkpt>
      <trkpt lat="46.14618" lon="4.26228">
        <ele>403</ele>
        <time>2015-07-09T15:51:22Z</time>
      </trkpt>
      <trkpt lat="46.14619" lon="4.26207">
        <ele>402</ele>
        <time>2015-07-09T15:51:35Z</time>
      </trkpt>
      <trkpt lat="46.14628" lon="4.26165">
        <ele>400</ele>
        <time>2015-07-09T15:52:05Z</time>
      </trkpt>
      <trkpt lat="46.14629" lon="4.26152">
        <ele>400</ele>
        <time>2015-07-09T15:52:13Z</time>
      </trkpt>
      <trkpt lat="46.14613" lon="4.26104">
        <ele>402</ele>
        <time>2015-07-09T15:52:46Z</time>
      </trkpt>
      <trkpt lat="46.14615" lon="4.261">
        <ele>403</ele>
        <time>2015-07-09T15:52:53Z</time>
      </trkpt>
      <trkpt lat="46.14624" lon="4.26095">
        <ele>404</ele>
        <time>2015-07-09T15:53:05Z</time>
      </trkpt>
      <trkpt lat="46.14663" lon="4.26085">
        <ele>404</ele>
        <time>2015-07-09T15:53:38Z</time>
      </trkpt>
      <trkpt lat="46.14684" lon="4.26069">
        <ele>406</ele>
        <time>2015-07-09T15:54:00Z</time>
      </trkpt>
      <trkpt lat="46.14688" lon="4.26064">
        <ele>406</ele>
        <time>2015-07-09T15:54:05Z</time>
      </trkpt>
      <trkpt lat="46.14695" lon="4.26058">
        <ele>406</ele>
        <time>2015-07-09T15:54:12Z</time>
      </trkpt>
      <trkpt lat="46.14703" lon="4.26037">
        <ele>406</ele>
        <time>2015-07-09T15:54:28Z</time>
      </trkpt>
      <trkpt lat="46.14705" lon="4.26022">
        <ele>409</ele>
        <time>2015-07-09T15:54:40Z</time>
      </trkpt>
      <trkpt lat="46.1471" lon="4.26007">
        <ele>410</ele>
        <time>2015-07-09T15:54:51Z</time>
      </trkpt>
      <trkpt lat="46.14711" lon="4.26">
        <ele>411</ele>
        <time>2015-07-09T15:54:55Z</time>
      </trkpt>
      <trkpt lat="46.14714" lon="4.25995">
        <ele>410</ele>
        <time>2015-07-09T15:55:00Z</time>
      </trkpt>
      <trkpt lat="46.14717" lon="4.2599">
        <ele>411</ele>
        <time>2015-07-09T15:55:04Z</time>
      </trkpt>
      <trkpt lat="46.14745" lon="4.25921">
        <ele>415</ele>
        <time>2015-07-09T15:55:50Z</time>
      </trkpt>
      <trkpt lat="46.1476" lon="4.25892">
        <ele>414</ele>
        <time>2015-07-09T15:56:12Z</time>
      </trkpt>
      <trkpt lat="46.14806" lon="4.2585">
        <ele>414</ele>
        <time>2015-07-09T15:56:59Z</time>
      </trkpt>
      <trkpt lat="46.14811" lon="4.25848">
        <ele>415</ele>
        <time>2015-07-09T15:57:07Z</time>
      </trkpt>
      <trkpt lat="46.14833" lon="4.25834">
        <ele>412</ele>
        <time>2015-07-09T15:57:30Z</time>
      </trkpt>
      <trkpt lat="46.14837" lon="4.25827">
        <ele>412</ele>
        <time>2015-07-09T15:57:36Z</time>
      </trkpt>
      <trkpt lat="46.14842" lon="4.25824">
        <ele>411</ele>
        <time>2015-07-09T15:57:40Z</time>
      </trkpt>
      <trkpt lat="46.14885" lon="4.25781">
        <ele>410</ele>
        <time>2015-07-09T15:58:28Z</time>
      </trkpt>
      <trkpt lat="46.14888" lon="4.25777">
        <ele>410</ele>
        <time>2015-07-09T15:58:33Z</time>
      </trkpt>
      <trkpt lat="46.14901" lon="4.25769">
        <ele>407</ele>
        <time>2015-07-09T15:58:45Z</time>
      </trkpt>
      <trkpt lat="46.14945" lon="4.25743">
        <ele>405</ele>
        <time>2015-07-09T15:59:28Z</time>
      </trkpt>
      <trkpt lat="46.14953" lon="4.25736">
        <ele>406</ele>
        <time>2015-07-09T15:59:36Z</time>
      </trkpt>
      <trkpt lat="46.14957" lon="4.25731">
        <ele>405</ele>
        <time>2015-07-09T15:59:40Z</time>
      </trkpt>
      <trkpt lat="46.1496" lon="4.25725">
        <ele>407</ele>
        <time>2015-07-09T15:59:44Z</time>
      </trkpt>
      <trkpt lat="46.14962" lon="4.25719">
        <ele>406</ele>
        <time>2015-07-09T15:59:48Z</time>
      </trkpt>
      <trkpt lat="46.14964" lon="4.25697">
        <ele>405</ele>
        <time>2015-07-09T16:00:00Z</time>
      </trkpt>
      <trkpt lat="46.1498" lon="4.25628">
        <ele>406</ele>
        <time>2015-07-09T16:00:45Z</time>
      </trkpt>
      <trkpt lat="46.14981" lon="4.2562">
        <ele>406</ele>
        <time>2015-07-09T16:00:49Z</time>
      </trkpt>
      <trkpt lat="46.14983" lon="4.25612">
        <ele>406</ele>
        <time>2015-07-09T16:00:54Z</time>
      </trkpt>
      <trkpt lat="46.14986" lon="4.25605">
        <ele>406</ele>
        <time>2015-07-09T16:00:59Z</time>
      </trkpt>
      <trkpt lat="46.1499" lon="4.25602">
        <ele>406</ele>
        <time>2015-07-09T16:01:03Z</time>
      </trkpt>
      <trkpt lat="46.14998" lon="4.25594">
        <ele>406</ele>
        <time>2015-07-09T16:01:12Z</time>
      </trkpt>
      <trkpt lat="46.15001" lon="4.25586">
        <ele>406</ele>
        <time>2015-07-09T16:01:17Z</time>
      </trkpt>
      <trkpt lat="46.15015" lon="4.25503">
        <ele>401</ele>
        <time>2015-07-09T16:02:08Z</time>
      </trkpt>
      <trkpt lat="46.15019" lon="4.25489">
        <ele>401</ele>
        <time>2015-07-09T16:02:17Z</time>
      </trkpt>
      <trkpt lat="46.15036" lon="4.2544">
        <ele>399</ele>
        <time>2015-07-09T16:02:52Z</time>
      </trkpt>
      <trkpt lat="46.15039" lon="4.25435">
        <ele>399</ele>
        <time>2015-07-09T16:02:56Z</time>
      </trkpt>
      <trkpt lat="46.15044" lon="4.25414">
        <ele>397</ele>
        <time>2015-07-09T16:03:10Z</time>
      </trkpt>
      <trkpt lat="46.15045" lon="4.25398">
        <ele>399</ele>
        <time>2015-07-09T16:03:19Z</time>
      </trkpt>
      <trkpt lat="46.15048" lon="4.25376">
        <ele>398</ele>
        <time>2015-07-09T16:03:33Z</time>
      </trkpt>
      <trkpt lat="46.15049" lon="4.25369">
        <ele>399</ele>
        <time>2015-07-09T16:03:38Z</time>
      </trkpt>
      <trkpt lat="46.15051" lon="4.25348">
        <ele>397</ele>
        <time>2015-07-09T16:03:51Z</time>
      </trkpt>
      <trkpt lat="46.1505" lon="4.2534">
        <ele>396</ele>
        <time>2015-07-09T16:03:56Z</time>
      </trkpt>
      <trkpt lat="46.15053" lon="4.25334">
        <ele>394</ele>
        <time>2015-07-09T16:04:01Z</time>
      </trkpt>
      <trkpt lat="46.15055" lon="4.25334">
        <ele>394</ele>
        <time>2015-07-09T16:04:07Z</time>
      </trkpt>
      <trkpt lat="46.15056" lon="4.25339">
        <ele>393</ele>
        <time>2015-07-09T16:04:24Z</time>
      </trkpt>
      <trkpt lat="46.15056" lon="4.25343">
        <ele>393</ele>
        <time>2015-07-09T16:04:52Z</time>
      </trkpt>
      <trkpt lat="46.15055" lon="4.2535">
        <ele>394</ele>
        <time>2015-07-09T16:05:09Z</time>
      </trkpt>
      <trkpt lat="46.15057" lon="4.25353">
        <ele>393</ele>
        <time>2015-07-09T16:05:26Z</time>
      </trkpt>
      <trkpt lat="46.15062" lon="4.25349">
        <ele>394</ele>
        <time>2015-07-09T16:30:26Z</time>
      </trkpt>
      <trkpt lat="46.15066" lon="4.25339">
        <ele>394</ele>
        <time>2015-07-09T16:31:57Z</time>
      </trkpt>
      <trkpt lat="46.15065" lon="4.25339">
        <ele>395</ele>
        <time>2015-07-09T16:33:49Z</time>
      </trkpt>
      <trkpt lat="46.15062" lon="4.25332">
        <ele>396</ele>
        <time>2015-07-09T16:34:28Z</time>
      </trkpt>
      <trkpt lat="46.15049" lon="4.25329">
        <ele>396</ele>
        <time>2015-07-09T16:34:45Z</time>
      </trkpt>
      <trkpt lat="46.15059" lon="4.25336">
        <ele>397</ele>
        <time>2015-07-10T06:30:23Z</time>
      </trkpt>
      <trkpt lat="46.15056" lon="4.25332">
        <ele>397</ele>
        <time>2015-07-10T06:30:34Z</time>
      </trkpt>
      <trkpt lat="46.15054" lon="4.25323">
        <ele>398</ele>
        <time>2015-07-10T06:30:57Z</time>
      </trkpt>
      <trkpt lat="46.1507" lon="4.25277">
        <ele>392</ele>
        <time>2015-07-10T06:31:31Z</time>
      </trkpt>
      <trkpt lat="46.15071" lon="4.2527">
        <ele>392</ele>
        <time>2015-07-10T06:31:35Z</time>
      </trkpt>
      <trkpt lat="46.15092" lon="4.25231">
        <ele>387</ele>
        <time>2015-07-10T06:32:06Z</time>
      </trkpt>
      <trkpt lat="46.15096" lon="4.25227">
        <ele>385</ele>
        <time>2015-07-10T06:32:11Z</time>
      </trkpt>
      <trkpt lat="46.15123" lon="4.25208">
        <ele>379</ele>
        <time>2015-07-10T06:32:41Z</time>
      </trkpt>
      <trkpt lat="46.15151" lon="4.25213">
        <ele>374</ele>
        <time>2015-07-10T06:33:13Z</time>
      </trkpt>
      <trkpt lat="46.15166" lon="4.25198">
        <ele>371</ele>
        <time>2015-07-10T06:33:30Z</time>
      </trkpt>
      <trkpt lat="46.15176" lon="4.25167">
        <ele>370</ele>
        <time>2015-07-10T06:33:51Z</time>
      </trkpt>
      <trkpt lat="46.15186" lon="4.25068">
        <ele>367</ele>
        <time>2015-07-10T06:34:53Z</time>
      </trkpt>
      <trkpt lat="46.15208" lon="4.24957">
        <ele>366</ele>
        <time>2015-07-10T06:36:04Z</time>
      </trkpt>
      <trkpt lat="46.15215" lon="4.24909">
        <ele>369</ele>
        <time>2015-07-10T06:36:38Z</time>
      </trkpt>
      <trkpt lat="46.15226" lon="4.2487">
        <ele>377</ele>
        <time>2015-07-10T06:37:12Z</time>
      </trkpt>
      <trkpt lat="46.15236" lon="4.24854">
        <ele>378</ele>
        <time>2015-07-10T06:37:35Z</time>
      </trkpt>
      <trkpt lat="46.15249" lon="4.24818">
        <ele>381</ele>
        <time>2015-07-10T06:38:08Z</time>
      </trkpt>
      <trkpt lat="46.1525" lon="4.24811">
        <ele>382</ele>
        <time>2015-07-10T06:38:14Z</time>
      </trkpt>
      <trkpt lat="46.15248" lon="4.24808">
        <ele>383</ele>
        <time>2015-07-10T06:38:21Z</time>
      </trkpt>
      <trkpt lat="46.15252" lon="4.24804">
        <ele>383</ele>
        <time>2015-07-10T06:38:25Z</time>
      </trkpt>
      <trkpt lat="46.15259" lon="4.24785">
        <ele>385</ele>
        <time>2015-07-10T06:38:40Z</time>
      </trkpt>
      <trkpt lat="46.15273" lon="4.24708">
        <ele>388</ele>
        <time>2015-07-10T06:39:35Z</time>
      </trkpt>
      <trkpt lat="46.15273" lon="4.24701">
        <ele>388</ele>
        <time>2015-07-10T06:39:41Z</time>
      </trkpt>
      <trkpt lat="46.15269" lon="4.24695">
        <ele>388</ele>
        <time>2015-07-10T06:39:46Z</time>
      </trkpt>
      <trkpt lat="46.15268" lon="4.24688">
        <ele>388</ele>
        <time>2015-07-10T06:39:51Z</time>
      </trkpt>
      <trkpt lat="46.1526" lon="4.24676">
        <ele>389</ele>
        <time>2015-07-10T06:40:09Z</time>
      </trkpt>
      <trkpt lat="46.15255" lon="4.24675">
        <ele>389</ele>
        <time>2015-07-10T06:40:17Z</time>
      </trkpt>
      <trkpt lat="46.15251" lon="4.24673">
        <ele>388</ele>
        <time>2015-07-10T06:40:23Z</time>
      </trkpt>
      <trkpt lat="46.15248" lon="4.24668">
        <ele>388</ele>
        <time>2015-07-10T06:40:33Z</time>
      </trkpt>
      <trkpt lat="46.15242" lon="4.24661">
        <ele>388</ele>
        <time>2015-07-10T06:40:53Z</time>
      </trkpt>
      <trkpt lat="46.15235" lon="4.24653">
        <ele>388</ele>
        <time>2015-07-10T06:41:09Z</time>
      </trkpt>
      <trkpt lat="46.15234" lon="4.24647">
        <ele>388</ele>
        <time>2015-07-10T06:41:21Z</time>
      </trkpt>
      <trkpt lat="46.15225" lon="4.24651">
        <ele>389</ele>
        <time>2015-07-10T06:41:29Z</time>
      </trkpt>
      <trkpt lat="46.15222" lon="4.24661">
        <ele>389</ele>
        <time>2015-07-10T06:43:16Z</time>
      </trkpt>
      <trkpt lat="46.15252" lon="4.24667">
        <ele>389</ele>
        <time>2015-07-10T06:43:56Z</time>
      </trkpt>
      <trkpt lat="46.15256" lon="4.2467">
        <ele>389</ele>
        <time>2015-07-10T06:44:27Z</time>
      </trkpt>
      <trkpt lat="46.15259" lon="4.24664">
        <ele>389</ele>
        <time>2015-07-10T06:44:32Z</time>
      </trkpt>
      <trkpt lat="46.15266" lon="4.24655">
        <ele>391</ele>
        <time>2015-07-10T06:44:42Z</time>
      </trkpt>
      <trkpt lat="46.15273" lon="4.24645">
        <ele>391</ele>
        <time>2015-07-10T06:44:52Z</time>
      </trkpt>
      <trkpt lat="46.15276" lon="4.24639">
        <ele>391</ele>
        <time>2015-07-10T06:44:57Z</time>
      </trkpt>
      <trkpt lat="46.15275" lon="4.24632">
        <ele>390</ele>
        <time>2015-07-10T06:45:01Z</time>
      </trkpt>
      <trkpt lat="46.15276" lon="4.24602">
        <ele>391</ele>
        <time>2015-07-10T06:45:19Z</time>
      </trkpt>
      <trkpt lat="46.15296" lon="4.24448">
        <ele>387</ele>
        <time>2015-07-10T06:46:49Z</time>
      </trkpt>
      <trkpt lat="46.15304" lon="4.2442">
        <ele>386</ele>
        <time>2015-07-10T06:47:05Z</time>
      </trkpt>
      <trkpt lat="46.15314" lon="4.24396">
        <ele>386</ele>
        <time>2015-07-10T06:47:21Z</time>
      </trkpt>
      <trkpt lat="46.15328" lon="4.24375">
        <ele>385</ele>
        <time>2015-07-10T06:47:37Z</time>
      </trkpt>
      <trkpt lat="46.15332" lon="4.24371">
        <ele>386</ele>
        <time>2015-07-10T06:47:41Z</time>
      </trkpt>
      <trkpt lat="46.15367" lon="4.24342">
        <ele>385</ele>
        <time>2015-07-10T06:48:14Z</time>
      </trkpt>
      <trkpt lat="46.15371" lon="4.2434">
        <ele>385</ele>
        <time>2015-07-10T06:48:18Z</time>
      </trkpt>
      <trkpt lat="46.15411" lon="4.24327">
        <ele>384</ele>
        <time>2015-07-10T06:48:52Z</time>
      </trkpt>
      <trkpt lat="46.15413" lon="4.24327">
        <ele>385</ele>
        <time>2015-07-10T06:49:20Z</time>
      </trkpt>
      <trkpt lat="46.155" lon="4.24301">
        <ele>385</ele>
        <time>2015-07-10T06:50:40Z</time>
      </trkpt>
      <trkpt lat="46.15519" lon="4.24292">
        <ele>385</ele>
        <time>2015-07-10T06:50:58Z</time>
      </trkpt>
      <trkpt lat="46.15528" lon="4.24289">
        <ele>385</ele>
        <time>2015-07-10T06:51:07Z</time>
      </trkpt>
      <trkpt lat="46.15532" lon="4.24284">
        <ele>385</ele>
        <time>2015-07-10T06:51:12Z</time>
      </trkpt>
      <trkpt lat="46.15531" lon="4.24278">
        <ele>385</ele>
        <time>2015-07-10T06:51:16Z</time>
      </trkpt>
      <trkpt lat="46.15482" lon="4.24225">
        <ele>386</ele>
        <time>2015-07-10T06:52:12Z</time>
      </trkpt>
      <trkpt lat="46.15478" lon="4.24223">
        <ele>385</ele>
        <time>2015-07-10T06:52:17Z</time>
      </trkpt>
      <trkpt lat="46.15477" lon="4.2423">
        <ele>385</ele>
        <time>2015-07-10T06:52:23Z</time>
      </trkpt>
      <trkpt lat="46.15477" lon="4.24225">
        <ele>386</ele>
        <time>2015-07-10T06:53:23Z</time>
      </trkpt>
      <trkpt lat="46.15482" lon="4.24223">
        <ele>386</ele>
        <time>2015-07-10T06:53:29Z</time>
      </trkpt>
      <trkpt lat="46.15534" lon="4.24282">
        <ele>387</ele>
        <time>2015-07-10T06:54:23Z</time>
      </trkpt>
      <trkpt lat="46.15533" lon="4.24289">
        <ele>387</ele>
        <time>2015-07-10T06:54:27Z</time>
      </trkpt>
      <trkpt lat="46.15532" lon="4.24296">
        <ele>387</ele>
        <time>2015-07-10T06:54:32Z</time>
      </trkpt>
      <trkpt lat="46.15532" lon="4.24292">
        <ele>387</ele>
        <time>2015-07-10T06:56:01Z</time>
      </trkpt>
      <trkpt lat="46.15536" lon="4.24282">
        <ele>387</ele>
        <time>2015-07-10T06:56:12Z</time>
      </trkpt>
      <trkpt lat="46.15646" lon="4.242">
        <ele>381</ele>
        <time>2015-07-10T06:57:53Z</time>
      </trkpt>
      <trkpt lat="46.15651" lon="4.24197">
        <ele>381</ele>
        <time>2015-07-10T06:57:57Z</time>
      </trkpt>
      <trkpt lat="46.15679" lon="4.24167">
        <ele>378</ele>
        <time>2015-07-10T06:58:25Z</time>
      </trkpt>
      <trkpt lat="46.15681" lon="4.2413">
        <ele>377</ele>
        <time>2015-07-10T06:58:46Z</time>
      </trkpt>
      <trkpt lat="46.15665" lon="4.24053">
        <ele>380</ele>
        <time>2015-07-10T06:59:30Z</time>
      </trkpt>
      <trkpt lat="46.1566" lon="4.23994">
        <ele>384</ele>
        <time>2015-07-10T07:00:02Z</time>
      </trkpt>
      <trkpt lat="46.15666" lon="4.23893">
        <ele>390</ele>
        <time>2015-07-10T07:00:58Z</time>
      </trkpt>
      <trkpt lat="46.1568" lon="4.23817">
        <ele>391</ele>
        <time>2015-07-10T07:01:44Z</time>
      </trkpt>
      <trkpt lat="46.15682" lon="4.2381">
        <ele>391</ele>
        <time>2015-07-10T07:01:48Z</time>
      </trkpt>
      <trkpt lat="46.15685" lon="4.23796">
        <ele>392</ele>
        <time>2015-07-10T07:01:56Z</time>
      </trkpt>
      <trkpt lat="46.15693" lon="4.2377">
        <ele>395</ele>
        <time>2015-07-10T07:02:12Z</time>
      </trkpt>
      <trkpt lat="46.15735" lon="4.23671">
        <ele>399</ele>
        <time>2015-07-10T07:03:17Z</time>
      </trkpt>
      <trkpt lat="46.15874" lon="4.23413">
        <ele>411</ele>
        <time>2015-07-10T07:06:22Z</time>
      </trkpt>
      <trkpt lat="46.15872" lon="4.23406">
        <ele>411</ele>
        <time>2015-07-10T07:06:28Z</time>
      </trkpt>
      <trkpt lat="46.15816" lon="4.23391">
        <ele>406</ele>
        <time>2015-07-10T07:07:12Z</time>
      </trkpt>
      <trkpt lat="46.15779" lon="4.23367">
        <ele>400</ele>
        <time>2015-07-10T07:07:43Z</time>
      </trkpt>
      <trkpt lat="46.15778" lon="4.2336">
        <ele>399</ele>
        <time>2015-07-10T07:07:52Z</time>
      </trkpt>
      <trkpt lat="46.15781" lon="4.23353">
        <ele>399</ele>
        <time>2015-07-10T07:07:56Z</time>
      </trkpt>
      <trkpt lat="46.15784" lon="4.23348">
        <ele>400</ele>
        <time>2015-07-10T07:08:00Z</time>
      </trkpt>
      <trkpt lat="46.15817" lon="4.23275">
        <ele>396</ele>
        <time>2015-07-10T07:08:54Z</time>
      </trkpt>
      <trkpt lat="46.15821" lon="4.23232">
        <ele>394</ele>
        <time>2015-07-10T07:09:18Z</time>
      </trkpt>
      <trkpt lat="46.15824" lon="4.23226">
        <ele>397</ele>
        <time>2015-07-10T07:09:46Z</time>
      </trkpt>
      <trkpt lat="46.15822" lon="4.23219">
        <ele>397</ele>
        <time>2015-07-10T07:09:50Z</time>
      </trkpt>
      <trkpt lat="46.15821" lon="4.23211">
        <ele>395</ele>
        <time>2015-07-10T07:09:54Z</time>
      </trkpt>
      <trkpt lat="46.15797" lon="4.23136">
        <ele>401</ele>
        <time>2015-07-10T07:10:33Z</time>
      </trkpt>
      <trkpt lat="46.15772" lon="4.23064">
        <ele>405</ele>
        <time>2015-07-10T07:11:16Z</time>
      </trkpt>
      <trkpt lat="46.15738" lon="4.22999">
        <ele>402</ele>
        <time>2015-07-10T07:12:01Z</time>
      </trkpt>
      <trkpt lat="46.15735" lon="4.22985">
        <ele>401</ele>
        <time>2015-07-10T07:12:09Z</time>
      </trkpt>
      <trkpt lat="46.15709" lon="4.22936">
        <ele>399</ele>
        <time>2015-07-10T07:12:42Z</time>
      </trkpt>
      <trkpt lat="46.15701" lon="4.22903">
        <ele>400</ele>
        <time>2015-07-10T07:12:58Z</time>
      </trkpt>
      <trkpt lat="46.15701" lon="4.22895">
        <ele>400</ele>
        <time>2015-07-10T07:13:02Z</time>
      </trkpt>
      <trkpt lat="46.15708" lon="4.22837">
        <ele>399</ele>
        <time>2015-07-10T07:13:35Z</time>
      </trkpt>
      <trkpt lat="46.15712" lon="4.22822">
        <ele>399</ele>
        <time>2015-07-10T07:13:43Z</time>
      </trkpt>
      <trkpt lat="46.15741" lon="4.22652">
        <ele>396</ele>
        <time>2015-07-10T07:15:16Z</time>
      </trkpt>
      <trkpt lat="46.1575" lon="4.22575">
        <ele>398</ele>
        <time>2015-07-10T07:16:02Z</time>
      </trkpt>
      <trkpt lat="46.15745" lon="4.22484">
        <ele>402</ele>
        <time>2015-07-10T07:16:56Z</time>
      </trkpt>
      <trkpt lat="46.15781" lon="4.22252">
        <ele>397</ele>
        <time>2015-07-10T07:19:23Z</time>
      </trkpt>
      <trkpt lat="46.15783" lon="4.22246">
        <ele>398</ele>
        <time>2015-07-10T07:19:29Z</time>
      </trkpt>
      <trkpt lat="46.15781" lon="4.22238">
        <ele>398</ele>
        <time>2015-07-10T07:19:33Z</time>
      </trkpt>
      <trkpt lat="46.15776" lon="4.22219">
        <ele>398</ele>
        <time>2015-07-10T07:19:43Z</time>
      </trkpt>
      <trkpt lat="46.15776" lon="4.22211">
        <ele>399</ele>
        <time>2015-07-10T07:19:48Z</time>
      </trkpt>
      <trkpt lat="46.15771" lon="4.22173">
        <ele>401</ele>
        <time>2015-07-10T07:20:10Z</time>
      </trkpt>
      <trkpt lat="46.15772" lon="4.22165">
        <ele>401</ele>
        <time>2015-07-10T07:20:15Z</time>
      </trkpt>
      <trkpt lat="46.15773" lon="4.22113">
        <ele>405</ele>
        <time>2015-07-10T07:20:46Z</time>
      </trkpt>
      <trkpt lat="46.15775" lon="4.22099">
        <ele>405</ele>
        <time>2015-07-10T07:20:54Z</time>
      </trkpt>
      <trkpt lat="46.15774" lon="4.22075">
        <ele>406</ele>
        <time>2015-07-10T07:21:06Z</time>
      </trkpt>
      <trkpt lat="46.15778" lon="4.22063">
        <ele>406</ele>
        <time>2015-07-10T07:21:15Z</time>
      </trkpt>
      <trkpt lat="46.15778" lon="4.22056">
        <ele>407</ele>
        <time>2015-07-10T07:21:19Z</time>
      </trkpt>
      <trkpt lat="46.15777" lon="4.22046">
        <ele>406</ele>
        <time>2015-07-10T07:21:31Z</time>
      </trkpt>
      <trkpt lat="46.15785" lon="4.21964">
        <ele>404</ele>
        <time>2015-07-10T07:22:15Z</time>
      </trkpt>
      <trkpt lat="46.15782" lon="4.21932">
        <ele>403</ele>
        <time>2015-07-10T07:22:34Z</time>
      </trkpt>
      <trkpt lat="46.15785" lon="4.21926">
        <ele>402</ele>
        <time>2015-07-10T07:22:39Z</time>
      </trkpt>
      <trkpt lat="46.15788" lon="4.2192">
        <ele>402</ele>
        <time>2015-07-10T07:22:45Z</time>
      </trkpt>
      <trkpt lat="46.15788" lon="4.21889">
        <ele>399</ele>
        <time>2015-07-10T07:23:02Z</time>
      </trkpt>
      <trkpt lat="46.15791" lon="4.21874">
        <ele>399</ele>
        <time>2015-07-10T07:23:12Z</time>
      </trkpt>
      <trkpt lat="46.15793" lon="4.21859">
        <ele>398</ele>
        <time>2015-07-10T07:23:20Z</time>
      </trkpt>
      <trkpt lat="46.15792" lon="4.21846">
        <ele>398</ele>
        <time>2015-07-10T07:23:27Z</time>
      </trkpt>
      <trkpt lat="46.15794" lon="4.21839">
        <ele>397</ele>
        <time>2015-07-10T07:23:31Z</time>
      </trkpt>
      <trkpt lat="46.15795" lon="4.21831">
        <ele>397</ele>
        <time>2015-07-10T07:23:35Z</time>
      </trkpt>
      <trkpt lat="46.15798" lon="4.21824">
        <ele>397</ele>
        <time>2015-07-10T07:23:39Z</time>
      </trkpt>
      <trkpt lat="46.15797" lon="4.21817">
        <ele>396</ele>
        <time>2015-07-10T07:23:43Z</time>
      </trkpt>
      <trkpt lat="46.15798" lon="4.2181">
        <ele>396</ele>
        <time>2015-07-10T07:23:47Z</time>
      </trkpt>
      <trkpt lat="46.15806" lon="4.2179">
        <ele>396</ele>
        <time>2015-07-10T07:24:05Z</time>
      </trkpt>
      <trkpt lat="46.15805" lon="4.21785">
        <ele>396</ele>
        <time>2015-07-10T07:24:22Z</time>
      </trkpt>
      <trkpt lat="46.1582" lon="4.21719">
        <ele>394</ele>
        <time>2015-07-10T07:24:58Z</time>
      </trkpt>
      <trkpt lat="46.1582" lon="4.21687">
        <ele>395</ele>
        <time>2015-07-10T07:25:30Z</time>
      </trkpt>
      <trkpt lat="46.15807" lon="4.21599">
        <ele>395</ele>
        <time>2015-07-10T07:26:26Z</time>
      </trkpt>
      <trkpt lat="46.15804" lon="4.21592">
        <ele>395</ele>
        <time>2015-07-10T07:26:31Z</time>
      </trkpt>
      <trkpt lat="46.15769" lon="4.21548">
        <ele>392</ele>
        <time>2015-07-10T07:27:07Z</time>
      </trkpt>
      <trkpt lat="46.15728" lon="4.21439">
        <ele>389</ele>
        <time>2015-07-10T07:28:16Z</time>
      </trkpt>
      <trkpt lat="46.15715" lon="4.21416">
        <ele>389</ele>
        <time>2015-07-10T07:28:34Z</time>
      </trkpt>
      <trkpt lat="46.15685" lon="4.21377">
        <ele>388</ele>
        <time>2015-07-10T07:29:06Z</time>
      </trkpt>
      <trkpt lat="46.15587" lon="4.21068">
        <ele>380</ele>
        <time>2015-07-10T07:32:17Z</time>
      </trkpt>
      <trkpt lat="46.15551" lon="4.20969">
        <ele>374</ele>
        <time>2015-07-10T07:33:19Z</time>
      </trkpt>
      <trkpt lat="46.15538" lon="4.20911">
        <ele>373</ele>
        <time>2015-07-10T07:33:52Z</time>
      </trkpt>
      <trkpt lat="46.15535" lon="4.20905">
        <ele>373</ele>
        <time>2015-07-10T07:33:56Z</time>
      </trkpt>
      <trkpt lat="46.15528" lon="4.20835">
        <ele>371</ele>
        <time>2015-07-10T07:34:33Z</time>
      </trkpt>
      <trkpt lat="46.15521" lon="4.20801">
        <ele>370</ele>
        <time>2015-07-10T07:34:53Z</time>
      </trkpt>
      <trkpt lat="46.15494" lon="4.20595">
        <ele>371</ele>
        <time>2015-07-10T07:37:20Z</time>
      </trkpt>
      <trkpt lat="46.15485" lon="4.2056">
        <ele>373</ele>
        <time>2015-07-10T07:37:39Z</time>
      </trkpt>
      <trkpt lat="46.15484" lon="4.20553">
        <ele>373</ele>
        <time>2015-07-10T07:37:45Z</time>
      </trkpt>
      <trkpt lat="46.15484" lon="4.20546">
        <ele>374</ele>
        <time>2015-07-10T07:37:49Z</time>
      </trkpt>
      <trkpt lat="46.15433" lon="4.20142">
        <ele>367</ele>
        <time>2015-07-10T07:41:30Z</time>
      </trkpt>
      <trkpt lat="46.15437" lon="4.2013">
        <ele>367</ele>
        <time>2015-07-10T07:41:38Z</time>
      </trkpt>
      <trkpt lat="46.15434" lon="4.20121">
        <ele>367</ele>
        <time>2015-07-10T07:41:53Z</time>
      </trkpt>
      <trkpt lat="46.1543" lon="4.201">
        <ele>370</ele>
        <time>2015-07-10T07:42:05Z</time>
      </trkpt>
      <trkpt lat="46.15416" lon="4.1995">
        <ele>369</ele>
        <time>2015-07-10T07:43:26Z</time>
      </trkpt>
      <trkpt lat="46.15412" lon="4.19929">
        <ele>368</ele>
        <time>2015-07-10T07:43:38Z</time>
      </trkpt>
      <trkpt lat="46.15411" lon="4.19906">
        <ele>370</ele>
        <time>2015-07-10T07:43:52Z</time>
      </trkpt>
      <trkpt lat="46.15409" lon="4.199">
        <ele>370</ele>
        <time>2015-07-10T07:43:58Z</time>
      </trkpt>
      <trkpt lat="46.15406" lon="4.19893">
        <ele>369</ele>
        <time>2015-07-10T07:44:03Z</time>
      </trkpt>
      <trkpt lat="46.15403" lon="4.19873">
        <ele>370</ele>
        <time>2015-07-10T07:44:12Z</time>
      </trkpt>
      <trkpt lat="46.15402" lon="4.19865">
        <ele>369</ele>
        <time>2015-07-10T07:44:15Z</time>
      </trkpt>
      <trkpt lat="46.15403" lon="4.19858">
        <ele>369</ele>
        <time>2015-07-10T07:44:18Z</time>
      </trkpt>
      <trkpt lat="46.15402" lon="4.1985">
        <ele>369</ele>
        <time>2015-07-10T07:44:22Z</time>
      </trkpt>
      <trkpt lat="46.154" lon="4.19843">
        <ele>370</ele>
        <time>2015-07-10T07:44:26Z</time>
      </trkpt>
      <trkpt lat="46.15395" lon="4.19831">
        <ele>369</ele>
        <time>2015-07-10T07:44:36Z</time>
      </trkpt>
      <trkpt lat="46.1539" lon="4.19791">
        <ele>369</ele>
        <time>2015-07-10T07:44:55Z</time>
      </trkpt>
      <trkpt lat="46.15388" lon="4.19784">
        <ele>368</ele>
        <time>2015-07-10T07:45:01Z</time>
      </trkpt>
      <trkpt lat="46.15373" lon="4.19697">
        <ele>364</ele>
        <time>2015-07-10T07:45:50Z</time>
      </trkpt>
      <trkpt lat="46.15352" lon="4.19601">
        <ele>364</ele>
        <time>2015-07-10T07:46:43Z</time>
      </trkpt>
      <trkpt lat="46.15353" lon="4.19595">
        <ele>364</ele>
        <time>2015-07-10T07:46:50Z</time>
      </trkpt>
      <trkpt lat="46.15349" lon="4.19579">
        <ele>366</ele>
        <time>2015-07-10T07:47:07Z</time>
      </trkpt>
      <trkpt lat="46.15336" lon="4.19481">
        <ele>363</ele>
        <time>2015-07-10T07:48:00Z</time>
      </trkpt>
      <trkpt lat="46.15341" lon="4.1937">
        <ele>365</ele>
        <time>2015-07-10T07:49:00Z</time>
      </trkpt>
      <trkpt lat="46.1534" lon="4.19357">
        <ele>365</ele>
        <time>2015-07-10T07:49:08Z</time>
      </trkpt>
      <trkpt lat="46.15332" lon="4.19302">
        <ele>360</ele>
        <time>2015-07-10T07:49:41Z</time>
      </trkpt>
      <trkpt lat="46.15308" lon="4.19235">
        <ele>358</ele>
        <time>2015-07-10T07:50:25Z</time>
      </trkpt>
      <trkpt lat="46.15306" lon="4.19228">
        <ele>358</ele>
        <time>2015-07-10T07:50:29Z</time>
      </trkpt>
      <trkpt lat="46.15306" lon="4.1922">
        <ele>358</ele>
        <time>2015-07-10T07:50:33Z</time>
      </trkpt>
      <trkpt lat="46.1531" lon="4.19207">
        <ele>358</ele>
        <time>2015-07-10T07:50:41Z</time>
      </trkpt>
      <trkpt lat="46.1531" lon="4.19171">
        <ele>358</ele>
        <time>2015-07-10T07:51:01Z</time>
      </trkpt>
      <trkpt lat="46.15338" lon="4.19127">
        <ele>357</ele>
        <time>2015-07-10T07:51:34Z</time>
      </trkpt>
      <trkpt lat="46.15352" lon="4.19097">
        <ele>359</ele>
        <time>2015-07-10T07:51:55Z</time>
      </trkpt>
      <trkpt lat="46.15412" lon="4.18841">
        <ele>360</ele>
        <time>2015-07-10T07:54:19Z</time>
      </trkpt>
      <trkpt lat="46.15418" lon="4.18804">
        <ele>362</ele>
        <time>2015-07-10T07:54:39Z</time>
      </trkpt>
      <trkpt lat="46.1542" lon="4.18753">
        <ele>360</ele>
        <time>2015-07-10T07:55:07Z</time>
      </trkpt>
      <trkpt lat="46.1539" lon="4.18541">
        <ele>354</ele>
        <time>2015-07-10T07:57:08Z</time>
      </trkpt>
      <trkpt lat="46.15379" lon="4.18492">
        <ele>352</ele>
        <time>2015-07-10T07:57:36Z</time>
      </trkpt>
      <trkpt lat="46.15361" lon="4.1838">
        <ele>338</ele>
        <time>2015-07-10T07:58:46Z</time>
      </trkpt>
      <trkpt lat="46.15337" lon="4.18307">
        <ele>335</ele>
        <time>2015-07-10T07:59:31Z</time>
      </trkpt>
      <trkpt lat="46.15335" lon="4.183">
        <ele>334</ele>
        <time>2015-07-10T07:59:35Z</time>
      </trkpt>
      <trkpt lat="46.15338" lon="4.1825">
        <ele>332</ele>
        <time>2015-07-10T08:00:03Z</time>
      </trkpt>
      <trkpt lat="46.15339" lon="4.18244">
        <ele>332</ele>
        <time>2015-07-10T08:00:07Z</time>
      </trkpt>
      <trkpt lat="46.15342" lon="4.18237">
        <ele>334</ele>
        <time>2015-07-10T08:00:14Z</time>
      </trkpt>
      <trkpt lat="46.15361" lon="4.18089">
        <ele>324</ele>
        <time>2015-07-10T08:02:42Z</time>
      </trkpt>
      <trkpt lat="46.15364" lon="4.18076">
        <ele>323</ele>
        <time>2015-07-10T08:02:50Z</time>
      </trkpt>
      <trkpt lat="46.15344" lon="4.17983">
        <ele>313</ele>
        <time>2015-07-10T08:04:01Z</time>
      </trkpt>
      <trkpt lat="46.15361" lon="4.17879">
        <ele>305</ele>
        <time>2015-07-10T08:05:16Z</time>
      </trkpt>
      <trkpt lat="46.15362" lon="4.17843">
        <ele>301</ele>
        <time>2015-07-10T08:05:56Z</time>
      </trkpt>
      <trkpt lat="46.15366" lon="4.17837">
        <ele>300</ele>
        <time>2015-07-10T08:06:00Z</time>
      </trkpt>
      <trkpt lat="46.15366" lon="4.1783">
        <ele>299</ele>
        <time>2015-07-10T08:06:04Z</time>
      </trkpt>
      <trkpt lat="46.15361" lon="4.17816">
        <ele>297</ele>
        <time>2015-07-10T08:06:12Z</time>
      </trkpt>
      <trkpt lat="46.15362" lon="4.1778">
        <ele>297</ele>
        <time>2015-07-10T08:06:31Z</time>
      </trkpt>
      <trkpt lat="46.15363" lon="4.17773">
        <ele>296</ele>
        <time>2015-07-10T08:06:36Z</time>
      </trkpt>
      <trkpt lat="46.1536" lon="4.17752">
        <ele>294</ele>
        <time>2015-07-10T08:06:49Z</time>
      </trkpt>
      <trkpt lat="46.15366" lon="4.17716">
        <ele>287</ele>
        <time>2015-07-10T08:07:09Z</time>
      </trkpt>
      <trkpt lat="46.15376" lon="4.17706">
        <ele>285</ele>
        <time>2015-07-10T08:07:24Z</time>
      </trkpt>
      <trkpt lat="46.15379" lon="4.177">
        <ele>285</ele>
        <time>2015-07-10T08:07:28Z</time>
      </trkpt>
      <trkpt lat="46.15415" lon="4.17675">
        <ele>283</ele>
        <time>2015-07-10T08:08:01Z</time>
      </trkpt>
      <trkpt lat="46.15465" lon="4.17624">
        <ele>278</ele>
        <time>2015-07-10T08:08:51Z</time>
      </trkpt>
      <trkpt lat="46.15487" lon="4.17587">
        <ele>276</ele>
        <time>2015-07-10T08:09:19Z</time>
      </trkpt>
      <trkpt lat="46.15492" lon="4.17567">
        <ele>277</ele>
        <time>2015-07-10T08:09:32Z</time>
      </trkpt>
      <trkpt lat="46.15503" lon="4.17551">
        <ele>278</ele>
        <time>2015-07-10T08:09:44Z</time>
      </trkpt>
      <trkpt lat="46.15524" lon="4.17531">
        <ele>277</ele>
        <time>2015-07-10T08:10:04Z</time>
      </trkpt>
      <trkpt lat="46.15533" lon="4.17529">
        <ele>277</ele>
        <time>2015-07-10T08:10:12Z</time>
      </trkpt>
      <trkpt lat="46.15538" lon="4.1753">
        <ele>276</ele>
        <time>2015-07-10T08:10:16Z</time>
      </trkpt>
      <trkpt lat="46.15543" lon="4.17528">
        <ele>276</ele>
        <time>2015-07-10T08:10:22Z</time>
      </trkpt>
      <trkpt lat="46.1555" lon="4.17536">
        <ele>275</ele>
        <time>2015-07-10T08:10:40Z</time>
      </trkpt>
      <trkpt lat="46.15556" lon="4.17532">
        <ele>275</ele>
        <time>2015-07-10T08:10:50Z</time>
      </trkpt>
      <trkpt lat="46.1556" lon="4.17528">
        <ele>276</ele>
        <time>2015-07-10T08:10:55Z</time>
      </trkpt>
      <trkpt lat="46.15562" lon="4.17526">
        <ele>277</ele>
        <time>2015-07-10T08:11:01Z</time>
      </trkpt>
      <trkpt lat="46.15566" lon="4.17518">
        <ele>277</ele>
        <time>2015-07-10T08:11:12Z</time>
      </trkpt>
      <trkpt lat="46.1558" lon="4.17506">
        <ele>277</ele>
        <time>2015-07-10T08:11:29Z</time>
      </trkpt>
      <trkpt lat="46.15584" lon="4.17505">
        <ele>278</ele>
        <time>2015-07-10T08:11:33Z</time>
      </trkpt>
      <trkpt lat="46.1559" lon="4.17504">
        <ele>279</ele>
        <time>2015-07-10T08:11:38Z</time>
      </trkpt>
      <trkpt lat="46.15596" lon="4.17501">
        <ele>280</ele>
        <time>2015-07-10T08:11:55Z</time>
      </trkpt>
      <trkpt lat="46.15635" lon="4.17495">
        <ele>278</ele>
        <time>2015-07-10T08:12:29Z</time>
      </trkpt>
      <trkpt lat="46.15639" lon="4.17498">
        <ele>277</ele>
        <time>2015-07-10T08:12:36Z</time>
      </trkpt>
      <trkpt lat="46.15642" lon="4.17492">
        <ele>278</ele>
        <time>2015-07-10T08:13:11Z</time>
      </trkpt>
      <trkpt lat="46.1565" lon="4.17484">
        <ele>278</ele>
        <time>2015-07-10T08:13:20Z</time>
      </trkpt>
      <trkpt lat="46.1566" lon="4.17467">
        <ele>277</ele>
        <time>2015-07-10T08:13:34Z</time>
      </trkpt>
      <trkpt lat="46.15665" lon="4.17452">
        <ele>277</ele>
        <time>2015-07-10T08:13:43Z</time>
      </trkpt>
      <trkpt lat="46.15668" lon="4.17446">
        <ele>277</ele>
        <time>2015-07-10T08:13:46Z</time>
      </trkpt>
      <trkpt lat="46.15671" lon="4.1744">
        <ele>277</ele>
        <time>2015-07-10T08:13:50Z</time>
      </trkpt>
      <trkpt lat="46.15674" lon="4.17435">
        <ele>278</ele>
        <time>2015-07-10T08:13:55Z</time>
      </trkpt>
      <trkpt lat="46.15679" lon="4.1743">
        <ele>278</ele>
        <time>2015-07-10T08:14:00Z</time>
      </trkpt>
      <trkpt lat="46.15692" lon="4.17419">
        <ele>276</ele>
        <time>2015-07-10T08:14:10Z</time>
      </trkpt>
      <trkpt lat="46.15698" lon="4.17416">
        <ele>276</ele>
        <time>2015-07-10T08:14:15Z</time>
      </trkpt>
      <trkpt lat="46.15712" lon="4.17416">
        <ele>274</ele>
        <time>2015-07-10T08:14:27Z</time>
      </trkpt>
      <trkpt lat="46.15721" lon="4.17413">
        <ele>273</ele>
        <time>2015-07-10T08:14:52Z</time>
      </trkpt>
      <trkpt lat="46.1573" lon="4.17406">
        <ele>273</ele>
        <time>2015-07-10T08:15:05Z</time>
      </trkpt>
      <trkpt lat="46.15757" lon="4.17392">
        <ele>277</ele>
        <time>2015-07-10T08:15:31Z</time>
      </trkpt>
      <trkpt lat="46.15766" lon="4.17386">
        <ele>277</ele>
        <time>2015-07-10T08:15:38Z</time>
      </trkpt>
      <trkpt lat="46.15773" lon="4.17374">
        <ele>278</ele>
        <time>2015-07-10T08:16:06Z</time>
      </trkpt>
      <trkpt lat="46.15778" lon="4.17371">
        <ele>278</ele>
        <time>2015-07-10T08:16:11Z</time>
      </trkpt>
      <trkpt lat="46.15782" lon="4.1737">
        <ele>277</ele>
        <time>2015-07-10T08:16:16Z</time>
      </trkpt>
      <trkpt lat="46.15795" lon="4.17374">
        <ele>278</ele>
        <time>2015-07-10T08:16:38Z</time>
      </trkpt>
      <trkpt lat="46.15801" lon="4.17374">
        <ele>280</ele>
        <time>2015-07-10T08:16:43Z</time>
      </trkpt>
      <trkpt lat="46.15806" lon="4.17373">
        <ele>280</ele>
        <time>2015-07-10T08:16:47Z</time>
      </trkpt>
      <trkpt lat="46.15811" lon="4.17372">
        <ele>280</ele>
        <time>2015-07-10T08:16:52Z</time>
      </trkpt>
      <trkpt lat="46.15815" lon="4.17367">
        <ele>279</ele>
        <time>2015-07-10T08:16:57Z</time>
      </trkpt>
      <trkpt lat="46.15818" lon="4.17336">
        <ele>276</ele>
        <time>2015-07-10T08:17:11Z</time>
      </trkpt>
      <trkpt lat="46.15809" lon="4.17313">
        <ele>276</ele>
        <time>2015-07-10T08:17:29Z</time>
      </trkpt>
      <trkpt lat="46.15812" lon="4.17272">
        <ele>278</ele>
        <time>2015-07-10T08:18:40Z</time>
      </trkpt>
      <trkpt lat="46.15806" lon="4.17271">
        <ele>278</ele>
        <time>2015-07-10T08:19:03Z</time>
      </trkpt>
      <trkpt lat="46.15807" lon="4.17258">
        <ele>280</ele>
        <time>2015-07-10T08:19:15Z</time>
      </trkpt>
      <trkpt lat="46.15807" lon="4.17244">
        <ele>280</ele>
        <time>2015-07-10T08:19:22Z</time>
      </trkpt>
      <trkpt lat="46.15802" lon="4.1724">
        <ele>280</ele>
        <time>2015-07-10T08:19:35Z</time>
      </trkpt>
      <trkpt lat="46.15809" lon="4.1719">
        <ele>279</ele>
        <time>2015-07-10T08:20:24Z</time>
      </trkpt>
      <trkpt lat="46.15809" lon="4.17178">
        <ele>278</ele>
        <time>2015-07-10T08:20:59Z</time>
      </trkpt>
      <trkpt lat="46.15832" lon="4.17152">
        <ele>277</ele>
        <time>2015-07-10T08:21:25Z</time>
      </trkpt>
      <trkpt lat="46.15829" lon="4.17142">
        <ele>277</ele>
        <time>2015-07-10T08:21:45Z</time>
      </trkpt>
      <trkpt lat="46.15832" lon="4.17135">
        <ele>278</ele>
        <time>2015-07-10T08:21:48Z</time>
      </trkpt>
      <trkpt lat="46.15831" lon="4.17121">
        <ele>277</ele>
        <time>2015-07-10T08:22:01Z</time>
      </trkpt>
      <trkpt lat="46.15822" lon="4.17105">
        <ele>278</ele>
        <time>2015-07-10T08:22:12Z</time>
      </trkpt>
      <trkpt lat="46.15821" lon="4.17098">
        <ele>280</ele>
        <time>2015-07-10T08:22:19Z</time>
      </trkpt>
      <trkpt lat="46.15828" lon="4.17088">
        <ele>279</ele>
        <time>2015-07-10T08:22:28Z</time>
      </trkpt>
      <trkpt lat="46.15832" lon="4.1709">
        <ele>279</ele>
        <time>2015-07-10T08:22:34Z</time>
      </trkpt>
      <trkpt lat="46.15835" lon="4.17089">
        <ele>280</ele>
        <time>2015-07-10T08:22:46Z</time>
      </trkpt>
      <trkpt lat="46.1584" lon="4.17088">
        <ele>280</ele>
        <time>2015-07-10T08:23:11Z</time>
      </trkpt>
      <trkpt lat="46.15841" lon="4.17095">
        <ele>280</ele>
        <time>2015-07-10T08:23:19Z</time>
      </trkpt>
      <trkpt lat="46.15836" lon="4.17103">
        <ele>280</ele>
        <time>2015-07-10T08:23:37Z</time>
      </trkpt>
      <trkpt lat="46.15839" lon="4.17102">
        <ele>280</ele>
        <time>2015-07-10T08:23:57Z</time>
      </trkpt>
      <trkpt lat="46.15841" lon="4.17111">
        <ele>280</ele>
        <time>2015-07-10T08:24:25Z</time>
      </trkpt>
      <trkpt lat="46.15831" lon="4.17116">
        <ele>280</ele>
        <time>2015-07-10T08:24:49Z</time>
      </trkpt>
      <trkpt lat="46.15831" lon="4.17106">
        <ele>280</ele>
        <time>2015-07-10T08:26:38Z</time>
      </trkpt>
      <trkpt lat="46.15835" lon="4.17115">
        <ele>280</ele>
        <time>2015-07-10T08:28:45Z</time>
      </trkpt>
      <trkpt lat="46.15834" lon="4.17154">
        <ele>281</ele>
        <time>2015-07-10T08:29:07Z</time>
      </trkpt>
      <trkpt lat="46.15843" lon="4.17159">
        <ele>281</ele>
        <time>2015-07-10T08:29:13Z</time>
      </trkpt>
      <trkpt lat="46.15824" lon="4.17135">
        <ele>281</ele>
        <time>2015-07-10T08:29:47Z</time>
      </trkpt>
      <trkpt lat="46.15836" lon="4.17131">
        <ele>281</ele>
        <time>2015-07-10T08:30:02Z</time>
      </trkpt>
      <trkpt lat="46.15849" lon="4.17104">
        <ele>281</ele>
        <time>2015-07-10T08:30:40Z</time>
      </trkpt>
      <trkpt lat="46.15851" lon="4.17127">
        <ele>280</ele>
        <time>2015-07-10T08:30:51Z</time>
      </trkpt>
      <trkpt lat="46.15845" lon="4.17126">
        <ele>279</ele>
        <time>2015-07-10T08:30:55Z</time>
      </trkpt>
      <trkpt lat="46.15851" lon="4.17122">
        <ele>281</ele>
        <time>2015-07-10T08:38:22Z</time>
      </trkpt>
      <trkpt lat="46.15854" lon="4.1711">
        <ele>281</ele>
        <time>2015-07-10T08:38:36Z</time>
      </trkpt>
      <trkpt lat="46.15851" lon="4.17104">
        <ele>281</ele>
        <time>2015-07-10T08:39:03Z</time>
      </trkpt>
      <trkpt lat="46.1587" lon="4.17089">
        <ele>281</ele>
        <time>2015-07-10T08:40:49Z</time>
      </trkpt>
      <trkpt lat="46.15859" lon="4.17094">
        <ele>281</ele>
        <time>2015-07-10T08:40:56Z</time>
      </trkpt>
      <trkpt lat="46.15849" lon="4.17096">
        <ele>279</ele>
        <time>2015-07-10T08:41:06Z</time>
      </trkpt>
      <trkpt lat="46.15848" lon="4.17082">
        <ele>278</ele>
        <time>2015-07-10T08:41:21Z</time>
      </trkpt>
      <trkpt lat="46.15837" lon="4.17045">
        <ele>279</ele>
        <time>2015-07-10T08:41:44Z</time>
      </trkpt>
      <trkpt lat="46.15829" lon="4.17038">
        <ele>281</ele>
        <time>2015-07-10T08:41:49Z</time>
      </trkpt>
      <trkpt lat="46.15825" lon="4.17026">
        <ele>283</ele>
        <time>2015-07-10T08:41:57Z</time>
      </trkpt>
      <trkpt lat="46.15825" lon="4.17031">
        <ele>281</ele>
        <time>2015-07-10T08:43:11Z</time>
      </trkpt>
      <trkpt lat="46.15831" lon="4.17028">
        <ele>280</ele>
        <time>2015-07-10T08:45:55Z</time>
      </trkpt>
      <trkpt lat="46.15832" lon="4.17017">
        <ele>280</ele>
        <time>2015-07-10T08:46:00Z</time>
      </trkpt>
      <trkpt lat="46.1583" lon="4.1701">
        <ele>280</ele>
        <time>2015-07-10T08:46:07Z</time>
      </trkpt>
      <trkpt lat="46.15831" lon="4.17002">
        <ele>280</ele>
        <time>2015-07-10T08:46:20Z</time>
      </trkpt>
      <trkpt lat="46.15825" lon="4.1699">
        <ele>279</ele>
        <time>2015-07-10T08:46:30Z</time>
      </trkpt>
      <trkpt lat="46.15821" lon="4.16976">
        <ele>276</ele>
        <time>2015-07-10T08:46:39Z</time>
      </trkpt>
      <trkpt lat="46.15821" lon="4.16968">
        <ele>276</ele>
        <time>2015-07-10T08:46:43Z</time>
      </trkpt>
      <trkpt lat="46.15819" lon="4.16961">
        <ele>276</ele>
        <time>2015-07-10T08:46:48Z</time>
      </trkpt>
      <trkpt lat="46.15817" lon="4.16955">
        <ele>277</ele>
        <time>2015-07-10T08:46:51Z</time>
      </trkpt>
      <trkpt lat="46.15817" lon="4.16934">
        <ele>279</ele>
        <time>2015-07-10T08:47:06Z</time>
      </trkpt>
      <trkpt lat="46.15822" lon="4.16923">
        <ele>278</ele>
        <time>2015-07-10T08:47:14Z</time>
      </trkpt>
      <trkpt lat="46.15823" lon="4.16914">
        <ele>279</ele>
        <time>2015-07-10T08:47:20Z</time>
      </trkpt>
      <trkpt lat="46.15822" lon="4.16906">
        <ele>279</ele>
        <time>2015-07-10T08:47:25Z</time>
      </trkpt>
      <trkpt lat="46.1582" lon="4.16899">
        <ele>280</ele>
        <time>2015-07-10T08:47:31Z</time>
      </trkpt>
      <trkpt lat="46.15813" lon="4.16895">
        <ele>280</ele>
        <time>2015-07-10T08:48:04Z</time>
      </trkpt>
      <trkpt lat="46.15797" lon="4.16819">
        <ele>281</ele>
        <time>2015-07-10T08:49:00Z</time>
      </trkpt>
      <trkpt lat="46.15794" lon="4.16818">
        <ele>279</ele>
        <time>2015-07-10T08:49:12Z</time>
      </trkpt>
      <trkpt lat="46.15791" lon="4.16816">
        <ele>279</ele>
        <time>2015-07-10T08:49:21Z</time>
      </trkpt>
      <trkpt lat="46.15789" lon="4.16809">
        <ele>281</ele>
        <time>2015-07-10T08:49:28Z</time>
      </trkpt>
      <trkpt lat="46.15784" lon="4.16808">
        <ele>281</ele>
        <time>2015-07-10T08:49:34Z</time>
      </trkpt>
      <trkpt lat="46.15779" lon="4.16807">
        <ele>281</ele>
        <time>2015-07-10T08:49:47Z</time>
      </trkpt>
      <trkpt lat="46.15775" lon="4.16806">
        <ele>281</ele>
        <time>2015-07-10T08:49:53Z</time>
      </trkpt>
      <trkpt lat="46.15765" lon="4.16805">
        <ele>281</ele>
        <time>2015-07-10T08:49:59Z</time>
      </trkpt>
      <trkpt lat="46.15759" lon="4.16808">
        <ele>281</ele>
        <time>2015-07-10T08:51:06Z</time>
      </trkpt>
      <trkpt lat="46.15761" lon="4.16822">
        <ele>281</ele>
        <time>2015-07-10T08:51:10Z</time>
      </trkpt>
      <trkpt lat="46.15749" lon="4.16794">
        <ele>281</ele>
        <time>2015-07-10T08:51:21Z</time>
      </trkpt>
      <trkpt lat="46.1571" lon="4.16804">
        <ele>278</ele>
        <time>2015-07-10T08:51:55Z</time>
      </trkpt>
      <trkpt lat="46.1572" lon="4.16809">
        <ele>275</ele>
        <time>2015-07-10T08:52:07Z</time>
      </trkpt>
      <trkpt lat="46.15747" lon="4.16814">
        <ele>278</ele>
        <time>2015-07-10T08:52:13Z</time>
      </trkpt>
      <trkpt lat="46.15749" lon="4.1682">
        <ele>279</ele>
        <time>2015-07-10T08:52:19Z</time>
      </trkpt>
      <trkpt lat="46.15758" lon="4.16816">
        <ele>280</ele>
        <time>2015-07-10T08:52:25Z</time>
      </trkpt>
      <trkpt lat="46.15762" lon="4.16827">
        <ele>281</ele>
        <time>2015-07-10T08:53:26Z</time>
      </trkpt>
      <trkpt lat="46.15769" lon="4.16813">
        <ele>281</ele>
        <time>2015-07-10T08:54:23Z</time>
      </trkpt>
      <trkpt lat="46.15767" lon="4.16827">
        <ele>280</ele>
        <time>2015-07-10T09:00:23Z</time>
      </trkpt>
      <trkpt lat="46.15771" lon="4.16839">
        <ele>280</ele>
        <time>2015-07-10T09:00:31Z</time>
      </trkpt>
      <trkpt lat="46.15783" lon="4.16811">
        <ele>280</ele>
        <time>2015-07-10T09:00:58Z</time>
      </trkpt>
      <trkpt lat="46.1579" lon="4.16819">
        <ele>281</ele>
        <time>2015-07-10T09:01:07Z</time>
      </trkpt>
      <trkpt lat="46.15806" lon="4.16822">
        <ele>281</ele>
        <time>2015-07-10T09:01:16Z</time>
      </trkpt>
      <trkpt lat="46.15802" lon="4.16828">
        <ele>282</ele>
        <time>2015-07-10T09:01:48Z</time>
      </trkpt>
      <trkpt lat="46.1578" lon="4.16829">
        <ele>282</ele>
        <time>2015-07-10T09:02:25Z</time>
      </trkpt>
      <trkpt lat="46.15783" lon="4.16827">
        <ele>282</ele>
        <time>2015-07-10T09:03:53Z</time>
      </trkpt>
      <trkpt lat="46.15772" lon="4.16833">
        <ele>282</ele>
        <time>2015-07-10T09:06:33Z</time>
      </trkpt>
      <trkpt lat="46.15771" lon="4.16846">
        <ele>281</ele>
        <time>2015-07-10T09:06:48Z</time>
      </trkpt>
      <trkpt lat="46.15772" lon="4.16853">
        <ele>281</ele>
        <time>2015-07-10T09:07:13Z</time>
      </trkpt>
      <trkpt lat="46.15756" lon="4.16885">
        <ele>282</ele>
        <time>2015-07-10T09:09:16Z</time>
      </trkpt>
      <trkpt lat="46.15764" lon="4.16888">
        <ele>281</ele>
        <time>2015-07-10T09:09:19Z</time>
      </trkpt>
      <trkpt lat="46.15768" lon="4.16897">
        <ele>282</ele>
        <time>2015-07-10T09:09:30Z</time>
      </trkpt>
      <trkpt lat="46.15764" lon="4.16888">
        <ele>283</ele>
        <time>2015-07-10T09:11:02Z</time>
      </trkpt>
      <trkpt lat="46.15769" lon="4.16875">
        <ele>283</ele>
        <time>2015-07-10T09:11:20Z</time>
      </trkpt>
      <trkpt lat="46.15757" lon="4.16847">
        <ele>281</ele>
        <time>2015-07-10T09:16:57Z</time>
      </trkpt>
      <trkpt lat="46.15755" lon="4.16838">
        <ele>282</ele>
        <time>2015-07-10T09:17:12Z</time>
      </trkpt>
      <trkpt lat="46.15763" lon="4.16833">
        <ele>282</ele>
        <time>2015-07-10T09:17:17Z</time>
      </trkpt>
      <trkpt lat="46.15786" lon="4.16853">
        <ele>282</ele>
        <time>2015-07-10T09:18:26Z</time>
      </trkpt>
      <trkpt lat="46.1579" lon="4.16848">
        <ele>289</ele>
        <time>2015-07-10T09:19:18Z</time>
      </trkpt>
      <trkpt lat="46.15787" lon="4.16835">
        <ele>289</ele>
        <time>2015-07-10T09:19:30Z</time>
      </trkpt>
      <trkpt lat="46.15769" lon="4.16811">
        <ele>287</ele>
        <time>2015-07-10T09:21:51Z</time>
      </trkpt>
      <trkpt lat="46.15767" lon="4.16826">
        <ele>285</ele>
        <time>2015-07-10T09:21:57Z</time>
      </trkpt>
      <trkpt lat="46.15767" lon="4.16842">
        <ele>286</ele>
        <time>2015-07-10T09:22:01Z</time>
      </trkpt>
      <trkpt lat="46.15762" lon="4.16853">
        <ele>287</ele>
        <time>2015-07-10T09:22:08Z</time>
      </trkpt>
      <trkpt lat="46.15744" lon="4.16806">
        <ele>285</ele>
        <time>2015-07-10T09:22:47Z</time>
      </trkpt>
      <trkpt lat="46.15747" lon="4.1681">
        <ele>285</ele>
        <time>2015-07-10T09:23:01Z</time>
      </trkpt>
      <trkpt lat="46.15756" lon="4.16816">
        <ele>287</ele>
        <time>2015-07-10T09:23:20Z</time>
      </trkpt>
      <trkpt lat="46.1576" lon="4.16821">
        <ele>287</ele>
        <time>2015-07-10T09:23:51Z</time>
      </trkpt>
      <trkpt lat="46.15764" lon="4.16823">
        <ele>287</ele>
        <time>2015-07-10T09:24:25Z</time>
      </trkpt>
      <trkpt lat="46.1576" lon="4.1682">
        <ele>286</ele>
        <time>2015-07-10T09:28:00Z</time>
      </trkpt>
      <trkpt lat="46.15766" lon="4.16808">
        <ele>285</ele>
        <time>2015-07-10T09:30:12Z</time>
      </trkpt>
      <trkpt lat="46.15785" lon="4.16801">
        <ele>281</ele>
        <time>2015-07-10T09:30:27Z</time>
      </trkpt>
      <trkpt lat="46.1579" lon="4.16805">
        <ele>278</ele>
        <time>2015-07-10T09:30:32Z</time>
      </trkpt>
      <trkpt lat="46.15788" lon="4.16806">
        <ele>273</ele>
        <time>2015-07-10T09:30:49Z</time>
      </trkpt>
      <trkpt lat="46.15788" lon="4.16775">
        <ele>274</ele>
        <time>2015-07-10T09:31:18Z</time>
      </trkpt>
      <trkpt lat="46.15787" lon="4.16767">
        <ele>274</ele>
        <time>2015-07-10T09:31:22Z</time>
      </trkpt>
      <trkpt lat="46.15787" lon="4.1676">
        <ele>273</ele>
        <time>2015-07-10T09:31:26Z</time>
      </trkpt>
      <trkpt lat="46.15802" lon="4.1667">
        <ele>277</ele>
        <time>2015-07-10T09:32:23Z</time>
      </trkpt>
      <trkpt lat="46.15802" lon="4.16663">
        <ele>277</ele>
        <time>2015-07-10T09:32:28Z</time>
      </trkpt>
      <trkpt lat="46.15807" lon="4.1666">
        <ele>277</ele>
        <time>2015-07-10T09:32:33Z</time>
      </trkpt>
      <trkpt lat="46.15811" lon="4.16656">
        <ele>277</ele>
        <time>2015-07-10T09:32:39Z</time>
      </trkpt>
      <trkpt lat="46.15809" lon="4.16649">
        <ele>277</ele>
        <time>2015-07-10T09:32:43Z</time>
      </trkpt>
      <trkpt lat="46.15803" lon="4.16637">
        <ele>278</ele>
        <time>2015-07-10T09:32:51Z</time>
      </trkpt>
      <trkpt lat="46.158" lon="4.16573">
        <ele>277</ele>
        <time>2015-07-10T09:33:29Z</time>
      </trkpt>
      <trkpt lat="46.15799" lon="4.16565">
        <ele>277</ele>
        <time>2015-07-10T09:33:34Z</time>
      </trkpt>
      <trkpt lat="46.15799" lon="4.1655">
        <ele>277</ele>
        <time>2015-07-10T09:33:44Z</time>
      </trkpt>
      <trkpt lat="46.15801" lon="4.16545">
        <ele>276</ele>
        <time>2015-07-10T09:33:48Z</time>
      </trkpt>
      <trkpt lat="46.15803" lon="4.16428">
        <ele>281</ele>
        <time>2015-07-10T09:35:01Z</time>
      </trkpt>
      <trkpt lat="46.15805" lon="4.16425">
        <ele>280</ele>
        <time>2015-07-10T09:35:07Z</time>
      </trkpt>
      <trkpt lat="46.15808" lon="4.16396">
        <ele>279</ele>
        <time>2015-07-10T09:35:26Z</time>
      </trkpt>
      <trkpt lat="46.15811" lon="4.16384">
        <ele>279</ele>
        <time>2015-07-10T09:35:34Z</time>
      </trkpt>
      <trkpt lat="46.15811" lon="4.1637">
        <ele>280</ele>
        <time>2015-07-10T09:35:42Z</time>
      </trkpt>
      <trkpt lat="46.15823" lon="4.16235">
        <ele>285</ele>
        <time>2015-07-10T09:37:12Z</time>
      </trkpt>
      <trkpt lat="46.15823" lon="4.16193">
        <ele>276</ele>
        <time>2015-07-10T09:37:39Z</time>
      </trkpt>
      <trkpt lat="46.15829" lon="4.16186">
        <ele>275</ele>
        <time>2015-07-10T09:37:51Z</time>
      </trkpt>
      <trkpt lat="46.15839" lon="4.1618">
        <ele>276</ele>
        <time>2015-07-10T09:38:00Z</time>
      </trkpt>
      <trkpt lat="46.15844" lon="4.16179">
        <ele>276</ele>
        <time>2015-07-10T09:38:03Z</time>
      </trkpt>
      <trkpt lat="46.15849" lon="4.16176">
        <ele>277</ele>
        <time>2015-07-10T09:38:09Z</time>
      </trkpt>
      <trkpt lat="46.15853" lon="4.16171">
        <ele>278</ele>
        <time>2015-07-10T09:38:13Z</time>
      </trkpt>
      <trkpt lat="46.15854" lon="4.16165">
        <ele>278</ele>
        <time>2015-07-10T09:38:17Z</time>
      </trkpt>
      <trkpt lat="46.15862" lon="4.16156">
        <ele>279</ele>
        <time>2015-07-10T09:38:25Z</time>
      </trkpt>
      <trkpt lat="46.15865" lon="4.1615">
        <ele>279</ele>
        <time>2015-07-10T09:38:30Z</time>
      </trkpt>
      <trkpt lat="46.15868" lon="4.16144">
        <ele>279</ele>
        <time>2015-07-10T09:38:35Z</time>
      </trkpt>
      <trkpt lat="46.15865" lon="4.16145">
        <ele>282</ele>
        <time>2015-07-10T09:49:21Z</time>
      </trkpt>
      <trkpt lat="46.15861" lon="4.16136">
        <ele>280</ele>
        <time>2015-07-10T09:49:32Z</time>
      </trkpt>
      <trkpt lat="46.1587" lon="4.16129">
        <ele>279</ele>
        <time>2015-07-10T09:52:53Z</time>
      </trkpt>
      <trkpt lat="46.1587" lon="4.16122">
        <ele>279</ele>
        <time>2015-07-10T09:53:25Z</time>
      </trkpt>
      <trkpt lat="46.15865" lon="4.1611">
        <ele>279</ele>
        <time>2015-07-10T09:53:49Z</time>
      </trkpt>
      <trkpt lat="46.15859" lon="4.16103">
        <ele>279</ele>
        <time>2015-07-10T09:54:07Z</time>
      </trkpt>
      <trkpt lat="46.1586" lon="4.16096">
        <ele>279</ele>
        <time>2015-07-10T09:54:30Z</time>
      </trkpt>
      <trkpt lat="46.15848" lon="4.16103">
        <ele>280</ele>
        <time>2015-07-10T09:54:56Z</time>
      </trkpt>
      <trkpt lat="46.1584" lon="4.16109">
        <ele>280</ele>
        <time>2015-07-10T09:55:04Z</time>
      </trkpt>
      <trkpt lat="46.15852" lon="4.16128">
        <ele>280</ele>
        <time>2015-07-10T09:55:31Z</time>
      </trkpt>
      <trkpt lat="46.15847" lon="4.1613">
        <ele>279</ele>
        <time>2015-07-10T09:55:58Z</time>
      </trkpt>
      <trkpt lat="46.15843" lon="4.16134">
        <ele>279</ele>
        <time>2015-07-10T09:56:09Z</time>
      </trkpt>
      <trkpt lat="46.15848" lon="4.16149">
        <ele>279</ele>
        <time>2015-07-10T09:56:30Z</time>
      </trkpt>
      <trkpt lat="46.15841" lon="4.16141">
        <ele>280</ele>
        <time>2015-07-10T09:57:52Z</time>
      </trkpt>
      <trkpt lat="46.15848" lon="4.16144">
        <ele>280</ele>
        <time>2015-07-10T09:58:26Z</time>
      </trkpt>
      <trkpt lat="46.15841" lon="4.16162">
        <ele>279</ele>
        <time>2015-07-10T09:59:09Z</time>
      </trkpt>
      <trkpt lat="46.15844" lon="4.16157">
        <ele>279</ele>
        <time>2015-07-10T10:00:43Z</time>
      </trkpt>
      <trkpt lat="46.15848" lon="4.16143">
        <ele>279</ele>
        <time>2015-07-10T10:01:02Z</time>
      </trkpt>
      <trkpt lat="46.15858" lon="4.16145">
        <ele>279</ele>
        <time>2015-07-10T10:01:32Z</time>
      </trkpt>
      <trkpt lat="46.15857" lon="4.16153">
        <ele>279</ele>
        <time>2015-07-10T10:02:40Z</time>
      </trkpt>
      <trkpt lat="46.15851" lon="4.16172">
        <ele>279</ele>
        <time>2015-07-10T10:02:55Z</time>
      </trkpt>
      <trkpt lat="46.15839" lon="4.16186">
        <ele>279</ele>
        <time>2015-07-10T10:03:09Z</time>
      </trkpt>
      <trkpt lat="46.1582" lon="4.16193">
        <ele>278</ele>
        <time>2015-07-10T10:03:26Z</time>
      </trkpt>
      <trkpt lat="46.15818" lon="4.16199">
        <ele>278</ele>
        <time>2015-07-10T10:03:33Z</time>
      </trkpt>
      <trkpt lat="46.15815" lon="4.16346">
        <ele>278</ele>
        <time>2015-07-10T10:05:07Z</time>
      </trkpt>
      <trkpt lat="46.15811" lon="4.16367">
        <ele>279</ele>
        <time>2015-07-10T10:05:20Z</time>
      </trkpt>
      <trkpt lat="46.15814" lon="4.16367">
        <ele>278</ele>
        <time>2015-07-10T10:05:27Z</time>
      </trkpt>
      <trkpt lat="46.15813" lon="4.16376">
        <ele>278</ele>
        <time>2015-07-10T10:05:50Z</time>
      </trkpt>
      <trkpt lat="46.15817" lon="4.16388">
        <ele>278</ele>
        <time>2015-07-10T10:05:58Z</time>
      </trkpt>
      <trkpt lat="46.15815" lon="4.16396">
        <ele>278</ele>
        <time>2015-07-10T10:06:03Z</time>
      </trkpt>
      <trkpt lat="46.15805" lon="4.16412">
        <ele>278</ele>
        <time>2015-07-10T10:06:17Z</time>
      </trkpt>
      <trkpt lat="46.15802" lon="4.16479">
        <ele>278</ele>
        <time>2015-07-10T10:06:59Z</time>
      </trkpt>
      <trkpt lat="46.15801" lon="4.16485">
        <ele>278</ele>
        <time>2015-07-10T10:07:02Z</time>
      </trkpt>
      <trkpt lat="46.15803" lon="4.16542">
        <ele>277</ele>
        <time>2015-07-10T10:07:35Z</time>
      </trkpt>
      <trkpt lat="46.15801" lon="4.16564">
        <ele>277</ele>
        <time>2015-07-10T10:07:51Z</time>
      </trkpt>
      <trkpt lat="46.15807" lon="4.16624">
        <ele>276</ele>
        <time>2015-07-10T10:08:25Z</time>
      </trkpt>
      <trkpt lat="46.15806" lon="4.16662">
        <ele>276</ele>
        <time>2015-07-10T10:08:50Z</time>
      </trkpt>
      <trkpt lat="46.15803" lon="4.16667">
        <ele>276</ele>
        <time>2015-07-10T10:08:55Z</time>
      </trkpt>
      <trkpt lat="46.15801" lon="4.16673">
        <ele>276</ele>
        <time>2015-07-10T10:09:28Z</time>
      </trkpt>
      <trkpt lat="46.1579" lon="4.16687">
        <ele>276</ele>
        <time>2015-07-10T10:09:36Z</time>
      </trkpt>
      <trkpt lat="46.15788" lon="4.16702">
        <ele>276</ele>
        <time>2015-07-10T10:09:46Z</time>
      </trkpt>
      <trkpt lat="46.15791" lon="4.16725">
        <ele>277</ele>
        <time>2015-07-10T10:10:01Z</time>
      </trkpt>
      <trkpt lat="46.15787" lon="4.16778">
        <ele>278</ele>
        <time>2015-07-10T10:10:35Z</time>
      </trkpt>
      <trkpt lat="46.1579" lon="4.16792">
        <ele>278</ele>
        <time>2015-07-10T10:10:41Z</time>
      </trkpt>
      <trkpt lat="46.15796" lon="4.16799">
        <ele>278</ele>
        <time>2015-07-10T10:10:48Z</time>
      </trkpt>
      <trkpt lat="46.15797" lon="4.16805">
        <ele>278</ele>
        <time>2015-07-10T10:10:52Z</time>
      </trkpt>
      <trkpt lat="46.15797" lon="4.16813">
        <ele>278</ele>
        <time>2015-07-10T10:10:56Z</time>
      </trkpt>
      <trkpt lat="46.15803" lon="4.16828">
        <ele>279</ele>
        <time>2015-07-10T10:11:16Z</time>
      </trkpt>
      <trkpt lat="46.15812" lon="4.16884">
        <ele>278</ele>
        <time>2015-07-10T10:11:50Z</time>
      </trkpt>
      <trkpt lat="46.15812" lon="4.16898">
        <ele>277</ele>
        <time>2015-07-10T10:12:01Z</time>
      </trkpt>
      <trkpt lat="46.15817" lon="4.16911">
        <ele>277</ele>
        <time>2015-07-10T10:12:09Z</time>
      </trkpt>
      <trkpt lat="46.15815" lon="4.16917">
        <ele>277</ele>
        <time>2015-07-10T10:12:15Z</time>
      </trkpt>
      <trkpt lat="46.15819" lon="4.16937">
        <ele>277</ele>
        <time>2015-07-10T10:12:31Z</time>
      </trkpt>
      <trkpt lat="46.15816" lon="4.16977">
        <ele>277</ele>
        <time>2015-07-10T10:12:59Z</time>
      </trkpt>
      <trkpt lat="46.15817" lon="4.17005">
        <ele>276</ele>
        <time>2015-07-10T10:14:17Z</time>
      </trkpt>
      <trkpt lat="46.15824" lon="4.17015">
        <ele>276</ele>
        <time>2015-07-10T10:14:27Z</time>
      </trkpt>
      <trkpt lat="46.15824" lon="4.17022">
        <ele>276</ele>
        <time>2015-07-10T10:14:44Z</time>
      </trkpt>
      <trkpt lat="46.15832" lon="4.17002">
        <ele>276</ele>
        <time>2015-07-10T10:15:24Z</time>
      </trkpt>
      <trkpt lat="46.1584" lon="4.17012">
        <ele>276</ele>
        <time>2015-07-10T10:15:58Z</time>
      </trkpt>
      <trkpt lat="46.15844" lon="4.17033">
        <ele>277</ele>
        <time>2015-07-10T10:16:07Z</time>
      </trkpt>
      <trkpt lat="46.15843" lon="4.17026">
        <ele>277</ele>
        <time>2015-07-10T10:16:29Z</time>
      </trkpt>
      <trkpt lat="46.15848" lon="4.17024">
        <ele>277</ele>
        <time>2015-07-10T10:16:34Z</time>
      </trkpt>
      <trkpt lat="46.15857" lon="4.17023">
        <ele>277</ele>
        <time>2015-07-10T10:16:44Z</time>
      </trkpt>
      <trkpt lat="46.15864" lon="4.17032">
        <ele>277</ele>
        <time>2015-07-10T10:16:53Z</time>
      </trkpt>
      <trkpt lat="46.15872" lon="4.17046">
        <ele>278</ele>
        <time>2015-07-10T10:17:03Z</time>
      </trkpt>
      <trkpt lat="46.1589" lon="4.1706">
        <ele>278</ele>
        <time>2015-07-10T10:17:22Z</time>
      </trkpt>
      <trkpt lat="46.15892" lon="4.17063">
        <ele>278</ele>
        <time>2015-07-10T10:17:52Z</time>
      </trkpt>
      <trkpt lat="46.15896" lon="4.17065">
        <ele>278</ele>
        <time>2015-07-10T10:18:04Z</time>
      </trkpt>
      <trkpt lat="46.15899" lon="4.17071">
        <ele>278</ele>
        <time>2015-07-10T10:18:08Z</time>
      </trkpt>
      <trkpt lat="46.15912" lon="4.17114">
        <ele>279</ele>
        <time>2015-07-10T10:18:38Z</time>
      </trkpt>
      <trkpt lat="46.15924" lon="4.17113">
        <ele>279</ele>
        <time>2015-07-10T10:18:50Z</time>
      </trkpt>
      <trkpt lat="46.1592" lon="4.17122">
        <ele>279</ele>
        <time>2015-07-10T10:19:40Z</time>
      </trkpt>
      <trkpt lat="46.15928" lon="4.17138">
        <ele>279</ele>
        <time>2015-07-10T10:20:04Z</time>
      </trkpt>
      <trkpt lat="46.15939" lon="4.17146">
        <ele>279</ele>
        <time>2015-07-10T10:20:38Z</time>
      </trkpt>
      <trkpt lat="46.15948" lon="4.17152">
        <ele>279</ele>
        <time>2015-07-10T10:20:45Z</time>
      </trkpt>
      <trkpt lat="46.15968" lon="4.17192">
        <ele>279</ele>
        <time>2015-07-10T10:21:16Z</time>
      </trkpt>
      <trkpt lat="46.15974" lon="4.17234">
        <ele>280</ele>
        <time>2015-07-10T10:21:41Z</time>
      </trkpt>
      <trkpt lat="46.15979" lon="4.17238">
        <ele>280</ele>
        <time>2015-07-10T10:21:47Z</time>
      </trkpt>
      <trkpt lat="46.15982" lon="4.17243">
        <ele>280</ele>
        <time>2015-07-10T10:21:51Z</time>
      </trkpt>
      <trkpt lat="46.15983" lon="4.1725">
        <ele>280</ele>
        <time>2015-07-10T10:21:55Z</time>
      </trkpt>
      <trkpt lat="46.15985" lon="4.17256">
        <ele>280</ele>
        <time>2015-07-10T10:21:59Z</time>
      </trkpt>
      <trkpt lat="46.15984" lon="4.17262">
        <ele>280</ele>
        <time>2015-07-10T10:22:09Z</time>
      </trkpt>
      <trkpt lat="46.15964" lon="4.17265">
        <ele>280</ele>
        <time>2015-07-10T10:22:27Z</time>
      </trkpt>
      <trkpt lat="46.15939" lon="4.17286">
        <ele>280</ele>
        <time>2015-07-10T10:22:49Z</time>
      </trkpt>
      <trkpt lat="46.15937" lon="4.1729">
        <ele>283</ele>
        <time>2015-07-10T11:16:08Z</time>
      </trkpt>
      <trkpt lat="46.15934" lon="4.1729">
        <ele>284</ele>
        <time>2015-07-10T11:23:00Z</time>
      </trkpt>
      <trkpt lat="46.15943" lon="4.17291">
        <ele>289</ele>
        <time>2015-07-10T11:27:26Z</time>
      </trkpt>
      <trkpt lat="46.15935" lon="4.17298">
        <ele>286</ele>
        <time>2015-07-10T11:28:39Z</time>
      </trkpt>
      <trkpt lat="46.15931" lon="4.17291">
        <ele>288</ele>
        <time>2015-07-10T11:32:06Z</time>
      </trkpt>
      <trkpt lat="46.15924" lon="4.17303">
        <ele>298</ele>
        <time>2015-07-10T11:44:07Z</time>
      </trkpt>
      <trkpt lat="46.15934" lon="4.17299">
        <ele>300</ele>
        <time>2015-07-10T11:45:44Z</time>
      </trkpt>
      <trkpt lat="46.1593" lon="4.17286">
        <ele>299</ele>
        <time>2015-07-10T11:45:53Z</time>
      </trkpt>
      <trkpt lat="46.15916" lon="4.173">
        <ele>295</ele>
        <time>2015-07-10T11:46:25Z</time>
      </trkpt>
      <trkpt lat="46.15915" lon="4.17278">
        <ele>286</ele>
        <time>2015-07-10T11:48:58Z</time>
      </trkpt>
      <trkpt lat="46.15923" lon="4.17287">
        <ele>287</ele>
        <time>2015-07-10T11:49:09Z</time>
      </trkpt>
      <trkpt lat="46.15932" lon="4.17292">
        <ele>286</ele>
        <time>2015-07-10T11:49:15Z</time>
      </trkpt>
      <trkpt lat="46.15942" lon="4.17294">
        <ele>283</ele>
        <time>2015-07-10T11:49:23Z</time>
      </trkpt>
      <trkpt lat="46.15949" lon="4.17275">
        <ele>272</ele>
        <time>2015-07-10T11:57:42Z</time>
      </trkpt>
      <trkpt lat="46.15956" lon="4.17265">
        <ele>277</ele>
        <time>2015-07-10T11:57:52Z</time>
      </trkpt>
      <trkpt lat="46.15974" lon="4.17258">
        <ele>280</ele>
        <time>2015-07-10T11:58:08Z</time>
      </trkpt>
      <trkpt lat="46.15975" lon="4.17244">
        <ele>281</ele>
        <time>2015-07-10T11:58:16Z</time>
      </trkpt>
      <trkpt lat="46.15958" lon="4.17196">
        <ele>283</ele>
        <time>2015-07-10T11:58:55Z</time>
      </trkpt>
      <trkpt lat="46.15953" lon="4.17185">
        <ele>282</ele>
        <time>2015-07-10T11:59:02Z</time>
      </trkpt>
      <trkpt lat="46.15949" lon="4.17181">
        <ele>282</ele>
        <time>2015-07-10T11:59:14Z</time>
      </trkpt>
      <trkpt lat="46.15947" lon="4.17167">
        <ele>282</ele>
        <time>2015-07-10T11:59:30Z</time>
      </trkpt>
      <trkpt lat="46.15939" lon="4.17159">
        <ele>282</ele>
        <time>2015-07-10T11:59:35Z</time>
      </trkpt>
      <trkpt lat="46.15933" lon="4.17146">
        <ele>280</ele>
        <time>2015-07-10T11:59:48Z</time>
      </trkpt>
      <trkpt lat="46.15924" lon="4.1714">
        <ele>280</ele>
        <time>2015-07-10T11:59:55Z</time>
      </trkpt>
      <trkpt lat="46.15917" lon="4.1713">
        <ele>279</ele>
        <time>2015-07-10T12:00:02Z</time>
      </trkpt>
      <trkpt lat="46.15908" lon="4.17106">
        <ele>278</ele>
        <time>2015-07-10T12:00:21Z</time>
      </trkpt>
      <trkpt lat="46.15901" lon="4.17095">
        <ele>277</ele>
        <time>2015-07-10T12:00:30Z</time>
      </trkpt>
      <trkpt lat="46.15896" lon="4.17082">
        <ele>278</ele>
        <time>2015-07-10T12:00:39Z</time>
      </trkpt>
      <trkpt lat="46.15883" lon="4.17063">
        <ele>280</ele>
        <time>2015-07-10T12:00:54Z</time>
      </trkpt>
      <trkpt lat="46.15873" lon="4.17053">
        <ele>279</ele>
        <time>2015-07-10T12:01:06Z</time>
      </trkpt>
      <trkpt lat="46.15868" lon="4.17051">
        <ele>279</ele>
        <time>2015-07-10T12:01:14Z</time>
      </trkpt>
      <trkpt lat="46.15864" lon="4.17045">
        <ele>279</ele>
        <time>2015-07-10T12:01:18Z</time>
      </trkpt>
      <trkpt lat="46.1586" lon="4.17033">
        <ele>279</ele>
        <time>2015-07-10T12:01:28Z</time>
      </trkpt>
      <trkpt lat="46.15855" lon="4.17028">
        <ele>279</ele>
        <time>2015-07-10T12:01:43Z</time>
      </trkpt>
      <trkpt lat="46.1586" lon="4.17016">
        <ele>279</ele>
        <time>2015-07-10T12:02:59Z</time>
      </trkpt>
      <trkpt lat="46.15859" lon="4.17016">
        <ele>275</ele>
        <time>2015-07-10T12:05:36Z</time>
      </trkpt>
      <trkpt lat="46.15852" lon="4.17009">
        <ele>271</ele>
        <time>2015-07-10T12:08:48Z</time>
      </trkpt>
      <trkpt lat="46.15843" lon="4.17009">
        <ele>271</ele>
        <time>2015-07-10T12:08:57Z</time>
      </trkpt>
      <trkpt lat="46.15825" lon="4.17007">
        <ele>271</ele>
        <time>2015-07-10T12:09:16Z</time>
      </trkpt>
      <trkpt lat="46.15817" lon="4.17">
        <ele>272</ele>
        <time>2015-07-10T12:09:21Z</time>
      </trkpt>
      <trkpt lat="46.15811" lon="4.16975">
        <ele>274</ele>
        <time>2015-07-10T12:09:39Z</time>
      </trkpt>
      <trkpt lat="46.15813" lon="4.16948">
        <ele>275</ele>
        <time>2015-07-10T12:09:57Z</time>
      </trkpt>
      <trkpt lat="46.1581" lon="4.16935">
        <ele>275</ele>
        <time>2015-07-10T12:10:05Z</time>
      </trkpt>
      <trkpt lat="46.15814" lon="4.16909">
        <ele>275</ele>
        <time>2015-07-10T12:10:32Z</time>
      </trkpt>
      <trkpt lat="46.15811" lon="4.16903">
        <ele>275</ele>
        <time>2015-07-10T12:10:36Z</time>
      </trkpt>
      <trkpt lat="46.15785" lon="4.16805">
        <ele>280</ele>
        <time>2015-07-10T12:11:38Z</time>
      </trkpt>
      <trkpt lat="46.15784" lon="4.16797">
        <ele>280</ele>
        <time>2015-07-10T12:11:42Z</time>
      </trkpt>
      <trkpt lat="46.15787" lon="4.16777">
        <ele>279</ele>
        <time>2015-07-10T12:11:57Z</time>
      </trkpt>
      <trkpt lat="46.15774" lon="4.16698">
        <ele>276</ele>
        <time>2015-07-10T12:12:41Z</time>
      </trkpt>
      <trkpt lat="46.15776" lon="4.16691">
        <ele>276</ele>
        <time>2015-07-10T12:12:45Z</time>
      </trkpt>
      <trkpt lat="46.15786" lon="4.16675">
        <ele>276</ele>
        <time>2015-07-10T12:12:57Z</time>
      </trkpt>
      <trkpt lat="46.15789" lon="4.1666">
        <ele>277</ele>
        <time>2015-07-10T12:13:06Z</time>
      </trkpt>
      <trkpt lat="46.15791" lon="4.16639">
        <ele>278</ele>
        <time>2015-07-10T12:13:17Z</time>
      </trkpt>
      <trkpt lat="46.15789" lon="4.16618">
        <ele>278</ele>
        <time>2015-07-10T12:13:29Z</time>
      </trkpt>
      <trkpt lat="46.15792" lon="4.16605">
        <ele>277</ele>
        <time>2015-07-10T12:13:40Z</time>
      </trkpt>
      <trkpt lat="46.15784" lon="4.16548">
        <ele>276</ele>
        <time>2015-07-10T12:14:12Z</time>
      </trkpt>
      <trkpt lat="46.15784" lon="4.16512">
        <ele>275</ele>
        <time>2015-07-10T12:14:34Z</time>
      </trkpt>
      <trkpt lat="46.15795" lon="4.16488">
        <ele>274</ele>
        <time>2015-07-10T12:14:51Z</time>
      </trkpt>
      <trkpt lat="46.15811" lon="4.16244">
        <ele>280</ele>
        <time>2015-07-10T12:17:11Z</time>
      </trkpt>
      <trkpt lat="46.15814" lon="4.16228">
        <ele>279</ele>
        <time>2015-07-10T12:17:21Z</time>
      </trkpt>
      <trkpt lat="46.15825" lon="4.16189">
        <ele>276</ele>
        <time>2015-07-10T12:17:47Z</time>
      </trkpt>
      <trkpt lat="46.1584" lon="4.16182">
        <ele>276</ele>
        <time>2015-07-10T12:17:59Z</time>
      </trkpt>
      <trkpt lat="46.1585" lon="4.1618">
        <ele>277</ele>
        <time>2015-07-10T12:18:10Z</time>
      </trkpt>
      <trkpt lat="46.15853" lon="4.16174">
        <ele>277</ele>
        <time>2015-07-10T12:18:13Z</time>
      </trkpt>
      <trkpt lat="46.15866" lon="4.16135">
        <ele>275</ele>
        <time>2015-07-10T12:18:37Z</time>
      </trkpt>
      <trkpt lat="46.15885" lon="4.1611">
        <ele>274</ele>
        <time>2015-07-10T12:19:01Z</time>
      </trkpt>
      <trkpt lat="46.15914" lon="4.16091">
        <ele>276</ele>
        <time>2015-07-10T12:19:24Z</time>
      </trkpt>
      <trkpt lat="46.15918" lon="4.16092">
        <ele>277</ele>
        <time>2015-07-10T12:19:29Z</time>
      </trkpt>
      <trkpt lat="46.15923" lon="4.16088">
        <ele>278</ele>
        <time>2015-07-10T12:19:34Z</time>
      </trkpt>
      <trkpt lat="46.15924" lon="4.16084">
        <ele>279</ele>
        <time>2015-07-10T12:19:42Z</time>
      </trkpt>
      <trkpt lat="46.15925" lon="4.16068">
        <ele>280</ele>
        <time>2015-07-10T12:20:05Z</time>
      </trkpt>
      <trkpt lat="46.15928" lon="4.16061">
        <ele>280</ele>
        <time>2015-07-10T12:20:09Z</time>
      </trkpt>
      <trkpt lat="46.15929" lon="4.16053">
        <ele>279</ele>
        <time>2015-07-10T12:20:13Z</time>
      </trkpt>
      <trkpt lat="46.15927" lon="4.16012">
        <ele>279</ele>
        <time>2015-07-10T12:20:37Z</time>
      </trkpt>
      <trkpt lat="46.15923" lon="4.1599">
        <ele>277</ele>
        <time>2015-07-10T12:20:50Z</time>
      </trkpt>
      <trkpt lat="46.1592" lon="4.15945">
        <ele>281</ele>
        <time>2015-07-10T12:21:14Z</time>
      </trkpt>
      <trkpt lat="46.15928" lon="4.15878">
        <ele>281</ele>
        <time>2015-07-10T12:22:33Z</time>
      </trkpt>
      <trkpt lat="46.15931" lon="4.15878">
        <ele>281</ele>
        <time>2015-07-10T12:23:13Z</time>
      </trkpt>
      <trkpt lat="46.15933" lon="4.15872">
        <ele>282</ele>
        <time>2015-07-10T12:23:27Z</time>
      </trkpt>
      <trkpt lat="46.15933" lon="4.15865">
        <ele>282</ele>
        <time>2015-07-10T12:23:31Z</time>
      </trkpt>
      <trkpt lat="46.1594" lon="4.15845">
        <ele>284</ele>
        <time>2015-07-10T12:23:43Z</time>
      </trkpt>
      <trkpt lat="46.15941" lon="4.15823">
        <ele>285</ele>
        <time>2015-07-10T12:23:56Z</time>
      </trkpt>
      <trkpt lat="46.15938" lon="4.15786">
        <ele>289</ele>
        <time>2015-07-10T12:24:19Z</time>
      </trkpt>
      <trkpt lat="46.15943" lon="4.15783">
        <ele>289</ele>
        <time>2015-07-10T12:24:22Z</time>
      </trkpt>
      <trkpt lat="46.15951" lon="4.15775">
        <ele>290</ele>
        <time>2015-07-10T12:24:29Z</time>
      </trkpt>
      <trkpt lat="46.15954" lon="4.15761">
        <ele>291</ele>
        <time>2015-07-10T12:24:38Z</time>
      </trkpt>
      <trkpt lat="46.15962" lon="4.15684">
        <ele>306</ele>
        <time>2015-07-10T12:25:56Z</time>
      </trkpt>
      <trkpt lat="46.15965" lon="4.15677">
        <ele>308</ele>
        <time>2015-07-10T12:26:02Z</time>
      </trkpt>
      <trkpt lat="46.15968" lon="4.15648">
        <ele>312</ele>
        <time>2015-07-10T12:26:22Z</time>
      </trkpt>
      <trkpt lat="46.15969" lon="4.15641">
        <ele>312</ele>
        <time>2015-07-10T12:26:26Z</time>
      </trkpt>
      <trkpt lat="46.1597" lon="4.15635">
        <ele>313</ele>
        <time>2015-07-10T12:26:31Z</time>
      </trkpt>
      <trkpt lat="46.15972" lon="4.15631">
        <ele>314</ele>
        <time>2015-07-10T12:26:58Z</time>
      </trkpt>
      <trkpt lat="46.15973" lon="4.15625">
        <ele>314</ele>
        <time>2015-07-10T12:27:03Z</time>
      </trkpt>
      <trkpt lat="46.15972" lon="4.15617">
        <ele>315</ele>
        <time>2015-07-10T12:27:08Z</time>
      </trkpt>
      <trkpt lat="46.15979" lon="4.15516">
        <ele>324</ele>
        <time>2015-07-10T12:28:31Z</time>
      </trkpt>
      <trkpt lat="46.15978" lon="4.15482">
        <ele>329</ele>
        <time>2015-07-10T12:29:01Z</time>
      </trkpt>
      <trkpt lat="46.15967" lon="4.1546">
        <ele>337</ele>
        <time>2015-07-10T12:29:38Z</time>
      </trkpt>
      <trkpt lat="46.15963" lon="4.15456">
        <ele>337</ele>
        <time>2015-07-10T12:29:43Z</time>
      </trkpt>
      <trkpt lat="46.15958" lon="4.15452">
        <ele>338</ele>
        <time>2015-07-10T12:29:47Z</time>
      </trkpt>
      <trkpt lat="46.15955" lon="4.15446">
        <ele>338</ele>
        <time>2015-07-10T12:29:55Z</time>
      </trkpt>
      <trkpt lat="46.15943" lon="4.15435">
        <ele>339</ele>
        <time>2015-07-10T12:30:08Z</time>
      </trkpt>
      <trkpt lat="46.1594" lon="4.1543">
        <ele>339</ele>
        <time>2015-07-10T12:30:12Z</time>
      </trkpt>
      <trkpt lat="46.15935" lon="4.15417">
        <ele>338</ele>
        <time>2015-07-10T12:30:22Z</time>
      </trkpt>
      <trkpt lat="46.15936" lon="4.15409">
        <ele>338</ele>
        <time>2015-07-10T12:30:27Z</time>
      </trkpt>
      <trkpt lat="46.15935" lon="4.15402">
        <ele>338</ele>
        <time>2015-07-10T12:30:35Z</time>
      </trkpt>
      <trkpt lat="46.15937" lon="4.15389">
        <ele>338</ele>
        <time>2015-07-10T12:30:43Z</time>
      </trkpt>
      <trkpt lat="46.15937" lon="4.15304">
        <ele>339</ele>
        <time>2015-07-10T12:31:34Z</time>
      </trkpt>
      <trkpt lat="46.15965" lon="4.15142">
        <ele>343</ele>
        <time>2015-07-10T12:33:08Z</time>
      </trkpt>
      <trkpt lat="46.15967" lon="4.15136">
        <ele>344</ele>
        <time>2015-07-10T12:33:12Z</time>
      </trkpt>
      <trkpt lat="46.15983" lon="4.15113">
        <ele>341</ele>
        <time>2015-07-10T12:33:51Z</time>
      </trkpt>
      <trkpt lat="46.15996" lon="4.15101">
        <ele>341</ele>
        <time>2015-07-10T12:34:03Z</time>
      </trkpt>
      <trkpt lat="46.16001" lon="4.15097">
        <ele>342</ele>
        <time>2015-07-10T12:34:07Z</time>
      </trkpt>
      <trkpt lat="46.16022" lon="4.15075">
        <ele>343</ele>
        <time>2015-07-10T12:34:27Z</time>
      </trkpt>
      <trkpt lat="46.16027" lon="4.15062">
        <ele>343</ele>
        <time>2015-07-10T12:34:36Z</time>
      </trkpt>
      <trkpt lat="46.16046" lon="4.15035">
        <ele>344</ele>
        <time>2015-07-10T12:34:58Z</time>
      </trkpt>
      <trkpt lat="46.16054" lon="4.15015">
        <ele>345</ele>
        <time>2015-07-10T12:35:11Z</time>
      </trkpt>
      <trkpt lat="46.16059" lon="4.15003">
        <ele>344</ele>
        <time>2015-07-10T12:35:19Z</time>
      </trkpt>
      <trkpt lat="46.16081" lon="4.14972">
        <ele>346</ele>
        <time>2015-07-10T12:35:43Z</time>
      </trkpt>
      <trkpt lat="46.16087" lon="4.14959">
        <ele>346</ele>
        <time>2015-07-10T12:35:51Z</time>
      </trkpt>
      <trkpt lat="46.16152" lon="4.1486">
        <ele>348</ele>
        <time>2015-07-10T12:37:06Z</time>
      </trkpt>
      <trkpt lat="46.16156" lon="4.14847">
        <ele>348</ele>
        <time>2015-07-10T12:37:14Z</time>
      </trkpt>
      <trkpt lat="46.16176" lon="4.14748">
        <ele>351</ele>
        <time>2015-07-10T12:38:11Z</time>
      </trkpt>
      <trkpt lat="46.16197" lon="4.14691">
        <ele>351</ele>
        <time>2015-07-10T12:38:48Z</time>
      </trkpt>
      <trkpt lat="46.16196" lon="4.14688">
        <ele>351</ele>
        <time>2015-07-10T12:39:10Z</time>
      </trkpt>
      <trkpt lat="46.16223" lon="4.14626">
        <ele>352</ele>
        <time>2015-07-10T12:41:00Z</time>
      </trkpt>
      <trkpt lat="46.16258" lon="4.14563">
        <ele>354</ele>
        <time>2015-07-10T12:41:57Z</time>
      </trkpt>
      <trkpt lat="46.16285" lon="4.14523">
        <ele>355</ele>
        <time>2015-07-10T12:42:30Z</time>
      </trkpt>
      <trkpt lat="46.16288" lon="4.14514">
        <ele>356</ele>
        <time>2015-07-10T12:42:43Z</time>
      </trkpt>
      <trkpt lat="46.16295" lon="4.14504">
        <ele>355</ele>
        <time>2015-07-10T12:42:51Z</time>
      </trkpt>
      <trkpt lat="46.16321" lon="4.14442">
        <ele>351</ele>
        <time>2015-07-10T12:43:33Z</time>
      </trkpt>
      <trkpt lat="46.1635" lon="4.14397">
        <ele>347</ele>
        <time>2015-07-10T12:44:15Z</time>
      </trkpt>
      <trkpt lat="46.16352" lon="4.14392">
        <ele>347</ele>
        <time>2015-07-10T12:44:19Z</time>
      </trkpt>
      <trkpt lat="46.16356" lon="4.14388">
        <ele>347</ele>
        <time>2015-07-10T12:44:23Z</time>
      </trkpt>
      <trkpt lat="46.16366" lon="4.14362">
        <ele>346</ele>
        <time>2015-07-10T12:44:43Z</time>
      </trkpt>
      <trkpt lat="46.16382" lon="4.14278">
        <ele>343</ele>
        <time>2015-07-10T12:45:33Z</time>
      </trkpt>
      <trkpt lat="46.16386" lon="4.14226">
        <ele>338</ele>
        <time>2015-07-10T12:46:05Z</time>
      </trkpt>
      <trkpt lat="46.16387" lon="4.1422">
        <ele>337</ele>
        <time>2015-07-10T12:46:09Z</time>
      </trkpt>
      <trkpt lat="46.16394" lon="4.1421">
        <ele>336</ele>
        <time>2015-07-10T12:46:18Z</time>
      </trkpt>
      <trkpt lat="46.16413" lon="4.14141">
        <ele>331</ele>
        <time>2015-07-10T12:47:02Z</time>
      </trkpt>
      <trkpt lat="46.16414" lon="4.14111">
        <ele>332</ele>
        <time>2015-07-10T12:47:21Z</time>
      </trkpt>
      <trkpt lat="46.16408" lon="4.14069">
        <ele>324</ele>
        <time>2015-07-10T12:47:46Z</time>
      </trkpt>
      <trkpt lat="46.16399" lon="4.14043">
        <ele>322</ele>
        <time>2015-07-10T12:48:02Z</time>
      </trkpt>
      <trkpt lat="46.16389" lon="4.14019">
        <ele>321</ele>
        <time>2015-07-10T12:48:20Z</time>
      </trkpt>
      <trkpt lat="46.16386" lon="4.14015">
        <ele>321</ele>
        <time>2015-07-10T12:48:29Z</time>
      </trkpt>
      <trkpt lat="46.16383" lon="4.1401">
        <ele>320</ele>
        <time>2015-07-10T12:48:45Z</time>
      </trkpt>
      <trkpt lat="46.16365" lon="4.13985">
        <ele>321</ele>
        <time>2015-07-10T12:49:06Z</time>
      </trkpt>
      <trkpt lat="46.16363" lon="4.13979">
        <ele>321</ele>
        <time>2015-07-10T12:49:12Z</time>
      </trkpt>
      <trkpt lat="46.1636" lon="4.13958">
        <ele>322</ele>
        <time>2015-07-10T12:49:31Z</time>
      </trkpt>
      <trkpt lat="46.1636" lon="4.1395">
        <ele>324</ele>
        <time>2015-07-10T12:49:36Z</time>
      </trkpt>
      <trkpt lat="46.16361" lon="4.13937">
        <ele>325</ele>
        <time>2015-07-10T12:49:50Z</time>
      </trkpt>
      <trkpt lat="46.16365" lon="4.13925">
        <ele>324</ele>
        <time>2015-07-10T12:50:01Z</time>
      </trkpt>
      <trkpt lat="46.16366" lon="4.13918">
        <ele>324</ele>
        <time>2015-07-10T12:50:06Z</time>
      </trkpt>
      <trkpt lat="46.16366" lon="4.13901">
        <ele>327</ele>
        <time>2015-07-10T12:50:20Z</time>
      </trkpt>
      <trkpt lat="46.16373" lon="4.13861">
        <ele>330</ele>
        <time>2015-07-10T12:50:46Z</time>
      </trkpt>
      <trkpt lat="46.1639" lon="4.13809">
        <ele>333</ele>
        <time>2015-07-10T12:51:34Z</time>
      </trkpt>
      <trkpt lat="46.16393" lon="4.13803">
        <ele>334</ele>
        <time>2015-07-10T12:51:39Z</time>
      </trkpt>
      <trkpt lat="46.16397" lon="4.13797">
        <ele>334</ele>
        <time>2015-07-10T12:51:44Z</time>
      </trkpt>
      <trkpt lat="46.16413" lon="4.13758">
        <ele>333</ele>
        <time>2015-07-10T12:52:11Z</time>
      </trkpt>
      <trkpt lat="46.16444" lon="4.13631">
        <ele>349</ele>
        <time>2015-07-10T12:53:48Z</time>
      </trkpt>
      <trkpt lat="46.16441" lon="4.13625">
        <ele>350</ele>
        <time>2015-07-10T12:53:52Z</time>
      </trkpt>
      <trkpt lat="46.16436" lon="4.13624">
        <ele>353</ele>
        <time>2015-07-10T12:53:57Z</time>
      </trkpt>
      <trkpt lat="46.16431" lon="4.13624">
        <ele>353</ele>
        <time>2015-07-10T12:54:02Z</time>
      </trkpt>
      <trkpt lat="46.16427" lon="4.13628">
        <ele>352</ele>
        <time>2015-07-10T12:54:08Z</time>
      </trkpt>
      <trkpt lat="46.16423" lon="4.13631">
        <ele>352</ele>
        <time>2015-07-10T12:54:13Z</time>
      </trkpt>
      <trkpt lat="46.16418" lon="4.1363">
        <ele>352</ele>
        <time>2015-07-10T12:54:17Z</time>
      </trkpt>
      <trkpt lat="46.16398" lon="4.1364">
        <ele>351</ele>
        <time>2015-07-10T12:54:35Z</time>
      </trkpt>
      <trkpt lat="46.16339" lon="4.13657">
        <ele>351</ele>
        <time>2015-07-10T12:55:32Z</time>
      </trkpt>
      <trkpt lat="46.16333" lon="4.13658">
        <ele>350</ele>
        <time>2015-07-10T12:55:37Z</time>
      </trkpt>
      <trkpt lat="46.16323" lon="4.13663">
        <ele>350</ele>
        <time>2015-07-10T12:55:44Z</time>
      </trkpt>
      <trkpt lat="46.16297" lon="4.13673">
        <ele>353</ele>
        <time>2015-07-10T12:56:03Z</time>
      </trkpt>
      <trkpt lat="46.16287" lon="4.13675">
        <ele>353</ele>
        <time>2015-07-10T12:56:12Z</time>
      </trkpt>
      <trkpt lat="46.1626" lon="4.13678">
        <ele>356</ele>
        <time>2015-07-10T12:56:38Z</time>
      </trkpt>
      <trkpt lat="46.16234" lon="4.13685">
        <ele>355</ele>
        <time>2015-07-10T12:56:58Z</time>
      </trkpt>
      <trkpt lat="46.16215" lon="4.13686">
        <ele>356</ele>
        <time>2015-07-10T12:57:13Z</time>
      </trkpt>
      <trkpt lat="46.16212" lon="4.13689">
        <ele>358</ele>
        <time>2015-07-10T12:57:23Z</time>
      </trkpt>
      <trkpt lat="46.16193" lon="4.13699">
        <ele>360</ele>
        <time>2015-07-10T12:57:42Z</time>
      </trkpt>
      <trkpt lat="46.16178" lon="4.137">
        <ele>360</ele>
        <time>2015-07-10T12:57:54Z</time>
      </trkpt>
      <trkpt lat="46.16155" lon="4.13696">
        <ele>362</ele>
        <time>2015-07-10T12:58:54Z</time>
      </trkpt>
      <trkpt lat="46.16153" lon="4.13693">
        <ele>363</ele>
        <time>2015-07-10T12:59:06Z</time>
      </trkpt>
      <trkpt lat="46.16144" lon="4.13688">
        <ele>363</ele>
        <time>2015-07-10T12:59:14Z</time>
      </trkpt>
      <trkpt lat="46.1612" lon="4.13661">
        <ele>366</ele>
        <time>2015-07-10T12:59:35Z</time>
      </trkpt>
      <trkpt lat="46.16102" lon="4.13648">
        <ele>365</ele>
        <time>2015-07-10T12:59:51Z</time>
      </trkpt>
      <trkpt lat="46.16082" lon="4.1364">
        <ele>366</ele>
        <time>2015-07-10T13:00:09Z</time>
      </trkpt>
      <trkpt lat="46.1608" lon="4.13633">
        <ele>367</ele>
        <time>2015-07-10T13:00:14Z</time>
      </trkpt>
      <trkpt lat="46.16083" lon="4.13627">
        <ele>366</ele>
        <time>2015-07-10T13:00:19Z</time>
      </trkpt>
      <trkpt lat="46.16088" lon="4.13625">
        <ele>366</ele>
        <time>2015-07-10T13:00:23Z</time>
      </trkpt>
      <trkpt lat="46.16117" lon="4.13592">
        <ele>366</ele>
        <time>2015-07-10T13:00:52Z</time>
      </trkpt>
      <trkpt lat="46.16119" lon="4.13584">
        <ele>366</ele>
        <time>2015-07-10T13:00:56Z</time>
      </trkpt>
      <trkpt lat="46.1612" lon="4.13542">
        <ele>366</ele>
        <time>2015-07-10T13:01:20Z</time>
      </trkpt>
      <trkpt lat="46.16123" lon="4.13511">
        <ele>365</ele>
        <time>2015-07-10T13:01:37Z</time>
      </trkpt>
      <trkpt lat="46.1612" lon="4.13505">
        <ele>365</ele>
        <time>2015-07-10T13:01:42Z</time>
      </trkpt>
      <trkpt lat="46.16119" lon="4.13488">
        <ele>365</ele>
        <time>2015-07-10T13:01:50Z</time>
      </trkpt>
      <trkpt lat="46.16118" lon="4.13481">
        <ele>365</ele>
        <time>2015-07-10T13:01:55Z</time>
      </trkpt>
      <trkpt lat="46.16117" lon="4.13473">
        <ele>365</ele>
        <time>2015-07-10T13:01:58Z</time>
      </trkpt>
      <trkpt lat="46.16115" lon="4.13466">
        <ele>366</ele>
        <time>2015-07-10T13:02:03Z</time>
      </trkpt>
      <trkpt lat="46.16117" lon="4.1344">
        <ele>365</ele>
        <time>2015-07-10T13:02:18Z</time>
      </trkpt>
      <trkpt lat="46.16116" lon="4.13415">
        <ele>365</ele>
        <time>2015-07-10T13:02:33Z</time>
      </trkpt>
      <trkpt lat="46.16112" lon="4.13405">
        <ele>365</ele>
        <time>2015-07-10T13:02:39Z</time>
      </trkpt>
      <trkpt lat="46.16109" lon="4.13382">
        <ele>361</ele>
        <time>2015-07-10T13:02:52Z</time>
      </trkpt>
      <trkpt lat="46.16111" lon="4.13376">
        <ele>360</ele>
        <time>2015-07-10T13:02:57Z</time>
      </trkpt>
      <trkpt lat="46.16113" lon="4.13374">
        <ele>360</ele>
        <time>2015-07-10T13:02:58Z</time>
      </trkpt>
      <trkpt lat="46.16114" lon="4.13367">
        <ele>359</ele>
        <time>2015-07-10T13:03:04Z</time>
      </trkpt>
      <trkpt lat="46.16111" lon="4.13361">
        <ele>359</ele>
        <time>2015-07-10T13:03:09Z</time>
      </trkpt>
      <trkpt lat="46.16102" lon="4.13311">
        <ele>356</ele>
        <time>2015-07-10T13:03:39Z</time>
      </trkpt>
      <trkpt lat="46.16102" lon="4.13304">
        <ele>356</ele>
        <time>2015-07-10T13:03:44Z</time>
      </trkpt>
      <trkpt lat="46.16099" lon="4.13298">
        <ele>355</ele>
        <time>2015-07-10T13:03:49Z</time>
      </trkpt>
      <trkpt lat="46.16095" lon="4.13295">
        <ele>354</ele>
        <time>2015-07-10T13:03:53Z</time>
      </trkpt>
      <trkpt lat="46.16058" lon="4.13299">
        <ele>348</ele>
        <time>2015-07-10T13:04:23Z</time>
      </trkpt>
      <trkpt lat="46.16047" lon="4.13303">
        <ele>347</ele>
        <time>2015-07-10T13:04:31Z</time>
      </trkpt>
      <trkpt lat="46.16042" lon="4.13306">
        <ele>346</ele>
        <time>2015-07-10T13:04:39Z</time>
      </trkpt>
      <trkpt lat="46.15992" lon="4.13311">
        <ele>348</ele>
        <time>2015-07-10T13:05:21Z</time>
      </trkpt>
      <trkpt lat="46.15978" lon="4.13307">
        <ele>350</ele>
        <time>2015-07-10T13:05:29Z</time>
      </trkpt>
      <trkpt lat="46.15962" lon="4.13311">
        <ele>349</ele>
        <time>2015-07-10T13:05:42Z</time>
      </trkpt>
      <trkpt lat="46.15936" lon="4.13304">
        <ele>349</ele>
        <time>2015-07-10T13:06:02Z</time>
      </trkpt>
      <trkpt lat="46.15925" lon="4.13304">
        <ele>350</ele>
        <time>2015-07-10T13:06:10Z</time>
      </trkpt>
      <trkpt lat="46.15921" lon="4.13307">
        <ele>350</ele>
        <time>2015-07-10T13:06:15Z</time>
      </trkpt>
      <trkpt lat="46.15916" lon="4.13307">
        <ele>351</ele>
        <time>2015-07-10T13:06:19Z</time>
      </trkpt>
      <trkpt lat="46.15911" lon="4.13305">
        <ele>352</ele>
        <time>2015-07-10T13:06:23Z</time>
      </trkpt>
      <trkpt lat="46.15869" lon="4.13305">
        <ele>351</ele>
        <time>2015-07-10T13:06:53Z</time>
      </trkpt>
      <trkpt lat="46.15864" lon="4.13306">
        <ele>352</ele>
        <time>2015-07-10T13:06:57Z</time>
      </trkpt>
      <trkpt lat="46.15855" lon="4.13308">
        <ele>351</ele>
        <time>2015-07-10T13:07:04Z</time>
      </trkpt>
      <trkpt lat="46.1582" lon="4.13304">
        <ele>351</ele>
        <time>2015-07-10T13:07:35Z</time>
      </trkpt>
      <trkpt lat="46.15805" lon="4.13297">
        <ele>351</ele>
        <time>2015-07-10T13:07:48Z</time>
      </trkpt>
      <trkpt lat="46.15716" lon="4.13171">
        <ele>352</ele>
        <time>2015-07-10T13:09:31Z</time>
      </trkpt>
      <trkpt lat="46.15713" lon="4.13171">
        <ele>351</ele>
        <time>2015-07-10T13:09:34Z</time>
      </trkpt>
      <trkpt lat="46.15699" lon="4.13161">
        <ele>350</ele>
        <time>2015-07-10T13:09:45Z</time>
      </trkpt>
      <trkpt lat="46.15694" lon="4.13158">
        <ele>350</ele>
        <time>2015-07-10T13:09:51Z</time>
      </trkpt>
      <trkpt lat="46.15625" lon="4.13081">
        <ele>343</ele>
        <time>2015-07-10T13:10:59Z</time>
      </trkpt>
      <trkpt lat="46.15621" lon="4.13079">
        <ele>343</ele>
        <time>2015-07-10T13:11:02Z</time>
      </trkpt>
      <trkpt lat="46.15616" lon="4.13074">
        <ele>344</ele>
        <time>2015-07-10T13:11:12Z</time>
      </trkpt>
      <trkpt lat="46.15605" lon="4.13061">
        <ele>344</ele>
        <time>2015-07-10T13:11:23Z</time>
      </trkpt>
      <trkpt lat="46.15602" lon="4.13054">
        <ele>343</ele>
        <time>2015-07-10T13:11:27Z</time>
      </trkpt>
      <trkpt lat="46.15598" lon="4.13053">
        <ele>343</ele>
        <time>2015-07-10T13:11:29Z</time>
      </trkpt>
      <trkpt lat="46.15582" lon="4.13028">
        <ele>340</ele>
        <time>2015-07-10T13:11:44Z</time>
      </trkpt>
      <trkpt lat="46.15579" lon="4.13022">
        <ele>340</ele>
        <time>2015-07-10T13:11:49Z</time>
      </trkpt>
      <trkpt lat="46.15582" lon="4.13002">
        <ele>340</ele>
        <time>2015-07-10T13:12:05Z</time>
      </trkpt>
      <trkpt lat="46.15574" lon="4.12966">
        <ele>340</ele>
        <time>2015-07-10T13:12:20Z</time>
      </trkpt>
      <trkpt lat="46.1557" lon="4.12954">
        <ele>340</ele>
        <time>2015-07-10T13:12:24Z</time>
      </trkpt>
      <trkpt lat="46.15571" lon="4.12946">
        <ele>340</ele>
        <time>2015-07-10T13:12:36Z</time>
      </trkpt>
      <trkpt lat="46.1557" lon="4.12939">
        <ele>340</ele>
        <time>2015-07-10T13:12:39Z</time>
      </trkpt>
      <trkpt lat="46.15565" lon="4.12926">
        <ele>341</ele>
        <time>2015-07-10T13:12:51Z</time>
      </trkpt>
      <trkpt lat="46.1556" lon="4.12907">
        <ele>341</ele>
        <time>2015-07-10T13:13:03Z</time>
      </trkpt>
      <trkpt lat="46.15561" lon="4.12898">
        <ele>341</ele>
        <time>2015-07-10T13:13:07Z</time>
      </trkpt>
      <trkpt lat="46.1551" lon="4.12795">
        <ele>340</ele>
        <time>2015-07-10T13:14:18Z</time>
      </trkpt>
      <trkpt lat="46.15505" lon="4.12756">
        <ele>338</ele>
        <time>2015-07-10T13:14:46Z</time>
      </trkpt>
      <trkpt lat="46.15507" lon="4.12741">
        <ele>338</ele>
        <time>2015-07-10T13:14:55Z</time>
      </trkpt>
      <trkpt lat="46.15509" lon="4.12735">
        <ele>338</ele>
        <time>2015-07-10T13:15:01Z</time>
      </trkpt>
      <trkpt lat="46.15512" lon="4.1273">
        <ele>337</ele>
        <time>2015-07-10T13:15:05Z</time>
      </trkpt>
      <trkpt lat="46.15515" lon="4.12717">
        <ele>336</ele>
        <time>2015-07-10T13:15:13Z</time>
      </trkpt>
      <trkpt lat="46.15513" lon="4.12715">
        <ele>336</ele>
        <time>2015-07-10T13:15:19Z</time>
      </trkpt>
      <trkpt lat="46.15516" lon="4.1271">
        <ele>335</ele>
        <time>2015-07-10T13:15:25Z</time>
      </trkpt>
      <trkpt lat="46.15518" lon="4.12704">
        <ele>335</ele>
        <time>2015-07-10T13:15:30Z</time>
      </trkpt>
      <trkpt lat="46.15517" lon="4.12691">
        <ele>334</ele>
        <time>2015-07-10T13:15:37Z</time>
      </trkpt>
      <trkpt lat="46.15519" lon="4.12685">
        <ele>333</ele>
        <time>2015-07-10T13:15:47Z</time>
      </trkpt>
      <trkpt lat="46.15521" lon="4.12683">
        <ele>332</ele>
        <time>2015-07-10T13:16:00Z</time>
      </trkpt>
      <trkpt lat="46.15524" lon="4.12679">
        <ele>332</ele>
        <time>2015-07-10T13:17:10Z</time>
      </trkpt>
      <trkpt lat="46.15526" lon="4.12671">
        <ele>332</ele>
        <time>2015-07-10T13:17:14Z</time>
      </trkpt>
      <trkpt lat="46.1553" lon="4.12628">
        <ele>326</ele>
        <time>2015-07-10T13:17:40Z</time>
      </trkpt>
      <trkpt lat="46.1549" lon="4.12535">
        <ele>309</ele>
        <time>2015-07-10T13:18:39Z</time>
      </trkpt>
      <trkpt lat="46.15488" lon="4.12522">
        <ele>307</ele>
        <time>2015-07-10T13:18:47Z</time>
      </trkpt>
      <trkpt lat="46.15472" lon="4.12489">
        <ele>304</ele>
        <time>2015-07-10T13:19:05Z</time>
      </trkpt>
      <trkpt lat="46.15468" lon="4.12484">
        <ele>302</ele>
        <time>2015-07-10T13:19:09Z</time>
      </trkpt>
      <trkpt lat="46.15462" lon="4.12471">
        <ele>299</ele>
        <time>2015-07-10T13:19:17Z</time>
      </trkpt>
      <trkpt lat="46.15454" lon="4.12461">
        <ele>298</ele>
        <time>2015-07-10T13:19:25Z</time>
      </trkpt>
      <trkpt lat="46.15446" lon="4.1245">
        <ele>295</ele>
        <time>2015-07-10T13:19:33Z</time>
      </trkpt>
      <trkpt lat="46.15446" lon="4.12445">
        <ele>293</ele>
        <time>2015-07-10T13:19:44Z</time>
      </trkpt>
      <trkpt lat="46.15423" lon="4.12403">
        <ele>287</ele>
        <time>2015-07-10T13:20:13Z</time>
      </trkpt>
      <trkpt lat="46.15405" lon="4.12386">
        <ele>281</ele>
        <time>2015-07-10T13:20:36Z</time>
      </trkpt>
      <trkpt lat="46.15404" lon="4.12382">
        <ele>282</ele>
        <time>2015-07-10T13:20:57Z</time>
      </trkpt>
      <trkpt lat="46.15391" lon="4.12358">
        <ele>278</ele>
        <time>2015-07-10T13:21:13Z</time>
      </trkpt>
      <trkpt lat="46.15383" lon="4.12349">
        <ele>277</ele>
        <time>2015-07-10T13:21:20Z</time>
      </trkpt>
      <trkpt lat="46.15374" lon="4.12334">
        <ele>277</ele>
        <time>2015-07-10T13:21:34Z</time>
      </trkpt>
      <trkpt lat="46.15369" lon="4.12332">
        <ele>277</ele>
        <time>2015-07-10T13:21:42Z</time>
      </trkpt>
      <trkpt lat="46.15368" lon="4.12336">
        <ele>277</ele>
        <time>2015-07-10T13:21:50Z</time>
      </trkpt>
      <trkpt lat="46.15365" lon="4.12336">
        <ele>277</ele>
        <time>2015-07-10T13:22:08Z</time>
      </trkpt>
      <trkpt lat="46.15359" lon="4.12348">
        <ele>277</ele>
        <time>2015-07-10T13:22:55Z</time>
      </trkpt>
      <trkpt lat="46.15367" lon="4.12354">
        <ele>278</ele>
        <time>2015-07-10T13:23:11Z</time>
      </trkpt>
      <trkpt lat="46.15369" lon="4.12346">
        <ele>278</ele>
        <time>2015-07-10T13:23:44Z</time>
      </trkpt>
      <trkpt lat="46.15361" lon="4.12343">
        <ele>278</ele>
        <time>2015-07-10T13:27:43Z</time>
      </trkpt>
      <trkpt lat="46.15361" lon="4.12359">
        <ele>279</ele>
        <time>2015-07-10T13:28:08Z</time>
      </trkpt>
      <trkpt lat="46.15367" lon="4.12352">
        <ele>279</ele>
        <time>2015-07-10T13:29:23Z</time>
      </trkpt>
      <trkpt lat="46.15373" lon="4.12344">
        <ele>279</ele>
        <time>2015-07-10T13:29:45Z</time>
      </trkpt>
      <trkpt lat="46.15377" lon="4.12338">
        <ele>279</ele>
        <time>2015-07-10T13:30:13Z</time>
      </trkpt>
      <trkpt lat="46.15371" lon="4.1233">
        <ele>279</ele>
        <time>2015-07-10T13:30:25Z</time>
      </trkpt>
      <trkpt lat="46.15378" lon="4.12319">
        <ele>278</ele>
        <time>2015-07-10T13:30:40Z</time>
      </trkpt>
      <trkpt lat="46.15381" lon="4.12312">
        <ele>279</ele>
        <time>2015-07-10T13:30:59Z</time>
      </trkpt>
      <trkpt lat="46.15378" lon="4.12303">
        <ele>278</ele>
        <time>2015-07-10T13:32:15Z</time>
      </trkpt>
      <trkpt lat="46.15376" lon="4.12308">
        <ele>279</ele>
        <time>2015-07-10T13:32:54Z</time>
      </trkpt>
      <trkpt lat="46.15373" lon="4.12309">
        <ele>279</ele>
        <time>2015-07-10T13:33:34Z</time>
      </trkpt>
      <trkpt lat="46.15362" lon="4.1227">
        <ele>278</ele>
        <time>2015-07-10T13:34:10Z</time>
      </trkpt>
      <trkpt lat="46.15362" lon="4.1226">
        <ele>277</ele>
        <time>2015-07-10T13:34:20Z</time>
      </trkpt>
      <trkpt lat="46.15368" lon="4.1223">
        <ele>276</ele>
        <time>2015-07-10T13:34:43Z</time>
      </trkpt>
      <trkpt lat="46.15366" lon="4.12215">
        <ele>275</ele>
        <time>2015-07-10T13:34:51Z</time>
      </trkpt>
      <trkpt lat="46.15368" lon="4.12202">
        <ele>275</ele>
        <time>2015-07-10T13:34:59Z</time>
      </trkpt>
      <trkpt lat="46.15369" lon="4.12195">
        <ele>274</ele>
        <time>2015-07-10T13:35:04Z</time>
      </trkpt>
      <trkpt lat="46.15372" lon="4.12168">
        <ele>274</ele>
        <time>2015-07-10T13:35:25Z</time>
      </trkpt>
      <trkpt lat="46.15368" lon="4.12099">
        <ele>272</ele>
        <time>2015-07-10T13:36:13Z</time>
      </trkpt>
      <trkpt lat="46.15363" lon="4.12098">
        <ele>272</ele>
        <time>2015-07-10T13:36:18Z</time>
      </trkpt>
      <trkpt lat="46.15361" lon="4.12092">
        <ele>272</ele>
        <time>2015-07-10T13:36:23Z</time>
      </trkpt>
      <trkpt lat="46.15361" lon="4.12085">
        <ele>271</ele>
        <time>2015-07-10T13:36:27Z</time>
      </trkpt>
      <trkpt lat="46.15356" lon="4.11966">
        <ele>269</ele>
        <time>2015-07-10T13:37:37Z</time>
      </trkpt>
      <trkpt lat="46.15352" lon="4.11945">
        <ele>269</ele>
        <time>2015-07-10T13:37:49Z</time>
      </trkpt>
      <trkpt lat="46.15316" lon="4.11856">
        <ele>273</ele>
        <time>2015-07-10T13:38:46Z</time>
      </trkpt>
      <trkpt lat="46.15313" lon="4.11852">
        <ele>272</ele>
        <time>2015-07-10T13:38:50Z</time>
      </trkpt>
      <trkpt lat="46.15292" lon="4.11804">
        <ele>269</ele>
        <time>2015-07-10T13:39:23Z</time>
      </trkpt>
      <trkpt lat="46.15282" lon="4.11786">
        <ele>267</ele>
        <time>2015-07-10T13:39:35Z</time>
      </trkpt>
      <trkpt lat="46.15278" lon="4.11766">
        <ele>267</ele>
        <time>2015-07-10T13:39:47Z</time>
      </trkpt>
      <trkpt lat="46.1524" lon="4.11722">
        <ele>264</ele>
        <time>2015-07-10T13:40:31Z</time>
      </trkpt>
      <trkpt lat="46.15217" lon="4.11677">
        <ele>264</ele>
        <time>2015-07-10T13:41:03Z</time>
      </trkpt>
      <trkpt lat="46.15206" lon="4.11661">
        <ele>264</ele>
        <time>2015-07-10T13:41:15Z</time>
      </trkpt>
      <trkpt lat="46.15188" lon="4.11609">
        <ele>263</ele>
        <time>2015-07-10T13:41:48Z</time>
      </trkpt>
      <trkpt lat="46.15169" lon="4.11567">
        <ele>261</ele>
        <time>2015-07-10T13:42:19Z</time>
      </trkpt>
      <trkpt lat="46.15165" lon="4.11565">
        <ele>261</ele>
        <time>2015-07-10T13:42:23Z</time>
      </trkpt>
      <trkpt lat="46.15161" lon="4.1156">
        <ele>261</ele>
        <time>2015-07-10T13:42:27Z</time>
      </trkpt>
      <trkpt lat="46.15105" lon="4.11371">
        <ele>258</ele>
        <time>2015-07-10T13:44:33Z</time>
      </trkpt>
      <trkpt lat="46.15105" lon="4.11365">
        <ele>257</ele>
        <time>2015-07-10T13:44:56Z</time>
      </trkpt>
      <trkpt lat="46.15064" lon="4.11305">
        <ele>257</ele>
        <time>2015-07-10T13:45:46Z</time>
      </trkpt>
      <trkpt lat="46.15056" lon="4.11272">
        <ele>260</ele>
        <time>2015-07-10T13:46:08Z</time>
      </trkpt>
      <trkpt lat="46.15058" lon="4.11242">
        <ele>261</ele>
        <time>2015-07-10T13:46:25Z</time>
      </trkpt>
      <trkpt lat="46.15073" lon="4.11188">
        <ele>260</ele>
        <time>2015-07-10T13:46:58Z</time>
      </trkpt>
      <trkpt lat="46.15095" lon="4.1113">
        <ele>255</ele>
        <time>2015-07-10T13:47:37Z</time>
      </trkpt>
      <trkpt lat="46.15132" lon="4.10966">
        <ele>256</ele>
        <time>2015-07-10T13:49:18Z</time>
      </trkpt>
      <trkpt lat="46.15132" lon="4.10958">
        <ele>256</ele>
        <time>2015-07-10T13:49:23Z</time>
      </trkpt>
      <trkpt lat="46.1513" lon="4.10952">
        <ele>257</ele>
        <time>2015-07-10T13:49:27Z</time>
      </trkpt>
      <trkpt lat="46.15141" lon="4.10886">
        <ele>260</ele>
        <time>2015-07-10T13:51:01Z</time>
      </trkpt>
      <trkpt lat="46.15141" lon="4.10885">
        <ele>260</ele>
        <time>2015-07-10T13:51:13Z</time>
      </trkpt>
      <trkpt lat="46.15136" lon="4.10884">
        <ele>259</ele>
        <time>2015-07-10T13:51:51Z</time>
      </trkpt>
      <trkpt lat="46.15075" lon="4.10886">
        <ele>262</ele>
        <time>2015-07-10T13:52:39Z</time>
      </trkpt>
      <trkpt lat="46.1507" lon="4.10888">
        <ele>262</ele>
        <time>2015-07-10T13:52:44Z</time>
      </trkpt>
      <trkpt lat="46.15065" lon="4.10886">
        <ele>262</ele>
        <time>2015-07-10T13:52:49Z</time>
      </trkpt>
      <trkpt lat="46.15034" lon="4.10883">
        <ele>262</ele>
        <time>2015-07-10T13:53:13Z</time>
      </trkpt>
      <trkpt lat="46.1503" lon="4.10888">
        <ele>261</ele>
        <time>2015-07-10T13:53:18Z</time>
      </trkpt>
      <trkpt lat="46.14984" lon="4.10878">
        <ele>259</ele>
        <time>2015-07-10T13:53:54Z</time>
      </trkpt>
      <trkpt lat="46.14943" lon="4.10875">
        <ele>261</ele>
        <time>2015-07-10T13:54:27Z</time>
      </trkpt>
      <trkpt lat="46.14938" lon="4.10874">
        <ele>261</ele>
        <time>2015-07-10T13:54:33Z</time>
      </trkpt>
      <trkpt lat="46.14932" lon="4.10862">
        <ele>261</ele>
        <time>2015-07-10T13:54:42Z</time>
      </trkpt>
      <trkpt lat="46.14781" lon="4.10856">
        <ele>262</ele>
        <time>2015-07-10T13:56:44Z</time>
      </trkpt>
      <trkpt lat="46.14752" lon="4.10851">
        <ele>263</ele>
        <time>2015-07-10T13:57:09Z</time>
      </trkpt>
      <trkpt lat="46.14747" lon="4.10849">
        <ele>263</ele>
        <time>2015-07-10T13:57:14Z</time>
      </trkpt>
      <trkpt lat="46.14732" lon="4.10848">
        <ele>261</ele>
        <time>2015-07-10T13:57:29Z</time>
      </trkpt>
      <trkpt lat="46.14709" lon="4.10848">
        <ele>261</ele>
        <time>2015-07-10T13:57:58Z</time>
      </trkpt>
      <trkpt lat="46.14707" lon="4.1085">
        <ele>261</ele>
        <time>2015-07-10T13:58:04Z</time>
      </trkpt>
      <trkpt lat="46.14702" lon="4.10846">
        <ele>261</ele>
        <time>2015-07-10T13:58:09Z</time>
      </trkpt>
      <trkpt lat="46.14699" lon="4.1085">
        <ele>261</ele>
        <time>2015-07-10T13:58:15Z</time>
      </trkpt>
      <trkpt lat="46.14687" lon="4.10846">
        <ele>261</ele>
        <time>2015-07-10T13:58:31Z</time>
      </trkpt>
      <trkpt lat="46.14683" lon="4.10847">
        <ele>261</ele>
        <time>2015-07-10T13:58:36Z</time>
      </trkpt>
      <trkpt lat="46.14677" lon="4.10848">
        <ele>261</ele>
        <time>2015-07-10T13:58:41Z</time>
      </trkpt>
      <trkpt lat="46.14667" lon="4.10847">
        <ele>262</ele>
        <time>2015-07-10T13:58:49Z</time>
      </trkpt>
      <trkpt lat="46.14662" lon="4.10846">
        <ele>262</ele>
        <time>2015-07-10T13:58:53Z</time>
      </trkpt>
      <trkpt lat="46.14658" lon="4.10844">
        <ele>261</ele>
        <time>2015-07-10T13:58:57Z</time>
      </trkpt>
      <trkpt lat="46.14652" lon="4.10843">
        <ele>261</ele>
        <time>2015-07-10T13:59:02Z</time>
      </trkpt>
      <trkpt lat="46.14628" lon="4.10845">
        <ele>265</ele>
        <time>2015-07-10T13:59:22Z</time>
      </trkpt>
      <trkpt lat="46.14623" lon="4.10844">
        <ele>266</ele>
        <time>2015-07-10T13:59:27Z</time>
      </trkpt>
    </trkseg>
  </trk>
</gpx>